<?xml version="1.0" encoding="UTF-8" standalone="no" ?>
<gpx xmlns="http://www.topografix.com/GPX/1/1" xmlns:xsi="http://www.w3.org/2001/XMLSchema-instance" xsi:schemaLocation="http://www.topografix.com/GPX/1/1 http://www.topografix.com/GPX/1/1/gpx.xsd" version="1.1" creator="VisuGPX - https://www.visugpx.com">
  <metadata>
    <name>Steinbach 2023</name>
  </metadata>
  <trk>
    <name><![CDATA[Steinbach Cyclisme]]></name>
    <trkseg>
      <trkpt lat="47.82134" lon="7.15102">
        <ele>367.20001220703</ele>
        <time>2023-05-21T06:03:49.000Z</time>
      </trkpt>
      <trkpt lat="47.82141" lon="7.15109">
        <ele>367.20001220703</ele>
        <time>2023-05-21T06:03:51.000Z</time>
      </trkpt>
      <trkpt lat="47.82145" lon="7.15113">
        <ele>367.20001220703</ele>
        <time>2023-05-21T06:03:52.000Z</time>
      </trkpt>
      <trkpt lat="47.82149" lon="7.15117">
        <ele>369.20001220703</ele>
        <time>2023-05-21T06:03:53.000Z</time>
      </trkpt>
      <trkpt lat="47.82161" lon="7.15113">
        <ele>369.20001220703</ele>
        <time>2023-05-21T06:03:56.000Z</time>
      </trkpt>
      <trkpt lat="47.82167" lon="7.15096">
        <ele>369.20001220703</ele>
        <time>2023-05-21T06:04:00.000Z</time>
      </trkpt>
      <trkpt lat="47.82175" lon="7.15065">
        <ele>369.20001220703</ele>
        <time>2023-05-21T06:04:07.000Z</time>
      </trkpt>
      <trkpt lat="47.82183" lon="7.15044">
        <ele>369.20001220703</ele>
        <time>2023-05-21T06:04:13.000Z</time>
      </trkpt>
      <trkpt lat="47.82193" lon="7.15045">
        <ele>369.20001220703</ele>
        <time>2023-05-21T06:04:17.000Z</time>
      </trkpt>
      <trkpt lat="47.82206" lon="7.15053">
        <ele>369.20001220703</ele>
        <time>2023-05-21T06:04:23.000Z</time>
      </trkpt>
      <trkpt lat="47.82209" lon="7.15051">
        <ele>369.20001220703</ele>
        <time>2023-05-21T06:04:25.000Z</time>
      </trkpt>
      <trkpt lat="47.82212" lon="7.15045">
        <ele>369.20001220703</ele>
        <time>2023-05-21T06:04:27.000Z</time>
      </trkpt>
      <trkpt lat="47.82215" lon="7.15036">
        <ele>369.20001220703</ele>
        <time>2023-05-21T06:04:29.000Z</time>
      </trkpt>
      <trkpt lat="47.82219" lon="7.15019">
        <ele>369.20001220703</ele>
        <time>2023-05-21T06:04:33.000Z</time>
      </trkpt>
      <trkpt lat="47.82227" lon="7.14996">
        <ele>369.20001220703</ele>
        <time>2023-05-21T06:04:39.000Z</time>
      </trkpt>
      <trkpt lat="47.82236" lon="7.14962">
        <ele>369.20001220703</ele>
        <time>2023-05-21T06:04:46.000Z</time>
      </trkpt>
      <trkpt lat="47.82238" lon="7.14953">
        <ele>369.79998779297</ele>
        <time>2023-05-21T06:04:48.000Z</time>
      </trkpt>
      <trkpt lat="47.82239" lon="7.14945">
        <ele>370.60000610352</ele>
        <time>2023-05-21T06:04:49.000Z</time>
      </trkpt>
      <trkpt lat="47.82239" lon="7.14941">
        <ele>371</ele>
        <time>2023-05-21T06:04:51.000Z</time>
      </trkpt>
      <trkpt lat="47.82239" lon="7.14937">
        <ele>371.39999389648</ele>
        <time>2023-05-21T06:04:52.000Z</time>
      </trkpt>
      <trkpt lat="47.82236" lon="7.14935">
        <ele>371.39999389648</ele>
        <time>2023-05-21T06:04:53.000Z</time>
      </trkpt>
      <trkpt lat="47.82241" lon="7.14908">
        <ele>371.39999389648</ele>
        <time>2023-05-21T06:05:00.000Z</time>
      </trkpt>
      <trkpt lat="47.82248" lon="7.14878">
        <ele>372.20001220703</ele>
        <time>2023-05-21T06:05:07.000Z</time>
      </trkpt>
      <trkpt lat="47.82248" lon="7.14874">
        <ele>372.60000610352</ele>
        <time>2023-05-21T06:05:08.000Z</time>
      </trkpt>
      <trkpt lat="47.82249" lon="7.14869">
        <ele>373</ele>
        <time>2023-05-21T06:05:09.000Z</time>
      </trkpt>
      <trkpt lat="47.82249" lon="7.14864">
        <ele>373.39999389648</ele>
        <time>2023-05-21T06:05:10.000Z</time>
      </trkpt>
      <trkpt lat="47.82251" lon="7.14845">
        <ele>373.39999389648</ele>
        <time>2023-05-21T06:05:14.000Z</time>
      </trkpt>
      <trkpt lat="47.82254" lon="7.14812">
        <ele>373.79998779297</ele>
        <time>2023-05-21T06:05:21.000Z</time>
      </trkpt>
      <trkpt lat="47.82255" lon="7.14808">
        <ele>374.20001220703</ele>
        <time>2023-05-21T06:05:22.000Z</time>
      </trkpt>
      <trkpt lat="47.82256" lon="7.14803">
        <ele>374.60000610352</ele>
        <time>2023-05-21T06:05:23.000Z</time>
      </trkpt>
      <trkpt lat="47.82257" lon="7.14799">
        <ele>375</ele>
        <time>2023-05-21T06:05:24.000Z</time>
      </trkpt>
      <trkpt lat="47.82258" lon="7.14795">
        <ele>375.60000610352</ele>
        <time>2023-05-21T06:05:25.000Z</time>
      </trkpt>
      <trkpt lat="47.82262" lon="7.14776">
        <ele>375.60000610352</ele>
        <time>2023-05-21T06:05:30.000Z</time>
      </trkpt>
      <trkpt lat="47.82263" lon="7.14771">
        <ele>376</ele>
        <time>2023-05-21T06:05:31.000Z</time>
      </trkpt>
      <trkpt lat="47.82263" lon="7.14766">
        <ele>376.39999389648</ele>
        <time>2023-05-21T06:05:32.000Z</time>
      </trkpt>
      <trkpt lat="47.82264" lon="7.1476">
        <ele>376.79998779297</ele>
        <time>2023-05-21T06:05:33.000Z</time>
      </trkpt>
      <trkpt lat="47.82265" lon="7.14755">
        <ele>377.20001220703</ele>
        <time>2023-05-21T06:05:34.000Z</time>
      </trkpt>
      <trkpt lat="47.82265" lon="7.1475">
        <ele>377.60000610352</ele>
        <time>2023-05-21T06:05:35.000Z</time>
      </trkpt>
      <trkpt lat="47.82268" lon="7.14715">
        <ele>378</ele>
        <time>2023-05-21T06:05:42.000Z</time>
      </trkpt>
      <trkpt lat="47.82268" lon="7.1471">
        <ele>378.39999389648</ele>
        <time>2023-05-21T06:05:43.000Z</time>
      </trkpt>
      <trkpt lat="47.82268" lon="7.14705">
        <ele>378.79998779297</ele>
        <time>2023-05-21T06:05:44.000Z</time>
      </trkpt>
      <trkpt lat="47.82268" lon="7.147">
        <ele>379.20001220703</ele>
        <time>2023-05-21T06:05:45.000Z</time>
      </trkpt>
      <trkpt lat="47.82267" lon="7.14695">
        <ele>379.60000610352</ele>
        <time>2023-05-21T06:05:46.000Z</time>
      </trkpt>
      <trkpt lat="47.82266" lon="7.14679">
        <ele>379.60000610352</ele>
        <time>2023-05-21T06:05:49.000Z</time>
      </trkpt>
      <trkpt lat="47.82265" lon="7.14649">
        <ele>380</ele>
        <time>2023-05-21T06:05:55.000Z</time>
      </trkpt>
      <trkpt lat="47.82265" lon="7.14644">
        <ele>380.79998779297</ele>
        <time>2023-05-21T06:05:56.000Z</time>
      </trkpt>
      <trkpt lat="47.82265" lon="7.14639">
        <ele>381.20001220703</ele>
        <time>2023-05-21T06:05:57.000Z</time>
      </trkpt>
      <trkpt lat="47.82265" lon="7.14634">
        <ele>381.79998779297</ele>
        <time>2023-05-21T06:05:58.000Z</time>
      </trkpt>
      <trkpt lat="47.82271" lon="7.14611">
        <ele>382.20001220703</ele>
        <time>2023-05-21T06:06:03.000Z</time>
      </trkpt>
      <trkpt lat="47.82272" lon="7.14607">
        <ele>382.60000610352</ele>
        <time>2023-05-21T06:06:04.000Z</time>
      </trkpt>
      <trkpt lat="47.82274" lon="7.14603">
        <ele>383</ele>
        <time>2023-05-21T06:06:05.000Z</time>
      </trkpt>
      <trkpt lat="47.82276" lon="7.14599">
        <ele>383.39999389648</ele>
        <time>2023-05-21T06:06:06.000Z</time>
      </trkpt>
      <trkpt lat="47.82277" lon="7.14595">
        <ele>383.79998779297</ele>
        <time>2023-05-21T06:06:07.000Z</time>
      </trkpt>
      <trkpt lat="47.82282" lon="7.14582">
        <ele>383.79998779297</ele>
        <time>2023-05-21T06:06:10.000Z</time>
      </trkpt>
      <trkpt lat="47.82287" lon="7.14569">
        <ele>384.39999389648</ele>
        <time>2023-05-21T06:06:13.000Z</time>
      </trkpt>
      <trkpt lat="47.82289" lon="7.14566">
        <ele>384.79998779297</ele>
        <time>2023-05-21T06:06:14.000Z</time>
      </trkpt>
      <trkpt lat="47.8229" lon="7.14562">
        <ele>385.20001220703</ele>
        <time>2023-05-21T06:06:15.000Z</time>
      </trkpt>
      <trkpt lat="47.82291" lon="7.14558">
        <ele>385.60000610352</ele>
        <time>2023-05-21T06:06:16.000Z</time>
      </trkpt>
      <trkpt lat="47.82293" lon="7.14553">
        <ele>386</ele>
        <time>2023-05-21T06:06:17.000Z</time>
      </trkpt>
      <trkpt lat="47.82298" lon="7.14536">
        <ele>386.79998779297</ele>
        <time>2023-05-21T06:06:21.000Z</time>
      </trkpt>
      <trkpt lat="47.82299" lon="7.14531">
        <ele>387.39999389648</ele>
        <time>2023-05-21T06:06:22.000Z</time>
      </trkpt>
      <trkpt lat="47.823" lon="7.14527">
        <ele>387.79998779297</ele>
        <time>2023-05-21T06:06:23.000Z</time>
      </trkpt>
      <trkpt lat="47.82302" lon="7.14522">
        <ele>388.20001220703</ele>
        <time>2023-05-21T06:06:24.000Z</time>
      </trkpt>
      <trkpt lat="47.82303" lon="7.14518">
        <ele>388.20001220703</ele>
        <time>2023-05-21T06:06:25.000Z</time>
      </trkpt>
      <trkpt lat="47.82305" lon="7.1451">
        <ele>388.60000610352</ele>
        <time>2023-05-21T06:06:27.000Z</time>
      </trkpt>
      <trkpt lat="47.82306" lon="7.14506">
        <ele>389</ele>
        <time>2023-05-21T06:06:28.000Z</time>
      </trkpt>
      <trkpt lat="47.82308" lon="7.14502">
        <ele>389.39999389648</ele>
        <time>2023-05-21T06:06:29.000Z</time>
      </trkpt>
      <trkpt lat="47.82309" lon="7.14499">
        <ele>390</ele>
        <time>2023-05-21T06:06:30.000Z</time>
      </trkpt>
      <trkpt lat="47.8231" lon="7.14495">
        <ele>390.39999389648</ele>
        <time>2023-05-21T06:06:31.000Z</time>
      </trkpt>
      <trkpt lat="47.82311" lon="7.14491">
        <ele>390.39999389648</ele>
        <time>2023-05-21T06:06:32.000Z</time>
      </trkpt>
      <trkpt lat="47.82312" lon="7.14487">
        <ele>390.79998779297</ele>
        <time>2023-05-21T06:06:33.000Z</time>
      </trkpt>
      <trkpt lat="47.82313" lon="7.14483">
        <ele>391.20001220703</ele>
        <time>2023-05-21T06:06:34.000Z</time>
      </trkpt>
      <trkpt lat="47.82314" lon="7.14479">
        <ele>391.60000610352</ele>
        <time>2023-05-21T06:06:35.000Z</time>
      </trkpt>
      <trkpt lat="47.82316" lon="7.14476">
        <ele>392</ele>
        <time>2023-05-21T06:06:36.000Z</time>
      </trkpt>
      <trkpt lat="47.82317" lon="7.14472">
        <ele>392.39999389648</ele>
        <time>2023-05-21T06:06:37.000Z</time>
      </trkpt>
      <trkpt lat="47.82321" lon="7.14463">
        <ele>392.39999389648</ele>
        <time>2023-05-21T06:06:39.000Z</time>
      </trkpt>
      <trkpt lat="47.82327" lon="7.14445">
        <ele>392.79998779297</ele>
        <time>2023-05-21T06:06:43.000Z</time>
      </trkpt>
      <trkpt lat="47.82329" lon="7.14441">
        <ele>393.20001220703</ele>
        <time>2023-05-21T06:06:44.000Z</time>
      </trkpt>
      <trkpt lat="47.82331" lon="7.14436">
        <ele>393.60000610352</ele>
        <time>2023-05-21T06:06:45.000Z</time>
      </trkpt>
      <trkpt lat="47.82333" lon="7.14432">
        <ele>394.60000610352</ele>
        <time>2023-05-21T06:06:46.000Z</time>
      </trkpt>
      <trkpt lat="47.82343" lon="7.14408">
        <ele>394.60000610352</ele>
        <time>2023-05-21T06:06:51.000Z</time>
      </trkpt>
      <trkpt lat="47.82355" lon="7.14374">
        <ele>394.60000610352</ele>
        <time>2023-05-21T06:06:58.000Z</time>
      </trkpt>
      <trkpt lat="47.82369" lon="7.14342">
        <ele>394.60000610352</ele>
        <time>2023-05-21T06:07:05.000Z</time>
      </trkpt>
      <trkpt lat="47.8237" lon="7.14337">
        <ele>395</ele>
        <time>2023-05-21T06:07:06.000Z</time>
      </trkpt>
      <trkpt lat="47.82372" lon="7.14332">
        <ele>395.39999389648</ele>
        <time>2023-05-21T06:07:07.000Z</time>
      </trkpt>
      <trkpt lat="47.82373" lon="7.14326">
        <ele>395.79998779297</ele>
        <time>2023-05-21T06:07:08.000Z</time>
      </trkpt>
      <trkpt lat="47.82375" lon="7.14322">
        <ele>396.20001220703</ele>
        <time>2023-05-21T06:07:09.000Z</time>
      </trkpt>
      <trkpt lat="47.82377" lon="7.14318">
        <ele>396.60000610352</ele>
        <time>2023-05-21T06:07:10.000Z</time>
      </trkpt>
      <trkpt lat="47.82378" lon="7.14313">
        <ele>396.60000610352</ele>
        <time>2023-05-21T06:07:11.000Z</time>
      </trkpt>
      <trkpt lat="47.82385" lon="7.14282">
        <ele>396.60000610352</ele>
        <time>2023-05-21T06:07:17.000Z</time>
      </trkpt>
      <trkpt lat="47.82392" lon="7.14257">
        <ele>397</ele>
        <time>2023-05-21T06:07:22.000Z</time>
      </trkpt>
      <trkpt lat="47.82393" lon="7.14252">
        <ele>397.39999389648</ele>
        <time>2023-05-21T06:07:23.000Z</time>
      </trkpt>
      <trkpt lat="47.82395" lon="7.14247">
        <ele>397.79998779297</ele>
        <time>2023-05-21T06:07:24.000Z</time>
      </trkpt>
      <trkpt lat="47.82397" lon="7.14242">
        <ele>398.20001220703</ele>
        <time>2023-05-21T06:07:25.000Z</time>
      </trkpt>
      <trkpt lat="47.82398" lon="7.14237">
        <ele>398.60000610352</ele>
        <time>2023-05-21T06:07:26.000Z</time>
      </trkpt>
      <trkpt lat="47.82406" lon="7.14219">
        <ele>398.60000610352</ele>
        <time>2023-05-21T06:07:30.000Z</time>
      </trkpt>
      <trkpt lat="47.82418" lon="7.14199">
        <ele>398.60000610352</ele>
        <time>2023-05-21T06:07:35.000Z</time>
      </trkpt>
      <trkpt lat="47.82424" lon="7.14188">
        <ele>399</ele>
        <time>2023-05-21T06:07:38.000Z</time>
      </trkpt>
      <trkpt lat="47.82427" lon="7.14184">
        <ele>399.60000610352</ele>
        <time>2023-05-21T06:07:39.000Z</time>
      </trkpt>
      <trkpt lat="47.82429" lon="7.1418">
        <ele>400</ele>
        <time>2023-05-21T06:07:40.000Z</time>
      </trkpt>
      <trkpt lat="47.82431" lon="7.14176">
        <ele>400.39999389648</ele>
        <time>2023-05-21T06:07:41.000Z</time>
      </trkpt>
      <trkpt lat="47.82434" lon="7.14172">
        <ele>400.79998779297</ele>
        <time>2023-05-21T06:07:42.000Z</time>
      </trkpt>
      <trkpt lat="47.8244" lon="7.14165">
        <ele>400.79998779297</ele>
        <time>2023-05-21T06:07:44.000Z</time>
      </trkpt>
      <trkpt lat="47.82449" lon="7.14151">
        <ele>400.79998779297</ele>
        <time>2023-05-21T06:07:48.000Z</time>
      </trkpt>
      <trkpt lat="47.82458" lon="7.14139">
        <ele>401.39999389648</ele>
        <time>2023-05-21T06:07:51.000Z</time>
      </trkpt>
      <trkpt lat="47.82461" lon="7.14135">
        <ele>401.79998779297</ele>
        <time>2023-05-21T06:07:52.000Z</time>
      </trkpt>
      <trkpt lat="47.82464" lon="7.14131">
        <ele>402.20001220703</ele>
        <time>2023-05-21T06:07:53.000Z</time>
      </trkpt>
      <trkpt lat="47.82467" lon="7.14128">
        <ele>402.60000610352</ele>
        <time>2023-05-21T06:07:54.000Z</time>
      </trkpt>
      <trkpt lat="47.8247" lon="7.14124">
        <ele>403.20001220703</ele>
        <time>2023-05-21T06:07:55.000Z</time>
      </trkpt>
      <trkpt lat="47.82479" lon="7.14114">
        <ele>403.20001220703</ele>
        <time>2023-05-21T06:07:58.000Z</time>
      </trkpt>
      <trkpt lat="47.825" lon="7.14101">
        <ele>403.20001220703</ele>
        <time>2023-05-21T06:08:04.000Z</time>
      </trkpt>
      <trkpt lat="47.82515" lon="7.14091">
        <ele>403.20001220703</ele>
        <time>2023-05-21T06:08:09.000Z</time>
      </trkpt>
      <trkpt lat="47.82518" lon="7.14087">
        <ele>403.60000610352</ele>
        <time>2023-05-21T06:08:10.000Z</time>
      </trkpt>
      <trkpt lat="47.8252" lon="7.14083">
        <ele>404</ele>
        <time>2023-05-21T06:08:11.000Z</time>
      </trkpt>
      <trkpt lat="47.82522" lon="7.14079">
        <ele>404.39999389648</ele>
        <time>2023-05-21T06:08:12.000Z</time>
      </trkpt>
      <trkpt lat="47.82525" lon="7.14075">
        <ele>404.79998779297</ele>
        <time>2023-05-21T06:08:13.000Z</time>
      </trkpt>
      <trkpt lat="47.82527" lon="7.14071">
        <ele>405.20001220703</ele>
        <time>2023-05-21T06:08:14.000Z</time>
      </trkpt>
      <trkpt lat="47.82529" lon="7.14067">
        <ele>405.20001220703</ele>
        <time>2023-05-21T06:08:15.000Z</time>
      </trkpt>
      <trkpt lat="47.82545" lon="7.1404">
        <ele>405.20001220703</ele>
        <time>2023-05-21T06:08:21.000Z</time>
      </trkpt>
      <trkpt lat="47.82549" lon="7.14031">
        <ele>405.60000610352</ele>
        <time>2023-05-21T06:08:23.000Z</time>
      </trkpt>
      <trkpt lat="47.82552" lon="7.14028">
        <ele>406</ele>
        <time>2023-05-21T06:08:24.000Z</time>
      </trkpt>
      <trkpt lat="47.82555" lon="7.14024">
        <ele>407</ele>
        <time>2023-05-21T06:08:25.000Z</time>
      </trkpt>
      <trkpt lat="47.82558" lon="7.1402">
        <ele>407.39999389648</ele>
        <time>2023-05-21T06:08:26.000Z</time>
      </trkpt>
      <trkpt lat="47.82563" lon="7.14013">
        <ele>407.39999389648</ele>
        <time>2023-05-21T06:08:28.000Z</time>
      </trkpt>
      <trkpt lat="47.82573" lon="7.13992">
        <ele>407.79998779297</ele>
        <time>2023-05-21T06:08:33.000Z</time>
      </trkpt>
      <trkpt lat="47.82575" lon="7.13988">
        <ele>408.20001220703</ele>
        <time>2023-05-21T06:08:34.000Z</time>
      </trkpt>
      <trkpt lat="47.82578" lon="7.13984">
        <ele>408.60000610352</ele>
        <time>2023-05-21T06:08:35.000Z</time>
      </trkpt>
      <trkpt lat="47.82579" lon="7.1398">
        <ele>409</ele>
        <time>2023-05-21T06:08:36.000Z</time>
      </trkpt>
      <trkpt lat="47.82581" lon="7.13976">
        <ele>409.39999389648</ele>
        <time>2023-05-21T06:08:37.000Z</time>
      </trkpt>
      <trkpt lat="47.82583" lon="7.13973">
        <ele>409.39999389648</ele>
        <time>2023-05-21T06:08:38.000Z</time>
      </trkpt>
      <trkpt lat="47.82588" lon="7.13961">
        <ele>409.79998779297</ele>
        <time>2023-05-21T06:08:41.000Z</time>
      </trkpt>
      <trkpt lat="47.8259" lon="7.13957">
        <ele>410.20001220703</ele>
        <time>2023-05-21T06:08:42.000Z</time>
      </trkpt>
      <trkpt lat="47.82591" lon="7.13953">
        <ele>410.79998779297</ele>
        <time>2023-05-21T06:08:43.000Z</time>
      </trkpt>
      <trkpt lat="47.82593" lon="7.1395">
        <ele>411.20001220703</ele>
        <time>2023-05-21T06:08:44.000Z</time>
      </trkpt>
      <trkpt lat="47.82594" lon="7.13946">
        <ele>411.60000610352</ele>
        <time>2023-05-21T06:08:45.000Z</time>
      </trkpt>
      <trkpt lat="47.82602" lon="7.1393">
        <ele>412</ele>
        <time>2023-05-21T06:08:49.000Z</time>
      </trkpt>
      <trkpt lat="47.82603" lon="7.13926">
        <ele>412.39999389648</ele>
        <time>2023-05-21T06:08:50.000Z</time>
      </trkpt>
      <trkpt lat="47.82605" lon="7.13922">
        <ele>412.79998779297</ele>
        <time>2023-05-21T06:08:51.000Z</time>
      </trkpt>
      <trkpt lat="47.82606" lon="7.13918">
        <ele>413.20001220703</ele>
        <time>2023-05-21T06:08:52.000Z</time>
      </trkpt>
      <trkpt lat="47.82607" lon="7.13913">
        <ele>413.60000610352</ele>
        <time>2023-05-21T06:08:53.000Z</time>
      </trkpt>
      <trkpt lat="47.8261" lon="7.13895">
        <ele>413.60000610352</ele>
        <time>2023-05-21T06:08:57.000Z</time>
      </trkpt>
      <trkpt lat="47.82613" lon="7.13885">
        <ele>414</ele>
        <time>2023-05-21T06:08:59.000Z</time>
      </trkpt>
      <trkpt lat="47.82614" lon="7.13879">
        <ele>414.60000610352</ele>
        <time>2023-05-21T06:09:00.000Z</time>
      </trkpt>
      <trkpt lat="47.82616" lon="7.13874">
        <ele>415</ele>
        <time>2023-05-21T06:09:01.000Z</time>
      </trkpt>
      <trkpt lat="47.82616" lon="7.13868">
        <ele>415.39999389648</ele>
        <time>2023-05-21T06:09:02.000Z</time>
      </trkpt>
      <trkpt lat="47.82616" lon="7.13863">
        <ele>415.79998779297</ele>
        <time>2023-05-21T06:09:03.000Z</time>
      </trkpt>
      <trkpt lat="47.82616" lon="7.13858">
        <ele>415.79998779297</ele>
        <time>2023-05-21T06:09:04.000Z</time>
      </trkpt>
      <trkpt lat="47.82617" lon="7.13839">
        <ele>416.20001220703</ele>
        <time>2023-05-21T06:09:08.000Z</time>
      </trkpt>
      <trkpt lat="47.82617" lon="7.13834">
        <ele>416.79998779297</ele>
        <time>2023-05-21T06:09:09.000Z</time>
      </trkpt>
      <trkpt lat="47.82617" lon="7.13829">
        <ele>417.20001220703</ele>
        <time>2023-05-21T06:09:10.000Z</time>
      </trkpt>
      <trkpt lat="47.82618" lon="7.13825">
        <ele>417.60000610352</ele>
        <time>2023-05-21T06:09:11.000Z</time>
      </trkpt>
      <trkpt lat="47.82618" lon="7.1382">
        <ele>418</ele>
        <time>2023-05-21T06:09:12.000Z</time>
      </trkpt>
      <trkpt lat="47.8262" lon="7.13811">
        <ele>418.39999389648</ele>
        <time>2023-05-21T06:09:14.000Z</time>
      </trkpt>
      <trkpt lat="47.82621" lon="7.13807">
        <ele>418.79998779297</ele>
        <time>2023-05-21T06:09:15.000Z</time>
      </trkpt>
      <trkpt lat="47.82622" lon="7.13803">
        <ele>419.20001220703</ele>
        <time>2023-05-21T06:09:16.000Z</time>
      </trkpt>
      <trkpt lat="47.82623" lon="7.13799">
        <ele>419.79998779297</ele>
        <time>2023-05-21T06:09:17.000Z</time>
      </trkpt>
      <trkpt lat="47.82625" lon="7.13795">
        <ele>420.20001220703</ele>
        <time>2023-05-21T06:09:18.000Z</time>
      </trkpt>
      <trkpt lat="47.82628" lon="7.13788">
        <ele>420.60000610352</ele>
        <time>2023-05-21T06:09:20.000Z</time>
      </trkpt>
      <trkpt lat="47.8263" lon="7.13785">
        <ele>421</ele>
        <time>2023-05-21T06:09:21.000Z</time>
      </trkpt>
      <trkpt lat="47.82632" lon="7.13782">
        <ele>421.39999389648</ele>
        <time>2023-05-21T06:09:22.000Z</time>
      </trkpt>
      <trkpt lat="47.82634" lon="7.13778">
        <ele>421.79998779297</ele>
        <time>2023-05-21T06:09:23.000Z</time>
      </trkpt>
      <trkpt lat="47.82636" lon="7.13775">
        <ele>422.20001220703</ele>
        <time>2023-05-21T06:09:24.000Z</time>
      </trkpt>
      <trkpt lat="47.82637" lon="7.13764">
        <ele>422.20001220703</ele>
        <time>2023-05-21T06:09:27.000Z</time>
      </trkpt>
      <trkpt lat="47.8263" lon="7.13758">
        <ele>422.60000610352</ele>
        <time>2023-05-21T06:09:31.000Z</time>
      </trkpt>
      <trkpt lat="47.82628" lon="7.13758">
        <ele>423</ele>
        <time>2023-05-21T06:09:32.000Z</time>
      </trkpt>
      <trkpt lat="47.82626" lon="7.13759">
        <ele>423.39999389648</ele>
        <time>2023-05-21T06:09:33.000Z</time>
      </trkpt>
      <trkpt lat="47.82624" lon="7.1376">
        <ele>423.79998779297</ele>
        <time>2023-05-21T06:09:34.000Z</time>
      </trkpt>
      <trkpt lat="47.82623" lon="7.13762">
        <ele>424.20001220703</ele>
        <time>2023-05-21T06:09:35.000Z</time>
      </trkpt>
      <trkpt lat="47.82622" lon="7.13765">
        <ele>424.20001220703</ele>
        <time>2023-05-21T06:09:36.000Z</time>
      </trkpt>
      <trkpt lat="47.82617" lon="7.13781">
        <ele>424.20001220703</ele>
        <time>2023-05-21T06:09:43.000Z</time>
      </trkpt>
      <trkpt lat="47.82616" lon="7.13782">
        <ele>424.20001220703</ele>
        <time>2023-05-21T06:09:44.000Z</time>
      </trkpt>
      <trkpt lat="47.82611" lon="7.13791">
        <ele>424.20001220703</ele>
        <time>2023-05-21T06:09:48.000Z</time>
      </trkpt>
      <trkpt lat="47.82604" lon="7.13807">
        <ele>424.20001220703</ele>
        <time>2023-05-21T06:09:55.000Z</time>
      </trkpt>
      <trkpt lat="47.82599" lon="7.13818">
        <ele>424.20001220703</ele>
        <time>2023-05-21T06:10:00.000Z</time>
      </trkpt>
      <trkpt lat="47.826" lon="7.13825">
        <ele>424.20001220703</ele>
        <time>2023-05-21T06:10:04.000Z</time>
      </trkpt>
      <trkpt lat="47.826" lon="7.13827">
        <ele>424.20001220703</ele>
        <time>2023-05-21T06:10:05.000Z</time>
      </trkpt>
      <trkpt lat="47.82602" lon="7.13833">
        <ele>424.20001220703</ele>
        <time>2023-05-21T06:10:10.000Z</time>
      </trkpt>
      <trkpt lat="47.82602" lon="7.13833">
        <ele>424.20001220703</ele>
        <time>2023-05-21T06:10:11.000Z</time>
      </trkpt>
      <trkpt lat="47.82594" lon="7.13825">
        <ele>436.39999389648</ele>
        <time>2023-05-21T06:16:48.000Z</time>
      </trkpt>
      <trkpt lat="47.82592" lon="7.13828">
        <ele>436.39999389648</ele>
        <time>2023-05-21T06:16:50.000Z</time>
      </trkpt>
      <trkpt lat="47.82587" lon="7.13834">
        <ele>436.39999389648</ele>
        <time>2023-05-21T06:16:54.000Z</time>
      </trkpt>
      <trkpt lat="47.82584" lon="7.13836">
        <ele>436.39999389648</ele>
        <time>2023-05-21T06:16:56.000Z</time>
      </trkpt>
      <trkpt lat="47.82581" lon="7.13841">
        <ele>436.39999389648</ele>
        <time>2023-05-21T06:17:01.000Z</time>
      </trkpt>
      <trkpt lat="47.82578" lon="7.13846">
        <ele>436.39999389648</ele>
        <time>2023-05-21T06:17:05.000Z</time>
      </trkpt>
      <trkpt lat="47.82576" lon="7.13849">
        <ele>436.39999389648</ele>
        <time>2023-05-21T06:17:07.000Z</time>
      </trkpt>
      <trkpt lat="47.82571" lon="7.13863">
        <ele>436.39999389648</ele>
        <time>2023-05-21T06:17:12.000Z</time>
      </trkpt>
      <trkpt lat="47.82567" lon="7.13875">
        <ele>436.39999389648</ele>
        <time>2023-05-21T06:17:16.000Z</time>
      </trkpt>
      <trkpt lat="47.82565" lon="7.13882">
        <ele>436.39999389648</ele>
        <time>2023-05-21T06:17:18.000Z</time>
      </trkpt>
      <trkpt lat="47.8256" lon="7.13907">
        <ele>436.39999389648</ele>
        <time>2023-05-21T06:17:25.000Z</time>
      </trkpt>
      <trkpt lat="47.82561" lon="7.13924">
        <ele>436.39999389648</ele>
        <time>2023-05-21T06:17:28.000Z</time>
      </trkpt>
      <trkpt lat="47.82563" lon="7.13933">
        <ele>436.39999389648</ele>
        <time>2023-05-21T06:17:29.000Z</time>
      </trkpt>
      <trkpt lat="47.82571" lon="7.13972">
        <ele>435.79998779297</ele>
        <time>2023-05-21T06:17:33.000Z</time>
      </trkpt>
      <trkpt lat="47.82572" lon="7.13984">
        <ele>435.20001220703</ele>
        <time>2023-05-21T06:17:34.000Z</time>
      </trkpt>
      <trkpt lat="47.82569" lon="7.13994">
        <ele>434.39999389648</ele>
        <time>2023-05-21T06:17:35.000Z</time>
      </trkpt>
      <trkpt lat="47.82567" lon="7.14005">
        <ele>433.39999389648</ele>
        <time>2023-05-21T06:17:36.000Z</time>
      </trkpt>
      <trkpt lat="47.82565" lon="7.14017">
        <ele>432.39999389648</ele>
        <time>2023-05-21T06:17:37.000Z</time>
      </trkpt>
      <trkpt lat="47.82562" lon="7.14027">
        <ele>431.60000610352</ele>
        <time>2023-05-21T06:17:38.000Z</time>
      </trkpt>
      <trkpt lat="47.82553" lon="7.14034">
        <ele>430.60000610352</ele>
        <time>2023-05-21T06:17:39.000Z</time>
      </trkpt>
      <trkpt lat="47.82547" lon="7.14043">
        <ele>429.79998779297</ele>
        <time>2023-05-21T06:17:40.000Z</time>
      </trkpt>
      <trkpt lat="47.82536" lon="7.14051">
        <ele>429</ele>
        <time>2023-05-21T06:17:41.000Z</time>
      </trkpt>
      <trkpt lat="47.82527" lon="7.14061">
        <ele>428</ele>
        <time>2023-05-21T06:17:42.000Z</time>
      </trkpt>
      <trkpt lat="47.82518" lon="7.14069">
        <ele>427.20001220703</ele>
        <time>2023-05-21T06:17:43.000Z</time>
      </trkpt>
      <trkpt lat="47.82511" lon="7.14078">
        <ele>426.60000610352</ele>
        <time>2023-05-21T06:17:44.000Z</time>
      </trkpt>
      <trkpt lat="47.82504" lon="7.14087">
        <ele>426</ele>
        <time>2023-05-21T06:17:45.000Z</time>
      </trkpt>
      <trkpt lat="47.82497" lon="7.14096">
        <ele>425.39999389648</ele>
        <time>2023-05-21T06:17:46.000Z</time>
      </trkpt>
      <trkpt lat="47.8249" lon="7.14103">
        <ele>425</ele>
        <time>2023-05-21T06:17:47.000Z</time>
      </trkpt>
      <trkpt lat="47.82482" lon="7.1411">
        <ele>424.39999389648</ele>
        <time>2023-05-21T06:17:48.000Z</time>
      </trkpt>
      <trkpt lat="47.82475" lon="7.14116">
        <ele>424.39999389648</ele>
        <time>2023-05-21T06:17:49.000Z</time>
      </trkpt>
      <trkpt lat="47.82463" lon="7.14129">
        <ele>424</ele>
        <time>2023-05-21T06:17:51.000Z</time>
      </trkpt>
      <trkpt lat="47.82457" lon="7.14135">
        <ele>423.60000610352</ele>
        <time>2023-05-21T06:17:52.000Z</time>
      </trkpt>
      <trkpt lat="47.82452" lon="7.14142">
        <ele>423.20001220703</ele>
        <time>2023-05-21T06:17:53.000Z</time>
      </trkpt>
      <trkpt lat="47.82447" lon="7.1415">
        <ele>422.20001220703</ele>
        <time>2023-05-21T06:17:54.000Z</time>
      </trkpt>
      <trkpt lat="47.82417" lon="7.14195">
        <ele>422.20001220703</ele>
        <time>2023-05-21T06:18:00.000Z</time>
      </trkpt>
      <trkpt lat="47.82412" lon="7.14204">
        <ele>422.20001220703</ele>
        <time>2023-05-21T06:18:01.000Z</time>
      </trkpt>
      <trkpt lat="47.82404" lon="7.14222">
        <ele>421.79998779297</ele>
        <time>2023-05-21T06:18:03.000Z</time>
      </trkpt>
      <trkpt lat="47.824" lon="7.14233">
        <ele>421.39999389648</ele>
        <time>2023-05-21T06:18:04.000Z</time>
      </trkpt>
      <trkpt lat="47.82396" lon="7.14242">
        <ele>421</ele>
        <time>2023-05-21T06:18:05.000Z</time>
      </trkpt>
      <trkpt lat="47.82392" lon="7.14252">
        <ele>420.60000610352</ele>
        <time>2023-05-21T06:18:06.000Z</time>
      </trkpt>
      <trkpt lat="47.82387" lon="7.14262">
        <ele>420</ele>
        <time>2023-05-21T06:18:07.000Z</time>
      </trkpt>
      <trkpt lat="47.82384" lon="7.14273">
        <ele>420</ele>
        <time>2023-05-21T06:18:08.000Z</time>
      </trkpt>
      <trkpt lat="47.82375" lon="7.14305">
        <ele>420</ele>
        <time>2023-05-21T06:18:11.000Z</time>
      </trkpt>
      <trkpt lat="47.82368" lon="7.14326">
        <ele>419.60000610352</ele>
        <time>2023-05-21T06:18:13.000Z</time>
      </trkpt>
      <trkpt lat="47.82365" lon="7.14336">
        <ele>419.20001220703</ele>
        <time>2023-05-21T06:18:14.000Z</time>
      </trkpt>
      <trkpt lat="47.82362" lon="7.14346">
        <ele>418.79998779297</ele>
        <time>2023-05-21T06:18:15.000Z</time>
      </trkpt>
      <trkpt lat="47.8236" lon="7.14356">
        <ele>418.39999389648</ele>
        <time>2023-05-21T06:18:16.000Z</time>
      </trkpt>
      <trkpt lat="47.82357" lon="7.14366">
        <ele>418</ele>
        <time>2023-05-21T06:18:17.000Z</time>
      </trkpt>
      <trkpt lat="47.82354" lon="7.14376">
        <ele>418</ele>
        <time>2023-05-21T06:18:18.000Z</time>
      </trkpt>
      <trkpt lat="47.82342" lon="7.14412">
        <ele>418</ele>
        <time>2023-05-21T06:18:23.000Z</time>
      </trkpt>
      <trkpt lat="47.82328" lon="7.14446">
        <ele>418</ele>
        <time>2023-05-21T06:18:29.000Z</time>
      </trkpt>
      <trkpt lat="47.82316" lon="7.14476">
        <ele>417.60000610352</ele>
        <time>2023-05-21T06:18:34.000Z</time>
      </trkpt>
      <trkpt lat="47.82314" lon="7.14483">
        <ele>417.20001220703</ele>
        <time>2023-05-21T06:18:35.000Z</time>
      </trkpt>
      <trkpt lat="47.82312" lon="7.1449">
        <ele>416.60000610352</ele>
        <time>2023-05-21T06:18:36.000Z</time>
      </trkpt>
      <trkpt lat="47.82309" lon="7.14497">
        <ele>416.20001220703</ele>
        <time>2023-05-21T06:18:37.000Z</time>
      </trkpt>
      <trkpt lat="47.82306" lon="7.14506">
        <ele>415.79998779297</ele>
        <time>2023-05-21T06:18:38.000Z</time>
      </trkpt>
      <trkpt lat="47.823" lon="7.14526">
        <ele>415.79998779297</ele>
        <time>2023-05-21T06:18:40.000Z</time>
      </trkpt>
      <trkpt lat="47.82292" lon="7.1455">
        <ele>415.39999389648</ele>
        <time>2023-05-21T06:18:42.000Z</time>
      </trkpt>
      <trkpt lat="47.82288" lon="7.14562">
        <ele>414.60000610352</ele>
        <time>2023-05-21T06:18:43.000Z</time>
      </trkpt>
      <trkpt lat="47.82284" lon="7.14575">
        <ele>414</ele>
        <time>2023-05-21T06:18:44.000Z</time>
      </trkpt>
      <trkpt lat="47.8228" lon="7.14587">
        <ele>413.39999389648</ele>
        <time>2023-05-21T06:18:45.000Z</time>
      </trkpt>
      <trkpt lat="47.82276" lon="7.14599">
        <ele>412.79998779297</ele>
        <time>2023-05-21T06:18:46.000Z</time>
      </trkpt>
      <trkpt lat="47.82272" lon="7.1461">
        <ele>412.20001220703</ele>
        <time>2023-05-21T06:18:47.000Z</time>
      </trkpt>
      <trkpt lat="47.82269" lon="7.14622">
        <ele>411.39999389648</ele>
        <time>2023-05-21T06:18:48.000Z</time>
      </trkpt>
      <trkpt lat="47.82266" lon="7.14633">
        <ele>410.79998779297</ele>
        <time>2023-05-21T06:18:49.000Z</time>
      </trkpt>
      <trkpt lat="47.82265" lon="7.14643">
        <ele>410.20001220703</ele>
        <time>2023-05-21T06:18:50.000Z</time>
      </trkpt>
      <trkpt lat="47.82264" lon="7.14652">
        <ele>409.60000610352</ele>
        <time>2023-05-21T06:18:51.000Z</time>
      </trkpt>
      <trkpt lat="47.82261" lon="7.1466">
        <ele>409</ele>
        <time>2023-05-21T06:18:52.000Z</time>
      </trkpt>
      <trkpt lat="47.82258" lon="7.14667">
        <ele>408.39999389648</ele>
        <time>2023-05-21T06:18:53.000Z</time>
      </trkpt>
      <trkpt lat="47.82252" lon="7.14671">
        <ele>408</ele>
        <time>2023-05-21T06:18:54.000Z</time>
      </trkpt>
      <trkpt lat="47.82247" lon="7.14672">
        <ele>407.60000610352</ele>
        <time>2023-05-21T06:18:55.000Z</time>
      </trkpt>
      <trkpt lat="47.82243" lon="7.14673">
        <ele>407.20001220703</ele>
        <time>2023-05-21T06:18:56.000Z</time>
      </trkpt>
      <trkpt lat="47.82239" lon="7.14675">
        <ele>406.79998779297</ele>
        <time>2023-05-21T06:18:57.000Z</time>
      </trkpt>
      <trkpt lat="47.82232" lon="7.14677">
        <ele>406.79998779297</ele>
        <time>2023-05-21T06:18:59.000Z</time>
      </trkpt>
      <trkpt lat="47.82224" lon="7.14682">
        <ele>406.79998779297</ele>
        <time>2023-05-21T06:19:03.000Z</time>
      </trkpt>
      <trkpt lat="47.82221" lon="7.14687">
        <ele>407.20001220703</ele>
        <time>2023-05-21T06:19:05.000Z</time>
      </trkpt>
      <trkpt lat="47.82219" lon="7.1469">
        <ele>407.60000610352</ele>
        <time>2023-05-21T06:19:06.000Z</time>
      </trkpt>
      <trkpt lat="47.82218" lon="7.14693">
        <ele>408</ele>
        <time>2023-05-21T06:19:07.000Z</time>
      </trkpt>
      <trkpt lat="47.82217" lon="7.14696">
        <ele>408.79998779297</ele>
        <time>2023-05-21T06:19:08.000Z</time>
      </trkpt>
      <trkpt lat="47.82215" lon="7.14699">
        <ele>408.79998779297</ele>
        <time>2023-05-21T06:19:09.000Z</time>
      </trkpt>
      <trkpt lat="47.82203" lon="7.14716">
        <ele>408.79998779297</ele>
        <time>2023-05-21T06:19:14.000Z</time>
      </trkpt>
      <trkpt lat="47.82202" lon="7.1472">
        <ele>409.20001220703</ele>
        <time>2023-05-21T06:19:15.000Z</time>
      </trkpt>
      <trkpt lat="47.822" lon="7.14724">
        <ele>409.60000610352</ele>
        <time>2023-05-21T06:19:16.000Z</time>
      </trkpt>
      <trkpt lat="47.82197" lon="7.14728">
        <ele>410.20001220703</ele>
        <time>2023-05-21T06:19:17.000Z</time>
      </trkpt>
      <trkpt lat="47.82195" lon="7.14733">
        <ele>410.60000610352</ele>
        <time>2023-05-21T06:19:18.000Z</time>
      </trkpt>
      <trkpt lat="47.82193" lon="7.14737">
        <ele>411</ele>
        <time>2023-05-21T06:19:19.000Z</time>
      </trkpt>
      <trkpt lat="47.82182" lon="7.14756">
        <ele>411</ele>
        <time>2023-05-21T06:19:24.000Z</time>
      </trkpt>
      <trkpt lat="47.82172" lon="7.14778">
        <ele>411</ele>
        <time>2023-05-21T06:19:30.000Z</time>
      </trkpt>
      <trkpt lat="47.82161" lon="7.14797">
        <ele>411</ele>
        <time>2023-05-21T06:19:35.000Z</time>
      </trkpt>
      <trkpt lat="47.8215" lon="7.14816">
        <ele>411</ele>
        <time>2023-05-21T06:19:40.000Z</time>
      </trkpt>
      <trkpt lat="47.82143" lon="7.14823">
        <ele>411</ele>
        <time>2023-05-21T06:19:44.000Z</time>
      </trkpt>
      <trkpt lat="47.82144" lon="7.14823">
        <ele>411</ele>
        <time>2023-05-21T06:19:45.000Z</time>
      </trkpt>
      <trkpt lat="47.82141" lon="7.14827">
        <ele>411</ele>
        <time>2023-05-21T06:20:20.000Z</time>
      </trkpt>
      <trkpt lat="47.82139" lon="7.1483">
        <ele>411</ele>
        <time>2023-05-21T06:20:21.000Z</time>
      </trkpt>
      <trkpt lat="47.82133" lon="7.1484">
        <ele>411</ele>
        <time>2023-05-21T06:20:23.000Z</time>
      </trkpt>
      <trkpt lat="47.82129" lon="7.14846">
        <ele>411</ele>
        <time>2023-05-21T06:20:24.000Z</time>
      </trkpt>
      <trkpt lat="47.82123" lon="7.14859">
        <ele>410.60000610352</ele>
        <time>2023-05-21T06:20:26.000Z</time>
      </trkpt>
      <trkpt lat="47.82121" lon="7.14863">
        <ele>410.20001220703</ele>
        <time>2023-05-21T06:20:27.000Z</time>
      </trkpt>
      <trkpt lat="47.82119" lon="7.14868">
        <ele>409.60000610352</ele>
        <time>2023-05-21T06:20:28.000Z</time>
      </trkpt>
      <trkpt lat="47.82116" lon="7.14874">
        <ele>409.20001220703</ele>
        <time>2023-05-21T06:20:29.000Z</time>
      </trkpt>
      <trkpt lat="47.82112" lon="7.1488">
        <ele>408.79998779297</ele>
        <time>2023-05-21T06:20:30.000Z</time>
      </trkpt>
      <trkpt lat="47.82108" lon="7.14888">
        <ele>408.79998779297</ele>
        <time>2023-05-21T06:20:31.000Z</time>
      </trkpt>
      <trkpt lat="47.82091" lon="7.1492">
        <ele>408.79998779297</ele>
        <time>2023-05-21T06:20:35.000Z</time>
      </trkpt>
      <trkpt lat="47.82079" lon="7.14945">
        <ele>408.79998779297</ele>
        <time>2023-05-21T06:20:38.000Z</time>
      </trkpt>
      <trkpt lat="47.82076" lon="7.14953">
        <ele>408.79998779297</ele>
        <time>2023-05-21T06:20:39.000Z</time>
      </trkpt>
      <trkpt lat="47.82061" lon="7.14991">
        <ele>408.79998779297</ele>
        <time>2023-05-21T06:20:44.000Z</time>
      </trkpt>
      <trkpt lat="47.82042" lon="7.15036">
        <ele>408.39999389648</ele>
        <time>2023-05-21T06:20:50.000Z</time>
      </trkpt>
      <trkpt lat="47.82039" lon="7.15043">
        <ele>408</ele>
        <time>2023-05-21T06:20:51.000Z</time>
      </trkpt>
      <trkpt lat="47.82035" lon="7.1505">
        <ele>407.39999389648</ele>
        <time>2023-05-21T06:20:52.000Z</time>
      </trkpt>
      <trkpt lat="47.82032" lon="7.15056">
        <ele>407</ele>
        <time>2023-05-21T06:20:53.000Z</time>
      </trkpt>
      <trkpt lat="47.82029" lon="7.15063">
        <ele>406.60000610352</ele>
        <time>2023-05-21T06:20:54.000Z</time>
      </trkpt>
      <trkpt lat="47.82026" lon="7.15069">
        <ele>406.60000610352</ele>
        <time>2023-05-21T06:20:55.000Z</time>
      </trkpt>
      <trkpt lat="47.82022" lon="7.15074">
        <ele>406.60000610352</ele>
        <time>2023-05-21T06:20:56.000Z</time>
      </trkpt>
      <trkpt lat="47.82005" lon="7.15077">
        <ele>406.60000610352</ele>
        <time>2023-05-21T06:20:59.000Z</time>
      </trkpt>
      <trkpt lat="47.82" lon="7.15075">
        <ele>406</ele>
        <time>2023-05-21T06:21:00.000Z</time>
      </trkpt>
      <trkpt lat="47.81995" lon="7.15074">
        <ele>405.60000610352</ele>
        <time>2023-05-21T06:21:01.000Z</time>
      </trkpt>
      <trkpt lat="47.8199" lon="7.15077">
        <ele>405</ele>
        <time>2023-05-21T06:21:02.000Z</time>
      </trkpt>
      <trkpt lat="47.81986" lon="7.15083">
        <ele>404.60000610352</ele>
        <time>2023-05-21T06:21:03.000Z</time>
      </trkpt>
      <trkpt lat="47.81983" lon="7.15092">
        <ele>404.20001220703</ele>
        <time>2023-05-21T06:21:04.000Z</time>
      </trkpt>
      <trkpt lat="47.81982" lon="7.15102">
        <ele>404.20001220703</ele>
        <time>2023-05-21T06:21:05.000Z</time>
      </trkpt>
      <trkpt lat="47.8198" lon="7.15111">
        <ele>403.60000610352</ele>
        <time>2023-05-21T06:21:06.000Z</time>
      </trkpt>
      <trkpt lat="47.81978" lon="7.15119">
        <ele>403.20001220703</ele>
        <time>2023-05-21T06:21:07.000Z</time>
      </trkpt>
      <trkpt lat="47.81975" lon="7.15125">
        <ele>402.79998779297</ele>
        <time>2023-05-21T06:21:08.000Z</time>
      </trkpt>
      <trkpt lat="47.8197" lon="7.15129">
        <ele>402.20001220703</ele>
        <time>2023-05-21T06:21:09.000Z</time>
      </trkpt>
      <trkpt lat="47.81965" lon="7.15129">
        <ele>401.79998779297</ele>
        <time>2023-05-21T06:21:10.000Z</time>
      </trkpt>
      <trkpt lat="47.8196" lon="7.15127">
        <ele>401.39999389648</ele>
        <time>2023-05-21T06:21:11.000Z</time>
      </trkpt>
      <trkpt lat="47.81957" lon="7.15124">
        <ele>400.60000610352</ele>
        <time>2023-05-21T06:21:12.000Z</time>
      </trkpt>
      <trkpt lat="47.81954" lon="7.15122">
        <ele>400</ele>
        <time>2023-05-21T06:21:13.000Z</time>
      </trkpt>
      <trkpt lat="47.81951" lon="7.15119">
        <ele>399.60000610352</ele>
        <time>2023-05-21T06:21:14.000Z</time>
      </trkpt>
      <trkpt lat="47.81935" lon="7.15102">
        <ele>399.60000610352</ele>
        <time>2023-05-21T06:21:20.000Z</time>
      </trkpt>
      <trkpt lat="47.81912" lon="7.15078">
        <ele>399.60000610352</ele>
        <time>2023-05-21T06:21:27.000Z</time>
      </trkpt>
      <trkpt lat="47.81904" lon="7.15064">
        <ele>399.60000610352</ele>
        <time>2023-05-21T06:21:30.000Z</time>
      </trkpt>
      <trkpt lat="47.81901" lon="7.15053">
        <ele>399.60000610352</ele>
        <time>2023-05-21T06:21:32.000Z</time>
      </trkpt>
      <trkpt lat="47.819" lon="7.15042">
        <ele>399.60000610352</ele>
        <time>2023-05-21T06:21:34.000Z</time>
      </trkpt>
      <trkpt lat="47.81899" lon="7.15012">
        <ele>399.60000610352</ele>
        <time>2023-05-21T06:21:39.000Z</time>
      </trkpt>
      <trkpt lat="47.81897" lon="7.14977">
        <ele>399.60000610352</ele>
        <time>2023-05-21T06:21:45.000Z</time>
      </trkpt>
      <trkpt lat="47.81896" lon="7.14925">
        <ele>399.60000610352</ele>
        <time>2023-05-21T06:21:54.000Z</time>
      </trkpt>
      <trkpt lat="47.81896" lon="7.1492">
        <ele>400</ele>
        <time>2023-05-21T06:21:55.000Z</time>
      </trkpt>
      <trkpt lat="47.81896" lon="7.14915">
        <ele>400.60000610352</ele>
        <time>2023-05-21T06:21:56.000Z</time>
      </trkpt>
      <trkpt lat="47.81896" lon="7.1491">
        <ele>401</ele>
        <time>2023-05-21T06:21:57.000Z</time>
      </trkpt>
      <trkpt lat="47.81896" lon="7.14904">
        <ele>401.39999389648</ele>
        <time>2023-05-21T06:21:58.000Z</time>
      </trkpt>
      <trkpt lat="47.81896" lon="7.14899">
        <ele>401.79998779297</ele>
        <time>2023-05-21T06:21:59.000Z</time>
      </trkpt>
      <trkpt lat="47.81895" lon="7.14872">
        <ele>402.20001220703</ele>
        <time>2023-05-21T06:22:04.000Z</time>
      </trkpt>
      <trkpt lat="47.81895" lon="7.14867">
        <ele>402.79998779297</ele>
        <time>2023-05-21T06:22:05.000Z</time>
      </trkpt>
      <trkpt lat="47.81895" lon="7.14862">
        <ele>403.20001220703</ele>
        <time>2023-05-21T06:22:06.000Z</time>
      </trkpt>
      <trkpt lat="47.81895" lon="7.14856">
        <ele>403.60000610352</ele>
        <time>2023-05-21T06:22:07.000Z</time>
      </trkpt>
      <trkpt lat="47.81895" lon="7.14851">
        <ele>404</ele>
        <time>2023-05-21T06:22:08.000Z</time>
      </trkpt>
      <trkpt lat="47.81894" lon="7.14835">
        <ele>404</ele>
        <time>2023-05-21T06:22:11.000Z</time>
      </trkpt>
      <trkpt lat="47.81893" lon="7.1483">
        <ele>404.39999389648</ele>
        <time>2023-05-21T06:22:12.000Z</time>
      </trkpt>
      <trkpt lat="47.81893" lon="7.14824">
        <ele>404.79998779297</ele>
        <time>2023-05-21T06:22:13.000Z</time>
      </trkpt>
      <trkpt lat="47.81893" lon="7.14819">
        <ele>405.20001220703</ele>
        <time>2023-05-21T06:22:14.000Z</time>
      </trkpt>
      <trkpt lat="47.81893" lon="7.14814">
        <ele>405.79998779297</ele>
        <time>2023-05-21T06:22:15.000Z</time>
      </trkpt>
      <trkpt lat="47.81893" lon="7.1481">
        <ele>406.20001220703</ele>
        <time>2023-05-21T06:22:16.000Z</time>
      </trkpt>
      <trkpt lat="47.81892" lon="7.14805">
        <ele>406.20001220703</ele>
        <time>2023-05-21T06:22:17.000Z</time>
      </trkpt>
      <trkpt lat="47.81891" lon="7.14791">
        <ele>406.60000610352</ele>
        <time>2023-05-21T06:22:20.000Z</time>
      </trkpt>
      <trkpt lat="47.81891" lon="7.14787">
        <ele>407</ele>
        <time>2023-05-21T06:22:21.000Z</time>
      </trkpt>
      <trkpt lat="47.81891" lon="7.14783">
        <ele>407.39999389648</ele>
        <time>2023-05-21T06:22:22.000Z</time>
      </trkpt>
      <trkpt lat="47.81891" lon="7.14779">
        <ele>408</ele>
        <time>2023-05-21T06:22:23.000Z</time>
      </trkpt>
      <trkpt lat="47.81891" lon="7.14774">
        <ele>408.39999389648</ele>
        <time>2023-05-21T06:22:24.000Z</time>
      </trkpt>
      <trkpt lat="47.81892" lon="7.14759">
        <ele>408.79998779297</ele>
        <time>2023-05-21T06:22:27.000Z</time>
      </trkpt>
      <trkpt lat="47.81892" lon="7.14754">
        <ele>409.39999389648</ele>
        <time>2023-05-21T06:22:28.000Z</time>
      </trkpt>
      <trkpt lat="47.81892" lon="7.14749">
        <ele>409.79998779297</ele>
        <time>2023-05-21T06:22:29.000Z</time>
      </trkpt>
      <trkpt lat="47.81892" lon="7.14744">
        <ele>410.20001220703</ele>
        <time>2023-05-21T06:22:30.000Z</time>
      </trkpt>
      <trkpt lat="47.81891" lon="7.14738">
        <ele>410.60000610352</ele>
        <time>2023-05-21T06:22:31.000Z</time>
      </trkpt>
      <trkpt lat="47.81891" lon="7.14719">
        <ele>411.20001220703</ele>
        <time>2023-05-21T06:22:35.000Z</time>
      </trkpt>
      <trkpt lat="47.81891" lon="7.14714">
        <ele>411.60000610352</ele>
        <time>2023-05-21T06:22:36.000Z</time>
      </trkpt>
      <trkpt lat="47.81892" lon="7.1471">
        <ele>412</ele>
        <time>2023-05-21T06:22:37.000Z</time>
      </trkpt>
      <trkpt lat="47.81891" lon="7.14705">
        <ele>412.60000610352</ele>
        <time>2023-05-21T06:22:38.000Z</time>
      </trkpt>
      <trkpt lat="47.81891" lon="7.147">
        <ele>413</ele>
        <time>2023-05-21T06:22:39.000Z</time>
      </trkpt>
      <trkpt lat="47.8189" lon="7.14684">
        <ele>413.39999389648</ele>
        <time>2023-05-21T06:22:43.000Z</time>
      </trkpt>
      <trkpt lat="47.81889" lon="7.1468">
        <ele>413.79998779297</ele>
        <time>2023-05-21T06:22:44.000Z</time>
      </trkpt>
      <trkpt lat="47.81889" lon="7.14675">
        <ele>414.20001220703</ele>
        <time>2023-05-21T06:22:45.000Z</time>
      </trkpt>
      <trkpt lat="47.81888" lon="7.14671">
        <ele>414.79998779297</ele>
        <time>2023-05-21T06:22:46.000Z</time>
      </trkpt>
      <trkpt lat="47.81887" lon="7.14667">
        <ele>415.20001220703</ele>
        <time>2023-05-21T06:22:47.000Z</time>
      </trkpt>
      <trkpt lat="47.81885" lon="7.14654">
        <ele>415.20001220703</ele>
        <time>2023-05-21T06:22:50.000Z</time>
      </trkpt>
      <trkpt lat="47.81885" lon="7.14649">
        <ele>416</ele>
        <time>2023-05-21T06:22:51.000Z</time>
      </trkpt>
      <trkpt lat="47.81884" lon="7.14645">
        <ele>416.39999389648</ele>
        <time>2023-05-21T06:22:52.000Z</time>
      </trkpt>
      <trkpt lat="47.81883" lon="7.14641">
        <ele>416.79998779297</ele>
        <time>2023-05-21T06:22:53.000Z</time>
      </trkpt>
      <trkpt lat="47.81882" lon="7.14637">
        <ele>417.20001220703</ele>
        <time>2023-05-21T06:22:54.000Z</time>
      </trkpt>
      <trkpt lat="47.8188" lon="7.14625">
        <ele>417.20001220703</ele>
        <time>2023-05-21T06:22:57.000Z</time>
      </trkpt>
      <trkpt lat="47.81873" lon="7.14598">
        <ele>417.20001220703</ele>
        <time>2023-05-21T06:23:03.000Z</time>
      </trkpt>
      <trkpt lat="47.81861" lon="7.1456">
        <ele>417.20001220703</ele>
        <time>2023-05-21T06:23:11.000Z</time>
      </trkpt>
      <trkpt lat="47.81852" lon="7.14536">
        <ele>417.60000610352</ele>
        <time>2023-05-21T06:23:16.000Z</time>
      </trkpt>
      <trkpt lat="47.8185" lon="7.14532">
        <ele>418</ele>
        <time>2023-05-21T06:23:17.000Z</time>
      </trkpt>
      <trkpt lat="47.81847" lon="7.14528">
        <ele>418.39999389648</ele>
        <time>2023-05-21T06:23:18.000Z</time>
      </trkpt>
      <trkpt lat="47.81845" lon="7.14523">
        <ele>418.79998779297</ele>
        <time>2023-05-21T06:23:19.000Z</time>
      </trkpt>
      <trkpt lat="47.81843" lon="7.14518">
        <ele>419.20001220703</ele>
        <time>2023-05-21T06:23:20.000Z</time>
      </trkpt>
      <trkpt lat="47.81834" lon="7.14501">
        <ele>419.20001220703</ele>
        <time>2023-05-21T06:23:24.000Z</time>
      </trkpt>
      <trkpt lat="47.81822" lon="7.14465">
        <ele>419.20001220703</ele>
        <time>2023-05-21T06:23:32.000Z</time>
      </trkpt>
      <trkpt lat="47.81814" lon="7.14442">
        <ele>419.20001220703</ele>
        <time>2023-05-21T06:23:37.000Z</time>
      </trkpt>
      <trkpt lat="47.81804" lon="7.14408">
        <ele>419.20001220703</ele>
        <time>2023-05-21T06:23:44.000Z</time>
      </trkpt>
      <trkpt lat="47.818" lon="7.14399">
        <ele>419.60000610352</ele>
        <time>2023-05-21T06:23:46.000Z</time>
      </trkpt>
      <trkpt lat="47.81799" lon="7.14395">
        <ele>420</ele>
        <time>2023-05-21T06:23:47.000Z</time>
      </trkpt>
      <trkpt lat="47.81796" lon="7.14392">
        <ele>420.39999389648</ele>
        <time>2023-05-21T06:23:48.000Z</time>
      </trkpt>
      <trkpt lat="47.81794" lon="7.14389">
        <ele>420.79998779297</ele>
        <time>2023-05-21T06:23:49.000Z</time>
      </trkpt>
      <trkpt lat="47.81791" lon="7.14386">
        <ele>421.20001220703</ele>
        <time>2023-05-21T06:23:50.000Z</time>
      </trkpt>
      <trkpt lat="47.81779" lon="7.14363">
        <ele>421.20001220703</ele>
        <time>2023-05-21T06:23:56.000Z</time>
      </trkpt>
      <trkpt lat="47.81776" lon="7.1436">
        <ele>421.79998779297</ele>
        <time>2023-05-21T06:23:57.000Z</time>
      </trkpt>
      <trkpt lat="47.81774" lon="7.14356">
        <ele>422.20001220703</ele>
        <time>2023-05-21T06:23:58.000Z</time>
      </trkpt>
      <trkpt lat="47.81773" lon="7.14353">
        <ele>422.60000610352</ele>
        <time>2023-05-21T06:23:59.000Z</time>
      </trkpt>
      <trkpt lat="47.81771" lon="7.1435">
        <ele>423</ele>
        <time>2023-05-21T06:24:00.000Z</time>
      </trkpt>
      <trkpt lat="47.81769" lon="7.14347">
        <ele>423.39999389648</ele>
        <time>2023-05-21T06:24:01.000Z</time>
      </trkpt>
      <trkpt lat="47.81764" lon="7.14339">
        <ele>423.79998779297</ele>
        <time>2023-05-21T06:24:04.000Z</time>
      </trkpt>
      <trkpt lat="47.81762" lon="7.14335">
        <ele>424.60000610352</ele>
        <time>2023-05-21T06:24:05.000Z</time>
      </trkpt>
      <trkpt lat="47.81761" lon="7.14332">
        <ele>425</ele>
        <time>2023-05-21T06:24:06.000Z</time>
      </trkpt>
      <trkpt lat="47.81759" lon="7.14329">
        <ele>425.39999389648</ele>
        <time>2023-05-21T06:24:07.000Z</time>
      </trkpt>
      <trkpt lat="47.81755" lon="7.14321">
        <ele>425.79998779297</ele>
        <time>2023-05-21T06:24:10.000Z</time>
      </trkpt>
      <trkpt lat="47.81754" lon="7.14318">
        <ele>426.20001220703</ele>
        <time>2023-05-21T06:24:11.000Z</time>
      </trkpt>
      <trkpt lat="47.81754" lon="7.14313">
        <ele>426.60000610352</ele>
        <time>2023-05-21T06:24:12.000Z</time>
      </trkpt>
      <trkpt lat="47.81753" lon="7.14309">
        <ele>427</ele>
        <time>2023-05-21T06:24:13.000Z</time>
      </trkpt>
      <trkpt lat="47.81751" lon="7.14305">
        <ele>427.39999389648</ele>
        <time>2023-05-21T06:24:14.000Z</time>
      </trkpt>
      <trkpt lat="47.81749" lon="7.14302">
        <ele>427.39999389648</ele>
        <time>2023-05-21T06:24:15.000Z</time>
      </trkpt>
      <trkpt lat="47.81748" lon="7.14299">
        <ele>427.79998779297</ele>
        <time>2023-05-21T06:24:16.000Z</time>
      </trkpt>
      <trkpt lat="47.81747" lon="7.14295">
        <ele>428.39999389648</ele>
        <time>2023-05-21T06:24:17.000Z</time>
      </trkpt>
      <trkpt lat="47.81746" lon="7.14293">
        <ele>428.79998779297</ele>
        <time>2023-05-21T06:24:18.000Z</time>
      </trkpt>
      <trkpt lat="47.81745" lon="7.1429">
        <ele>429.20001220703</ele>
        <time>2023-05-21T06:24:19.000Z</time>
      </trkpt>
      <trkpt lat="47.81744" lon="7.14286">
        <ele>429.60000610352</ele>
        <time>2023-05-21T06:24:20.000Z</time>
      </trkpt>
      <trkpt lat="47.81742" lon="7.1428">
        <ele>429.60000610352</ele>
        <time>2023-05-21T06:24:22.000Z</time>
      </trkpt>
      <trkpt lat="47.81742" lon="7.14276">
        <ele>430</ele>
        <time>2023-05-21T06:24:23.000Z</time>
      </trkpt>
      <trkpt lat="47.81743" lon="7.14274">
        <ele>430.39999389648</ele>
        <time>2023-05-21T06:24:24.000Z</time>
      </trkpt>
      <trkpt lat="47.81743" lon="7.14271">
        <ele>430.79998779297</ele>
        <time>2023-05-21T06:24:25.000Z</time>
      </trkpt>
      <trkpt lat="47.81743" lon="7.14268">
        <ele>431.20001220703</ele>
        <time>2023-05-21T06:24:26.000Z</time>
      </trkpt>
      <trkpt lat="47.81744" lon="7.14266">
        <ele>431.60000610352</ele>
        <time>2023-05-21T06:24:27.000Z</time>
      </trkpt>
      <trkpt lat="47.81744" lon="7.14263">
        <ele>431.60000610352</ele>
        <time>2023-05-21T06:24:28.000Z</time>
      </trkpt>
      <trkpt lat="47.81744" lon="7.14251">
        <ele>431.60000610352</ele>
        <time>2023-05-21T06:24:31.000Z</time>
      </trkpt>
      <trkpt lat="47.81745" lon="7.14248">
        <ele>432</ele>
        <time>2023-05-21T06:24:32.000Z</time>
      </trkpt>
      <trkpt lat="47.81746" lon="7.14245">
        <ele>432.39999389648</ele>
        <time>2023-05-21T06:24:33.000Z</time>
      </trkpt>
      <trkpt lat="47.81748" lon="7.14244">
        <ele>432.79998779297</ele>
        <time>2023-05-21T06:24:34.000Z</time>
      </trkpt>
      <trkpt lat="47.81749" lon="7.14243">
        <ele>433.20001220703</ele>
        <time>2023-05-21T06:24:35.000Z</time>
      </trkpt>
      <trkpt lat="47.81751" lon="7.14242">
        <ele>433.60000610352</ele>
        <time>2023-05-21T06:24:36.000Z</time>
      </trkpt>
      <trkpt lat="47.81754" lon="7.14242">
        <ele>433.60000610352</ele>
        <time>2023-05-21T06:24:38.000Z</time>
      </trkpt>
      <trkpt lat="47.81761" lon="7.14245">
        <ele>433.60000610352</ele>
        <time>2023-05-21T06:24:42.000Z</time>
      </trkpt>
      <trkpt lat="47.81762" lon="7.14245">
        <ele>434</ele>
        <time>2023-05-21T06:24:43.000Z</time>
      </trkpt>
      <trkpt lat="47.81764" lon="7.14245">
        <ele>434.39999389648</ele>
        <time>2023-05-21T06:24:44.000Z</time>
      </trkpt>
      <trkpt lat="47.81767" lon="7.14246">
        <ele>434.79998779297</ele>
        <time>2023-05-21T06:24:45.000Z</time>
      </trkpt>
      <trkpt lat="47.81769" lon="7.14247">
        <ele>435.20001220703</ele>
        <time>2023-05-21T06:24:46.000Z</time>
      </trkpt>
      <trkpt lat="47.81772" lon="7.14249">
        <ele>435.60000610352</ele>
        <time>2023-05-21T06:24:47.000Z</time>
      </trkpt>
      <trkpt lat="47.81777" lon="7.14249">
        <ele>435.60000610352</ele>
        <time>2023-05-21T06:24:49.000Z</time>
      </trkpt>
      <trkpt lat="47.8178" lon="7.14249">
        <ele>436</ele>
        <time>2023-05-21T06:24:50.000Z</time>
      </trkpt>
      <trkpt lat="47.81782" lon="7.14248">
        <ele>436.39999389648</ele>
        <time>2023-05-21T06:24:51.000Z</time>
      </trkpt>
      <trkpt lat="47.81785" lon="7.14247">
        <ele>436.79998779297</ele>
        <time>2023-05-21T06:24:52.000Z</time>
      </trkpt>
      <trkpt lat="47.81788" lon="7.14246">
        <ele>437.20001220703</ele>
        <time>2023-05-21T06:24:53.000Z</time>
      </trkpt>
      <trkpt lat="47.8179" lon="7.14243">
        <ele>437.60000610352</ele>
        <time>2023-05-21T06:24:54.000Z</time>
      </trkpt>
      <trkpt lat="47.81794" lon="7.14241">
        <ele>438.39999389648</ele>
        <time>2023-05-21T06:24:55.000Z</time>
      </trkpt>
      <trkpt lat="47.81797" lon="7.14239">
        <ele>439</ele>
        <time>2023-05-21T06:24:56.000Z</time>
      </trkpt>
      <trkpt lat="47.818" lon="7.14237">
        <ele>439.39999389648</ele>
        <time>2023-05-21T06:24:57.000Z</time>
      </trkpt>
      <trkpt lat="47.81803" lon="7.14235">
        <ele>439.79998779297</ele>
        <time>2023-05-21T06:24:58.000Z</time>
      </trkpt>
      <trkpt lat="47.81811" lon="7.14228">
        <ele>440.20001220703</ele>
        <time>2023-05-21T06:25:01.000Z</time>
      </trkpt>
      <trkpt lat="47.81814" lon="7.14226">
        <ele>440.60000610352</ele>
        <time>2023-05-21T06:25:02.000Z</time>
      </trkpt>
      <trkpt lat="47.81816" lon="7.14223">
        <ele>441</ele>
        <time>2023-05-21T06:25:03.000Z</time>
      </trkpt>
      <trkpt lat="47.81818" lon="7.14221">
        <ele>441.39999389648</ele>
        <time>2023-05-21T06:25:04.000Z</time>
      </trkpt>
      <trkpt lat="47.8182" lon="7.14219">
        <ele>441.79998779297</ele>
        <time>2023-05-21T06:25:05.000Z</time>
      </trkpt>
      <trkpt lat="47.81825" lon="7.14215">
        <ele>441.79998779297</ele>
        <time>2023-05-21T06:25:07.000Z</time>
      </trkpt>
      <trkpt lat="47.81827" lon="7.14214">
        <ele>442.20001220703</ele>
        <time>2023-05-21T06:25:08.000Z</time>
      </trkpt>
      <trkpt lat="47.81829" lon="7.14212">
        <ele>442.60000610352</ele>
        <time>2023-05-21T06:25:09.000Z</time>
      </trkpt>
      <trkpt lat="47.81831" lon="7.1421">
        <ele>443</ele>
        <time>2023-05-21T06:25:10.000Z</time>
      </trkpt>
      <trkpt lat="47.81833" lon="7.1421">
        <ele>443.39999389648</ele>
        <time>2023-05-21T06:25:11.000Z</time>
      </trkpt>
      <trkpt lat="47.81835" lon="7.14209">
        <ele>443.79998779297</ele>
        <time>2023-05-21T06:25:12.000Z</time>
      </trkpt>
      <trkpt lat="47.81843" lon="7.14208">
        <ele>444.20001220703</ele>
        <time>2023-05-21T06:25:16.000Z</time>
      </trkpt>
      <trkpt lat="47.81845" lon="7.14209">
        <ele>444.60000610352</ele>
        <time>2023-05-21T06:25:17.000Z</time>
      </trkpt>
      <trkpt lat="47.81846" lon="7.1421">
        <ele>445</ele>
        <time>2023-05-21T06:25:18.000Z</time>
      </trkpt>
      <trkpt lat="47.81848" lon="7.14212">
        <ele>446</ele>
        <time>2023-05-21T06:25:19.000Z</time>
      </trkpt>
      <trkpt lat="47.81855" lon="7.14214">
        <ele>446</ele>
        <time>2023-05-21T06:25:22.000Z</time>
      </trkpt>
      <trkpt lat="47.81861" lon="7.14217">
        <ele>446.39999389648</ele>
        <time>2023-05-21T06:25:24.000Z</time>
      </trkpt>
      <trkpt lat="47.81864" lon="7.14219">
        <ele>446.79998779297</ele>
        <time>2023-05-21T06:25:25.000Z</time>
      </trkpt>
      <trkpt lat="47.81866" lon="7.14221">
        <ele>447.20001220703</ele>
        <time>2023-05-21T06:25:26.000Z</time>
      </trkpt>
      <trkpt lat="47.81869" lon="7.14223">
        <ele>447.79998779297</ele>
        <time>2023-05-21T06:25:27.000Z</time>
      </trkpt>
      <trkpt lat="47.81872" lon="7.14225">
        <ele>448.20001220703</ele>
        <time>2023-05-21T06:25:28.000Z</time>
      </trkpt>
      <trkpt lat="47.81882" lon="7.14232">
        <ele>448.60000610352</ele>
        <time>2023-05-21T06:25:32.000Z</time>
      </trkpt>
      <trkpt lat="47.81886" lon="7.14232">
        <ele>449</ele>
        <time>2023-05-21T06:25:33.000Z</time>
      </trkpt>
      <trkpt lat="47.81889" lon="7.14232">
        <ele>449.60000610352</ele>
        <time>2023-05-21T06:25:34.000Z</time>
      </trkpt>
      <trkpt lat="47.81893" lon="7.14232">
        <ele>450</ele>
        <time>2023-05-21T06:25:35.000Z</time>
      </trkpt>
      <trkpt lat="47.81895" lon="7.14232">
        <ele>450.39999389648</ele>
        <time>2023-05-21T06:25:36.000Z</time>
      </trkpt>
      <trkpt lat="47.81897" lon="7.14231">
        <ele>450.39999389648</ele>
        <time>2023-05-21T06:25:37.000Z</time>
      </trkpt>
      <trkpt lat="47.81898" lon="7.14228">
        <ele>451</ele>
        <time>2023-05-21T06:25:38.000Z</time>
      </trkpt>
      <trkpt lat="47.81898" lon="7.14224">
        <ele>451.39999389648</ele>
        <time>2023-05-21T06:25:39.000Z</time>
      </trkpt>
      <trkpt lat="47.81897" lon="7.14221">
        <ele>452</ele>
        <time>2023-05-21T06:25:40.000Z</time>
      </trkpt>
      <trkpt lat="47.81896" lon="7.14218">
        <ele>452.60000610352</ele>
        <time>2023-05-21T06:25:41.000Z</time>
      </trkpt>
      <trkpt lat="47.81895" lon="7.14216">
        <ele>453</ele>
        <time>2023-05-21T06:25:42.000Z</time>
      </trkpt>
      <trkpt lat="47.81894" lon="7.14213">
        <ele>453</ele>
        <time>2023-05-21T06:25:43.000Z</time>
      </trkpt>
      <trkpt lat="47.81892" lon="7.14209">
        <ele>453.79998779297</ele>
        <time>2023-05-21T06:25:44.000Z</time>
      </trkpt>
      <trkpt lat="47.8189" lon="7.14205">
        <ele>454.20001220703</ele>
        <time>2023-05-21T06:25:45.000Z</time>
      </trkpt>
      <trkpt lat="47.81889" lon="7.14201">
        <ele>454.60000610352</ele>
        <time>2023-05-21T06:25:46.000Z</time>
      </trkpt>
      <trkpt lat="47.81888" lon="7.14196">
        <ele>455</ele>
        <time>2023-05-21T06:25:47.000Z</time>
      </trkpt>
      <trkpt lat="47.81882" lon="7.14173">
        <ele>455</ele>
        <time>2023-05-21T06:25:52.000Z</time>
      </trkpt>
      <trkpt lat="47.81875" lon="7.14146">
        <ele>455</ele>
        <time>2023-05-21T06:25:58.000Z</time>
      </trkpt>
      <trkpt lat="47.81871" lon="7.14134">
        <ele>455.60000610352</ele>
        <time>2023-05-21T06:26:01.000Z</time>
      </trkpt>
      <trkpt lat="47.8187" lon="7.1413">
        <ele>456</ele>
        <time>2023-05-21T06:26:02.000Z</time>
      </trkpt>
      <trkpt lat="47.81869" lon="7.14126">
        <ele>456.39999389648</ele>
        <time>2023-05-21T06:26:03.000Z</time>
      </trkpt>
      <trkpt lat="47.81867" lon="7.14122">
        <ele>456.79998779297</ele>
        <time>2023-05-21T06:26:04.000Z</time>
      </trkpt>
      <trkpt lat="47.81866" lon="7.14119">
        <ele>457.20001220703</ele>
        <time>2023-05-21T06:26:05.000Z</time>
      </trkpt>
      <trkpt lat="47.8186" lon="7.14103">
        <ele>457.60000610352</ele>
        <time>2023-05-21T06:26:09.000Z</time>
      </trkpt>
      <trkpt lat="47.81858" lon="7.141">
        <ele>458</ele>
        <time>2023-05-21T06:26:10.000Z</time>
      </trkpt>
      <trkpt lat="47.81857" lon="7.14095">
        <ele>458.39999389648</ele>
        <time>2023-05-21T06:26:11.000Z</time>
      </trkpt>
      <trkpt lat="47.81856" lon="7.14091">
        <ele>458.79998779297</ele>
        <time>2023-05-21T06:26:12.000Z</time>
      </trkpt>
      <trkpt lat="47.81854" lon="7.14086">
        <ele>459.20001220703</ele>
        <time>2023-05-21T06:26:13.000Z</time>
      </trkpt>
      <trkpt lat="47.8185" lon="7.14074">
        <ele>459.20001220703</ele>
        <time>2023-05-21T06:26:16.000Z</time>
      </trkpt>
      <trkpt lat="47.81845" lon="7.14061">
        <ele>459.20001220703</ele>
        <time>2023-05-21T06:26:20.000Z</time>
      </trkpt>
      <trkpt lat="47.81843" lon="7.14056">
        <ele>459.60000610352</ele>
        <time>2023-05-21T06:26:21.000Z</time>
      </trkpt>
      <trkpt lat="47.81842" lon="7.14051">
        <ele>460</ele>
        <time>2023-05-21T06:26:22.000Z</time>
      </trkpt>
      <trkpt lat="47.81841" lon="7.14047">
        <ele>460.60000610352</ele>
        <time>2023-05-21T06:26:23.000Z</time>
      </trkpt>
      <trkpt lat="47.81839" lon="7.14043">
        <ele>461</ele>
        <time>2023-05-21T06:26:24.000Z</time>
      </trkpt>
      <trkpt lat="47.81838" lon="7.14039">
        <ele>461.39999389648</ele>
        <time>2023-05-21T06:26:25.000Z</time>
      </trkpt>
      <trkpt lat="47.81837" lon="7.14031">
        <ele>461.39999389648</ele>
        <time>2023-05-21T06:26:27.000Z</time>
      </trkpt>
      <trkpt lat="47.8183" lon="7.14009">
        <ele>461.79998779297</ele>
        <time>2023-05-21T06:26:32.000Z</time>
      </trkpt>
      <trkpt lat="47.81828" lon="7.14004">
        <ele>462.20001220703</ele>
        <time>2023-05-21T06:26:33.000Z</time>
      </trkpt>
      <trkpt lat="47.81826" lon="7.13999">
        <ele>463</ele>
        <time>2023-05-21T06:26:34.000Z</time>
      </trkpt>
      <trkpt lat="47.81824" lon="7.13994">
        <ele>463.39999389648</ele>
        <time>2023-05-21T06:26:35.000Z</time>
      </trkpt>
      <trkpt lat="47.81818" lon="7.13975">
        <ele>463.39999389648</ele>
        <time>2023-05-21T06:26:39.000Z</time>
      </trkpt>
      <trkpt lat="47.81813" lon="7.13955">
        <ele>463.79998779297</ele>
        <time>2023-05-21T06:26:43.000Z</time>
      </trkpt>
      <trkpt lat="47.81811" lon="7.13951">
        <ele>464.20001220703</ele>
        <time>2023-05-21T06:26:44.000Z</time>
      </trkpt>
      <trkpt lat="47.81809" lon="7.13947">
        <ele>464.60000610352</ele>
        <time>2023-05-21T06:26:45.000Z</time>
      </trkpt>
      <trkpt lat="47.81808" lon="7.13943">
        <ele>465</ele>
        <time>2023-05-21T06:26:46.000Z</time>
      </trkpt>
      <trkpt lat="47.81806" lon="7.13938">
        <ele>465.60000610352</ele>
        <time>2023-05-21T06:26:47.000Z</time>
      </trkpt>
      <trkpt lat="47.81801" lon="7.13922">
        <ele>465.60000610352</ele>
        <time>2023-05-21T06:26:51.000Z</time>
      </trkpt>
      <trkpt lat="47.81799" lon="7.13917">
        <ele>466</ele>
        <time>2023-05-21T06:26:52.000Z</time>
      </trkpt>
      <trkpt lat="47.81797" lon="7.13913">
        <ele>466.39999389648</ele>
        <time>2023-05-21T06:26:53.000Z</time>
      </trkpt>
      <trkpt lat="47.81796" lon="7.13908">
        <ele>466.79998779297</ele>
        <time>2023-05-21T06:26:54.000Z</time>
      </trkpt>
      <trkpt lat="47.81794" lon="7.13904">
        <ele>467.20001220703</ele>
        <time>2023-05-21T06:26:55.000Z</time>
      </trkpt>
      <trkpt lat="47.81793" lon="7.13901">
        <ele>467.60000610352</ele>
        <time>2023-05-21T06:26:56.000Z</time>
      </trkpt>
      <trkpt lat="47.81792" lon="7.13897">
        <ele>467.60000610352</ele>
        <time>2023-05-21T06:26:57.000Z</time>
      </trkpt>
      <trkpt lat="47.81786" lon="7.13879">
        <ele>468</ele>
        <time>2023-05-21T06:27:01.000Z</time>
      </trkpt>
      <trkpt lat="47.81785" lon="7.13876">
        <ele>468.39999389648</ele>
        <time>2023-05-21T06:27:02.000Z</time>
      </trkpt>
      <trkpt lat="47.81785" lon="7.13872">
        <ele>468.79998779297</ele>
        <time>2023-05-21T06:27:03.000Z</time>
      </trkpt>
      <trkpt lat="47.81783" lon="7.13868">
        <ele>469.20001220703</ele>
        <time>2023-05-21T06:27:04.000Z</time>
      </trkpt>
      <trkpt lat="47.81782" lon="7.13862">
        <ele>469.60000610352</ele>
        <time>2023-05-21T06:27:05.000Z</time>
      </trkpt>
      <trkpt lat="47.81777" lon="7.13849">
        <ele>469.60000610352</ele>
        <time>2023-05-21T06:27:08.000Z</time>
      </trkpt>
      <trkpt lat="47.81769" lon="7.13829">
        <ele>470</ele>
        <time>2023-05-21T06:27:13.000Z</time>
      </trkpt>
      <trkpt lat="47.81768" lon="7.13824">
        <ele>470.39999389648</ele>
        <time>2023-05-21T06:27:14.000Z</time>
      </trkpt>
      <trkpt lat="47.81767" lon="7.1382">
        <ele>471</ele>
        <time>2023-05-21T06:27:15.000Z</time>
      </trkpt>
      <trkpt lat="47.81766" lon="7.13816">
        <ele>471.39999389648</ele>
        <time>2023-05-21T06:27:16.000Z</time>
      </trkpt>
      <trkpt lat="47.81764" lon="7.13811">
        <ele>471.79998779297</ele>
        <time>2023-05-21T06:27:17.000Z</time>
      </trkpt>
      <trkpt lat="47.81758" lon="7.13794">
        <ele>472.20001220703</ele>
        <time>2023-05-21T06:27:21.000Z</time>
      </trkpt>
      <trkpt lat="47.81757" lon="7.1379">
        <ele>472.60000610352</ele>
        <time>2023-05-21T06:27:22.000Z</time>
      </trkpt>
      <trkpt lat="47.81756" lon="7.13784">
        <ele>473.60000610352</ele>
        <time>2023-05-21T06:27:23.000Z</time>
      </trkpt>
      <trkpt lat="47.81755" lon="7.13777">
        <ele>474</ele>
        <time>2023-05-21T06:27:24.000Z</time>
      </trkpt>
      <trkpt lat="47.81751" lon="7.13764">
        <ele>474.39999389648</ele>
        <time>2023-05-21T06:27:27.000Z</time>
      </trkpt>
      <trkpt lat="47.81749" lon="7.13761">
        <ele>474.79998779297</ele>
        <time>2023-05-21T06:27:28.000Z</time>
      </trkpt>
      <trkpt lat="47.81748" lon="7.13756">
        <ele>475.20001220703</ele>
        <time>2023-05-21T06:27:29.000Z</time>
      </trkpt>
      <trkpt lat="47.81747" lon="7.13752">
        <ele>475.60000610352</ele>
        <time>2023-05-21T06:27:30.000Z</time>
      </trkpt>
      <trkpt lat="47.81745" lon="7.13748">
        <ele>476</ele>
        <time>2023-05-21T06:27:31.000Z</time>
      </trkpt>
      <trkpt lat="47.81741" lon="7.13733">
        <ele>476</ele>
        <time>2023-05-21T06:27:34.000Z</time>
      </trkpt>
      <trkpt lat="47.81739" lon="7.13728">
        <ele>476.60000610352</ele>
        <time>2023-05-21T06:27:35.000Z</time>
      </trkpt>
      <trkpt lat="47.81738" lon="7.13723">
        <ele>477</ele>
        <time>2023-05-21T06:27:36.000Z</time>
      </trkpt>
      <trkpt lat="47.81736" lon="7.13718">
        <ele>477.39999389648</ele>
        <time>2023-05-21T06:27:37.000Z</time>
      </trkpt>
      <trkpt lat="47.81734" lon="7.13712">
        <ele>477.79998779297</ele>
        <time>2023-05-21T06:27:38.000Z</time>
      </trkpt>
      <trkpt lat="47.81733" lon="7.13707">
        <ele>478.39999389648</ele>
        <time>2023-05-21T06:27:39.000Z</time>
      </trkpt>
      <trkpt lat="47.8173" lon="7.13698">
        <ele>478.39999389648</ele>
        <time>2023-05-21T06:27:41.000Z</time>
      </trkpt>
      <trkpt lat="47.81727" lon="7.13689">
        <ele>478.79998779297</ele>
        <time>2023-05-21T06:27:43.000Z</time>
      </trkpt>
      <trkpt lat="47.81726" lon="7.13685">
        <ele>479.20001220703</ele>
        <time>2023-05-21T06:27:44.000Z</time>
      </trkpt>
      <trkpt lat="47.81725" lon="7.1368">
        <ele>479.60000610352</ele>
        <time>2023-05-21T06:27:45.000Z</time>
      </trkpt>
      <trkpt lat="47.81724" lon="7.13675">
        <ele>480</ele>
        <time>2023-05-21T06:27:46.000Z</time>
      </trkpt>
      <trkpt lat="47.81724" lon="7.1367">
        <ele>480.39999389648</ele>
        <time>2023-05-21T06:27:47.000Z</time>
      </trkpt>
      <trkpt lat="47.81719" lon="7.13657">
        <ele>480.79998779297</ele>
        <time>2023-05-21T06:27:50.000Z</time>
      </trkpt>
      <trkpt lat="47.81718" lon="7.13653">
        <ele>481.20001220703</ele>
        <time>2023-05-21T06:27:51.000Z</time>
      </trkpt>
      <trkpt lat="47.81716" lon="7.13648">
        <ele>481.60000610352</ele>
        <time>2023-05-21T06:27:52.000Z</time>
      </trkpt>
      <trkpt lat="47.81715" lon="7.13643">
        <ele>482.20001220703</ele>
        <time>2023-05-21T06:27:53.000Z</time>
      </trkpt>
      <trkpt lat="47.81713" lon="7.13639">
        <ele>482.60000610352</ele>
        <time>2023-05-21T06:27:54.000Z</time>
      </trkpt>
      <trkpt lat="47.81707" lon="7.13613">
        <ele>483</ele>
        <time>2023-05-21T06:27:59.000Z</time>
      </trkpt>
      <trkpt lat="47.81705" lon="7.13608">
        <ele>483.39999389648</ele>
        <time>2023-05-21T06:28:00.000Z</time>
      </trkpt>
      <trkpt lat="47.81704" lon="7.13603">
        <ele>483.79998779297</ele>
        <time>2023-05-21T06:28:01.000Z</time>
      </trkpt>
      <trkpt lat="47.81702" lon="7.13597">
        <ele>484.20001220703</ele>
        <time>2023-05-21T06:28:02.000Z</time>
      </trkpt>
      <trkpt lat="47.81701" lon="7.13593">
        <ele>484.60000610352</ele>
        <time>2023-05-21T06:28:03.000Z</time>
      </trkpt>
      <trkpt lat="47.81697" lon="7.13582">
        <ele>484.60000610352</ele>
        <time>2023-05-21T06:28:05.000Z</time>
      </trkpt>
      <trkpt lat="47.81692" lon="7.13566">
        <ele>485</ele>
        <time>2023-05-21T06:28:08.000Z</time>
      </trkpt>
      <trkpt lat="47.81691" lon="7.13561">
        <ele>485.39999389648</ele>
        <time>2023-05-21T06:28:09.000Z</time>
      </trkpt>
      <trkpt lat="47.8169" lon="7.13557">
        <ele>485.79998779297</ele>
        <time>2023-05-21T06:28:10.000Z</time>
      </trkpt>
      <trkpt lat="47.81689" lon="7.13554">
        <ele>486.20001220703</ele>
        <time>2023-05-21T06:28:11.000Z</time>
      </trkpt>
      <trkpt lat="47.81688" lon="7.1355">
        <ele>486.79998779297</ele>
        <time>2023-05-21T06:28:12.000Z</time>
      </trkpt>
      <trkpt lat="47.81684" lon="7.13528">
        <ele>486.79998779297</ele>
        <time>2023-05-21T06:28:17.000Z</time>
      </trkpt>
      <trkpt lat="47.81687" lon="7.13505">
        <ele>486.79998779297</ele>
        <time>2023-05-21T06:28:22.000Z</time>
      </trkpt>
      <trkpt lat="47.81688" lon="7.13501">
        <ele>487.20001220703</ele>
        <time>2023-05-21T06:28:23.000Z</time>
      </trkpt>
      <trkpt lat="47.8169" lon="7.13496">
        <ele>487.60000610352</ele>
        <time>2023-05-21T06:28:24.000Z</time>
      </trkpt>
      <trkpt lat="47.81691" lon="7.13491">
        <ele>488</ele>
        <time>2023-05-21T06:28:25.000Z</time>
      </trkpt>
      <trkpt lat="47.81691" lon="7.13485">
        <ele>488.39999389648</ele>
        <time>2023-05-21T06:28:26.000Z</time>
      </trkpt>
      <trkpt lat="47.81693" lon="7.13479">
        <ele>488.79998779297</ele>
        <time>2023-05-21T06:28:27.000Z</time>
      </trkpt>
      <trkpt lat="47.81694" lon="7.13474">
        <ele>488.79998779297</ele>
        <time>2023-05-21T06:28:28.000Z</time>
      </trkpt>
      <trkpt lat="47.81703" lon="7.13456">
        <ele>488.79998779297</ele>
        <time>2023-05-21T06:28:33.000Z</time>
      </trkpt>
      <trkpt lat="47.81706" lon="7.13453">
        <ele>489.20001220703</ele>
        <time>2023-05-21T06:28:34.000Z</time>
      </trkpt>
      <trkpt lat="47.81708" lon="7.13451">
        <ele>489.60000610352</ele>
        <time>2023-05-21T06:28:35.000Z</time>
      </trkpt>
      <trkpt lat="47.81711" lon="7.13448">
        <ele>490</ele>
        <time>2023-05-21T06:28:36.000Z</time>
      </trkpt>
      <trkpt lat="47.81713" lon="7.13444">
        <ele>490.79998779297</ele>
        <time>2023-05-21T06:28:37.000Z</time>
      </trkpt>
      <trkpt lat="47.81719" lon="7.13434">
        <ele>490.79998779297</ele>
        <time>2023-05-21T06:28:40.000Z</time>
      </trkpt>
      <trkpt lat="47.81723" lon="7.13427">
        <ele>491.20001220703</ele>
        <time>2023-05-21T06:28:42.000Z</time>
      </trkpt>
      <trkpt lat="47.81725" lon="7.13423">
        <ele>491.60000610352</ele>
        <time>2023-05-21T06:28:43.000Z</time>
      </trkpt>
      <trkpt lat="47.81728" lon="7.13419">
        <ele>492.20001220703</ele>
        <time>2023-05-21T06:28:44.000Z</time>
      </trkpt>
      <trkpt lat="47.81731" lon="7.13416">
        <ele>492.60000610352</ele>
        <time>2023-05-21T06:28:45.000Z</time>
      </trkpt>
      <trkpt lat="47.81733" lon="7.13413">
        <ele>493</ele>
        <time>2023-05-21T06:28:46.000Z</time>
      </trkpt>
      <trkpt lat="47.81735" lon="7.1341">
        <ele>493</ele>
        <time>2023-05-21T06:28:47.000Z</time>
      </trkpt>
      <trkpt lat="47.81739" lon="7.13403">
        <ele>493.39999389648</ele>
        <time>2023-05-21T06:28:49.000Z</time>
      </trkpt>
      <trkpt lat="47.81741" lon="7.134">
        <ele>493.79998779297</ele>
        <time>2023-05-21T06:28:50.000Z</time>
      </trkpt>
      <trkpt lat="47.81743" lon="7.13397">
        <ele>494.20001220703</ele>
        <time>2023-05-21T06:28:51.000Z</time>
      </trkpt>
      <trkpt lat="47.81745" lon="7.13393">
        <ele>494.60000610352</ele>
        <time>2023-05-21T06:28:52.000Z</time>
      </trkpt>
      <trkpt lat="47.81747" lon="7.1339">
        <ele>495.20001220703</ele>
        <time>2023-05-21T06:28:53.000Z</time>
      </trkpt>
      <trkpt lat="47.81751" lon="7.13379">
        <ele>495.60000610352</ele>
        <time>2023-05-21T06:28:56.000Z</time>
      </trkpt>
      <trkpt lat="47.81753" lon="7.13376">
        <ele>496</ele>
        <time>2023-05-21T06:28:57.000Z</time>
      </trkpt>
      <trkpt lat="47.81754" lon="7.13373">
        <ele>496.39999389648</ele>
        <time>2023-05-21T06:28:58.000Z</time>
      </trkpt>
      <trkpt lat="47.81755" lon="7.1337">
        <ele>496.79998779297</ele>
        <time>2023-05-21T06:28:59.000Z</time>
      </trkpt>
      <trkpt lat="47.81756" lon="7.13366">
        <ele>497.20001220703</ele>
        <time>2023-05-21T06:29:00.000Z</time>
      </trkpt>
      <trkpt lat="47.81757" lon="7.13359">
        <ele>497.79998779297</ele>
        <time>2023-05-21T06:29:02.000Z</time>
      </trkpt>
      <trkpt lat="47.81758" lon="7.13355">
        <ele>498.20001220703</ele>
        <time>2023-05-21T06:29:03.000Z</time>
      </trkpt>
      <trkpt lat="47.81759" lon="7.13351">
        <ele>498.60000610352</ele>
        <time>2023-05-21T06:29:04.000Z</time>
      </trkpt>
      <trkpt lat="47.8176" lon="7.13347">
        <ele>499.20001220703</ele>
        <time>2023-05-21T06:29:05.000Z</time>
      </trkpt>
      <trkpt lat="47.81761" lon="7.13344">
        <ele>499.60000610352</ele>
        <time>2023-05-21T06:29:06.000Z</time>
      </trkpt>
      <trkpt lat="47.81765" lon="7.13334">
        <ele>500</ele>
        <time>2023-05-21T06:29:09.000Z</time>
      </trkpt>
      <trkpt lat="47.81766" lon="7.1333">
        <ele>500.39999389648</ele>
        <time>2023-05-21T06:29:10.000Z</time>
      </trkpt>
      <trkpt lat="47.81768" lon="7.13327">
        <ele>500.79998779297</ele>
        <time>2023-05-21T06:29:11.000Z</time>
      </trkpt>
      <trkpt lat="47.8177" lon="7.13324">
        <ele>501.39999389648</ele>
        <time>2023-05-21T06:29:12.000Z</time>
      </trkpt>
      <trkpt lat="47.81771" lon="7.13321">
        <ele>501.79998779297</ele>
        <time>2023-05-21T06:29:13.000Z</time>
      </trkpt>
      <trkpt lat="47.81775" lon="7.13311">
        <ele>501.79998779297</ele>
        <time>2023-05-21T06:29:16.000Z</time>
      </trkpt>
      <trkpt lat="47.81776" lon="7.13307">
        <ele>502.20001220703</ele>
        <time>2023-05-21T06:29:17.000Z</time>
      </trkpt>
      <trkpt lat="47.81777" lon="7.13304">
        <ele>502.60000610352</ele>
        <time>2023-05-21T06:29:18.000Z</time>
      </trkpt>
      <trkpt lat="47.81779" lon="7.133">
        <ele>503</ele>
        <time>2023-05-21T06:29:19.000Z</time>
      </trkpt>
      <trkpt lat="47.8178" lon="7.13297">
        <ele>503.39999389648</ele>
        <time>2023-05-21T06:29:20.000Z</time>
      </trkpt>
      <trkpt lat="47.81781" lon="7.13293">
        <ele>504</ele>
        <time>2023-05-21T06:29:21.000Z</time>
      </trkpt>
      <trkpt lat="47.81783" lon="7.13289">
        <ele>504</ele>
        <time>2023-05-21T06:29:22.000Z</time>
      </trkpt>
      <trkpt lat="47.81784" lon="7.13285">
        <ele>504.39999389648</ele>
        <time>2023-05-21T06:29:23.000Z</time>
      </trkpt>
      <trkpt lat="47.81784" lon="7.13281">
        <ele>504.79998779297</ele>
        <time>2023-05-21T06:29:24.000Z</time>
      </trkpt>
      <trkpt lat="47.81785" lon="7.13276">
        <ele>505.20001220703</ele>
        <time>2023-05-21T06:29:25.000Z</time>
      </trkpt>
      <trkpt lat="47.81786" lon="7.13272">
        <ele>505.60000610352</ele>
        <time>2023-05-21T06:29:26.000Z</time>
      </trkpt>
      <trkpt lat="47.81786" lon="7.13267">
        <ele>506</ele>
        <time>2023-05-21T06:29:27.000Z</time>
      </trkpt>
      <trkpt lat="47.81787" lon="7.13263">
        <ele>506.39999389648</ele>
        <time>2023-05-21T06:29:28.000Z</time>
      </trkpt>
      <trkpt lat="47.81788" lon="7.13259">
        <ele>506.79998779297</ele>
        <time>2023-05-21T06:29:29.000Z</time>
      </trkpt>
      <trkpt lat="47.81788" lon="7.13255">
        <ele>507.39999389648</ele>
        <time>2023-05-21T06:29:30.000Z</time>
      </trkpt>
      <trkpt lat="47.81789" lon="7.13251">
        <ele>507.79998779297</ele>
        <time>2023-05-21T06:29:31.000Z</time>
      </trkpt>
      <trkpt lat="47.8179" lon="7.13247">
        <ele>508.20001220703</ele>
        <time>2023-05-21T06:29:32.000Z</time>
      </trkpt>
      <trkpt lat="47.81791" lon="7.13239">
        <ele>508.60000610352</ele>
        <time>2023-05-21T06:29:34.000Z</time>
      </trkpt>
      <trkpt lat="47.81792" lon="7.13235">
        <ele>509</ele>
        <time>2023-05-21T06:29:35.000Z</time>
      </trkpt>
      <trkpt lat="47.81793" lon="7.1323">
        <ele>509.60000610352</ele>
        <time>2023-05-21T06:29:36.000Z</time>
      </trkpt>
      <trkpt lat="47.81794" lon="7.13226">
        <ele>510</ele>
        <time>2023-05-21T06:29:37.000Z</time>
      </trkpt>
      <trkpt lat="47.81795" lon="7.13222">
        <ele>510.39999389648</ele>
        <time>2023-05-21T06:29:38.000Z</time>
      </trkpt>
      <trkpt lat="47.81795" lon="7.13214">
        <ele>510.79998779297</ele>
        <time>2023-05-21T06:29:40.000Z</time>
      </trkpt>
      <trkpt lat="47.81796" lon="7.1321">
        <ele>511.20001220703</ele>
        <time>2023-05-21T06:29:41.000Z</time>
      </trkpt>
      <trkpt lat="47.81797" lon="7.13206">
        <ele>511.60000610352</ele>
        <time>2023-05-21T06:29:42.000Z</time>
      </trkpt>
      <trkpt lat="47.81798" lon="7.13202">
        <ele>512.20001220703</ele>
        <time>2023-05-21T06:29:43.000Z</time>
      </trkpt>
      <trkpt lat="47.81798" lon="7.13198">
        <ele>512.59997558594</ele>
        <time>2023-05-21T06:29:44.000Z</time>
      </trkpt>
      <trkpt lat="47.818" lon="7.13194">
        <ele>512.59997558594</ele>
        <time>2023-05-21T06:29:45.000Z</time>
      </trkpt>
      <trkpt lat="47.81801" lon="7.1319">
        <ele>513</ele>
        <time>2023-05-21T06:29:46.000Z</time>
      </trkpt>
      <trkpt lat="47.81802" lon="7.13186">
        <ele>513.40002441406</ele>
        <time>2023-05-21T06:29:47.000Z</time>
      </trkpt>
      <trkpt lat="47.81803" lon="7.13182">
        <ele>513.79998779297</ele>
        <time>2023-05-21T06:29:48.000Z</time>
      </trkpt>
      <trkpt lat="47.81805" lon="7.13178">
        <ele>514.20001220703</ele>
        <time>2023-05-21T06:29:49.000Z</time>
      </trkpt>
      <trkpt lat="47.81806" lon="7.13174">
        <ele>514.59997558594</ele>
        <time>2023-05-21T06:29:50.000Z</time>
      </trkpt>
      <trkpt lat="47.81809" lon="7.13167">
        <ele>515.20001220703</ele>
        <time>2023-05-21T06:29:52.000Z</time>
      </trkpt>
      <trkpt lat="47.81811" lon="7.13164">
        <ele>515.59997558594</ele>
        <time>2023-05-21T06:29:53.000Z</time>
      </trkpt>
      <trkpt lat="47.81812" lon="7.13161">
        <ele>516</ele>
        <time>2023-05-21T06:29:54.000Z</time>
      </trkpt>
      <trkpt lat="47.81814" lon="7.13158">
        <ele>516.40002441406</ele>
        <time>2023-05-21T06:29:55.000Z</time>
      </trkpt>
      <trkpt lat="47.81816" lon="7.13156">
        <ele>516.79998779297</ele>
        <time>2023-05-21T06:29:56.000Z</time>
      </trkpt>
      <trkpt lat="47.81818" lon="7.13154">
        <ele>516.79998779297</ele>
        <time>2023-05-21T06:29:57.000Z</time>
      </trkpt>
      <trkpt lat="47.81827" lon="7.1315">
        <ele>517.40002441406</ele>
        <time>2023-05-21T06:30:00.000Z</time>
      </trkpt>
      <trkpt lat="47.8183" lon="7.1315">
        <ele>517.79998779297</ele>
        <time>2023-05-21T06:30:01.000Z</time>
      </trkpt>
      <trkpt lat="47.81832" lon="7.13149">
        <ele>518.20001220703</ele>
        <time>2023-05-21T06:30:02.000Z</time>
      </trkpt>
      <trkpt lat="47.81835" lon="7.13149">
        <ele>518.59997558594</ele>
        <time>2023-05-21T06:30:03.000Z</time>
      </trkpt>
      <trkpt lat="47.81838" lon="7.13148">
        <ele>519.20001220703</ele>
        <time>2023-05-21T06:30:04.000Z</time>
      </trkpt>
      <trkpt lat="47.81848" lon="7.13148">
        <ele>519.59997558594</ele>
        <time>2023-05-21T06:30:09.000Z</time>
      </trkpt>
      <trkpt lat="47.8185" lon="7.13148">
        <ele>520</ele>
        <time>2023-05-21T06:30:10.000Z</time>
      </trkpt>
      <trkpt lat="47.81851" lon="7.13147">
        <ele>520.40002441406</ele>
        <time>2023-05-21T06:30:11.000Z</time>
      </trkpt>
      <trkpt lat="47.81852" lon="7.13146">
        <ele>520.79998779297</ele>
        <time>2023-05-21T06:30:12.000Z</time>
      </trkpt>
      <trkpt lat="47.81854" lon="7.13144">
        <ele>521.40002441406</ele>
        <time>2023-05-21T06:30:13.000Z</time>
      </trkpt>
      <trkpt lat="47.81856" lon="7.13144">
        <ele>521.40002441406</ele>
        <time>2023-05-21T06:30:14.000Z</time>
      </trkpt>
      <trkpt lat="47.81869" lon="7.13135">
        <ele>520.79998779297</ele>
        <time>2023-05-21T06:30:18.000Z</time>
      </trkpt>
      <trkpt lat="47.81874" lon="7.13127">
        <ele>520.20001220703</ele>
        <time>2023-05-21T06:30:19.000Z</time>
      </trkpt>
      <trkpt lat="47.81879" lon="7.13118">
        <ele>519.79998779297</ele>
        <time>2023-05-21T06:30:20.000Z</time>
      </trkpt>
      <trkpt lat="47.81883" lon="7.13108">
        <ele>519</ele>
        <time>2023-05-21T06:30:21.000Z</time>
      </trkpt>
      <trkpt lat="47.81887" lon="7.13096">
        <ele>518.20001220703</ele>
        <time>2023-05-21T06:30:22.000Z</time>
      </trkpt>
      <trkpt lat="47.81891" lon="7.13084">
        <ele>517.40002441406</ele>
        <time>2023-05-21T06:30:23.000Z</time>
      </trkpt>
      <trkpt lat="47.81894" lon="7.13072">
        <ele>516.40002441406</ele>
        <time>2023-05-21T06:30:24.000Z</time>
      </trkpt>
      <trkpt lat="47.81897" lon="7.1306">
        <ele>515.59997558594</ele>
        <time>2023-05-21T06:30:25.000Z</time>
      </trkpt>
      <trkpt lat="47.81899" lon="7.1305">
        <ele>514.59997558594</ele>
        <time>2023-05-21T06:30:26.000Z</time>
      </trkpt>
      <trkpt lat="47.81901" lon="7.1304">
        <ele>513.59997558594</ele>
        <time>2023-05-21T06:30:27.000Z</time>
      </trkpt>
      <trkpt lat="47.81902" lon="7.13029">
        <ele>512.79998779297</ele>
        <time>2023-05-21T06:30:28.000Z</time>
      </trkpt>
      <trkpt lat="47.81904" lon="7.13019">
        <ele>511.79998779297</ele>
        <time>2023-05-21T06:30:29.000Z</time>
      </trkpt>
      <trkpt lat="47.81905" lon="7.13007">
        <ele>511</ele>
        <time>2023-05-21T06:30:30.000Z</time>
      </trkpt>
      <trkpt lat="47.81906" lon="7.12995">
        <ele>510</ele>
        <time>2023-05-21T06:30:31.000Z</time>
      </trkpt>
      <trkpt lat="47.81906" lon="7.12984">
        <ele>509</ele>
        <time>2023-05-21T06:30:32.000Z</time>
      </trkpt>
      <trkpt lat="47.81907" lon="7.12975">
        <ele>508</ele>
        <time>2023-05-21T06:30:33.000Z</time>
      </trkpt>
      <trkpt lat="47.81908" lon="7.12968">
        <ele>506.79998779297</ele>
        <time>2023-05-21T06:30:34.000Z</time>
      </trkpt>
      <trkpt lat="47.8191" lon="7.12961">
        <ele>505.79998779297</ele>
        <time>2023-05-21T06:30:35.000Z</time>
      </trkpt>
      <trkpt lat="47.81913" lon="7.12958">
        <ele>504.79998779297</ele>
        <time>2023-05-21T06:30:36.000Z</time>
      </trkpt>
      <trkpt lat="47.81915" lon="7.12957">
        <ele>503.79998779297</ele>
        <time>2023-05-21T06:30:37.000Z</time>
      </trkpt>
      <trkpt lat="47.81917" lon="7.12957">
        <ele>503</ele>
        <time>2023-05-21T06:30:38.000Z</time>
      </trkpt>
      <trkpt lat="47.81919" lon="7.12958">
        <ele>502.20001220703</ele>
        <time>2023-05-21T06:30:39.000Z</time>
      </trkpt>
      <trkpt lat="47.81921" lon="7.1296">
        <ele>501.39999389648</ele>
        <time>2023-05-21T06:30:40.000Z</time>
      </trkpt>
      <trkpt lat="47.81923" lon="7.1296">
        <ele>500.39999389648</ele>
        <time>2023-05-21T06:30:41.000Z</time>
      </trkpt>
      <trkpt lat="47.81931" lon="7.12962">
        <ele>500</ele>
        <time>2023-05-21T06:30:44.000Z</time>
      </trkpt>
      <trkpt lat="47.81934" lon="7.12961">
        <ele>499.39999389648</ele>
        <time>2023-05-21T06:30:45.000Z</time>
      </trkpt>
      <trkpt lat="47.81936" lon="7.12962">
        <ele>499</ele>
        <time>2023-05-21T06:30:46.000Z</time>
      </trkpt>
      <trkpt lat="47.81938" lon="7.12964">
        <ele>498.60000610352</ele>
        <time>2023-05-21T06:30:47.000Z</time>
      </trkpt>
      <trkpt lat="47.8194" lon="7.12966">
        <ele>498</ele>
        <time>2023-05-21T06:30:48.000Z</time>
      </trkpt>
      <trkpt lat="47.81943" lon="7.12967">
        <ele>497.39999389648</ele>
        <time>2023-05-21T06:30:49.000Z</time>
      </trkpt>
      <trkpt lat="47.81946" lon="7.12967">
        <ele>497</ele>
        <time>2023-05-21T06:30:50.000Z</time>
      </trkpt>
      <trkpt lat="47.81951" lon="7.12966">
        <ele>496.39999389648</ele>
        <time>2023-05-21T06:30:51.000Z</time>
      </trkpt>
      <trkpt lat="47.81955" lon="7.12964">
        <ele>495.79998779297</ele>
        <time>2023-05-21T06:30:52.000Z</time>
      </trkpt>
      <trkpt lat="47.8196" lon="7.1296">
        <ele>495.20001220703</ele>
        <time>2023-05-21T06:30:53.000Z</time>
      </trkpt>
      <trkpt lat="47.81963" lon="7.12956">
        <ele>494.39999389648</ele>
        <time>2023-05-21T06:30:54.000Z</time>
      </trkpt>
      <trkpt lat="47.81966" lon="7.1295">
        <ele>493.79998779297</ele>
        <time>2023-05-21T06:30:55.000Z</time>
      </trkpt>
      <trkpt lat="47.81967" lon="7.12944">
        <ele>493.20001220703</ele>
        <time>2023-05-21T06:30:56.000Z</time>
      </trkpt>
      <trkpt lat="47.8197" lon="7.12937">
        <ele>492.39999389648</ele>
        <time>2023-05-21T06:30:57.000Z</time>
      </trkpt>
      <trkpt lat="47.81971" lon="7.12928">
        <ele>491.79998779297</ele>
        <time>2023-05-21T06:30:58.000Z</time>
      </trkpt>
      <trkpt lat="47.81973" lon="7.12918">
        <ele>491</ele>
        <time>2023-05-21T06:30:59.000Z</time>
      </trkpt>
      <trkpt lat="47.81974" lon="7.12908">
        <ele>490.39999389648</ele>
        <time>2023-05-21T06:31:00.000Z</time>
      </trkpt>
      <trkpt lat="47.81975" lon="7.12897">
        <ele>489.60000610352</ele>
        <time>2023-05-21T06:31:01.000Z</time>
      </trkpt>
      <trkpt lat="47.81976" lon="7.12886">
        <ele>489</ele>
        <time>2023-05-21T06:31:02.000Z</time>
      </trkpt>
      <trkpt lat="47.81977" lon="7.12876">
        <ele>488.20001220703</ele>
        <time>2023-05-21T06:31:03.000Z</time>
      </trkpt>
      <trkpt lat="47.81978" lon="7.12868">
        <ele>487.39999389648</ele>
        <time>2023-05-21T06:31:04.000Z</time>
      </trkpt>
      <trkpt lat="47.81978" lon="7.12862">
        <ele>486.60000610352</ele>
        <time>2023-05-21T06:31:05.000Z</time>
      </trkpt>
      <trkpt lat="47.81978" lon="7.12856">
        <ele>485.20001220703</ele>
        <time>2023-05-21T06:31:06.000Z</time>
      </trkpt>
      <trkpt lat="47.8198" lon="7.12851">
        <ele>484.39999389648</ele>
        <time>2023-05-21T06:31:07.000Z</time>
      </trkpt>
      <trkpt lat="47.81982" lon="7.12847">
        <ele>483.60000610352</ele>
        <time>2023-05-21T06:31:08.000Z</time>
      </trkpt>
      <trkpt lat="47.81984" lon="7.12843">
        <ele>482.79998779297</ele>
        <time>2023-05-21T06:31:09.000Z</time>
      </trkpt>
      <trkpt lat="47.81985" lon="7.12841">
        <ele>482</ele>
        <time>2023-05-21T06:31:10.000Z</time>
      </trkpt>
      <trkpt lat="47.81984" lon="7.1284">
        <ele>481.60000610352</ele>
        <time>2023-05-21T06:31:12.000Z</time>
      </trkpt>
      <trkpt lat="47.81982" lon="7.12839">
        <ele>481.20001220703</ele>
        <time>2023-05-21T06:31:13.000Z</time>
      </trkpt>
      <trkpt lat="47.81979" lon="7.1284">
        <ele>480.79998779297</ele>
        <time>2023-05-21T06:31:14.000Z</time>
      </trkpt>
      <trkpt lat="47.81975" lon="7.12841">
        <ele>480.20001220703</ele>
        <time>2023-05-21T06:31:15.000Z</time>
      </trkpt>
      <trkpt lat="47.8197" lon="7.12843">
        <ele>479.79998779297</ele>
        <time>2023-05-21T06:31:16.000Z</time>
      </trkpt>
      <trkpt lat="47.81963" lon="7.12846">
        <ele>479.20001220703</ele>
        <time>2023-05-21T06:31:17.000Z</time>
      </trkpt>
      <trkpt lat="47.81955" lon="7.1285">
        <ele>478.60000610352</ele>
        <time>2023-05-21T06:31:18.000Z</time>
      </trkpt>
      <trkpt lat="47.81946" lon="7.12855">
        <ele>477.79998779297</ele>
        <time>2023-05-21T06:31:19.000Z</time>
      </trkpt>
      <trkpt lat="47.81937" lon="7.12859">
        <ele>477</ele>
        <time>2023-05-21T06:31:20.000Z</time>
      </trkpt>
      <trkpt lat="47.81929" lon="7.12861">
        <ele>476.20001220703</ele>
        <time>2023-05-21T06:31:21.000Z</time>
      </trkpt>
      <trkpt lat="47.8192" lon="7.12863">
        <ele>475.20001220703</ele>
        <time>2023-05-21T06:31:22.000Z</time>
      </trkpt>
      <trkpt lat="47.81911" lon="7.12864">
        <ele>474.39999389648</ele>
        <time>2023-05-21T06:31:23.000Z</time>
      </trkpt>
      <trkpt lat="47.81902" lon="7.12865">
        <ele>473.39999389648</ele>
        <time>2023-05-21T06:31:24.000Z</time>
      </trkpt>
      <trkpt lat="47.81893" lon="7.12867">
        <ele>472.60000610352</ele>
        <time>2023-05-21T06:31:25.000Z</time>
      </trkpt>
      <trkpt lat="47.81884" lon="7.12868">
        <ele>471.79998779297</ele>
        <time>2023-05-21T06:31:26.000Z</time>
      </trkpt>
      <trkpt lat="47.81874" lon="7.12868">
        <ele>471</ele>
        <time>2023-05-21T06:31:27.000Z</time>
      </trkpt>
      <trkpt lat="47.81863" lon="7.1287">
        <ele>470.20001220703</ele>
        <time>2023-05-21T06:31:28.000Z</time>
      </trkpt>
      <trkpt lat="47.81853" lon="7.12871">
        <ele>469.39999389648</ele>
        <time>2023-05-21T06:31:29.000Z</time>
      </trkpt>
      <trkpt lat="47.81843" lon="7.12872">
        <ele>468.60000610352</ele>
        <time>2023-05-21T06:31:30.000Z</time>
      </trkpt>
      <trkpt lat="47.81833" lon="7.12873">
        <ele>467.20001220703</ele>
        <time>2023-05-21T06:31:31.000Z</time>
      </trkpt>
      <trkpt lat="47.81823" lon="7.12873">
        <ele>466.60000610352</ele>
        <time>2023-05-21T06:31:32.000Z</time>
      </trkpt>
      <trkpt lat="47.81813" lon="7.12874">
        <ele>466</ele>
        <time>2023-05-21T06:31:33.000Z</time>
      </trkpt>
      <trkpt lat="47.81804" lon="7.12876">
        <ele>465.39999389648</ele>
        <time>2023-05-21T06:31:34.000Z</time>
      </trkpt>
      <trkpt lat="47.81794" lon="7.12877">
        <ele>464.79998779297</ele>
        <time>2023-05-21T06:31:35.000Z</time>
      </trkpt>
      <trkpt lat="47.81785" lon="7.12876">
        <ele>464.20001220703</ele>
        <time>2023-05-21T06:31:36.000Z</time>
      </trkpt>
      <trkpt lat="47.81774" lon="7.12873">
        <ele>463.60000610352</ele>
        <time>2023-05-21T06:31:37.000Z</time>
      </trkpt>
      <trkpt lat="47.81763" lon="7.12869">
        <ele>463</ele>
        <time>2023-05-21T06:31:38.000Z</time>
      </trkpt>
      <trkpt lat="47.81754" lon="7.12865">
        <ele>462.39999389648</ele>
        <time>2023-05-21T06:31:39.000Z</time>
      </trkpt>
      <trkpt lat="47.81747" lon="7.12862">
        <ele>461.60000610352</ele>
        <time>2023-05-21T06:31:40.000Z</time>
      </trkpt>
      <trkpt lat="47.81741" lon="7.12861">
        <ele>460.60000610352</ele>
        <time>2023-05-21T06:31:41.000Z</time>
      </trkpt>
      <trkpt lat="47.81734" lon="7.12862">
        <ele>459.79998779297</ele>
        <time>2023-05-21T06:31:42.000Z</time>
      </trkpt>
      <trkpt lat="47.81727" lon="7.12863">
        <ele>459</ele>
        <time>2023-05-21T06:31:43.000Z</time>
      </trkpt>
      <trkpt lat="47.81721" lon="7.12867">
        <ele>458.20001220703</ele>
        <time>2023-05-21T06:31:44.000Z</time>
      </trkpt>
      <trkpt lat="47.81716" lon="7.12871">
        <ele>457.39999389648</ele>
        <time>2023-05-21T06:31:45.000Z</time>
      </trkpt>
      <trkpt lat="47.81713" lon="7.12876">
        <ele>456.39999389648</ele>
        <time>2023-05-21T06:31:46.000Z</time>
      </trkpt>
      <trkpt lat="47.8171" lon="7.12879">
        <ele>455.60000610352</ele>
        <time>2023-05-21T06:31:47.000Z</time>
      </trkpt>
      <trkpt lat="47.81708" lon="7.12884">
        <ele>454.79998779297</ele>
        <time>2023-05-21T06:31:48.000Z</time>
      </trkpt>
      <trkpt lat="47.81705" lon="7.1289">
        <ele>454</ele>
        <time>2023-05-21T06:31:49.000Z</time>
      </trkpt>
      <trkpt lat="47.81701" lon="7.12897">
        <ele>453</ele>
        <time>2023-05-21T06:31:50.000Z</time>
      </trkpt>
      <trkpt lat="47.81696" lon="7.12903">
        <ele>452.60000610352</ele>
        <time>2023-05-21T06:31:51.000Z</time>
      </trkpt>
      <trkpt lat="47.81692" lon="7.12909">
        <ele>452.20001220703</ele>
        <time>2023-05-21T06:31:52.000Z</time>
      </trkpt>
      <trkpt lat="47.81686" lon="7.12915">
        <ele>451.79998779297</ele>
        <time>2023-05-21T06:31:53.000Z</time>
      </trkpt>
      <trkpt lat="47.81681" lon="7.12921">
        <ele>451.20001220703</ele>
        <time>2023-05-21T06:31:54.000Z</time>
      </trkpt>
      <trkpt lat="47.81675" lon="7.12927">
        <ele>450.79998779297</ele>
        <time>2023-05-21T06:31:55.000Z</time>
      </trkpt>
      <trkpt lat="47.81669" lon="7.12933">
        <ele>450.39999389648</ele>
        <time>2023-05-21T06:31:56.000Z</time>
      </trkpt>
      <trkpt lat="47.81663" lon="7.12938">
        <ele>450</ele>
        <time>2023-05-21T06:31:57.000Z</time>
      </trkpt>
      <trkpt lat="47.81656" lon="7.12943">
        <ele>449.60000610352</ele>
        <time>2023-05-21T06:31:58.000Z</time>
      </trkpt>
      <trkpt lat="47.81649" lon="7.12949">
        <ele>449</ele>
        <time>2023-05-21T06:31:59.000Z</time>
      </trkpt>
      <trkpt lat="47.81643" lon="7.12954">
        <ele>448.60000610352</ele>
        <time>2023-05-21T06:32:00.000Z</time>
      </trkpt>
      <trkpt lat="47.81628" lon="7.12965">
        <ele>448.20001220703</ele>
        <time>2023-05-21T06:32:02.000Z</time>
      </trkpt>
      <trkpt lat="47.81621" lon="7.1297">
        <ele>447.60000610352</ele>
        <time>2023-05-21T06:32:03.000Z</time>
      </trkpt>
      <trkpt lat="47.81614" lon="7.12976">
        <ele>447.20001220703</ele>
        <time>2023-05-21T06:32:04.000Z</time>
      </trkpt>
      <trkpt lat="47.81606" lon="7.12981">
        <ele>446.60000610352</ele>
        <time>2023-05-21T06:32:05.000Z</time>
      </trkpt>
      <trkpt lat="47.81599" lon="7.12988">
        <ele>446.20001220703</ele>
        <time>2023-05-21T06:32:06.000Z</time>
      </trkpt>
      <trkpt lat="47.81584" lon="7.13001">
        <ele>445.60000610352</ele>
        <time>2023-05-21T06:32:08.000Z</time>
      </trkpt>
      <trkpt lat="47.81577" lon="7.13007">
        <ele>445.20001220703</ele>
        <time>2023-05-21T06:32:09.000Z</time>
      </trkpt>
      <trkpt lat="47.8157" lon="7.13014">
        <ele>444.60000610352</ele>
        <time>2023-05-21T06:32:10.000Z</time>
      </trkpt>
      <trkpt lat="47.81562" lon="7.13021">
        <ele>444.20001220703</ele>
        <time>2023-05-21T06:32:11.000Z</time>
      </trkpt>
      <trkpt lat="47.81554" lon="7.13028">
        <ele>443.60000610352</ele>
        <time>2023-05-21T06:32:12.000Z</time>
      </trkpt>
      <trkpt lat="47.81546" lon="7.13035">
        <ele>443.20001220703</ele>
        <time>2023-05-21T06:32:13.000Z</time>
      </trkpt>
      <trkpt lat="47.81537" lon="7.13042">
        <ele>442.79998779297</ele>
        <time>2023-05-21T06:32:14.000Z</time>
      </trkpt>
      <trkpt lat="47.81529" lon="7.1305">
        <ele>442.20001220703</ele>
        <time>2023-05-21T06:32:15.000Z</time>
      </trkpt>
      <trkpt lat="47.81521" lon="7.13056">
        <ele>441.60000610352</ele>
        <time>2023-05-21T06:32:16.000Z</time>
      </trkpt>
      <trkpt lat="47.81513" lon="7.13063">
        <ele>441</ele>
        <time>2023-05-21T06:32:17.000Z</time>
      </trkpt>
      <trkpt lat="47.81505" lon="7.13069">
        <ele>440.39999389648</ele>
        <time>2023-05-21T06:32:18.000Z</time>
      </trkpt>
      <trkpt lat="47.81497" lon="7.13075">
        <ele>439.60000610352</ele>
        <time>2023-05-21T06:32:19.000Z</time>
      </trkpt>
      <trkpt lat="47.81489" lon="7.13079">
        <ele>438</ele>
        <time>2023-05-21T06:32:20.000Z</time>
      </trkpt>
      <trkpt lat="47.81483" lon="7.13083">
        <ele>437.39999389648</ele>
        <time>2023-05-21T06:32:21.000Z</time>
      </trkpt>
      <trkpt lat="47.81478" lon="7.13086">
        <ele>436.79998779297</ele>
        <time>2023-05-21T06:32:22.000Z</time>
      </trkpt>
      <trkpt lat="47.81473" lon="7.13089">
        <ele>436.20001220703</ele>
        <time>2023-05-21T06:32:23.000Z</time>
      </trkpt>
      <trkpt lat="47.81469" lon="7.13088">
        <ele>435.60000610352</ele>
        <time>2023-05-21T06:32:24.000Z</time>
      </trkpt>
      <trkpt lat="47.81465" lon="7.13086">
        <ele>435</ele>
        <time>2023-05-21T06:32:25.000Z</time>
      </trkpt>
      <trkpt lat="47.81463" lon="7.13081">
        <ele>434.39999389648</ele>
        <time>2023-05-21T06:32:26.000Z</time>
      </trkpt>
      <trkpt lat="47.81463" lon="7.13077">
        <ele>434.39999389648</ele>
        <time>2023-05-21T06:32:27.000Z</time>
      </trkpt>
      <trkpt lat="47.81453" lon="7.13063">
        <ele>434.39999389648</ele>
        <time>2023-05-21T06:32:32.000Z</time>
      </trkpt>
      <trkpt lat="47.81448" lon="7.13062">
        <ele>434.39999389648</ele>
        <time>2023-05-21T06:32:33.000Z</time>
      </trkpt>
      <trkpt lat="47.81439" lon="7.1306">
        <ele>434.39999389648</ele>
        <time>2023-05-21T06:32:35.000Z</time>
      </trkpt>
      <trkpt lat="47.81434" lon="7.1306">
        <ele>434.39999389648</ele>
        <time>2023-05-21T06:32:36.000Z</time>
      </trkpt>
      <trkpt lat="47.8142" lon="7.1306">
        <ele>434.39999389648</ele>
        <time>2023-05-21T06:32:39.000Z</time>
      </trkpt>
      <trkpt lat="47.81415" lon="7.1306">
        <ele>434.39999389648</ele>
        <time>2023-05-21T06:32:40.000Z</time>
      </trkpt>
      <trkpt lat="47.81385" lon="7.13061">
        <ele>434</ele>
        <time>2023-05-21T06:32:45.000Z</time>
      </trkpt>
      <trkpt lat="47.81379" lon="7.13061">
        <ele>433.60000610352</ele>
        <time>2023-05-21T06:32:46.000Z</time>
      </trkpt>
      <trkpt lat="47.81373" lon="7.13061">
        <ele>433.20001220703</ele>
        <time>2023-05-21T06:32:47.000Z</time>
      </trkpt>
      <trkpt lat="47.81367" lon="7.13062">
        <ele>432.79998779297</ele>
        <time>2023-05-21T06:32:48.000Z</time>
      </trkpt>
      <trkpt lat="47.81362" lon="7.13062">
        <ele>432.39999389648</ele>
        <time>2023-05-21T06:32:49.000Z</time>
      </trkpt>
      <trkpt lat="47.81356" lon="7.13065">
        <ele>431.79998779297</ele>
        <time>2023-05-21T06:32:50.000Z</time>
      </trkpt>
      <trkpt lat="47.81348" lon="7.13068">
        <ele>431.39999389648</ele>
        <time>2023-05-21T06:32:51.000Z</time>
      </trkpt>
      <trkpt lat="47.81341" lon="7.13071">
        <ele>431</ele>
        <time>2023-05-21T06:32:52.000Z</time>
      </trkpt>
      <trkpt lat="47.81332" lon="7.13073">
        <ele>430.60000610352</ele>
        <time>2023-05-21T06:32:53.000Z</time>
      </trkpt>
      <trkpt lat="47.81324" lon="7.13076">
        <ele>430</ele>
        <time>2023-05-21T06:32:54.000Z</time>
      </trkpt>
      <trkpt lat="47.81316" lon="7.13078">
        <ele>429.20001220703</ele>
        <time>2023-05-21T06:32:55.000Z</time>
      </trkpt>
      <trkpt lat="47.81307" lon="7.13079">
        <ele>428.60000610352</ele>
        <time>2023-05-21T06:32:56.000Z</time>
      </trkpt>
      <trkpt lat="47.81297" lon="7.13079">
        <ele>427.79998779297</ele>
        <time>2023-05-21T06:32:57.000Z</time>
      </trkpt>
      <trkpt lat="47.81287" lon="7.13079">
        <ele>427.20001220703</ele>
        <time>2023-05-21T06:32:58.000Z</time>
      </trkpt>
      <trkpt lat="47.81278" lon="7.1308">
        <ele>426.39999389648</ele>
        <time>2023-05-21T06:32:59.000Z</time>
      </trkpt>
      <trkpt lat="47.81268" lon="7.13082">
        <ele>425.60000610352</ele>
        <time>2023-05-21T06:33:00.000Z</time>
      </trkpt>
      <trkpt lat="47.81259" lon="7.13082">
        <ele>425</ele>
        <time>2023-05-21T06:33:01.000Z</time>
      </trkpt>
      <trkpt lat="47.81251" lon="7.13083">
        <ele>424.20001220703</ele>
        <time>2023-05-21T06:33:02.000Z</time>
      </trkpt>
      <trkpt lat="47.81242" lon="7.13085">
        <ele>423.39999389648</ele>
        <time>2023-05-21T06:33:03.000Z</time>
      </trkpt>
      <trkpt lat="47.81234" lon="7.13087">
        <ele>422.79998779297</ele>
        <time>2023-05-21T06:33:04.000Z</time>
      </trkpt>
      <trkpt lat="47.81225" lon="7.13088">
        <ele>422.20001220703</ele>
        <time>2023-05-21T06:33:05.000Z</time>
      </trkpt>
      <trkpt lat="47.81216" lon="7.13089">
        <ele>421.60000610352</ele>
        <time>2023-05-21T06:33:06.000Z</time>
      </trkpt>
      <trkpt lat="47.81206" lon="7.1309">
        <ele>420.79998779297</ele>
        <time>2023-05-21T06:33:07.000Z</time>
      </trkpt>
      <trkpt lat="47.81197" lon="7.13091">
        <ele>420.20001220703</ele>
        <time>2023-05-21T06:33:08.000Z</time>
      </trkpt>
      <trkpt lat="47.81187" lon="7.13092">
        <ele>419.39999389648</ele>
        <time>2023-05-21T06:33:09.000Z</time>
      </trkpt>
      <trkpt lat="47.81178" lon="7.13094">
        <ele>418</ele>
        <time>2023-05-21T06:33:10.000Z</time>
      </trkpt>
      <trkpt lat="47.81168" lon="7.13094">
        <ele>417.39999389648</ele>
        <time>2023-05-21T06:33:11.000Z</time>
      </trkpt>
      <trkpt lat="47.81158" lon="7.13094">
        <ele>417</ele>
        <time>2023-05-21T06:33:12.000Z</time>
      </trkpt>
      <trkpt lat="47.81149" lon="7.13094">
        <ele>416.60000610352</ele>
        <time>2023-05-21T06:33:13.000Z</time>
      </trkpt>
      <trkpt lat="47.81139" lon="7.13094">
        <ele>416</ele>
        <time>2023-05-21T06:33:14.000Z</time>
      </trkpt>
      <trkpt lat="47.81129" lon="7.13094">
        <ele>415.39999389648</ele>
        <time>2023-05-21T06:33:15.000Z</time>
      </trkpt>
      <trkpt lat="47.81119" lon="7.13094">
        <ele>415</ele>
        <time>2023-05-21T06:33:16.000Z</time>
      </trkpt>
      <trkpt lat="47.8111" lon="7.13094">
        <ele>414.39999389648</ele>
        <time>2023-05-21T06:33:17.000Z</time>
      </trkpt>
      <trkpt lat="47.81101" lon="7.13096">
        <ele>413.60000610352</ele>
        <time>2023-05-21T06:33:18.000Z</time>
      </trkpt>
      <trkpt lat="47.81092" lon="7.13097">
        <ele>413</ele>
        <time>2023-05-21T06:33:19.000Z</time>
      </trkpt>
      <trkpt lat="47.81083" lon="7.13097">
        <ele>412.39999389648</ele>
        <time>2023-05-21T06:33:20.000Z</time>
      </trkpt>
      <trkpt lat="47.81075" lon="7.13096">
        <ele>411.60000610352</ele>
        <time>2023-05-21T06:33:21.000Z</time>
      </trkpt>
      <trkpt lat="47.81068" lon="7.13095">
        <ele>411</ele>
        <time>2023-05-21T06:33:22.000Z</time>
      </trkpt>
      <trkpt lat="47.81062" lon="7.13092">
        <ele>410.20001220703</ele>
        <time>2023-05-21T06:33:23.000Z</time>
      </trkpt>
      <trkpt lat="47.81056" lon="7.13089">
        <ele>409.60000610352</ele>
        <time>2023-05-21T06:33:24.000Z</time>
      </trkpt>
      <trkpt lat="47.81052" lon="7.13083">
        <ele>409</ele>
        <time>2023-05-21T06:33:25.000Z</time>
      </trkpt>
      <trkpt lat="47.81047" lon="7.13075">
        <ele>409</ele>
        <time>2023-05-21T06:33:27.000Z</time>
      </trkpt>
      <trkpt lat="47.81045" lon="7.13073">
        <ele>409</ele>
        <time>2023-05-21T06:33:28.000Z</time>
      </trkpt>
      <trkpt lat="47.81038" lon="7.13063">
        <ele>409</ele>
        <time>2023-05-21T06:33:32.000Z</time>
      </trkpt>
      <trkpt lat="47.81023" lon="7.1305">
        <ele>409</ele>
        <time>2023-05-21T06:33:38.000Z</time>
      </trkpt>
      <trkpt lat="47.81017" lon="7.13042">
        <ele>409.39999389648</ele>
        <time>2023-05-21T06:33:41.000Z</time>
      </trkpt>
      <trkpt lat="47.81014" lon="7.1304">
        <ele>409.79998779297</ele>
        <time>2023-05-21T06:33:42.000Z</time>
      </trkpt>
      <trkpt lat="47.81012" lon="7.13038">
        <ele>410.20001220703</ele>
        <time>2023-05-21T06:33:43.000Z</time>
      </trkpt>
      <trkpt lat="47.81009" lon="7.13036">
        <ele>410.60000610352</ele>
        <time>2023-05-21T06:33:44.000Z</time>
      </trkpt>
      <trkpt lat="47.81007" lon="7.13033">
        <ele>411</ele>
        <time>2023-05-21T06:33:45.000Z</time>
      </trkpt>
      <trkpt lat="47.81" lon="7.13027">
        <ele>411</ele>
        <time>2023-05-21T06:33:47.000Z</time>
      </trkpt>
      <trkpt lat="47.80991" lon="7.13018">
        <ele>411.39999389648</ele>
        <time>2023-05-21T06:33:50.000Z</time>
      </trkpt>
      <trkpt lat="47.80987" lon="7.13014">
        <ele>411.79998779297</ele>
        <time>2023-05-21T06:33:51.000Z</time>
      </trkpt>
      <trkpt lat="47.80983" lon="7.13011">
        <ele>412.39999389648</ele>
        <time>2023-05-21T06:33:52.000Z</time>
      </trkpt>
      <trkpt lat="47.80979" lon="7.13008">
        <ele>412.79998779297</ele>
        <time>2023-05-21T06:33:53.000Z</time>
      </trkpt>
      <trkpt lat="47.80975" lon="7.13004">
        <ele>413.20001220703</ele>
        <time>2023-05-21T06:33:54.000Z</time>
      </trkpt>
      <trkpt lat="47.80959" lon="7.12992">
        <ele>413.20001220703</ele>
        <time>2023-05-21T06:33:58.000Z</time>
      </trkpt>
      <trkpt lat="47.80951" lon="7.12985">
        <ele>413.20001220703</ele>
        <time>2023-05-21T06:34:00.000Z</time>
      </trkpt>
      <trkpt lat="47.80939" lon="7.12974">
        <ele>413.20001220703</ele>
        <time>2023-05-21T06:34:03.000Z</time>
      </trkpt>
      <trkpt lat="47.8092" lon="7.12956">
        <ele>413.20001220703</ele>
        <time>2023-05-21T06:34:08.000Z</time>
      </trkpt>
      <trkpt lat="47.80917" lon="7.12954">
        <ele>413.60000610352</ele>
        <time>2023-05-21T06:34:09.000Z</time>
      </trkpt>
      <trkpt lat="47.80913" lon="7.12952">
        <ele>414</ele>
        <time>2023-05-21T06:34:10.000Z</time>
      </trkpt>
      <trkpt lat="47.80909" lon="7.1295">
        <ele>414.39999389648</ele>
        <time>2023-05-21T06:34:11.000Z</time>
      </trkpt>
      <trkpt lat="47.80904" lon="7.12947">
        <ele>414.79998779297</ele>
        <time>2023-05-21T06:34:12.000Z</time>
      </trkpt>
      <trkpt lat="47.80899" lon="7.12945">
        <ele>415.39999389648</ele>
        <time>2023-05-21T06:34:13.000Z</time>
      </trkpt>
      <trkpt lat="47.80867" lon="7.1293">
        <ele>415.39999389648</ele>
        <time>2023-05-21T06:34:19.000Z</time>
      </trkpt>
      <trkpt lat="47.80854" lon="7.12922">
        <ele>415.79998779297</ele>
        <time>2023-05-21T06:34:22.000Z</time>
      </trkpt>
      <trkpt lat="47.80849" lon="7.12919">
        <ele>416.20001220703</ele>
        <time>2023-05-21T06:34:23.000Z</time>
      </trkpt>
      <trkpt lat="47.80844" lon="7.12916">
        <ele>417</ele>
        <time>2023-05-21T06:34:24.000Z</time>
      </trkpt>
      <trkpt lat="47.8084" lon="7.12912">
        <ele>417.39999389648</ele>
        <time>2023-05-21T06:34:25.000Z</time>
      </trkpt>
      <trkpt lat="47.80836" lon="7.12909">
        <ele>417.39999389648</ele>
        <time>2023-05-21T06:34:26.000Z</time>
      </trkpt>
      <trkpt lat="47.8083" lon="7.12886">
        <ele>417.39999389648</ele>
        <time>2023-05-21T06:34:30.000Z</time>
      </trkpt>
      <trkpt lat="47.8083" lon="7.12874">
        <ele>417.39999389648</ele>
        <time>2023-05-21T06:34:32.000Z</time>
      </trkpt>
      <trkpt lat="47.80831" lon="7.12868">
        <ele>417.39999389648</ele>
        <time>2023-05-21T06:34:33.000Z</time>
      </trkpt>
      <trkpt lat="47.80834" lon="7.12854">
        <ele>417.39999389648</ele>
        <time>2023-05-21T06:34:35.000Z</time>
      </trkpt>
      <trkpt lat="47.80837" lon="7.12841">
        <ele>417.39999389648</ele>
        <time>2023-05-21T06:34:37.000Z</time>
      </trkpt>
      <trkpt lat="47.80844" lon="7.12813">
        <ele>417.39999389648</ele>
        <time>2023-05-21T06:34:41.000Z</time>
      </trkpt>
      <trkpt lat="47.80848" lon="7.12793">
        <ele>417.39999389648</ele>
        <time>2023-05-21T06:34:44.000Z</time>
      </trkpt>
      <trkpt lat="47.80852" lon="7.12779">
        <ele>417.39999389648</ele>
        <time>2023-05-21T06:34:46.000Z</time>
      </trkpt>
      <trkpt lat="47.80855" lon="7.12772">
        <ele>417.39999389648</ele>
        <time>2023-05-21T06:34:47.000Z</time>
      </trkpt>
      <trkpt lat="47.8087" lon="7.12725">
        <ele>417.39999389648</ele>
        <time>2023-05-21T06:34:53.000Z</time>
      </trkpt>
      <trkpt lat="47.80873" lon="7.12716">
        <ele>417.39999389648</ele>
        <time>2023-05-21T06:34:54.000Z</time>
      </trkpt>
      <trkpt lat="47.80877" lon="7.12698">
        <ele>417.39999389648</ele>
        <time>2023-05-21T06:34:56.000Z</time>
      </trkpt>
      <trkpt lat="47.80883" lon="7.12668">
        <ele>417.39999389648</ele>
        <time>2023-05-21T06:34:59.000Z</time>
      </trkpt>
      <trkpt lat="47.80892" lon="7.12631">
        <ele>417</ele>
        <time>2023-05-21T06:35:03.000Z</time>
      </trkpt>
      <trkpt lat="47.80894" lon="7.12623">
        <ele>416.60000610352</ele>
        <time>2023-05-21T06:35:04.000Z</time>
      </trkpt>
      <trkpt lat="47.80897" lon="7.12615">
        <ele>416.20001220703</ele>
        <time>2023-05-21T06:35:05.000Z</time>
      </trkpt>
      <trkpt lat="47.809" lon="7.12607">
        <ele>415.79998779297</ele>
        <time>2023-05-21T06:35:06.000Z</time>
      </trkpt>
      <trkpt lat="47.80903" lon="7.12599">
        <ele>415.39999389648</ele>
        <time>2023-05-21T06:35:07.000Z</time>
      </trkpt>
      <trkpt lat="47.80912" lon="7.12572">
        <ele>415.39999389648</ele>
        <time>2023-05-21T06:35:10.000Z</time>
      </trkpt>
      <trkpt lat="47.80932" lon="7.1252">
        <ele>415.39999389648</ele>
        <time>2023-05-21T06:35:16.000Z</time>
      </trkpt>
      <trkpt lat="47.80935" lon="7.12511">
        <ele>415.39999389648</ele>
        <time>2023-05-21T06:35:17.000Z</time>
      </trkpt>
      <trkpt lat="47.80942" lon="7.12495">
        <ele>415.39999389648</ele>
        <time>2023-05-21T06:35:19.000Z</time>
      </trkpt>
      <trkpt lat="47.80945" lon="7.1249">
        <ele>415.39999389648</ele>
        <time>2023-05-21T06:35:20.000Z</time>
      </trkpt>
      <trkpt lat="47.8096" lon="7.12481">
        <ele>415.39999389648</ele>
        <time>2023-05-21T06:35:23.000Z</time>
      </trkpt>
      <trkpt lat="47.80969" lon="7.12474">
        <ele>415.39999389648</ele>
        <time>2023-05-21T06:35:25.000Z</time>
      </trkpt>
      <trkpt lat="47.80974" lon="7.12463">
        <ele>415.39999389648</ele>
        <time>2023-05-21T06:35:27.000Z</time>
      </trkpt>
      <trkpt lat="47.80977" lon="7.12448">
        <ele>415.39999389648</ele>
        <time>2023-05-21T06:35:29.000Z</time>
      </trkpt>
      <trkpt lat="47.80979" lon="7.12439">
        <ele>415.39999389648</ele>
        <time>2023-05-21T06:35:30.000Z</time>
      </trkpt>
      <trkpt lat="47.80988" lon="7.12405">
        <ele>415</ele>
        <time>2023-05-21T06:35:33.000Z</time>
      </trkpt>
      <trkpt lat="47.80991" lon="7.12393">
        <ele>414.39999389648</ele>
        <time>2023-05-21T06:35:34.000Z</time>
      </trkpt>
      <trkpt lat="47.80995" lon="7.12383">
        <ele>414</ele>
        <time>2023-05-21T06:35:35.000Z</time>
      </trkpt>
      <trkpt lat="47.80999" lon="7.12373">
        <ele>413.60000610352</ele>
        <time>2023-05-21T06:35:36.000Z</time>
      </trkpt>
      <trkpt lat="47.81004" lon="7.12363">
        <ele>413.20001220703</ele>
        <time>2023-05-21T06:35:37.000Z</time>
      </trkpt>
      <trkpt lat="47.81008" lon="7.12354">
        <ele>412.20001220703</ele>
        <time>2023-05-21T06:35:38.000Z</time>
      </trkpt>
      <trkpt lat="47.81012" lon="7.12344">
        <ele>411.79998779297</ele>
        <time>2023-05-21T06:35:39.000Z</time>
      </trkpt>
      <trkpt lat="47.81017" lon="7.12335">
        <ele>411.20001220703</ele>
        <time>2023-05-21T06:35:40.000Z</time>
      </trkpt>
      <trkpt lat="47.81022" lon="7.12326">
        <ele>410.79998779297</ele>
        <time>2023-05-21T06:35:41.000Z</time>
      </trkpt>
      <trkpt lat="47.81026" lon="7.12317">
        <ele>410.79998779297</ele>
        <time>2023-05-21T06:35:42.000Z</time>
      </trkpt>
      <trkpt lat="47.81039" lon="7.12287">
        <ele>410.39999389648</ele>
        <time>2023-05-21T06:35:45.000Z</time>
      </trkpt>
      <trkpt lat="47.81043" lon="7.12278">
        <ele>410</ele>
        <time>2023-05-21T06:35:46.000Z</time>
      </trkpt>
      <trkpt lat="47.81048" lon="7.1227">
        <ele>409.60000610352</ele>
        <time>2023-05-21T06:35:47.000Z</time>
      </trkpt>
      <trkpt lat="47.81052" lon="7.12264">
        <ele>409</ele>
        <time>2023-05-21T06:35:48.000Z</time>
      </trkpt>
      <trkpt lat="47.81055" lon="7.12257">
        <ele>408.39999389648</ele>
        <time>2023-05-21T06:35:49.000Z</time>
      </trkpt>
      <trkpt lat="47.81056" lon="7.12248">
        <ele>407.79998779297</ele>
        <time>2023-05-21T06:35:50.000Z</time>
      </trkpt>
      <trkpt lat="47.81056" lon="7.12237">
        <ele>407</ele>
        <time>2023-05-21T06:35:51.000Z</time>
      </trkpt>
      <trkpt lat="47.81055" lon="7.12226">
        <ele>406.39999389648</ele>
        <time>2023-05-21T06:35:52.000Z</time>
      </trkpt>
      <trkpt lat="47.81055" lon="7.12215">
        <ele>405.60000610352</ele>
        <time>2023-05-21T06:35:53.000Z</time>
      </trkpt>
      <trkpt lat="47.81056" lon="7.12204">
        <ele>404.79998779297</ele>
        <time>2023-05-21T06:35:54.000Z</time>
      </trkpt>
      <trkpt lat="47.81059" lon="7.12192">
        <ele>403.79998779297</ele>
        <time>2023-05-21T06:35:55.000Z</time>
      </trkpt>
      <trkpt lat="47.81061" lon="7.12179">
        <ele>403</ele>
        <time>2023-05-21T06:35:56.000Z</time>
      </trkpt>
      <trkpt lat="47.81063" lon="7.1217">
        <ele>402</ele>
        <time>2023-05-21T06:35:57.000Z</time>
      </trkpt>
      <trkpt lat="47.81066" lon="7.12162">
        <ele>401</ele>
        <time>2023-05-21T06:35:58.000Z</time>
      </trkpt>
      <trkpt lat="47.81067" lon="7.12158">
        <ele>400</ele>
        <time>2023-05-21T06:35:59.000Z</time>
      </trkpt>
      <trkpt lat="47.81068" lon="7.12156">
        <ele>399.20001220703</ele>
        <time>2023-05-21T06:36:00.000Z</time>
      </trkpt>
      <trkpt lat="47.81068" lon="7.12156">
        <ele>398.39999389648</ele>
        <time>2023-05-21T06:36:01.000Z</time>
      </trkpt>
      <trkpt lat="47.81068" lon="7.12155">
        <ele>396.79998779297</ele>
        <time>2023-05-21T06:36:02.000Z</time>
      </trkpt>
      <trkpt lat="47.8107" lon="7.12152">
        <ele>394</ele>
        <time>2023-05-21T06:36:17.000Z</time>
      </trkpt>
      <trkpt lat="47.81072" lon="7.12151">
        <ele>394</ele>
        <time>2023-05-21T06:36:18.000Z</time>
      </trkpt>
      <trkpt lat="47.81075" lon="7.12152">
        <ele>394</ele>
        <time>2023-05-21T06:36:21.000Z</time>
      </trkpt>
      <trkpt lat="47.81076" lon="7.12151">
        <ele>394</ele>
        <time>2023-05-21T06:36:23.000Z</time>
      </trkpt>
      <trkpt lat="47.81077" lon="7.12151">
        <ele>394</ele>
        <time>2023-05-21T06:36:24.000Z</time>
      </trkpt>
      <trkpt lat="47.81089" lon="7.12149">
        <ele>397.39999389648</ele>
        <time>2023-05-21T06:36:44.000Z</time>
      </trkpt>
      <trkpt lat="47.81091" lon="7.12149">
        <ele>397.79998779297</ele>
        <time>2023-05-21T06:36:45.000Z</time>
      </trkpt>
      <trkpt lat="47.81093" lon="7.1215">
        <ele>398.20001220703</ele>
        <time>2023-05-21T06:36:46.000Z</time>
      </trkpt>
      <trkpt lat="47.81095" lon="7.12149">
        <ele>398.60000610352</ele>
        <time>2023-05-21T06:36:47.000Z</time>
      </trkpt>
      <trkpt lat="47.81097" lon="7.12148">
        <ele>399</ele>
        <time>2023-05-21T06:36:48.000Z</time>
      </trkpt>
      <trkpt lat="47.811" lon="7.12148">
        <ele>399.39999389648</ele>
        <time>2023-05-21T06:36:49.000Z</time>
      </trkpt>
      <trkpt lat="47.81102" lon="7.12147">
        <ele>399.79998779297</ele>
        <time>2023-05-21T06:36:50.000Z</time>
      </trkpt>
      <trkpt lat="47.81104" lon="7.12147">
        <ele>400.20001220703</ele>
        <time>2023-05-21T06:36:51.000Z</time>
      </trkpt>
      <trkpt lat="47.81106" lon="7.12148">
        <ele>400.79998779297</ele>
        <time>2023-05-21T06:36:52.000Z</time>
      </trkpt>
      <trkpt lat="47.81108" lon="7.12149">
        <ele>401.60000610352</ele>
        <time>2023-05-21T06:36:53.000Z</time>
      </trkpt>
      <trkpt lat="47.8111" lon="7.1215">
        <ele>402.20001220703</ele>
        <time>2023-05-21T06:36:54.000Z</time>
      </trkpt>
      <trkpt lat="47.81112" lon="7.1215">
        <ele>402.79998779297</ele>
        <time>2023-05-21T06:36:55.000Z</time>
      </trkpt>
      <trkpt lat="47.81115" lon="7.1215">
        <ele>403.39999389648</ele>
        <time>2023-05-21T06:36:56.000Z</time>
      </trkpt>
      <trkpt lat="47.81117" lon="7.1215">
        <ele>403.79998779297</ele>
        <time>2023-05-21T06:36:57.000Z</time>
      </trkpt>
      <trkpt lat="47.81119" lon="7.1215">
        <ele>404.39999389648</ele>
        <time>2023-05-21T06:36:58.000Z</time>
      </trkpt>
      <trkpt lat="47.81121" lon="7.12152">
        <ele>405</ele>
        <time>2023-05-21T06:36:59.000Z</time>
      </trkpt>
      <trkpt lat="47.81123" lon="7.12152">
        <ele>405.60000610352</ele>
        <time>2023-05-21T06:37:00.000Z</time>
      </trkpt>
      <trkpt lat="47.81125" lon="7.12152">
        <ele>406</ele>
        <time>2023-05-21T06:37:01.000Z</time>
      </trkpt>
      <trkpt lat="47.81128" lon="7.12152">
        <ele>406.60000610352</ele>
        <time>2023-05-21T06:37:02.000Z</time>
      </trkpt>
      <trkpt lat="47.81131" lon="7.12151">
        <ele>407.20001220703</ele>
        <time>2023-05-21T06:37:03.000Z</time>
      </trkpt>
      <trkpt lat="47.81133" lon="7.12151">
        <ele>407.60000610352</ele>
        <time>2023-05-21T06:37:04.000Z</time>
      </trkpt>
      <trkpt lat="47.81135" lon="7.12151">
        <ele>408</ele>
        <time>2023-05-21T06:37:05.000Z</time>
      </trkpt>
      <trkpt lat="47.81137" lon="7.12151">
        <ele>408.60000610352</ele>
        <time>2023-05-21T06:37:06.000Z</time>
      </trkpt>
      <trkpt lat="47.81139" lon="7.12151">
        <ele>409</ele>
        <time>2023-05-21T06:37:07.000Z</time>
      </trkpt>
      <trkpt lat="47.8114" lon="7.12151">
        <ele>409.39999389648</ele>
        <time>2023-05-21T06:37:08.000Z</time>
      </trkpt>
      <trkpt lat="47.81144" lon="7.12152">
        <ele>409.79998779297</ele>
        <time>2023-05-21T06:37:10.000Z</time>
      </trkpt>
      <trkpt lat="47.81146" lon="7.12153">
        <ele>410.20001220703</ele>
        <time>2023-05-21T06:37:11.000Z</time>
      </trkpt>
      <trkpt lat="47.81149" lon="7.12153">
        <ele>410.79998779297</ele>
        <time>2023-05-21T06:37:12.000Z</time>
      </trkpt>
      <trkpt lat="47.81151" lon="7.12153">
        <ele>411.20001220703</ele>
        <time>2023-05-21T06:37:13.000Z</time>
      </trkpt>
      <trkpt lat="47.81154" lon="7.12153">
        <ele>411.60000610352</ele>
        <time>2023-05-21T06:37:14.000Z</time>
      </trkpt>
      <trkpt lat="47.81163" lon="7.12153">
        <ele>412.39999389648</ele>
        <time>2023-05-21T06:37:17.000Z</time>
      </trkpt>
      <trkpt lat="47.81166" lon="7.12152">
        <ele>412.79998779297</ele>
        <time>2023-05-21T06:37:18.000Z</time>
      </trkpt>
      <trkpt lat="47.81168" lon="7.12152">
        <ele>413.20001220703</ele>
        <time>2023-05-21T06:37:19.000Z</time>
      </trkpt>
      <trkpt lat="47.81171" lon="7.12151">
        <ele>413.60000610352</ele>
        <time>2023-05-21T06:37:20.000Z</time>
      </trkpt>
      <trkpt lat="47.81178" lon="7.12148">
        <ele>413.60000610352</ele>
        <time>2023-05-21T06:37:24.000Z</time>
      </trkpt>
      <trkpt lat="47.81179" lon="7.12147">
        <ele>414</ele>
        <time>2023-05-21T06:37:25.000Z</time>
      </trkpt>
      <trkpt lat="47.8118" lon="7.12147">
        <ele>414.60000610352</ele>
        <time>2023-05-21T06:37:26.000Z</time>
      </trkpt>
      <trkpt lat="47.81181" lon="7.12147">
        <ele>415</ele>
        <time>2023-05-21T06:37:27.000Z</time>
      </trkpt>
      <trkpt lat="47.81183" lon="7.12147">
        <ele>415.39999389648</ele>
        <time>2023-05-21T06:37:28.000Z</time>
      </trkpt>
      <trkpt lat="47.81185" lon="7.12146">
        <ele>415.79998779297</ele>
        <time>2023-05-21T06:37:29.000Z</time>
      </trkpt>
      <trkpt lat="47.81188" lon="7.12144">
        <ele>415.79998779297</ele>
        <time>2023-05-21T06:37:31.000Z</time>
      </trkpt>
      <trkpt lat="47.81195" lon="7.12141">
        <ele>416.20001220703</ele>
        <time>2023-05-21T06:37:34.000Z</time>
      </trkpt>
      <trkpt lat="47.81197" lon="7.1214">
        <ele>416.60000610352</ele>
        <time>2023-05-21T06:37:35.000Z</time>
      </trkpt>
      <trkpt lat="47.812" lon="7.12139">
        <ele>417</ele>
        <time>2023-05-21T06:37:36.000Z</time>
      </trkpt>
      <trkpt lat="47.81203" lon="7.12137">
        <ele>417.39999389648</ele>
        <time>2023-05-21T06:37:37.000Z</time>
      </trkpt>
      <trkpt lat="47.81206" lon="7.12135">
        <ele>417.79998779297</ele>
        <time>2023-05-21T06:37:38.000Z</time>
      </trkpt>
      <trkpt lat="47.81212" lon="7.12129">
        <ele>417.79998779297</ele>
        <time>2023-05-21T06:37:41.000Z</time>
      </trkpt>
      <trkpt lat="47.81214" lon="7.12128">
        <ele>418.79998779297</ele>
        <time>2023-05-21T06:37:42.000Z</time>
      </trkpt>
      <trkpt lat="47.81217" lon="7.12126">
        <ele>419.20001220703</ele>
        <time>2023-05-21T06:37:43.000Z</time>
      </trkpt>
      <trkpt lat="47.8122" lon="7.12124">
        <ele>419.60000610352</ele>
        <time>2023-05-21T06:37:44.000Z</time>
      </trkpt>
      <trkpt lat="47.81223" lon="7.12121">
        <ele>420.20001220703</ele>
        <time>2023-05-21T06:37:45.000Z</time>
      </trkpt>
      <trkpt lat="47.81229" lon="7.12116">
        <ele>420.20001220703</ele>
        <time>2023-05-21T06:37:47.000Z</time>
      </trkpt>
      <trkpt lat="47.81232" lon="7.12114">
        <ele>420.60000610352</ele>
        <time>2023-05-21T06:37:48.000Z</time>
      </trkpt>
      <trkpt lat="47.81234" lon="7.12113">
        <ele>421</ele>
        <time>2023-05-21T06:37:49.000Z</time>
      </trkpt>
      <trkpt lat="47.81237" lon="7.12112">
        <ele>421.39999389648</ele>
        <time>2023-05-21T06:37:50.000Z</time>
      </trkpt>
      <trkpt lat="47.8124" lon="7.1211">
        <ele>422</ele>
        <time>2023-05-21T06:37:51.000Z</time>
      </trkpt>
      <trkpt lat="47.81241" lon="7.12109">
        <ele>422.39999389648</ele>
        <time>2023-05-21T06:37:52.000Z</time>
      </trkpt>
      <trkpt lat="47.81243" lon="7.12108">
        <ele>422.79998779297</ele>
        <time>2023-05-21T06:37:53.000Z</time>
      </trkpt>
      <trkpt lat="47.81245" lon="7.12107">
        <ele>423.20001220703</ele>
        <time>2023-05-21T06:37:54.000Z</time>
      </trkpt>
      <trkpt lat="47.81247" lon="7.12106">
        <ele>423.60000610352</ele>
        <time>2023-05-21T06:37:55.000Z</time>
      </trkpt>
      <trkpt lat="47.8125" lon="7.12104">
        <ele>424</ele>
        <time>2023-05-21T06:37:56.000Z</time>
      </trkpt>
      <trkpt lat="47.81253" lon="7.12103">
        <ele>424.39999389648</ele>
        <time>2023-05-21T06:37:57.000Z</time>
      </trkpt>
      <trkpt lat="47.81257" lon="7.12097">
        <ele>424.79998779297</ele>
        <time>2023-05-21T06:37:59.000Z</time>
      </trkpt>
      <trkpt lat="47.81258" lon="7.12093">
        <ele>425.39999389648</ele>
        <time>2023-05-21T06:38:00.000Z</time>
      </trkpt>
      <trkpt lat="47.81258" lon="7.12089">
        <ele>425.79998779297</ele>
        <time>2023-05-21T06:38:01.000Z</time>
      </trkpt>
      <trkpt lat="47.81258" lon="7.12085">
        <ele>426.20001220703</ele>
        <time>2023-05-21T06:38:02.000Z</time>
      </trkpt>
      <trkpt lat="47.81258" lon="7.12083">
        <ele>426.79998779297</ele>
        <time>2023-05-21T06:38:03.000Z</time>
      </trkpt>
      <trkpt lat="47.81256" lon="7.12077">
        <ele>427.20001220703</ele>
        <time>2023-05-21T06:38:05.000Z</time>
      </trkpt>
      <trkpt lat="47.81255" lon="7.12074">
        <ele>427.60000610352</ele>
        <time>2023-05-21T06:38:06.000Z</time>
      </trkpt>
      <trkpt lat="47.81254" lon="7.12071">
        <ele>428.39999389648</ele>
        <time>2023-05-21T06:38:07.000Z</time>
      </trkpt>
      <trkpt lat="47.81252" lon="7.12069">
        <ele>429</ele>
        <time>2023-05-21T06:38:08.000Z</time>
      </trkpt>
      <trkpt lat="47.81248" lon="7.12067">
        <ele>429.39999389648</ele>
        <time>2023-05-21T06:38:10.000Z</time>
      </trkpt>
      <trkpt lat="47.81246" lon="7.12064">
        <ele>429.79998779297</ele>
        <time>2023-05-21T06:38:11.000Z</time>
      </trkpt>
      <trkpt lat="47.81244" lon="7.12062">
        <ele>430.20001220703</ele>
        <time>2023-05-21T06:38:12.000Z</time>
      </trkpt>
      <trkpt lat="47.81242" lon="7.12056">
        <ele>430.60000610352</ele>
        <time>2023-05-21T06:38:13.000Z</time>
      </trkpt>
      <trkpt lat="47.81239" lon="7.12053">
        <ele>431</ele>
        <time>2023-05-21T06:38:14.000Z</time>
      </trkpt>
      <trkpt lat="47.8123" lon="7.12039">
        <ele>431.39999389648</ele>
        <time>2023-05-21T06:38:19.000Z</time>
      </trkpt>
      <trkpt lat="47.81228" lon="7.12037">
        <ele>431.79998779297</ele>
        <time>2023-05-21T06:38:20.000Z</time>
      </trkpt>
      <trkpt lat="47.81226" lon="7.12035">
        <ele>432.20001220703</ele>
        <time>2023-05-21T06:38:21.000Z</time>
      </trkpt>
      <trkpt lat="47.81223" lon="7.12032">
        <ele>432.60000610352</ele>
        <time>2023-05-21T06:38:22.000Z</time>
      </trkpt>
      <trkpt lat="47.81221" lon="7.12028">
        <ele>433</ele>
        <time>2023-05-21T06:38:23.000Z</time>
      </trkpt>
      <trkpt lat="47.81217" lon="7.12021">
        <ele>433</ele>
        <time>2023-05-21T06:38:25.000Z</time>
      </trkpt>
      <trkpt lat="47.81206" lon="7.12008">
        <ele>433.39999389648</ele>
        <time>2023-05-21T06:38:30.000Z</time>
      </trkpt>
      <trkpt lat="47.81204" lon="7.12004">
        <ele>433.79998779297</ele>
        <time>2023-05-21T06:38:31.000Z</time>
      </trkpt>
      <trkpt lat="47.81202" lon="7.12">
        <ele>434.60000610352</ele>
        <time>2023-05-21T06:38:32.000Z</time>
      </trkpt>
      <trkpt lat="47.812" lon="7.11996">
        <ele>435</ele>
        <time>2023-05-21T06:38:33.000Z</time>
      </trkpt>
      <trkpt lat="47.81194" lon="7.11978">
        <ele>435.39999389648</ele>
        <time>2023-05-21T06:38:38.000Z</time>
      </trkpt>
      <trkpt lat="47.81193" lon="7.11975">
        <ele>436</ele>
        <time>2023-05-21T06:38:39.000Z</time>
      </trkpt>
      <trkpt lat="47.81191" lon="7.11972">
        <ele>436.39999389648</ele>
        <time>2023-05-21T06:38:40.000Z</time>
      </trkpt>
      <trkpt lat="47.8119" lon="7.11969">
        <ele>436.79998779297</ele>
        <time>2023-05-21T06:38:41.000Z</time>
      </trkpt>
      <trkpt lat="47.81188" lon="7.11967">
        <ele>437.20001220703</ele>
        <time>2023-05-21T06:38:42.000Z</time>
      </trkpt>
      <trkpt lat="47.81184" lon="7.11956">
        <ele>437.60000610352</ele>
        <time>2023-05-21T06:38:44.000Z</time>
      </trkpt>
      <trkpt lat="47.81182" lon="7.11951">
        <ele>438.20001220703</ele>
        <time>2023-05-21T06:38:45.000Z</time>
      </trkpt>
      <trkpt lat="47.8118" lon="7.11948">
        <ele>438.60000610352</ele>
        <time>2023-05-21T06:38:46.000Z</time>
      </trkpt>
      <trkpt lat="47.81178" lon="7.11946">
        <ele>439</ele>
        <time>2023-05-21T06:38:47.000Z</time>
      </trkpt>
      <trkpt lat="47.81176" lon="7.11943">
        <ele>439.39999389648</ele>
        <time>2023-05-21T06:38:48.000Z</time>
      </trkpt>
      <trkpt lat="47.81174" lon="7.11939">
        <ele>439.79998779297</ele>
        <time>2023-05-21T06:38:49.000Z</time>
      </trkpt>
      <trkpt lat="47.81171" lon="7.11935">
        <ele>440.39999389648</ele>
        <time>2023-05-21T06:38:50.000Z</time>
      </trkpt>
      <trkpt lat="47.81169" lon="7.11931">
        <ele>440.79998779297</ele>
        <time>2023-05-21T06:38:51.000Z</time>
      </trkpt>
      <trkpt lat="47.81167" lon="7.11928">
        <ele>441.20001220703</ele>
        <time>2023-05-21T06:38:52.000Z</time>
      </trkpt>
      <trkpt lat="47.81165" lon="7.11926">
        <ele>441.60000610352</ele>
        <time>2023-05-21T06:38:53.000Z</time>
      </trkpt>
      <trkpt lat="47.81159" lon="7.11918">
        <ele>441.60000610352</ele>
        <time>2023-05-21T06:38:55.000Z</time>
      </trkpt>
      <trkpt lat="47.81156" lon="7.11914">
        <ele>442.39999389648</ele>
        <time>2023-05-21T06:38:56.000Z</time>
      </trkpt>
      <trkpt lat="47.81153" lon="7.11911">
        <ele>442.79998779297</ele>
        <time>2023-05-21T06:38:57.000Z</time>
      </trkpt>
      <trkpt lat="47.81151" lon="7.11908">
        <ele>443.20001220703</ele>
        <time>2023-05-21T06:38:58.000Z</time>
      </trkpt>
      <trkpt lat="47.81148" lon="7.11906">
        <ele>443.60000610352</ele>
        <time>2023-05-21T06:38:59.000Z</time>
      </trkpt>
      <trkpt lat="47.81146" lon="7.11905">
        <ele>443.60000610352</ele>
        <time>2023-05-21T06:39:00.000Z</time>
      </trkpt>
      <trkpt lat="47.81143" lon="7.11901">
        <ele>443.60000610352</ele>
        <time>2023-05-21T06:39:03.000Z</time>
      </trkpt>
      <trkpt lat="47.81143" lon="7.11896">
        <ele>443.60000610352</ele>
        <time>2023-05-21T06:40:04.000Z</time>
      </trkpt>
      <trkpt lat="47.81143" lon="7.11875">
        <ele>443.60000610352</ele>
        <time>2023-05-21T06:40:09.000Z</time>
      </trkpt>
      <trkpt lat="47.81145" lon="7.11861">
        <ele>443.60000610352</ele>
        <time>2023-05-21T06:40:14.000Z</time>
      </trkpt>
      <trkpt lat="47.81146" lon="7.11833">
        <ele>443.60000610352</ele>
        <time>2023-05-21T06:40:19.000Z</time>
      </trkpt>
      <trkpt lat="47.81146" lon="7.11803">
        <ele>443.60000610352</ele>
        <time>2023-05-21T06:40:24.000Z</time>
      </trkpt>
      <trkpt lat="47.81144" lon="7.11785">
        <ele>444</ele>
        <time>2023-05-21T06:40:27.000Z</time>
      </trkpt>
      <trkpt lat="47.81144" lon="7.11779">
        <ele>444.39999389648</ele>
        <time>2023-05-21T06:40:28.000Z</time>
      </trkpt>
      <trkpt lat="47.81143" lon="7.11773">
        <ele>444.79998779297</ele>
        <time>2023-05-21T06:40:29.000Z</time>
      </trkpt>
      <trkpt lat="47.81143" lon="7.11767">
        <ele>445.20001220703</ele>
        <time>2023-05-21T06:40:30.000Z</time>
      </trkpt>
      <trkpt lat="47.81142" lon="7.11761">
        <ele>445.60000610352</ele>
        <time>2023-05-21T06:40:31.000Z</time>
      </trkpt>
      <trkpt lat="47.81141" lon="7.11738">
        <ele>445.60000610352</ele>
        <time>2023-05-21T06:40:35.000Z</time>
      </trkpt>
      <trkpt lat="47.81141" lon="7.11731">
        <ele>445.60000610352</ele>
        <time>2023-05-21T06:40:36.000Z</time>
      </trkpt>
      <trkpt lat="47.81139" lon="7.11704">
        <ele>445.60000610352</ele>
        <time>2023-05-21T06:40:40.000Z</time>
      </trkpt>
      <trkpt lat="47.81138" lon="7.11696">
        <ele>445.60000610352</ele>
        <time>2023-05-21T06:40:41.000Z</time>
      </trkpt>
      <trkpt lat="47.81136" lon="7.11681">
        <ele>445.60000610352</ele>
        <time>2023-05-21T06:40:43.000Z</time>
      </trkpt>
      <trkpt lat="47.81133" lon="7.11651">
        <ele>445.60000610352</ele>
        <time>2023-05-21T06:40:47.000Z</time>
      </trkpt>
      <trkpt lat="47.81132" lon="7.11644">
        <ele>445.60000610352</ele>
        <time>2023-05-21T06:40:48.000Z</time>
      </trkpt>
      <trkpt lat="47.81129" lon="7.11624">
        <ele>445.60000610352</ele>
        <time>2023-05-21T06:40:51.000Z</time>
      </trkpt>
      <trkpt lat="47.81127" lon="7.11617">
        <ele>445.60000610352</ele>
        <time>2023-05-21T06:40:52.000Z</time>
      </trkpt>
      <trkpt lat="47.81121" lon="7.11581">
        <ele>445.60000610352</ele>
        <time>2023-05-21T06:40:56.000Z</time>
      </trkpt>
      <trkpt lat="47.81118" lon="7.11571">
        <ele>445.60000610352</ele>
        <time>2023-05-21T06:40:57.000Z</time>
      </trkpt>
      <trkpt lat="47.81115" lon="7.1156">
        <ele>445.20001220703</ele>
        <time>2023-05-21T06:40:58.000Z</time>
      </trkpt>
      <trkpt lat="47.81113" lon="7.11549">
        <ele>444.39999389648</ele>
        <time>2023-05-21T06:40:59.000Z</time>
      </trkpt>
      <trkpt lat="47.81112" lon="7.11539">
        <ele>444</ele>
        <time>2023-05-21T06:41:00.000Z</time>
      </trkpt>
      <trkpt lat="47.81112" lon="7.11528">
        <ele>443.39999389648</ele>
        <time>2023-05-21T06:41:01.000Z</time>
      </trkpt>
      <trkpt lat="47.81113" lon="7.11519">
        <ele>443</ele>
        <time>2023-05-21T06:41:02.000Z</time>
      </trkpt>
      <trkpt lat="47.81113" lon="7.1151">
        <ele>442.60000610352</ele>
        <time>2023-05-21T06:41:03.000Z</time>
      </trkpt>
      <trkpt lat="47.81114" lon="7.11501">
        <ele>442.20001220703</ele>
        <time>2023-05-21T06:41:04.000Z</time>
      </trkpt>
      <trkpt lat="47.81114" lon="7.11492">
        <ele>441.60000610352</ele>
        <time>2023-05-21T06:41:05.000Z</time>
      </trkpt>
      <trkpt lat="47.81115" lon="7.11481">
        <ele>441.20001220703</ele>
        <time>2023-05-21T06:41:06.000Z</time>
      </trkpt>
      <trkpt lat="47.81118" lon="7.11448">
        <ele>440.79998779297</ele>
        <time>2023-05-21T06:41:09.000Z</time>
      </trkpt>
      <trkpt lat="47.81119" lon="7.11437">
        <ele>440.39999389648</ele>
        <time>2023-05-21T06:41:10.000Z</time>
      </trkpt>
      <trkpt lat="47.8112" lon="7.11427">
        <ele>440</ele>
        <time>2023-05-21T06:41:11.000Z</time>
      </trkpt>
      <trkpt lat="47.8112" lon="7.11416">
        <ele>439.60000610352</ele>
        <time>2023-05-21T06:41:12.000Z</time>
      </trkpt>
      <trkpt lat="47.81121" lon="7.11405">
        <ele>439.20001220703</ele>
        <time>2023-05-21T06:41:13.000Z</time>
      </trkpt>
      <trkpt lat="47.81122" lon="7.11365">
        <ele>439.20001220703</ele>
        <time>2023-05-21T06:41:17.000Z</time>
      </trkpt>
      <trkpt lat="47.81122" lon="7.11335">
        <ele>438.79998779297</ele>
        <time>2023-05-21T06:41:20.000Z</time>
      </trkpt>
      <trkpt lat="47.81122" lon="7.11325">
        <ele>438.39999389648</ele>
        <time>2023-05-21T06:41:21.000Z</time>
      </trkpt>
      <trkpt lat="47.81121" lon="7.11315">
        <ele>438</ele>
        <time>2023-05-21T06:41:22.000Z</time>
      </trkpt>
      <trkpt lat="47.81121" lon="7.11305">
        <ele>437.20001220703</ele>
        <time>2023-05-21T06:41:23.000Z</time>
      </trkpt>
      <trkpt lat="47.81123" lon="7.1125">
        <ele>437.20001220703</ele>
        <time>2023-05-21T06:41:29.000Z</time>
      </trkpt>
      <trkpt lat="47.81129" lon="7.11197">
        <ele>437.20001220703</ele>
        <time>2023-05-21T06:41:35.000Z</time>
      </trkpt>
      <trkpt lat="47.81134" lon="7.1118">
        <ele>436.79998779297</ele>
        <time>2023-05-21T06:41:37.000Z</time>
      </trkpt>
      <trkpt lat="47.81139" lon="7.11175">
        <ele>436.39999389648</ele>
        <time>2023-05-21T06:41:38.000Z</time>
      </trkpt>
      <trkpt lat="47.81145" lon="7.11172">
        <ele>436</ele>
        <time>2023-05-21T06:41:39.000Z</time>
      </trkpt>
      <trkpt lat="47.8115" lon="7.11168">
        <ele>435.60000610352</ele>
        <time>2023-05-21T06:41:40.000Z</time>
      </trkpt>
      <trkpt lat="47.81156" lon="7.11164">
        <ele>435.20001220703</ele>
        <time>2023-05-21T06:41:41.000Z</time>
      </trkpt>
      <trkpt lat="47.81176" lon="7.11142">
        <ele>435.20001220703</ele>
        <time>2023-05-21T06:41:45.000Z</time>
      </trkpt>
      <trkpt lat="47.81184" lon="7.11119">
        <ele>435.20001220703</ele>
        <time>2023-05-21T06:41:48.000Z</time>
      </trkpt>
      <trkpt lat="47.81185" lon="7.11111">
        <ele>435.20001220703</ele>
        <time>2023-05-21T06:41:49.000Z</time>
      </trkpt>
      <trkpt lat="47.81184" lon="7.11076">
        <ele>435.20001220703</ele>
        <time>2023-05-21T06:41:53.000Z</time>
      </trkpt>
      <trkpt lat="47.81183" lon="7.11067">
        <ele>435.20001220703</ele>
        <time>2023-05-21T06:41:54.000Z</time>
      </trkpt>
      <trkpt lat="47.81184" lon="7.11048">
        <ele>434.79998779297</ele>
        <time>2023-05-21T06:41:56.000Z</time>
      </trkpt>
      <trkpt lat="47.81186" lon="7.1104">
        <ele>434.20001220703</ele>
        <time>2023-05-21T06:41:57.000Z</time>
      </trkpt>
      <trkpt lat="47.81188" lon="7.11031">
        <ele>433.79998779297</ele>
        <time>2023-05-21T06:41:58.000Z</time>
      </trkpt>
      <trkpt lat="47.81191" lon="7.11022">
        <ele>433.39999389648</ele>
        <time>2023-05-21T06:41:59.000Z</time>
      </trkpt>
      <trkpt lat="47.81194" lon="7.11014">
        <ele>433</ele>
        <time>2023-05-21T06:42:00.000Z</time>
      </trkpt>
      <trkpt lat="47.81198" lon="7.11006">
        <ele>433</ele>
        <time>2023-05-21T06:42:01.000Z</time>
      </trkpt>
      <trkpt lat="47.812" lon="7.10999">
        <ele>433</ele>
        <time>2023-05-21T06:42:02.000Z</time>
      </trkpt>
      <trkpt lat="47.8121" lon="7.10958">
        <ele>433</ele>
        <time>2023-05-21T06:42:07.000Z</time>
      </trkpt>
      <trkpt lat="47.81224" lon="7.10914">
        <ele>433</ele>
        <time>2023-05-21T06:42:13.000Z</time>
      </trkpt>
      <trkpt lat="47.81239" lon="7.10861">
        <ele>433.39999389648</ele>
        <time>2023-05-21T06:42:20.000Z</time>
      </trkpt>
      <trkpt lat="47.81241" lon="7.10854">
        <ele>433.79998779297</ele>
        <time>2023-05-21T06:42:21.000Z</time>
      </trkpt>
      <trkpt lat="47.81243" lon="7.10847">
        <ele>434.20001220703</ele>
        <time>2023-05-21T06:42:22.000Z</time>
      </trkpt>
      <trkpt lat="47.81246" lon="7.1084">
        <ele>434.60000610352</ele>
        <time>2023-05-21T06:42:23.000Z</time>
      </trkpt>
      <trkpt lat="47.81247" lon="7.10832">
        <ele>435</ele>
        <time>2023-05-21T06:42:24.000Z</time>
      </trkpt>
      <trkpt lat="47.81256" lon="7.10805">
        <ele>435</ele>
        <time>2023-05-21T06:42:28.000Z</time>
      </trkpt>
      <trkpt lat="47.81262" lon="7.10786">
        <ele>435</ele>
        <time>2023-05-21T06:42:31.000Z</time>
      </trkpt>
      <trkpt lat="47.81264" lon="7.1078">
        <ele>435.39999389648</ele>
        <time>2023-05-21T06:42:32.000Z</time>
      </trkpt>
      <trkpt lat="47.81265" lon="7.10774">
        <ele>436</ele>
        <time>2023-05-21T06:42:33.000Z</time>
      </trkpt>
      <trkpt lat="47.81268" lon="7.10769">
        <ele>436.39999389648</ele>
        <time>2023-05-21T06:42:34.000Z</time>
      </trkpt>
      <trkpt lat="47.81271" lon="7.10763">
        <ele>436.79998779297</ele>
        <time>2023-05-21T06:42:35.000Z</time>
      </trkpt>
      <trkpt lat="47.81274" lon="7.10758">
        <ele>437.20001220703</ele>
        <time>2023-05-21T06:42:36.000Z</time>
      </trkpt>
      <trkpt lat="47.8129" lon="7.10735">
        <ele>437.20001220703</ele>
        <time>2023-05-21T06:42:41.000Z</time>
      </trkpt>
      <trkpt lat="47.81293" lon="7.1073">
        <ele>437.20001220703</ele>
        <time>2023-05-21T06:42:42.000Z</time>
      </trkpt>
      <trkpt lat="47.81304" lon="7.10709">
        <ele>437.60000610352</ele>
        <time>2023-05-21T06:42:46.000Z</time>
      </trkpt>
      <trkpt lat="47.81307" lon="7.10704">
        <ele>438</ele>
        <time>2023-05-21T06:42:47.000Z</time>
      </trkpt>
      <trkpt lat="47.8131" lon="7.10698">
        <ele>438.39999389648</ele>
        <time>2023-05-21T06:42:48.000Z</time>
      </trkpt>
      <trkpt lat="47.81312" lon="7.10693">
        <ele>438.79998779297</ele>
        <time>2023-05-21T06:42:49.000Z</time>
      </trkpt>
      <trkpt lat="47.81315" lon="7.10686">
        <ele>439.20001220703</ele>
        <time>2023-05-21T06:42:50.000Z</time>
      </trkpt>
      <trkpt lat="47.81328" lon="7.10655">
        <ele>439.20001220703</ele>
        <time>2023-05-21T06:42:55.000Z</time>
      </trkpt>
      <trkpt lat="47.81334" lon="7.10646">
        <ele>439.20001220703</ele>
        <time>2023-05-21T06:42:57.000Z</time>
      </trkpt>
      <trkpt lat="47.81346" lon="7.10633">
        <ele>439.20001220703</ele>
        <time>2023-05-21T06:43:00.000Z</time>
      </trkpt>
      <trkpt lat="47.81354" lon="7.10627">
        <ele>439.79998779297</ele>
        <time>2023-05-21T06:43:02.000Z</time>
      </trkpt>
      <trkpt lat="47.81358" lon="7.10625">
        <ele>440.20001220703</ele>
        <time>2023-05-21T06:43:03.000Z</time>
      </trkpt>
      <trkpt lat="47.81363" lon="7.10624">
        <ele>440.60000610352</ele>
        <time>2023-05-21T06:43:04.000Z</time>
      </trkpt>
      <trkpt lat="47.81367" lon="7.10623">
        <ele>441</ele>
        <time>2023-05-21T06:43:05.000Z</time>
      </trkpt>
      <trkpt lat="47.81371" lon="7.10623">
        <ele>441.39999389648</ele>
        <time>2023-05-21T06:43:06.000Z</time>
      </trkpt>
      <trkpt lat="47.81379" lon="7.10624">
        <ele>441.39999389648</ele>
        <time>2023-05-21T06:43:08.000Z</time>
      </trkpt>
      <trkpt lat="47.81399" lon="7.10627">
        <ele>441.39999389648</ele>
        <time>2023-05-21T06:43:13.000Z</time>
      </trkpt>
      <trkpt lat="47.81427" lon="7.10627">
        <ele>441.39999389648</ele>
        <time>2023-05-21T06:43:19.000Z</time>
      </trkpt>
      <trkpt lat="47.81435" lon="7.10624">
        <ele>441.39999389648</ele>
        <time>2023-05-21T06:43:21.000Z</time>
      </trkpt>
      <trkpt lat="47.81451" lon="7.1062">
        <ele>441.39999389648</ele>
        <time>2023-05-21T06:43:24.000Z</time>
      </trkpt>
      <trkpt lat="47.81457" lon="7.10621">
        <ele>441.39999389648</ele>
        <time>2023-05-21T06:43:25.000Z</time>
      </trkpt>
      <trkpt lat="47.81476" lon="7.10628">
        <ele>441.39999389648</ele>
        <time>2023-05-21T06:43:28.000Z</time>
      </trkpt>
      <trkpt lat="47.81483" lon="7.10631">
        <ele>441.39999389648</ele>
        <time>2023-05-21T06:43:29.000Z</time>
      </trkpt>
      <trkpt lat="47.8149" lon="7.10636">
        <ele>441</ele>
        <time>2023-05-21T06:43:30.000Z</time>
      </trkpt>
      <trkpt lat="47.81496" lon="7.10641">
        <ele>440.60000610352</ele>
        <time>2023-05-21T06:43:31.000Z</time>
      </trkpt>
      <trkpt lat="47.81502" lon="7.10647">
        <ele>440.20001220703</ele>
        <time>2023-05-21T06:43:32.000Z</time>
      </trkpt>
      <trkpt lat="47.81508" lon="7.10654">
        <ele>439.60000610352</ele>
        <time>2023-05-21T06:43:33.000Z</time>
      </trkpt>
      <trkpt lat="47.81515" lon="7.10662">
        <ele>439.20001220703</ele>
        <time>2023-05-21T06:43:34.000Z</time>
      </trkpt>
      <trkpt lat="47.81522" lon="7.1067">
        <ele>438.79998779297</ele>
        <time>2023-05-21T06:43:35.000Z</time>
      </trkpt>
      <trkpt lat="47.81529" lon="7.10678">
        <ele>438.20001220703</ele>
        <time>2023-05-21T06:43:36.000Z</time>
      </trkpt>
      <trkpt lat="47.81537" lon="7.10686">
        <ele>437.79998779297</ele>
        <time>2023-05-21T06:43:37.000Z</time>
      </trkpt>
      <trkpt lat="47.81545" lon="7.10695">
        <ele>437.20001220703</ele>
        <time>2023-05-21T06:43:38.000Z</time>
      </trkpt>
      <trkpt lat="47.81552" lon="7.10704">
        <ele>436.60000610352</ele>
        <time>2023-05-21T06:43:39.000Z</time>
      </trkpt>
      <trkpt lat="47.81559" lon="7.10715">
        <ele>436.20001220703</ele>
        <time>2023-05-21T06:43:40.000Z</time>
      </trkpt>
      <trkpt lat="47.81567" lon="7.10724">
        <ele>435.60000610352</ele>
        <time>2023-05-21T06:43:41.000Z</time>
      </trkpt>
      <trkpt lat="47.81574" lon="7.10734">
        <ele>435</ele>
        <time>2023-05-21T06:43:42.000Z</time>
      </trkpt>
      <trkpt lat="47.81582" lon="7.10743">
        <ele>434.39999389648</ele>
        <time>2023-05-21T06:43:43.000Z</time>
      </trkpt>
      <trkpt lat="47.8159" lon="7.10753">
        <ele>433.60000610352</ele>
        <time>2023-05-21T06:43:44.000Z</time>
      </trkpt>
      <trkpt lat="47.81597" lon="7.10762">
        <ele>433</ele>
        <time>2023-05-21T06:43:45.000Z</time>
      </trkpt>
      <trkpt lat="47.81604" lon="7.10771">
        <ele>432.39999389648</ele>
        <time>2023-05-21T06:43:46.000Z</time>
      </trkpt>
      <trkpt lat="47.81611" lon="7.10778">
        <ele>432</ele>
        <time>2023-05-21T06:43:47.000Z</time>
      </trkpt>
      <trkpt lat="47.81617" lon="7.10785">
        <ele>431.39999389648</ele>
        <time>2023-05-21T06:43:48.000Z</time>
      </trkpt>
      <trkpt lat="47.81623" lon="7.10791">
        <ele>430.79998779297</ele>
        <time>2023-05-21T06:43:49.000Z</time>
      </trkpt>
      <trkpt lat="47.81629" lon="7.10798">
        <ele>430.20001220703</ele>
        <time>2023-05-21T06:43:50.000Z</time>
      </trkpt>
      <trkpt lat="47.81645" lon="7.10815">
        <ele>430.20001220703</ele>
        <time>2023-05-21T06:43:53.000Z</time>
      </trkpt>
      <trkpt lat="47.81676" lon="7.10849">
        <ele>430.20001220703</ele>
        <time>2023-05-21T06:43:59.000Z</time>
      </trkpt>
      <trkpt lat="47.81696" lon="7.10877">
        <ele>430.20001220703</ele>
        <time>2023-05-21T06:44:04.000Z</time>
      </trkpt>
      <trkpt lat="47.81701" lon="7.10881">
        <ele>430.20001220703</ele>
        <time>2023-05-21T06:44:05.000Z</time>
      </trkpt>
      <trkpt lat="47.81713" lon="7.10895">
        <ele>430.20001220703</ele>
        <time>2023-05-21T06:44:08.000Z</time>
      </trkpt>
      <trkpt lat="47.81719" lon="7.10899">
        <ele>430.20001220703</ele>
        <time>2023-05-21T06:44:09.000Z</time>
      </trkpt>
      <trkpt lat="47.81741" lon="7.10914">
        <ele>430.20001220703</ele>
        <time>2023-05-21T06:44:13.000Z</time>
      </trkpt>
      <trkpt lat="47.81747" lon="7.10917">
        <ele>430.20001220703</ele>
        <time>2023-05-21T06:44:14.000Z</time>
      </trkpt>
      <trkpt lat="47.81771" lon="7.1093">
        <ele>430.20001220703</ele>
        <time>2023-05-21T06:44:18.000Z</time>
      </trkpt>
      <trkpt lat="47.81774" lon="7.10934">
        <ele>430.20001220703</ele>
        <time>2023-05-21T06:44:19.000Z</time>
      </trkpt>
      <trkpt lat="47.81786" lon="7.10932">
        <ele>429.79998779297</ele>
        <time>2023-05-21T06:44:22.000Z</time>
      </trkpt>
      <trkpt lat="47.81791" lon="7.10931">
        <ele>429.39999389648</ele>
        <time>2023-05-21T06:44:23.000Z</time>
      </trkpt>
      <trkpt lat="47.81794" lon="7.10931">
        <ele>429</ele>
        <time>2023-05-21T06:44:24.000Z</time>
      </trkpt>
      <trkpt lat="47.81798" lon="7.10931">
        <ele>428.60000610352</ele>
        <time>2023-05-21T06:44:25.000Z</time>
      </trkpt>
      <trkpt lat="47.818" lon="7.10934">
        <ele>428.20001220703</ele>
        <time>2023-05-21T06:44:26.000Z</time>
      </trkpt>
      <trkpt lat="47.81818" lon="7.10955">
        <ele>428.20001220703</ele>
        <time>2023-05-21T06:44:32.000Z</time>
      </trkpt>
      <trkpt lat="47.81833" lon="7.10976">
        <ele>428.20001220703</ele>
        <time>2023-05-21T06:44:37.000Z</time>
      </trkpt>
      <trkpt lat="47.81841" lon="7.10984">
        <ele>428.20001220703</ele>
        <time>2023-05-21T06:44:39.000Z</time>
      </trkpt>
      <trkpt lat="47.81848" lon="7.10991">
        <ele>429</ele>
        <time>2023-05-21T06:44:41.000Z</time>
      </trkpt>
      <trkpt lat="47.81851" lon="7.10995">
        <ele>429.39999389648</ele>
        <time>2023-05-21T06:44:42.000Z</time>
      </trkpt>
      <trkpt lat="47.81853" lon="7.10999">
        <ele>429.79998779297</ele>
        <time>2023-05-21T06:44:43.000Z</time>
      </trkpt>
      <trkpt lat="47.81856" lon="7.11003">
        <ele>430.20001220703</ele>
        <time>2023-05-21T06:44:44.000Z</time>
      </trkpt>
      <trkpt lat="47.81874" lon="7.11026">
        <ele>430.60000610352</ele>
        <time>2023-05-21T06:44:50.000Z</time>
      </trkpt>
      <trkpt lat="47.81878" lon="7.11029">
        <ele>431</ele>
        <time>2023-05-21T06:44:51.000Z</time>
      </trkpt>
      <trkpt lat="47.81881" lon="7.11032">
        <ele>431.60000610352</ele>
        <time>2023-05-21T06:44:52.000Z</time>
      </trkpt>
      <trkpt lat="47.81884" lon="7.11035">
        <ele>432</ele>
        <time>2023-05-21T06:44:53.000Z</time>
      </trkpt>
      <trkpt lat="47.81888" lon="7.11038">
        <ele>432.39999389648</ele>
        <time>2023-05-21T06:44:54.000Z</time>
      </trkpt>
      <trkpt lat="47.81899" lon="7.11045">
        <ele>432.39999389648</ele>
        <time>2023-05-21T06:44:57.000Z</time>
      </trkpt>
      <trkpt lat="47.8191" lon="7.1105">
        <ele>432.79998779297</ele>
        <time>2023-05-21T06:45:00.000Z</time>
      </trkpt>
      <trkpt lat="47.81914" lon="7.11052">
        <ele>433.20001220703</ele>
        <time>2023-05-21T06:45:01.000Z</time>
      </trkpt>
      <trkpt lat="47.81917" lon="7.11055">
        <ele>433.60000610352</ele>
        <time>2023-05-21T06:45:02.000Z</time>
      </trkpt>
      <trkpt lat="47.8192" lon="7.11057">
        <ele>434</ele>
        <time>2023-05-21T06:45:03.000Z</time>
      </trkpt>
      <trkpt lat="47.81924" lon="7.11059">
        <ele>434.39999389648</ele>
        <time>2023-05-21T06:45:04.000Z</time>
      </trkpt>
      <trkpt lat="47.81934" lon="7.11064">
        <ele>434.79998779297</ele>
        <time>2023-05-21T06:45:07.000Z</time>
      </trkpt>
      <trkpt lat="47.81938" lon="7.11066">
        <ele>435.20001220703</ele>
        <time>2023-05-21T06:45:08.000Z</time>
      </trkpt>
      <trkpt lat="47.81942" lon="7.11068">
        <ele>435.60000610352</ele>
        <time>2023-05-21T06:45:09.000Z</time>
      </trkpt>
      <trkpt lat="47.81947" lon="7.11069">
        <ele>436</ele>
        <time>2023-05-21T06:45:10.000Z</time>
      </trkpt>
      <trkpt lat="47.8195" lon="7.1107">
        <ele>436.60000610352</ele>
        <time>2023-05-21T06:45:11.000Z</time>
      </trkpt>
      <trkpt lat="47.81954" lon="7.11071">
        <ele>436.60000610352</ele>
        <time>2023-05-21T06:45:12.000Z</time>
      </trkpt>
      <trkpt lat="47.81976" lon="7.11079">
        <ele>436.60000610352</ele>
        <time>2023-05-21T06:45:18.000Z</time>
      </trkpt>
      <trkpt lat="47.81986" lon="7.1108">
        <ele>437</ele>
        <time>2023-05-21T06:45:21.000Z</time>
      </trkpt>
      <trkpt lat="47.81989" lon="7.1108">
        <ele>437.39999389648</ele>
        <time>2023-05-21T06:45:22.000Z</time>
      </trkpt>
      <trkpt lat="47.81992" lon="7.1108">
        <ele>437.79998779297</ele>
        <time>2023-05-21T06:45:23.000Z</time>
      </trkpt>
      <trkpt lat="47.81996" lon="7.11081">
        <ele>438.20001220703</ele>
        <time>2023-05-21T06:45:24.000Z</time>
      </trkpt>
      <trkpt lat="47.81999" lon="7.11082">
        <ele>438.60000610352</ele>
        <time>2023-05-21T06:45:25.000Z</time>
      </trkpt>
      <trkpt lat="47.82014" lon="7.11082">
        <ele>438.60000610352</ele>
        <time>2023-05-21T06:45:29.000Z</time>
      </trkpt>
      <trkpt lat="47.82025" lon="7.11077">
        <ele>439</ele>
        <time>2023-05-21T06:45:32.000Z</time>
      </trkpt>
      <trkpt lat="47.82028" lon="7.11074">
        <ele>439.39999389648</ele>
        <time>2023-05-21T06:45:33.000Z</time>
      </trkpt>
      <trkpt lat="47.82032" lon="7.11073">
        <ele>439.79998779297</ele>
        <time>2023-05-21T06:45:34.000Z</time>
      </trkpt>
      <trkpt lat="47.82036" lon="7.11071">
        <ele>440.20001220703</ele>
        <time>2023-05-21T06:45:35.000Z</time>
      </trkpt>
      <trkpt lat="47.8204" lon="7.1107">
        <ele>440.60000610352</ele>
        <time>2023-05-21T06:45:36.000Z</time>
      </trkpt>
      <trkpt lat="47.82044" lon="7.11068">
        <ele>440.60000610352</ele>
        <time>2023-05-21T06:45:37.000Z</time>
      </trkpt>
      <trkpt lat="47.82068" lon="7.11055">
        <ele>440.60000610352</ele>
        <time>2023-05-21T06:45:43.000Z</time>
      </trkpt>
      <trkpt lat="47.82078" lon="7.1105">
        <ele>441</ele>
        <time>2023-05-21T06:45:46.000Z</time>
      </trkpt>
      <trkpt lat="47.8208" lon="7.1105">
        <ele>441.39999389648</ele>
        <time>2023-05-21T06:45:47.000Z</time>
      </trkpt>
      <trkpt lat="47.82084" lon="7.11049">
        <ele>441.79998779297</ele>
        <time>2023-05-21T06:45:48.000Z</time>
      </trkpt>
      <trkpt lat="47.82088" lon="7.11049">
        <ele>442.20001220703</ele>
        <time>2023-05-21T06:45:49.000Z</time>
      </trkpt>
      <trkpt lat="47.82091" lon="7.11049">
        <ele>442.60000610352</ele>
        <time>2023-05-21T06:45:50.000Z</time>
      </trkpt>
      <trkpt lat="47.82101" lon="7.11049">
        <ele>443.20001220703</ele>
        <time>2023-05-21T06:45:53.000Z</time>
      </trkpt>
      <trkpt lat="47.82105" lon="7.11048">
        <ele>443.60000610352</ele>
        <time>2023-05-21T06:45:54.000Z</time>
      </trkpt>
      <trkpt lat="47.82107" lon="7.11047">
        <ele>444.39999389648</ele>
        <time>2023-05-21T06:45:55.000Z</time>
      </trkpt>
      <trkpt lat="47.8211" lon="7.11047">
        <ele>444.79998779297</ele>
        <time>2023-05-21T06:45:56.000Z</time>
      </trkpt>
      <trkpt lat="47.82115" lon="7.11045">
        <ele>445.20001220703</ele>
        <time>2023-05-21T06:45:58.000Z</time>
      </trkpt>
      <trkpt lat="47.82117" lon="7.11044">
        <ele>445.79998779297</ele>
        <time>2023-05-21T06:45:59.000Z</time>
      </trkpt>
      <trkpt lat="47.82121" lon="7.11043">
        <ele>446.20001220703</ele>
        <time>2023-05-21T06:46:00.000Z</time>
      </trkpt>
      <trkpt lat="47.82125" lon="7.11042">
        <ele>446.60000610352</ele>
        <time>2023-05-21T06:46:01.000Z</time>
      </trkpt>
      <trkpt lat="47.82128" lon="7.1104">
        <ele>447</ele>
        <time>2023-05-21T06:46:02.000Z</time>
      </trkpt>
      <trkpt lat="47.8213" lon="7.11038">
        <ele>447.39999389648</ele>
        <time>2023-05-21T06:46:03.000Z</time>
      </trkpt>
      <trkpt lat="47.82134" lon="7.11037">
        <ele>447.79998779297</ele>
        <time>2023-05-21T06:46:04.000Z</time>
      </trkpt>
      <trkpt lat="47.82138" lon="7.11036">
        <ele>448.20001220703</ele>
        <time>2023-05-21T06:46:05.000Z</time>
      </trkpt>
      <trkpt lat="47.82141" lon="7.11035">
        <ele>448.79998779297</ele>
        <time>2023-05-21T06:46:06.000Z</time>
      </trkpt>
      <trkpt lat="47.82144" lon="7.11034">
        <ele>449.20001220703</ele>
        <time>2023-05-21T06:46:07.000Z</time>
      </trkpt>
      <trkpt lat="47.82153" lon="7.11031">
        <ele>449.60000610352</ele>
        <time>2023-05-21T06:46:10.000Z</time>
      </trkpt>
      <trkpt lat="47.82155" lon="7.1103">
        <ele>450</ele>
        <time>2023-05-21T06:46:11.000Z</time>
      </trkpt>
      <trkpt lat="47.82158" lon="7.11029">
        <ele>450.39999389648</ele>
        <time>2023-05-21T06:46:12.000Z</time>
      </trkpt>
      <trkpt lat="47.8216" lon="7.11027">
        <ele>451</ele>
        <time>2023-05-21T06:46:13.000Z</time>
      </trkpt>
      <trkpt lat="47.82162" lon="7.11026">
        <ele>451.39999389648</ele>
        <time>2023-05-21T06:46:14.000Z</time>
      </trkpt>
      <trkpt lat="47.82172" lon="7.11021">
        <ele>451.39999389648</ele>
        <time>2023-05-21T06:46:18.000Z</time>
      </trkpt>
      <trkpt lat="47.82177" lon="7.1102">
        <ele>451.79998779297</ele>
        <time>2023-05-21T06:46:19.000Z</time>
      </trkpt>
      <trkpt lat="47.82182" lon="7.11018">
        <ele>452.60000610352</ele>
        <time>2023-05-21T06:46:20.000Z</time>
      </trkpt>
      <trkpt lat="47.82187" lon="7.11016">
        <ele>453</ele>
        <time>2023-05-21T06:46:21.000Z</time>
      </trkpt>
      <trkpt lat="47.82191" lon="7.11014">
        <ele>453.39999389648</ele>
        <time>2023-05-21T06:46:22.000Z</time>
      </trkpt>
      <trkpt lat="47.82202" lon="7.1101">
        <ele>453.39999389648</ele>
        <time>2023-05-21T06:46:25.000Z</time>
      </trkpt>
      <trkpt lat="47.82209" lon="7.11007">
        <ele>453.79998779297</ele>
        <time>2023-05-21T06:46:27.000Z</time>
      </trkpt>
      <trkpt lat="47.82212" lon="7.11005">
        <ele>454.20001220703</ele>
        <time>2023-05-21T06:46:28.000Z</time>
      </trkpt>
      <trkpt lat="47.82216" lon="7.11003">
        <ele>454.60000610352</ele>
        <time>2023-05-21T06:46:29.000Z</time>
      </trkpt>
      <trkpt lat="47.82219" lon="7.11002">
        <ele>455</ele>
        <time>2023-05-21T06:46:30.000Z</time>
      </trkpt>
      <trkpt lat="47.82222" lon="7.11001">
        <ele>455.39999389648</ele>
        <time>2023-05-21T06:46:31.000Z</time>
      </trkpt>
      <trkpt lat="47.82236" lon="7.10998">
        <ele>455.79998779297</ele>
        <time>2023-05-21T06:46:35.000Z</time>
      </trkpt>
      <trkpt lat="47.82239" lon="7.10996">
        <ele>456.20001220703</ele>
        <time>2023-05-21T06:46:36.000Z</time>
      </trkpt>
      <trkpt lat="47.82242" lon="7.10996">
        <ele>456.60000610352</ele>
        <time>2023-05-21T06:46:37.000Z</time>
      </trkpt>
      <trkpt lat="47.82244" lon="7.10995">
        <ele>457</ele>
        <time>2023-05-21T06:46:38.000Z</time>
      </trkpt>
      <trkpt lat="47.82246" lon="7.10995">
        <ele>457.39999389648</ele>
        <time>2023-05-21T06:46:39.000Z</time>
      </trkpt>
      <trkpt lat="47.82259" lon="7.10986">
        <ele>457.79998779297</ele>
        <time>2023-05-21T06:46:44.000Z</time>
      </trkpt>
      <trkpt lat="47.82261" lon="7.10984">
        <ele>458.79998779297</ele>
        <time>2023-05-21T06:46:45.000Z</time>
      </trkpt>
      <trkpt lat="47.82264" lon="7.10983">
        <ele>459.20001220703</ele>
        <time>2023-05-21T06:46:46.000Z</time>
      </trkpt>
      <trkpt lat="47.82266" lon="7.10981">
        <ele>459.60000610352</ele>
        <time>2023-05-21T06:46:47.000Z</time>
      </trkpt>
      <trkpt lat="47.82274" lon="7.10974">
        <ele>459.60000610352</ele>
        <time>2023-05-21T06:46:50.000Z</time>
      </trkpt>
      <trkpt lat="47.82293" lon="7.10967">
        <ele>459.60000610352</ele>
        <time>2023-05-21T06:46:55.000Z</time>
      </trkpt>
      <trkpt lat="47.82299" lon="7.10963">
        <ele>460</ele>
        <time>2023-05-21T06:46:57.000Z</time>
      </trkpt>
      <trkpt lat="47.82303" lon="7.10962">
        <ele>460.39999389648</ele>
        <time>2023-05-21T06:46:58.000Z</time>
      </trkpt>
      <trkpt lat="47.82308" lon="7.1096">
        <ele>460.79998779297</ele>
        <time>2023-05-21T06:46:59.000Z</time>
      </trkpt>
      <trkpt lat="47.82312" lon="7.10958">
        <ele>461.20001220703</ele>
        <time>2023-05-21T06:47:00.000Z</time>
      </trkpt>
      <trkpt lat="47.82316" lon="7.10956">
        <ele>461.60000610352</ele>
        <time>2023-05-21T06:47:01.000Z</time>
      </trkpt>
      <trkpt lat="47.8233" lon="7.10947">
        <ele>461.60000610352</ele>
        <time>2023-05-21T06:47:05.000Z</time>
      </trkpt>
      <trkpt lat="47.82336" lon="7.10941">
        <ele>462</ele>
        <time>2023-05-21T06:47:07.000Z</time>
      </trkpt>
      <trkpt lat="47.82338" lon="7.10938">
        <ele>462.39999389648</ele>
        <time>2023-05-21T06:47:08.000Z</time>
      </trkpt>
      <trkpt lat="47.82341" lon="7.10936">
        <ele>463.39999389648</ele>
        <time>2023-05-21T06:47:09.000Z</time>
      </trkpt>
      <trkpt lat="47.82344" lon="7.10934">
        <ele>463.79998779297</ele>
        <time>2023-05-21T06:47:10.000Z</time>
      </trkpt>
      <trkpt lat="47.8236" lon="7.10922">
        <ele>464.20001220703</ele>
        <time>2023-05-21T06:47:15.000Z</time>
      </trkpt>
      <trkpt lat="47.82364" lon="7.1092">
        <ele>464.60000610352</ele>
        <time>2023-05-21T06:47:16.000Z</time>
      </trkpt>
      <trkpt lat="47.82367" lon="7.10919">
        <ele>465</ele>
        <time>2023-05-21T06:47:17.000Z</time>
      </trkpt>
      <trkpt lat="47.8237" lon="7.10916">
        <ele>465.39999389648</ele>
        <time>2023-05-21T06:47:18.000Z</time>
      </trkpt>
      <trkpt lat="47.82374" lon="7.10914">
        <ele>465.79998779297</ele>
        <time>2023-05-21T06:47:19.000Z</time>
      </trkpt>
      <trkpt lat="47.82376" lon="7.10912">
        <ele>465.79998779297</ele>
        <time>2023-05-21T06:47:20.000Z</time>
      </trkpt>
      <trkpt lat="47.82381" lon="7.10908">
        <ele>466.20001220703</ele>
        <time>2023-05-21T06:47:22.000Z</time>
      </trkpt>
      <trkpt lat="47.82383" lon="7.10907">
        <ele>466.60000610352</ele>
        <time>2023-05-21T06:47:23.000Z</time>
      </trkpt>
      <trkpt lat="47.82385" lon="7.10905">
        <ele>467</ele>
        <time>2023-05-21T06:47:24.000Z</time>
      </trkpt>
      <trkpt lat="47.82387" lon="7.10902">
        <ele>467.39999389648</ele>
        <time>2023-05-21T06:47:25.000Z</time>
      </trkpt>
      <trkpt lat="47.8239" lon="7.109">
        <ele>467.79998779297</ele>
        <time>2023-05-21T06:47:26.000Z</time>
      </trkpt>
      <trkpt lat="47.82396" lon="7.10895">
        <ele>468.20001220703</ele>
        <time>2023-05-21T06:47:28.000Z</time>
      </trkpt>
      <trkpt lat="47.824" lon="7.10892">
        <ele>468.79998779297</ele>
        <time>2023-05-21T06:47:29.000Z</time>
      </trkpt>
      <trkpt lat="47.82403" lon="7.1089">
        <ele>469.20001220703</ele>
        <time>2023-05-21T06:47:30.000Z</time>
      </trkpt>
      <trkpt lat="47.82406" lon="7.10889">
        <ele>469.60000610352</ele>
        <time>2023-05-21T06:47:31.000Z</time>
      </trkpt>
      <trkpt lat="47.82409" lon="7.10886">
        <ele>470</ele>
        <time>2023-05-21T06:47:32.000Z</time>
      </trkpt>
      <trkpt lat="47.82416" lon="7.10883">
        <ele>470.39999389648</ele>
        <time>2023-05-21T06:47:35.000Z</time>
      </trkpt>
      <trkpt lat="47.82419" lon="7.10881">
        <ele>470.79998779297</ele>
        <time>2023-05-21T06:47:36.000Z</time>
      </trkpt>
      <trkpt lat="47.82423" lon="7.10879">
        <ele>471.20001220703</ele>
        <time>2023-05-21T06:47:37.000Z</time>
      </trkpt>
      <trkpt lat="47.82426" lon="7.10877">
        <ele>471.79998779297</ele>
        <time>2023-05-21T06:47:38.000Z</time>
      </trkpt>
      <trkpt lat="47.82429" lon="7.10875">
        <ele>472.20001220703</ele>
        <time>2023-05-21T06:47:39.000Z</time>
      </trkpt>
      <trkpt lat="47.82438" lon="7.10868">
        <ele>472.20001220703</ele>
        <time>2023-05-21T06:47:43.000Z</time>
      </trkpt>
      <trkpt lat="47.82439" lon="7.10866">
        <ele>472.60000610352</ele>
        <time>2023-05-21T06:47:44.000Z</time>
      </trkpt>
      <trkpt lat="47.82442" lon="7.10865">
        <ele>473</ele>
        <time>2023-05-21T06:47:45.000Z</time>
      </trkpt>
      <trkpt lat="47.82443" lon="7.10864">
        <ele>473.39999389648</ele>
        <time>2023-05-21T06:47:46.000Z</time>
      </trkpt>
      <trkpt lat="47.82446" lon="7.10865">
        <ele>474</ele>
        <time>2023-05-21T06:47:47.000Z</time>
      </trkpt>
      <trkpt lat="47.82449" lon="7.10866">
        <ele>474.39999389648</ele>
        <time>2023-05-21T06:47:48.000Z</time>
      </trkpt>
      <trkpt lat="47.82452" lon="7.10866">
        <ele>474.39999389648</ele>
        <time>2023-05-21T06:47:49.000Z</time>
      </trkpt>
      <trkpt lat="47.8247" lon="7.10879">
        <ele>474.79998779297</ele>
        <time>2023-05-21T06:47:54.000Z</time>
      </trkpt>
      <trkpt lat="47.82473" lon="7.10882">
        <ele>475.20001220703</ele>
        <time>2023-05-21T06:47:55.000Z</time>
      </trkpt>
      <trkpt lat="47.82476" lon="7.10886">
        <ele>475.60000610352</ele>
        <time>2023-05-21T06:47:56.000Z</time>
      </trkpt>
      <trkpt lat="47.82479" lon="7.1089">
        <ele>476</ele>
        <time>2023-05-21T06:47:57.000Z</time>
      </trkpt>
      <trkpt lat="47.82483" lon="7.10894">
        <ele>476.39999389648</ele>
        <time>2023-05-21T06:47:58.000Z</time>
      </trkpt>
      <trkpt lat="47.82488" lon="7.10902">
        <ele>476.39999389648</ele>
        <time>2023-05-21T06:48:00.000Z</time>
      </trkpt>
      <trkpt lat="47.82496" lon="7.10913">
        <ele>476.79998779297</ele>
        <time>2023-05-21T06:48:03.000Z</time>
      </trkpt>
      <trkpt lat="47.82499" lon="7.10915">
        <ele>477.20001220703</ele>
        <time>2023-05-21T06:48:04.000Z</time>
      </trkpt>
      <trkpt lat="47.82502" lon="7.10918">
        <ele>477.79998779297</ele>
        <time>2023-05-21T06:48:05.000Z</time>
      </trkpt>
      <trkpt lat="47.82506" lon="7.10921">
        <ele>478.20001220703</ele>
        <time>2023-05-21T06:48:06.000Z</time>
      </trkpt>
      <trkpt lat="47.82509" lon="7.10925">
        <ele>478.60000610352</ele>
        <time>2023-05-21T06:48:07.000Z</time>
      </trkpt>
      <trkpt lat="47.82518" lon="7.10939">
        <ele>479</ele>
        <time>2023-05-21T06:48:10.000Z</time>
      </trkpt>
      <trkpt lat="47.82521" lon="7.10944">
        <ele>479.39999389648</ele>
        <time>2023-05-21T06:48:11.000Z</time>
      </trkpt>
      <trkpt lat="47.82524" lon="7.10948">
        <ele>479.79998779297</ele>
        <time>2023-05-21T06:48:12.000Z</time>
      </trkpt>
      <trkpt lat="47.82526" lon="7.10952">
        <ele>480.20001220703</ele>
        <time>2023-05-21T06:48:13.000Z</time>
      </trkpt>
      <trkpt lat="47.82528" lon="7.10956">
        <ele>480.60000610352</ele>
        <time>2023-05-21T06:48:14.000Z</time>
      </trkpt>
      <trkpt lat="47.82532" lon="7.10964">
        <ele>480.60000610352</ele>
        <time>2023-05-21T06:48:16.000Z</time>
      </trkpt>
      <trkpt lat="47.82534" lon="7.10967">
        <ele>481</ele>
        <time>2023-05-21T06:48:17.000Z</time>
      </trkpt>
      <trkpt lat="47.82536" lon="7.10972">
        <ele>481.39999389648</ele>
        <time>2023-05-21T06:48:18.000Z</time>
      </trkpt>
      <trkpt lat="47.82538" lon="7.10975">
        <ele>482</ele>
        <time>2023-05-21T06:48:19.000Z</time>
      </trkpt>
      <trkpt lat="47.8254" lon="7.10978">
        <ele>482.39999389648</ele>
        <time>2023-05-21T06:48:20.000Z</time>
      </trkpt>
      <trkpt lat="47.82542" lon="7.10981">
        <ele>482.79998779297</ele>
        <time>2023-05-21T06:48:21.000Z</time>
      </trkpt>
      <trkpt lat="47.82544" lon="7.10983">
        <ele>482.79998779297</ele>
        <time>2023-05-21T06:48:22.000Z</time>
      </trkpt>
      <trkpt lat="47.82546" lon="7.10986">
        <ele>483.20001220703</ele>
        <time>2023-05-21T06:48:23.000Z</time>
      </trkpt>
      <trkpt lat="47.82548" lon="7.10989">
        <ele>483.60000610352</ele>
        <time>2023-05-21T06:48:24.000Z</time>
      </trkpt>
      <trkpt lat="47.8255" lon="7.10992">
        <ele>484.20001220703</ele>
        <time>2023-05-21T06:48:25.000Z</time>
      </trkpt>
      <trkpt lat="47.82552" lon="7.10995">
        <ele>484.60000610352</ele>
        <time>2023-05-21T06:48:26.000Z</time>
      </trkpt>
      <trkpt lat="47.82553" lon="7.10998">
        <ele>485</ele>
        <time>2023-05-21T06:48:27.000Z</time>
      </trkpt>
      <trkpt lat="47.82553" lon="7.11002">
        <ele>485</ele>
        <time>2023-05-21T06:48:28.000Z</time>
      </trkpt>
      <trkpt lat="47.82555" lon="7.11013">
        <ele>485.39999389648</ele>
        <time>2023-05-21T06:48:31.000Z</time>
      </trkpt>
      <trkpt lat="47.82557" lon="7.11016">
        <ele>485.79998779297</ele>
        <time>2023-05-21T06:48:32.000Z</time>
      </trkpt>
      <trkpt lat="47.82559" lon="7.1102">
        <ele>486.20001220703</ele>
        <time>2023-05-21T06:48:33.000Z</time>
      </trkpt>
      <trkpt lat="47.82562" lon="7.11024">
        <ele>486.60000610352</ele>
        <time>2023-05-21T06:48:34.000Z</time>
      </trkpt>
      <trkpt lat="47.82564" lon="7.11028">
        <ele>487.20001220703</ele>
        <time>2023-05-21T06:48:35.000Z</time>
      </trkpt>
      <trkpt lat="47.82578" lon="7.11044">
        <ele>487.60000610352</ele>
        <time>2023-05-21T06:48:40.000Z</time>
      </trkpt>
      <trkpt lat="47.8258" lon="7.11046">
        <ele>488</ele>
        <time>2023-05-21T06:48:41.000Z</time>
      </trkpt>
      <trkpt lat="47.82582" lon="7.11048">
        <ele>488.39999389648</ele>
        <time>2023-05-21T06:48:42.000Z</time>
      </trkpt>
      <trkpt lat="47.82584" lon="7.11051">
        <ele>489</ele>
        <time>2023-05-21T06:48:43.000Z</time>
      </trkpt>
      <trkpt lat="47.82586" lon="7.11055">
        <ele>489.39999389648</ele>
        <time>2023-05-21T06:48:44.000Z</time>
      </trkpt>
      <trkpt lat="47.8259" lon="7.11061">
        <ele>489.39999389648</ele>
        <time>2023-05-21T06:48:46.000Z</time>
      </trkpt>
      <trkpt lat="47.82592" lon="7.11064">
        <ele>489.79998779297</ele>
        <time>2023-05-21T06:48:47.000Z</time>
      </trkpt>
      <trkpt lat="47.82594" lon="7.11066">
        <ele>490.20001220703</ele>
        <time>2023-05-21T06:48:48.000Z</time>
      </trkpt>
      <trkpt lat="47.82596" lon="7.11068">
        <ele>490.79998779297</ele>
        <time>2023-05-21T06:48:49.000Z</time>
      </trkpt>
      <trkpt lat="47.826" lon="7.11071">
        <ele>491.20001220703</ele>
        <time>2023-05-21T06:48:50.000Z</time>
      </trkpt>
      <trkpt lat="47.82603" lon="7.11074">
        <ele>491.60000610352</ele>
        <time>2023-05-21T06:48:51.000Z</time>
      </trkpt>
      <trkpt lat="47.82609" lon="7.11078">
        <ele>491.60000610352</ele>
        <time>2023-05-21T06:48:53.000Z</time>
      </trkpt>
      <trkpt lat="47.82612" lon="7.1108">
        <ele>492</ele>
        <time>2023-05-21T06:48:54.000Z</time>
      </trkpt>
      <trkpt lat="47.82616" lon="7.11081">
        <ele>492.39999389648</ele>
        <time>2023-05-21T06:48:55.000Z</time>
      </trkpt>
      <trkpt lat="47.82618" lon="7.11083">
        <ele>492.79998779297</ele>
        <time>2023-05-21T06:48:56.000Z</time>
      </trkpt>
      <trkpt lat="47.82621" lon="7.11084">
        <ele>493.20001220703</ele>
        <time>2023-05-21T06:48:57.000Z</time>
      </trkpt>
      <trkpt lat="47.82625" lon="7.11085">
        <ele>493.60000610352</ele>
        <time>2023-05-21T06:48:58.000Z</time>
      </trkpt>
      <trkpt lat="47.8263" lon="7.11087">
        <ele>493.60000610352</ele>
        <time>2023-05-21T06:49:00.000Z</time>
      </trkpt>
      <trkpt lat="47.82633" lon="7.11088">
        <ele>494</ele>
        <time>2023-05-21T06:49:01.000Z</time>
      </trkpt>
      <trkpt lat="47.82635" lon="7.11088">
        <ele>494.39999389648</ele>
        <time>2023-05-21T06:49:02.000Z</time>
      </trkpt>
      <trkpt lat="47.82637" lon="7.11089">
        <ele>495</ele>
        <time>2023-05-21T06:49:03.000Z</time>
      </trkpt>
      <trkpt lat="47.82639" lon="7.1109">
        <ele>495.39999389648</ele>
        <time>2023-05-21T06:49:04.000Z</time>
      </trkpt>
      <trkpt lat="47.82641" lon="7.11091">
        <ele>495.79998779297</ele>
        <time>2023-05-21T06:49:05.000Z</time>
      </trkpt>
      <trkpt lat="47.82644" lon="7.11091">
        <ele>495.79998779297</ele>
        <time>2023-05-21T06:49:06.000Z</time>
      </trkpt>
      <trkpt lat="47.82649" lon="7.11091">
        <ele>496.20001220703</ele>
        <time>2023-05-21T06:49:08.000Z</time>
      </trkpt>
      <trkpt lat="47.82651" lon="7.11091">
        <ele>496.60000610352</ele>
        <time>2023-05-21T06:49:09.000Z</time>
      </trkpt>
      <trkpt lat="47.82653" lon="7.11091">
        <ele>497.20001220703</ele>
        <time>2023-05-21T06:49:10.000Z</time>
      </trkpt>
      <trkpt lat="47.82654" lon="7.11091">
        <ele>497.60000610352</ele>
        <time>2023-05-21T06:49:11.000Z</time>
      </trkpt>
      <trkpt lat="47.82656" lon="7.11091">
        <ele>498</ele>
        <time>2023-05-21T06:49:12.000Z</time>
      </trkpt>
      <trkpt lat="47.82658" lon="7.11092">
        <ele>498</ele>
        <time>2023-05-21T06:49:13.000Z</time>
      </trkpt>
      <trkpt lat="47.82662" lon="7.11091">
        <ele>498.60000610352</ele>
        <time>2023-05-21T06:49:15.000Z</time>
      </trkpt>
      <trkpt lat="47.82664" lon="7.11091">
        <ele>499</ele>
        <time>2023-05-21T06:49:16.000Z</time>
      </trkpt>
      <trkpt lat="47.82666" lon="7.11091">
        <ele>499.39999389648</ele>
        <time>2023-05-21T06:49:17.000Z</time>
      </trkpt>
      <trkpt lat="47.82668" lon="7.11092">
        <ele>500</ele>
        <time>2023-05-21T06:49:18.000Z</time>
      </trkpt>
      <trkpt lat="47.8267" lon="7.11092">
        <ele>500.39999389648</ele>
        <time>2023-05-21T06:49:19.000Z</time>
      </trkpt>
      <trkpt lat="47.82677" lon="7.11094">
        <ele>501</ele>
        <time>2023-05-21T06:49:22.000Z</time>
      </trkpt>
      <trkpt lat="47.82679" lon="7.11095">
        <ele>501.39999389648</ele>
        <time>2023-05-21T06:49:23.000Z</time>
      </trkpt>
      <trkpt lat="47.82682" lon="7.11097">
        <ele>501.79998779297</ele>
        <time>2023-05-21T06:49:24.000Z</time>
      </trkpt>
      <trkpt lat="47.82685" lon="7.111">
        <ele>502.39999389648</ele>
        <time>2023-05-21T06:49:25.000Z</time>
      </trkpt>
      <trkpt lat="47.82688" lon="7.11102">
        <ele>502.79998779297</ele>
        <time>2023-05-21T06:49:26.000Z</time>
      </trkpt>
      <trkpt lat="47.82697" lon="7.1111">
        <ele>503.20001220703</ele>
        <time>2023-05-21T06:49:29.000Z</time>
      </trkpt>
      <trkpt lat="47.827" lon="7.11113">
        <ele>503.79998779297</ele>
        <time>2023-05-21T06:49:30.000Z</time>
      </trkpt>
      <trkpt lat="47.82702" lon="7.11115">
        <ele>504.20001220703</ele>
        <time>2023-05-21T06:49:31.000Z</time>
      </trkpt>
      <trkpt lat="47.82704" lon="7.11117">
        <ele>504.79998779297</ele>
        <time>2023-05-21T06:49:32.000Z</time>
      </trkpt>
      <trkpt lat="47.82707" lon="7.11119">
        <ele>505.20001220703</ele>
        <time>2023-05-21T06:49:33.000Z</time>
      </trkpt>
      <trkpt lat="47.82715" lon="7.11121">
        <ele>505.60000610352</ele>
        <time>2023-05-21T06:49:36.000Z</time>
      </trkpt>
      <trkpt lat="47.82717" lon="7.11122">
        <ele>506.39999389648</ele>
        <time>2023-05-21T06:49:37.000Z</time>
      </trkpt>
      <trkpt lat="47.82719" lon="7.11122">
        <ele>507</ele>
        <time>2023-05-21T06:49:38.000Z</time>
      </trkpt>
      <trkpt lat="47.8272" lon="7.11122">
        <ele>507.39999389648</ele>
        <time>2023-05-21T06:49:39.000Z</time>
      </trkpt>
      <trkpt lat="47.82726" lon="7.11125">
        <ele>507.39999389648</ele>
        <time>2023-05-21T06:49:44.000Z</time>
      </trkpt>
      <trkpt lat="47.82727" lon="7.11125">
        <ele>507.39999389648</ele>
        <time>2023-05-21T06:49:45.000Z</time>
      </trkpt>
      <trkpt lat="47.82734" lon="7.1113">
        <ele>507.79998779297</ele>
        <time>2023-05-21T06:49:49.000Z</time>
      </trkpt>
      <trkpt lat="47.82737" lon="7.11131">
        <ele>508.20001220703</ele>
        <time>2023-05-21T06:49:50.000Z</time>
      </trkpt>
      <trkpt lat="47.82739" lon="7.11133">
        <ele>508.60000610352</ele>
        <time>2023-05-21T06:49:51.000Z</time>
      </trkpt>
      <trkpt lat="47.82742" lon="7.11135">
        <ele>509</ele>
        <time>2023-05-21T06:49:52.000Z</time>
      </trkpt>
      <trkpt lat="47.82745" lon="7.11137">
        <ele>509.39999389648</ele>
        <time>2023-05-21T06:49:53.000Z</time>
      </trkpt>
      <trkpt lat="47.82756" lon="7.11149">
        <ele>509.39999389648</ele>
        <time>2023-05-21T06:49:58.000Z</time>
      </trkpt>
      <trkpt lat="47.82757" lon="7.11152">
        <ele>509.79998779297</ele>
        <time>2023-05-21T06:49:59.000Z</time>
      </trkpt>
      <trkpt lat="47.8276" lon="7.11155">
        <ele>510.39999389648</ele>
        <time>2023-05-21T06:50:00.000Z</time>
      </trkpt>
      <trkpt lat="47.82762" lon="7.11158">
        <ele>511.20001220703</ele>
        <time>2023-05-21T06:50:01.000Z</time>
      </trkpt>
      <trkpt lat="47.82765" lon="7.11162">
        <ele>511.60000610352</ele>
        <time>2023-05-21T06:50:02.000Z</time>
      </trkpt>
      <trkpt lat="47.82773" lon="7.11168">
        <ele>512.20001220703</ele>
        <time>2023-05-21T06:50:05.000Z</time>
      </trkpt>
      <trkpt lat="47.82776" lon="7.1117">
        <ele>512.59997558594</ele>
        <time>2023-05-21T06:50:06.000Z</time>
      </trkpt>
      <trkpt lat="47.82779" lon="7.11171">
        <ele>513</ele>
        <time>2023-05-21T06:50:07.000Z</time>
      </trkpt>
      <trkpt lat="47.82781" lon="7.11172">
        <ele>513.40002441406</ele>
        <time>2023-05-21T06:50:08.000Z</time>
      </trkpt>
      <trkpt lat="47.82784" lon="7.11173">
        <ele>514</ele>
        <time>2023-05-21T06:50:09.000Z</time>
      </trkpt>
      <trkpt lat="47.82787" lon="7.11173">
        <ele>514.40002441406</ele>
        <time>2023-05-21T06:50:10.000Z</time>
      </trkpt>
      <trkpt lat="47.8279" lon="7.11175">
        <ele>514.79998779297</ele>
        <time>2023-05-21T06:50:11.000Z</time>
      </trkpt>
      <trkpt lat="47.82793" lon="7.11175">
        <ele>515.20001220703</ele>
        <time>2023-05-21T06:50:12.000Z</time>
      </trkpt>
      <trkpt lat="47.82796" lon="7.11174">
        <ele>515.59997558594</ele>
        <time>2023-05-21T06:50:13.000Z</time>
      </trkpt>
      <trkpt lat="47.82799" lon="7.11173">
        <ele>516</ele>
        <time>2023-05-21T06:50:14.000Z</time>
      </trkpt>
      <trkpt lat="47.82801" lon="7.11173">
        <ele>516</ele>
        <time>2023-05-21T06:50:15.000Z</time>
      </trkpt>
      <trkpt lat="47.82809" lon="7.1117">
        <ele>516.40002441406</ele>
        <time>2023-05-21T06:50:18.000Z</time>
      </trkpt>
      <trkpt lat="47.82813" lon="7.11168">
        <ele>516.79998779297</ele>
        <time>2023-05-21T06:50:19.000Z</time>
      </trkpt>
      <trkpt lat="47.82816" lon="7.11168">
        <ele>517.20001220703</ele>
        <time>2023-05-21T06:50:20.000Z</time>
      </trkpt>
      <trkpt lat="47.82818" lon="7.11168">
        <ele>517.79998779297</ele>
        <time>2023-05-21T06:50:21.000Z</time>
      </trkpt>
      <trkpt lat="47.82821" lon="7.11167">
        <ele>518.20001220703</ele>
        <time>2023-05-21T06:50:22.000Z</time>
      </trkpt>
      <trkpt lat="47.82829" lon="7.11165">
        <ele>518.59997558594</ele>
        <time>2023-05-21T06:50:25.000Z</time>
      </trkpt>
      <trkpt lat="47.82832" lon="7.11165">
        <ele>519.40002441406</ele>
        <time>2023-05-21T06:50:26.000Z</time>
      </trkpt>
      <trkpt lat="47.82834" lon="7.11165">
        <ele>519.79998779297</ele>
        <time>2023-05-21T06:50:27.000Z</time>
      </trkpt>
      <trkpt lat="47.82837" lon="7.11163">
        <ele>520.20001220703</ele>
        <time>2023-05-21T06:50:28.000Z</time>
      </trkpt>
      <trkpt lat="47.82842" lon="7.1116">
        <ele>520.59997558594</ele>
        <time>2023-05-21T06:50:30.000Z</time>
      </trkpt>
      <trkpt lat="47.82844" lon="7.11157">
        <ele>521</ele>
        <time>2023-05-21T06:50:31.000Z</time>
      </trkpt>
      <trkpt lat="47.82846" lon="7.11155">
        <ele>521.40002441406</ele>
        <time>2023-05-21T06:50:32.000Z</time>
      </trkpt>
      <trkpt lat="47.82848" lon="7.11152">
        <ele>522</ele>
        <time>2023-05-21T06:50:33.000Z</time>
      </trkpt>
      <trkpt lat="47.8285" lon="7.11149">
        <ele>522.40002441406</ele>
        <time>2023-05-21T06:50:34.000Z</time>
      </trkpt>
      <trkpt lat="47.82851" lon="7.11146">
        <ele>522.40002441406</ele>
        <time>2023-05-21T06:50:35.000Z</time>
      </trkpt>
      <trkpt lat="47.82855" lon="7.11141">
        <ele>522.79998779297</ele>
        <time>2023-05-21T06:50:37.000Z</time>
      </trkpt>
      <trkpt lat="47.82858" lon="7.11138">
        <ele>523.20001220703</ele>
        <time>2023-05-21T06:50:38.000Z</time>
      </trkpt>
      <trkpt lat="47.8286" lon="7.11135">
        <ele>523.59997558594</ele>
        <time>2023-05-21T06:50:39.000Z</time>
      </trkpt>
      <trkpt lat="47.82862" lon="7.11132">
        <ele>524</ele>
        <time>2023-05-21T06:50:40.000Z</time>
      </trkpt>
      <trkpt lat="47.82863" lon="7.1113">
        <ele>524.40002441406</ele>
        <time>2023-05-21T06:50:41.000Z</time>
      </trkpt>
      <trkpt lat="47.8287" lon="7.11119">
        <ele>524.79998779297</ele>
        <time>2023-05-21T06:50:45.000Z</time>
      </trkpt>
      <trkpt lat="47.82872" lon="7.11117">
        <ele>525.20001220703</ele>
        <time>2023-05-21T06:50:46.000Z</time>
      </trkpt>
      <trkpt lat="47.82873" lon="7.11114">
        <ele>525.79998779297</ele>
        <time>2023-05-21T06:50:47.000Z</time>
      </trkpt>
      <trkpt lat="47.82874" lon="7.11111">
        <ele>526.20001220703</ele>
        <time>2023-05-21T06:50:48.000Z</time>
      </trkpt>
      <trkpt lat="47.82875" lon="7.11109">
        <ele>526.59997558594</ele>
        <time>2023-05-21T06:50:49.000Z</time>
      </trkpt>
      <trkpt lat="47.82878" lon="7.11103">
        <ele>527</ele>
        <time>2023-05-21T06:50:51.000Z</time>
      </trkpt>
      <trkpt lat="47.82879" lon="7.11099">
        <ele>527.40002441406</ele>
        <time>2023-05-21T06:50:52.000Z</time>
      </trkpt>
      <trkpt lat="47.82881" lon="7.11097">
        <ele>527.79998779297</ele>
        <time>2023-05-21T06:50:53.000Z</time>
      </trkpt>
      <trkpt lat="47.82882" lon="7.11095">
        <ele>528.40002441406</ele>
        <time>2023-05-21T06:50:54.000Z</time>
      </trkpt>
      <trkpt lat="47.82884" lon="7.11093">
        <ele>528.79998779297</ele>
        <time>2023-05-21T06:50:55.000Z</time>
      </trkpt>
      <trkpt lat="47.82887" lon="7.11089">
        <ele>528.79998779297</ele>
        <time>2023-05-21T06:50:57.000Z</time>
      </trkpt>
      <trkpt lat="47.82888" lon="7.11087">
        <ele>529.20001220703</ele>
        <time>2023-05-21T06:50:58.000Z</time>
      </trkpt>
      <trkpt lat="47.8289" lon="7.11085">
        <ele>529.59997558594</ele>
        <time>2023-05-21T06:50:59.000Z</time>
      </trkpt>
      <trkpt lat="47.82891" lon="7.11081">
        <ele>530.20001220703</ele>
        <time>2023-05-21T06:51:00.000Z</time>
      </trkpt>
      <trkpt lat="47.82893" lon="7.11078">
        <ele>530.59997558594</ele>
        <time>2023-05-21T06:51:01.000Z</time>
      </trkpt>
      <trkpt lat="47.82894" lon="7.11075">
        <ele>531</ele>
        <time>2023-05-21T06:51:02.000Z</time>
      </trkpt>
      <trkpt lat="47.82896" lon="7.11072">
        <ele>531</ele>
        <time>2023-05-21T06:51:03.000Z</time>
      </trkpt>
      <trkpt lat="47.829" lon="7.11068">
        <ele>531.40002441406</ele>
        <time>2023-05-21T06:51:05.000Z</time>
      </trkpt>
      <trkpt lat="47.82901" lon="7.11065">
        <ele>531.79998779297</ele>
        <time>2023-05-21T06:51:06.000Z</time>
      </trkpt>
      <trkpt lat="47.82903" lon="7.11062">
        <ele>532.20001220703</ele>
        <time>2023-05-21T06:51:07.000Z</time>
      </trkpt>
      <trkpt lat="47.82904" lon="7.1106">
        <ele>532.59997558594</ele>
        <time>2023-05-21T06:51:08.000Z</time>
      </trkpt>
      <trkpt lat="47.82906" lon="7.11057">
        <ele>533</ele>
        <time>2023-05-21T06:51:09.000Z</time>
      </trkpt>
      <trkpt lat="47.82907" lon="7.11055">
        <ele>533</ele>
        <time>2023-05-21T06:51:10.000Z</time>
      </trkpt>
      <trkpt lat="47.82909" lon="7.11053">
        <ele>533.59997558594</ele>
        <time>2023-05-21T06:51:11.000Z</time>
      </trkpt>
      <trkpt lat="47.8291" lon="7.1105">
        <ele>534</ele>
        <time>2023-05-21T06:51:12.000Z</time>
      </trkpt>
      <trkpt lat="47.82911" lon="7.11047">
        <ele>534.40002441406</ele>
        <time>2023-05-21T06:51:13.000Z</time>
      </trkpt>
      <trkpt lat="47.82913" lon="7.11042">
        <ele>534.79998779297</ele>
        <time>2023-05-21T06:51:14.000Z</time>
      </trkpt>
      <trkpt lat="47.82915" lon="7.1104">
        <ele>535.20001220703</ele>
        <time>2023-05-21T06:51:15.000Z</time>
      </trkpt>
      <trkpt lat="47.82918" lon="7.11037">
        <ele>535.59997558594</ele>
        <time>2023-05-21T06:51:16.000Z</time>
      </trkpt>
      <trkpt lat="47.8292" lon="7.11035">
        <ele>536</ele>
        <time>2023-05-21T06:51:17.000Z</time>
      </trkpt>
      <trkpt lat="47.82922" lon="7.11032">
        <ele>536.40002441406</ele>
        <time>2023-05-21T06:51:18.000Z</time>
      </trkpt>
      <trkpt lat="47.82924" lon="7.11028">
        <ele>536.79998779297</ele>
        <time>2023-05-21T06:51:19.000Z</time>
      </trkpt>
      <trkpt lat="47.82925" lon="7.11027">
        <ele>537.20001220703</ele>
        <time>2023-05-21T06:51:20.000Z</time>
      </trkpt>
      <trkpt lat="47.82926" lon="7.11025">
        <ele>537.20001220703</ele>
        <time>2023-05-21T06:51:21.000Z</time>
      </trkpt>
      <trkpt lat="47.82928" lon="7.11024">
        <ele>537.79998779297</ele>
        <time>2023-05-21T06:51:22.000Z</time>
      </trkpt>
      <trkpt lat="47.82929" lon="7.11022">
        <ele>538.20001220703</ele>
        <time>2023-05-21T06:51:23.000Z</time>
      </trkpt>
      <trkpt lat="47.82931" lon="7.11021">
        <ele>538.59997558594</ele>
        <time>2023-05-21T06:51:24.000Z</time>
      </trkpt>
      <trkpt lat="47.82933" lon="7.11018">
        <ele>539</ele>
        <time>2023-05-21T06:51:25.000Z</time>
      </trkpt>
      <trkpt lat="47.82934" lon="7.11016">
        <ele>539.40002441406</ele>
        <time>2023-05-21T06:51:26.000Z</time>
      </trkpt>
      <trkpt lat="47.82936" lon="7.11014">
        <ele>539.40002441406</ele>
        <time>2023-05-21T06:51:27.000Z</time>
      </trkpt>
      <trkpt lat="47.82938" lon="7.11012">
        <ele>540</ele>
        <time>2023-05-21T06:51:28.000Z</time>
      </trkpt>
      <trkpt lat="47.8294" lon="7.1101">
        <ele>540.40002441406</ele>
        <time>2023-05-21T06:51:29.000Z</time>
      </trkpt>
      <trkpt lat="47.82941" lon="7.11008">
        <ele>540.79998779297</ele>
        <time>2023-05-21T06:51:30.000Z</time>
      </trkpt>
      <trkpt lat="47.82942" lon="7.11006">
        <ele>541.20001220703</ele>
        <time>2023-05-21T06:51:31.000Z</time>
      </trkpt>
      <trkpt lat="47.82944" lon="7.11004">
        <ele>541.59997558594</ele>
        <time>2023-05-21T06:51:32.000Z</time>
      </trkpt>
      <trkpt lat="47.82949" lon="7.10996">
        <ele>542</ele>
        <time>2023-05-21T06:51:35.000Z</time>
      </trkpt>
      <trkpt lat="47.82951" lon="7.10994">
        <ele>542.59997558594</ele>
        <time>2023-05-21T06:51:36.000Z</time>
      </trkpt>
      <trkpt lat="47.82953" lon="7.10991">
        <ele>543</ele>
        <time>2023-05-21T06:51:37.000Z</time>
      </trkpt>
      <trkpt lat="47.82955" lon="7.10989">
        <ele>543.40002441406</ele>
        <time>2023-05-21T06:51:38.000Z</time>
      </trkpt>
      <trkpt lat="47.82957" lon="7.10986">
        <ele>544</ele>
        <time>2023-05-21T06:51:39.000Z</time>
      </trkpt>
      <trkpt lat="47.82962" lon="7.10973">
        <ele>544.40002441406</ele>
        <time>2023-05-21T06:51:42.000Z</time>
      </trkpt>
      <trkpt lat="47.82964" lon="7.1097">
        <ele>544.79998779297</ele>
        <time>2023-05-21T06:51:43.000Z</time>
      </trkpt>
      <trkpt lat="47.82965" lon="7.10968">
        <ele>545.20001220703</ele>
        <time>2023-05-21T06:51:44.000Z</time>
      </trkpt>
      <trkpt lat="47.82966" lon="7.10966">
        <ele>545.59997558594</ele>
        <time>2023-05-21T06:51:45.000Z</time>
      </trkpt>
      <trkpt lat="47.82968" lon="7.10964">
        <ele>546</ele>
        <time>2023-05-21T06:51:46.000Z</time>
      </trkpt>
      <trkpt lat="47.82975" lon="7.10957">
        <ele>546.59997558594</ele>
        <time>2023-05-21T06:51:49.000Z</time>
      </trkpt>
      <trkpt lat="47.82977" lon="7.10955">
        <ele>547</ele>
        <time>2023-05-21T06:51:50.000Z</time>
      </trkpt>
      <trkpt lat="47.82979" lon="7.10953">
        <ele>547.40002441406</ele>
        <time>2023-05-21T06:51:51.000Z</time>
      </trkpt>
      <trkpt lat="47.82981" lon="7.10951">
        <ele>547.79998779297</ele>
        <time>2023-05-21T06:51:52.000Z</time>
      </trkpt>
      <trkpt lat="47.82983" lon="7.10948">
        <ele>548.40002441406</ele>
        <time>2023-05-21T06:51:53.000Z</time>
      </trkpt>
      <trkpt lat="47.82985" lon="7.10941">
        <ele>548.79998779297</ele>
        <time>2023-05-21T06:51:55.000Z</time>
      </trkpt>
      <trkpt lat="47.82988" lon="7.10939">
        <ele>549.20001220703</ele>
        <time>2023-05-21T06:51:56.000Z</time>
      </trkpt>
      <trkpt lat="47.8299" lon="7.10937">
        <ele>549.59997558594</ele>
        <time>2023-05-21T06:51:57.000Z</time>
      </trkpt>
      <trkpt lat="47.82992" lon="7.10934">
        <ele>550</ele>
        <time>2023-05-21T06:51:58.000Z</time>
      </trkpt>
      <trkpt lat="47.82994" lon="7.10933">
        <ele>550.40002441406</ele>
        <time>2023-05-21T06:51:59.000Z</time>
      </trkpt>
      <trkpt lat="47.82997" lon="7.1093">
        <ele>550.79998779297</ele>
        <time>2023-05-21T06:52:01.000Z</time>
      </trkpt>
      <trkpt lat="47.83" lon="7.10929">
        <ele>551.20001220703</ele>
        <time>2023-05-21T06:52:02.000Z</time>
      </trkpt>
      <trkpt lat="47.83002" lon="7.10928">
        <ele>551.59997558594</ele>
        <time>2023-05-21T06:52:03.000Z</time>
      </trkpt>
      <trkpt lat="47.83005" lon="7.10927">
        <ele>552.40002441406</ele>
        <time>2023-05-21T06:52:04.000Z</time>
      </trkpt>
      <trkpt lat="47.8301" lon="7.10926">
        <ele>552.79998779297</ele>
        <time>2023-05-21T06:52:06.000Z</time>
      </trkpt>
      <trkpt lat="47.83012" lon="7.10926">
        <ele>553.40002441406</ele>
        <time>2023-05-21T06:52:07.000Z</time>
      </trkpt>
      <trkpt lat="47.83014" lon="7.10924">
        <ele>553.79998779297</ele>
        <time>2023-05-21T06:52:08.000Z</time>
      </trkpt>
      <trkpt lat="47.83015" lon="7.10923">
        <ele>554.20001220703</ele>
        <time>2023-05-21T06:52:09.000Z</time>
      </trkpt>
      <trkpt lat="47.83017" lon="7.1092">
        <ele>554.79998779297</ele>
        <time>2023-05-21T06:52:10.000Z</time>
      </trkpt>
      <trkpt lat="47.83019" lon="7.10918">
        <ele>554.79998779297</ele>
        <time>2023-05-21T06:52:11.000Z</time>
      </trkpt>
      <trkpt lat="47.83021" lon="7.10916">
        <ele>555.20001220703</ele>
        <time>2023-05-21T06:52:12.000Z</time>
      </trkpt>
      <trkpt lat="47.83023" lon="7.10914">
        <ele>555.59997558594</ele>
        <time>2023-05-21T06:52:13.000Z</time>
      </trkpt>
      <trkpt lat="47.83025" lon="7.10913">
        <ele>556</ele>
        <time>2023-05-21T06:52:14.000Z</time>
      </trkpt>
      <trkpt lat="47.83027" lon="7.10912">
        <ele>556.40002441406</ele>
        <time>2023-05-21T06:52:15.000Z</time>
      </trkpt>
      <trkpt lat="47.83029" lon="7.1091">
        <ele>556.79998779297</ele>
        <time>2023-05-21T06:52:16.000Z</time>
      </trkpt>
      <trkpt lat="47.83031" lon="7.10908">
        <ele>557.20001220703</ele>
        <time>2023-05-21T06:52:17.000Z</time>
      </trkpt>
      <trkpt lat="47.83034" lon="7.10906">
        <ele>557.59997558594</ele>
        <time>2023-05-21T06:52:18.000Z</time>
      </trkpt>
      <trkpt lat="47.83036" lon="7.10905">
        <ele>558</ele>
        <time>2023-05-21T06:52:19.000Z</time>
      </trkpt>
      <trkpt lat="47.83037" lon="7.10905">
        <ele>558.40002441406</ele>
        <time>2023-05-21T06:52:20.000Z</time>
      </trkpt>
      <trkpt lat="47.8304" lon="7.10904">
        <ele>559</ele>
        <time>2023-05-21T06:52:21.000Z</time>
      </trkpt>
      <trkpt lat="47.83045" lon="7.10902">
        <ele>559.40002441406</ele>
        <time>2023-05-21T06:52:23.000Z</time>
      </trkpt>
      <trkpt lat="47.83047" lon="7.10901">
        <ele>559.79998779297</ele>
        <time>2023-05-21T06:52:24.000Z</time>
      </trkpt>
      <trkpt lat="47.8305" lon="7.109">
        <ele>560.40002441406</ele>
        <time>2023-05-21T06:52:25.000Z</time>
      </trkpt>
      <trkpt lat="47.83052" lon="7.10899">
        <ele>560.79998779297</ele>
        <time>2023-05-21T06:52:26.000Z</time>
      </trkpt>
      <trkpt lat="47.83055" lon="7.10899">
        <ele>561.20001220703</ele>
        <time>2023-05-21T06:52:27.000Z</time>
      </trkpt>
      <trkpt lat="47.83057" lon="7.10898">
        <ele>561.20001220703</ele>
        <time>2023-05-21T06:52:28.000Z</time>
      </trkpt>
      <trkpt lat="47.83058" lon="7.10897">
        <ele>562.20001220703</ele>
        <time>2023-05-21T06:52:29.000Z</time>
      </trkpt>
      <trkpt lat="47.8306" lon="7.10896">
        <ele>562.59997558594</ele>
        <time>2023-05-21T06:52:30.000Z</time>
      </trkpt>
      <trkpt lat="47.83063" lon="7.10895">
        <ele>563</ele>
        <time>2023-05-21T06:52:31.000Z</time>
      </trkpt>
      <trkpt lat="47.83065" lon="7.10895">
        <ele>563.40002441406</ele>
        <time>2023-05-21T06:52:32.000Z</time>
      </trkpt>
      <trkpt lat="47.83068" lon="7.10893">
        <ele>563.40002441406</ele>
        <time>2023-05-21T06:52:33.000Z</time>
      </trkpt>
      <trkpt lat="47.83069" lon="7.10894">
        <ele>563.79998779297</ele>
        <time>2023-05-21T06:52:34.000Z</time>
      </trkpt>
      <trkpt lat="47.83072" lon="7.10894">
        <ele>564.20001220703</ele>
        <time>2023-05-21T06:52:35.000Z</time>
      </trkpt>
      <trkpt lat="47.83073" lon="7.10894">
        <ele>564.59997558594</ele>
        <time>2023-05-21T06:52:36.000Z</time>
      </trkpt>
      <trkpt lat="47.83074" lon="7.10893">
        <ele>565</ele>
        <time>2023-05-21T06:52:37.000Z</time>
      </trkpt>
      <trkpt lat="47.83074" lon="7.10891">
        <ele>565.40002441406</ele>
        <time>2023-05-21T06:52:38.000Z</time>
      </trkpt>
      <trkpt lat="47.83073" lon="7.10885">
        <ele>565.40002441406</ele>
        <time>2023-05-21T06:52:40.000Z</time>
      </trkpt>
      <trkpt lat="47.83073" lon="7.10882">
        <ele>565.79998779297</ele>
        <time>2023-05-21T06:52:41.000Z</time>
      </trkpt>
      <trkpt lat="47.83072" lon="7.1088">
        <ele>566.40002441406</ele>
        <time>2023-05-21T06:52:42.000Z</time>
      </trkpt>
      <trkpt lat="47.83072" lon="7.10877">
        <ele>566.79998779297</ele>
        <time>2023-05-21T06:52:43.000Z</time>
      </trkpt>
      <trkpt lat="47.83071" lon="7.10874">
        <ele>567.20001220703</ele>
        <time>2023-05-21T06:52:44.000Z</time>
      </trkpt>
      <trkpt lat="47.83069" lon="7.10872">
        <ele>567.59997558594</ele>
        <time>2023-05-21T06:52:45.000Z</time>
      </trkpt>
      <trkpt lat="47.8306" lon="7.10862">
        <ele>567.59997558594</ele>
        <time>2023-05-21T06:52:49.000Z</time>
      </trkpt>
      <trkpt lat="47.83053" lon="7.10857">
        <ele>568</ele>
        <time>2023-05-21T06:52:52.000Z</time>
      </trkpt>
      <trkpt lat="47.83052" lon="7.10856">
        <ele>568.79998779297</ele>
        <time>2023-05-21T06:52:53.000Z</time>
      </trkpt>
      <trkpt lat="47.83049" lon="7.10854">
        <ele>569.20001220703</ele>
        <time>2023-05-21T06:52:54.000Z</time>
      </trkpt>
      <trkpt lat="47.83047" lon="7.10854">
        <ele>569.59997558594</ele>
        <time>2023-05-21T06:52:55.000Z</time>
      </trkpt>
      <trkpt lat="47.83044" lon="7.10855">
        <ele>569.59997558594</ele>
        <time>2023-05-21T06:52:56.000Z</time>
      </trkpt>
      <trkpt lat="47.83034" lon="7.10848">
        <ele>569.59997558594</ele>
        <time>2023-05-21T06:53:01.000Z</time>
      </trkpt>
      <trkpt lat="47.83027" lon="7.10841">
        <ele>570</ele>
        <time>2023-05-21T06:53:05.000Z</time>
      </trkpt>
      <trkpt lat="47.83025" lon="7.1084">
        <ele>570.40002441406</ele>
        <time>2023-05-21T06:53:06.000Z</time>
      </trkpt>
      <trkpt lat="47.83025" lon="7.10839">
        <ele>570.79998779297</ele>
        <time>2023-05-21T06:53:07.000Z</time>
      </trkpt>
      <trkpt lat="47.83024" lon="7.10838">
        <ele>571.20001220703</ele>
        <time>2023-05-21T06:53:08.000Z</time>
      </trkpt>
      <trkpt lat="47.83022" lon="7.10838">
        <ele>571.59997558594</ele>
        <time>2023-05-21T06:53:09.000Z</time>
      </trkpt>
      <trkpt lat="47.8301" lon="7.10846">
        <ele>571.59997558594</ele>
        <time>2023-05-21T06:53:16.000Z</time>
      </trkpt>
      <trkpt lat="47.83007" lon="7.10847">
        <ele>572.20001220703</ele>
        <time>2023-05-21T06:53:17.000Z</time>
      </trkpt>
      <trkpt lat="47.83005" lon="7.10849">
        <ele>572.59997558594</ele>
        <time>2023-05-21T06:53:18.000Z</time>
      </trkpt>
      <trkpt lat="47.83003" lon="7.10851">
        <ele>573</ele>
        <time>2023-05-21T06:53:19.000Z</time>
      </trkpt>
      <trkpt lat="47.83" lon="7.10854">
        <ele>573.40002441406</ele>
        <time>2023-05-21T06:53:20.000Z</time>
      </trkpt>
      <trkpt lat="47.82998" lon="7.10854">
        <ele>573.79998779297</ele>
        <time>2023-05-21T06:53:21.000Z</time>
      </trkpt>
      <trkpt lat="47.82984" lon="7.10866">
        <ele>573.79998779297</ele>
        <time>2023-05-21T06:53:28.000Z</time>
      </trkpt>
      <trkpt lat="47.82969" lon="7.10877">
        <ele>574.20001220703</ele>
        <time>2023-05-21T06:53:34.000Z</time>
      </trkpt>
      <trkpt lat="47.82967" lon="7.10879">
        <ele>574.59997558594</ele>
        <time>2023-05-21T06:53:35.000Z</time>
      </trkpt>
      <trkpt lat="47.82965" lon="7.10882">
        <ele>575.20001220703</ele>
        <time>2023-05-21T06:53:36.000Z</time>
      </trkpt>
      <trkpt lat="47.82962" lon="7.10884">
        <ele>575.59997558594</ele>
        <time>2023-05-21T06:53:37.000Z</time>
      </trkpt>
      <trkpt lat="47.82959" lon="7.10887">
        <ele>576</ele>
        <time>2023-05-21T06:53:38.000Z</time>
      </trkpt>
      <trkpt lat="47.82955" lon="7.10891">
        <ele>576</ele>
        <time>2023-05-21T06:53:40.000Z</time>
      </trkpt>
      <trkpt lat="47.8294" lon="7.10903">
        <ele>576</ele>
        <time>2023-05-21T06:53:46.000Z</time>
      </trkpt>
      <trkpt lat="47.82937" lon="7.10905">
        <ele>576.40002441406</ele>
        <time>2023-05-21T06:53:47.000Z</time>
      </trkpt>
      <trkpt lat="47.82934" lon="7.10907">
        <ele>576.79998779297</ele>
        <time>2023-05-21T06:53:48.000Z</time>
      </trkpt>
      <trkpt lat="47.82931" lon="7.10909">
        <ele>577.20001220703</ele>
        <time>2023-05-21T06:53:49.000Z</time>
      </trkpt>
      <trkpt lat="47.82929" lon="7.10912">
        <ele>577.59997558594</ele>
        <time>2023-05-21T06:53:50.000Z</time>
      </trkpt>
      <trkpt lat="47.82927" lon="7.10913">
        <ele>578</ele>
        <time>2023-05-21T06:53:51.000Z</time>
      </trkpt>
      <trkpt lat="47.82925" lon="7.10915">
        <ele>578</ele>
        <time>2023-05-21T06:53:52.000Z</time>
      </trkpt>
      <trkpt lat="47.82903" lon="7.10928">
        <ele>578</ele>
        <time>2023-05-21T06:54:00.000Z</time>
      </trkpt>
      <trkpt lat="47.82896" lon="7.10931">
        <ele>578.40002441406</ele>
        <time>2023-05-21T06:54:02.000Z</time>
      </trkpt>
      <trkpt lat="47.82893" lon="7.10933">
        <ele>578.79998779297</ele>
        <time>2023-05-21T06:54:03.000Z</time>
      </trkpt>
      <trkpt lat="47.8289" lon="7.10935">
        <ele>579.20001220703</ele>
        <time>2023-05-21T06:54:04.000Z</time>
      </trkpt>
      <trkpt lat="47.82888" lon="7.10937">
        <ele>579.59997558594</ele>
        <time>2023-05-21T06:54:05.000Z</time>
      </trkpt>
      <trkpt lat="47.82886" lon="7.10938">
        <ele>580</ele>
        <time>2023-05-21T06:54:06.000Z</time>
      </trkpt>
      <trkpt lat="47.82884" lon="7.1094">
        <ele>580</ele>
        <time>2023-05-21T06:54:07.000Z</time>
      </trkpt>
      <trkpt lat="47.82875" lon="7.10946">
        <ele>580.40002441406</ele>
        <time>2023-05-21T06:54:12.000Z</time>
      </trkpt>
      <trkpt lat="47.82874" lon="7.10948">
        <ele>580.79998779297</ele>
        <time>2023-05-21T06:54:13.000Z</time>
      </trkpt>
      <trkpt lat="47.82872" lon="7.10951">
        <ele>581.20001220703</ele>
        <time>2023-05-21T06:54:14.000Z</time>
      </trkpt>
      <trkpt lat="47.8287" lon="7.10954">
        <ele>581.79998779297</ele>
        <time>2023-05-21T06:54:15.000Z</time>
      </trkpt>
      <trkpt lat="47.82868" lon="7.10956">
        <ele>582.20001220703</ele>
        <time>2023-05-21T06:54:16.000Z</time>
      </trkpt>
      <trkpt lat="47.82851" lon="7.10977">
        <ele>582.20001220703</ele>
        <time>2023-05-21T06:54:22.000Z</time>
      </trkpt>
      <trkpt lat="47.82837" lon="7.10985">
        <ele>582.20001220703</ele>
        <time>2023-05-21T06:54:27.000Z</time>
      </trkpt>
      <trkpt lat="47.82834" lon="7.10984">
        <ele>582.59997558594</ele>
        <time>2023-05-21T06:54:28.000Z</time>
      </trkpt>
      <trkpt lat="47.82831" lon="7.10983">
        <ele>583</ele>
        <time>2023-05-21T06:54:29.000Z</time>
      </trkpt>
      <trkpt lat="47.82828" lon="7.10982">
        <ele>583.40002441406</ele>
        <time>2023-05-21T06:54:30.000Z</time>
      </trkpt>
      <trkpt lat="47.82825" lon="7.10979">
        <ele>584.20001220703</ele>
        <time>2023-05-21T06:54:31.000Z</time>
      </trkpt>
      <trkpt lat="47.82823" lon="7.10976">
        <ele>584.20001220703</ele>
        <time>2023-05-21T06:54:32.000Z</time>
      </trkpt>
      <trkpt lat="47.82809" lon="7.10966">
        <ele>584.20001220703</ele>
        <time>2023-05-21T06:54:37.000Z</time>
      </trkpt>
      <trkpt lat="47.82804" lon="7.10963">
        <ele>584.59997558594</ele>
        <time>2023-05-21T06:54:39.000Z</time>
      </trkpt>
      <trkpt lat="47.82801" lon="7.10962">
        <ele>585</ele>
        <time>2023-05-21T06:54:40.000Z</time>
      </trkpt>
      <trkpt lat="47.82798" lon="7.1096">
        <ele>585.40002441406</ele>
        <time>2023-05-21T06:54:41.000Z</time>
      </trkpt>
      <trkpt lat="47.82795" lon="7.10958">
        <ele>585.79998779297</ele>
        <time>2023-05-21T06:54:42.000Z</time>
      </trkpt>
      <trkpt lat="47.82792" lon="7.10956">
        <ele>586.20001220703</ele>
        <time>2023-05-21T06:54:43.000Z</time>
      </trkpt>
      <trkpt lat="47.82778" lon="7.10946">
        <ele>586.20001220703</ele>
        <time>2023-05-21T06:54:48.000Z</time>
      </trkpt>
      <trkpt lat="47.8277" lon="7.10939">
        <ele>586.59997558594</ele>
        <time>2023-05-21T06:54:51.000Z</time>
      </trkpt>
      <trkpt lat="47.82767" lon="7.10937">
        <ele>587</ele>
        <time>2023-05-21T06:54:52.000Z</time>
      </trkpt>
      <trkpt lat="47.82765" lon="7.10935">
        <ele>587.40002441406</ele>
        <time>2023-05-21T06:54:53.000Z</time>
      </trkpt>
      <trkpt lat="47.82762" lon="7.10932">
        <ele>587.79998779297</ele>
        <time>2023-05-21T06:54:54.000Z</time>
      </trkpt>
      <trkpt lat="47.8276" lon="7.10929">
        <ele>588.20001220703</ele>
        <time>2023-05-21T06:54:55.000Z</time>
      </trkpt>
      <trkpt lat="47.82745" lon="7.10915">
        <ele>588.20001220703</ele>
        <time>2023-05-21T06:55:01.000Z</time>
      </trkpt>
      <trkpt lat="47.82737" lon="7.10907">
        <ele>588.59997558594</ele>
        <time>2023-05-21T06:55:04.000Z</time>
      </trkpt>
      <trkpt lat="47.82735" lon="7.10904">
        <ele>589</ele>
        <time>2023-05-21T06:55:05.000Z</time>
      </trkpt>
      <trkpt lat="47.82732" lon="7.10901">
        <ele>589.59997558594</ele>
        <time>2023-05-21T06:55:06.000Z</time>
      </trkpt>
      <trkpt lat="47.8273" lon="7.10899">
        <ele>590</ele>
        <time>2023-05-21T06:55:07.000Z</time>
      </trkpt>
      <trkpt lat="47.82728" lon="7.10896">
        <ele>590.40002441406</ele>
        <time>2023-05-21T06:55:08.000Z</time>
      </trkpt>
      <trkpt lat="47.82719" lon="7.1088">
        <ele>590.40002441406</ele>
        <time>2023-05-21T06:55:13.000Z</time>
      </trkpt>
      <trkpt lat="47.82715" lon="7.10864">
        <ele>590.79998779297</ele>
        <time>2023-05-21T06:55:17.000Z</time>
      </trkpt>
      <trkpt lat="47.82715" lon="7.10859">
        <ele>591.20001220703</ele>
        <time>2023-05-21T06:55:18.000Z</time>
      </trkpt>
      <trkpt lat="47.82716" lon="7.10855">
        <ele>591.79998779297</ele>
        <time>2023-05-21T06:55:19.000Z</time>
      </trkpt>
      <trkpt lat="47.82716" lon="7.10851">
        <ele>592.20001220703</ele>
        <time>2023-05-21T06:55:20.000Z</time>
      </trkpt>
      <trkpt lat="47.82717" lon="7.10846">
        <ele>592.59997558594</ele>
        <time>2023-05-21T06:55:21.000Z</time>
      </trkpt>
      <trkpt lat="47.8272" lon="7.10834">
        <ele>592.59997558594</ele>
        <time>2023-05-21T06:55:24.000Z</time>
      </trkpt>
      <trkpt lat="47.82723" lon="7.10819">
        <ele>592.59997558594</ele>
        <time>2023-05-21T06:55:28.000Z</time>
      </trkpt>
      <trkpt lat="47.82725" lon="7.10815">
        <ele>593.20001220703</ele>
        <time>2023-05-21T06:55:29.000Z</time>
      </trkpt>
      <trkpt lat="47.82726" lon="7.10811">
        <ele>593.59997558594</ele>
        <time>2023-05-21T06:55:30.000Z</time>
      </trkpt>
      <trkpt lat="47.82726" lon="7.10807">
        <ele>594</ele>
        <time>2023-05-21T06:55:31.000Z</time>
      </trkpt>
      <trkpt lat="47.82727" lon="7.10802">
        <ele>594.40002441406</ele>
        <time>2023-05-21T06:55:32.000Z</time>
      </trkpt>
      <trkpt lat="47.82728" lon="7.10799">
        <ele>594.79998779297</ele>
        <time>2023-05-21T06:55:33.000Z</time>
      </trkpt>
      <trkpt lat="47.82732" lon="7.10787">
        <ele>594.79998779297</ele>
        <time>2023-05-21T06:55:37.000Z</time>
      </trkpt>
      <trkpt lat="47.82736" lon="7.10774">
        <ele>595.20001220703</ele>
        <time>2023-05-21T06:55:40.000Z</time>
      </trkpt>
      <trkpt lat="47.82738" lon="7.1077">
        <ele>595.59997558594</ele>
        <time>2023-05-21T06:55:41.000Z</time>
      </trkpt>
      <trkpt lat="47.8274" lon="7.10766">
        <ele>596</ele>
        <time>2023-05-21T06:55:42.000Z</time>
      </trkpt>
      <trkpt lat="47.82741" lon="7.10763">
        <ele>596.40002441406</ele>
        <time>2023-05-21T06:55:43.000Z</time>
      </trkpt>
      <trkpt lat="47.82743" lon="7.1076">
        <ele>596.79998779297</ele>
        <time>2023-05-21T06:55:44.000Z</time>
      </trkpt>
      <trkpt lat="47.82748" lon="7.10749">
        <ele>596.79998779297</ele>
        <time>2023-05-21T06:55:47.000Z</time>
      </trkpt>
      <trkpt lat="47.82758" lon="7.10731">
        <ele>597.40002441406</ele>
        <time>2023-05-21T06:55:52.000Z</time>
      </trkpt>
      <trkpt lat="47.82759" lon="7.10728">
        <ele>597.79998779297</ele>
        <time>2023-05-21T06:55:53.000Z</time>
      </trkpt>
      <trkpt lat="47.82761" lon="7.10725">
        <ele>598.20001220703</ele>
        <time>2023-05-21T06:55:54.000Z</time>
      </trkpt>
      <trkpt lat="47.82762" lon="7.10722">
        <ele>598.59997558594</ele>
        <time>2023-05-21T06:55:55.000Z</time>
      </trkpt>
      <trkpt lat="47.82764" lon="7.10719">
        <ele>599</ele>
        <time>2023-05-21T06:55:56.000Z</time>
      </trkpt>
      <trkpt lat="47.82767" lon="7.10714">
        <ele>599</ele>
        <time>2023-05-21T06:55:58.000Z</time>
      </trkpt>
      <trkpt lat="47.82771" lon="7.10704">
        <ele>599.40002441406</ele>
        <time>2023-05-21T06:56:02.000Z</time>
      </trkpt>
      <trkpt lat="47.82772" lon="7.107">
        <ele>599.79998779297</ele>
        <time>2023-05-21T06:56:03.000Z</time>
      </trkpt>
      <trkpt lat="47.82774" lon="7.10698">
        <ele>600.20001220703</ele>
        <time>2023-05-21T06:56:04.000Z</time>
      </trkpt>
      <trkpt lat="47.82775" lon="7.10696">
        <ele>600.59997558594</ele>
        <time>2023-05-21T06:56:05.000Z</time>
      </trkpt>
      <trkpt lat="47.82776" lon="7.10693">
        <ele>601</ele>
        <time>2023-05-21T06:56:06.000Z</time>
      </trkpt>
      <trkpt lat="47.82781" lon="7.10685">
        <ele>601</ele>
        <time>2023-05-21T06:56:09.000Z</time>
      </trkpt>
      <trkpt lat="47.82789" lon="7.10673">
        <ele>601</ele>
        <time>2023-05-21T06:56:14.000Z</time>
      </trkpt>
      <trkpt lat="47.82791" lon="7.10671">
        <ele>601.40002441406</ele>
        <time>2023-05-21T06:56:15.000Z</time>
      </trkpt>
      <trkpt lat="47.82792" lon="7.10669">
        <ele>601.79998779297</ele>
        <time>2023-05-21T06:56:16.000Z</time>
      </trkpt>
      <trkpt lat="47.82794" lon="7.10666">
        <ele>602.20001220703</ele>
        <time>2023-05-21T06:56:17.000Z</time>
      </trkpt>
      <trkpt lat="47.82796" lon="7.10664">
        <ele>602.79998779297</ele>
        <time>2023-05-21T06:56:18.000Z</time>
      </trkpt>
      <trkpt lat="47.82798" lon="7.10662">
        <ele>603.20001220703</ele>
        <time>2023-05-21T06:56:19.000Z</time>
      </trkpt>
      <trkpt lat="47.82801" lon="7.1066">
        <ele>603.20001220703</ele>
        <time>2023-05-21T06:56:20.000Z</time>
      </trkpt>
      <trkpt lat="47.82816" lon="7.10645">
        <ele>603.20001220703</ele>
        <time>2023-05-21T06:56:26.000Z</time>
      </trkpt>
      <trkpt lat="47.82818" lon="7.10642">
        <ele>603.59997558594</ele>
        <time>2023-05-21T06:56:27.000Z</time>
      </trkpt>
      <trkpt lat="47.82821" lon="7.10639">
        <ele>604</ele>
        <time>2023-05-21T06:56:28.000Z</time>
      </trkpt>
      <trkpt lat="47.82823" lon="7.10636">
        <ele>604.40002441406</ele>
        <time>2023-05-21T06:56:29.000Z</time>
      </trkpt>
      <trkpt lat="47.82824" lon="7.10633">
        <ele>604.79998779297</ele>
        <time>2023-05-21T06:56:30.000Z</time>
      </trkpt>
      <trkpt lat="47.82825" lon="7.1063">
        <ele>605.20001220703</ele>
        <time>2023-05-21T06:56:31.000Z</time>
      </trkpt>
      <trkpt lat="47.82826" lon="7.10609">
        <ele>605.20001220703</ele>
        <time>2023-05-21T06:56:36.000Z</time>
      </trkpt>
      <trkpt lat="47.82827" lon="7.10599">
        <ele>605.59997558594</ele>
        <time>2023-05-21T06:56:38.000Z</time>
      </trkpt>
      <trkpt lat="47.82827" lon="7.10593">
        <ele>606</ele>
        <time>2023-05-21T06:56:39.000Z</time>
      </trkpt>
      <trkpt lat="47.82827" lon="7.10587">
        <ele>606.40002441406</ele>
        <time>2023-05-21T06:56:40.000Z</time>
      </trkpt>
      <trkpt lat="47.82827" lon="7.10581">
        <ele>606.79998779297</ele>
        <time>2023-05-21T06:56:41.000Z</time>
      </trkpt>
      <trkpt lat="47.82827" lon="7.10576">
        <ele>607.20001220703</ele>
        <time>2023-05-21T06:56:42.000Z</time>
      </trkpt>
      <trkpt lat="47.82829" lon="7.10553">
        <ele>607.20001220703</ele>
        <time>2023-05-21T06:56:47.000Z</time>
      </trkpt>
      <trkpt lat="47.82833" lon="7.10536">
        <ele>607.59997558594</ele>
        <time>2023-05-21T06:56:51.000Z</time>
      </trkpt>
      <trkpt lat="47.82835" lon="7.10533">
        <ele>608</ele>
        <time>2023-05-21T06:56:52.000Z</time>
      </trkpt>
      <trkpt lat="47.82836" lon="7.1053">
        <ele>608.59997558594</ele>
        <time>2023-05-21T06:56:53.000Z</time>
      </trkpt>
      <trkpt lat="47.82837" lon="7.10527">
        <ele>609</ele>
        <time>2023-05-21T06:56:54.000Z</time>
      </trkpt>
      <trkpt lat="47.82838" lon="7.10523">
        <ele>609.40002441406</ele>
        <time>2023-05-21T06:56:55.000Z</time>
      </trkpt>
      <trkpt lat="47.82841" lon="7.1051">
        <ele>609.40002441406</ele>
        <time>2023-05-21T06:56:58.000Z</time>
      </trkpt>
      <trkpt lat="47.82842" lon="7.10501">
        <ele>609.79998779297</ele>
        <time>2023-05-21T06:57:00.000Z</time>
      </trkpt>
      <trkpt lat="47.82842" lon="7.10496">
        <ele>610.20001220703</ele>
        <time>2023-05-21T06:57:01.000Z</time>
      </trkpt>
      <trkpt lat="47.82843" lon="7.10491">
        <ele>610.59997558594</ele>
        <time>2023-05-21T06:57:02.000Z</time>
      </trkpt>
      <trkpt lat="47.82843" lon="7.10487">
        <ele>611</ele>
        <time>2023-05-21T06:57:03.000Z</time>
      </trkpt>
      <trkpt lat="47.82845" lon="7.10482">
        <ele>611.40002441406</ele>
        <time>2023-05-21T06:57:04.000Z</time>
      </trkpt>
      <trkpt lat="47.82846" lon="7.10478">
        <ele>611.40002441406</ele>
        <time>2023-05-21T06:57:05.000Z</time>
      </trkpt>
      <trkpt lat="47.82852" lon="7.10458">
        <ele>611.79998779297</ele>
        <time>2023-05-21T06:57:11.000Z</time>
      </trkpt>
      <trkpt lat="47.82853" lon="7.10454">
        <ele>612.20001220703</ele>
        <time>2023-05-21T06:57:12.000Z</time>
      </trkpt>
      <trkpt lat="47.82854" lon="7.10451">
        <ele>612.59997558594</ele>
        <time>2023-05-21T06:57:13.000Z</time>
      </trkpt>
      <trkpt lat="47.82854" lon="7.10446">
        <ele>613</ele>
        <time>2023-05-21T06:57:14.000Z</time>
      </trkpt>
      <trkpt lat="47.82855" lon="7.10442">
        <ele>613.40002441406</ele>
        <time>2023-05-21T06:57:15.000Z</time>
      </trkpt>
      <trkpt lat="47.82858" lon="7.10432">
        <ele>613.40002441406</ele>
        <time>2023-05-21T06:57:18.000Z</time>
      </trkpt>
      <trkpt lat="47.82863" lon="7.10415">
        <ele>614</ele>
        <time>2023-05-21T06:57:23.000Z</time>
      </trkpt>
      <trkpt lat="47.82864" lon="7.10411">
        <ele>614.40002441406</ele>
        <time>2023-05-21T06:57:24.000Z</time>
      </trkpt>
      <trkpt lat="47.82864" lon="7.10407">
        <ele>615.20001220703</ele>
        <time>2023-05-21T06:57:25.000Z</time>
      </trkpt>
      <trkpt lat="47.82865" lon="7.10404">
        <ele>615.59997558594</ele>
        <time>2023-05-21T06:57:26.000Z</time>
      </trkpt>
      <trkpt lat="47.82861" lon="7.10388">
        <ele>615.59997558594</ele>
        <time>2023-05-21T06:57:30.000Z</time>
      </trkpt>
      <trkpt lat="47.82854" lon="7.10379">
        <ele>615.59997558594</ele>
        <time>2023-05-21T06:57:34.000Z</time>
      </trkpt>
      <trkpt lat="47.82849" lon="7.10378">
        <ele>616</ele>
        <time>2023-05-21T06:57:36.000Z</time>
      </trkpt>
      <trkpt lat="47.82846" lon="7.10378">
        <ele>616.40002441406</ele>
        <time>2023-05-21T06:57:37.000Z</time>
      </trkpt>
      <trkpt lat="47.82843" lon="7.10377">
        <ele>616.79998779297</ele>
        <time>2023-05-21T06:57:38.000Z</time>
      </trkpt>
      <trkpt lat="47.8284" lon="7.10377">
        <ele>617.20001220703</ele>
        <time>2023-05-21T06:57:39.000Z</time>
      </trkpt>
      <trkpt lat="47.82837" lon="7.10378">
        <ele>617.79998779297</ele>
        <time>2023-05-21T06:57:40.000Z</time>
      </trkpt>
      <trkpt lat="47.82819" lon="7.10374">
        <ele>617.79998779297</ele>
        <time>2023-05-21T06:57:46.000Z</time>
      </trkpt>
      <trkpt lat="47.82813" lon="7.10375">
        <ele>618.20001220703</ele>
        <time>2023-05-21T06:57:48.000Z</time>
      </trkpt>
      <trkpt lat="47.8281" lon="7.10374">
        <ele>618.59997558594</ele>
        <time>2023-05-21T06:57:49.000Z</time>
      </trkpt>
      <trkpt lat="47.82807" lon="7.10374">
        <ele>619.40002441406</ele>
        <time>2023-05-21T06:57:50.000Z</time>
      </trkpt>
      <trkpt lat="47.82804" lon="7.10375">
        <ele>619.79998779297</ele>
        <time>2023-05-21T06:57:51.000Z</time>
      </trkpt>
      <trkpt lat="47.82801" lon="7.10374">
        <ele>619.79998779297</ele>
        <time>2023-05-21T06:57:52.000Z</time>
      </trkpt>
      <trkpt lat="47.82782" lon="7.10372">
        <ele>619.79998779297</ele>
        <time>2023-05-21T06:57:59.000Z</time>
      </trkpt>
      <trkpt lat="47.8278" lon="7.10372">
        <ele>620.40002441406</ele>
        <time>2023-05-21T06:58:00.000Z</time>
      </trkpt>
      <trkpt lat="47.82776" lon="7.10372">
        <ele>620.79998779297</ele>
        <time>2023-05-21T06:58:01.000Z</time>
      </trkpt>
      <trkpt lat="47.82774" lon="7.10372">
        <ele>621.20001220703</ele>
        <time>2023-05-21T06:58:02.000Z</time>
      </trkpt>
      <trkpt lat="47.82772" lon="7.10372">
        <ele>621.59997558594</ele>
        <time>2023-05-21T06:58:03.000Z</time>
      </trkpt>
      <trkpt lat="47.8277" lon="7.10373">
        <ele>622</ele>
        <time>2023-05-21T06:58:04.000Z</time>
      </trkpt>
      <trkpt lat="47.82768" lon="7.10373">
        <ele>622</ele>
        <time>2023-05-21T06:58:05.000Z</time>
      </trkpt>
      <trkpt lat="47.82753" lon="7.10376">
        <ele>622</ele>
        <time>2023-05-21T06:58:11.000Z</time>
      </trkpt>
      <trkpt lat="47.82751" lon="7.10377">
        <ele>622.40002441406</ele>
        <time>2023-05-21T06:58:12.000Z</time>
      </trkpt>
      <trkpt lat="47.82747" lon="7.10379">
        <ele>622.79998779297</ele>
        <time>2023-05-21T06:58:13.000Z</time>
      </trkpt>
      <trkpt lat="47.82744" lon="7.10381">
        <ele>623.20001220703</ele>
        <time>2023-05-21T06:58:14.000Z</time>
      </trkpt>
      <trkpt lat="47.82741" lon="7.10382">
        <ele>624</ele>
        <time>2023-05-21T06:58:15.000Z</time>
      </trkpt>
      <trkpt lat="47.82734" lon="7.10386">
        <ele>624</ele>
        <time>2023-05-21T06:58:17.000Z</time>
      </trkpt>
      <trkpt lat="47.82717" lon="7.10391">
        <ele>624.59997558594</ele>
        <time>2023-05-21T06:58:23.000Z</time>
      </trkpt>
      <trkpt lat="47.82713" lon="7.10392">
        <ele>625</ele>
        <time>2023-05-21T06:58:24.000Z</time>
      </trkpt>
      <trkpt lat="47.8271" lon="7.10395">
        <ele>625.40002441406</ele>
        <time>2023-05-21T06:58:25.000Z</time>
      </trkpt>
      <trkpt lat="47.82707" lon="7.10396">
        <ele>625.79998779297</ele>
        <time>2023-05-21T06:58:26.000Z</time>
      </trkpt>
      <trkpt lat="47.82704" lon="7.10398">
        <ele>626.20001220703</ele>
        <time>2023-05-21T06:58:27.000Z</time>
      </trkpt>
      <trkpt lat="47.82697" lon="7.10403">
        <ele>626.20001220703</ele>
        <time>2023-05-21T06:58:30.000Z</time>
      </trkpt>
      <trkpt lat="47.82683" lon="7.10414">
        <ele>626.59997558594</ele>
        <time>2023-05-21T06:58:36.000Z</time>
      </trkpt>
      <trkpt lat="47.8268" lon="7.10415">
        <ele>627</ele>
        <time>2023-05-21T06:58:37.000Z</time>
      </trkpt>
      <trkpt lat="47.82677" lon="7.10416">
        <ele>627.40002441406</ele>
        <time>2023-05-21T06:58:38.000Z</time>
      </trkpt>
      <trkpt lat="47.82675" lon="7.10417">
        <ele>628.40002441406</ele>
        <time>2023-05-21T06:58:39.000Z</time>
      </trkpt>
      <trkpt lat="47.82665" lon="7.10416">
        <ele>628.40002441406</ele>
        <time>2023-05-21T06:58:42.000Z</time>
      </trkpt>
      <trkpt lat="47.82649" lon="7.10409">
        <ele>628.40002441406</ele>
        <time>2023-05-21T06:58:47.000Z</time>
      </trkpt>
      <trkpt lat="47.82646" lon="7.10408">
        <ele>628.79998779297</ele>
        <time>2023-05-21T06:58:48.000Z</time>
      </trkpt>
      <trkpt lat="47.82643" lon="7.10407">
        <ele>629.20001220703</ele>
        <time>2023-05-21T06:58:49.000Z</time>
      </trkpt>
      <trkpt lat="47.8264" lon="7.10406">
        <ele>629.59997558594</ele>
        <time>2023-05-21T06:58:50.000Z</time>
      </trkpt>
      <trkpt lat="47.82638" lon="7.10406">
        <ele>630</ele>
        <time>2023-05-21T06:58:51.000Z</time>
      </trkpt>
      <trkpt lat="47.82635" lon="7.10405">
        <ele>630.59997558594</ele>
        <time>2023-05-21T06:58:52.000Z</time>
      </trkpt>
      <trkpt lat="47.8263" lon="7.10404">
        <ele>630.59997558594</ele>
        <time>2023-05-21T06:58:54.000Z</time>
      </trkpt>
      <trkpt lat="47.82615" lon="7.10405">
        <ele>630.59997558594</ele>
        <time>2023-05-21T06:59:00.000Z</time>
      </trkpt>
      <trkpt lat="47.82612" lon="7.10404">
        <ele>631</ele>
        <time>2023-05-21T06:59:01.000Z</time>
      </trkpt>
      <trkpt lat="47.82608" lon="7.10405">
        <ele>631.40002441406</ele>
        <time>2023-05-21T06:59:02.000Z</time>
      </trkpt>
      <trkpt lat="47.82605" lon="7.10405">
        <ele>631.79998779297</ele>
        <time>2023-05-21T06:59:03.000Z</time>
      </trkpt>
      <trkpt lat="47.82602" lon="7.10404">
        <ele>632.59997558594</ele>
        <time>2023-05-21T06:59:04.000Z</time>
      </trkpt>
      <trkpt lat="47.82599" lon="7.10404">
        <ele>632.59997558594</ele>
        <time>2023-05-21T06:59:05.000Z</time>
      </trkpt>
      <trkpt lat="47.82589" lon="7.10396">
        <ele>633.20001220703</ele>
        <time>2023-05-21T06:59:10.000Z</time>
      </trkpt>
      <trkpt lat="47.82588" lon="7.10394">
        <ele>633.59997558594</ele>
        <time>2023-05-21T06:59:11.000Z</time>
      </trkpt>
      <trkpt lat="47.82588" lon="7.10391">
        <ele>634</ele>
        <time>2023-05-21T06:59:12.000Z</time>
      </trkpt>
      <trkpt lat="47.82589" lon="7.10389">
        <ele>634.40002441406</ele>
        <time>2023-05-21T06:59:13.000Z</time>
      </trkpt>
      <trkpt lat="47.8259" lon="7.10387">
        <ele>634.79998779297</ele>
        <time>2023-05-21T06:59:14.000Z</time>
      </trkpt>
      <trkpt lat="47.82599" lon="7.10383">
        <ele>634.79998779297</ele>
        <time>2023-05-21T06:59:18.000Z</time>
      </trkpt>
      <trkpt lat="47.82603" lon="7.10386">
        <ele>634.79998779297</ele>
        <time>2023-05-21T06:59:21.000Z</time>
      </trkpt>
      <trkpt lat="47.82605" lon="7.10387">
        <ele>635.20001220703</ele>
        <time>2023-05-21T06:59:22.000Z</time>
      </trkpt>
      <trkpt lat="47.82607" lon="7.10388">
        <ele>635.79998779297</ele>
        <time>2023-05-21T06:59:23.000Z</time>
      </trkpt>
      <trkpt lat="47.82609" lon="7.1039">
        <ele>636.20001220703</ele>
        <time>2023-05-21T06:59:24.000Z</time>
      </trkpt>
      <trkpt lat="47.82611" lon="7.10392">
        <ele>636.59997558594</ele>
        <time>2023-05-21T06:59:25.000Z</time>
      </trkpt>
      <trkpt lat="47.82614" lon="7.10393">
        <ele>637</ele>
        <time>2023-05-21T06:59:26.000Z</time>
      </trkpt>
      <trkpt lat="47.82617" lon="7.10394">
        <ele>637</ele>
        <time>2023-05-21T06:59:27.000Z</time>
      </trkpt>
      <trkpt lat="47.82634" lon="7.10396">
        <ele>637</ele>
        <time>2023-05-21T06:59:32.000Z</time>
      </trkpt>
      <trkpt lat="47.82653" lon="7.10401">
        <ele>637</ele>
        <time>2023-05-21T06:59:38.000Z</time>
      </trkpt>
      <trkpt lat="47.82668" lon="7.10397">
        <ele>637.40002441406</ele>
        <time>2023-05-21T06:59:42.000Z</time>
      </trkpt>
      <trkpt lat="47.82672" lon="7.10395">
        <ele>637.79998779297</ele>
        <time>2023-05-21T06:59:43.000Z</time>
      </trkpt>
      <trkpt lat="47.82675" lon="7.10394">
        <ele>638.20001220703</ele>
        <time>2023-05-21T06:59:44.000Z</time>
      </trkpt>
      <trkpt lat="47.82677" lon="7.10393">
        <ele>638.59997558594</ele>
        <time>2023-05-21T06:59:45.000Z</time>
      </trkpt>
      <trkpt lat="47.8268" lon="7.10391">
        <ele>639</ele>
        <time>2023-05-21T06:59:46.000Z</time>
      </trkpt>
      <trkpt lat="47.82686" lon="7.10386">
        <ele>639</ele>
        <time>2023-05-21T06:59:48.000Z</time>
      </trkpt>
      <trkpt lat="47.82695" lon="7.10376">
        <ele>639.40002441406</ele>
        <time>2023-05-21T06:59:52.000Z</time>
      </trkpt>
      <trkpt lat="47.82697" lon="7.10375">
        <ele>639.79998779297</ele>
        <time>2023-05-21T06:59:53.000Z</time>
      </trkpt>
      <trkpt lat="47.82699" lon="7.10373">
        <ele>640.20001220703</ele>
        <time>2023-05-21T06:59:54.000Z</time>
      </trkpt>
      <trkpt lat="47.827" lon="7.10372">
        <ele>640.59997558594</ele>
        <time>2023-05-21T06:59:55.000Z</time>
      </trkpt>
      <trkpt lat="47.82702" lon="7.1037">
        <ele>641</ele>
        <time>2023-05-21T06:59:56.000Z</time>
      </trkpt>
      <trkpt lat="47.82708" lon="7.10366">
        <ele>641.40002441406</ele>
        <time>2023-05-21T07:00:00.000Z</time>
      </trkpt>
      <trkpt lat="47.8271" lon="7.10365">
        <ele>642</ele>
        <time>2023-05-21T07:00:01.000Z</time>
      </trkpt>
      <trkpt lat="47.82712" lon="7.10363">
        <ele>642.40002441406</ele>
        <time>2023-05-21T07:00:02.000Z</time>
      </trkpt>
      <trkpt lat="47.82714" lon="7.10362">
        <ele>642.79998779297</ele>
        <time>2023-05-21T07:00:03.000Z</time>
      </trkpt>
      <trkpt lat="47.82716" lon="7.1036">
        <ele>643.20001220703</ele>
        <time>2023-05-21T07:00:04.000Z</time>
      </trkpt>
      <trkpt lat="47.82719" lon="7.10355">
        <ele>643.20001220703</ele>
        <time>2023-05-21T07:00:06.000Z</time>
      </trkpt>
      <trkpt lat="47.82722" lon="7.10351">
        <ele>643.59997558594</ele>
        <time>2023-05-21T07:00:08.000Z</time>
      </trkpt>
      <trkpt lat="47.82724" lon="7.10348">
        <ele>644</ele>
        <time>2023-05-21T07:00:09.000Z</time>
      </trkpt>
      <trkpt lat="47.82726" lon="7.10346">
        <ele>644.40002441406</ele>
        <time>2023-05-21T07:00:10.000Z</time>
      </trkpt>
      <trkpt lat="47.82728" lon="7.10343">
        <ele>645</ele>
        <time>2023-05-21T07:00:11.000Z</time>
      </trkpt>
      <trkpt lat="47.82731" lon="7.1034">
        <ele>645.40002441406</ele>
        <time>2023-05-21T07:00:12.000Z</time>
      </trkpt>
      <trkpt lat="47.82736" lon="7.10332">
        <ele>645.79998779297</ele>
        <time>2023-05-21T07:00:15.000Z</time>
      </trkpt>
      <trkpt lat="47.82739" lon="7.1033">
        <ele>646.20001220703</ele>
        <time>2023-05-21T07:00:16.000Z</time>
      </trkpt>
      <trkpt lat="47.82742" lon="7.10327">
        <ele>647.20001220703</ele>
        <time>2023-05-21T07:00:17.000Z</time>
      </trkpt>
      <trkpt lat="47.82745" lon="7.10324">
        <ele>647.59997558594</ele>
        <time>2023-05-21T07:00:18.000Z</time>
      </trkpt>
      <trkpt lat="47.8275" lon="7.10319">
        <ele>648.20001220703</ele>
        <time>2023-05-21T07:00:20.000Z</time>
      </trkpt>
      <trkpt lat="47.82753" lon="7.10317">
        <ele>648.59997558594</ele>
        <time>2023-05-21T07:00:21.000Z</time>
      </trkpt>
      <trkpt lat="47.82755" lon="7.10315">
        <ele>649</ele>
        <time>2023-05-21T07:00:22.000Z</time>
      </trkpt>
      <trkpt lat="47.82756" lon="7.10313">
        <ele>649.40002441406</ele>
        <time>2023-05-21T07:00:23.000Z</time>
      </trkpt>
      <trkpt lat="47.82758" lon="7.10311">
        <ele>650</ele>
        <time>2023-05-21T07:00:24.000Z</time>
      </trkpt>
      <trkpt lat="47.82763" lon="7.10309">
        <ele>650.40002441406</ele>
        <time>2023-05-21T07:00:26.000Z</time>
      </trkpt>
      <trkpt lat="47.82765" lon="7.10307">
        <ele>650.79998779297</ele>
        <time>2023-05-21T07:00:27.000Z</time>
      </trkpt>
      <trkpt lat="47.82768" lon="7.10306">
        <ele>651.20001220703</ele>
        <time>2023-05-21T07:00:28.000Z</time>
      </trkpt>
      <trkpt lat="47.8277" lon="7.10305">
        <ele>651.79998779297</ele>
        <time>2023-05-21T07:00:29.000Z</time>
      </trkpt>
      <trkpt lat="47.82772" lon="7.10303">
        <ele>652.20001220703</ele>
        <time>2023-05-21T07:00:30.000Z</time>
      </trkpt>
      <trkpt lat="47.82776" lon="7.10299">
        <ele>652.59997558594</ele>
        <time>2023-05-21T07:00:32.000Z</time>
      </trkpt>
      <trkpt lat="47.82778" lon="7.10298">
        <ele>653.20001220703</ele>
        <time>2023-05-21T07:00:33.000Z</time>
      </trkpt>
      <trkpt lat="47.82781" lon="7.10297">
        <ele>653.59997558594</ele>
        <time>2023-05-21T07:00:34.000Z</time>
      </trkpt>
      <trkpt lat="47.82783" lon="7.10295">
        <ele>654</ele>
        <time>2023-05-21T07:00:35.000Z</time>
      </trkpt>
      <trkpt lat="47.82785" lon="7.10293">
        <ele>654.59997558594</ele>
        <time>2023-05-21T07:00:36.000Z</time>
      </trkpt>
      <trkpt lat="47.8279" lon="7.10291">
        <ele>655</ele>
        <time>2023-05-21T07:00:38.000Z</time>
      </trkpt>
      <trkpt lat="47.82792" lon="7.10289">
        <ele>655.40002441406</ele>
        <time>2023-05-21T07:00:39.000Z</time>
      </trkpt>
      <trkpt lat="47.82794" lon="7.10288">
        <ele>656</ele>
        <time>2023-05-21T07:00:40.000Z</time>
      </trkpt>
      <trkpt lat="47.82797" lon="7.10287">
        <ele>656.40002441406</ele>
        <time>2023-05-21T07:00:41.000Z</time>
      </trkpt>
      <trkpt lat="47.828" lon="7.10286">
        <ele>657.20001220703</ele>
        <time>2023-05-21T07:00:42.000Z</time>
      </trkpt>
      <trkpt lat="47.82802" lon="7.10284">
        <ele>657.59997558594</ele>
        <time>2023-05-21T07:00:43.000Z</time>
      </trkpt>
      <trkpt lat="47.82805" lon="7.10283">
        <ele>658.20001220703</ele>
        <time>2023-05-21T07:00:44.000Z</time>
      </trkpt>
      <trkpt lat="47.82808" lon="7.10281">
        <ele>658.59997558594</ele>
        <time>2023-05-21T07:00:45.000Z</time>
      </trkpt>
      <trkpt lat="47.82811" lon="7.1028">
        <ele>659</ele>
        <time>2023-05-21T07:00:46.000Z</time>
      </trkpt>
      <trkpt lat="47.82814" lon="7.10277">
        <ele>659</ele>
        <time>2023-05-21T07:00:47.000Z</time>
      </trkpt>
      <trkpt lat="47.82817" lon="7.10275">
        <ele>659.40002441406</ele>
        <time>2023-05-21T07:00:48.000Z</time>
      </trkpt>
      <trkpt lat="47.82819" lon="7.10272">
        <ele>659.79998779297</ele>
        <time>2023-05-21T07:00:49.000Z</time>
      </trkpt>
      <trkpt lat="47.82823" lon="7.1027">
        <ele>660.40002441406</ele>
        <time>2023-05-21T07:00:50.000Z</time>
      </trkpt>
      <trkpt lat="47.82825" lon="7.10268">
        <ele>660.79998779297</ele>
        <time>2023-05-21T07:00:51.000Z</time>
      </trkpt>
      <trkpt lat="47.82827" lon="7.10265">
        <ele>661.20001220703</ele>
        <time>2023-05-21T07:00:52.000Z</time>
      </trkpt>
      <trkpt lat="47.82829" lon="7.10263">
        <ele>661.20001220703</ele>
        <time>2023-05-21T07:00:53.000Z</time>
      </trkpt>
      <trkpt lat="47.82832" lon="7.10262">
        <ele>661.79998779297</ele>
        <time>2023-05-21T07:00:54.000Z</time>
      </trkpt>
      <trkpt lat="47.82834" lon="7.1026">
        <ele>662.20001220703</ele>
        <time>2023-05-21T07:00:55.000Z</time>
      </trkpt>
      <trkpt lat="47.82836" lon="7.10258">
        <ele>662.79998779297</ele>
        <time>2023-05-21T07:00:56.000Z</time>
      </trkpt>
      <trkpt lat="47.82839" lon="7.10256">
        <ele>663.20001220703</ele>
        <time>2023-05-21T07:00:57.000Z</time>
      </trkpt>
      <trkpt lat="47.82841" lon="7.10254">
        <ele>663.59997558594</ele>
        <time>2023-05-21T07:00:58.000Z</time>
      </trkpt>
      <trkpt lat="47.82846" lon="7.1025">
        <ele>664.20001220703</ele>
        <time>2023-05-21T07:01:00.000Z</time>
      </trkpt>
      <trkpt lat="47.82848" lon="7.10248">
        <ele>664.59997558594</ele>
        <time>2023-05-21T07:01:01.000Z</time>
      </trkpt>
      <trkpt lat="47.82851" lon="7.10247">
        <ele>665</ele>
        <time>2023-05-21T07:01:02.000Z</time>
      </trkpt>
      <trkpt lat="47.82853" lon="7.10245">
        <ele>665.59997558594</ele>
        <time>2023-05-21T07:01:03.000Z</time>
      </trkpt>
      <trkpt lat="47.82855" lon="7.10243">
        <ele>666</ele>
        <time>2023-05-21T07:01:04.000Z</time>
      </trkpt>
      <trkpt lat="47.82857" lon="7.10242">
        <ele>666.40002441406</ele>
        <time>2023-05-21T07:01:05.000Z</time>
      </trkpt>
      <trkpt lat="47.82859" lon="7.1024">
        <ele>667.20001220703</ele>
        <time>2023-05-21T07:01:06.000Z</time>
      </trkpt>
      <trkpt lat="47.8286" lon="7.10238">
        <ele>667.59997558594</ele>
        <time>2023-05-21T07:01:07.000Z</time>
      </trkpt>
      <trkpt lat="47.82862" lon="7.10237">
        <ele>668</ele>
        <time>2023-05-21T07:01:08.000Z</time>
      </trkpt>
      <trkpt lat="47.82865" lon="7.10234">
        <ele>668.40002441406</ele>
        <time>2023-05-21T07:01:10.000Z</time>
      </trkpt>
      <trkpt lat="47.82868" lon="7.10232">
        <ele>668.79998779297</ele>
        <time>2023-05-21T07:01:11.000Z</time>
      </trkpt>
      <trkpt lat="47.8287" lon="7.10231">
        <ele>669.20001220703</ele>
        <time>2023-05-21T07:01:12.000Z</time>
      </trkpt>
      <trkpt lat="47.82873" lon="7.10231">
        <ele>669.79998779297</ele>
        <time>2023-05-21T07:01:13.000Z</time>
      </trkpt>
      <trkpt lat="47.82875" lon="7.10232">
        <ele>670.20001220703</ele>
        <time>2023-05-21T07:01:14.000Z</time>
      </trkpt>
      <trkpt lat="47.82881" lon="7.10232">
        <ele>670.59997558594</ele>
        <time>2023-05-21T07:01:17.000Z</time>
      </trkpt>
      <trkpt lat="47.82883" lon="7.10233">
        <ele>671</ele>
        <time>2023-05-21T07:01:18.000Z</time>
      </trkpt>
      <trkpt lat="47.82886" lon="7.10234">
        <ele>671.59997558594</ele>
        <time>2023-05-21T07:01:19.000Z</time>
      </trkpt>
      <trkpt lat="47.82888" lon="7.10234">
        <ele>672</ele>
        <time>2023-05-21T07:01:20.000Z</time>
      </trkpt>
      <trkpt lat="47.8289" lon="7.10236">
        <ele>672.40002441406</ele>
        <time>2023-05-21T07:01:21.000Z</time>
      </trkpt>
      <trkpt lat="47.82899" lon="7.10237">
        <ele>673</ele>
        <time>2023-05-21T07:01:25.000Z</time>
      </trkpt>
      <trkpt lat="47.82901" lon="7.10236">
        <ele>673.40002441406</ele>
        <time>2023-05-21T07:01:26.000Z</time>
      </trkpt>
      <trkpt lat="47.82903" lon="7.10235">
        <ele>674</ele>
        <time>2023-05-21T07:01:27.000Z</time>
      </trkpt>
      <trkpt lat="47.82906" lon="7.10235">
        <ele>674.40002441406</ele>
        <time>2023-05-21T07:01:28.000Z</time>
      </trkpt>
      <trkpt lat="47.82909" lon="7.10235">
        <ele>674.79998779297</ele>
        <time>2023-05-21T07:01:29.000Z</time>
      </trkpt>
      <trkpt lat="47.82911" lon="7.10235">
        <ele>674.79998779297</ele>
        <time>2023-05-21T07:01:30.000Z</time>
      </trkpt>
      <trkpt lat="47.82915" lon="7.10235">
        <ele>675.20001220703</ele>
        <time>2023-05-21T07:01:32.000Z</time>
      </trkpt>
      <trkpt lat="47.82917" lon="7.10235">
        <ele>675.59997558594</ele>
        <time>2023-05-21T07:01:33.000Z</time>
      </trkpt>
      <trkpt lat="47.82919" lon="7.10234">
        <ele>676.20001220703</ele>
        <time>2023-05-21T07:01:34.000Z</time>
      </trkpt>
      <trkpt lat="47.82921" lon="7.10235">
        <ele>676.59997558594</ele>
        <time>2023-05-21T07:01:35.000Z</time>
      </trkpt>
      <trkpt lat="47.82923" lon="7.10235">
        <ele>677</ele>
        <time>2023-05-21T07:01:36.000Z</time>
      </trkpt>
      <trkpt lat="47.82932" lon="7.10236">
        <ele>677.40002441406</ele>
        <time>2023-05-21T07:01:39.000Z</time>
      </trkpt>
      <trkpt lat="47.82936" lon="7.10236">
        <ele>677.79998779297</ele>
        <time>2023-05-21T07:01:40.000Z</time>
      </trkpt>
      <trkpt lat="47.82939" lon="7.10235">
        <ele>678.40002441406</ele>
        <time>2023-05-21T07:01:41.000Z</time>
      </trkpt>
      <trkpt lat="47.82942" lon="7.10235">
        <ele>678.79998779297</ele>
        <time>2023-05-21T07:01:42.000Z</time>
      </trkpt>
      <trkpt lat="47.82945" lon="7.10235">
        <ele>679.20001220703</ele>
        <time>2023-05-21T07:01:43.000Z</time>
      </trkpt>
      <trkpt lat="47.82954" lon="7.10236">
        <ele>679.59997558594</ele>
        <time>2023-05-21T07:01:46.000Z</time>
      </trkpt>
      <trkpt lat="47.82957" lon="7.10236">
        <ele>680</ele>
        <time>2023-05-21T07:01:47.000Z</time>
      </trkpt>
      <trkpt lat="47.82959" lon="7.10236">
        <ele>680.40002441406</ele>
        <time>2023-05-21T07:01:48.000Z</time>
      </trkpt>
      <trkpt lat="47.82962" lon="7.10236">
        <ele>681</ele>
        <time>2023-05-21T07:01:49.000Z</time>
      </trkpt>
      <trkpt lat="47.82965" lon="7.10237">
        <ele>681.40002441406</ele>
        <time>2023-05-21T07:01:50.000Z</time>
      </trkpt>
      <trkpt lat="47.82972" lon="7.10238">
        <ele>681.40002441406</ele>
        <time>2023-05-21T07:01:53.000Z</time>
      </trkpt>
      <trkpt lat="47.82974" lon="7.10238">
        <ele>681.79998779297</ele>
        <time>2023-05-21T07:01:54.000Z</time>
      </trkpt>
      <trkpt lat="47.82975" lon="7.10238">
        <ele>682.20001220703</ele>
        <time>2023-05-21T07:01:55.000Z</time>
      </trkpt>
      <trkpt lat="47.82977" lon="7.10239">
        <ele>683.20001220703</ele>
        <time>2023-05-21T07:01:56.000Z</time>
      </trkpt>
      <trkpt lat="47.82979" lon="7.1024">
        <ele>683.59997558594</ele>
        <time>2023-05-21T07:01:57.000Z</time>
      </trkpt>
      <trkpt lat="47.82988" lon="7.10242">
        <ele>684</ele>
        <time>2023-05-21T07:02:01.000Z</time>
      </trkpt>
      <trkpt lat="47.8299" lon="7.10242">
        <ele>684.40002441406</ele>
        <time>2023-05-21T07:02:02.000Z</time>
      </trkpt>
      <trkpt lat="47.82992" lon="7.10244">
        <ele>684.79998779297</ele>
        <time>2023-05-21T07:02:03.000Z</time>
      </trkpt>
      <trkpt lat="47.82994" lon="7.10247">
        <ele>685.20001220703</ele>
        <time>2023-05-21T07:02:04.000Z</time>
      </trkpt>
      <trkpt lat="47.82996" lon="7.1025">
        <ele>685.59997558594</ele>
        <time>2023-05-21T07:02:05.000Z</time>
      </trkpt>
      <trkpt lat="47.82999" lon="7.10254">
        <ele>685.59997558594</ele>
        <time>2023-05-21T07:02:06.000Z</time>
      </trkpt>
      <trkpt lat="47.83003" lon="7.10262">
        <ele>686</ele>
        <time>2023-05-21T07:02:08.000Z</time>
      </trkpt>
      <trkpt lat="47.83004" lon="7.10266">
        <ele>686.40002441406</ele>
        <time>2023-05-21T07:02:09.000Z</time>
      </trkpt>
      <trkpt lat="47.83005" lon="7.10269">
        <ele>686.79998779297</ele>
        <time>2023-05-21T07:02:10.000Z</time>
      </trkpt>
      <trkpt lat="47.83005" lon="7.10273">
        <ele>687.20001220703</ele>
        <time>2023-05-21T07:02:11.000Z</time>
      </trkpt>
      <trkpt lat="47.83005" lon="7.10276">
        <ele>687.79998779297</ele>
        <time>2023-05-21T07:02:12.000Z</time>
      </trkpt>
      <trkpt lat="47.83006" lon="7.10288">
        <ele>688.20001220703</ele>
        <time>2023-05-21T07:02:15.000Z</time>
      </trkpt>
      <trkpt lat="47.83006" lon="7.10292">
        <ele>688.59997558594</ele>
        <time>2023-05-21T07:02:16.000Z</time>
      </trkpt>
      <trkpt lat="47.83007" lon="7.10297">
        <ele>689</ele>
        <time>2023-05-21T07:02:17.000Z</time>
      </trkpt>
      <trkpt lat="47.83007" lon="7.10301">
        <ele>689.40002441406</ele>
        <time>2023-05-21T07:02:18.000Z</time>
      </trkpt>
      <trkpt lat="47.83008" lon="7.10305">
        <ele>689.79998779297</ele>
        <time>2023-05-21T07:02:19.000Z</time>
      </trkpt>
      <trkpt lat="47.83008" lon="7.10313">
        <ele>690.20001220703</ele>
        <time>2023-05-21T07:02:21.000Z</time>
      </trkpt>
      <trkpt lat="47.83008" lon="7.10317">
        <ele>690.59997558594</ele>
        <time>2023-05-21T07:02:22.000Z</time>
      </trkpt>
      <trkpt lat="47.83009" lon="7.10321">
        <ele>691</ele>
        <time>2023-05-21T07:02:23.000Z</time>
      </trkpt>
      <trkpt lat="47.83009" lon="7.10325">
        <ele>691.40002441406</ele>
        <time>2023-05-21T07:02:24.000Z</time>
      </trkpt>
      <trkpt lat="47.8301" lon="7.10329">
        <ele>691.79998779297</ele>
        <time>2023-05-21T07:02:25.000Z</time>
      </trkpt>
      <trkpt lat="47.8301" lon="7.10344">
        <ele>692.20001220703</ele>
        <time>2023-05-21T07:02:29.000Z</time>
      </trkpt>
      <trkpt lat="47.8301" lon="7.10348">
        <ele>692.79998779297</ele>
        <time>2023-05-21T07:02:30.000Z</time>
      </trkpt>
      <trkpt lat="47.83009" lon="7.10351">
        <ele>693.20001220703</ele>
        <time>2023-05-21T07:02:31.000Z</time>
      </trkpt>
      <trkpt lat="47.83009" lon="7.10355">
        <ele>693.59997558594</ele>
        <time>2023-05-21T07:02:32.000Z</time>
      </trkpt>
      <trkpt lat="47.83009" lon="7.10359">
        <ele>694</ele>
        <time>2023-05-21T07:02:33.000Z</time>
      </trkpt>
      <trkpt lat="47.83009" lon="7.10368">
        <ele>694</ele>
        <time>2023-05-21T07:02:35.000Z</time>
      </trkpt>
      <trkpt lat="47.83011" lon="7.10377">
        <ele>694.40002441406</ele>
        <time>2023-05-21T07:02:37.000Z</time>
      </trkpt>
      <trkpt lat="47.83012" lon="7.10381">
        <ele>695</ele>
        <time>2023-05-21T07:02:38.000Z</time>
      </trkpt>
      <trkpt lat="47.83012" lon="7.10386">
        <ele>695.40002441406</ele>
        <time>2023-05-21T07:02:39.000Z</time>
      </trkpt>
      <trkpt lat="47.83012" lon="7.10389">
        <ele>695.79998779297</ele>
        <time>2023-05-21T07:02:40.000Z</time>
      </trkpt>
      <trkpt lat="47.83013" lon="7.10393">
        <ele>696.20001220703</ele>
        <time>2023-05-21T07:02:41.000Z</time>
      </trkpt>
      <trkpt lat="47.83014" lon="7.10405">
        <ele>696.59997558594</ele>
        <time>2023-05-21T07:02:44.000Z</time>
      </trkpt>
      <trkpt lat="47.83014" lon="7.10409">
        <ele>697.40002441406</ele>
        <time>2023-05-21T07:02:45.000Z</time>
      </trkpt>
      <trkpt lat="47.83015" lon="7.10413">
        <ele>697.79998779297</ele>
        <time>2023-05-21T07:02:46.000Z</time>
      </trkpt>
      <trkpt lat="47.83016" lon="7.10417">
        <ele>698.20001220703</ele>
        <time>2023-05-21T07:02:47.000Z</time>
      </trkpt>
      <trkpt lat="47.83017" lon="7.10429">
        <ele>698.59997558594</ele>
        <time>2023-05-21T07:02:50.000Z</time>
      </trkpt>
      <trkpt lat="47.83018" lon="7.10433">
        <ele>699.20001220703</ele>
        <time>2023-05-21T07:02:51.000Z</time>
      </trkpt>
      <trkpt lat="47.83019" lon="7.10437">
        <ele>699.59997558594</ele>
        <time>2023-05-21T07:02:52.000Z</time>
      </trkpt>
      <trkpt lat="47.83019" lon="7.10441">
        <ele>700</ele>
        <time>2023-05-21T07:02:53.000Z</time>
      </trkpt>
      <trkpt lat="47.8302" lon="7.10445">
        <ele>700.40002441406</ele>
        <time>2023-05-21T07:02:54.000Z</time>
      </trkpt>
      <trkpt lat="47.83021" lon="7.10452">
        <ele>700.40002441406</ele>
        <time>2023-05-21T07:02:56.000Z</time>
      </trkpt>
      <trkpt lat="47.83022" lon="7.10456">
        <ele>700.79998779297</ele>
        <time>2023-05-21T07:02:57.000Z</time>
      </trkpt>
      <trkpt lat="47.83023" lon="7.1046">
        <ele>701.20001220703</ele>
        <time>2023-05-21T07:02:58.000Z</time>
      </trkpt>
      <trkpt lat="47.83023" lon="7.10464">
        <ele>701.59997558594</ele>
        <time>2023-05-21T07:02:59.000Z</time>
      </trkpt>
      <trkpt lat="47.83024" lon="7.10468">
        <ele>702.20001220703</ele>
        <time>2023-05-21T07:03:00.000Z</time>
      </trkpt>
      <trkpt lat="47.83025" lon="7.10471">
        <ele>702.59997558594</ele>
        <time>2023-05-21T07:03:01.000Z</time>
      </trkpt>
      <trkpt lat="47.83027" lon="7.10479">
        <ele>702.59997558594</ele>
        <time>2023-05-21T07:03:03.000Z</time>
      </trkpt>
      <trkpt lat="47.83029" lon="7.10485">
        <ele>703</ele>
        <time>2023-05-21T07:03:05.000Z</time>
      </trkpt>
      <trkpt lat="47.83029" lon="7.10489">
        <ele>703.40002441406</ele>
        <time>2023-05-21T07:03:06.000Z</time>
      </trkpt>
      <trkpt lat="47.8303" lon="7.10493">
        <ele>703.79998779297</ele>
        <time>2023-05-21T07:03:07.000Z</time>
      </trkpt>
      <trkpt lat="47.83031" lon="7.10495">
        <ele>704.20001220703</ele>
        <time>2023-05-21T07:03:08.000Z</time>
      </trkpt>
      <trkpt lat="47.83034" lon="7.10497">
        <ele>704.59997558594</ele>
        <time>2023-05-21T07:03:09.000Z</time>
      </trkpt>
      <trkpt lat="47.83036" lon="7.10498">
        <ele>704.59997558594</ele>
        <time>2023-05-21T07:03:10.000Z</time>
      </trkpt>
      <trkpt lat="47.83042" lon="7.10497">
        <ele>704.59997558594</ele>
        <time>2023-05-21T07:03:12.000Z</time>
      </trkpt>
      <trkpt lat="47.83063" lon="7.10491">
        <ele>704.59997558594</ele>
        <time>2023-05-21T07:03:19.000Z</time>
      </trkpt>
      <trkpt lat="47.83075" lon="7.10486">
        <ele>705</ele>
        <time>2023-05-21T07:03:23.000Z</time>
      </trkpt>
      <trkpt lat="47.83078" lon="7.10485">
        <ele>705.59997558594</ele>
        <time>2023-05-21T07:03:24.000Z</time>
      </trkpt>
      <trkpt lat="47.83081" lon="7.10484">
        <ele>706</ele>
        <time>2023-05-21T07:03:25.000Z</time>
      </trkpt>
      <trkpt lat="47.83084" lon="7.10482">
        <ele>706.40002441406</ele>
        <time>2023-05-21T07:03:26.000Z</time>
      </trkpt>
      <trkpt lat="47.83086" lon="7.1048">
        <ele>706.79998779297</ele>
        <time>2023-05-21T07:03:27.000Z</time>
      </trkpt>
      <trkpt lat="47.83101" lon="7.10469">
        <ele>706.79998779297</ele>
        <time>2023-05-21T07:03:33.000Z</time>
      </trkpt>
      <trkpt lat="47.83104" lon="7.10467">
        <ele>707.20001220703</ele>
        <time>2023-05-21T07:03:34.000Z</time>
      </trkpt>
      <trkpt lat="47.83107" lon="7.10466">
        <ele>707.59997558594</ele>
        <time>2023-05-21T07:03:35.000Z</time>
      </trkpt>
      <trkpt lat="47.83109" lon="7.10465">
        <ele>708</ele>
        <time>2023-05-21T07:03:36.000Z</time>
      </trkpt>
      <trkpt lat="47.83111" lon="7.10464">
        <ele>708.40002441406</ele>
        <time>2023-05-21T07:03:37.000Z</time>
      </trkpt>
      <trkpt lat="47.83114" lon="7.10463">
        <ele>708.79998779297</ele>
        <time>2023-05-21T07:03:38.000Z</time>
      </trkpt>
      <trkpt lat="47.83123" lon="7.10456">
        <ele>708.79998779297</ele>
        <time>2023-05-21T07:03:42.000Z</time>
      </trkpt>
      <trkpt lat="47.83132" lon="7.10454">
        <ele>709.20001220703</ele>
        <time>2023-05-21T07:03:45.000Z</time>
      </trkpt>
      <trkpt lat="47.83134" lon="7.10454">
        <ele>709.59997558594</ele>
        <time>2023-05-21T07:03:46.000Z</time>
      </trkpt>
      <trkpt lat="47.83137" lon="7.10453">
        <ele>710</ele>
        <time>2023-05-21T07:03:47.000Z</time>
      </trkpt>
      <trkpt lat="47.8314" lon="7.10453">
        <ele>710.40002441406</ele>
        <time>2023-05-21T07:03:48.000Z</time>
      </trkpt>
      <trkpt lat="47.83143" lon="7.10453">
        <ele>710.79998779297</ele>
        <time>2023-05-21T07:03:49.000Z</time>
      </trkpt>
      <trkpt lat="47.83151" lon="7.10456">
        <ele>710.79998779297</ele>
        <time>2023-05-21T07:03:52.000Z</time>
      </trkpt>
      <trkpt lat="47.83157" lon="7.1046">
        <ele>710.79998779297</ele>
        <time>2023-05-21T07:03:54.000Z</time>
      </trkpt>
      <trkpt lat="47.83169" lon="7.1047">
        <ele>711.20001220703</ele>
        <time>2023-05-21T07:03:58.000Z</time>
      </trkpt>
      <trkpt lat="47.83171" lon="7.10473">
        <ele>712.20001220703</ele>
        <time>2023-05-21T07:03:59.000Z</time>
      </trkpt>
      <trkpt lat="47.83173" lon="7.10476">
        <ele>712.59997558594</ele>
        <time>2023-05-21T07:04:00.000Z</time>
      </trkpt>
      <trkpt lat="47.83175" lon="7.10479">
        <ele>713</ele>
        <time>2023-05-21T07:04:01.000Z</time>
      </trkpt>
      <trkpt lat="47.83185" lon="7.10491">
        <ele>713.40002441406</ele>
        <time>2023-05-21T07:04:05.000Z</time>
      </trkpt>
      <trkpt lat="47.83187" lon="7.10494">
        <ele>713.79998779297</ele>
        <time>2023-05-21T07:04:06.000Z</time>
      </trkpt>
      <trkpt lat="47.8319" lon="7.10498">
        <ele>714.20001220703</ele>
        <time>2023-05-21T07:04:07.000Z</time>
      </trkpt>
      <trkpt lat="47.83193" lon="7.10501">
        <ele>714.59997558594</ele>
        <time>2023-05-21T07:04:08.000Z</time>
      </trkpt>
      <trkpt lat="47.83195" lon="7.10504">
        <ele>715</ele>
        <time>2023-05-21T07:04:09.000Z</time>
      </trkpt>
      <trkpt lat="47.83202" lon="7.10511">
        <ele>715</ele>
        <time>2023-05-21T07:04:12.000Z</time>
      </trkpt>
      <trkpt lat="47.83208" lon="7.10515">
        <ele>715.40002441406</ele>
        <time>2023-05-21T07:04:14.000Z</time>
      </trkpt>
      <trkpt lat="47.83211" lon="7.10517">
        <ele>715.79998779297</ele>
        <time>2023-05-21T07:04:15.000Z</time>
      </trkpt>
      <trkpt lat="47.83214" lon="7.10519">
        <ele>716.20001220703</ele>
        <time>2023-05-21T07:04:16.000Z</time>
      </trkpt>
      <trkpt lat="47.83217" lon="7.10519">
        <ele>716.59997558594</ele>
        <time>2023-05-21T07:04:17.000Z</time>
      </trkpt>
      <trkpt lat="47.8322" lon="7.1052">
        <ele>717</ele>
        <time>2023-05-21T07:04:18.000Z</time>
      </trkpt>
      <trkpt lat="47.83233" lon="7.10512">
        <ele>717</ele>
        <time>2023-05-21T07:04:23.000Z</time>
      </trkpt>
      <trkpt lat="47.83236" lon="7.1051">
        <ele>717.40002441406</ele>
        <time>2023-05-21T07:04:24.000Z</time>
      </trkpt>
      <trkpt lat="47.83238" lon="7.10507">
        <ele>717.79998779297</ele>
        <time>2023-05-21T07:04:25.000Z</time>
      </trkpt>
      <trkpt lat="47.83241" lon="7.10505">
        <ele>718.20001220703</ele>
        <time>2023-05-21T07:04:26.000Z</time>
      </trkpt>
      <trkpt lat="47.83244" lon="7.10502">
        <ele>718.59997558594</ele>
        <time>2023-05-21T07:04:27.000Z</time>
      </trkpt>
      <trkpt lat="47.83247" lon="7.105">
        <ele>719</ele>
        <time>2023-05-21T07:04:28.000Z</time>
      </trkpt>
      <trkpt lat="47.83252" lon="7.10494">
        <ele>719</ele>
        <time>2023-05-21T07:04:30.000Z</time>
      </trkpt>
      <trkpt lat="47.8327" lon="7.10478">
        <ele>719</ele>
        <time>2023-05-21T07:04:36.000Z</time>
      </trkpt>
      <trkpt lat="47.83282" lon="7.10473">
        <ele>719.40002441406</ele>
        <time>2023-05-21T07:04:40.000Z</time>
      </trkpt>
      <trkpt lat="47.83285" lon="7.10474">
        <ele>719.79998779297</ele>
        <time>2023-05-21T07:04:41.000Z</time>
      </trkpt>
      <trkpt lat="47.83287" lon="7.10474">
        <ele>720.40002441406</ele>
        <time>2023-05-21T07:04:42.000Z</time>
      </trkpt>
      <trkpt lat="47.83289" lon="7.10475">
        <ele>720.79998779297</ele>
        <time>2023-05-21T07:04:43.000Z</time>
      </trkpt>
      <trkpt lat="47.83292" lon="7.10478">
        <ele>721.20001220703</ele>
        <time>2023-05-21T07:04:44.000Z</time>
      </trkpt>
      <trkpt lat="47.83297" lon="7.10485">
        <ele>721.20001220703</ele>
        <time>2023-05-21T07:04:46.000Z</time>
      </trkpt>
      <trkpt lat="47.83301" lon="7.10494">
        <ele>721.59997558594</ele>
        <time>2023-05-21T07:04:48.000Z</time>
      </trkpt>
      <trkpt lat="47.83302" lon="7.10499">
        <ele>722</ele>
        <time>2023-05-21T07:04:49.000Z</time>
      </trkpt>
      <trkpt lat="47.83305" lon="7.10504">
        <ele>722.40002441406</ele>
        <time>2023-05-21T07:04:50.000Z</time>
      </trkpt>
      <trkpt lat="47.83306" lon="7.10509">
        <ele>722.79998779297</ele>
        <time>2023-05-21T07:04:51.000Z</time>
      </trkpt>
      <trkpt lat="47.83308" lon="7.10513">
        <ele>723.20001220703</ele>
        <time>2023-05-21T07:04:52.000Z</time>
      </trkpt>
      <trkpt lat="47.8332" lon="7.10525">
        <ele>723.20001220703</ele>
        <time>2023-05-21T07:04:57.000Z</time>
      </trkpt>
      <trkpt lat="47.83328" lon="7.10533">
        <ele>723.59997558594</ele>
        <time>2023-05-21T07:05:00.000Z</time>
      </trkpt>
      <trkpt lat="47.83331" lon="7.10536">
        <ele>724</ele>
        <time>2023-05-21T07:05:01.000Z</time>
      </trkpt>
      <trkpt lat="47.83334" lon="7.10539">
        <ele>724.40002441406</ele>
        <time>2023-05-21T07:05:02.000Z</time>
      </trkpt>
      <trkpt lat="47.83336" lon="7.10543">
        <ele>724.79998779297</ele>
        <time>2023-05-21T07:05:03.000Z</time>
      </trkpt>
      <trkpt lat="47.83338" lon="7.10547">
        <ele>725.20001220703</ele>
        <time>2023-05-21T07:05:04.000Z</time>
      </trkpt>
      <trkpt lat="47.83351" lon="7.10568">
        <ele>725.20001220703</ele>
        <time>2023-05-21T07:05:10.000Z</time>
      </trkpt>
      <trkpt lat="47.83356" lon="7.10574">
        <ele>725.79998779297</ele>
        <time>2023-05-21T07:05:12.000Z</time>
      </trkpt>
      <trkpt lat="47.83359" lon="7.10576">
        <ele>726.59997558594</ele>
        <time>2023-05-21T07:05:13.000Z</time>
      </trkpt>
      <trkpt lat="47.83361" lon="7.10577">
        <ele>727</ele>
        <time>2023-05-21T07:05:14.000Z</time>
      </trkpt>
      <trkpt lat="47.83364" lon="7.10577">
        <ele>727.40002441406</ele>
        <time>2023-05-21T07:05:15.000Z</time>
      </trkpt>
      <trkpt lat="47.83367" lon="7.10578">
        <ele>727.40002441406</ele>
        <time>2023-05-21T07:05:16.000Z</time>
      </trkpt>
      <trkpt lat="47.8338" lon="7.10576">
        <ele>727.79998779297</ele>
        <time>2023-05-21T07:05:21.000Z</time>
      </trkpt>
      <trkpt lat="47.83383" lon="7.10575">
        <ele>728.20001220703</ele>
        <time>2023-05-21T07:05:22.000Z</time>
      </trkpt>
      <trkpt lat="47.83386" lon="7.10574">
        <ele>728.59997558594</ele>
        <time>2023-05-21T07:05:23.000Z</time>
      </trkpt>
      <trkpt lat="47.83389" lon="7.10574">
        <ele>729</ele>
        <time>2023-05-21T07:05:24.000Z</time>
      </trkpt>
      <trkpt lat="47.83392" lon="7.10573">
        <ele>729.40002441406</ele>
        <time>2023-05-21T07:05:25.000Z</time>
      </trkpt>
      <trkpt lat="47.83406" lon="7.10569">
        <ele>729.40002441406</ele>
        <time>2023-05-21T07:05:30.000Z</time>
      </trkpt>
      <trkpt lat="47.83426" lon="7.10568">
        <ele>729.40002441406</ele>
        <time>2023-05-21T07:05:36.000Z</time>
      </trkpt>
      <trkpt lat="47.83446" lon="7.10573">
        <ele>729.40002441406</ele>
        <time>2023-05-21T07:05:42.000Z</time>
      </trkpt>
      <trkpt lat="47.83464" lon="7.10583">
        <ele>729.79998779297</ele>
        <time>2023-05-21T07:05:48.000Z</time>
      </trkpt>
      <trkpt lat="47.83467" lon="7.10585">
        <ele>730.40002441406</ele>
        <time>2023-05-21T07:05:49.000Z</time>
      </trkpt>
      <trkpt lat="47.83469" lon="7.10587">
        <ele>730.79998779297</ele>
        <time>2023-05-21T07:05:50.000Z</time>
      </trkpt>
      <trkpt lat="47.83472" lon="7.10589">
        <ele>731.20001220703</ele>
        <time>2023-05-21T07:05:51.000Z</time>
      </trkpt>
      <trkpt lat="47.83474" lon="7.1059">
        <ele>731.59997558594</ele>
        <time>2023-05-21T07:05:52.000Z</time>
      </trkpt>
      <trkpt lat="47.8348" lon="7.10596">
        <ele>731.59997558594</ele>
        <time>2023-05-21T07:05:54.000Z</time>
      </trkpt>
      <trkpt lat="47.8349" lon="7.10606">
        <ele>732</ele>
        <time>2023-05-21T07:05:58.000Z</time>
      </trkpt>
      <trkpt lat="47.83492" lon="7.10608">
        <ele>732.40002441406</ele>
        <time>2023-05-21T07:05:59.000Z</time>
      </trkpt>
      <trkpt lat="47.83494" lon="7.1061">
        <ele>732.79998779297</ele>
        <time>2023-05-21T07:06:00.000Z</time>
      </trkpt>
      <trkpt lat="47.83495" lon="7.10612">
        <ele>733.20001220703</ele>
        <time>2023-05-21T07:06:01.000Z</time>
      </trkpt>
      <trkpt lat="47.83496" lon="7.10616">
        <ele>733.59997558594</ele>
        <time>2023-05-21T07:06:02.000Z</time>
      </trkpt>
      <trkpt lat="47.83498" lon="7.1062">
        <ele>734</ele>
        <time>2023-05-21T07:06:03.000Z</time>
      </trkpt>
      <trkpt lat="47.83498" lon="7.10624">
        <ele>734.40002441406</ele>
        <time>2023-05-21T07:06:04.000Z</time>
      </trkpt>
      <trkpt lat="47.83499" lon="7.10628">
        <ele>735</ele>
        <time>2023-05-21T07:06:05.000Z</time>
      </trkpt>
      <trkpt lat="47.835" lon="7.10632">
        <ele>735.40002441406</ele>
        <time>2023-05-21T07:06:06.000Z</time>
      </trkpt>
      <trkpt lat="47.83502" lon="7.10636">
        <ele>735.79998779297</ele>
        <time>2023-05-21T07:06:07.000Z</time>
      </trkpt>
      <trkpt lat="47.83502" lon="7.10639">
        <ele>736.20001220703</ele>
        <time>2023-05-21T07:06:08.000Z</time>
      </trkpt>
      <trkpt lat="47.83503" lon="7.10643">
        <ele>736.59997558594</ele>
        <time>2023-05-21T07:06:09.000Z</time>
      </trkpt>
      <trkpt lat="47.83504" lon="7.10647">
        <ele>737</ele>
        <time>2023-05-21T07:06:10.000Z</time>
      </trkpt>
      <trkpt lat="47.83506" lon="7.10651">
        <ele>737.59997558594</ele>
        <time>2023-05-21T07:06:11.000Z</time>
      </trkpt>
      <trkpt lat="47.83507" lon="7.10655">
        <ele>738</ele>
        <time>2023-05-21T07:06:12.000Z</time>
      </trkpt>
      <trkpt lat="47.83508" lon="7.10658">
        <ele>738.40002441406</ele>
        <time>2023-05-21T07:06:13.000Z</time>
      </trkpt>
      <trkpt lat="47.83509" lon="7.1066">
        <ele>739</ele>
        <time>2023-05-21T07:06:14.000Z</time>
      </trkpt>
      <trkpt lat="47.8351" lon="7.10663">
        <ele>739.40002441406</ele>
        <time>2023-05-21T07:06:15.000Z</time>
      </trkpt>
      <trkpt lat="47.83511" lon="7.10666">
        <ele>739.79998779297</ele>
        <time>2023-05-21T07:06:16.000Z</time>
      </trkpt>
      <trkpt lat="47.83512" lon="7.1067">
        <ele>740.40002441406</ele>
        <time>2023-05-21T07:06:17.000Z</time>
      </trkpt>
      <trkpt lat="47.83514" lon="7.10677">
        <ele>740.79998779297</ele>
        <time>2023-05-21T07:06:19.000Z</time>
      </trkpt>
      <trkpt lat="47.83515" lon="7.10681">
        <ele>741.20001220703</ele>
        <time>2023-05-21T07:06:20.000Z</time>
      </trkpt>
      <trkpt lat="47.83516" lon="7.10685">
        <ele>741.79998779297</ele>
        <time>2023-05-21T07:06:21.000Z</time>
      </trkpt>
      <trkpt lat="47.83517" lon="7.10689">
        <ele>742.20001220703</ele>
        <time>2023-05-21T07:06:22.000Z</time>
      </trkpt>
      <trkpt lat="47.83518" lon="7.10693">
        <ele>742.59997558594</ele>
        <time>2023-05-21T07:06:23.000Z</time>
      </trkpt>
      <trkpt lat="47.83518" lon="7.10697">
        <ele>743</ele>
        <time>2023-05-21T07:06:24.000Z</time>
      </trkpt>
      <trkpt lat="47.83519" lon="7.10701">
        <ele>743.40002441406</ele>
        <time>2023-05-21T07:06:25.000Z</time>
      </trkpt>
      <trkpt lat="47.83519" lon="7.10705">
        <ele>744</ele>
        <time>2023-05-21T07:06:26.000Z</time>
      </trkpt>
      <trkpt lat="47.8352" lon="7.10708">
        <ele>744.79998779297</ele>
        <time>2023-05-21T07:06:27.000Z</time>
      </trkpt>
      <trkpt lat="47.83521" lon="7.10715">
        <ele>745.20001220703</ele>
        <time>2023-05-21T07:06:29.000Z</time>
      </trkpt>
      <trkpt lat="47.83521" lon="7.10719">
        <ele>745.59997558594</ele>
        <time>2023-05-21T07:06:30.000Z</time>
      </trkpt>
      <trkpt lat="47.83522" lon="7.10722">
        <ele>746</ele>
        <time>2023-05-21T07:06:31.000Z</time>
      </trkpt>
      <trkpt lat="47.83523" lon="7.10726">
        <ele>746.59997558594</ele>
        <time>2023-05-21T07:06:32.000Z</time>
      </trkpt>
      <trkpt lat="47.83524" lon="7.1073">
        <ele>747</ele>
        <time>2023-05-21T07:06:33.000Z</time>
      </trkpt>
      <trkpt lat="47.83526" lon="7.10741">
        <ele>747.40002441406</ele>
        <time>2023-05-21T07:06:36.000Z</time>
      </trkpt>
      <trkpt lat="47.83528" lon="7.10745">
        <ele>747.79998779297</ele>
        <time>2023-05-21T07:06:37.000Z</time>
      </trkpt>
      <trkpt lat="47.83529" lon="7.10748">
        <ele>748.40002441406</ele>
        <time>2023-05-21T07:06:38.000Z</time>
      </trkpt>
      <trkpt lat="47.8353" lon="7.10751">
        <ele>748.79998779297</ele>
        <time>2023-05-21T07:06:39.000Z</time>
      </trkpt>
      <trkpt lat="47.83531" lon="7.10754">
        <ele>749.20001220703</ele>
        <time>2023-05-21T07:06:40.000Z</time>
      </trkpt>
      <trkpt lat="47.83533" lon="7.10761">
        <ele>749.79998779297</ele>
        <time>2023-05-21T07:06:42.000Z</time>
      </trkpt>
      <trkpt lat="47.83534" lon="7.10764">
        <ele>750.20001220703</ele>
        <time>2023-05-21T07:06:43.000Z</time>
      </trkpt>
      <trkpt lat="47.83535" lon="7.10768">
        <ele>750.59997558594</ele>
        <time>2023-05-21T07:06:44.000Z</time>
      </trkpt>
      <trkpt lat="47.83537" lon="7.10771">
        <ele>751</ele>
        <time>2023-05-21T07:06:45.000Z</time>
      </trkpt>
      <trkpt lat="47.83538" lon="7.10774">
        <ele>751.59997558594</ele>
        <time>2023-05-21T07:06:46.000Z</time>
      </trkpt>
      <trkpt lat="47.8354" lon="7.10777">
        <ele>752</ele>
        <time>2023-05-21T07:06:47.000Z</time>
      </trkpt>
      <trkpt lat="47.83542" lon="7.1078">
        <ele>752.40002441406</ele>
        <time>2023-05-21T07:06:48.000Z</time>
      </trkpt>
      <trkpt lat="47.83543" lon="7.10784">
        <ele>752.79998779297</ele>
        <time>2023-05-21T07:06:49.000Z</time>
      </trkpt>
      <trkpt lat="47.83544" lon="7.10788">
        <ele>753.20001220703</ele>
        <time>2023-05-21T07:06:50.000Z</time>
      </trkpt>
      <trkpt lat="47.83544" lon="7.10792">
        <ele>753.59997558594</ele>
        <time>2023-05-21T07:06:51.000Z</time>
      </trkpt>
      <trkpt lat="47.83545" lon="7.108">
        <ele>754</ele>
        <time>2023-05-21T07:06:53.000Z</time>
      </trkpt>
      <trkpt lat="47.83545" lon="7.10804">
        <ele>754.40002441406</ele>
        <time>2023-05-21T07:06:54.000Z</time>
      </trkpt>
      <trkpt lat="47.83545" lon="7.10808">
        <ele>754.79998779297</ele>
        <time>2023-05-21T07:06:55.000Z</time>
      </trkpt>
      <trkpt lat="47.83545" lon="7.10812">
        <ele>755.20001220703</ele>
        <time>2023-05-21T07:06:56.000Z</time>
      </trkpt>
      <trkpt lat="47.83545" lon="7.10815">
        <ele>755.59997558594</ele>
        <time>2023-05-21T07:06:57.000Z</time>
      </trkpt>
      <trkpt lat="47.83546" lon="7.10819">
        <ele>755.59997558594</ele>
        <time>2023-05-21T07:06:58.000Z</time>
      </trkpt>
      <trkpt lat="47.83546" lon="7.10827">
        <ele>756</ele>
        <time>2023-05-21T07:07:00.000Z</time>
      </trkpt>
      <trkpt lat="47.83546" lon="7.10831">
        <ele>756.40002441406</ele>
        <time>2023-05-21T07:07:01.000Z</time>
      </trkpt>
      <trkpt lat="47.83546" lon="7.10835">
        <ele>756.79998779297</ele>
        <time>2023-05-21T07:07:02.000Z</time>
      </trkpt>
      <trkpt lat="47.83547" lon="7.10839">
        <ele>757.40002441406</ele>
        <time>2023-05-21T07:07:03.000Z</time>
      </trkpt>
      <trkpt lat="47.83548" lon="7.10843">
        <ele>757.79998779297</ele>
        <time>2023-05-21T07:07:04.000Z</time>
      </trkpt>
      <trkpt lat="47.83555" lon="7.10863">
        <ele>757.79998779297</ele>
        <time>2023-05-21T07:07:09.000Z</time>
      </trkpt>
      <trkpt lat="47.83565" lon="7.10877">
        <ele>757.79998779297</ele>
        <time>2023-05-21T07:07:14.000Z</time>
      </trkpt>
      <trkpt lat="47.83571" lon="7.10882">
        <ele>758.20001220703</ele>
        <time>2023-05-21T07:07:16.000Z</time>
      </trkpt>
      <trkpt lat="47.83573" lon="7.10884">
        <ele>759</ele>
        <time>2023-05-21T07:07:17.000Z</time>
      </trkpt>
      <trkpt lat="47.83576" lon="7.10886">
        <ele>759.40002441406</ele>
        <time>2023-05-21T07:07:18.000Z</time>
      </trkpt>
      <trkpt lat="47.8358" lon="7.10887">
        <ele>759.79998779297</ele>
        <time>2023-05-21T07:07:19.000Z</time>
      </trkpt>
      <trkpt lat="47.83582" lon="7.10887">
        <ele>759.79998779297</ele>
        <time>2023-05-21T07:07:20.000Z</time>
      </trkpt>
      <trkpt lat="47.83595" lon="7.10893">
        <ele>760.20001220703</ele>
        <time>2023-05-21T07:07:25.000Z</time>
      </trkpt>
      <trkpt lat="47.83598" lon="7.10894">
        <ele>760.79998779297</ele>
        <time>2023-05-21T07:07:26.000Z</time>
      </trkpt>
      <trkpt lat="47.83601" lon="7.10895">
        <ele>761.20001220703</ele>
        <time>2023-05-21T07:07:27.000Z</time>
      </trkpt>
      <trkpt lat="47.83605" lon="7.10895">
        <ele>761.59997558594</ele>
        <time>2023-05-21T07:07:28.000Z</time>
      </trkpt>
      <trkpt lat="47.83608" lon="7.10896">
        <ele>762</ele>
        <time>2023-05-21T07:07:29.000Z</time>
      </trkpt>
      <trkpt lat="47.83614" lon="7.10898">
        <ele>762.40002441406</ele>
        <time>2023-05-21T07:07:31.000Z</time>
      </trkpt>
      <trkpt lat="47.83617" lon="7.10899">
        <ele>762.79998779297</ele>
        <time>2023-05-21T07:07:32.000Z</time>
      </trkpt>
      <trkpt lat="47.83619" lon="7.109">
        <ele>763.20001220703</ele>
        <time>2023-05-21T07:07:33.000Z</time>
      </trkpt>
      <trkpt lat="47.83621" lon="7.10902">
        <ele>763.79998779297</ele>
        <time>2023-05-21T07:07:34.000Z</time>
      </trkpt>
      <trkpt lat="47.83623" lon="7.10903">
        <ele>764.20001220703</ele>
        <time>2023-05-21T07:07:35.000Z</time>
      </trkpt>
      <trkpt lat="47.8363" lon="7.1091">
        <ele>764.59997558594</ele>
        <time>2023-05-21T07:07:38.000Z</time>
      </trkpt>
      <trkpt lat="47.83632" lon="7.10912">
        <ele>765</ele>
        <time>2023-05-21T07:07:39.000Z</time>
      </trkpt>
      <trkpt lat="47.83634" lon="7.10916">
        <ele>765.40002441406</ele>
        <time>2023-05-21T07:07:40.000Z</time>
      </trkpt>
      <trkpt lat="47.83636" lon="7.1092">
        <ele>766.40002441406</ele>
        <time>2023-05-21T07:07:41.000Z</time>
      </trkpt>
      <trkpt lat="47.83642" lon="7.10932">
        <ele>766.79998779297</ele>
        <time>2023-05-21T07:07:44.000Z</time>
      </trkpt>
      <trkpt lat="47.83643" lon="7.10935">
        <ele>767.20001220703</ele>
        <time>2023-05-21T07:07:45.000Z</time>
      </trkpt>
      <trkpt lat="47.83644" lon="7.10938">
        <ele>767.59997558594</ele>
        <time>2023-05-21T07:07:46.000Z</time>
      </trkpt>
      <trkpt lat="47.83644" lon="7.1094">
        <ele>768</ele>
        <time>2023-05-21T07:07:47.000Z</time>
      </trkpt>
      <trkpt lat="47.83643" lon="7.10943">
        <ele>768.40002441406</ele>
        <time>2023-05-21T07:07:48.000Z</time>
      </trkpt>
      <trkpt lat="47.83641" lon="7.10954">
        <ele>769</ele>
        <time>2023-05-21T07:07:51.000Z</time>
      </trkpt>
      <trkpt lat="47.83639" lon="7.10958">
        <ele>769.40002441406</ele>
        <time>2023-05-21T07:07:52.000Z</time>
      </trkpt>
      <trkpt lat="47.83638" lon="7.10962">
        <ele>769.79998779297</ele>
        <time>2023-05-21T07:07:53.000Z</time>
      </trkpt>
      <trkpt lat="47.83637" lon="7.10966">
        <ele>770.20001220703</ele>
        <time>2023-05-21T07:07:54.000Z</time>
      </trkpt>
      <trkpt lat="47.83636" lon="7.10971">
        <ele>770.59997558594</ele>
        <time>2023-05-21T07:07:55.000Z</time>
      </trkpt>
      <trkpt lat="47.83636" lon="7.10975">
        <ele>771.20001220703</ele>
        <time>2023-05-21T07:07:56.000Z</time>
      </trkpt>
      <trkpt lat="47.83635" lon="7.10979">
        <ele>771.59997558594</ele>
        <time>2023-05-21T07:07:57.000Z</time>
      </trkpt>
      <trkpt lat="47.83634" lon="7.10984">
        <ele>772</ele>
        <time>2023-05-21T07:07:58.000Z</time>
      </trkpt>
      <trkpt lat="47.83634" lon="7.10989">
        <ele>772.40002441406</ele>
        <time>2023-05-21T07:07:59.000Z</time>
      </trkpt>
      <trkpt lat="47.83634" lon="7.10994">
        <ele>772.79998779297</ele>
        <time>2023-05-21T07:08:00.000Z</time>
      </trkpt>
      <trkpt lat="47.83634" lon="7.10998">
        <ele>772.79998779297</ele>
        <time>2023-05-21T07:08:01.000Z</time>
      </trkpt>
      <trkpt lat="47.83634" lon="7.11002">
        <ele>773.20001220703</ele>
        <time>2023-05-21T07:08:02.000Z</time>
      </trkpt>
      <trkpt lat="47.83634" lon="7.11006">
        <ele>773.59997558594</ele>
        <time>2023-05-21T07:08:03.000Z</time>
      </trkpt>
      <trkpt lat="47.83634" lon="7.1101">
        <ele>774</ele>
        <time>2023-05-21T07:08:04.000Z</time>
      </trkpt>
      <trkpt lat="47.83635" lon="7.11014">
        <ele>774.40002441406</ele>
        <time>2023-05-21T07:08:05.000Z</time>
      </trkpt>
      <trkpt lat="47.83635" lon="7.11018">
        <ele>774.79998779297</ele>
        <time>2023-05-21T07:08:06.000Z</time>
      </trkpt>
      <trkpt lat="47.83636" lon="7.11021">
        <ele>774.79998779297</ele>
        <time>2023-05-21T07:08:07.000Z</time>
      </trkpt>
      <trkpt lat="47.83638" lon="7.11035">
        <ele>775.20001220703</ele>
        <time>2023-05-21T07:08:11.000Z</time>
      </trkpt>
      <trkpt lat="47.83639" lon="7.11039">
        <ele>775.79998779297</ele>
        <time>2023-05-21T07:08:12.000Z</time>
      </trkpt>
      <trkpt lat="47.83639" lon="7.11041">
        <ele>776.20001220703</ele>
        <time>2023-05-21T07:08:13.000Z</time>
      </trkpt>
      <trkpt lat="47.8364" lon="7.11044">
        <ele>776.59997558594</ele>
        <time>2023-05-21T07:08:14.000Z</time>
      </trkpt>
      <trkpt lat="47.8364" lon="7.11047">
        <ele>777</ele>
        <time>2023-05-21T07:08:15.000Z</time>
      </trkpt>
      <trkpt lat="47.83639" lon="7.11053">
        <ele>777.59997558594</ele>
        <time>2023-05-21T07:08:17.000Z</time>
      </trkpt>
      <trkpt lat="47.83639" lon="7.11055">
        <ele>778</ele>
        <time>2023-05-21T07:08:18.000Z</time>
      </trkpt>
      <trkpt lat="47.83638" lon="7.11058">
        <ele>778.40002441406</ele>
        <time>2023-05-21T07:08:19.000Z</time>
      </trkpt>
      <trkpt lat="47.83637" lon="7.1106">
        <ele>778.79998779297</ele>
        <time>2023-05-21T07:08:20.000Z</time>
      </trkpt>
      <trkpt lat="47.83636" lon="7.11062">
        <ele>779.20001220703</ele>
        <time>2023-05-21T07:08:21.000Z</time>
      </trkpt>
      <trkpt lat="47.83634" lon="7.11064">
        <ele>779.20001220703</ele>
        <time>2023-05-21T07:08:22.000Z</time>
      </trkpt>
      <trkpt lat="47.83633" lon="7.11067">
        <ele>779.79998779297</ele>
        <time>2023-05-21T07:08:23.000Z</time>
      </trkpt>
      <trkpt lat="47.83633" lon="7.11068">
        <ele>780.20001220703</ele>
        <time>2023-05-21T07:08:24.000Z</time>
      </trkpt>
      <trkpt lat="47.83632" lon="7.1107">
        <ele>780.59997558594</ele>
        <time>2023-05-21T07:08:25.000Z</time>
      </trkpt>
      <trkpt lat="47.83631" lon="7.11073">
        <ele>781.20001220703</ele>
        <time>2023-05-21T07:08:26.000Z</time>
      </trkpt>
      <trkpt lat="47.83629" lon="7.11076">
        <ele>781.59997558594</ele>
        <time>2023-05-21T07:08:27.000Z</time>
      </trkpt>
      <trkpt lat="47.83628" lon="7.11078">
        <ele>782</ele>
        <time>2023-05-21T07:08:28.000Z</time>
      </trkpt>
      <trkpt lat="47.83626" lon="7.11081">
        <ele>782.59997558594</ele>
        <time>2023-05-21T07:08:29.000Z</time>
      </trkpt>
      <trkpt lat="47.83624" lon="7.11084">
        <ele>783</ele>
        <time>2023-05-21T07:08:30.000Z</time>
      </trkpt>
      <trkpt lat="47.83622" lon="7.11087">
        <ele>784</ele>
        <time>2023-05-21T07:08:31.000Z</time>
      </trkpt>
      <trkpt lat="47.83615" lon="7.11094">
        <ele>784.40002441406</ele>
        <time>2023-05-21T07:08:33.000Z</time>
      </trkpt>
      <trkpt lat="47.83612" lon="7.11097">
        <ele>784.79998779297</ele>
        <time>2023-05-21T07:08:34.000Z</time>
      </trkpt>
      <trkpt lat="47.83609" lon="7.11099">
        <ele>785.20001220703</ele>
        <time>2023-05-21T07:08:35.000Z</time>
      </trkpt>
      <trkpt lat="47.83607" lon="7.11102">
        <ele>785.79998779297</ele>
        <time>2023-05-21T07:08:36.000Z</time>
      </trkpt>
      <trkpt lat="47.83603" lon="7.11105">
        <ele>786.20001220703</ele>
        <time>2023-05-21T07:08:37.000Z</time>
      </trkpt>
      <trkpt lat="47.836" lon="7.11107">
        <ele>786.59997558594</ele>
        <time>2023-05-21T07:08:38.000Z</time>
      </trkpt>
      <trkpt lat="47.83597" lon="7.11108">
        <ele>787</ele>
        <time>2023-05-21T07:08:39.000Z</time>
      </trkpt>
      <trkpt lat="47.83594" lon="7.1111">
        <ele>787.40002441406</ele>
        <time>2023-05-21T07:08:40.000Z</time>
      </trkpt>
      <trkpt lat="47.83592" lon="7.11112">
        <ele>787.79998779297</ele>
        <time>2023-05-21T07:08:41.000Z</time>
      </trkpt>
      <trkpt lat="47.8359" lon="7.11114">
        <ele>788.20001220703</ele>
        <time>2023-05-21T07:08:42.000Z</time>
      </trkpt>
      <trkpt lat="47.83581" lon="7.11122">
        <ele>788.79998779297</ele>
        <time>2023-05-21T07:08:45.000Z</time>
      </trkpt>
      <trkpt lat="47.8358" lon="7.11124">
        <ele>789.20001220703</ele>
        <time>2023-05-21T07:08:46.000Z</time>
      </trkpt>
      <trkpt lat="47.83578" lon="7.11127">
        <ele>789.59997558594</ele>
        <time>2023-05-21T07:08:47.000Z</time>
      </trkpt>
      <trkpt lat="47.83576" lon="7.1113">
        <ele>790</ele>
        <time>2023-05-21T07:08:48.000Z</time>
      </trkpt>
      <trkpt lat="47.83574" lon="7.11133">
        <ele>790.40002441406</ele>
        <time>2023-05-21T07:08:49.000Z</time>
      </trkpt>
      <trkpt lat="47.83566" lon="7.11148">
        <ele>791</ele>
        <time>2023-05-21T07:08:53.000Z</time>
      </trkpt>
      <trkpt lat="47.83565" lon="7.11151">
        <ele>791.40002441406</ele>
        <time>2023-05-21T07:08:54.000Z</time>
      </trkpt>
      <trkpt lat="47.83564" lon="7.11155">
        <ele>792.20001220703</ele>
        <time>2023-05-21T07:08:55.000Z</time>
      </trkpt>
      <trkpt lat="47.83563" lon="7.11159">
        <ele>792.59997558594</ele>
        <time>2023-05-21T07:08:56.000Z</time>
      </trkpt>
      <trkpt lat="47.83562" lon="7.11165">
        <ele>792.59997558594</ele>
        <time>2023-05-21T07:08:58.000Z</time>
      </trkpt>
      <trkpt lat="47.83562" lon="7.11168">
        <ele>793.20001220703</ele>
        <time>2023-05-21T07:08:59.000Z</time>
      </trkpt>
      <trkpt lat="47.83562" lon="7.11171">
        <ele>793.59997558594</ele>
        <time>2023-05-21T07:09:00.000Z</time>
      </trkpt>
      <trkpt lat="47.83562" lon="7.11173">
        <ele>794</ele>
        <time>2023-05-21T07:09:01.000Z</time>
      </trkpt>
      <trkpt lat="47.83562" lon="7.11176">
        <ele>794.40002441406</ele>
        <time>2023-05-21T07:09:02.000Z</time>
      </trkpt>
      <trkpt lat="47.83561" lon="7.11179">
        <ele>794.79998779297</ele>
        <time>2023-05-21T07:09:03.000Z</time>
      </trkpt>
      <trkpt lat="47.83559" lon="7.11183">
        <ele>795.40002441406</ele>
        <time>2023-05-21T07:09:05.000Z</time>
      </trkpt>
      <trkpt lat="47.83558" lon="7.11186">
        <ele>795.79998779297</ele>
        <time>2023-05-21T07:09:06.000Z</time>
      </trkpt>
      <trkpt lat="47.83557" lon="7.11186">
        <ele>796.20001220703</ele>
        <time>2023-05-21T07:09:07.000Z</time>
      </trkpt>
      <trkpt lat="47.83558" lon="7.11188">
        <ele>796.59997558594</ele>
        <time>2023-05-21T07:09:08.000Z</time>
      </trkpt>
      <trkpt lat="47.83557" lon="7.11192">
        <ele>797.20001220703</ele>
        <time>2023-05-21T07:09:09.000Z</time>
      </trkpt>
      <trkpt lat="47.83553" lon="7.112">
        <ele>797.59997558594</ele>
        <time>2023-05-21T07:09:12.000Z</time>
      </trkpt>
      <trkpt lat="47.83552" lon="7.11204">
        <ele>798</ele>
        <time>2023-05-21T07:09:13.000Z</time>
      </trkpt>
      <trkpt lat="47.83551" lon="7.11208">
        <ele>798.59997558594</ele>
        <time>2023-05-21T07:09:14.000Z</time>
      </trkpt>
      <trkpt lat="47.8355" lon="7.11213">
        <ele>799</ele>
        <time>2023-05-21T07:09:15.000Z</time>
      </trkpt>
      <trkpt lat="47.83548" lon="7.11217">
        <ele>799.40002441406</ele>
        <time>2023-05-21T07:09:16.000Z</time>
      </trkpt>
      <trkpt lat="47.83545" lon="7.11227">
        <ele>800</ele>
        <time>2023-05-21T07:09:19.000Z</time>
      </trkpt>
      <trkpt lat="47.83544" lon="7.1123">
        <ele>801</ele>
        <time>2023-05-21T07:09:20.000Z</time>
      </trkpt>
      <trkpt lat="47.83543" lon="7.11232">
        <ele>801.40002441406</ele>
        <time>2023-05-21T07:09:21.000Z</time>
      </trkpt>
      <trkpt lat="47.83541" lon="7.11234">
        <ele>801.79998779297</ele>
        <time>2023-05-21T07:09:22.000Z</time>
      </trkpt>
      <trkpt lat="47.8354" lon="7.11236">
        <ele>801.79998779297</ele>
        <time>2023-05-21T07:09:23.000Z</time>
      </trkpt>
      <trkpt lat="47.83538" lon="7.1124">
        <ele>802.40002441406</ele>
        <time>2023-05-21T07:09:25.000Z</time>
      </trkpt>
      <trkpt lat="47.83537" lon="7.11242">
        <ele>802.79998779297</ele>
        <time>2023-05-21T07:09:26.000Z</time>
      </trkpt>
      <trkpt lat="47.83535" lon="7.11244">
        <ele>803.20001220703</ele>
        <time>2023-05-21T07:09:27.000Z</time>
      </trkpt>
      <trkpt lat="47.83533" lon="7.11246">
        <ele>803.79998779297</ele>
        <time>2023-05-21T07:09:28.000Z</time>
      </trkpt>
      <trkpt lat="47.8353" lon="7.11247">
        <ele>804.20001220703</ele>
        <time>2023-05-21T07:09:29.000Z</time>
      </trkpt>
      <trkpt lat="47.83526" lon="7.11251">
        <ele>804.59997558594</ele>
        <time>2023-05-21T07:09:31.000Z</time>
      </trkpt>
      <trkpt lat="47.83524" lon="7.11254">
        <ele>805</ele>
        <time>2023-05-21T07:09:32.000Z</time>
      </trkpt>
      <trkpt lat="47.83521" lon="7.11256">
        <ele>805.40002441406</ele>
        <time>2023-05-21T07:09:33.000Z</time>
      </trkpt>
      <trkpt lat="47.83519" lon="7.11259">
        <ele>805.79998779297</ele>
        <time>2023-05-21T07:09:34.000Z</time>
      </trkpt>
      <trkpt lat="47.83517" lon="7.11262">
        <ele>806.20001220703</ele>
        <time>2023-05-21T07:09:35.000Z</time>
      </trkpt>
      <trkpt lat="47.8351" lon="7.1127">
        <ele>806.79998779297</ele>
        <time>2023-05-21T07:09:38.000Z</time>
      </trkpt>
      <trkpt lat="47.83507" lon="7.11273">
        <ele>807.20001220703</ele>
        <time>2023-05-21T07:09:39.000Z</time>
      </trkpt>
      <trkpt lat="47.83505" lon="7.11276">
        <ele>807.59997558594</ele>
        <time>2023-05-21T07:09:40.000Z</time>
      </trkpt>
      <trkpt lat="47.83503" lon="7.11279">
        <ele>808</ele>
        <time>2023-05-21T07:09:42.000Z</time>
      </trkpt>
      <trkpt lat="47.83501" lon="7.11281">
        <ele>808.59997558594</ele>
        <time>2023-05-21T07:09:43.000Z</time>
      </trkpt>
      <trkpt lat="47.83494" lon="7.11287">
        <ele>809.40002441406</ele>
        <time>2023-05-21T07:09:46.000Z</time>
      </trkpt>
      <trkpt lat="47.83492" lon="7.11288">
        <ele>809.79998779297</ele>
        <time>2023-05-21T07:09:47.000Z</time>
      </trkpt>
      <trkpt lat="47.83489" lon="7.1129">
        <ele>810.20001220703</ele>
        <time>2023-05-21T07:09:48.000Z</time>
      </trkpt>
      <trkpt lat="47.83487" lon="7.11292">
        <ele>810.59997558594</ele>
        <time>2023-05-21T07:09:49.000Z</time>
      </trkpt>
      <trkpt lat="47.83479" lon="7.11298">
        <ele>811.20001220703</ele>
        <time>2023-05-21T07:09:52.000Z</time>
      </trkpt>
      <trkpt lat="47.83476" lon="7.11301">
        <ele>811.59997558594</ele>
        <time>2023-05-21T07:09:53.000Z</time>
      </trkpt>
      <trkpt lat="47.83474" lon="7.11304">
        <ele>812</ele>
        <time>2023-05-21T07:09:54.000Z</time>
      </trkpt>
      <trkpt lat="47.83472" lon="7.11306">
        <ele>812.40002441406</ele>
        <time>2023-05-21T07:09:55.000Z</time>
      </trkpt>
      <trkpt lat="47.83471" lon="7.11309">
        <ele>813</ele>
        <time>2023-05-21T07:09:56.000Z</time>
      </trkpt>
      <trkpt lat="47.8347" lon="7.11312">
        <ele>813</ele>
        <time>2023-05-21T07:09:57.000Z</time>
      </trkpt>
      <trkpt lat="47.8347" lon="7.11318">
        <ele>813.40002441406</ele>
        <time>2023-05-21T07:09:59.000Z</time>
      </trkpt>
      <trkpt lat="47.8347" lon="7.11322">
        <ele>813.79998779297</ele>
        <time>2023-05-21T07:10:00.000Z</time>
      </trkpt>
      <trkpt lat="47.8347" lon="7.11325">
        <ele>814.40002441406</ele>
        <time>2023-05-21T07:10:01.000Z</time>
      </trkpt>
      <trkpt lat="47.8347" lon="7.11328">
        <ele>814.79998779297</ele>
        <time>2023-05-21T07:10:02.000Z</time>
      </trkpt>
      <trkpt lat="47.83471" lon="7.11331">
        <ele>815.20001220703</ele>
        <time>2023-05-21T07:10:03.000Z</time>
      </trkpt>
      <trkpt lat="47.83473" lon="7.11333">
        <ele>815.20001220703</ele>
        <time>2023-05-21T07:10:04.000Z</time>
      </trkpt>
      <trkpt lat="47.83474" lon="7.11335">
        <ele>815.59997558594</ele>
        <time>2023-05-21T07:10:05.000Z</time>
      </trkpt>
      <trkpt lat="47.83476" lon="7.11337">
        <ele>816</ele>
        <time>2023-05-21T07:10:06.000Z</time>
      </trkpt>
      <trkpt lat="47.83478" lon="7.11338">
        <ele>816.59997558594</ele>
        <time>2023-05-21T07:10:07.000Z</time>
      </trkpt>
      <trkpt lat="47.83481" lon="7.1134">
        <ele>817</ele>
        <time>2023-05-21T07:10:08.000Z</time>
      </trkpt>
      <trkpt lat="47.83483" lon="7.11342">
        <ele>817.40002441406</ele>
        <time>2023-05-21T07:10:09.000Z</time>
      </trkpt>
      <trkpt lat="47.83485" lon="7.11343">
        <ele>817.79998779297</ele>
        <time>2023-05-21T07:10:10.000Z</time>
      </trkpt>
      <trkpt lat="47.83487" lon="7.11345">
        <ele>818.20001220703</ele>
        <time>2023-05-21T07:10:11.000Z</time>
      </trkpt>
      <trkpt lat="47.8349" lon="7.11348">
        <ele>818.59997558594</ele>
        <time>2023-05-21T07:10:12.000Z</time>
      </trkpt>
      <trkpt lat="47.83492" lon="7.1135">
        <ele>819</ele>
        <time>2023-05-21T07:10:13.000Z</time>
      </trkpt>
      <trkpt lat="47.83495" lon="7.11353">
        <ele>819.40002441406</ele>
        <time>2023-05-21T07:10:14.000Z</time>
      </trkpt>
      <trkpt lat="47.83497" lon="7.11356">
        <ele>819.40002441406</ele>
        <time>2023-05-21T07:10:15.000Z</time>
      </trkpt>
      <trkpt lat="47.83502" lon="7.11365">
        <ele>819.79998779297</ele>
        <time>2023-05-21T07:10:18.000Z</time>
      </trkpt>
      <trkpt lat="47.83503" lon="7.11369">
        <ele>820.20001220703</ele>
        <time>2023-05-21T07:10:19.000Z</time>
      </trkpt>
      <trkpt lat="47.83505" lon="7.11372">
        <ele>820.59997558594</ele>
        <time>2023-05-21T07:10:20.000Z</time>
      </trkpt>
      <trkpt lat="47.83507" lon="7.11376">
        <ele>821</ele>
        <time>2023-05-21T07:10:21.000Z</time>
      </trkpt>
      <trkpt lat="47.83508" lon="7.11379">
        <ele>821.59997558594</ele>
        <time>2023-05-21T07:10:22.000Z</time>
      </trkpt>
      <trkpt lat="47.83517" lon="7.11399">
        <ele>822</ele>
        <time>2023-05-21T07:10:28.000Z</time>
      </trkpt>
      <trkpt lat="47.83519" lon="7.11402">
        <ele>822.40002441406</ele>
        <time>2023-05-21T07:10:29.000Z</time>
      </trkpt>
      <trkpt lat="47.83521" lon="7.11405">
        <ele>822.79998779297</ele>
        <time>2023-05-21T07:10:30.000Z</time>
      </trkpt>
      <trkpt lat="47.83522" lon="7.11409">
        <ele>823.20001220703</ele>
        <time>2023-05-21T07:10:31.000Z</time>
      </trkpt>
      <trkpt lat="47.83523" lon="7.11412">
        <ele>823.59997558594</ele>
        <time>2023-05-21T07:10:32.000Z</time>
      </trkpt>
      <trkpt lat="47.83525" lon="7.11415">
        <ele>823.59997558594</ele>
        <time>2023-05-21T07:10:33.000Z</time>
      </trkpt>
      <trkpt lat="47.83532" lon="7.11435">
        <ele>824.20001220703</ele>
        <time>2023-05-21T07:10:37.000Z</time>
      </trkpt>
      <trkpt lat="47.83533" lon="7.11439">
        <ele>824.59997558594</ele>
        <time>2023-05-21T07:10:38.000Z</time>
      </trkpt>
      <trkpt lat="47.83535" lon="7.11443">
        <ele>825</ele>
        <time>2023-05-21T07:10:39.000Z</time>
      </trkpt>
      <trkpt lat="47.83537" lon="7.11447">
        <ele>825.40002441406</ele>
        <time>2023-05-21T07:10:40.000Z</time>
      </trkpt>
      <trkpt lat="47.83538" lon="7.1145">
        <ele>825.79998779297</ele>
        <time>2023-05-21T07:10:41.000Z</time>
      </trkpt>
      <trkpt lat="47.83543" lon="7.11467">
        <ele>825.79998779297</ele>
        <time>2023-05-21T07:10:45.000Z</time>
      </trkpt>
      <trkpt lat="47.83545" lon="7.11471">
        <ele>826.20001220703</ele>
        <time>2023-05-21T07:10:46.000Z</time>
      </trkpt>
      <trkpt lat="47.83547" lon="7.11474">
        <ele>826.59997558594</ele>
        <time>2023-05-21T07:10:47.000Z</time>
      </trkpt>
      <trkpt lat="47.83548" lon="7.11477">
        <ele>827</ele>
        <time>2023-05-21T07:10:48.000Z</time>
      </trkpt>
      <trkpt lat="47.83549" lon="7.11481">
        <ele>827.40002441406</ele>
        <time>2023-05-21T07:10:49.000Z</time>
      </trkpt>
      <trkpt lat="47.8355" lon="7.11484">
        <ele>827.79998779297</ele>
        <time>2023-05-21T07:10:50.000Z</time>
      </trkpt>
      <trkpt lat="47.83555" lon="7.11507">
        <ele>827.79998779297</ele>
        <time>2023-05-21T07:10:55.000Z</time>
      </trkpt>
      <trkpt lat="47.83561" lon="7.11532">
        <ele>827.79998779297</ele>
        <time>2023-05-21T07:11:01.000Z</time>
      </trkpt>
      <trkpt lat="47.83564" lon="7.11544">
        <ele>828.20001220703</ele>
        <time>2023-05-21T07:11:04.000Z</time>
      </trkpt>
      <trkpt lat="47.83564" lon="7.11549">
        <ele>828.59997558594</ele>
        <time>2023-05-21T07:11:05.000Z</time>
      </trkpt>
      <trkpt lat="47.83565" lon="7.11553">
        <ele>829</ele>
        <time>2023-05-21T07:11:06.000Z</time>
      </trkpt>
      <trkpt lat="47.83566" lon="7.11559">
        <ele>829.40002441406</ele>
        <time>2023-05-21T07:11:07.000Z</time>
      </trkpt>
      <trkpt lat="47.83566" lon="7.11564">
        <ele>830</ele>
        <time>2023-05-21T07:11:08.000Z</time>
      </trkpt>
      <trkpt lat="47.83568" lon="7.11582">
        <ele>830.40002441406</ele>
        <time>2023-05-21T07:11:12.000Z</time>
      </trkpt>
      <trkpt lat="47.83569" lon="7.11588">
        <ele>830.79998779297</ele>
        <time>2023-05-21T07:11:13.000Z</time>
      </trkpt>
      <trkpt lat="47.8357" lon="7.11593">
        <ele>831.20001220703</ele>
        <time>2023-05-21T07:11:14.000Z</time>
      </trkpt>
      <trkpt lat="47.83572" lon="7.11598">
        <ele>831.59997558594</ele>
        <time>2023-05-21T07:11:15.000Z</time>
      </trkpt>
      <trkpt lat="47.83573" lon="7.11602">
        <ele>832</ele>
        <time>2023-05-21T07:11:16.000Z</time>
      </trkpt>
      <trkpt lat="47.83573" lon="7.11607">
        <ele>832</ele>
        <time>2023-05-21T07:11:17.000Z</time>
      </trkpt>
      <trkpt lat="47.83578" lon="7.11625">
        <ele>832.40002441406</ele>
        <time>2023-05-21T07:11:22.000Z</time>
      </trkpt>
      <trkpt lat="47.83579" lon="7.1163">
        <ele>832.79998779297</ele>
        <time>2023-05-21T07:11:23.000Z</time>
      </trkpt>
      <trkpt lat="47.8358" lon="7.11635">
        <ele>833.20001220703</ele>
        <time>2023-05-21T07:11:24.000Z</time>
      </trkpt>
      <trkpt lat="47.83581" lon="7.1164">
        <ele>834.20001220703</ele>
        <time>2023-05-21T07:11:25.000Z</time>
      </trkpt>
      <trkpt lat="47.83583" lon="7.11648">
        <ele>834.20001220703</ele>
        <time>2023-05-21T07:11:27.000Z</time>
      </trkpt>
      <trkpt lat="47.83591" lon="7.11675">
        <ele>834.20001220703</ele>
        <time>2023-05-21T07:11:34.000Z</time>
      </trkpt>
      <trkpt lat="47.83594" lon="7.11685">
        <ele>834.59997558594</ele>
        <time>2023-05-21T07:11:37.000Z</time>
      </trkpt>
      <trkpt lat="47.83595" lon="7.11689">
        <ele>835</ele>
        <time>2023-05-21T07:11:38.000Z</time>
      </trkpt>
      <trkpt lat="47.83595" lon="7.11692">
        <ele>835.59997558594</ele>
        <time>2023-05-21T07:11:39.000Z</time>
      </trkpt>
      <trkpt lat="47.83595" lon="7.11695">
        <ele>836</ele>
        <time>2023-05-21T07:11:40.000Z</time>
      </trkpt>
      <trkpt lat="47.83595" lon="7.11697">
        <ele>836.40002441406</ele>
        <time>2023-05-21T07:11:41.000Z</time>
      </trkpt>
      <trkpt lat="47.83595" lon="7.11698">
        <ele>836.40002441406</ele>
        <time>2023-05-21T07:11:42.000Z</time>
      </trkpt>
      <trkpt lat="47.83603" lon="7.11697">
        <ele>838.40002441406</ele>
        <time>2023-05-21T07:18:24.000Z</time>
      </trkpt>
      <trkpt lat="47.83605" lon="7.11695">
        <ele>838.40002441406</ele>
        <time>2023-05-21T07:18:26.000Z</time>
      </trkpt>
      <trkpt lat="47.83613" lon="7.1169">
        <ele>838.40002441406</ele>
        <time>2023-05-21T07:18:31.000Z</time>
      </trkpt>
      <trkpt lat="47.83616" lon="7.11686">
        <ele>838.40002441406</ele>
        <time>2023-05-21T07:18:34.000Z</time>
      </trkpt>
      <trkpt lat="47.83622" lon="7.11683">
        <ele>838.79998779297</ele>
        <time>2023-05-21T07:18:36.000Z</time>
      </trkpt>
      <trkpt lat="47.83624" lon="7.11682">
        <ele>839.20001220703</ele>
        <time>2023-05-21T07:18:37.000Z</time>
      </trkpt>
      <trkpt lat="47.83627" lon="7.11681">
        <ele>839.79998779297</ele>
        <time>2023-05-21T07:18:38.000Z</time>
      </trkpt>
      <trkpt lat="47.8363" lon="7.11678">
        <ele>840.20001220703</ele>
        <time>2023-05-21T07:18:39.000Z</time>
      </trkpt>
      <trkpt lat="47.83635" lon="7.11676">
        <ele>840.59997558594</ele>
        <time>2023-05-21T07:18:40.000Z</time>
      </trkpt>
      <trkpt lat="47.83639" lon="7.11673">
        <ele>840.59997558594</ele>
        <time>2023-05-21T07:18:41.000Z</time>
      </trkpt>
      <trkpt lat="47.83643" lon="7.11669">
        <ele>841</ele>
        <time>2023-05-21T07:18:43.000Z</time>
      </trkpt>
      <trkpt lat="47.83646" lon="7.11668">
        <ele>841.40002441406</ele>
        <time>2023-05-21T07:18:44.000Z</time>
      </trkpt>
      <trkpt lat="47.83649" lon="7.11668">
        <ele>841.79998779297</ele>
        <time>2023-05-21T07:18:45.000Z</time>
      </trkpt>
      <trkpt lat="47.83651" lon="7.11667">
        <ele>842.20001220703</ele>
        <time>2023-05-21T07:18:46.000Z</time>
      </trkpt>
      <trkpt lat="47.83655" lon="7.11665">
        <ele>842.59997558594</ele>
        <time>2023-05-21T07:18:47.000Z</time>
      </trkpt>
      <trkpt lat="47.83658" lon="7.11664">
        <ele>842.59997558594</ele>
        <time>2023-05-21T07:18:48.000Z</time>
      </trkpt>
      <trkpt lat="47.83662" lon="7.11662">
        <ele>843</ele>
        <time>2023-05-21T07:18:50.000Z</time>
      </trkpt>
      <trkpt lat="47.83664" lon="7.11662">
        <ele>843.40002441406</ele>
        <time>2023-05-21T07:18:51.000Z</time>
      </trkpt>
      <trkpt lat="47.83666" lon="7.11662">
        <ele>844</ele>
        <time>2023-05-21T07:18:52.000Z</time>
      </trkpt>
      <trkpt lat="47.83669" lon="7.11663">
        <ele>844.40002441406</ele>
        <time>2023-05-21T07:18:53.000Z</time>
      </trkpt>
      <trkpt lat="47.83672" lon="7.11664">
        <ele>844.79998779297</ele>
        <time>2023-05-21T07:18:54.000Z</time>
      </trkpt>
      <trkpt lat="47.83683" lon="7.11671">
        <ele>845.20001220703</ele>
        <time>2023-05-21T07:18:58.000Z</time>
      </trkpt>
      <trkpt lat="47.83685" lon="7.11674">
        <ele>845.79998779297</ele>
        <time>2023-05-21T07:18:59.000Z</time>
      </trkpt>
      <trkpt lat="47.83687" lon="7.11676">
        <ele>846.20001220703</ele>
        <time>2023-05-21T07:19:00.000Z</time>
      </trkpt>
      <trkpt lat="47.83689" lon="7.11679">
        <ele>846.59997558594</ele>
        <time>2023-05-21T07:19:01.000Z</time>
      </trkpt>
      <trkpt lat="47.83691" lon="7.11681">
        <ele>847</ele>
        <time>2023-05-21T07:19:02.000Z</time>
      </trkpt>
      <trkpt lat="47.83692" lon="7.11684">
        <ele>847</ele>
        <time>2023-05-21T07:19:03.000Z</time>
      </trkpt>
      <trkpt lat="47.83694" lon="7.11687">
        <ele>847</ele>
        <time>2023-05-21T07:19:04.000Z</time>
      </trkpt>
      <trkpt lat="47.83696" lon="7.11691">
        <ele>847.40002441406</ele>
        <time>2023-05-21T07:19:06.000Z</time>
      </trkpt>
      <trkpt lat="47.83697" lon="7.11693">
        <ele>847.79998779297</ele>
        <time>2023-05-21T07:19:07.000Z</time>
      </trkpt>
      <trkpt lat="47.83698" lon="7.11696">
        <ele>848.20001220703</ele>
        <time>2023-05-21T07:19:08.000Z</time>
      </trkpt>
      <trkpt lat="47.83699" lon="7.11698">
        <ele>848.59997558594</ele>
        <time>2023-05-21T07:19:09.000Z</time>
      </trkpt>
      <trkpt lat="47.83701" lon="7.11701">
        <ele>849</ele>
        <time>2023-05-21T07:19:10.000Z</time>
      </trkpt>
      <trkpt lat="47.83704" lon="7.1172">
        <ele>850</ele>
        <time>2023-05-21T07:19:14.000Z</time>
      </trkpt>
      <trkpt lat="47.83704" lon="7.11725">
        <ele>850.40002441406</ele>
        <time>2023-05-21T07:19:15.000Z</time>
      </trkpt>
      <trkpt lat="47.83704" lon="7.1173">
        <ele>850.79998779297</ele>
        <time>2023-05-21T07:19:16.000Z</time>
      </trkpt>
      <trkpt lat="47.83704" lon="7.11735">
        <ele>851.20001220703</ele>
        <time>2023-05-21T07:19:17.000Z</time>
      </trkpt>
      <trkpt lat="47.83708" lon="7.11753">
        <ele>851.20001220703</ele>
        <time>2023-05-21T07:19:21.000Z</time>
      </trkpt>
      <trkpt lat="47.83709" lon="7.1176">
        <ele>851.59997558594</ele>
        <time>2023-05-21T07:19:23.000Z</time>
      </trkpt>
      <trkpt lat="47.83711" lon="7.11765">
        <ele>852</ele>
        <time>2023-05-21T07:19:24.000Z</time>
      </trkpt>
      <trkpt lat="47.83711" lon="7.11769">
        <ele>852.40002441406</ele>
        <time>2023-05-21T07:19:25.000Z</time>
      </trkpt>
      <trkpt lat="47.83711" lon="7.11773">
        <ele>852.79998779297</ele>
        <time>2023-05-21T07:19:26.000Z</time>
      </trkpt>
      <trkpt lat="47.83712" lon="7.11777">
        <ele>853.20001220703</ele>
        <time>2023-05-21T07:19:27.000Z</time>
      </trkpt>
      <trkpt lat="47.83713" lon="7.11781">
        <ele>853.20001220703</ele>
        <time>2023-05-21T07:19:28.000Z</time>
      </trkpt>
      <trkpt lat="47.83712" lon="7.11793">
        <ele>853.79998779297</ele>
        <time>2023-05-21T07:19:32.000Z</time>
      </trkpt>
      <trkpt lat="47.83711" lon="7.11797">
        <ele>854.20001220703</ele>
        <time>2023-05-21T07:19:33.000Z</time>
      </trkpt>
      <trkpt lat="47.83712" lon="7.118">
        <ele>854.59997558594</ele>
        <time>2023-05-21T07:19:34.000Z</time>
      </trkpt>
      <trkpt lat="47.83712" lon="7.11802">
        <ele>855</ele>
        <time>2023-05-21T07:19:35.000Z</time>
      </trkpt>
      <trkpt lat="47.83713" lon="7.11806">
        <ele>855.40002441406</ele>
        <time>2023-05-21T07:19:36.000Z</time>
      </trkpt>
      <trkpt lat="47.83716" lon="7.11821">
        <ele>855.40002441406</ele>
        <time>2023-05-21T07:19:39.000Z</time>
      </trkpt>
      <trkpt lat="47.83724" lon="7.11842">
        <ele>855.79998779297</ele>
        <time>2023-05-21T07:19:44.000Z</time>
      </trkpt>
      <trkpt lat="47.83725" lon="7.11845">
        <ele>856.20001220703</ele>
        <time>2023-05-21T07:19:45.000Z</time>
      </trkpt>
      <trkpt lat="47.83726" lon="7.11848">
        <ele>856.59997558594</ele>
        <time>2023-05-21T07:19:46.000Z</time>
      </trkpt>
      <trkpt lat="47.83727" lon="7.11852">
        <ele>857</ele>
        <time>2023-05-21T07:19:47.000Z</time>
      </trkpt>
      <trkpt lat="47.83728" lon="7.11856">
        <ele>857.59997558594</ele>
        <time>2023-05-21T07:19:48.000Z</time>
      </trkpt>
      <trkpt lat="47.8373" lon="7.1186">
        <ele>857.59997558594</ele>
        <time>2023-05-21T07:19:49.000Z</time>
      </trkpt>
      <trkpt lat="47.8374" lon="7.11887">
        <ele>857.59997558594</ele>
        <time>2023-05-21T07:19:56.000Z</time>
      </trkpt>
      <trkpt lat="47.83741" lon="7.11891">
        <ele>858</ele>
        <time>2023-05-21T07:19:57.000Z</time>
      </trkpt>
      <trkpt lat="47.83743" lon="7.11895">
        <ele>858.40002441406</ele>
        <time>2023-05-21T07:19:58.000Z</time>
      </trkpt>
      <trkpt lat="47.83744" lon="7.11899">
        <ele>858.79998779297</ele>
        <time>2023-05-21T07:19:59.000Z</time>
      </trkpt>
      <trkpt lat="47.83746" lon="7.11902">
        <ele>859.20001220703</ele>
        <time>2023-05-21T07:20:00.000Z</time>
      </trkpt>
      <trkpt lat="47.83747" lon="7.11906">
        <ele>859.59997558594</ele>
        <time>2023-05-21T07:20:01.000Z</time>
      </trkpt>
      <trkpt lat="47.8376" lon="7.11932">
        <ele>859.59997558594</ele>
        <time>2023-05-21T07:20:08.000Z</time>
      </trkpt>
      <trkpt lat="47.83763" lon="7.11934">
        <ele>859.59997558594</ele>
        <time>2023-05-21T07:20:09.000Z</time>
      </trkpt>
      <trkpt lat="47.83771" lon="7.11938">
        <ele>859.59997558594</ele>
        <time>2023-05-21T07:20:12.000Z</time>
      </trkpt>
      <trkpt lat="47.83783" lon="7.11941">
        <ele>859.59997558594</ele>
        <time>2023-05-21T07:20:17.000Z</time>
      </trkpt>
      <trkpt lat="47.83789" lon="7.1194">
        <ele>860</ele>
        <time>2023-05-21T07:20:19.000Z</time>
      </trkpt>
      <trkpt lat="47.83793" lon="7.1194">
        <ele>860.59997558594</ele>
        <time>2023-05-21T07:20:20.000Z</time>
      </trkpt>
      <trkpt lat="47.83795" lon="7.11939">
        <ele>861</ele>
        <time>2023-05-21T07:20:21.000Z</time>
      </trkpt>
      <trkpt lat="47.83799" lon="7.11939">
        <ele>861.40002441406</ele>
        <time>2023-05-21T07:20:22.000Z</time>
      </trkpt>
      <trkpt lat="47.83801" lon="7.11938">
        <ele>861.79998779297</ele>
        <time>2023-05-21T07:20:23.000Z</time>
      </trkpt>
      <trkpt lat="47.83816" lon="7.11935">
        <ele>861.79998779297</ele>
        <time>2023-05-21T07:20:28.000Z</time>
      </trkpt>
      <trkpt lat="47.83821" lon="7.11936">
        <ele>862.20001220703</ele>
        <time>2023-05-21T07:20:30.000Z</time>
      </trkpt>
      <trkpt lat="47.83824" lon="7.11936">
        <ele>862.59997558594</ele>
        <time>2023-05-21T07:20:31.000Z</time>
      </trkpt>
      <trkpt lat="47.83827" lon="7.11936">
        <ele>863</ele>
        <time>2023-05-21T07:20:32.000Z</time>
      </trkpt>
      <trkpt lat="47.8383" lon="7.11937">
        <ele>863.40002441406</ele>
        <time>2023-05-21T07:20:33.000Z</time>
      </trkpt>
      <trkpt lat="47.83833" lon="7.11939">
        <ele>863.79998779297</ele>
        <time>2023-05-21T07:20:34.000Z</time>
      </trkpt>
      <trkpt lat="47.8384" lon="7.11938">
        <ele>863.79998779297</ele>
        <time>2023-05-21T07:20:38.000Z</time>
      </trkpt>
      <trkpt lat="47.83844" lon="7.11936">
        <ele>864.20001220703</ele>
        <time>2023-05-21T07:20:40.000Z</time>
      </trkpt>
      <trkpt lat="47.83845" lon="7.11933">
        <ele>864.59997558594</ele>
        <time>2023-05-21T07:20:41.000Z</time>
      </trkpt>
      <trkpt lat="47.83846" lon="7.11932">
        <ele>865</ele>
        <time>2023-05-21T07:20:42.000Z</time>
      </trkpt>
      <trkpt lat="47.83847" lon="7.11929">
        <ele>865.40002441406</ele>
        <time>2023-05-21T07:20:43.000Z</time>
      </trkpt>
      <trkpt lat="47.83848" lon="7.11927">
        <ele>865.79998779297</ele>
        <time>2023-05-21T07:20:44.000Z</time>
      </trkpt>
      <trkpt lat="47.83851" lon="7.11923">
        <ele>866.20001220703</ele>
        <time>2023-05-21T07:20:46.000Z</time>
      </trkpt>
      <trkpt lat="47.83852" lon="7.1192">
        <ele>866.59997558594</ele>
        <time>2023-05-21T07:20:47.000Z</time>
      </trkpt>
      <trkpt lat="47.83853" lon="7.11918">
        <ele>867.20001220703</ele>
        <time>2023-05-21T07:20:48.000Z</time>
      </trkpt>
      <trkpt lat="47.83854" lon="7.11916">
        <ele>867.59997558594</ele>
        <time>2023-05-21T07:20:49.000Z</time>
      </trkpt>
      <trkpt lat="47.83856" lon="7.11913">
        <ele>868</ele>
        <time>2023-05-21T07:20:50.000Z</time>
      </trkpt>
      <trkpt lat="47.8386" lon="7.11905">
        <ele>868.40002441406</ele>
        <time>2023-05-21T07:20:52.000Z</time>
      </trkpt>
      <trkpt lat="47.83861" lon="7.11901">
        <ele>869.20001220703</ele>
        <time>2023-05-21T07:20:53.000Z</time>
      </trkpt>
      <trkpt lat="47.83862" lon="7.11897">
        <ele>869.59997558594</ele>
        <time>2023-05-21T07:20:54.000Z</time>
      </trkpt>
      <trkpt lat="47.83863" lon="7.11893">
        <ele>870</ele>
        <time>2023-05-21T07:20:55.000Z</time>
      </trkpt>
      <trkpt lat="47.83864" lon="7.11886">
        <ele>870.40002441406</ele>
        <time>2023-05-21T07:20:57.000Z</time>
      </trkpt>
      <trkpt lat="47.83866" lon="7.11884">
        <ele>871</ele>
        <time>2023-05-21T07:20:58.000Z</time>
      </trkpt>
      <trkpt lat="47.83867" lon="7.11881">
        <ele>871.40002441406</ele>
        <time>2023-05-21T07:20:59.000Z</time>
      </trkpt>
      <trkpt lat="47.83867" lon="7.11879">
        <ele>871.79998779297</ele>
        <time>2023-05-21T07:21:00.000Z</time>
      </trkpt>
      <trkpt lat="47.83868" lon="7.11877">
        <ele>872.40002441406</ele>
        <time>2023-05-21T07:21:01.000Z</time>
      </trkpt>
      <trkpt lat="47.8387" lon="7.11874">
        <ele>872.40002441406</ele>
        <time>2023-05-21T07:21:02.000Z</time>
      </trkpt>
      <trkpt lat="47.83871" lon="7.11871">
        <ele>872.79998779297</ele>
        <time>2023-05-21T07:21:03.000Z</time>
      </trkpt>
      <trkpt lat="47.83873" lon="7.11868">
        <ele>873.20001220703</ele>
        <time>2023-05-21T07:21:04.000Z</time>
      </trkpt>
      <trkpt lat="47.83874" lon="7.11865">
        <ele>873.79998779297</ele>
        <time>2023-05-21T07:21:05.000Z</time>
      </trkpt>
      <trkpt lat="47.83875" lon="7.11862">
        <ele>874.20001220703</ele>
        <time>2023-05-21T07:21:06.000Z</time>
      </trkpt>
      <trkpt lat="47.83876" lon="7.1186">
        <ele>874.59997558594</ele>
        <time>2023-05-21T07:21:07.000Z</time>
      </trkpt>
      <trkpt lat="47.83875" lon="7.11855">
        <ele>875.20001220703</ele>
        <time>2023-05-21T07:21:09.000Z</time>
      </trkpt>
      <trkpt lat="47.83876" lon="7.11851">
        <ele>875.59997558594</ele>
        <time>2023-05-21T07:21:10.000Z</time>
      </trkpt>
      <trkpt lat="47.83877" lon="7.11848">
        <ele>876</ele>
        <time>2023-05-21T07:21:11.000Z</time>
      </trkpt>
      <trkpt lat="47.83878" lon="7.11845">
        <ele>876.59997558594</ele>
        <time>2023-05-21T07:21:12.000Z</time>
      </trkpt>
      <trkpt lat="47.83879" lon="7.11842">
        <ele>877</ele>
        <time>2023-05-21T07:21:13.000Z</time>
      </trkpt>
      <trkpt lat="47.8388" lon="7.11838">
        <ele>877.40002441406</ele>
        <time>2023-05-21T07:21:14.000Z</time>
      </trkpt>
      <trkpt lat="47.83881" lon="7.11835">
        <ele>877.79998779297</ele>
        <time>2023-05-21T07:21:15.000Z</time>
      </trkpt>
      <trkpt lat="47.83882" lon="7.11832">
        <ele>878.20001220703</ele>
        <time>2023-05-21T07:21:16.000Z</time>
      </trkpt>
      <trkpt lat="47.83884" lon="7.11829">
        <ele>879</ele>
        <time>2023-05-21T07:21:17.000Z</time>
      </trkpt>
      <trkpt lat="47.83885" lon="7.11827">
        <ele>879.59997558594</ele>
        <time>2023-05-21T07:21:18.000Z</time>
      </trkpt>
      <trkpt lat="47.83886" lon="7.11824">
        <ele>880</ele>
        <time>2023-05-21T07:21:19.000Z</time>
      </trkpt>
      <trkpt lat="47.83887" lon="7.1182">
        <ele>880.40002441406</ele>
        <time>2023-05-21T07:21:20.000Z</time>
      </trkpt>
      <trkpt lat="47.83887" lon="7.11818">
        <ele>880.79998779297</ele>
        <time>2023-05-21T07:21:21.000Z</time>
      </trkpt>
      <trkpt lat="47.83888" lon="7.11815">
        <ele>881.20001220703</ele>
        <time>2023-05-21T07:21:22.000Z</time>
      </trkpt>
      <trkpt lat="47.8389" lon="7.11806">
        <ele>881.59997558594</ele>
        <time>2023-05-21T07:21:25.000Z</time>
      </trkpt>
      <trkpt lat="47.8389" lon="7.11803">
        <ele>882</ele>
        <time>2023-05-21T07:21:26.000Z</time>
      </trkpt>
      <trkpt lat="47.83889" lon="7.11799">
        <ele>882.59997558594</ele>
        <time>2023-05-21T07:21:27.000Z</time>
      </trkpt>
      <trkpt lat="47.83888" lon="7.11796">
        <ele>883</ele>
        <time>2023-05-21T07:21:28.000Z</time>
      </trkpt>
      <trkpt lat="47.83888" lon="7.11793">
        <ele>883.40002441406</ele>
        <time>2023-05-21T07:21:29.000Z</time>
      </trkpt>
      <trkpt lat="47.83887" lon="7.11788">
        <ele>883.40002441406</ele>
        <time>2023-05-21T07:21:31.000Z</time>
      </trkpt>
      <trkpt lat="47.83887" lon="7.11785">
        <ele>883.79998779297</ele>
        <time>2023-05-21T07:21:32.000Z</time>
      </trkpt>
      <trkpt lat="47.83887" lon="7.11783">
        <ele>884.40002441406</ele>
        <time>2023-05-21T07:21:33.000Z</time>
      </trkpt>
      <trkpt lat="47.83886" lon="7.1178">
        <ele>884.79998779297</ele>
        <time>2023-05-21T07:21:34.000Z</time>
      </trkpt>
      <trkpt lat="47.83886" lon="7.11777">
        <ele>885.20001220703</ele>
        <time>2023-05-21T07:21:35.000Z</time>
      </trkpt>
      <trkpt lat="47.83886" lon="7.11775">
        <ele>885.59997558594</ele>
        <time>2023-05-21T07:21:36.000Z</time>
      </trkpt>
      <trkpt lat="47.83886" lon="7.11772">
        <ele>885.59997558594</ele>
        <time>2023-05-21T07:21:37.000Z</time>
      </trkpt>
      <trkpt lat="47.83886" lon="7.11766">
        <ele>886</ele>
        <time>2023-05-21T07:21:39.000Z</time>
      </trkpt>
      <trkpt lat="47.83886" lon="7.11764">
        <ele>886.40002441406</ele>
        <time>2023-05-21T07:21:40.000Z</time>
      </trkpt>
      <trkpt lat="47.83887" lon="7.11761">
        <ele>886.79998779297</ele>
        <time>2023-05-21T07:21:41.000Z</time>
      </trkpt>
      <trkpt lat="47.83886" lon="7.11757">
        <ele>887.79998779297</ele>
        <time>2023-05-21T07:21:42.000Z</time>
      </trkpt>
      <trkpt lat="47.83887" lon="7.11753">
        <ele>887.79998779297</ele>
        <time>2023-05-21T07:21:43.000Z</time>
      </trkpt>
      <trkpt lat="47.83889" lon="7.11747">
        <ele>888.20001220703</ele>
        <time>2023-05-21T07:21:45.000Z</time>
      </trkpt>
      <trkpt lat="47.83891" lon="7.11744">
        <ele>888.59997558594</ele>
        <time>2023-05-21T07:21:46.000Z</time>
      </trkpt>
      <trkpt lat="47.83892" lon="7.1174">
        <ele>889</ele>
        <time>2023-05-21T07:21:47.000Z</time>
      </trkpt>
      <trkpt lat="47.83892" lon="7.11737">
        <ele>889.40002441406</ele>
        <time>2023-05-21T07:21:48.000Z</time>
      </trkpt>
      <trkpt lat="47.83893" lon="7.11734">
        <ele>889.79998779297</ele>
        <time>2023-05-21T07:21:49.000Z</time>
      </trkpt>
      <trkpt lat="47.83893" lon="7.11731">
        <ele>889.79998779297</ele>
        <time>2023-05-21T07:21:50.000Z</time>
      </trkpt>
      <trkpt lat="47.83894" lon="7.11728">
        <ele>890.20001220703</ele>
        <time>2023-05-21T07:21:51.000Z</time>
      </trkpt>
      <trkpt lat="47.83894" lon="7.11725">
        <ele>890.59997558594</ele>
        <time>2023-05-21T07:21:52.000Z</time>
      </trkpt>
      <trkpt lat="47.83894" lon="7.11723">
        <ele>891</ele>
        <time>2023-05-21T07:21:53.000Z</time>
      </trkpt>
      <trkpt lat="47.83894" lon="7.11719">
        <ele>891.59997558594</ele>
        <time>2023-05-21T07:21:54.000Z</time>
      </trkpt>
      <trkpt lat="47.83895" lon="7.11715">
        <ele>892</ele>
        <time>2023-05-21T07:21:55.000Z</time>
      </trkpt>
      <trkpt lat="47.83896" lon="7.11712">
        <ele>892</ele>
        <time>2023-05-21T07:21:56.000Z</time>
      </trkpt>
      <trkpt lat="47.83897" lon="7.11709">
        <ele>892.40002441406</ele>
        <time>2023-05-21T07:21:57.000Z</time>
      </trkpt>
      <trkpt lat="47.83898" lon="7.11705">
        <ele>892.79998779297</ele>
        <time>2023-05-21T07:21:58.000Z</time>
      </trkpt>
      <trkpt lat="47.83901" lon="7.11701">
        <ele>893.20001220703</ele>
        <time>2023-05-21T07:21:59.000Z</time>
      </trkpt>
      <trkpt lat="47.83902" lon="7.11696">
        <ele>893.79998779297</ele>
        <time>2023-05-21T07:22:00.000Z</time>
      </trkpt>
      <trkpt lat="47.83904" lon="7.11692">
        <ele>894.20001220703</ele>
        <time>2023-05-21T07:22:01.000Z</time>
      </trkpt>
      <trkpt lat="47.83904" lon="7.1169">
        <ele>894.59997558594</ele>
        <time>2023-05-21T07:22:02.000Z</time>
      </trkpt>
      <trkpt lat="47.83904" lon="7.11686">
        <ele>895</ele>
        <time>2023-05-21T07:22:03.000Z</time>
      </trkpt>
      <trkpt lat="47.83906" lon="7.11684">
        <ele>895.40002441406</ele>
        <time>2023-05-21T07:22:04.000Z</time>
      </trkpt>
      <trkpt lat="47.83907" lon="7.11681">
        <ele>895.79998779297</ele>
        <time>2023-05-21T07:22:05.000Z</time>
      </trkpt>
      <trkpt lat="47.83908" lon="7.11678">
        <ele>896.20001220703</ele>
        <time>2023-05-21T07:22:06.000Z</time>
      </trkpt>
      <trkpt lat="47.83909" lon="7.11675">
        <ele>897</ele>
        <time>2023-05-21T07:22:07.000Z</time>
      </trkpt>
      <trkpt lat="47.83911" lon="7.11672">
        <ele>897.40002441406</ele>
        <time>2023-05-21T07:22:08.000Z</time>
      </trkpt>
      <trkpt lat="47.83911" lon="7.11669">
        <ele>897.79998779297</ele>
        <time>2023-05-21T07:22:09.000Z</time>
      </trkpt>
      <trkpt lat="47.83913" lon="7.11666">
        <ele>898.20001220703</ele>
        <time>2023-05-21T07:22:10.000Z</time>
      </trkpt>
      <trkpt lat="47.83916" lon="7.1166">
        <ele>898.59997558594</ele>
        <time>2023-05-21T07:22:12.000Z</time>
      </trkpt>
      <trkpt lat="47.83917" lon="7.11657">
        <ele>899</ele>
        <time>2023-05-21T07:22:13.000Z</time>
      </trkpt>
      <trkpt lat="47.83917" lon="7.11654">
        <ele>899.40002441406</ele>
        <time>2023-05-21T07:22:14.000Z</time>
      </trkpt>
      <trkpt lat="47.83918" lon="7.11651">
        <ele>899.79998779297</ele>
        <time>2023-05-21T07:22:15.000Z</time>
      </trkpt>
      <trkpt lat="47.83919" lon="7.11648">
        <ele>900.20001220703</ele>
        <time>2023-05-21T07:22:16.000Z</time>
      </trkpt>
      <trkpt lat="47.83923" lon="7.11638">
        <ele>900.20001220703</ele>
        <time>2023-05-21T07:22:19.000Z</time>
      </trkpt>
      <trkpt lat="47.83924" lon="7.11635">
        <ele>900.59997558594</ele>
        <time>2023-05-21T07:22:20.000Z</time>
      </trkpt>
      <trkpt lat="47.83926" lon="7.11631">
        <ele>901.20001220703</ele>
        <time>2023-05-21T07:22:21.000Z</time>
      </trkpt>
      <trkpt lat="47.83927" lon="7.11628">
        <ele>901.59997558594</ele>
        <time>2023-05-21T07:22:22.000Z</time>
      </trkpt>
      <trkpt lat="47.83929" lon="7.11625">
        <ele>902</ele>
        <time>2023-05-21T07:22:23.000Z</time>
      </trkpt>
      <trkpt lat="47.8393" lon="7.11621">
        <ele>902.40002441406</ele>
        <time>2023-05-21T07:22:24.000Z</time>
      </trkpt>
      <trkpt lat="47.83934" lon="7.11616">
        <ele>902.40002441406</ele>
        <time>2023-05-21T07:22:26.000Z</time>
      </trkpt>
      <trkpt lat="47.83939" lon="7.11607">
        <ele>902.79998779297</ele>
        <time>2023-05-21T07:22:29.000Z</time>
      </trkpt>
      <trkpt lat="47.83941" lon="7.11604">
        <ele>903.20001220703</ele>
        <time>2023-05-21T07:22:30.000Z</time>
      </trkpt>
      <trkpt lat="47.83943" lon="7.11602">
        <ele>904</ele>
        <time>2023-05-21T07:22:31.000Z</time>
      </trkpt>
      <trkpt lat="47.83945" lon="7.116">
        <ele>904.40002441406</ele>
        <time>2023-05-21T07:22:32.000Z</time>
      </trkpt>
      <trkpt lat="47.83948" lon="7.11595">
        <ele>904.40002441406</ele>
        <time>2023-05-21T07:22:34.000Z</time>
      </trkpt>
      <trkpt lat="47.83951" lon="7.11587">
        <ele>904.79998779297</ele>
        <time>2023-05-21T07:22:37.000Z</time>
      </trkpt>
      <trkpt lat="47.83953" lon="7.11585">
        <ele>905.20001220703</ele>
        <time>2023-05-21T07:22:38.000Z</time>
      </trkpt>
      <trkpt lat="47.83954" lon="7.11583">
        <ele>905.59997558594</ele>
        <time>2023-05-21T07:22:39.000Z</time>
      </trkpt>
      <trkpt lat="47.83956" lon="7.1158">
        <ele>906</ele>
        <time>2023-05-21T07:22:40.000Z</time>
      </trkpt>
      <trkpt lat="47.83957" lon="7.11576">
        <ele>906.40002441406</ele>
        <time>2023-05-21T07:22:41.000Z</time>
      </trkpt>
      <trkpt lat="47.8397" lon="7.11547">
        <ele>906.40002441406</ele>
        <time>2023-05-21T07:22:49.000Z</time>
      </trkpt>
      <trkpt lat="47.8398" lon="7.11527">
        <ele>906.40002441406</ele>
        <time>2023-05-21T07:22:55.000Z</time>
      </trkpt>
      <trkpt lat="47.83983" lon="7.11518">
        <ele>907</ele>
        <time>2023-05-21T07:22:58.000Z</time>
      </trkpt>
      <trkpt lat="47.83984" lon="7.11516">
        <ele>907.40002441406</ele>
        <time>2023-05-21T07:22:59.000Z</time>
      </trkpt>
      <trkpt lat="47.83985" lon="7.11512">
        <ele>907.79998779297</ele>
        <time>2023-05-21T07:23:00.000Z</time>
      </trkpt>
      <trkpt lat="47.83986" lon="7.1151">
        <ele>908.20001220703</ele>
        <time>2023-05-21T07:23:01.000Z</time>
      </trkpt>
      <trkpt lat="47.83988" lon="7.11508">
        <ele>908.59997558594</ele>
        <time>2023-05-21T07:23:02.000Z</time>
      </trkpt>
      <trkpt lat="47.83999" lon="7.11499">
        <ele>908.59997558594</ele>
        <time>2023-05-21T07:23:06.000Z</time>
      </trkpt>
      <trkpt lat="47.84014" lon="7.11486">
        <ele>908.59997558594</ele>
        <time>2023-05-21T07:23:10.000Z</time>
      </trkpt>
      <trkpt lat="47.84027" lon="7.1148">
        <ele>908.59997558594</ele>
        <time>2023-05-21T07:23:14.000Z</time>
      </trkpt>
      <trkpt lat="47.84033" lon="7.11476">
        <ele>908.59997558594</ele>
        <time>2023-05-21T07:23:17.000Z</time>
      </trkpt>
      <trkpt lat="47.84037" lon="7.11472">
        <ele>908.59997558594</ele>
        <time>2023-05-21T07:23:19.000Z</time>
      </trkpt>
      <trkpt lat="47.84041" lon="7.11469">
        <ele>909</ele>
        <time>2023-05-21T07:23:21.000Z</time>
      </trkpt>
      <trkpt lat="47.84043" lon="7.11466">
        <ele>909.40002441406</ele>
        <time>2023-05-21T07:23:22.000Z</time>
      </trkpt>
      <trkpt lat="47.84046" lon="7.11465">
        <ele>909.79998779297</ele>
        <time>2023-05-21T07:23:23.000Z</time>
      </trkpt>
      <trkpt lat="47.8405" lon="7.11462">
        <ele>910.20001220703</ele>
        <time>2023-05-21T07:23:24.000Z</time>
      </trkpt>
      <trkpt lat="47.84054" lon="7.11461">
        <ele>910.59997558594</ele>
        <time>2023-05-21T07:23:25.000Z</time>
      </trkpt>
      <trkpt lat="47.84068" lon="7.11454">
        <ele>910.59997558594</ele>
        <time>2023-05-21T07:23:30.000Z</time>
      </trkpt>
      <trkpt lat="47.84076" lon="7.11451">
        <ele>911</ele>
        <time>2023-05-21T07:23:32.000Z</time>
      </trkpt>
      <trkpt lat="47.8408" lon="7.11449">
        <ele>911.40002441406</ele>
        <time>2023-05-21T07:23:33.000Z</time>
      </trkpt>
      <trkpt lat="47.84084" lon="7.11447">
        <ele>911.79998779297</ele>
        <time>2023-05-21T07:23:34.000Z</time>
      </trkpt>
      <trkpt lat="47.84087" lon="7.11446">
        <ele>912.20001220703</ele>
        <time>2023-05-21T07:23:35.000Z</time>
      </trkpt>
      <trkpt lat="47.84089" lon="7.11445">
        <ele>912.59997558594</ele>
        <time>2023-05-21T07:23:36.000Z</time>
      </trkpt>
      <trkpt lat="47.84097" lon="7.11445">
        <ele>912.59997558594</ele>
        <time>2023-05-21T07:23:40.000Z</time>
      </trkpt>
      <trkpt lat="47.84103" lon="7.11445">
        <ele>913</ele>
        <time>2023-05-21T07:23:42.000Z</time>
      </trkpt>
      <trkpt lat="47.84108" lon="7.11447">
        <ele>913.40002441406</ele>
        <time>2023-05-21T07:23:43.000Z</time>
      </trkpt>
      <trkpt lat="47.84111" lon="7.11448">
        <ele>913.79998779297</ele>
        <time>2023-05-21T07:23:44.000Z</time>
      </trkpt>
      <trkpt lat="47.84114" lon="7.11448">
        <ele>914.59997558594</ele>
        <time>2023-05-21T07:23:45.000Z</time>
      </trkpt>
      <trkpt lat="47.84131" lon="7.11449">
        <ele>914.59997558594</ele>
        <time>2023-05-21T07:23:50.000Z</time>
      </trkpt>
      <trkpt lat="47.84146" lon="7.1146">
        <ele>914.59997558594</ele>
        <time>2023-05-21T07:23:56.000Z</time>
      </trkpt>
      <trkpt lat="47.84155" lon="7.11467">
        <ele>915</ele>
        <time>2023-05-21T07:24:00.000Z</time>
      </trkpt>
      <trkpt lat="47.84158" lon="7.11468">
        <ele>915.40002441406</ele>
        <time>2023-05-21T07:24:01.000Z</time>
      </trkpt>
      <trkpt lat="47.84161" lon="7.1147">
        <ele>915.79998779297</ele>
        <time>2023-05-21T07:24:02.000Z</time>
      </trkpt>
      <trkpt lat="47.84163" lon="7.11472">
        <ele>916.40002441406</ele>
        <time>2023-05-21T07:24:03.000Z</time>
      </trkpt>
      <trkpt lat="47.84165" lon="7.11475">
        <ele>916.79998779297</ele>
        <time>2023-05-21T07:24:04.000Z</time>
      </trkpt>
      <trkpt lat="47.84175" lon="7.11485">
        <ele>916.79998779297</ele>
        <time>2023-05-21T07:24:09.000Z</time>
      </trkpt>
      <trkpt lat="47.84177" lon="7.11487">
        <ele>917.20001220703</ele>
        <time>2023-05-21T07:24:10.000Z</time>
      </trkpt>
      <trkpt lat="47.84179" lon="7.11489">
        <ele>917.59997558594</ele>
        <time>2023-05-21T07:24:11.000Z</time>
      </trkpt>
      <trkpt lat="47.84181" lon="7.11492">
        <ele>918</ele>
        <time>2023-05-21T07:24:12.000Z</time>
      </trkpt>
      <trkpt lat="47.84183" lon="7.11494">
        <ele>918.40002441406</ele>
        <time>2023-05-21T07:24:13.000Z</time>
      </trkpt>
      <trkpt lat="47.84185" lon="7.11496">
        <ele>918.79998779297</ele>
        <time>2023-05-21T07:24:14.000Z</time>
      </trkpt>
      <trkpt lat="47.84188" lon="7.115">
        <ele>918.79998779297</ele>
        <time>2023-05-21T07:24:16.000Z</time>
      </trkpt>
      <trkpt lat="47.84201" lon="7.11513">
        <ele>918.79998779297</ele>
        <time>2023-05-21T07:24:22.000Z</time>
      </trkpt>
      <trkpt lat="47.84208" lon="7.11522">
        <ele>919.20001220703</ele>
        <time>2023-05-21T07:24:26.000Z</time>
      </trkpt>
      <trkpt lat="47.8421" lon="7.11524">
        <ele>919.59997558594</ele>
        <time>2023-05-21T07:24:27.000Z</time>
      </trkpt>
      <trkpt lat="47.84212" lon="7.11526">
        <ele>920</ele>
        <time>2023-05-21T07:24:28.000Z</time>
      </trkpt>
      <trkpt lat="47.84214" lon="7.11527">
        <ele>920.40002441406</ele>
        <time>2023-05-21T07:24:29.000Z</time>
      </trkpt>
      <trkpt lat="47.84217" lon="7.11529">
        <ele>920.79998779297</ele>
        <time>2023-05-21T07:24:30.000Z</time>
      </trkpt>
      <trkpt lat="47.84224" lon="7.11534">
        <ele>920.79998779297</ele>
        <time>2023-05-21T07:24:33.000Z</time>
      </trkpt>
      <trkpt lat="47.84229" lon="7.11538">
        <ele>921.79998779297</ele>
        <time>2023-05-21T07:24:35.000Z</time>
      </trkpt>
      <trkpt lat="47.8423" lon="7.11541">
        <ele>922.20001220703</ele>
        <time>2023-05-21T07:24:36.000Z</time>
      </trkpt>
      <trkpt lat="47.84232" lon="7.11543">
        <ele>922.59997558594</ele>
        <time>2023-05-21T07:24:37.000Z</time>
      </trkpt>
      <trkpt lat="47.84234" lon="7.11545">
        <ele>923</ele>
        <time>2023-05-21T07:24:38.000Z</time>
      </trkpt>
      <trkpt lat="47.84237" lon="7.11548">
        <ele>923</ele>
        <time>2023-05-21T07:24:39.000Z</time>
      </trkpt>
      <trkpt lat="47.84247" lon="7.11556">
        <ele>923.40002441406</ele>
        <time>2023-05-21T07:24:43.000Z</time>
      </trkpt>
      <trkpt lat="47.84249" lon="7.11558">
        <ele>923.79998779297</ele>
        <time>2023-05-21T07:24:44.000Z</time>
      </trkpt>
      <trkpt lat="47.84251" lon="7.1156">
        <ele>924.20001220703</ele>
        <time>2023-05-21T07:24:45.000Z</time>
      </trkpt>
      <trkpt lat="47.84254" lon="7.11563">
        <ele>924.59997558594</ele>
        <time>2023-05-21T07:24:46.000Z</time>
      </trkpt>
      <trkpt lat="47.84256" lon="7.11564">
        <ele>925</ele>
        <time>2023-05-21T07:24:47.000Z</time>
      </trkpt>
      <trkpt lat="47.84265" lon="7.11568">
        <ele>925</ele>
        <time>2023-05-21T07:24:50.000Z</time>
      </trkpt>
      <trkpt lat="47.84275" lon="7.11576">
        <ele>925.40002441406</ele>
        <time>2023-05-21T07:24:54.000Z</time>
      </trkpt>
      <trkpt lat="47.84277" lon="7.11578">
        <ele>925.79998779297</ele>
        <time>2023-05-21T07:24:55.000Z</time>
      </trkpt>
      <trkpt lat="47.84279" lon="7.1158">
        <ele>926.20001220703</ele>
        <time>2023-05-21T07:24:56.000Z</time>
      </trkpt>
      <trkpt lat="47.84281" lon="7.11582">
        <ele>926.59997558594</ele>
        <time>2023-05-21T07:24:57.000Z</time>
      </trkpt>
      <trkpt lat="47.84283" lon="7.11585">
        <ele>927</ele>
        <time>2023-05-21T07:24:58.000Z</time>
      </trkpt>
      <trkpt lat="47.84288" lon="7.11589">
        <ele>927.59997558594</ele>
        <time>2023-05-21T07:25:00.000Z</time>
      </trkpt>
      <trkpt lat="47.84289" lon="7.11591">
        <ele>928</ele>
        <time>2023-05-21T07:25:01.000Z</time>
      </trkpt>
      <trkpt lat="47.84291" lon="7.11593">
        <ele>928.40002441406</ele>
        <time>2023-05-21T07:25:02.000Z</time>
      </trkpt>
      <trkpt lat="47.84293" lon="7.11596">
        <ele>928.79998779297</ele>
        <time>2023-05-21T07:25:03.000Z</time>
      </trkpt>
      <trkpt lat="47.84296" lon="7.11599">
        <ele>929.20001220703</ele>
        <time>2023-05-21T07:25:04.000Z</time>
      </trkpt>
      <trkpt lat="47.84298" lon="7.11602">
        <ele>929.20001220703</ele>
        <time>2023-05-21T07:25:05.000Z</time>
      </trkpt>
      <trkpt lat="47.84302" lon="7.11609">
        <ele>929.59997558594</ele>
        <time>2023-05-21T07:25:07.000Z</time>
      </trkpt>
      <trkpt lat="47.84304" lon="7.11612">
        <ele>930</ele>
        <time>2023-05-21T07:25:08.000Z</time>
      </trkpt>
      <trkpt lat="47.84306" lon="7.11615">
        <ele>930.40002441406</ele>
        <time>2023-05-21T07:25:09.000Z</time>
      </trkpt>
      <trkpt lat="47.84307" lon="7.11618">
        <ele>930.79998779297</ele>
        <time>2023-05-21T07:25:10.000Z</time>
      </trkpt>
      <trkpt lat="47.84308" lon="7.11621">
        <ele>931.20001220703</ele>
        <time>2023-05-21T07:25:11.000Z</time>
      </trkpt>
      <trkpt lat="47.84317" lon="7.11631">
        <ele>931.79998779297</ele>
        <time>2023-05-21T07:25:16.000Z</time>
      </trkpt>
      <trkpt lat="47.84319" lon="7.11632">
        <ele>932.20001220703</ele>
        <time>2023-05-21T07:25:17.000Z</time>
      </trkpt>
      <trkpt lat="47.84322" lon="7.11634">
        <ele>932.59997558594</ele>
        <time>2023-05-21T07:25:18.000Z</time>
      </trkpt>
      <trkpt lat="47.84324" lon="7.11635">
        <ele>933</ele>
        <time>2023-05-21T07:25:19.000Z</time>
      </trkpt>
      <trkpt lat="47.84325" lon="7.11637">
        <ele>933.40002441406</ele>
        <time>2023-05-21T07:25:20.000Z</time>
      </trkpt>
      <trkpt lat="47.84328" lon="7.11641">
        <ele>933.40002441406</ele>
        <time>2023-05-21T07:25:22.000Z</time>
      </trkpt>
      <trkpt lat="47.84335" lon="7.11648">
        <ele>934</ele>
        <time>2023-05-21T07:25:25.000Z</time>
      </trkpt>
      <trkpt lat="47.84338" lon="7.11651">
        <ele>934.40002441406</ele>
        <time>2023-05-21T07:25:26.000Z</time>
      </trkpt>
      <trkpt lat="47.8434" lon="7.11653">
        <ele>934.79998779297</ele>
        <time>2023-05-21T07:25:27.000Z</time>
      </trkpt>
      <trkpt lat="47.84342" lon="7.11655">
        <ele>935.20001220703</ele>
        <time>2023-05-21T07:25:28.000Z</time>
      </trkpt>
      <trkpt lat="47.84344" lon="7.11657">
        <ele>935.59997558594</ele>
        <time>2023-05-21T07:25:29.000Z</time>
      </trkpt>
      <trkpt lat="47.84353" lon="7.11666">
        <ele>935.59997558594</ele>
        <time>2023-05-21T07:25:33.000Z</time>
      </trkpt>
      <trkpt lat="47.84371" lon="7.11684">
        <ele>935.59997558594</ele>
        <time>2023-05-21T07:25:40.000Z</time>
      </trkpt>
      <trkpt lat="47.84383" lon="7.11687">
        <ele>935.59997558594</ele>
        <time>2023-05-21T07:25:44.000Z</time>
      </trkpt>
      <trkpt lat="47.84399" lon="7.1169">
        <ele>935.59997558594</ele>
        <time>2023-05-21T07:25:51.000Z</time>
      </trkpt>
      <trkpt lat="47.84402" lon="7.1169">
        <ele>936</ele>
        <time>2023-05-21T07:25:52.000Z</time>
      </trkpt>
      <trkpt lat="47.84404" lon="7.1169">
        <ele>936.40002441406</ele>
        <time>2023-05-21T07:25:53.000Z</time>
      </trkpt>
      <trkpt lat="47.84407" lon="7.1169">
        <ele>937</ele>
        <time>2023-05-21T07:25:54.000Z</time>
      </trkpt>
      <trkpt lat="47.84409" lon="7.11689">
        <ele>937.40002441406</ele>
        <time>2023-05-21T07:25:55.000Z</time>
      </trkpt>
      <trkpt lat="47.84412" lon="7.11689">
        <ele>937.79998779297</ele>
        <time>2023-05-21T07:25:56.000Z</time>
      </trkpt>
      <trkpt lat="47.84424" lon="7.11689">
        <ele>937.79998779297</ele>
        <time>2023-05-21T07:26:00.000Z</time>
      </trkpt>
      <trkpt lat="47.84438" lon="7.11688">
        <ele>937.79998779297</ele>
        <time>2023-05-21T07:26:05.000Z</time>
      </trkpt>
      <trkpt lat="47.84454" lon="7.11688">
        <ele>937.79998779297</ele>
        <time>2023-05-21T07:26:11.000Z</time>
      </trkpt>
      <trkpt lat="47.84456" lon="7.11688">
        <ele>938.20001220703</ele>
        <time>2023-05-21T07:26:12.000Z</time>
      </trkpt>
      <trkpt lat="47.84458" lon="7.11688">
        <ele>938.59997558594</ele>
        <time>2023-05-21T07:26:13.000Z</time>
      </trkpt>
      <trkpt lat="47.84461" lon="7.11688">
        <ele>939.40002441406</ele>
        <time>2023-05-21T07:26:14.000Z</time>
      </trkpt>
      <trkpt lat="47.84465" lon="7.11688">
        <ele>939.79998779297</ele>
        <time>2023-05-21T07:26:15.000Z</time>
      </trkpt>
      <trkpt lat="47.84471" lon="7.11688">
        <ele>939.79998779297</ele>
        <time>2023-05-21T07:26:18.000Z</time>
      </trkpt>
      <trkpt lat="47.84488" lon="7.11689">
        <ele>939.79998779297</ele>
        <time>2023-05-21T07:26:24.000Z</time>
      </trkpt>
      <trkpt lat="47.84491" lon="7.11689">
        <ele>940.20001220703</ele>
        <time>2023-05-21T07:26:25.000Z</time>
      </trkpt>
      <trkpt lat="47.84493" lon="7.11689">
        <ele>940.59997558594</ele>
        <time>2023-05-21T07:26:26.000Z</time>
      </trkpt>
      <trkpt lat="47.84495" lon="7.11689">
        <ele>941.20001220703</ele>
        <time>2023-05-21T07:26:27.000Z</time>
      </trkpt>
      <trkpt lat="47.84497" lon="7.1169">
        <ele>941.59997558594</ele>
        <time>2023-05-21T07:26:28.000Z</time>
      </trkpt>
      <trkpt lat="47.845" lon="7.11689">
        <ele>942</ele>
        <time>2023-05-21T07:26:29.000Z</time>
      </trkpt>
      <trkpt lat="47.84506" lon="7.11689">
        <ele>942</ele>
        <time>2023-05-21T07:26:31.000Z</time>
      </trkpt>
      <trkpt lat="47.84527" lon="7.1169">
        <ele>942</ele>
        <time>2023-05-21T07:26:38.000Z</time>
      </trkpt>
      <trkpt lat="47.84543" lon="7.11694">
        <ele>942</ele>
        <time>2023-05-21T07:26:44.000Z</time>
      </trkpt>
      <trkpt lat="47.84554" lon="7.11696">
        <ele>942</ele>
        <time>2023-05-21T07:26:48.000Z</time>
      </trkpt>
      <trkpt lat="47.84563" lon="7.11695">
        <ele>942.40002441406</ele>
        <time>2023-05-21T07:26:52.000Z</time>
      </trkpt>
      <trkpt lat="47.84567" lon="7.11694">
        <ele>942.79998779297</ele>
        <time>2023-05-21T07:26:53.000Z</time>
      </trkpt>
      <trkpt lat="47.84569" lon="7.11694">
        <ele>943.20001220703</ele>
        <time>2023-05-21T07:26:54.000Z</time>
      </trkpt>
      <trkpt lat="47.84571" lon="7.11693">
        <ele>943.59997558594</ele>
        <time>2023-05-21T07:26:55.000Z</time>
      </trkpt>
      <trkpt lat="47.84574" lon="7.11692">
        <ele>944</ele>
        <time>2023-05-21T07:26:56.000Z</time>
      </trkpt>
      <trkpt lat="47.84583" lon="7.11688">
        <ele>944</ele>
        <time>2023-05-21T07:27:00.000Z</time>
      </trkpt>
      <trkpt lat="47.84599" lon="7.11687">
        <ele>944</ele>
        <time>2023-05-21T07:27:05.000Z</time>
      </trkpt>
      <trkpt lat="47.84613" lon="7.11685">
        <ele>944.40002441406</ele>
        <time>2023-05-21T07:27:10.000Z</time>
      </trkpt>
      <trkpt lat="47.84615" lon="7.11685">
        <ele>944.79998779297</ele>
        <time>2023-05-21T07:27:11.000Z</time>
      </trkpt>
      <trkpt lat="47.84617" lon="7.11685">
        <ele>945.20001220703</ele>
        <time>2023-05-21T07:27:12.000Z</time>
      </trkpt>
      <trkpt lat="47.84619" lon="7.11685">
        <ele>945.59997558594</ele>
        <time>2023-05-21T07:27:13.000Z</time>
      </trkpt>
      <trkpt lat="47.84621" lon="7.11685">
        <ele>946.20001220703</ele>
        <time>2023-05-21T07:27:14.000Z</time>
      </trkpt>
      <trkpt lat="47.84633" lon="7.11687">
        <ele>946.20001220703</ele>
        <time>2023-05-21T07:27:18.000Z</time>
      </trkpt>
      <trkpt lat="47.84639" lon="7.11688">
        <ele>946.59997558594</ele>
        <time>2023-05-21T07:27:20.000Z</time>
      </trkpt>
      <trkpt lat="47.84642" lon="7.11688">
        <ele>947</ele>
        <time>2023-05-21T07:27:21.000Z</time>
      </trkpt>
      <trkpt lat="47.84645" lon="7.11689">
        <ele>947.40002441406</ele>
        <time>2023-05-21T07:27:22.000Z</time>
      </trkpt>
      <trkpt lat="47.84646" lon="7.11689">
        <ele>947.79998779297</ele>
        <time>2023-05-21T07:27:23.000Z</time>
      </trkpt>
      <trkpt lat="47.84648" lon="7.11689">
        <ele>948.20001220703</ele>
        <time>2023-05-21T07:27:24.000Z</time>
      </trkpt>
      <trkpt lat="47.84656" lon="7.11689">
        <ele>949</ele>
        <time>2023-05-21T07:27:27.000Z</time>
      </trkpt>
      <trkpt lat="47.84659" lon="7.11689">
        <ele>949.40002441406</ele>
        <time>2023-05-21T07:27:28.000Z</time>
      </trkpt>
      <trkpt lat="47.84661" lon="7.1169">
        <ele>949.79998779297</ele>
        <time>2023-05-21T07:27:29.000Z</time>
      </trkpt>
      <trkpt lat="47.84662" lon="7.1169">
        <ele>950.20001220703</ele>
        <time>2023-05-21T07:27:30.000Z</time>
      </trkpt>
      <trkpt lat="47.84663" lon="7.11689">
        <ele>950.79998779297</ele>
        <time>2023-05-21T07:27:31.000Z</time>
      </trkpt>
      <trkpt lat="47.84665" lon="7.11689">
        <ele>951.20001220703</ele>
        <time>2023-05-21T07:27:32.000Z</time>
      </trkpt>
      <trkpt lat="47.84666" lon="7.11689">
        <ele>951.79998779297</ele>
        <time>2023-05-21T07:27:33.000Z</time>
      </trkpt>
      <trkpt lat="47.84668" lon="7.11689">
        <ele>952.20001220703</ele>
        <time>2023-05-21T07:27:34.000Z</time>
      </trkpt>
      <trkpt lat="47.84669" lon="7.11689">
        <ele>952.79998779297</ele>
        <time>2023-05-21T07:27:35.000Z</time>
      </trkpt>
      <trkpt lat="47.84676" lon="7.11689">
        <ele>953.20001220703</ele>
        <time>2023-05-21T07:27:38.000Z</time>
      </trkpt>
      <trkpt lat="47.84679" lon="7.1169">
        <ele>953.59997558594</ele>
        <time>2023-05-21T07:27:39.000Z</time>
      </trkpt>
      <trkpt lat="47.84681" lon="7.11691">
        <ele>954.20001220703</ele>
        <time>2023-05-21T07:27:40.000Z</time>
      </trkpt>
      <trkpt lat="47.84684" lon="7.11693">
        <ele>954.59997558594</ele>
        <time>2023-05-21T07:27:41.000Z</time>
      </trkpt>
      <trkpt lat="47.84686" lon="7.11694">
        <ele>955</ele>
        <time>2023-05-21T07:27:42.000Z</time>
      </trkpt>
      <trkpt lat="47.84698" lon="7.11702">
        <ele>955</ele>
        <time>2023-05-21T07:27:47.000Z</time>
      </trkpt>
      <trkpt lat="47.84702" lon="7.11705">
        <ele>955.40002441406</ele>
        <time>2023-05-21T07:27:49.000Z</time>
      </trkpt>
      <trkpt lat="47.84704" lon="7.11707">
        <ele>955.79998779297</ele>
        <time>2023-05-21T07:27:50.000Z</time>
      </trkpt>
      <trkpt lat="47.84706" lon="7.11709">
        <ele>956.20001220703</ele>
        <time>2023-05-21T07:27:51.000Z</time>
      </trkpt>
      <trkpt lat="47.84708" lon="7.1171">
        <ele>956.79998779297</ele>
        <time>2023-05-21T07:27:52.000Z</time>
      </trkpt>
      <trkpt lat="47.8471" lon="7.11713">
        <ele>957.20001220703</ele>
        <time>2023-05-21T07:27:53.000Z</time>
      </trkpt>
      <trkpt lat="47.84714" lon="7.11717">
        <ele>957.20001220703</ele>
        <time>2023-05-21T07:27:55.000Z</time>
      </trkpt>
      <trkpt lat="47.8473" lon="7.11729">
        <ele>957.20001220703</ele>
        <time>2023-05-21T07:28:01.000Z</time>
      </trkpt>
      <trkpt lat="47.84739" lon="7.11734">
        <ele>957.20001220703</ele>
        <time>2023-05-21T07:28:05.000Z</time>
      </trkpt>
      <trkpt lat="47.84755" lon="7.11743">
        <ele>957.59997558594</ele>
        <time>2023-05-21T07:28:11.000Z</time>
      </trkpt>
      <trkpt lat="47.84758" lon="7.11744">
        <ele>958</ele>
        <time>2023-05-21T07:28:12.000Z</time>
      </trkpt>
      <trkpt lat="47.8476" lon="7.11745">
        <ele>958.40002441406</ele>
        <time>2023-05-21T07:28:13.000Z</time>
      </trkpt>
      <trkpt lat="47.84763" lon="7.11746">
        <ele>958.79998779297</ele>
        <time>2023-05-21T07:28:14.000Z</time>
      </trkpt>
      <trkpt lat="47.84765" lon="7.11747">
        <ele>959.20001220703</ele>
        <time>2023-05-21T07:28:15.000Z</time>
      </trkpt>
      <trkpt lat="47.84773" lon="7.11751">
        <ele>959.20001220703</ele>
        <time>2023-05-21T07:28:18.000Z</time>
      </trkpt>
      <trkpt lat="47.84783" lon="7.11756">
        <ele>959.79998779297</ele>
        <time>2023-05-21T07:28:21.000Z</time>
      </trkpt>
      <trkpt lat="47.84786" lon="7.11757">
        <ele>960.20001220703</ele>
        <time>2023-05-21T07:28:22.000Z</time>
      </trkpt>
      <trkpt lat="47.84788" lon="7.11759">
        <ele>960.59997558594</ele>
        <time>2023-05-21T07:28:23.000Z</time>
      </trkpt>
      <trkpt lat="47.84791" lon="7.1176">
        <ele>961.20001220703</ele>
        <time>2023-05-21T07:28:24.000Z</time>
      </trkpt>
      <trkpt lat="47.84794" lon="7.1176">
        <ele>961.59997558594</ele>
        <time>2023-05-21T07:28:25.000Z</time>
      </trkpt>
      <trkpt lat="47.84812" lon="7.1177">
        <ele>961.59997558594</ele>
        <time>2023-05-21T07:28:31.000Z</time>
      </trkpt>
      <trkpt lat="47.84817" lon="7.11774">
        <ele>962</ele>
        <time>2023-05-21T07:28:34.000Z</time>
      </trkpt>
      <trkpt lat="47.8482" lon="7.11774">
        <ele>962.40002441406</ele>
        <time>2023-05-21T07:28:35.000Z</time>
      </trkpt>
      <trkpt lat="47.84822" lon="7.11775">
        <ele>962.79998779297</ele>
        <time>2023-05-21T07:28:36.000Z</time>
      </trkpt>
      <trkpt lat="47.84824" lon="7.11776">
        <ele>963.20001220703</ele>
        <time>2023-05-21T07:28:37.000Z</time>
      </trkpt>
      <trkpt lat="47.84826" lon="7.11776">
        <ele>963.59997558594</ele>
        <time>2023-05-21T07:28:38.000Z</time>
      </trkpt>
      <trkpt lat="47.84833" lon="7.11779">
        <ele>963.59997558594</ele>
        <time>2023-05-21T07:28:42.000Z</time>
      </trkpt>
      <trkpt lat="47.84835" lon="7.1178">
        <ele>964.20001220703</ele>
        <time>2023-05-21T07:28:43.000Z</time>
      </trkpt>
      <trkpt lat="47.84836" lon="7.11781">
        <ele>964.59997558594</ele>
        <time>2023-05-21T07:28:44.000Z</time>
      </trkpt>
      <trkpt lat="47.84838" lon="7.11781">
        <ele>965</ele>
        <time>2023-05-21T07:28:45.000Z</time>
      </trkpt>
      <trkpt lat="47.8484" lon="7.11783">
        <ele>965.40002441406</ele>
        <time>2023-05-21T07:28:46.000Z</time>
      </trkpt>
      <trkpt lat="47.84841" lon="7.11785">
        <ele>965.79998779297</ele>
        <time>2023-05-21T07:28:47.000Z</time>
      </trkpt>
      <trkpt lat="47.84843" lon="7.11786">
        <ele>965.79998779297</ele>
        <time>2023-05-21T07:28:48.000Z</time>
      </trkpt>
      <trkpt lat="47.84851" lon="7.11799">
        <ele>965.79998779297</ele>
        <time>2023-05-21T07:28:53.000Z</time>
      </trkpt>
      <trkpt lat="47.84853" lon="7.11801">
        <ele>966.20001220703</ele>
        <time>2023-05-21T07:28:54.000Z</time>
      </trkpt>
      <trkpt lat="47.84854" lon="7.11802">
        <ele>966.79998779297</ele>
        <time>2023-05-21T07:28:55.000Z</time>
      </trkpt>
      <trkpt lat="47.84856" lon="7.11804">
        <ele>967.20001220703</ele>
        <time>2023-05-21T07:28:56.000Z</time>
      </trkpt>
      <trkpt lat="47.84856" lon="7.11805">
        <ele>967.59997558594</ele>
        <time>2023-05-21T07:28:57.000Z</time>
      </trkpt>
      <trkpt lat="47.84857" lon="7.11807">
        <ele>968</ele>
        <time>2023-05-21T07:28:58.000Z</time>
      </trkpt>
      <trkpt lat="47.84857" lon="7.11809">
        <ele>968</ele>
        <time>2023-05-21T07:28:59.000Z</time>
      </trkpt>
      <trkpt lat="47.84857" lon="7.11816">
        <ele>968</ele>
        <time>2023-05-21T07:29:02.000Z</time>
      </trkpt>
      <trkpt lat="47.84859" lon="7.11824">
        <ele>968.40002441406</ele>
        <time>2023-05-21T07:29:04.000Z</time>
      </trkpt>
      <trkpt lat="47.8486" lon="7.11829">
        <ele>968.79998779297</ele>
        <time>2023-05-21T07:29:05.000Z</time>
      </trkpt>
      <trkpt lat="47.84861" lon="7.11834">
        <ele>969.20001220703</ele>
        <time>2023-05-21T07:29:06.000Z</time>
      </trkpt>
      <trkpt lat="47.84862" lon="7.11838">
        <ele>970</ele>
        <time>2023-05-21T07:29:07.000Z</time>
      </trkpt>
      <trkpt lat="47.84867" lon="7.11872">
        <ele>970</ele>
        <time>2023-05-21T07:29:13.000Z</time>
      </trkpt>
      <trkpt lat="47.84871" lon="7.11911">
        <ele>970</ele>
        <time>2023-05-21T07:29:20.000Z</time>
      </trkpt>
      <trkpt lat="47.84872" lon="7.11931">
        <ele>970</ele>
        <time>2023-05-21T07:29:24.000Z</time>
      </trkpt>
      <trkpt lat="47.84876" lon="7.11957">
        <ele>970</ele>
        <time>2023-05-21T07:29:29.000Z</time>
      </trkpt>
      <trkpt lat="47.84879" lon="7.11987">
        <ele>970</ele>
        <time>2023-05-21T07:29:34.000Z</time>
      </trkpt>
      <trkpt lat="47.84884" lon="7.1201">
        <ele>970</ele>
        <time>2023-05-21T07:29:39.000Z</time>
      </trkpt>
      <trkpt lat="47.84885" lon="7.12018">
        <ele>970</ele>
        <time>2023-05-21T07:29:41.000Z</time>
      </trkpt>
      <trkpt lat="47.84882" lon="7.12033">
        <ele>970</ele>
        <time>2023-05-21T07:29:44.000Z</time>
      </trkpt>
      <trkpt lat="47.8487" lon="7.12062">
        <ele>970</ele>
        <time>2023-05-21T07:29:49.000Z</time>
      </trkpt>
      <trkpt lat="47.84866" lon="7.12089">
        <ele>970</ele>
        <time>2023-05-21T07:29:53.000Z</time>
      </trkpt>
      <trkpt lat="47.84865" lon="7.12096">
        <ele>970</ele>
        <time>2023-05-21T07:29:54.000Z</time>
      </trkpt>
      <trkpt lat="47.84865" lon="7.12123">
        <ele>970</ele>
        <time>2023-05-21T07:29:59.000Z</time>
      </trkpt>
      <trkpt lat="47.84874" lon="7.12152">
        <ele>970</ele>
        <time>2023-05-21T07:30:05.000Z</time>
      </trkpt>
      <trkpt lat="47.84887" lon="7.12176">
        <ele>970</ele>
        <time>2023-05-21T07:30:11.000Z</time>
      </trkpt>
      <trkpt lat="47.84903" lon="7.12193">
        <ele>970</ele>
        <time>2023-05-21T07:30:17.000Z</time>
      </trkpt>
      <trkpt lat="47.84921" lon="7.12217">
        <ele>970</ele>
        <time>2023-05-21T07:30:24.000Z</time>
      </trkpt>
      <trkpt lat="47.84935" lon="7.12237">
        <ele>970</ele>
        <time>2023-05-21T07:30:30.000Z</time>
      </trkpt>
      <trkpt lat="47.8494" lon="7.12261">
        <ele>970</ele>
        <time>2023-05-21T07:30:35.000Z</time>
      </trkpt>
      <trkpt lat="47.84941" lon="7.12298">
        <ele>970</ele>
        <time>2023-05-21T07:30:42.000Z</time>
      </trkpt>
      <trkpt lat="47.84939" lon="7.12326">
        <ele>970</ele>
        <time>2023-05-21T07:30:47.000Z</time>
      </trkpt>
      <trkpt lat="47.84935" lon="7.12353">
        <ele>970</ele>
        <time>2023-05-21T07:30:52.000Z</time>
      </trkpt>
      <trkpt lat="47.84931" lon="7.12375">
        <ele>970</ele>
        <time>2023-05-21T07:30:56.000Z</time>
      </trkpt>
      <trkpt lat="47.84927" lon="7.12398">
        <ele>970</ele>
        <time>2023-05-21T07:31:00.000Z</time>
      </trkpt>
      <trkpt lat="47.84921" lon="7.12417">
        <ele>970</ele>
        <time>2023-05-21T07:31:03.000Z</time>
      </trkpt>
      <trkpt lat="47.84918" lon="7.12431">
        <ele>970</ele>
        <time>2023-05-21T07:31:05.000Z</time>
      </trkpt>
      <trkpt lat="47.84913" lon="7.1245">
        <ele>970</ele>
        <time>2023-05-21T07:31:08.000Z</time>
      </trkpt>
      <trkpt lat="47.84906" lon="7.12466">
        <ele>970</ele>
        <time>2023-05-21T07:31:11.000Z</time>
      </trkpt>
      <trkpt lat="47.84892" lon="7.12489">
        <ele>970</ele>
        <time>2023-05-21T07:31:17.000Z</time>
      </trkpt>
      <trkpt lat="47.84885" lon="7.12517">
        <ele>970</ele>
        <time>2023-05-21T07:31:23.000Z</time>
      </trkpt>
      <trkpt lat="47.84878" lon="7.12555">
        <ele>970</ele>
        <time>2023-05-21T07:31:31.000Z</time>
      </trkpt>
      <trkpt lat="47.84876" lon="7.12586">
        <ele>970</ele>
        <time>2023-05-21T07:31:37.000Z</time>
      </trkpt>
      <trkpt lat="47.8487" lon="7.12637">
        <ele>970</ele>
        <time>2023-05-21T07:31:46.000Z</time>
      </trkpt>
      <trkpt lat="47.84877" lon="7.1266">
        <ele>970</ele>
        <time>2023-05-21T07:31:51.000Z</time>
      </trkpt>
      <trkpt lat="47.84891" lon="7.1269">
        <ele>970</ele>
        <time>2023-05-21T07:31:58.000Z</time>
      </trkpt>
      <trkpt lat="47.84891" lon="7.12704">
        <ele>970</ele>
        <time>2023-05-21T07:32:02.000Z</time>
      </trkpt>
      <trkpt lat="47.8489" lon="7.12705">
        <ele>970</ele>
        <time>2023-05-21T07:32:03.000Z</time>
      </trkpt>
      <trkpt lat="47.84885" lon="7.12709">
        <ele>970</ele>
        <time>2023-05-21T07:32:06.000Z</time>
      </trkpt>
      <trkpt lat="47.84858" lon="7.12727">
        <ele>970</ele>
        <time>2023-05-21T07:32:12.000Z</time>
      </trkpt>
      <trkpt lat="47.8483" lon="7.12751">
        <ele>970</ele>
        <time>2023-05-21T07:32:19.000Z</time>
      </trkpt>
      <trkpt lat="47.84816" lon="7.12771">
        <ele>970</ele>
        <time>2023-05-21T07:32:24.000Z</time>
      </trkpt>
      <trkpt lat="47.84804" lon="7.12795">
        <ele>970</ele>
        <time>2023-05-21T07:32:30.000Z</time>
      </trkpt>
      <trkpt lat="47.84797" lon="7.12822">
        <ele>970</ele>
        <time>2023-05-21T07:32:36.000Z</time>
      </trkpt>
      <trkpt lat="47.84791" lon="7.1284">
        <ele>970</ele>
        <time>2023-05-21T07:32:40.000Z</time>
      </trkpt>
      <trkpt lat="47.84788" lon="7.12869">
        <ele>970</ele>
        <time>2023-05-21T07:32:46.000Z</time>
      </trkpt>
      <trkpt lat="47.84779" lon="7.12895">
        <ele>970</ele>
        <time>2023-05-21T07:32:52.000Z</time>
      </trkpt>
      <trkpt lat="47.84777" lon="7.12898">
        <ele>970</ele>
        <time>2023-05-21T07:32:53.000Z</time>
      </trkpt>
      <trkpt lat="47.84769" lon="7.129">
        <ele>970</ele>
        <time>2023-05-21T07:32:55.000Z</time>
      </trkpt>
      <trkpt lat="47.84758" lon="7.12893">
        <ele>970</ele>
        <time>2023-05-21T07:32:59.000Z</time>
      </trkpt>
      <trkpt lat="47.84741" lon="7.12876">
        <ele>970</ele>
        <time>2023-05-21T07:33:05.000Z</time>
      </trkpt>
      <trkpt lat="47.84729" lon="7.12865">
        <ele>970</ele>
        <time>2023-05-21T07:33:10.000Z</time>
      </trkpt>
      <trkpt lat="47.84714" lon="7.12856">
        <ele>970</ele>
        <time>2023-05-21T07:33:15.000Z</time>
      </trkpt>
      <trkpt lat="47.84698" lon="7.12845">
        <ele>970</ele>
        <time>2023-05-21T07:33:20.000Z</time>
      </trkpt>
      <trkpt lat="47.84679" lon="7.1282">
        <ele>970</ele>
        <time>2023-05-21T07:33:26.000Z</time>
      </trkpt>
      <trkpt lat="47.84654" lon="7.12785">
        <ele>970</ele>
        <time>2023-05-21T07:33:34.000Z</time>
      </trkpt>
      <trkpt lat="47.84634" lon="7.12753">
        <ele>970</ele>
        <time>2023-05-21T07:33:41.000Z</time>
      </trkpt>
      <trkpt lat="47.84616" lon="7.12729">
        <ele>970</ele>
        <time>2023-05-21T07:33:47.000Z</time>
      </trkpt>
      <trkpt lat="47.8461" lon="7.12727">
        <ele>970</ele>
        <time>2023-05-21T07:33:49.000Z</time>
      </trkpt>
      <trkpt lat="47.84604" lon="7.12729">
        <ele>970</ele>
        <time>2023-05-21T07:33:51.000Z</time>
      </trkpt>
      <trkpt lat="47.84588" lon="7.12741">
        <ele>970</ele>
        <time>2023-05-21T07:33:56.000Z</time>
      </trkpt>
      <trkpt lat="47.8458" lon="7.12763">
        <ele>970</ele>
        <time>2023-05-21T07:34:00.000Z</time>
      </trkpt>
      <trkpt lat="47.84578" lon="7.12787">
        <ele>970</ele>
        <time>2023-05-21T07:34:05.000Z</time>
      </trkpt>
      <trkpt lat="47.84581" lon="7.12824">
        <ele>970</ele>
        <time>2023-05-21T07:34:12.000Z</time>
      </trkpt>
      <trkpt lat="47.84583" lon="7.12865">
        <ele>970</ele>
        <time>2023-05-21T07:34:19.000Z</time>
      </trkpt>
      <trkpt lat="47.84584" lon="7.1289">
        <ele>970</ele>
        <time>2023-05-21T07:34:24.000Z</time>
      </trkpt>
      <trkpt lat="47.8458" lon="7.12908">
        <ele>970</ele>
        <time>2023-05-21T07:34:28.000Z</time>
      </trkpt>
      <trkpt lat="47.84569" lon="7.12929">
        <ele>970</ele>
        <time>2023-05-21T07:34:32.000Z</time>
      </trkpt>
      <trkpt lat="47.84559" lon="7.12946">
        <ele>970</ele>
        <time>2023-05-21T07:34:36.000Z</time>
      </trkpt>
      <trkpt lat="47.84551" lon="7.12956">
        <ele>970.40002441406</ele>
        <time>2023-05-21T07:34:39.000Z</time>
      </trkpt>
      <trkpt lat="47.84549" lon="7.1296">
        <ele>971</ele>
        <time>2023-05-21T07:34:40.000Z</time>
      </trkpt>
      <trkpt lat="47.84547" lon="7.12964">
        <ele>971.40002441406</ele>
        <time>2023-05-21T07:34:41.000Z</time>
      </trkpt>
      <trkpt lat="47.84545" lon="7.12966">
        <ele>971.79998779297</ele>
        <time>2023-05-21T07:34:42.000Z</time>
      </trkpt>
      <trkpt lat="47.84543" lon="7.12969">
        <ele>972.20001220703</ele>
        <time>2023-05-21T07:34:43.000Z</time>
      </trkpt>
      <trkpt lat="47.84532" lon="7.12984">
        <ele>972.59997558594</ele>
        <time>2023-05-21T07:34:48.000Z</time>
      </trkpt>
      <trkpt lat="47.8453" lon="7.12987">
        <ele>973</ele>
        <time>2023-05-21T07:34:49.000Z</time>
      </trkpt>
      <trkpt lat="47.8453" lon="7.12989">
        <ele>973.40002441406</ele>
        <time>2023-05-21T07:34:50.000Z</time>
      </trkpt>
      <trkpt lat="47.8453" lon="7.12991">
        <ele>973.79998779297</ele>
        <time>2023-05-21T07:34:51.000Z</time>
      </trkpt>
      <trkpt lat="47.84531" lon="7.12992">
        <ele>974.20001220703</ele>
        <time>2023-05-21T07:34:52.000Z</time>
      </trkpt>
      <trkpt lat="47.84532" lon="7.12992">
        <ele>974.20001220703</ele>
        <time>2023-05-21T07:34:53.000Z</time>
      </trkpt>
      <trkpt lat="47.84537" lon="7.12987">
        <ele>974.20001220703</ele>
        <time>2023-05-21T07:34:58.000Z</time>
      </trkpt>
      <trkpt lat="47.84542" lon="7.12982">
        <ele>974.59997558594</ele>
        <time>2023-05-21T07:35:01.000Z</time>
      </trkpt>
      <trkpt lat="47.84544" lon="7.1298">
        <ele>975.20001220703</ele>
        <time>2023-05-21T07:35:02.000Z</time>
      </trkpt>
      <trkpt lat="47.84546" lon="7.12979">
        <ele>975.59997558594</ele>
        <time>2023-05-21T07:35:03.000Z</time>
      </trkpt>
      <trkpt lat="47.84548" lon="7.12977">
        <ele>976</ele>
        <time>2023-05-21T07:35:04.000Z</time>
      </trkpt>
      <trkpt lat="47.8455" lon="7.12975">
        <ele>976.40002441406</ele>
        <time>2023-05-21T07:35:05.000Z</time>
      </trkpt>
      <trkpt lat="47.8456" lon="7.12967">
        <ele>977</ele>
        <time>2023-05-21T07:35:09.000Z</time>
      </trkpt>
      <trkpt lat="47.84562" lon="7.12965">
        <ele>977.40002441406</ele>
        <time>2023-05-21T07:35:10.000Z</time>
      </trkpt>
      <trkpt lat="47.84564" lon="7.12963">
        <ele>977.79998779297</ele>
        <time>2023-05-21T07:35:11.000Z</time>
      </trkpt>
      <trkpt lat="47.84565" lon="7.12961">
        <ele>978.20001220703</ele>
        <time>2023-05-21T07:35:12.000Z</time>
      </trkpt>
      <trkpt lat="47.84567" lon="7.12958">
        <ele>978.79998779297</ele>
        <time>2023-05-21T07:35:13.000Z</time>
      </trkpt>
      <trkpt lat="47.84573" lon="7.12951">
        <ele>979.20001220703</ele>
        <time>2023-05-21T07:35:16.000Z</time>
      </trkpt>
      <trkpt lat="47.84575" lon="7.12949">
        <ele>980.20001220703</ele>
        <time>2023-05-21T07:35:17.000Z</time>
      </trkpt>
      <trkpt lat="47.84578" lon="7.12946">
        <ele>980.59997558594</ele>
        <time>2023-05-21T07:35:18.000Z</time>
      </trkpt>
      <trkpt lat="47.8458" lon="7.12945">
        <ele>981</ele>
        <time>2023-05-21T07:35:19.000Z</time>
      </trkpt>
      <trkpt lat="47.84584" lon="7.1294">
        <ele>981.40002441406</ele>
        <time>2023-05-21T07:35:21.000Z</time>
      </trkpt>
      <trkpt lat="47.84586" lon="7.12937">
        <ele>981.79998779297</ele>
        <time>2023-05-21T07:35:22.000Z</time>
      </trkpt>
      <trkpt lat="47.84588" lon="7.12935">
        <ele>982.20001220703</ele>
        <time>2023-05-21T07:35:23.000Z</time>
      </trkpt>
      <trkpt lat="47.8459" lon="7.12933">
        <ele>982.59997558594</ele>
        <time>2023-05-21T07:35:24.000Z</time>
      </trkpt>
      <trkpt lat="47.84592" lon="7.1293">
        <ele>983</ele>
        <time>2023-05-21T07:35:25.000Z</time>
      </trkpt>
      <trkpt lat="47.84596" lon="7.12925">
        <ele>983</ele>
        <time>2023-05-21T07:35:27.000Z</time>
      </trkpt>
      <trkpt lat="47.84598" lon="7.12923">
        <ele>983.40002441406</ele>
        <time>2023-05-21T07:35:28.000Z</time>
      </trkpt>
      <trkpt lat="47.846" lon="7.1292">
        <ele>983.79998779297</ele>
        <time>2023-05-21T07:35:29.000Z</time>
      </trkpt>
      <trkpt lat="47.84602" lon="7.12917">
        <ele>984.20001220703</ele>
        <time>2023-05-21T07:35:30.000Z</time>
      </trkpt>
      <trkpt lat="47.84605" lon="7.12914">
        <ele>984.59997558594</ele>
        <time>2023-05-21T07:35:31.000Z</time>
      </trkpt>
      <trkpt lat="47.84606" lon="7.1291">
        <ele>985</ele>
        <time>2023-05-21T07:35:32.000Z</time>
      </trkpt>
      <trkpt lat="47.84611" lon="7.129">
        <ele>985.40002441406</ele>
        <time>2023-05-21T07:35:35.000Z</time>
      </trkpt>
      <trkpt lat="47.84612" lon="7.12896">
        <ele>986</ele>
        <time>2023-05-21T07:35:36.000Z</time>
      </trkpt>
      <trkpt lat="47.84613" lon="7.12893">
        <ele>986.40002441406</ele>
        <time>2023-05-21T07:35:37.000Z</time>
      </trkpt>
      <trkpt lat="47.84614" lon="7.12889">
        <ele>986.79998779297</ele>
        <time>2023-05-21T07:35:38.000Z</time>
      </trkpt>
      <trkpt lat="47.84615" lon="7.12885">
        <ele>987.20001220703</ele>
        <time>2023-05-21T07:35:39.000Z</time>
      </trkpt>
      <trkpt lat="47.84616" lon="7.12882">
        <ele>987.20001220703</ele>
        <time>2023-05-21T07:35:40.000Z</time>
      </trkpt>
      <trkpt lat="47.84619" lon="7.12876">
        <ele>987.79998779297</ele>
        <time>2023-05-21T07:35:42.000Z</time>
      </trkpt>
      <trkpt lat="47.84621" lon="7.12874">
        <ele>988.20001220703</ele>
        <time>2023-05-21T07:35:43.000Z</time>
      </trkpt>
      <trkpt lat="47.84622" lon="7.12871">
        <ele>988.59997558594</ele>
        <time>2023-05-21T07:35:44.000Z</time>
      </trkpt>
      <trkpt lat="47.84623" lon="7.12867">
        <ele>989.20001220703</ele>
        <time>2023-05-21T07:35:45.000Z</time>
      </trkpt>
      <trkpt lat="47.84624" lon="7.12864">
        <ele>989.59997558594</ele>
        <time>2023-05-21T07:35:46.000Z</time>
      </trkpt>
      <trkpt lat="47.84628" lon="7.12859">
        <ele>990</ele>
        <time>2023-05-21T07:35:48.000Z</time>
      </trkpt>
      <trkpt lat="47.8463" lon="7.12857">
        <ele>990.40002441406</ele>
        <time>2023-05-21T07:35:49.000Z</time>
      </trkpt>
      <trkpt lat="47.84631" lon="7.12856">
        <ele>990.79998779297</ele>
        <time>2023-05-21T07:35:50.000Z</time>
      </trkpt>
      <trkpt lat="47.84634" lon="7.12856">
        <ele>991.20001220703</ele>
        <time>2023-05-21T07:35:51.000Z</time>
      </trkpt>
      <trkpt lat="47.84637" lon="7.12856">
        <ele>991.59997558594</ele>
        <time>2023-05-21T07:35:52.000Z</time>
      </trkpt>
      <trkpt lat="47.84642" lon="7.12858">
        <ele>991.59997558594</ele>
        <time>2023-05-21T07:35:54.000Z</time>
      </trkpt>
      <trkpt lat="47.84645" lon="7.12861">
        <ele>992.20001220703</ele>
        <time>2023-05-21T07:35:55.000Z</time>
      </trkpt>
      <trkpt lat="47.84647" lon="7.12863">
        <ele>992.59997558594</ele>
        <time>2023-05-21T07:35:56.000Z</time>
      </trkpt>
      <trkpt lat="47.84649" lon="7.12866">
        <ele>993</ele>
        <time>2023-05-21T07:35:57.000Z</time>
      </trkpt>
      <trkpt lat="47.84651" lon="7.12868">
        <ele>993.40002441406</ele>
        <time>2023-05-21T07:35:58.000Z</time>
      </trkpt>
      <trkpt lat="47.84653" lon="7.12871">
        <ele>993.79998779297</ele>
        <time>2023-05-21T07:35:59.000Z</time>
      </trkpt>
      <trkpt lat="47.84657" lon="7.1288">
        <ele>994.20001220703</ele>
        <time>2023-05-21T07:36:02.000Z</time>
      </trkpt>
      <trkpt lat="47.84659" lon="7.12883">
        <ele>994.79998779297</ele>
        <time>2023-05-21T07:36:03.000Z</time>
      </trkpt>
      <trkpt lat="47.84661" lon="7.12887">
        <ele>995.20001220703</ele>
        <time>2023-05-21T07:36:04.000Z</time>
      </trkpt>
      <trkpt lat="47.84662" lon="7.12891">
        <ele>996</ele>
        <time>2023-05-21T07:36:05.000Z</time>
      </trkpt>
      <trkpt lat="47.84667" lon="7.12902">
        <ele>996.40002441406</ele>
        <time>2023-05-21T07:36:08.000Z</time>
      </trkpt>
      <trkpt lat="47.84669" lon="7.12906">
        <ele>996.79998779297</ele>
        <time>2023-05-21T07:36:09.000Z</time>
      </trkpt>
      <trkpt lat="47.8467" lon="7.12909">
        <ele>997.20001220703</ele>
        <time>2023-05-21T07:36:10.000Z</time>
      </trkpt>
      <trkpt lat="47.84672" lon="7.12913">
        <ele>997.59997558594</ele>
        <time>2023-05-21T07:36:11.000Z</time>
      </trkpt>
      <trkpt lat="47.84674" lon="7.12917">
        <ele>998</ele>
        <time>2023-05-21T07:36:12.000Z</time>
      </trkpt>
      <trkpt lat="47.84683" lon="7.1293">
        <ele>998.40002441406</ele>
        <time>2023-05-21T07:36:16.000Z</time>
      </trkpt>
      <trkpt lat="47.84684" lon="7.12933">
        <ele>998.79998779297</ele>
        <time>2023-05-21T07:36:17.000Z</time>
      </trkpt>
      <trkpt lat="47.84686" lon="7.12935">
        <ele>999.20001220703</ele>
        <time>2023-05-21T07:36:18.000Z</time>
      </trkpt>
      <trkpt lat="47.84689" lon="7.12938">
        <ele>999.59997558594</ele>
        <time>2023-05-21T07:36:19.000Z</time>
      </trkpt>
      <trkpt lat="47.8469" lon="7.12941">
        <ele>1000</ele>
        <time>2023-05-21T07:36:20.000Z</time>
      </trkpt>
      <trkpt lat="47.84692" lon="7.12944">
        <ele>1000</ele>
        <time>2023-05-21T07:36:21.000Z</time>
      </trkpt>
      <trkpt lat="47.84698" lon="7.12954">
        <ele>1000.4000244141</ele>
        <time>2023-05-21T07:36:24.000Z</time>
      </trkpt>
      <trkpt lat="47.847" lon="7.12956">
        <ele>1001</ele>
        <time>2023-05-21T07:36:25.000Z</time>
      </trkpt>
      <trkpt lat="47.84702" lon="7.12958">
        <ele>1001.4000244141</ele>
        <time>2023-05-21T07:36:26.000Z</time>
      </trkpt>
      <trkpt lat="47.84703" lon="7.1296">
        <ele>1001.799987793</ele>
        <time>2023-05-21T07:36:27.000Z</time>
      </trkpt>
      <trkpt lat="47.84706" lon="7.12961">
        <ele>1002.200012207</ele>
        <time>2023-05-21T07:36:28.000Z</time>
      </trkpt>
      <trkpt lat="47.84709" lon="7.12966">
        <ele>1003</ele>
        <time>2023-05-21T07:36:30.000Z</time>
      </trkpt>
      <trkpt lat="47.8471" lon="7.12969">
        <ele>1003.5999755859</ele>
        <time>2023-05-21T07:36:31.000Z</time>
      </trkpt>
      <trkpt lat="47.84712" lon="7.12972">
        <ele>1004</ele>
        <time>2023-05-21T07:36:32.000Z</time>
      </trkpt>
      <trkpt lat="47.84713" lon="7.12975">
        <ele>1004.4000244141</ele>
        <time>2023-05-21T07:36:33.000Z</time>
      </trkpt>
      <trkpt lat="47.84717" lon="7.12984">
        <ele>1004.4000244141</ele>
        <time>2023-05-21T07:36:36.000Z</time>
      </trkpt>
      <trkpt lat="47.84719" lon="7.12988">
        <ele>1004.799987793</ele>
        <time>2023-05-21T07:36:37.000Z</time>
      </trkpt>
      <trkpt lat="47.84721" lon="7.1299">
        <ele>1005.200012207</ele>
        <time>2023-05-21T07:36:38.000Z</time>
      </trkpt>
      <trkpt lat="47.84723" lon="7.12992">
        <ele>1005.5999755859</ele>
        <time>2023-05-21T07:36:39.000Z</time>
      </trkpt>
      <trkpt lat="47.84726" lon="7.12995">
        <ele>1006</ele>
        <time>2023-05-21T07:36:40.000Z</time>
      </trkpt>
      <trkpt lat="47.84728" lon="7.12997">
        <ele>1006.5999755859</ele>
        <time>2023-05-21T07:36:41.000Z</time>
      </trkpt>
      <trkpt lat="47.84741" lon="7.1301">
        <ele>1006.5999755859</ele>
        <time>2023-05-21T07:36:47.000Z</time>
      </trkpt>
      <trkpt lat="47.84746" lon="7.13014">
        <ele>1007</ele>
        <time>2023-05-21T07:36:49.000Z</time>
      </trkpt>
      <trkpt lat="47.84749" lon="7.13016">
        <ele>1007.4000244141</ele>
        <time>2023-05-21T07:36:50.000Z</time>
      </trkpt>
      <trkpt lat="47.8475" lon="7.13018">
        <ele>1007.799987793</ele>
        <time>2023-05-21T07:36:51.000Z</time>
      </trkpt>
      <trkpt lat="47.84752" lon="7.13021">
        <ele>1008.200012207</ele>
        <time>2023-05-21T07:36:52.000Z</time>
      </trkpt>
      <trkpt lat="47.84754" lon="7.13023">
        <ele>1008.5999755859</ele>
        <time>2023-05-21T07:36:53.000Z</time>
      </trkpt>
      <trkpt lat="47.84759" lon="7.13026">
        <ele>1008.5999755859</ele>
        <time>2023-05-21T07:36:55.000Z</time>
      </trkpt>
      <trkpt lat="47.84763" lon="7.1303">
        <ele>1009</ele>
        <time>2023-05-21T07:36:57.000Z</time>
      </trkpt>
      <trkpt lat="47.84766" lon="7.13031">
        <ele>1009.4000244141</ele>
        <time>2023-05-21T07:36:58.000Z</time>
      </trkpt>
      <trkpt lat="47.84768" lon="7.13032">
        <ele>1009.799987793</ele>
        <time>2023-05-21T07:36:59.000Z</time>
      </trkpt>
      <trkpt lat="47.8477" lon="7.13033">
        <ele>1010.200012207</ele>
        <time>2023-05-21T07:37:00.000Z</time>
      </trkpt>
      <trkpt lat="47.84773" lon="7.13033">
        <ele>1010.5999755859</ele>
        <time>2023-05-21T07:37:01.000Z</time>
      </trkpt>
      <trkpt lat="47.84779" lon="7.13033">
        <ele>1011</ele>
        <time>2023-05-21T07:37:04.000Z</time>
      </trkpt>
      <trkpt lat="47.84782" lon="7.13034">
        <ele>1011.5999755859</ele>
        <time>2023-05-21T07:37:05.000Z</time>
      </trkpt>
      <trkpt lat="47.84784" lon="7.13034">
        <ele>1012</ele>
        <time>2023-05-21T07:37:06.000Z</time>
      </trkpt>
      <trkpt lat="47.84786" lon="7.13034">
        <ele>1012.4000244141</ele>
        <time>2023-05-21T07:37:07.000Z</time>
      </trkpt>
      <trkpt lat="47.84793" lon="7.13037">
        <ele>1012.799987793</ele>
        <time>2023-05-21T07:37:08.000Z</time>
      </trkpt>
      <trkpt lat="47.84808" lon="7.13041">
        <ele>1013.200012207</ele>
        <time>2023-05-21T07:37:12.000Z</time>
      </trkpt>
      <trkpt lat="47.84811" lon="7.13041">
        <ele>1013.799987793</ele>
        <time>2023-05-21T07:37:13.000Z</time>
      </trkpt>
      <trkpt lat="47.84814" lon="7.13041">
        <ele>1014.200012207</ele>
        <time>2023-05-21T07:37:14.000Z</time>
      </trkpt>
      <trkpt lat="47.84817" lon="7.13041">
        <ele>1014.5999755859</ele>
        <time>2023-05-21T07:37:15.000Z</time>
      </trkpt>
      <trkpt lat="47.84819" lon="7.1304">
        <ele>1015</ele>
        <time>2023-05-21T07:37:16.000Z</time>
      </trkpt>
      <trkpt lat="47.84822" lon="7.13039">
        <ele>1015</ele>
        <time>2023-05-21T07:37:17.000Z</time>
      </trkpt>
      <trkpt lat="47.84826" lon="7.13033">
        <ele>1016</ele>
        <time>2023-05-21T07:37:20.000Z</time>
      </trkpt>
      <trkpt lat="47.84828" lon="7.1303">
        <ele>1016.4000244141</ele>
        <time>2023-05-21T07:37:21.000Z</time>
      </trkpt>
      <trkpt lat="47.8483" lon="7.13026">
        <ele>1016.799987793</ele>
        <time>2023-05-21T07:37:22.000Z</time>
      </trkpt>
      <trkpt lat="47.84831" lon="7.13023">
        <ele>1017.200012207</ele>
        <time>2023-05-21T07:37:23.000Z</time>
      </trkpt>
      <trkpt lat="47.84833" lon="7.13019">
        <ele>1017.200012207</ele>
        <time>2023-05-21T07:37:24.000Z</time>
      </trkpt>
      <trkpt lat="47.84835" lon="7.1301">
        <ele>1017.5999755859</ele>
        <time>2023-05-21T07:37:27.000Z</time>
      </trkpt>
      <trkpt lat="47.84836" lon="7.13005">
        <ele>1018</ele>
        <time>2023-05-21T07:37:28.000Z</time>
      </trkpt>
      <trkpt lat="47.84837" lon="7.13001">
        <ele>1018.5999755859</ele>
        <time>2023-05-21T07:37:29.000Z</time>
      </trkpt>
      <trkpt lat="47.84838" lon="7.12996">
        <ele>1019</ele>
        <time>2023-05-21T07:37:30.000Z</time>
      </trkpt>
      <trkpt lat="47.84839" lon="7.12992">
        <ele>1019.4000244141</ele>
        <time>2023-05-21T07:37:31.000Z</time>
      </trkpt>
      <trkpt lat="47.8484" lon="7.12978">
        <ele>1019.4000244141</ele>
        <time>2023-05-21T07:37:34.000Z</time>
      </trkpt>
      <trkpt lat="47.8484" lon="7.12969">
        <ele>1019.799987793</ele>
        <time>2023-05-21T07:37:36.000Z</time>
      </trkpt>
      <trkpt lat="47.8484" lon="7.12964">
        <ele>1020.200012207</ele>
        <time>2023-05-21T07:37:37.000Z</time>
      </trkpt>
      <trkpt lat="47.84841" lon="7.12958">
        <ele>1020.5999755859</ele>
        <time>2023-05-21T07:37:38.000Z</time>
      </trkpt>
      <trkpt lat="47.84841" lon="7.12953">
        <ele>1021</ele>
        <time>2023-05-21T07:37:39.000Z</time>
      </trkpt>
      <trkpt lat="47.84842" lon="7.12948">
        <ele>1021.4000244141</ele>
        <time>2023-05-21T07:37:40.000Z</time>
      </trkpt>
      <trkpt lat="47.84846" lon="7.12925">
        <ele>1021.4000244141</ele>
        <time>2023-05-21T07:37:45.000Z</time>
      </trkpt>
      <trkpt lat="47.84859" lon="7.129">
        <ele>1021.4000244141</ele>
        <time>2023-05-21T07:37:51.000Z</time>
      </trkpt>
      <trkpt lat="47.84869" lon="7.12883">
        <ele>1021.799987793</ele>
        <time>2023-05-21T07:37:56.000Z</time>
      </trkpt>
      <trkpt lat="47.84872" lon="7.1288">
        <ele>1022.200012207</ele>
        <time>2023-05-21T07:37:57.000Z</time>
      </trkpt>
      <trkpt lat="47.84875" lon="7.12877">
        <ele>1022.5999755859</ele>
        <time>2023-05-21T07:37:58.000Z</time>
      </trkpt>
      <trkpt lat="47.84877" lon="7.12875">
        <ele>1023</ele>
        <time>2023-05-21T07:37:59.000Z</time>
      </trkpt>
      <trkpt lat="47.8488" lon="7.12873">
        <ele>1023.4000244141</ele>
        <time>2023-05-21T07:38:00.000Z</time>
      </trkpt>
      <trkpt lat="47.84887" lon="7.12868">
        <ele>1023.4000244141</ele>
        <time>2023-05-21T07:38:03.000Z</time>
      </trkpt>
      <trkpt lat="47.84892" lon="7.12861">
        <ele>1023.799987793</ele>
        <time>2023-05-21T07:38:06.000Z</time>
      </trkpt>
      <trkpt lat="47.84895" lon="7.12859">
        <ele>1024.1999511719</ele>
        <time>2023-05-21T07:38:07.000Z</time>
      </trkpt>
      <trkpt lat="47.84897" lon="7.12857">
        <ele>1024.5999755859</ele>
        <time>2023-05-21T07:38:08.000Z</time>
      </trkpt>
      <trkpt lat="47.84899" lon="7.12854">
        <ele>1025.5999755859</ele>
        <time>2023-05-21T07:38:09.000Z</time>
      </trkpt>
      <trkpt lat="47.84909" lon="7.12849">
        <ele>1025.5999755859</ele>
        <time>2023-05-21T07:38:13.000Z</time>
      </trkpt>
      <trkpt lat="47.84911" lon="7.12847">
        <ele>1026</ele>
        <time>2023-05-21T07:38:14.000Z</time>
      </trkpt>
      <trkpt lat="47.84913" lon="7.12845">
        <ele>1026.4000244141</ele>
        <time>2023-05-21T07:38:15.000Z</time>
      </trkpt>
      <trkpt lat="47.84916" lon="7.12843">
        <ele>1026.8000488281</ele>
        <time>2023-05-21T07:38:16.000Z</time>
      </trkpt>
      <trkpt lat="47.84918" lon="7.12841">
        <ele>1027.1999511719</ele>
        <time>2023-05-21T07:38:17.000Z</time>
      </trkpt>
      <trkpt lat="47.84921" lon="7.12839">
        <ele>1027.8000488281</ele>
        <time>2023-05-21T07:38:18.000Z</time>
      </trkpt>
      <trkpt lat="47.84924" lon="7.12836">
        <ele>1027.8000488281</ele>
        <time>2023-05-21T07:38:19.000Z</time>
      </trkpt>
      <trkpt lat="47.84938" lon="7.12827">
        <ele>1027.8000488281</ele>
        <time>2023-05-21T07:38:24.000Z</time>
      </trkpt>
      <trkpt lat="47.84943" lon="7.12824">
        <ele>1028.1999511719</ele>
        <time>2023-05-21T07:38:26.000Z</time>
      </trkpt>
      <trkpt lat="47.84945" lon="7.12821">
        <ele>1028.5999755859</ele>
        <time>2023-05-21T07:38:27.000Z</time>
      </trkpt>
      <trkpt lat="47.84948" lon="7.12818">
        <ele>1029</ele>
        <time>2023-05-21T07:38:28.000Z</time>
      </trkpt>
      <trkpt lat="47.8495" lon="7.12815">
        <ele>1029.4000244141</ele>
        <time>2023-05-21T07:38:29.000Z</time>
      </trkpt>
      <trkpt lat="47.84953" lon="7.12813">
        <ele>1030</ele>
        <time>2023-05-21T07:38:30.000Z</time>
      </trkpt>
      <trkpt lat="47.84964" lon="7.12802">
        <ele>1030.4000244141</ele>
        <time>2023-05-21T07:38:34.000Z</time>
      </trkpt>
      <trkpt lat="47.84966" lon="7.128">
        <ele>1030.8000488281</ele>
        <time>2023-05-21T07:38:35.000Z</time>
      </trkpt>
      <trkpt lat="47.84968" lon="7.12798">
        <ele>1031.1999511719</ele>
        <time>2023-05-21T07:38:36.000Z</time>
      </trkpt>
      <trkpt lat="47.8497" lon="7.12796">
        <ele>1031.5999755859</ele>
        <time>2023-05-21T07:38:37.000Z</time>
      </trkpt>
      <trkpt lat="47.84972" lon="7.12794">
        <ele>1032</ele>
        <time>2023-05-21T07:38:38.000Z</time>
      </trkpt>
      <trkpt lat="47.84978" lon="7.12787">
        <ele>1032</ele>
        <time>2023-05-21T07:38:41.000Z</time>
      </trkpt>
      <trkpt lat="47.84985" lon="7.12779">
        <ele>1032.4000244141</ele>
        <time>2023-05-21T07:38:44.000Z</time>
      </trkpt>
      <trkpt lat="47.84986" lon="7.12776">
        <ele>1032.8000488281</ele>
        <time>2023-05-21T07:38:45.000Z</time>
      </trkpt>
      <trkpt lat="47.84987" lon="7.12773">
        <ele>1033.1999511719</ele>
        <time>2023-05-21T07:38:46.000Z</time>
      </trkpt>
      <trkpt lat="47.84987" lon="7.12769">
        <ele>1033.5999755859</ele>
        <time>2023-05-21T07:38:47.000Z</time>
      </trkpt>
      <trkpt lat="47.84988" lon="7.12765">
        <ele>1034</ele>
        <time>2023-05-21T07:38:48.000Z</time>
      </trkpt>
      <trkpt lat="47.84993" lon="7.12748">
        <ele>1034</ele>
        <time>2023-05-21T07:38:52.000Z</time>
      </trkpt>
      <trkpt lat="47.84994" lon="7.12744">
        <ele>1034.4000244141</ele>
        <time>2023-05-21T07:38:53.000Z</time>
      </trkpt>
      <trkpt lat="47.84995" lon="7.12739">
        <ele>1034.8000488281</ele>
        <time>2023-05-21T07:38:54.000Z</time>
      </trkpt>
      <trkpt lat="47.84995" lon="7.12735">
        <ele>1035.1999511719</ele>
        <time>2023-05-21T07:38:55.000Z</time>
      </trkpt>
      <trkpt lat="47.84995" lon="7.12731">
        <ele>1035.5999755859</ele>
        <time>2023-05-21T07:38:56.000Z</time>
      </trkpt>
      <trkpt lat="47.84996" lon="7.12727">
        <ele>1036</ele>
        <time>2023-05-21T07:38:57.000Z</time>
      </trkpt>
      <trkpt lat="47.84996" lon="7.12722">
        <ele>1036</ele>
        <time>2023-05-21T07:38:58.000Z</time>
      </trkpt>
      <trkpt lat="47.84998" lon="7.12703">
        <ele>1036.4000244141</ele>
        <time>2023-05-21T07:39:03.000Z</time>
      </trkpt>
      <trkpt lat="47.84998" lon="7.12698">
        <ele>1036.8000488281</ele>
        <time>2023-05-21T07:39:04.000Z</time>
      </trkpt>
      <trkpt lat="47.84999" lon="7.12694">
        <ele>1037.4000244141</ele>
        <time>2023-05-21T07:39:05.000Z</time>
      </trkpt>
      <trkpt lat="47.85" lon="7.12689">
        <ele>1037.8000488281</ele>
        <time>2023-05-21T07:39:06.000Z</time>
      </trkpt>
      <trkpt lat="47.85" lon="7.12685">
        <ele>1038.1999511719</ele>
        <time>2023-05-21T07:39:07.000Z</time>
      </trkpt>
      <trkpt lat="47.85001" lon="7.12678">
        <ele>1038.1999511719</ele>
        <time>2023-05-21T07:39:09.000Z</time>
      </trkpt>
      <trkpt lat="47.85003" lon="7.12667">
        <ele>1038.1999511719</ele>
        <time>2023-05-21T07:39:12.000Z</time>
      </trkpt>
      <trkpt lat="47.85005" lon="7.12659">
        <ele>1038.5999755859</ele>
        <time>2023-05-21T07:39:14.000Z</time>
      </trkpt>
      <trkpt lat="47.85005" lon="7.12655">
        <ele>1039</ele>
        <time>2023-05-21T07:39:15.000Z</time>
      </trkpt>
      <trkpt lat="47.85007" lon="7.12652">
        <ele>1039.4000244141</ele>
        <time>2023-05-21T07:39:16.000Z</time>
      </trkpt>
      <trkpt lat="47.85008" lon="7.12648">
        <ele>1039.8000488281</ele>
        <time>2023-05-21T07:39:17.000Z</time>
      </trkpt>
      <trkpt lat="47.85009" lon="7.12644">
        <ele>1040.1999511719</ele>
        <time>2023-05-21T07:39:18.000Z</time>
      </trkpt>
      <trkpt lat="47.85012" lon="7.12636">
        <ele>1040.1999511719</ele>
        <time>2023-05-21T07:39:20.000Z</time>
      </trkpt>
      <trkpt lat="47.85014" lon="7.12625">
        <ele>1041.1999511719</ele>
        <time>2023-05-21T07:39:23.000Z</time>
      </trkpt>
      <trkpt lat="47.85013" lon="7.12621">
        <ele>1041.5999755859</ele>
        <time>2023-05-21T07:39:24.000Z</time>
      </trkpt>
      <trkpt lat="47.85012" lon="7.12617">
        <ele>1042</ele>
        <time>2023-05-21T07:39:25.000Z</time>
      </trkpt>
      <trkpt lat="47.85012" lon="7.12614">
        <ele>1042.4000244141</ele>
        <time>2023-05-21T07:39:26.000Z</time>
      </trkpt>
      <trkpt lat="47.85013" lon="7.12601">
        <ele>1042.4000244141</ele>
        <time>2023-05-21T07:39:30.000Z</time>
      </trkpt>
      <trkpt lat="47.85018" lon="7.12584">
        <ele>1042.8000488281</ele>
        <time>2023-05-21T07:39:34.000Z</time>
      </trkpt>
      <trkpt lat="47.85019" lon="7.1258">
        <ele>1043.1999511719</ele>
        <time>2023-05-21T07:39:35.000Z</time>
      </trkpt>
      <trkpt lat="47.85021" lon="7.12577">
        <ele>1043.5999755859</ele>
        <time>2023-05-21T07:39:36.000Z</time>
      </trkpt>
      <trkpt lat="47.85022" lon="7.12573">
        <ele>1044</ele>
        <time>2023-05-21T07:39:37.000Z</time>
      </trkpt>
      <trkpt lat="47.85023" lon="7.12569">
        <ele>1044.4000244141</ele>
        <time>2023-05-21T07:39:38.000Z</time>
      </trkpt>
      <trkpt lat="47.85025" lon="7.12561">
        <ele>1044.4000244141</ele>
        <time>2023-05-21T07:39:40.000Z</time>
      </trkpt>
      <trkpt lat="47.8503" lon="7.12541">
        <ele>1044.4000244141</ele>
        <time>2023-05-21T07:39:45.000Z</time>
      </trkpt>
      <trkpt lat="47.85033" lon="7.12526">
        <ele>1044.8000488281</ele>
        <time>2023-05-21T07:39:49.000Z</time>
      </trkpt>
      <trkpt lat="47.85033" lon="7.12522">
        <ele>1045.1999511719</ele>
        <time>2023-05-21T07:39:50.000Z</time>
      </trkpt>
      <trkpt lat="47.85034" lon="7.12517">
        <ele>1045.5999755859</ele>
        <time>2023-05-21T07:39:51.000Z</time>
      </trkpt>
      <trkpt lat="47.85034" lon="7.12512">
        <ele>1046</ele>
        <time>2023-05-21T07:39:52.000Z</time>
      </trkpt>
      <trkpt lat="47.85034" lon="7.12506">
        <ele>1046.4000244141</ele>
        <time>2023-05-21T07:39:53.000Z</time>
      </trkpt>
      <trkpt lat="47.85035" lon="7.12489">
        <ele>1046.4000244141</ele>
        <time>2023-05-21T07:39:57.000Z</time>
      </trkpt>
      <trkpt lat="47.85032" lon="7.12469">
        <ele>1046.4000244141</ele>
        <time>2023-05-21T07:40:01.000Z</time>
      </trkpt>
      <trkpt lat="47.8503" lon="7.12464">
        <ele>1046.8000488281</ele>
        <time>2023-05-21T07:40:02.000Z</time>
      </trkpt>
      <trkpt lat="47.85029" lon="7.12459">
        <ele>1047.1999511719</ele>
        <time>2023-05-21T07:40:03.000Z</time>
      </trkpt>
      <trkpt lat="47.85029" lon="7.12454">
        <ele>1047.5999755859</ele>
        <time>2023-05-21T07:40:04.000Z</time>
      </trkpt>
      <trkpt lat="47.85028" lon="7.12449">
        <ele>1048.1999511719</ele>
        <time>2023-05-21T07:40:05.000Z</time>
      </trkpt>
      <trkpt lat="47.85029" lon="7.12445">
        <ele>1048.5999755859</ele>
        <time>2023-05-21T07:40:06.000Z</time>
      </trkpt>
      <trkpt lat="47.85031" lon="7.1244">
        <ele>1048.5999755859</ele>
        <time>2023-05-21T07:40:07.000Z</time>
      </trkpt>
      <trkpt lat="47.85038" lon="7.1242">
        <ele>1049</ele>
        <time>2023-05-21T07:40:12.000Z</time>
      </trkpt>
      <trkpt lat="47.85038" lon="7.12415">
        <ele>1049.8000488281</ele>
        <time>2023-05-21T07:40:13.000Z</time>
      </trkpt>
      <trkpt lat="47.85038" lon="7.12411">
        <ele>1050.1999511719</ele>
        <time>2023-05-21T07:40:14.000Z</time>
      </trkpt>
      <trkpt lat="47.85039" lon="7.12408">
        <ele>1050.5999755859</ele>
        <time>2023-05-21T07:40:15.000Z</time>
      </trkpt>
      <trkpt lat="47.8504" lon="7.12394">
        <ele>1050.5999755859</ele>
        <time>2023-05-21T07:40:19.000Z</time>
      </trkpt>
      <trkpt lat="47.85045" lon="7.12381">
        <ele>1050.5999755859</ele>
        <time>2023-05-21T07:40:23.000Z</time>
      </trkpt>
      <trkpt lat="47.85047" lon="7.12376">
        <ele>1051</ele>
        <time>2023-05-21T07:40:25.000Z</time>
      </trkpt>
      <trkpt lat="47.85048" lon="7.12374">
        <ele>1051.4000244141</ele>
        <time>2023-05-21T07:40:26.000Z</time>
      </trkpt>
      <trkpt lat="47.85048" lon="7.12371">
        <ele>1051.8000488281</ele>
        <time>2023-05-21T07:40:27.000Z</time>
      </trkpt>
      <trkpt lat="47.85049" lon="7.12369">
        <ele>1052.1999511719</ele>
        <time>2023-05-21T07:40:28.000Z</time>
      </trkpt>
      <trkpt lat="47.8505" lon="7.12366">
        <ele>1052.5999755859</ele>
        <time>2023-05-21T07:40:29.000Z</time>
      </trkpt>
      <trkpt lat="47.85055" lon="7.12367">
        <ele>1052.5999755859</ele>
        <time>2023-05-21T07:40:32.000Z</time>
      </trkpt>
      <trkpt lat="47.85058" lon="7.12374">
        <ele>1052.5999755859</ele>
        <time>2023-05-21T07:40:34.000Z</time>
      </trkpt>
      <trkpt lat="47.85061" lon="7.12379">
        <ele>1052.5999755859</ele>
        <time>2023-05-21T07:40:36.000Z</time>
      </trkpt>
      <trkpt lat="47.85062" lon="7.12381">
        <ele>1053.4000244141</ele>
        <time>2023-05-21T07:40:37.000Z</time>
      </trkpt>
      <trkpt lat="47.85064" lon="7.12384">
        <ele>1054</ele>
        <time>2023-05-21T07:40:38.000Z</time>
      </trkpt>
      <trkpt lat="47.85065" lon="7.12387">
        <ele>1054.4000244141</ele>
        <time>2023-05-21T07:40:39.000Z</time>
      </trkpt>
      <trkpt lat="47.85066" lon="7.12391">
        <ele>1054.8000488281</ele>
        <time>2023-05-21T07:40:40.000Z</time>
      </trkpt>
      <trkpt lat="47.85067" lon="7.12394">
        <ele>1055.1999511719</ele>
        <time>2023-05-21T07:40:41.000Z</time>
      </trkpt>
      <trkpt lat="47.85067" lon="7.12398">
        <ele>1055.8000488281</ele>
        <time>2023-05-21T07:40:42.000Z</time>
      </trkpt>
      <trkpt lat="47.85068" lon="7.12401">
        <ele>1056.1999511719</ele>
        <time>2023-05-21T07:40:43.000Z</time>
      </trkpt>
      <trkpt lat="47.85068" lon="7.12403">
        <ele>1056.8000488281</ele>
        <time>2023-05-21T07:40:44.000Z</time>
      </trkpt>
      <trkpt lat="47.85069" lon="7.12406">
        <ele>1057.1999511719</ele>
        <time>2023-05-21T07:40:45.000Z</time>
      </trkpt>
      <trkpt lat="47.8507" lon="7.12408">
        <ele>1057.1999511719</ele>
        <time>2023-05-21T07:40:46.000Z</time>
      </trkpt>
      <trkpt lat="47.85071" lon="7.12411">
        <ele>1057.5999755859</ele>
        <time>2023-05-21T07:40:47.000Z</time>
      </trkpt>
      <trkpt lat="47.85072" lon="7.12415">
        <ele>1058.1999511719</ele>
        <time>2023-05-21T07:40:48.000Z</time>
      </trkpt>
      <trkpt lat="47.85073" lon="7.12417">
        <ele>1058.5999755859</ele>
        <time>2023-05-21T07:40:49.000Z</time>
      </trkpt>
      <trkpt lat="47.85074" lon="7.12421">
        <ele>1059</ele>
        <time>2023-05-21T07:40:50.000Z</time>
      </trkpt>
      <trkpt lat="47.85075" lon="7.12424">
        <ele>1059.5999755859</ele>
        <time>2023-05-21T07:40:51.000Z</time>
      </trkpt>
      <trkpt lat="47.85078" lon="7.1243">
        <ele>1060</ele>
        <time>2023-05-21T07:40:53.000Z</time>
      </trkpt>
      <trkpt lat="47.85079" lon="7.12433">
        <ele>1060.4000244141</ele>
        <time>2023-05-21T07:40:54.000Z</time>
      </trkpt>
      <trkpt lat="47.85079" lon="7.12435">
        <ele>1060.8000488281</ele>
        <time>2023-05-21T07:40:55.000Z</time>
      </trkpt>
      <trkpt lat="47.85081" lon="7.12438">
        <ele>1061.1999511719</ele>
        <time>2023-05-21T07:40:56.000Z</time>
      </trkpt>
      <trkpt lat="47.85081" lon="7.12442">
        <ele>1061.8000488281</ele>
        <time>2023-05-21T07:40:57.000Z</time>
      </trkpt>
      <trkpt lat="47.85082" lon="7.12445">
        <ele>1061.8000488281</ele>
        <time>2023-05-21T07:40:58.000Z</time>
      </trkpt>
      <trkpt lat="47.85083" lon="7.12448">
        <ele>1062.1999511719</ele>
        <time>2023-05-21T07:40:59.000Z</time>
      </trkpt>
      <trkpt lat="47.85084" lon="7.12452">
        <ele>1062.5999755859</ele>
        <time>2023-05-21T07:41:00.000Z</time>
      </trkpt>
      <trkpt lat="47.85084" lon="7.12455">
        <ele>1063</ele>
        <time>2023-05-21T07:41:01.000Z</time>
      </trkpt>
      <trkpt lat="47.85085" lon="7.12459">
        <ele>1064</ele>
        <time>2023-05-21T07:41:02.000Z</time>
      </trkpt>
      <trkpt lat="47.85083" lon="7.12467">
        <ele>1064.4000244141</ele>
        <time>2023-05-21T07:41:04.000Z</time>
      </trkpt>
      <trkpt lat="47.85081" lon="7.12471">
        <ele>1064.8000488281</ele>
        <time>2023-05-21T07:41:05.000Z</time>
      </trkpt>
      <trkpt lat="47.85079" lon="7.12475">
        <ele>1065.1999511719</ele>
        <time>2023-05-21T07:41:06.000Z</time>
      </trkpt>
      <trkpt lat="47.85078" lon="7.12479">
        <ele>1065.5999755859</ele>
        <time>2023-05-21T07:41:07.000Z</time>
      </trkpt>
      <trkpt lat="47.85078" lon="7.12482">
        <ele>1066</ele>
        <time>2023-05-21T07:41:08.000Z</time>
      </trkpt>
      <trkpt lat="47.8508" lon="7.12489">
        <ele>1066</ele>
        <time>2023-05-21T07:41:10.000Z</time>
      </trkpt>
      <trkpt lat="47.85081" lon="7.12492">
        <ele>1066.4000244141</ele>
        <time>2023-05-21T07:41:11.000Z</time>
      </trkpt>
      <trkpt lat="47.85082" lon="7.12495">
        <ele>1066.8000488281</ele>
        <time>2023-05-21T07:41:12.000Z</time>
      </trkpt>
      <trkpt lat="47.85083" lon="7.12498">
        <ele>1067.4000244141</ele>
        <time>2023-05-21T07:41:13.000Z</time>
      </trkpt>
      <trkpt lat="47.85085" lon="7.125">
        <ele>1067.8000488281</ele>
        <time>2023-05-21T07:41:14.000Z</time>
      </trkpt>
      <trkpt lat="47.85087" lon="7.12503">
        <ele>1068.1999511719</ele>
        <time>2023-05-21T07:41:15.000Z</time>
      </trkpt>
      <trkpt lat="47.85089" lon="7.12512">
        <ele>1068.5999755859</ele>
        <time>2023-05-21T07:41:18.000Z</time>
      </trkpt>
      <trkpt lat="47.8509" lon="7.12514">
        <ele>1069</ele>
        <time>2023-05-21T07:41:19.000Z</time>
      </trkpt>
      <trkpt lat="47.85091" lon="7.12518">
        <ele>1069.4000244141</ele>
        <time>2023-05-21T07:41:20.000Z</time>
      </trkpt>
      <trkpt lat="47.85092" lon="7.12521">
        <ele>1069.8000488281</ele>
        <time>2023-05-21T07:41:21.000Z</time>
      </trkpt>
      <trkpt lat="47.85092" lon="7.12525">
        <ele>1070.1999511719</ele>
        <time>2023-05-21T07:41:22.000Z</time>
      </trkpt>
      <trkpt lat="47.85089" lon="7.12535">
        <ele>1070.8000488281</ele>
        <time>2023-05-21T07:41:25.000Z</time>
      </trkpt>
      <trkpt lat="47.85089" lon="7.12538">
        <ele>1071.1999511719</ele>
        <time>2023-05-21T07:41:26.000Z</time>
      </trkpt>
      <trkpt lat="47.85089" lon="7.12542">
        <ele>1072.1999511719</ele>
        <time>2023-05-21T07:41:27.000Z</time>
      </trkpt>
      <trkpt lat="47.8509" lon="7.12545">
        <ele>1072.8000488281</ele>
        <time>2023-05-21T07:41:28.000Z</time>
      </trkpt>
      <trkpt lat="47.85091" lon="7.12555">
        <ele>1073.1999511719</ele>
        <time>2023-05-21T07:41:31.000Z</time>
      </trkpt>
      <trkpt lat="47.85091" lon="7.12559">
        <ele>1073.5999755859</ele>
        <time>2023-05-21T07:41:32.000Z</time>
      </trkpt>
      <trkpt lat="47.85092" lon="7.12563">
        <ele>1074</ele>
        <time>2023-05-21T07:41:33.000Z</time>
      </trkpt>
      <trkpt lat="47.85092" lon="7.12566">
        <ele>1074.4000244141</ele>
        <time>2023-05-21T07:41:34.000Z</time>
      </trkpt>
      <trkpt lat="47.85093" lon="7.1257">
        <ele>1074.8000488281</ele>
        <time>2023-05-21T07:41:35.000Z</time>
      </trkpt>
      <trkpt lat="47.85093" lon="7.12577">
        <ele>1075.1999511719</ele>
        <time>2023-05-21T07:41:37.000Z</time>
      </trkpt>
      <trkpt lat="47.85094" lon="7.1258">
        <ele>1075.5999755859</ele>
        <time>2023-05-21T07:41:38.000Z</time>
      </trkpt>
      <trkpt lat="47.85094" lon="7.12583">
        <ele>1076.1999511719</ele>
        <time>2023-05-21T07:41:39.000Z</time>
      </trkpt>
      <trkpt lat="47.85095" lon="7.12587">
        <ele>1076.5999755859</ele>
        <time>2023-05-21T07:41:40.000Z</time>
      </trkpt>
      <trkpt lat="47.85095" lon="7.1259">
        <ele>1077.1999511719</ele>
        <time>2023-05-21T07:41:41.000Z</time>
      </trkpt>
      <trkpt lat="47.85096" lon="7.12593">
        <ele>1077.5999755859</ele>
        <time>2023-05-21T07:41:42.000Z</time>
      </trkpt>
      <trkpt lat="47.85097" lon="7.12596">
        <ele>1078</ele>
        <time>2023-05-21T07:41:43.000Z</time>
      </trkpt>
      <trkpt lat="47.85098" lon="7.12599">
        <ele>1078.4000244141</ele>
        <time>2023-05-21T07:41:44.000Z</time>
      </trkpt>
      <trkpt lat="47.85099" lon="7.12602">
        <ele>1078.8000488281</ele>
        <time>2023-05-21T07:41:45.000Z</time>
      </trkpt>
      <trkpt lat="47.85099" lon="7.12605">
        <ele>1079.1999511719</ele>
        <time>2023-05-21T07:41:46.000Z</time>
      </trkpt>
      <trkpt lat="47.851" lon="7.12611">
        <ele>1079.8000488281</ele>
        <time>2023-05-21T07:41:48.000Z</time>
      </trkpt>
      <trkpt lat="47.85101" lon="7.12614">
        <ele>1080.1999511719</ele>
        <time>2023-05-21T07:41:49.000Z</time>
      </trkpt>
      <trkpt lat="47.85102" lon="7.12617">
        <ele>1080.5999755859</ele>
        <time>2023-05-21T07:41:50.000Z</time>
      </trkpt>
      <trkpt lat="47.85102" lon="7.12621">
        <ele>1081.4000244141</ele>
        <time>2023-05-21T07:41:51.000Z</time>
      </trkpt>
      <trkpt lat="47.85102" lon="7.12624">
        <ele>1082</ele>
        <time>2023-05-21T07:41:52.000Z</time>
      </trkpt>
      <trkpt lat="47.85102" lon="7.12627">
        <ele>1082.4000244141</ele>
        <time>2023-05-21T07:41:53.000Z</time>
      </trkpt>
      <trkpt lat="47.85102" lon="7.1263">
        <ele>1082.8000488281</ele>
        <time>2023-05-21T07:41:54.000Z</time>
      </trkpt>
      <trkpt lat="47.85102" lon="7.12633">
        <ele>1083.1999511719</ele>
        <time>2023-05-21T07:41:55.000Z</time>
      </trkpt>
      <trkpt lat="47.85102" lon="7.12636">
        <ele>1083.5999755859</ele>
        <time>2023-05-21T07:41:56.000Z</time>
      </trkpt>
      <trkpt lat="47.85103" lon="7.12647">
        <ele>1084</ele>
        <time>2023-05-21T07:42:00.000Z</time>
      </trkpt>
      <trkpt lat="47.85105" lon="7.12651">
        <ele>1084.5999755859</ele>
        <time>2023-05-21T07:42:01.000Z</time>
      </trkpt>
      <trkpt lat="47.85105" lon="7.12655">
        <ele>1085</ele>
        <time>2023-05-21T07:42:02.000Z</time>
      </trkpt>
      <trkpt lat="47.85106" lon="7.12659">
        <ele>1085.4000244141</ele>
        <time>2023-05-21T07:42:03.000Z</time>
      </trkpt>
      <trkpt lat="47.85106" lon="7.12662">
        <ele>1085.8000488281</ele>
        <time>2023-05-21T07:42:04.000Z</time>
      </trkpt>
      <trkpt lat="47.85107" lon="7.1267">
        <ele>1086.1999511719</ele>
        <time>2023-05-21T07:42:06.000Z</time>
      </trkpt>
      <trkpt lat="47.85109" lon="7.12674">
        <ele>1086.5999755859</ele>
        <time>2023-05-21T07:42:07.000Z</time>
      </trkpt>
      <trkpt lat="47.8511" lon="7.12678">
        <ele>1087.1999511719</ele>
        <time>2023-05-21T07:42:08.000Z</time>
      </trkpt>
      <trkpt lat="47.8511" lon="7.12683">
        <ele>1087.5999755859</ele>
        <time>2023-05-21T07:42:09.000Z</time>
      </trkpt>
      <trkpt lat="47.8511" lon="7.12687">
        <ele>1088</ele>
        <time>2023-05-21T07:42:10.000Z</time>
      </trkpt>
      <trkpt lat="47.85111" lon="7.12696">
        <ele>1088.4000244141</ele>
        <time>2023-05-21T07:42:12.000Z</time>
      </trkpt>
      <trkpt lat="47.85111" lon="7.127">
        <ele>1088.8000488281</ele>
        <time>2023-05-21T07:42:13.000Z</time>
      </trkpt>
      <trkpt lat="47.85111" lon="7.12704">
        <ele>1089.1999511719</ele>
        <time>2023-05-21T07:42:14.000Z</time>
      </trkpt>
      <trkpt lat="47.85111" lon="7.12708">
        <ele>1089.5999755859</ele>
        <time>2023-05-21T07:42:15.000Z</time>
      </trkpt>
      <trkpt lat="47.85112" lon="7.12712">
        <ele>1090.1999511719</ele>
        <time>2023-05-21T07:42:16.000Z</time>
      </trkpt>
      <trkpt lat="47.85113" lon="7.12715">
        <ele>1090.5999755859</ele>
        <time>2023-05-21T07:42:17.000Z</time>
      </trkpt>
      <trkpt lat="47.85113" lon="7.12718">
        <ele>1091</ele>
        <time>2023-05-21T07:42:18.000Z</time>
      </trkpt>
      <trkpt lat="47.85114" lon="7.1272">
        <ele>1091.4000244141</ele>
        <time>2023-05-21T07:42:19.000Z</time>
      </trkpt>
      <trkpt lat="47.85115" lon="7.12722">
        <ele>1092</ele>
        <time>2023-05-21T07:42:20.000Z</time>
      </trkpt>
      <trkpt lat="47.85116" lon="7.12726">
        <ele>1092.4000244141</ele>
        <time>2023-05-21T07:42:21.000Z</time>
      </trkpt>
      <trkpt lat="47.85116" lon="7.12729">
        <ele>1092.8000488281</ele>
        <time>2023-05-21T07:42:22.000Z</time>
      </trkpt>
      <trkpt lat="47.85117" lon="7.12732">
        <ele>1093.1999511719</ele>
        <time>2023-05-21T07:42:23.000Z</time>
      </trkpt>
      <trkpt lat="47.85116" lon="7.12736">
        <ele>1093.8000488281</ele>
        <time>2023-05-21T07:42:24.000Z</time>
      </trkpt>
      <trkpt lat="47.85116" lon="7.1274">
        <ele>1094.1999511719</ele>
        <time>2023-05-21T07:42:25.000Z</time>
      </trkpt>
      <trkpt lat="47.85116" lon="7.12743">
        <ele>1094.5999755859</ele>
        <time>2023-05-21T07:42:26.000Z</time>
      </trkpt>
      <trkpt lat="47.85115" lon="7.1275">
        <ele>1095</ele>
        <time>2023-05-21T07:42:28.000Z</time>
      </trkpt>
      <trkpt lat="47.85115" lon="7.12753">
        <ele>1095.4000244141</ele>
        <time>2023-05-21T07:42:29.000Z</time>
      </trkpt>
      <trkpt lat="47.85115" lon="7.12756">
        <ele>1095.8000488281</ele>
        <time>2023-05-21T07:42:30.000Z</time>
      </trkpt>
      <trkpt lat="47.85115" lon="7.12759">
        <ele>1096.4000244141</ele>
        <time>2023-05-21T07:42:31.000Z</time>
      </trkpt>
      <trkpt lat="47.85115" lon="7.12763">
        <ele>1096.8000488281</ele>
        <time>2023-05-21T07:42:32.000Z</time>
      </trkpt>
      <trkpt lat="47.85116" lon="7.12767">
        <ele>1097.1999511719</ele>
        <time>2023-05-21T07:42:33.000Z</time>
      </trkpt>
      <trkpt lat="47.85116" lon="7.1277">
        <ele>1097.5999755859</ele>
        <time>2023-05-21T07:42:34.000Z</time>
      </trkpt>
      <trkpt lat="47.85116" lon="7.12774">
        <ele>1098</ele>
        <time>2023-05-21T07:42:35.000Z</time>
      </trkpt>
      <trkpt lat="47.85117" lon="7.12776">
        <ele>1098.4000244141</ele>
        <time>2023-05-21T07:42:36.000Z</time>
      </trkpt>
      <trkpt lat="47.85118" lon="7.1278">
        <ele>1098.8000488281</ele>
        <time>2023-05-21T07:42:37.000Z</time>
      </trkpt>
      <trkpt lat="47.8512" lon="7.12785">
        <ele>1099.1999511719</ele>
        <time>2023-05-21T07:42:40.000Z</time>
      </trkpt>
      <trkpt lat="47.8512" lon="7.12789">
        <ele>1100.1999511719</ele>
        <time>2023-05-21T07:42:41.000Z</time>
      </trkpt>
      <trkpt lat="47.85122" lon="7.12791">
        <ele>1100.8000488281</ele>
        <time>2023-05-21T07:42:42.000Z</time>
      </trkpt>
      <trkpt lat="47.85122" lon="7.12795">
        <ele>1101.1999511719</ele>
        <time>2023-05-21T07:42:43.000Z</time>
      </trkpt>
      <trkpt lat="47.85123" lon="7.12803">
        <ele>1101.5999755859</ele>
        <time>2023-05-21T07:42:46.000Z</time>
      </trkpt>
      <trkpt lat="47.85124" lon="7.12807">
        <ele>1102.1999511719</ele>
        <time>2023-05-21T07:42:47.000Z</time>
      </trkpt>
      <trkpt lat="47.85124" lon="7.1281">
        <ele>1102.5999755859</ele>
        <time>2023-05-21T07:42:48.000Z</time>
      </trkpt>
      <trkpt lat="47.85124" lon="7.12813">
        <ele>1103</ele>
        <time>2023-05-21T07:42:49.000Z</time>
      </trkpt>
      <trkpt lat="47.85124" lon="7.12817">
        <ele>1103.4000244141</ele>
        <time>2023-05-21T07:42:50.000Z</time>
      </trkpt>
      <trkpt lat="47.85124" lon="7.1282">
        <ele>1103.4000244141</ele>
        <time>2023-05-21T07:42:51.000Z</time>
      </trkpt>
      <trkpt lat="47.85124" lon="7.12823">
        <ele>1103.8000488281</ele>
        <time>2023-05-21T07:42:52.000Z</time>
      </trkpt>
      <trkpt lat="47.85124" lon="7.12826">
        <ele>1104.1999511719</ele>
        <time>2023-05-21T07:42:53.000Z</time>
      </trkpt>
      <trkpt lat="47.85125" lon="7.12828">
        <ele>1104.8000488281</ele>
        <time>2023-05-21T07:42:54.000Z</time>
      </trkpt>
      <trkpt lat="47.85125" lon="7.12831">
        <ele>1105.1999511719</ele>
        <time>2023-05-21T07:42:55.000Z</time>
      </trkpt>
      <trkpt lat="47.85127" lon="7.12833">
        <ele>1105.5999755859</ele>
        <time>2023-05-21T07:42:56.000Z</time>
      </trkpt>
      <trkpt lat="47.85129" lon="7.12839">
        <ele>1106</ele>
        <time>2023-05-21T07:42:58.000Z</time>
      </trkpt>
      <trkpt lat="47.8513" lon="7.12842">
        <ele>1106.4000244141</ele>
        <time>2023-05-21T07:42:59.000Z</time>
      </trkpt>
      <trkpt lat="47.85131" lon="7.12845">
        <ele>1106.8000488281</ele>
        <time>2023-05-21T07:43:00.000Z</time>
      </trkpt>
      <trkpt lat="47.85131" lon="7.12848">
        <ele>1107.1999511719</ele>
        <time>2023-05-21T07:43:01.000Z</time>
      </trkpt>
      <trkpt lat="47.85132" lon="7.12851">
        <ele>1107.8000488281</ele>
        <time>2023-05-21T07:43:02.000Z</time>
      </trkpt>
      <trkpt lat="47.85134" lon="7.12861">
        <ele>1108.5999755859</ele>
        <time>2023-05-21T07:43:05.000Z</time>
      </trkpt>
      <trkpt lat="47.85135" lon="7.12865">
        <ele>1109.1999511719</ele>
        <time>2023-05-21T07:43:06.000Z</time>
      </trkpt>
      <trkpt lat="47.85135" lon="7.12869">
        <ele>1109.5999755859</ele>
        <time>2023-05-21T07:43:08.000Z</time>
      </trkpt>
      <trkpt lat="47.85136" lon="7.12874">
        <ele>1110</ele>
        <time>2023-05-21T07:43:09.000Z</time>
      </trkpt>
      <trkpt lat="47.85137" lon="7.12882">
        <ele>1110.5999755859</ele>
        <time>2023-05-21T07:43:11.000Z</time>
      </trkpt>
      <trkpt lat="47.85138" lon="7.12886">
        <ele>1111</ele>
        <time>2023-05-21T07:43:12.000Z</time>
      </trkpt>
      <trkpt lat="47.85139" lon="7.1289">
        <ele>1111.4000244141</ele>
        <time>2023-05-21T07:43:13.000Z</time>
      </trkpt>
      <trkpt lat="47.85139" lon="7.12893">
        <ele>1111.8000488281</ele>
        <time>2023-05-21T07:43:14.000Z</time>
      </trkpt>
      <trkpt lat="47.8514" lon="7.12896">
        <ele>1112.1999511719</ele>
        <time>2023-05-21T07:43:15.000Z</time>
      </trkpt>
      <trkpt lat="47.85141" lon="7.12903">
        <ele>1112.1999511719</ele>
        <time>2023-05-21T07:43:17.000Z</time>
      </trkpt>
      <trkpt lat="47.8514" lon="7.12906">
        <ele>1112.5999755859</ele>
        <time>2023-05-21T07:43:18.000Z</time>
      </trkpt>
      <trkpt lat="47.8514" lon="7.1291">
        <ele>1113</ele>
        <time>2023-05-21T07:43:19.000Z</time>
      </trkpt>
      <trkpt lat="47.8514" lon="7.12913">
        <ele>1113.5999755859</ele>
        <time>2023-05-21T07:43:20.000Z</time>
      </trkpt>
      <trkpt lat="47.85141" lon="7.12916">
        <ele>1114</ele>
        <time>2023-05-21T07:43:21.000Z</time>
      </trkpt>
      <trkpt lat="47.85142" lon="7.12919">
        <ele>1114.4000244141</ele>
        <time>2023-05-21T07:43:22.000Z</time>
      </trkpt>
      <trkpt lat="47.85141" lon="7.12922">
        <ele>1114.8000488281</ele>
        <time>2023-05-21T07:43:23.000Z</time>
      </trkpt>
      <trkpt lat="47.8514" lon="7.12926">
        <ele>1115.4000244141</ele>
        <time>2023-05-21T07:43:24.000Z</time>
      </trkpt>
      <trkpt lat="47.85137" lon="7.12929">
        <ele>1115.8000488281</ele>
        <time>2023-05-21T07:43:25.000Z</time>
      </trkpt>
      <trkpt lat="47.85134" lon="7.12933">
        <ele>1116.1999511719</ele>
        <time>2023-05-21T07:43:26.000Z</time>
      </trkpt>
      <trkpt lat="47.85131" lon="7.12936">
        <ele>1116.5999755859</ele>
        <time>2023-05-21T07:43:27.000Z</time>
      </trkpt>
      <trkpt lat="47.85127" lon="7.12939">
        <ele>1117</ele>
        <time>2023-05-21T07:43:29.000Z</time>
      </trkpt>
      <trkpt lat="47.85126" lon="7.1294">
        <ele>1117.4000244141</ele>
        <time>2023-05-21T07:43:30.000Z</time>
      </trkpt>
      <trkpt lat="47.85119" lon="7.12959">
        <ele>1118.8000488281</ele>
        <time>2023-05-21T07:46:24.000Z</time>
      </trkpt>
      <trkpt lat="47.8512" lon="7.12975">
        <ele>1118.8000488281</ele>
        <time>2023-05-21T07:46:30.000Z</time>
      </trkpt>
      <trkpt lat="47.85122" lon="7.12986">
        <ele>1119.1999511719</ele>
        <time>2023-05-21T07:46:35.000Z</time>
      </trkpt>
      <trkpt lat="47.85123" lon="7.12989">
        <ele>1119.5999755859</ele>
        <time>2023-05-21T07:46:36.000Z</time>
      </trkpt>
      <trkpt lat="47.85123" lon="7.12992">
        <ele>1120</ele>
        <time>2023-05-21T07:46:37.000Z</time>
      </trkpt>
      <trkpt lat="47.85123" lon="7.12995">
        <ele>1120.4000244141</ele>
        <time>2023-05-21T07:46:38.000Z</time>
      </trkpt>
      <trkpt lat="47.85123" lon="7.12999">
        <ele>1121</ele>
        <time>2023-05-21T07:46:39.000Z</time>
      </trkpt>
      <trkpt lat="47.85125" lon="7.13004">
        <ele>1121.4000244141</ele>
        <time>2023-05-21T07:46:41.000Z</time>
      </trkpt>
      <trkpt lat="47.85125" lon="7.13007">
        <ele>1121.8000488281</ele>
        <time>2023-05-21T07:46:42.000Z</time>
      </trkpt>
      <trkpt lat="47.85126" lon="7.1301">
        <ele>1122.1999511719</ele>
        <time>2023-05-21T07:46:43.000Z</time>
      </trkpt>
      <trkpt lat="47.85127" lon="7.13013">
        <ele>1122.5999755859</ele>
        <time>2023-05-21T07:46:44.000Z</time>
      </trkpt>
      <trkpt lat="47.85127" lon="7.13016">
        <ele>1123</ele>
        <time>2023-05-21T07:46:45.000Z</time>
      </trkpt>
      <trkpt lat="47.85127" lon="7.13019">
        <ele>1123.5999755859</ele>
        <time>2023-05-21T07:46:46.000Z</time>
      </trkpt>
      <trkpt lat="47.85127" lon="7.13022">
        <ele>1124</ele>
        <time>2023-05-21T07:46:47.000Z</time>
      </trkpt>
      <trkpt lat="47.85127" lon="7.13025">
        <ele>1124.4000244141</ele>
        <time>2023-05-21T07:46:48.000Z</time>
      </trkpt>
      <trkpt lat="47.85127" lon="7.13028">
        <ele>1125.4000244141</ele>
        <time>2023-05-21T07:46:49.000Z</time>
      </trkpt>
      <trkpt lat="47.85127" lon="7.13031">
        <ele>1125.4000244141</ele>
        <time>2023-05-21T07:46:50.000Z</time>
      </trkpt>
      <trkpt lat="47.85127" lon="7.13034">
        <ele>1126</ele>
        <time>2023-05-21T07:46:51.000Z</time>
      </trkpt>
      <trkpt lat="47.85128" lon="7.13038">
        <ele>1126.4000244141</ele>
        <time>2023-05-21T07:46:52.000Z</time>
      </trkpt>
      <trkpt lat="47.85129" lon="7.13042">
        <ele>1126.8000488281</ele>
        <time>2023-05-21T07:46:53.000Z</time>
      </trkpt>
      <trkpt lat="47.85129" lon="7.13046">
        <ele>1127.1999511719</ele>
        <time>2023-05-21T07:46:54.000Z</time>
      </trkpt>
      <trkpt lat="47.8513" lon="7.13048">
        <ele>1127.5999755859</ele>
        <time>2023-05-21T07:46:55.000Z</time>
      </trkpt>
      <trkpt lat="47.85131" lon="7.13054">
        <ele>1127.5999755859</ele>
        <time>2023-05-21T07:46:57.000Z</time>
      </trkpt>
      <trkpt lat="47.85132" lon="7.13059">
        <ele>1128.1999511719</ele>
        <time>2023-05-21T07:46:58.000Z</time>
      </trkpt>
      <trkpt lat="47.85132" lon="7.13063">
        <ele>1128.5999755859</ele>
        <time>2023-05-21T07:46:59.000Z</time>
      </trkpt>
      <trkpt lat="47.85132" lon="7.13067">
        <ele>1129</ele>
        <time>2023-05-21T07:47:00.000Z</time>
      </trkpt>
      <trkpt lat="47.85134" lon="7.1307">
        <ele>1129.5999755859</ele>
        <time>2023-05-21T07:47:01.000Z</time>
      </trkpt>
      <trkpt lat="47.85135" lon="7.13074">
        <ele>1130</ele>
        <time>2023-05-21T07:47:02.000Z</time>
      </trkpt>
      <trkpt lat="47.85137" lon="7.1308">
        <ele>1130.4000244141</ele>
        <time>2023-05-21T07:47:04.000Z</time>
      </trkpt>
      <trkpt lat="47.85137" lon="7.13083">
        <ele>1130.8000488281</ele>
        <time>2023-05-21T07:47:05.000Z</time>
      </trkpt>
      <trkpt lat="47.85138" lon="7.13086">
        <ele>1131.1999511719</ele>
        <time>2023-05-21T07:47:06.000Z</time>
      </trkpt>
      <trkpt lat="47.85139" lon="7.13089">
        <ele>1131.5999755859</ele>
        <time>2023-05-21T07:47:07.000Z</time>
      </trkpt>
      <trkpt lat="47.8514" lon="7.13091">
        <ele>1132</ele>
        <time>2023-05-21T07:47:08.000Z</time>
      </trkpt>
      <trkpt lat="47.8514" lon="7.13097">
        <ele>1132.4000244141</ele>
        <time>2023-05-21T07:47:10.000Z</time>
      </trkpt>
      <trkpt lat="47.8514" lon="7.131">
        <ele>1132.8000488281</ele>
        <time>2023-05-21T07:47:11.000Z</time>
      </trkpt>
      <trkpt lat="47.85139" lon="7.13103">
        <ele>1133.4000244141</ele>
        <time>2023-05-21T07:47:12.000Z</time>
      </trkpt>
      <trkpt lat="47.85139" lon="7.13106">
        <ele>1133.8000488281</ele>
        <time>2023-05-21T07:47:13.000Z</time>
      </trkpt>
      <trkpt lat="47.85139" lon="7.1311">
        <ele>1134.1999511719</ele>
        <time>2023-05-21T07:47:14.000Z</time>
      </trkpt>
      <trkpt lat="47.8514" lon="7.13114">
        <ele>1134.5999755859</ele>
        <time>2023-05-21T07:47:15.000Z</time>
      </trkpt>
      <trkpt lat="47.8514" lon="7.13119">
        <ele>1135</ele>
        <time>2023-05-21T07:47:16.000Z</time>
      </trkpt>
      <trkpt lat="47.8514" lon="7.13124">
        <ele>1135.4000244141</ele>
        <time>2023-05-21T07:47:17.000Z</time>
      </trkpt>
      <trkpt lat="47.8514" lon="7.13127">
        <ele>1135.8000488281</ele>
        <time>2023-05-21T07:47:18.000Z</time>
      </trkpt>
      <trkpt lat="47.85139" lon="7.13132">
        <ele>1136.1999511719</ele>
        <time>2023-05-21T07:47:19.000Z</time>
      </trkpt>
      <trkpt lat="47.85143" lon="7.13154">
        <ele>1136.1999511719</ele>
        <time>2023-05-21T07:47:24.000Z</time>
      </trkpt>
      <trkpt lat="47.85147" lon="7.13162">
        <ele>1136.5999755859</ele>
        <time>2023-05-21T07:47:26.000Z</time>
      </trkpt>
      <trkpt lat="47.85149" lon="7.13165">
        <ele>1137</ele>
        <time>2023-05-21T07:47:27.000Z</time>
      </trkpt>
      <trkpt lat="47.8515" lon="7.13168">
        <ele>1137.4000244141</ele>
        <time>2023-05-21T07:47:28.000Z</time>
      </trkpt>
      <trkpt lat="47.8515" lon="7.13173">
        <ele>1137.8000488281</ele>
        <time>2023-05-21T07:47:29.000Z</time>
      </trkpt>
      <trkpt lat="47.8515" lon="7.13178">
        <ele>1138.4000244141</ele>
        <time>2023-05-21T07:47:30.000Z</time>
      </trkpt>
      <trkpt lat="47.8515" lon="7.13197">
        <ele>1138.4000244141</ele>
        <time>2023-05-21T07:47:35.000Z</time>
      </trkpt>
      <trkpt lat="47.85149" lon="7.132">
        <ele>1138.8000488281</ele>
        <time>2023-05-21T07:47:36.000Z</time>
      </trkpt>
      <trkpt lat="47.85148" lon="7.13204">
        <ele>1139.1999511719</ele>
        <time>2023-05-21T07:47:37.000Z</time>
      </trkpt>
      <trkpt lat="47.85148" lon="7.13207">
        <ele>1140</ele>
        <time>2023-05-21T07:47:38.000Z</time>
      </trkpt>
      <trkpt lat="47.85148" lon="7.13211">
        <ele>1140.4000244141</ele>
        <time>2023-05-21T07:47:39.000Z</time>
      </trkpt>
      <trkpt lat="47.85148" lon="7.13217">
        <ele>1140.4000244141</ele>
        <time>2023-05-21T07:47:41.000Z</time>
      </trkpt>
      <trkpt lat="47.85149" lon="7.13234">
        <ele>1140.8000488281</ele>
        <time>2023-05-21T07:47:46.000Z</time>
      </trkpt>
      <trkpt lat="47.8515" lon="7.13236">
        <ele>1141.4000244141</ele>
        <time>2023-05-21T07:47:47.000Z</time>
      </trkpt>
      <trkpt lat="47.85152" lon="7.13238">
        <ele>1141.8000488281</ele>
        <time>2023-05-21T07:47:48.000Z</time>
      </trkpt>
      <trkpt lat="47.85154" lon="7.13239">
        <ele>1142.1999511719</ele>
        <time>2023-05-21T07:47:49.000Z</time>
      </trkpt>
      <trkpt lat="47.85156" lon="7.1324">
        <ele>1142.5999755859</ele>
        <time>2023-05-21T07:47:50.000Z</time>
      </trkpt>
      <trkpt lat="47.85158" lon="7.13242">
        <ele>1142.5999755859</ele>
        <time>2023-05-21T07:47:51.000Z</time>
      </trkpt>
      <trkpt lat="47.85166" lon="7.13254">
        <ele>1143</ele>
        <time>2023-05-21T07:47:55.000Z</time>
      </trkpt>
      <trkpt lat="47.85167" lon="7.13258">
        <ele>1143.5999755859</ele>
        <time>2023-05-21T07:47:56.000Z</time>
      </trkpt>
      <trkpt lat="47.85169" lon="7.13262">
        <ele>1144</ele>
        <time>2023-05-21T07:47:57.000Z</time>
      </trkpt>
      <trkpt lat="47.8517" lon="7.13266">
        <ele>1144.4000244141</ele>
        <time>2023-05-21T07:47:58.000Z</time>
      </trkpt>
      <trkpt lat="47.85171" lon="7.13269">
        <ele>1145</ele>
        <time>2023-05-21T07:47:59.000Z</time>
      </trkpt>
      <trkpt lat="47.85175" lon="7.1328">
        <ele>1145.8000488281</ele>
        <time>2023-05-21T07:48:02.000Z</time>
      </trkpt>
      <trkpt lat="47.85177" lon="7.13283">
        <ele>1146.1999511719</ele>
        <time>2023-05-21T07:48:03.000Z</time>
      </trkpt>
      <trkpt lat="47.85179" lon="7.13287">
        <ele>1146.5999755859</ele>
        <time>2023-05-21T07:48:04.000Z</time>
      </trkpt>
      <trkpt lat="47.8518" lon="7.1329">
        <ele>1147</ele>
        <time>2023-05-21T07:48:05.000Z</time>
      </trkpt>
      <trkpt lat="47.85188" lon="7.13306">
        <ele>1147</ele>
        <time>2023-05-21T07:48:10.000Z</time>
      </trkpt>
      <trkpt lat="47.85196" lon="7.13312">
        <ele>1147.4000244141</ele>
        <time>2023-05-21T07:48:14.000Z</time>
      </trkpt>
      <trkpt lat="47.85198" lon="7.13313">
        <ele>1147.8000488281</ele>
        <time>2023-05-21T07:48:15.000Z</time>
      </trkpt>
      <trkpt lat="47.85199" lon="7.13313">
        <ele>1148.1999511719</ele>
        <time>2023-05-21T07:48:16.000Z</time>
      </trkpt>
      <trkpt lat="47.852" lon="7.13313">
        <ele>1148.5999755859</ele>
        <time>2023-05-21T07:48:17.000Z</time>
      </trkpt>
      <trkpt lat="47.85201" lon="7.13313">
        <ele>1149</ele>
        <time>2023-05-21T07:48:18.000Z</time>
      </trkpt>
      <trkpt lat="47.85201" lon="7.13314">
        <ele>1149</ele>
        <time>2023-05-21T07:48:20.000Z</time>
      </trkpt>
      <trkpt lat="47.85204" lon="7.13314">
        <ele>1149</ele>
        <time>2023-05-21T07:48:34.000Z</time>
      </trkpt>
      <trkpt lat="47.85204" lon="7.13309">
        <ele>1149</ele>
        <time>2023-05-21T07:48:38.000Z</time>
      </trkpt>
      <trkpt lat="47.85203" lon="7.13309">
        <ele>1149</ele>
        <time>2023-05-21T07:48:40.000Z</time>
      </trkpt>
      <trkpt lat="47.85203" lon="7.13304">
        <ele>1149</ele>
        <time>2023-05-21T07:48:54.000Z</time>
      </trkpt>
      <trkpt lat="47.85203" lon="7.13303">
        <ele>1149</ele>
        <time>2023-05-21T07:48:55.000Z</time>
      </trkpt>
      <trkpt lat="47.85209" lon="7.13293">
        <ele>1149</ele>
        <time>2023-05-21T07:48:59.000Z</time>
      </trkpt>
      <trkpt lat="47.85214" lon="7.13286">
        <ele>1149.4000244141</ele>
        <time>2023-05-21T07:49:02.000Z</time>
      </trkpt>
      <trkpt lat="47.85215" lon="7.13283">
        <ele>1149.8000488281</ele>
        <time>2023-05-21T07:49:03.000Z</time>
      </trkpt>
      <trkpt lat="47.85217" lon="7.1328">
        <ele>1150.4000244141</ele>
        <time>2023-05-21T07:49:04.000Z</time>
      </trkpt>
      <trkpt lat="47.85219" lon="7.13278">
        <ele>1150.8000488281</ele>
        <time>2023-05-21T07:49:05.000Z</time>
      </trkpt>
      <trkpt lat="47.85221" lon="7.13275">
        <ele>1151.1999511719</ele>
        <time>2023-05-21T07:49:06.000Z</time>
      </trkpt>
      <trkpt lat="47.85228" lon="7.13259">
        <ele>1151.1999511719</ele>
        <time>2023-05-21T07:49:11.000Z</time>
      </trkpt>
      <trkpt lat="47.85231" lon="7.13253">
        <ele>1151.5999755859</ele>
        <time>2023-05-21T07:49:13.000Z</time>
      </trkpt>
      <trkpt lat="47.85232" lon="7.13249">
        <ele>1152</ele>
        <time>2023-05-21T07:49:14.000Z</time>
      </trkpt>
      <trkpt lat="47.85233" lon="7.13246">
        <ele>1152.4000244141</ele>
        <time>2023-05-21T07:49:15.000Z</time>
      </trkpt>
      <trkpt lat="47.85235" lon="7.13243">
        <ele>1153.1999511719</ele>
        <time>2023-05-21T07:49:16.000Z</time>
      </trkpt>
      <trkpt lat="47.85236" lon="7.13239">
        <ele>1153.1999511719</ele>
        <time>2023-05-21T07:49:17.000Z</time>
      </trkpt>
      <trkpt lat="47.85244" lon="7.13219">
        <ele>1153.1999511719</ele>
        <time>2023-05-21T07:49:23.000Z</time>
      </trkpt>
      <trkpt lat="47.85248" lon="7.1321">
        <ele>1153.5999755859</ele>
        <time>2023-05-21T07:49:26.000Z</time>
      </trkpt>
      <trkpt lat="47.8525" lon="7.13207">
        <ele>1154</ele>
        <time>2023-05-21T07:49:27.000Z</time>
      </trkpt>
      <trkpt lat="47.85251" lon="7.13204">
        <ele>1154.4000244141</ele>
        <time>2023-05-21T07:49:28.000Z</time>
      </trkpt>
      <trkpt lat="47.85252" lon="7.132">
        <ele>1154.8000488281</ele>
        <time>2023-05-21T07:49:29.000Z</time>
      </trkpt>
      <trkpt lat="47.85254" lon="7.13197">
        <ele>1155.1999511719</ele>
        <time>2023-05-21T07:49:30.000Z</time>
      </trkpt>
      <trkpt lat="47.85255" lon="7.13194">
        <ele>1155.1999511719</ele>
        <time>2023-05-21T07:49:31.000Z</time>
      </trkpt>
      <trkpt lat="47.8526" lon="7.13184">
        <ele>1155.8000488281</ele>
        <time>2023-05-21T07:49:34.000Z</time>
      </trkpt>
      <trkpt lat="47.85262" lon="7.13181">
        <ele>1156.1999511719</ele>
        <time>2023-05-21T07:49:35.000Z</time>
      </trkpt>
      <trkpt lat="47.85263" lon="7.13179">
        <ele>1156.5999755859</ele>
        <time>2023-05-21T07:49:36.000Z</time>
      </trkpt>
      <trkpt lat="47.85264" lon="7.13175">
        <ele>1157.1999511719</ele>
        <time>2023-05-21T07:49:37.000Z</time>
      </trkpt>
      <trkpt lat="47.85265" lon="7.13172">
        <ele>1157.5999755859</ele>
        <time>2023-05-21T07:49:38.000Z</time>
      </trkpt>
      <trkpt lat="47.85268" lon="7.13166">
        <ele>1157.5999755859</ele>
        <time>2023-05-21T07:49:40.000Z</time>
      </trkpt>
      <trkpt lat="47.85269" lon="7.13163">
        <ele>1158.4000244141</ele>
        <time>2023-05-21T07:49:41.000Z</time>
      </trkpt>
      <trkpt lat="47.8527" lon="7.1316">
        <ele>1159</ele>
        <time>2023-05-21T07:49:42.000Z</time>
      </trkpt>
      <trkpt lat="47.85272" lon="7.13158">
        <ele>1159.4000244141</ele>
        <time>2023-05-21T07:49:43.000Z</time>
      </trkpt>
      <trkpt lat="47.85273" lon="7.13155">
        <ele>1159.8000488281</ele>
        <time>2023-05-21T07:49:44.000Z</time>
      </trkpt>
      <trkpt lat="47.85277" lon="7.13146">
        <ele>1159.8000488281</ele>
        <time>2023-05-21T07:49:47.000Z</time>
      </trkpt>
      <trkpt lat="47.85279" lon="7.13143">
        <ele>1160.1999511719</ele>
        <time>2023-05-21T07:49:48.000Z</time>
      </trkpt>
      <trkpt lat="47.8528" lon="7.1314">
        <ele>1160.5999755859</ele>
        <time>2023-05-21T07:49:49.000Z</time>
      </trkpt>
      <trkpt lat="47.85281" lon="7.13137">
        <ele>1161</ele>
        <time>2023-05-21T07:49:50.000Z</time>
      </trkpt>
      <trkpt lat="47.85283" lon="7.13134">
        <ele>1161.4000244141</ele>
        <time>2023-05-21T07:49:51.000Z</time>
      </trkpt>
      <trkpt lat="47.85284" lon="7.13131">
        <ele>1161.8000488281</ele>
        <time>2023-05-21T07:49:52.000Z</time>
      </trkpt>
      <trkpt lat="47.85288" lon="7.13122">
        <ele>1161.8000488281</ele>
        <time>2023-05-21T07:49:55.000Z</time>
      </trkpt>
      <trkpt lat="47.85289" lon="7.13119">
        <ele>1162.1999511719</ele>
        <time>2023-05-21T07:49:56.000Z</time>
      </trkpt>
      <trkpt lat="47.8529" lon="7.13116">
        <ele>1162.5999755859</ele>
        <time>2023-05-21T07:49:57.000Z</time>
      </trkpt>
      <trkpt lat="47.85292" lon="7.13113">
        <ele>1163</ele>
        <time>2023-05-21T07:49:58.000Z</time>
      </trkpt>
      <trkpt lat="47.85293" lon="7.1311">
        <ele>1163.4000244141</ele>
        <time>2023-05-21T07:49:59.000Z</time>
      </trkpt>
      <trkpt lat="47.85295" lon="7.13108">
        <ele>1163.8000488281</ele>
        <time>2023-05-21T07:50:00.000Z</time>
      </trkpt>
      <trkpt lat="47.85299" lon="7.13099">
        <ele>1163.8000488281</ele>
        <time>2023-05-21T07:50:03.000Z</time>
      </trkpt>
      <trkpt lat="47.85301" lon="7.13096">
        <ele>1164.1999511719</ele>
        <time>2023-05-21T07:50:04.000Z</time>
      </trkpt>
      <trkpt lat="47.85302" lon="7.13093">
        <ele>1164.8000488281</ele>
        <time>2023-05-21T07:50:05.000Z</time>
      </trkpt>
      <trkpt lat="47.85304" lon="7.13091">
        <ele>1165.5999755859</ele>
        <time>2023-05-21T07:50:06.000Z</time>
      </trkpt>
      <trkpt lat="47.85305" lon="7.13088">
        <ele>1166</ele>
        <time>2023-05-21T07:50:07.000Z</time>
      </trkpt>
      <trkpt lat="47.8531" lon="7.13081">
        <ele>1166.4000244141</ele>
        <time>2023-05-21T07:50:10.000Z</time>
      </trkpt>
      <trkpt lat="47.85312" lon="7.13079">
        <ele>1166.8000488281</ele>
        <time>2023-05-21T07:50:11.000Z</time>
      </trkpt>
      <trkpt lat="47.85313" lon="7.13076">
        <ele>1167.4000244141</ele>
        <time>2023-05-21T07:50:12.000Z</time>
      </trkpt>
      <trkpt lat="47.85315" lon="7.13074">
        <ele>1167.8000488281</ele>
        <time>2023-05-21T07:50:13.000Z</time>
      </trkpt>
      <trkpt lat="47.85316" lon="7.13071">
        <ele>1168.1999511719</ele>
        <time>2023-05-21T07:50:14.000Z</time>
      </trkpt>
      <trkpt lat="47.85322" lon="7.13061">
        <ele>1168.5999755859</ele>
        <time>2023-05-21T07:50:18.000Z</time>
      </trkpt>
      <trkpt lat="47.85324" lon="7.13058">
        <ele>1169</ele>
        <time>2023-05-21T07:50:19.000Z</time>
      </trkpt>
      <trkpt lat="47.85325" lon="7.13056">
        <ele>1169.5999755859</ele>
        <time>2023-05-21T07:50:20.000Z</time>
      </trkpt>
      <trkpt lat="47.85327" lon="7.13053">
        <ele>1170</ele>
        <time>2023-05-21T07:50:21.000Z</time>
      </trkpt>
      <trkpt lat="47.85329" lon="7.13051">
        <ele>1170.4000244141</ele>
        <time>2023-05-21T07:50:22.000Z</time>
      </trkpt>
      <trkpt lat="47.85333" lon="7.13043">
        <ele>1170.4000244141</ele>
        <time>2023-05-21T07:50:25.000Z</time>
      </trkpt>
      <trkpt lat="47.85335" lon="7.13041">
        <ele>1170.8000488281</ele>
        <time>2023-05-21T07:50:26.000Z</time>
      </trkpt>
      <trkpt lat="47.85337" lon="7.13038">
        <ele>1171.1999511719</ele>
        <time>2023-05-21T07:50:27.000Z</time>
      </trkpt>
      <trkpt lat="47.85338" lon="7.13036">
        <ele>1171.5999755859</ele>
        <time>2023-05-21T07:50:28.000Z</time>
      </trkpt>
      <trkpt lat="47.8534" lon="7.13033">
        <ele>1172.1999511719</ele>
        <time>2023-05-21T07:50:29.000Z</time>
      </trkpt>
      <trkpt lat="47.85342" lon="7.1303">
        <ele>1172.5999755859</ele>
        <time>2023-05-21T07:50:30.000Z</time>
      </trkpt>
      <trkpt lat="47.85347" lon="7.13023">
        <ele>1172.5999755859</ele>
        <time>2023-05-21T07:50:33.000Z</time>
      </trkpt>
      <trkpt lat="47.85348" lon="7.13021">
        <ele>1173</ele>
        <time>2023-05-21T07:50:34.000Z</time>
      </trkpt>
      <trkpt lat="47.8535" lon="7.13019">
        <ele>1173.4000244141</ele>
        <time>2023-05-21T07:50:35.000Z</time>
      </trkpt>
      <trkpt lat="47.85352" lon="7.13017">
        <ele>1173.8000488281</ele>
        <time>2023-05-21T07:50:36.000Z</time>
      </trkpt>
      <trkpt lat="47.85353" lon="7.13015">
        <ele>1174.4000244141</ele>
        <time>2023-05-21T07:50:37.000Z</time>
      </trkpt>
      <trkpt lat="47.85355" lon="7.13012">
        <ele>1174.8000488281</ele>
        <time>2023-05-21T07:50:38.000Z</time>
      </trkpt>
      <trkpt lat="47.85357" lon="7.13008">
        <ele>1174.8000488281</ele>
        <time>2023-05-21T07:50:42.000Z</time>
      </trkpt>
      <trkpt lat="47.85363" lon="7.13001">
        <ele>1176.8000488281</ele>
        <time>2023-05-21T07:52:15.000Z</time>
      </trkpt>
      <trkpt lat="47.85368" lon="7.13">
        <ele>1176.8000488281</ele>
        <time>2023-05-21T07:52:17.000Z</time>
      </trkpt>
      <trkpt lat="47.85388" lon="7.12996">
        <ele>1176.8000488281</ele>
        <time>2023-05-21T07:52:24.000Z</time>
      </trkpt>
      <trkpt lat="47.854" lon="7.12994">
        <ele>1177.1999511719</ele>
        <time>2023-05-21T07:52:29.000Z</time>
      </trkpt>
      <trkpt lat="47.85403" lon="7.12994">
        <ele>1177.8000488281</ele>
        <time>2023-05-21T07:52:30.000Z</time>
      </trkpt>
      <trkpt lat="47.85406" lon="7.12993">
        <ele>1178.1999511719</ele>
        <time>2023-05-21T07:52:31.000Z</time>
      </trkpt>
      <trkpt lat="47.85408" lon="7.12992">
        <ele>1178.5999755859</ele>
        <time>2023-05-21T07:52:32.000Z</time>
      </trkpt>
      <trkpt lat="47.85411" lon="7.1299">
        <ele>1179</ele>
        <time>2023-05-21T07:52:33.000Z</time>
      </trkpt>
      <trkpt lat="47.85413" lon="7.12988">
        <ele>1179.4000244141</ele>
        <time>2023-05-21T07:52:34.000Z</time>
      </trkpt>
      <trkpt lat="47.85417" lon="7.12989">
        <ele>1179.8000488281</ele>
        <time>2023-05-21T07:52:35.000Z</time>
      </trkpt>
      <trkpt lat="47.8542" lon="7.12989">
        <ele>1180.4000244141</ele>
        <time>2023-05-21T07:52:36.000Z</time>
      </trkpt>
      <trkpt lat="47.85422" lon="7.12989">
        <ele>1180.8000488281</ele>
        <time>2023-05-21T07:52:37.000Z</time>
      </trkpt>
      <trkpt lat="47.85425" lon="7.12989">
        <ele>1181.1999511719</ele>
        <time>2023-05-21T07:52:38.000Z</time>
      </trkpt>
      <trkpt lat="47.85437" lon="7.12984">
        <ele>1181.1999511719</ele>
        <time>2023-05-21T07:52:43.000Z</time>
      </trkpt>
      <trkpt lat="47.85442" lon="7.12985">
        <ele>1181.1999511719</ele>
        <time>2023-05-21T07:52:45.000Z</time>
      </trkpt>
      <trkpt lat="47.85442" lon="7.12988">
        <ele>1181.1999511719</ele>
        <time>2023-05-21T07:52:46.000Z</time>
      </trkpt>
      <trkpt lat="47.8544" lon="7.13006">
        <ele>1181.1999511719</ele>
        <time>2023-05-21T07:52:51.000Z</time>
      </trkpt>
      <trkpt lat="47.85439" lon="7.13008">
        <ele>1181.1999511719</ele>
        <time>2023-05-21T07:52:54.000Z</time>
      </trkpt>
      <trkpt lat="47.85435" lon="7.13014">
        <ele>1181.1999511719</ele>
        <time>2023-05-21T07:53:54.000Z</time>
      </trkpt>
      <trkpt lat="47.85444" lon="7.13017">
        <ele>1181.1999511719</ele>
        <time>2023-05-21T07:53:59.000Z</time>
      </trkpt>
      <trkpt lat="47.85447" lon="7.13016">
        <ele>1181.1999511719</ele>
        <time>2023-05-21T07:54:00.000Z</time>
      </trkpt>
      <trkpt lat="47.85456" lon="7.13008">
        <ele>1181.1999511719</ele>
        <time>2023-05-21T07:54:03.000Z</time>
      </trkpt>
      <trkpt lat="47.85461" lon="7.13007">
        <ele>1180.8000488281</ele>
        <time>2023-05-21T07:54:04.000Z</time>
      </trkpt>
      <trkpt lat="47.85466" lon="7.13005">
        <ele>1180.1999511719</ele>
        <time>2023-05-21T07:54:05.000Z</time>
      </trkpt>
      <trkpt lat="47.85472" lon="7.13004">
        <ele>1179.8000488281</ele>
        <time>2023-05-21T07:54:06.000Z</time>
      </trkpt>
      <trkpt lat="47.85477" lon="7.13005">
        <ele>1179.4000244141</ele>
        <time>2023-05-21T07:54:07.000Z</time>
      </trkpt>
      <trkpt lat="47.85482" lon="7.13008">
        <ele>1178.8000488281</ele>
        <time>2023-05-21T07:54:08.000Z</time>
      </trkpt>
      <trkpt lat="47.85487" lon="7.13012">
        <ele>1178.1999511719</ele>
        <time>2023-05-21T07:54:09.000Z</time>
      </trkpt>
      <trkpt lat="47.85493" lon="7.13015">
        <ele>1177.8000488281</ele>
        <time>2023-05-21T07:54:10.000Z</time>
      </trkpt>
      <trkpt lat="47.85497" lon="7.13018">
        <ele>1177.1999511719</ele>
        <time>2023-05-21T07:54:11.000Z</time>
      </trkpt>
      <trkpt lat="47.855" lon="7.13018">
        <ele>1176</ele>
        <time>2023-05-21T07:54:12.000Z</time>
      </trkpt>
      <trkpt lat="47.85504" lon="7.1302">
        <ele>1175.4000244141</ele>
        <time>2023-05-21T07:54:13.000Z</time>
      </trkpt>
      <trkpt lat="47.85507" lon="7.1302">
        <ele>1174.8000488281</ele>
        <time>2023-05-21T07:54:14.000Z</time>
      </trkpt>
      <trkpt lat="47.85509" lon="7.13021">
        <ele>1174</ele>
        <time>2023-05-21T07:54:15.000Z</time>
      </trkpt>
      <trkpt lat="47.85517" lon="7.13024">
        <ele>1174</ele>
        <time>2023-05-21T07:54:18.000Z</time>
      </trkpt>
      <trkpt lat="47.85527" lon="7.13027">
        <ele>1174</ele>
        <time>2023-05-21T07:54:22.000Z</time>
      </trkpt>
      <trkpt lat="47.85541" lon="7.13032">
        <ele>1174</ele>
        <time>2023-05-21T07:54:26.000Z</time>
      </trkpt>
      <trkpt lat="47.85544" lon="7.13032">
        <ele>1173.5999755859</ele>
        <time>2023-05-21T07:54:27.000Z</time>
      </trkpt>
      <trkpt lat="47.85546" lon="7.13034">
        <ele>1173.1999511719</ele>
        <time>2023-05-21T07:54:28.000Z</time>
      </trkpt>
      <trkpt lat="47.8555" lon="7.13036">
        <ele>1172.5999755859</ele>
        <time>2023-05-21T07:54:29.000Z</time>
      </trkpt>
      <trkpt lat="47.85555" lon="7.13037">
        <ele>1172.1999511719</ele>
        <time>2023-05-21T07:54:30.000Z</time>
      </trkpt>
      <trkpt lat="47.8556" lon="7.13036">
        <ele>1171.8000488281</ele>
        <time>2023-05-21T07:54:31.000Z</time>
      </trkpt>
      <trkpt lat="47.85564" lon="7.13038">
        <ele>1171.4000244141</ele>
        <time>2023-05-21T07:54:32.000Z</time>
      </trkpt>
      <trkpt lat="47.85569" lon="7.13041">
        <ele>1171</ele>
        <time>2023-05-21T07:54:33.000Z</time>
      </trkpt>
      <trkpt lat="47.85573" lon="7.13043">
        <ele>1170.5999755859</ele>
        <time>2023-05-21T07:54:34.000Z</time>
      </trkpt>
      <trkpt lat="47.85579" lon="7.13044">
        <ele>1170.1999511719</ele>
        <time>2023-05-21T07:54:35.000Z</time>
      </trkpt>
      <trkpt lat="47.85582" lon="7.13043">
        <ele>1169.8000488281</ele>
        <time>2023-05-21T07:54:36.000Z</time>
      </trkpt>
      <trkpt lat="47.85589" lon="7.13046">
        <ele>1169.8000488281</ele>
        <time>2023-05-21T07:54:38.000Z</time>
      </trkpt>
      <trkpt lat="47.85608" lon="7.1305">
        <ele>1169.8000488281</ele>
        <time>2023-05-21T07:54:43.000Z</time>
      </trkpt>
      <trkpt lat="47.85624" lon="7.13056">
        <ele>1169.1999511719</ele>
        <time>2023-05-21T07:54:46.000Z</time>
      </trkpt>
      <trkpt lat="47.8563" lon="7.13061">
        <ele>1168.8000488281</ele>
        <time>2023-05-21T07:54:47.000Z</time>
      </trkpt>
      <trkpt lat="47.85637" lon="7.13065">
        <ele>1168.4000244141</ele>
        <time>2023-05-21T07:54:48.000Z</time>
      </trkpt>
      <trkpt lat="47.85645" lon="7.13069">
        <ele>1167.5999755859</ele>
        <time>2023-05-21T07:54:49.000Z</time>
      </trkpt>
      <trkpt lat="47.85654" lon="7.13075">
        <ele>1166.8000488281</ele>
        <time>2023-05-21T07:54:50.000Z</time>
      </trkpt>
      <trkpt lat="47.85663" lon="7.13082">
        <ele>1165.5999755859</ele>
        <time>2023-05-21T07:54:51.000Z</time>
      </trkpt>
      <trkpt lat="47.85672" lon="7.13087">
        <ele>1164.5999755859</ele>
        <time>2023-05-21T07:54:52.000Z</time>
      </trkpt>
      <trkpt lat="47.8568" lon="7.13092">
        <ele>1163.1999511719</ele>
        <time>2023-05-21T07:54:53.000Z</time>
      </trkpt>
      <trkpt lat="47.85688" lon="7.13099">
        <ele>1162</ele>
        <time>2023-05-21T07:54:54.000Z</time>
      </trkpt>
      <trkpt lat="47.85697" lon="7.13105">
        <ele>1160.5999755859</ele>
        <time>2023-05-21T07:54:55.000Z</time>
      </trkpt>
      <trkpt lat="47.85704" lon="7.13109">
        <ele>1159.4000244141</ele>
        <time>2023-05-21T07:54:56.000Z</time>
      </trkpt>
      <trkpt lat="47.85711" lon="7.13112">
        <ele>1158</ele>
        <time>2023-05-21T07:54:57.000Z</time>
      </trkpt>
      <trkpt lat="47.85718" lon="7.13116">
        <ele>1156.8000488281</ele>
        <time>2023-05-21T07:54:58.000Z</time>
      </trkpt>
      <trkpt lat="47.85724" lon="7.13121">
        <ele>1155.4000244141</ele>
        <time>2023-05-21T07:54:59.000Z</time>
      </trkpt>
      <trkpt lat="47.8573" lon="7.13126">
        <ele>1154</ele>
        <time>2023-05-21T07:55:00.000Z</time>
      </trkpt>
      <trkpt lat="47.85737" lon="7.1313">
        <ele>1152.8000488281</ele>
        <time>2023-05-21T07:55:01.000Z</time>
      </trkpt>
      <trkpt lat="47.85742" lon="7.13134">
        <ele>1152.1999511719</ele>
        <time>2023-05-21T07:55:02.000Z</time>
      </trkpt>
      <trkpt lat="47.85746" lon="7.13136">
        <ele>1151.8000488281</ele>
        <time>2023-05-21T07:55:03.000Z</time>
      </trkpt>
      <trkpt lat="47.8575" lon="7.13138">
        <ele>1151.1999511719</ele>
        <time>2023-05-21T07:55:04.000Z</time>
      </trkpt>
      <trkpt lat="47.85754" lon="7.13141">
        <ele>1150.8000488281</ele>
        <time>2023-05-21T07:55:05.000Z</time>
      </trkpt>
      <trkpt lat="47.85757" lon="7.13143">
        <ele>1150.1999511719</ele>
        <time>2023-05-21T07:55:06.000Z</time>
      </trkpt>
      <trkpt lat="47.85759" lon="7.13145">
        <ele>1149.5999755859</ele>
        <time>2023-05-21T07:55:07.000Z</time>
      </trkpt>
      <trkpt lat="47.85762" lon="7.13146">
        <ele>1149.1999511719</ele>
        <time>2023-05-21T07:55:08.000Z</time>
      </trkpt>
      <trkpt lat="47.85763" lon="7.13147">
        <ele>1148.5999755859</ele>
        <time>2023-05-21T07:55:09.000Z</time>
      </trkpt>
      <trkpt lat="47.85764" lon="7.13148">
        <ele>1148</ele>
        <time>2023-05-21T07:55:10.000Z</time>
      </trkpt>
      <trkpt lat="47.85764" lon="7.13151">
        <ele>1148</ele>
        <time>2023-05-21T07:55:13.000Z</time>
      </trkpt>
      <trkpt lat="47.85767" lon="7.1316">
        <ele>1146</ele>
        <time>2023-05-21T07:55:38.000Z</time>
      </trkpt>
      <trkpt lat="47.85772" lon="7.13176">
        <ele>1146</ele>
        <time>2023-05-21T07:55:43.000Z</time>
      </trkpt>
      <trkpt lat="47.85774" lon="7.13195">
        <ele>1145.5999755859</ele>
        <time>2023-05-21T07:55:48.000Z</time>
      </trkpt>
      <trkpt lat="47.85773" lon="7.132">
        <ele>1145.1999511719</ele>
        <time>2023-05-21T07:55:49.000Z</time>
      </trkpt>
      <trkpt lat="47.85773" lon="7.13204">
        <ele>1144.8000488281</ele>
        <time>2023-05-21T07:55:50.000Z</time>
      </trkpt>
      <trkpt lat="47.85772" lon="7.13207">
        <ele>1143.8000488281</ele>
        <time>2023-05-21T07:55:51.000Z</time>
      </trkpt>
      <trkpt lat="47.85771" lon="7.13211">
        <ele>1143.8000488281</ele>
        <time>2023-05-21T07:55:53.000Z</time>
      </trkpt>
      <trkpt lat="47.85772" lon="7.13215">
        <ele>1143.8000488281</ele>
        <time>2023-05-21T07:55:55.000Z</time>
      </trkpt>
      <trkpt lat="47.85773" lon="7.13225">
        <ele>1143.8000488281</ele>
        <time>2023-05-21T07:55:58.000Z</time>
      </trkpt>
      <trkpt lat="47.85773" lon="7.13229">
        <ele>1143.4000244141</ele>
        <time>2023-05-21T07:55:59.000Z</time>
      </trkpt>
      <trkpt lat="47.85775" lon="7.1324">
        <ele>1142.8000488281</ele>
        <time>2023-05-21T07:56:00.000Z</time>
      </trkpt>
      <trkpt lat="47.85777" lon="7.13248">
        <ele>1142.4000244141</ele>
        <time>2023-05-21T07:56:01.000Z</time>
      </trkpt>
      <trkpt lat="47.85778" lon="7.13255">
        <ele>1141.8000488281</ele>
        <time>2023-05-21T07:56:02.000Z</time>
      </trkpt>
      <trkpt lat="47.85778" lon="7.13263">
        <ele>1141</ele>
        <time>2023-05-21T07:56:03.000Z</time>
      </trkpt>
      <trkpt lat="47.85779" lon="7.13272">
        <ele>1140.4000244141</ele>
        <time>2023-05-21T07:56:04.000Z</time>
      </trkpt>
      <trkpt lat="47.8578" lon="7.13281">
        <ele>1139.4000244141</ele>
        <time>2023-05-21T07:56:05.000Z</time>
      </trkpt>
      <trkpt lat="47.8578" lon="7.13286">
        <ele>1138.5999755859</ele>
        <time>2023-05-21T07:56:06.000Z</time>
      </trkpt>
      <trkpt lat="47.8578" lon="7.13292">
        <ele>1137.8000488281</ele>
        <time>2023-05-21T07:56:07.000Z</time>
      </trkpt>
      <trkpt lat="47.85778" lon="7.13297">
        <ele>1137</ele>
        <time>2023-05-21T07:56:08.000Z</time>
      </trkpt>
      <trkpt lat="47.85777" lon="7.13303">
        <ele>1136.1999511719</ele>
        <time>2023-05-21T07:56:09.000Z</time>
      </trkpt>
      <trkpt lat="47.85778" lon="7.13308">
        <ele>1135.4000244141</ele>
        <time>2023-05-21T07:56:10.000Z</time>
      </trkpt>
      <trkpt lat="47.85778" lon="7.13318">
        <ele>1134.5999755859</ele>
        <time>2023-05-21T07:56:11.000Z</time>
      </trkpt>
      <trkpt lat="47.85779" lon="7.13326">
        <ele>1133.8000488281</ele>
        <time>2023-05-21T07:56:12.000Z</time>
      </trkpt>
      <trkpt lat="47.85779" lon="7.13335">
        <ele>1133.1999511719</ele>
        <time>2023-05-21T07:56:13.000Z</time>
      </trkpt>
      <trkpt lat="47.85778" lon="7.13344">
        <ele>1132.4000244141</ele>
        <time>2023-05-21T07:56:14.000Z</time>
      </trkpt>
      <trkpt lat="47.85777" lon="7.13351">
        <ele>1131.5999755859</ele>
        <time>2023-05-21T07:56:15.000Z</time>
      </trkpt>
      <trkpt lat="47.85776" lon="7.13358">
        <ele>1129.8000488281</ele>
        <time>2023-05-21T07:56:16.000Z</time>
      </trkpt>
      <trkpt lat="47.85775" lon="7.13365">
        <ele>1128.5999755859</ele>
        <time>2023-05-21T07:56:17.000Z</time>
      </trkpt>
      <trkpt lat="47.85775" lon="7.13373">
        <ele>1127.5999755859</ele>
        <time>2023-05-21T07:56:18.000Z</time>
      </trkpt>
      <trkpt lat="47.85775" lon="7.1338">
        <ele>1126.4000244141</ele>
        <time>2023-05-21T07:56:19.000Z</time>
      </trkpt>
      <trkpt lat="47.85775" lon="7.13387">
        <ele>1125.4000244141</ele>
        <time>2023-05-21T07:56:20.000Z</time>
      </trkpt>
      <trkpt lat="47.85775" lon="7.13393">
        <ele>1124.1999511719</ele>
        <time>2023-05-21T07:56:21.000Z</time>
      </trkpt>
      <trkpt lat="47.85776" lon="7.13397">
        <ele>1123</ele>
        <time>2023-05-21T07:56:22.000Z</time>
      </trkpt>
      <trkpt lat="47.85778" lon="7.13403">
        <ele>1121.8000488281</ele>
        <time>2023-05-21T07:56:23.000Z</time>
      </trkpt>
      <trkpt lat="47.85779" lon="7.13408">
        <ele>1120.4000244141</ele>
        <time>2023-05-21T07:56:24.000Z</time>
      </trkpt>
      <trkpt lat="47.85781" lon="7.13416">
        <ele>1119.1999511719</ele>
        <time>2023-05-21T07:56:25.000Z</time>
      </trkpt>
      <trkpt lat="47.85781" lon="7.13421">
        <ele>1117.8000488281</ele>
        <time>2023-05-21T07:56:26.000Z</time>
      </trkpt>
      <trkpt lat="47.8578" lon="7.13426">
        <ele>1116.5999755859</ele>
        <time>2023-05-21T07:56:27.000Z</time>
      </trkpt>
      <trkpt lat="47.8578" lon="7.13427">
        <ele>1115.4000244141</ele>
        <time>2023-05-21T07:56:28.000Z</time>
      </trkpt>
      <trkpt lat="47.8578" lon="7.13428">
        <ele>1114.1999511719</ele>
        <time>2023-05-21T07:56:29.000Z</time>
      </trkpt>
      <trkpt lat="47.85778" lon="7.13433">
        <ele>1108.4000244141</ele>
        <time>2023-05-21T07:56:40.000Z</time>
      </trkpt>
      <trkpt lat="47.85778" lon="7.13445">
        <ele>1108</ele>
        <time>2023-05-21T07:56:42.000Z</time>
      </trkpt>
      <trkpt lat="47.85779" lon="7.13452">
        <ele>1107.4000244141</ele>
        <time>2023-05-21T07:56:43.000Z</time>
      </trkpt>
      <trkpt lat="47.85779" lon="7.13459">
        <ele>1107</ele>
        <time>2023-05-21T07:56:44.000Z</time>
      </trkpt>
      <trkpt lat="47.85779" lon="7.13465">
        <ele>1106.5999755859</ele>
        <time>2023-05-21T07:56:45.000Z</time>
      </trkpt>
      <trkpt lat="47.8578" lon="7.13469">
        <ele>1105.8000488281</ele>
        <time>2023-05-21T07:56:46.000Z</time>
      </trkpt>
      <trkpt lat="47.85781" lon="7.13474">
        <ele>1105.1999511719</ele>
        <time>2023-05-21T07:56:47.000Z</time>
      </trkpt>
      <trkpt lat="47.8578" lon="7.1348">
        <ele>1104.4000244141</ele>
        <time>2023-05-21T07:56:48.000Z</time>
      </trkpt>
      <trkpt lat="47.85781" lon="7.13486">
        <ele>1103.8000488281</ele>
        <time>2023-05-21T07:56:49.000Z</time>
      </trkpt>
      <trkpt lat="47.85782" lon="7.13492">
        <ele>1103.1999511719</ele>
        <time>2023-05-21T07:56:50.000Z</time>
      </trkpt>
      <trkpt lat="47.85782" lon="7.13497">
        <ele>1102.5999755859</ele>
        <time>2023-05-21T07:56:51.000Z</time>
      </trkpt>
      <trkpt lat="47.85781" lon="7.13504">
        <ele>1102.1999511719</ele>
        <time>2023-05-21T07:56:52.000Z</time>
      </trkpt>
      <trkpt lat="47.85781" lon="7.13509">
        <ele>1101.5999755859</ele>
        <time>2023-05-21T07:56:53.000Z</time>
      </trkpt>
      <trkpt lat="47.85782" lon="7.13514">
        <ele>1101.1999511719</ele>
        <time>2023-05-21T07:56:54.000Z</time>
      </trkpt>
      <trkpt lat="47.85783" lon="7.13521">
        <ele>1100.8000488281</ele>
        <time>2023-05-21T07:56:55.000Z</time>
      </trkpt>
      <trkpt lat="47.85783" lon="7.13528">
        <ele>1100.8000488281</ele>
        <time>2023-05-21T07:56:56.000Z</time>
      </trkpt>
      <trkpt lat="47.85785" lon="7.13535">
        <ele>1100.1999511719</ele>
        <time>2023-05-21T07:56:57.000Z</time>
      </trkpt>
      <trkpt lat="47.85787" lon="7.13543">
        <ele>1099.8000488281</ele>
        <time>2023-05-21T07:56:58.000Z</time>
      </trkpt>
      <trkpt lat="47.85787" lon="7.13551">
        <ele>1099.1999511719</ele>
        <time>2023-05-21T07:56:59.000Z</time>
      </trkpt>
      <trkpt lat="47.85787" lon="7.13557">
        <ele>1098.8000488281</ele>
        <time>2023-05-21T07:57:00.000Z</time>
      </trkpt>
      <trkpt lat="47.85788" lon="7.13563">
        <ele>1098.1999511719</ele>
        <time>2023-05-21T07:57:01.000Z</time>
      </trkpt>
      <trkpt lat="47.85789" lon="7.13571">
        <ele>1097.5999755859</ele>
        <time>2023-05-21T07:57:02.000Z</time>
      </trkpt>
      <trkpt lat="47.85788" lon="7.13577">
        <ele>1097</ele>
        <time>2023-05-21T07:57:03.000Z</time>
      </trkpt>
      <trkpt lat="47.85787" lon="7.13582">
        <ele>1096.4000244141</ele>
        <time>2023-05-21T07:57:04.000Z</time>
      </trkpt>
      <trkpt lat="47.85785" lon="7.13586">
        <ele>1095.8000488281</ele>
        <time>2023-05-21T07:57:05.000Z</time>
      </trkpt>
      <trkpt lat="47.85785" lon="7.13599">
        <ele>1095.4000244141</ele>
        <time>2023-05-21T07:57:08.000Z</time>
      </trkpt>
      <trkpt lat="47.85786" lon="7.13604">
        <ele>1095</ele>
        <time>2023-05-21T07:57:09.000Z</time>
      </trkpt>
      <trkpt lat="47.85786" lon="7.13609">
        <ele>1094.5999755859</ele>
        <time>2023-05-21T07:57:10.000Z</time>
      </trkpt>
      <trkpt lat="47.85786" lon="7.13614">
        <ele>1094.1999511719</ele>
        <time>2023-05-21T07:57:11.000Z</time>
      </trkpt>
      <trkpt lat="47.85787" lon="7.13621">
        <ele>1093.8000488281</ele>
        <time>2023-05-21T07:57:12.000Z</time>
      </trkpt>
      <trkpt lat="47.85788" lon="7.13627">
        <ele>1093.1999511719</ele>
        <time>2023-05-21T07:57:13.000Z</time>
      </trkpt>
      <trkpt lat="47.85788" lon="7.13632">
        <ele>1092.8000488281</ele>
        <time>2023-05-21T07:57:14.000Z</time>
      </trkpt>
      <trkpt lat="47.85789" lon="7.13639">
        <ele>1092.4000244141</ele>
        <time>2023-05-21T07:57:15.000Z</time>
      </trkpt>
      <trkpt lat="47.8579" lon="7.13647">
        <ele>1091.8000488281</ele>
        <time>2023-05-21T07:57:16.000Z</time>
      </trkpt>
      <trkpt lat="47.85791" lon="7.13654">
        <ele>1091.1999511719</ele>
        <time>2023-05-21T07:57:17.000Z</time>
      </trkpt>
      <trkpt lat="47.85792" lon="7.13662">
        <ele>1090.4000244141</ele>
        <time>2023-05-21T07:57:18.000Z</time>
      </trkpt>
      <trkpt lat="47.85791" lon="7.13667">
        <ele>1089.8000488281</ele>
        <time>2023-05-21T07:57:19.000Z</time>
      </trkpt>
      <trkpt lat="47.85791" lon="7.13673">
        <ele>1089.1999511719</ele>
        <time>2023-05-21T07:57:20.000Z</time>
      </trkpt>
      <trkpt lat="47.85793" lon="7.13679">
        <ele>1088.4000244141</ele>
        <time>2023-05-21T07:57:21.000Z</time>
      </trkpt>
      <trkpt lat="47.85794" lon="7.13681">
        <ele>1087.8000488281</ele>
        <time>2023-05-21T07:57:22.000Z</time>
      </trkpt>
      <trkpt lat="47.85794" lon="7.13684">
        <ele>1087</ele>
        <time>2023-05-21T07:57:23.000Z</time>
      </trkpt>
      <trkpt lat="47.85794" lon="7.13688">
        <ele>1086.1999511719</ele>
        <time>2023-05-21T07:57:24.000Z</time>
      </trkpt>
      <trkpt lat="47.85794" lon="7.13692">
        <ele>1085.5999755859</ele>
        <time>2023-05-21T07:57:25.000Z</time>
      </trkpt>
      <trkpt lat="47.85794" lon="7.13697">
        <ele>1084.8000488281</ele>
        <time>2023-05-21T07:57:26.000Z</time>
      </trkpt>
      <trkpt lat="47.85794" lon="7.137">
        <ele>1084.1999511719</ele>
        <time>2023-05-21T07:57:27.000Z</time>
      </trkpt>
      <trkpt lat="47.85795" lon="7.13703">
        <ele>1083.5999755859</ele>
        <time>2023-05-21T07:57:28.000Z</time>
      </trkpt>
      <trkpt lat="47.85795" lon="7.13707">
        <ele>1082.8000488281</ele>
        <time>2023-05-21T07:57:29.000Z</time>
      </trkpt>
      <trkpt lat="47.85795" lon="7.13712">
        <ele>1081.4000244141</ele>
        <time>2023-05-21T07:57:30.000Z</time>
      </trkpt>
      <trkpt lat="47.85795" lon="7.13716">
        <ele>1080.5999755859</ele>
        <time>2023-05-21T07:57:31.000Z</time>
      </trkpt>
      <trkpt lat="47.85795" lon="7.13719">
        <ele>1079.8000488281</ele>
        <time>2023-05-21T07:57:32.000Z</time>
      </trkpt>
      <trkpt lat="47.85794" lon="7.13722">
        <ele>1079</ele>
        <time>2023-05-21T07:57:33.000Z</time>
      </trkpt>
      <trkpt lat="47.85793" lon="7.13726">
        <ele>1078.1999511719</ele>
        <time>2023-05-21T07:57:34.000Z</time>
      </trkpt>
      <trkpt lat="47.85791" lon="7.13727">
        <ele>1077.4000244141</ele>
        <time>2023-05-21T07:57:35.000Z</time>
      </trkpt>
      <trkpt lat="47.85791" lon="7.13729">
        <ele>1076.8000488281</ele>
        <time>2023-05-21T07:57:36.000Z</time>
      </trkpt>
      <trkpt lat="47.8579" lon="7.13731">
        <ele>1076</ele>
        <time>2023-05-21T07:57:37.000Z</time>
      </trkpt>
      <trkpt lat="47.85789" lon="7.13732">
        <ele>1072.4000244141</ele>
        <time>2023-05-21T07:57:49.000Z</time>
      </trkpt>
      <trkpt lat="47.85789" lon="7.13736">
        <ele>1072.4000244141</ele>
        <time>2023-05-21T07:57:50.000Z</time>
      </trkpt>
      <trkpt lat="47.85787" lon="7.13741">
        <ele>1072.4000244141</ele>
        <time>2023-05-21T07:57:51.000Z</time>
      </trkpt>
      <trkpt lat="47.85784" lon="7.13756">
        <ele>1072</ele>
        <time>2023-05-21T07:57:53.000Z</time>
      </trkpt>
      <trkpt lat="47.85784" lon="7.13763">
        <ele>1071.5999755859</ele>
        <time>2023-05-21T07:57:54.000Z</time>
      </trkpt>
      <trkpt lat="47.85783" lon="7.13768">
        <ele>1070.8000488281</ele>
        <time>2023-05-21T07:57:55.000Z</time>
      </trkpt>
      <trkpt lat="47.85781" lon="7.13773">
        <ele>1070.4000244141</ele>
        <time>2023-05-21T07:57:56.000Z</time>
      </trkpt>
      <trkpt lat="47.8578" lon="7.13778">
        <ele>1069.8000488281</ele>
        <time>2023-05-21T07:57:57.000Z</time>
      </trkpt>
      <trkpt lat="47.8578" lon="7.13784">
        <ele>1069.4000244141</ele>
        <time>2023-05-21T07:57:58.000Z</time>
      </trkpt>
      <trkpt lat="47.8578" lon="7.13791">
        <ele>1068.8000488281</ele>
        <time>2023-05-21T07:57:59.000Z</time>
      </trkpt>
      <trkpt lat="47.85779" lon="7.13794">
        <ele>1068.4000244141</ele>
        <time>2023-05-21T07:58:00.000Z</time>
      </trkpt>
      <trkpt lat="47.85777" lon="7.13797">
        <ele>1068.4000244141</ele>
        <time>2023-05-21T07:58:02.000Z</time>
      </trkpt>
      <trkpt lat="47.85775" lon="7.13808">
        <ele>1068.4000244141</ele>
        <time>2023-05-21T07:58:06.000Z</time>
      </trkpt>
      <trkpt lat="47.85776" lon="7.13812">
        <ele>1068.4000244141</ele>
        <time>2023-05-21T07:58:07.000Z</time>
      </trkpt>
      <trkpt lat="47.85773" lon="7.13832">
        <ele>1068.4000244141</ele>
        <time>2023-05-21T07:58:10.000Z</time>
      </trkpt>
      <trkpt lat="47.85773" lon="7.13841">
        <ele>1068</ele>
        <time>2023-05-21T07:58:12.000Z</time>
      </trkpt>
      <trkpt lat="47.85773" lon="7.13846">
        <ele>1067.5999755859</ele>
        <time>2023-05-21T07:58:13.000Z</time>
      </trkpt>
      <trkpt lat="47.85772" lon="7.13848">
        <ele>1067.1999511719</ele>
        <time>2023-05-21T07:58:14.000Z</time>
      </trkpt>
      <trkpt lat="47.85772" lon="7.13848">
        <ele>1066.5999755859</ele>
        <time>2023-05-21T07:58:15.000Z</time>
      </trkpt>
      <trkpt lat="47.85772" lon="7.13851">
        <ele>1066.1999511719</ele>
        <time>2023-05-21T07:58:16.000Z</time>
      </trkpt>
      <trkpt lat="47.85771" lon="7.13854">
        <ele>1066.1999511719</ele>
        <time>2023-05-21T07:58:45.000Z</time>
      </trkpt>
      <trkpt lat="47.85769" lon="7.13857">
        <ele>1066.1999511719</ele>
        <time>2023-05-21T07:58:46.000Z</time>
      </trkpt>
      <trkpt lat="47.85763" lon="7.13872">
        <ele>1066.1999511719</ele>
        <time>2023-05-21T07:58:49.000Z</time>
      </trkpt>
      <trkpt lat="47.85759" lon="7.13881">
        <ele>1065.8000488281</ele>
        <time>2023-05-21T07:58:50.000Z</time>
      </trkpt>
      <trkpt lat="47.85755" lon="7.13892">
        <ele>1065.1999511719</ele>
        <time>2023-05-21T07:58:51.000Z</time>
      </trkpt>
      <trkpt lat="47.85751" lon="7.13902">
        <ele>1064.8000488281</ele>
        <time>2023-05-21T07:58:52.000Z</time>
      </trkpt>
      <trkpt lat="47.85748" lon="7.13912">
        <ele>1064.1999511719</ele>
        <time>2023-05-21T07:58:53.000Z</time>
      </trkpt>
      <trkpt lat="47.85747" lon="7.13922">
        <ele>1063.4000244141</ele>
        <time>2023-05-21T07:58:54.000Z</time>
      </trkpt>
      <trkpt lat="47.85746" lon="7.13932">
        <ele>1062.5999755859</ele>
        <time>2023-05-21T07:58:55.000Z</time>
      </trkpt>
      <trkpt lat="47.85745" lon="7.13941">
        <ele>1062</ele>
        <time>2023-05-21T07:58:56.000Z</time>
      </trkpt>
      <trkpt lat="47.85745" lon="7.13952">
        <ele>1061.1999511719</ele>
        <time>2023-05-21T07:58:57.000Z</time>
      </trkpt>
      <trkpt lat="47.85745" lon="7.13963">
        <ele>1060.4000244141</ele>
        <time>2023-05-21T07:58:58.000Z</time>
      </trkpt>
      <trkpt lat="47.85745" lon="7.13974">
        <ele>1059.5999755859</ele>
        <time>2023-05-21T07:58:59.000Z</time>
      </trkpt>
      <trkpt lat="47.85745" lon="7.13985">
        <ele>1058.8000488281</ele>
        <time>2023-05-21T07:59:00.000Z</time>
      </trkpt>
      <trkpt lat="47.85746" lon="7.13996">
        <ele>1058</ele>
        <time>2023-05-21T07:59:01.000Z</time>
      </trkpt>
      <trkpt lat="47.85747" lon="7.14007">
        <ele>1057.1999511719</ele>
        <time>2023-05-21T07:59:02.000Z</time>
      </trkpt>
      <trkpt lat="47.85746" lon="7.14019">
        <ele>1056.5999755859</ele>
        <time>2023-05-21T07:59:03.000Z</time>
      </trkpt>
      <trkpt lat="47.85746" lon="7.1403">
        <ele>1055.8000488281</ele>
        <time>2023-05-21T07:59:04.000Z</time>
      </trkpt>
      <trkpt lat="47.85744" lon="7.14043">
        <ele>1055</ele>
        <time>2023-05-21T07:59:05.000Z</time>
      </trkpt>
      <trkpt lat="47.85743" lon="7.14055">
        <ele>1054.1999511719</ele>
        <time>2023-05-21T07:59:06.000Z</time>
      </trkpt>
      <trkpt lat="47.85741" lon="7.14069">
        <ele>1053.5999755859</ele>
        <time>2023-05-21T07:59:07.000Z</time>
      </trkpt>
      <trkpt lat="47.85737" lon="7.14082">
        <ele>1052.8000488281</ele>
        <time>2023-05-21T07:59:08.000Z</time>
      </trkpt>
      <trkpt lat="47.85734" lon="7.14095">
        <ele>1051.1999511719</ele>
        <time>2023-05-21T07:59:09.000Z</time>
      </trkpt>
      <trkpt lat="47.85731" lon="7.14109">
        <ele>1050.1999511719</ele>
        <time>2023-05-21T07:59:10.000Z</time>
      </trkpt>
      <trkpt lat="47.85726" lon="7.14121">
        <ele>1049.4000244141</ele>
        <time>2023-05-21T07:59:11.000Z</time>
      </trkpt>
      <trkpt lat="47.85722" lon="7.14133">
        <ele>1048.4000244141</ele>
        <time>2023-05-21T07:59:12.000Z</time>
      </trkpt>
      <trkpt lat="47.85717" lon="7.14145">
        <ele>1047.4000244141</ele>
        <time>2023-05-21T07:59:13.000Z</time>
      </trkpt>
      <trkpt lat="47.85712" lon="7.14156">
        <ele>1046.4000244141</ele>
        <time>2023-05-21T07:59:14.000Z</time>
      </trkpt>
      <trkpt lat="47.85707" lon="7.14165">
        <ele>1045.4000244141</ele>
        <time>2023-05-21T07:59:15.000Z</time>
      </trkpt>
      <trkpt lat="47.85703" lon="7.14174">
        <ele>1044.4000244141</ele>
        <time>2023-05-21T07:59:16.000Z</time>
      </trkpt>
      <trkpt lat="47.85699" lon="7.14182">
        <ele>1043.4000244141</ele>
        <time>2023-05-21T07:59:17.000Z</time>
      </trkpt>
      <trkpt lat="47.85697" lon="7.14191">
        <ele>1042.5999755859</ele>
        <time>2023-05-21T07:59:18.000Z</time>
      </trkpt>
      <trkpt lat="47.85696" lon="7.142">
        <ele>1041.8000488281</ele>
        <time>2023-05-21T07:59:19.000Z</time>
      </trkpt>
      <trkpt lat="47.85696" lon="7.14209">
        <ele>1041</ele>
        <time>2023-05-21T07:59:20.000Z</time>
      </trkpt>
      <trkpt lat="47.85697" lon="7.1422">
        <ele>1040</ele>
        <time>2023-05-21T07:59:21.000Z</time>
      </trkpt>
      <trkpt lat="47.85698" lon="7.1423">
        <ele>1039.1999511719</ele>
        <time>2023-05-21T07:59:22.000Z</time>
      </trkpt>
      <trkpt lat="47.85698" lon="7.1424">
        <ele>1038.1999511719</ele>
        <time>2023-05-21T07:59:23.000Z</time>
      </trkpt>
      <trkpt lat="47.857" lon="7.1425">
        <ele>1037.1999511719</ele>
        <time>2023-05-21T07:59:24.000Z</time>
      </trkpt>
      <trkpt lat="47.85701" lon="7.14261">
        <ele>1036.1999511719</ele>
        <time>2023-05-21T07:59:25.000Z</time>
      </trkpt>
      <trkpt lat="47.85702" lon="7.14272">
        <ele>1035.4000244141</ele>
        <time>2023-05-21T07:59:26.000Z</time>
      </trkpt>
      <trkpt lat="47.85704" lon="7.14282">
        <ele>1034.4000244141</ele>
        <time>2023-05-21T07:59:27.000Z</time>
      </trkpt>
      <trkpt lat="47.85707" lon="7.14291">
        <ele>1033.4000244141</ele>
        <time>2023-05-21T07:59:28.000Z</time>
      </trkpt>
      <trkpt lat="47.85708" lon="7.14298">
        <ele>1032.5999755859</ele>
        <time>2023-05-21T07:59:29.000Z</time>
      </trkpt>
      <trkpt lat="47.85709" lon="7.14304">
        <ele>1031.5999755859</ele>
        <time>2023-05-21T07:59:30.000Z</time>
      </trkpt>
      <trkpt lat="47.8571" lon="7.14307">
        <ele>1030.8000488281</ele>
        <time>2023-05-21T07:59:31.000Z</time>
      </trkpt>
      <trkpt lat="47.85711" lon="7.14309">
        <ele>1030</ele>
        <time>2023-05-21T07:59:32.000Z</time>
      </trkpt>
      <trkpt lat="47.85711" lon="7.14314">
        <ele>1029</ele>
        <time>2023-05-21T07:59:33.000Z</time>
      </trkpt>
      <trkpt lat="47.85712" lon="7.1432">
        <ele>1027.4000244141</ele>
        <time>2023-05-21T07:59:34.000Z</time>
      </trkpt>
      <trkpt lat="47.85712" lon="7.14326">
        <ele>1026.8000488281</ele>
        <time>2023-05-21T07:59:35.000Z</time>
      </trkpt>
      <trkpt lat="47.85714" lon="7.14333">
        <ele>1026.1999511719</ele>
        <time>2023-05-21T07:59:36.000Z</time>
      </trkpt>
      <trkpt lat="47.85714" lon="7.1434">
        <ele>1025.5999755859</ele>
        <time>2023-05-21T07:59:37.000Z</time>
      </trkpt>
      <trkpt lat="47.85714" lon="7.14346">
        <ele>1025</ele>
        <time>2023-05-21T07:59:38.000Z</time>
      </trkpt>
      <trkpt lat="47.85715" lon="7.14354">
        <ele>1024.4000244141</ele>
        <time>2023-05-21T07:59:39.000Z</time>
      </trkpt>
      <trkpt lat="47.85714" lon="7.14362">
        <ele>1024</ele>
        <time>2023-05-21T07:59:40.000Z</time>
      </trkpt>
      <trkpt lat="47.85714" lon="7.14373">
        <ele>1023.4000244141</ele>
        <time>2023-05-21T07:59:41.000Z</time>
      </trkpt>
      <trkpt lat="47.85714" lon="7.14382">
        <ele>1022.5999755859</ele>
        <time>2023-05-21T07:59:42.000Z</time>
      </trkpt>
      <trkpt lat="47.85715" lon="7.14394">
        <ele>1022</ele>
        <time>2023-05-21T07:59:43.000Z</time>
      </trkpt>
      <trkpt lat="47.85715" lon="7.14404">
        <ele>1021.200012207</ele>
        <time>2023-05-21T07:59:44.000Z</time>
      </trkpt>
      <trkpt lat="47.85715" lon="7.14412">
        <ele>1020.4000244141</ele>
        <time>2023-05-21T07:59:45.000Z</time>
      </trkpt>
      <trkpt lat="47.85715" lon="7.14419">
        <ele>1019.799987793</ele>
        <time>2023-05-21T07:59:46.000Z</time>
      </trkpt>
      <trkpt lat="47.85715" lon="7.14427">
        <ele>1019</ele>
        <time>2023-05-21T07:59:47.000Z</time>
      </trkpt>
      <trkpt lat="47.85715" lon="7.14433">
        <ele>1018.200012207</ele>
        <time>2023-05-21T07:59:48.000Z</time>
      </trkpt>
      <trkpt lat="47.85716" lon="7.14439">
        <ele>1017.5999755859</ele>
        <time>2023-05-21T07:59:49.000Z</time>
      </trkpt>
      <trkpt lat="47.85717" lon="7.14445">
        <ele>1016.799987793</ele>
        <time>2023-05-21T07:59:50.000Z</time>
      </trkpt>
      <trkpt lat="47.85717" lon="7.14452">
        <ele>1016</ele>
        <time>2023-05-21T07:59:51.000Z</time>
      </trkpt>
      <trkpt lat="47.85717" lon="7.14459">
        <ele>1015.4000244141</ele>
        <time>2023-05-21T07:59:52.000Z</time>
      </trkpt>
      <trkpt lat="47.85716" lon="7.14467">
        <ele>1014.799987793</ele>
        <time>2023-05-21T07:59:53.000Z</time>
      </trkpt>
      <trkpt lat="47.85714" lon="7.14476">
        <ele>1014.200012207</ele>
        <time>2023-05-21T07:59:54.000Z</time>
      </trkpt>
      <trkpt lat="47.85713" lon="7.14484">
        <ele>1013.5999755859</ele>
        <time>2023-05-21T07:59:55.000Z</time>
      </trkpt>
      <trkpt lat="47.85713" lon="7.14492">
        <ele>1013</ele>
        <time>2023-05-21T07:59:56.000Z</time>
      </trkpt>
      <trkpt lat="47.85713" lon="7.145">
        <ele>1012.5999755859</ele>
        <time>2023-05-21T07:59:57.000Z</time>
      </trkpt>
      <trkpt lat="47.85714" lon="7.1451">
        <ele>1011.4000244141</ele>
        <time>2023-05-21T07:59:58.000Z</time>
      </trkpt>
      <trkpt lat="47.85715" lon="7.14519">
        <ele>1010.5999755859</ele>
        <time>2023-05-21T07:59:59.000Z</time>
      </trkpt>
      <trkpt lat="47.85716" lon="7.14529">
        <ele>1010</ele>
        <time>2023-05-21T08:00:00.000Z</time>
      </trkpt>
      <trkpt lat="47.85717" lon="7.1454">
        <ele>1009.200012207</ele>
        <time>2023-05-21T08:00:01.000Z</time>
      </trkpt>
      <trkpt lat="47.8572" lon="7.1455">
        <ele>1008.4000244141</ele>
        <time>2023-05-21T08:00:02.000Z</time>
      </trkpt>
      <trkpt lat="47.85722" lon="7.14559">
        <ele>1007.799987793</ele>
        <time>2023-05-21T08:00:03.000Z</time>
      </trkpt>
      <trkpt lat="47.85724" lon="7.14567">
        <ele>1007</ele>
        <time>2023-05-21T08:00:04.000Z</time>
      </trkpt>
      <trkpt lat="47.85726" lon="7.14572">
        <ele>1006.200012207</ele>
        <time>2023-05-21T08:00:05.000Z</time>
      </trkpt>
      <trkpt lat="47.85729" lon="7.14582">
        <ele>1005.5999755859</ele>
        <time>2023-05-21T08:00:06.000Z</time>
      </trkpt>
      <trkpt lat="47.85731" lon="7.14589">
        <ele>1004.799987793</ele>
        <time>2023-05-21T08:00:07.000Z</time>
      </trkpt>
      <trkpt lat="47.85733" lon="7.14593">
        <ele>1004</ele>
        <time>2023-05-21T08:00:08.000Z</time>
      </trkpt>
      <trkpt lat="47.85735" lon="7.14596">
        <ele>1003.4000244141</ele>
        <time>2023-05-21T08:00:09.000Z</time>
      </trkpt>
      <trkpt lat="47.85738" lon="7.146">
        <ele>1003</ele>
        <time>2023-05-21T08:00:10.000Z</time>
      </trkpt>
      <trkpt lat="47.85739" lon="7.14603">
        <ele>1002.4000244141</ele>
        <time>2023-05-21T08:00:11.000Z</time>
      </trkpt>
      <trkpt lat="47.85741" lon="7.14605">
        <ele>1001.799987793</ele>
        <time>2023-05-21T08:00:12.000Z</time>
      </trkpt>
      <trkpt lat="47.85743" lon="7.14608">
        <ele>1001.200012207</ele>
        <time>2023-05-21T08:00:13.000Z</time>
      </trkpt>
      <trkpt lat="47.85746" lon="7.14611">
        <ele>1000.799987793</ele>
        <time>2023-05-21T08:00:14.000Z</time>
      </trkpt>
      <trkpt lat="47.85747" lon="7.14613">
        <ele>1000.200012207</ele>
        <time>2023-05-21T08:00:15.000Z</time>
      </trkpt>
      <trkpt lat="47.85749" lon="7.14616">
        <ele>999.40002441406</ele>
        <time>2023-05-21T08:00:16.000Z</time>
      </trkpt>
      <trkpt lat="47.85751" lon="7.1462">
        <ele>998.79998779297</ele>
        <time>2023-05-21T08:00:17.000Z</time>
      </trkpt>
      <trkpt lat="47.85753" lon="7.14624">
        <ele>998.40002441406</ele>
        <time>2023-05-21T08:00:18.000Z</time>
      </trkpt>
      <trkpt lat="47.85755" lon="7.14629">
        <ele>998</ele>
        <time>2023-05-21T08:00:19.000Z</time>
      </trkpt>
      <trkpt lat="47.85756" lon="7.14634">
        <ele>997.59997558594</ele>
        <time>2023-05-21T08:00:20.000Z</time>
      </trkpt>
      <trkpt lat="47.85759" lon="7.14641">
        <ele>997</ele>
        <time>2023-05-21T08:00:21.000Z</time>
      </trkpt>
      <trkpt lat="47.85763" lon="7.14648">
        <ele>996.40002441406</ele>
        <time>2023-05-21T08:00:22.000Z</time>
      </trkpt>
      <trkpt lat="47.85767" lon="7.14654">
        <ele>995.79998779297</ele>
        <time>2023-05-21T08:00:23.000Z</time>
      </trkpt>
      <trkpt lat="47.85771" lon="7.14659">
        <ele>995.20001220703</ele>
        <time>2023-05-21T08:00:24.000Z</time>
      </trkpt>
      <trkpt lat="47.85774" lon="7.14663">
        <ele>994.59997558594</ele>
        <time>2023-05-21T08:00:25.000Z</time>
      </trkpt>
      <trkpt lat="47.85776" lon="7.1467">
        <ele>994</ele>
        <time>2023-05-21T08:00:26.000Z</time>
      </trkpt>
      <trkpt lat="47.85777" lon="7.14676">
        <ele>993.40002441406</ele>
        <time>2023-05-21T08:00:27.000Z</time>
      </trkpt>
      <trkpt lat="47.85776" lon="7.14678">
        <ele>992.79998779297</ele>
        <time>2023-05-21T08:00:28.000Z</time>
      </trkpt>
      <trkpt lat="47.85775" lon="7.14681">
        <ele>992</ele>
        <time>2023-05-21T08:00:29.000Z</time>
      </trkpt>
      <trkpt lat="47.85774" lon="7.14684">
        <ele>991.40002441406</ele>
        <time>2023-05-21T08:00:30.000Z</time>
      </trkpt>
      <trkpt lat="47.85772" lon="7.14686">
        <ele>990.79998779297</ele>
        <time>2023-05-21T08:00:31.000Z</time>
      </trkpt>
      <trkpt lat="47.8577" lon="7.1469">
        <ele>990</ele>
        <time>2023-05-21T08:00:32.000Z</time>
      </trkpt>
      <trkpt lat="47.85768" lon="7.14694">
        <ele>989.20001220703</ele>
        <time>2023-05-21T08:00:33.000Z</time>
      </trkpt>
      <trkpt lat="47.85766" lon="7.14698">
        <ele>988.40002441406</ele>
        <time>2023-05-21T08:00:34.000Z</time>
      </trkpt>
      <trkpt lat="47.85763" lon="7.14702">
        <ele>987.40002441406</ele>
        <time>2023-05-21T08:00:35.000Z</time>
      </trkpt>
      <trkpt lat="47.85753" lon="7.14704">
        <ele>985.40002441406</ele>
        <time>2023-05-21T08:00:37.000Z</time>
      </trkpt>
      <trkpt lat="47.85749" lon="7.14704">
        <ele>984.40002441406</ele>
        <time>2023-05-21T08:00:38.000Z</time>
      </trkpt>
      <trkpt lat="47.85745" lon="7.14703">
        <ele>983.59997558594</ele>
        <time>2023-05-21T08:00:39.000Z</time>
      </trkpt>
      <trkpt lat="47.85741" lon="7.147">
        <ele>982.59997558594</ele>
        <time>2023-05-21T08:00:40.000Z</time>
      </trkpt>
      <trkpt lat="47.85738" lon="7.14696">
        <ele>981.79998779297</ele>
        <time>2023-05-21T08:00:41.000Z</time>
      </trkpt>
      <trkpt lat="47.85733" lon="7.14692">
        <ele>981</ele>
        <time>2023-05-21T08:00:42.000Z</time>
      </trkpt>
      <trkpt lat="47.85729" lon="7.14688">
        <ele>980.20001220703</ele>
        <time>2023-05-21T08:00:43.000Z</time>
      </trkpt>
      <trkpt lat="47.85725" lon="7.14683">
        <ele>979.20001220703</ele>
        <time>2023-05-21T08:00:44.000Z</time>
      </trkpt>
      <trkpt lat="47.85719" lon="7.14676">
        <ele>979.20001220703</ele>
        <time>2023-05-21T08:00:46.000Z</time>
      </trkpt>
      <trkpt lat="47.85706" lon="7.14668">
        <ele>979.20001220703</ele>
        <time>2023-05-21T08:00:51.000Z</time>
      </trkpt>
      <trkpt lat="47.85703" lon="7.14668">
        <ele>979.20001220703</ele>
        <time>2023-05-21T08:00:53.000Z</time>
      </trkpt>
      <trkpt lat="47.85699" lon="7.14666">
        <ele>979.20001220703</ele>
        <time>2023-05-21T08:01:05.000Z</time>
      </trkpt>
      <trkpt lat="47.85696" lon="7.14666">
        <ele>979.20001220703</ele>
        <time>2023-05-21T08:01:06.000Z</time>
      </trkpt>
      <trkpt lat="47.85688" lon="7.14662">
        <ele>978.79998779297</ele>
        <time>2023-05-21T08:01:10.000Z</time>
      </trkpt>
      <trkpt lat="47.85685" lon="7.1466">
        <ele>978.40002441406</ele>
        <time>2023-05-21T08:01:11.000Z</time>
      </trkpt>
      <trkpt lat="47.85682" lon="7.14657">
        <ele>978</ele>
        <time>2023-05-21T08:01:12.000Z</time>
      </trkpt>
      <trkpt lat="47.85678" lon="7.14653">
        <ele>977.59997558594</ele>
        <time>2023-05-21T08:01:13.000Z</time>
      </trkpt>
      <trkpt lat="47.85673" lon="7.14649">
        <ele>977.20001220703</ele>
        <time>2023-05-21T08:01:14.000Z</time>
      </trkpt>
      <trkpt lat="47.85668" lon="7.14645">
        <ele>976.79998779297</ele>
        <time>2023-05-21T08:01:15.000Z</time>
      </trkpt>
      <trkpt lat="47.85662" lon="7.14639">
        <ele>976.40002441406</ele>
        <time>2023-05-21T08:01:16.000Z</time>
      </trkpt>
      <trkpt lat="47.85657" lon="7.14633">
        <ele>976</ele>
        <time>2023-05-21T08:01:17.000Z</time>
      </trkpt>
      <trkpt lat="47.85653" lon="7.14627">
        <ele>975.40002441406</ele>
        <time>2023-05-21T08:01:18.000Z</time>
      </trkpt>
      <trkpt lat="47.85649" lon="7.14622">
        <ele>974.79998779297</ele>
        <time>2023-05-21T08:01:19.000Z</time>
      </trkpt>
      <trkpt lat="47.85645" lon="7.14617">
        <ele>974.20001220703</ele>
        <time>2023-05-21T08:01:20.000Z</time>
      </trkpt>
      <trkpt lat="47.85642" lon="7.14612">
        <ele>973.40002441406</ele>
        <time>2023-05-21T08:01:21.000Z</time>
      </trkpt>
      <trkpt lat="47.85638" lon="7.14606">
        <ele>972.79998779297</ele>
        <time>2023-05-21T08:01:22.000Z</time>
      </trkpt>
      <trkpt lat="47.85635" lon="7.146">
        <ele>972.79998779297</ele>
        <time>2023-05-21T08:01:23.000Z</time>
      </trkpt>
      <trkpt lat="47.85632" lon="7.14595">
        <ele>972.40002441406</ele>
        <time>2023-05-21T08:01:24.000Z</time>
      </trkpt>
      <trkpt lat="47.85629" lon="7.14589">
        <ele>971.59997558594</ele>
        <time>2023-05-21T08:01:25.000Z</time>
      </trkpt>
      <trkpt lat="47.85626" lon="7.14584">
        <ele>971.20001220703</ele>
        <time>2023-05-21T08:01:26.000Z</time>
      </trkpt>
      <trkpt lat="47.85624" lon="7.14578">
        <ele>970.79998779297</ele>
        <time>2023-05-21T08:01:27.000Z</time>
      </trkpt>
      <trkpt lat="47.85618" lon="7.14567">
        <ele>970.79998779297</ele>
        <time>2023-05-21T08:01:29.000Z</time>
      </trkpt>
      <trkpt lat="47.85611" lon="7.14554">
        <ele>970.79998779297</ele>
        <time>2023-05-21T08:01:31.000Z</time>
      </trkpt>
      <trkpt lat="47.85604" lon="7.14539">
        <ele>970.20001220703</ele>
        <time>2023-05-21T08:01:33.000Z</time>
      </trkpt>
      <trkpt lat="47.856" lon="7.1453">
        <ele>969.79998779297</ele>
        <time>2023-05-21T08:01:34.000Z</time>
      </trkpt>
      <trkpt lat="47.85596" lon="7.14522">
        <ele>969.20001220703</ele>
        <time>2023-05-21T08:01:35.000Z</time>
      </trkpt>
      <trkpt lat="47.85593" lon="7.14513">
        <ele>968.79998779297</ele>
        <time>2023-05-21T08:01:36.000Z</time>
      </trkpt>
      <trkpt lat="47.85589" lon="7.14505">
        <ele>968.20001220703</ele>
        <time>2023-05-21T08:01:37.000Z</time>
      </trkpt>
      <trkpt lat="47.85585" lon="7.14496">
        <ele>967.59997558594</ele>
        <time>2023-05-21T08:01:38.000Z</time>
      </trkpt>
      <trkpt lat="47.85582" lon="7.14488">
        <ele>967</ele>
        <time>2023-05-21T08:01:39.000Z</time>
      </trkpt>
      <trkpt lat="47.85578" lon="7.1448">
        <ele>966.40002441406</ele>
        <time>2023-05-21T08:01:40.000Z</time>
      </trkpt>
      <trkpt lat="47.85574" lon="7.14472">
        <ele>965.79998779297</ele>
        <time>2023-05-21T08:01:41.000Z</time>
      </trkpt>
      <trkpt lat="47.8557" lon="7.14465">
        <ele>965.79998779297</ele>
        <time>2023-05-21T08:01:42.000Z</time>
      </trkpt>
      <trkpt lat="47.85566" lon="7.14458">
        <ele>965.20001220703</ele>
        <time>2023-05-21T08:01:43.000Z</time>
      </trkpt>
      <trkpt lat="47.85561" lon="7.14452">
        <ele>964.79998779297</ele>
        <time>2023-05-21T08:01:44.000Z</time>
      </trkpt>
      <trkpt lat="47.85557" lon="7.14445">
        <ele>964.20001220703</ele>
        <time>2023-05-21T08:01:45.000Z</time>
      </trkpt>
      <trkpt lat="47.85553" lon="7.14438">
        <ele>963.79998779297</ele>
        <time>2023-05-21T08:01:46.000Z</time>
      </trkpt>
      <trkpt lat="47.8555" lon="7.14431">
        <ele>963.20001220703</ele>
        <time>2023-05-21T08:01:47.000Z</time>
      </trkpt>
      <trkpt lat="47.85547" lon="7.14424">
        <ele>962.79998779297</ele>
        <time>2023-05-21T08:01:48.000Z</time>
      </trkpt>
      <trkpt lat="47.85544" lon="7.14419">
        <ele>962.40002441406</ele>
        <time>2023-05-21T08:01:49.000Z</time>
      </trkpt>
      <trkpt lat="47.85542" lon="7.14416">
        <ele>961.40002441406</ele>
        <time>2023-05-21T08:01:50.000Z</time>
      </trkpt>
      <trkpt lat="47.85541" lon="7.14413">
        <ele>961</ele>
        <time>2023-05-21T08:01:51.000Z</time>
      </trkpt>
      <trkpt lat="47.85539" lon="7.14408">
        <ele>960.59997558594</ele>
        <time>2023-05-21T08:01:53.000Z</time>
      </trkpt>
      <trkpt lat="47.85538" lon="7.14406">
        <ele>960</ele>
        <time>2023-05-21T08:01:54.000Z</time>
      </trkpt>
      <trkpt lat="47.85537" lon="7.14403">
        <ele>959.59997558594</ele>
        <time>2023-05-21T08:01:55.000Z</time>
      </trkpt>
      <trkpt lat="47.85535" lon="7.14399">
        <ele>959.20001220703</ele>
        <time>2023-05-21T08:01:56.000Z</time>
      </trkpt>
      <trkpt lat="47.85532" lon="7.14394">
        <ele>958.79998779297</ele>
        <time>2023-05-21T08:01:57.000Z</time>
      </trkpt>
      <trkpt lat="47.85529" lon="7.14389">
        <ele>958.79998779297</ele>
        <time>2023-05-21T08:01:58.000Z</time>
      </trkpt>
      <trkpt lat="47.85526" lon="7.14383">
        <ele>958.20001220703</ele>
        <time>2023-05-21T08:01:59.000Z</time>
      </trkpt>
      <trkpt lat="47.85524" lon="7.14377">
        <ele>957.79998779297</ele>
        <time>2023-05-21T08:02:00.000Z</time>
      </trkpt>
      <trkpt lat="47.8552" lon="7.14371">
        <ele>957.20001220703</ele>
        <time>2023-05-21T08:02:01.000Z</time>
      </trkpt>
      <trkpt lat="47.85517" lon="7.14363">
        <ele>956.79998779297</ele>
        <time>2023-05-21T08:02:02.000Z</time>
      </trkpt>
      <trkpt lat="47.85514" lon="7.14355">
        <ele>956.20001220703</ele>
        <time>2023-05-21T08:02:03.000Z</time>
      </trkpt>
      <trkpt lat="47.85511" lon="7.14348">
        <ele>955.59997558594</ele>
        <time>2023-05-21T08:02:04.000Z</time>
      </trkpt>
      <trkpt lat="47.85508" lon="7.14341">
        <ele>955</ele>
        <time>2023-05-21T08:02:05.000Z</time>
      </trkpt>
      <trkpt lat="47.85505" lon="7.14335">
        <ele>954.40002441406</ele>
        <time>2023-05-21T08:02:06.000Z</time>
      </trkpt>
      <trkpt lat="47.85503" lon="7.14328">
        <ele>953.79998779297</ele>
        <time>2023-05-21T08:02:07.000Z</time>
      </trkpt>
      <trkpt lat="47.85501" lon="7.14321">
        <ele>953.20001220703</ele>
        <time>2023-05-21T08:02:08.000Z</time>
      </trkpt>
      <trkpt lat="47.85498" lon="7.14314">
        <ele>952.59997558594</ele>
        <time>2023-05-21T08:02:09.000Z</time>
      </trkpt>
      <trkpt lat="47.85496" lon="7.14307">
        <ele>951.79998779297</ele>
        <time>2023-05-21T08:02:10.000Z</time>
      </trkpt>
      <trkpt lat="47.85495" lon="7.14302">
        <ele>951.20001220703</ele>
        <time>2023-05-21T08:02:11.000Z</time>
      </trkpt>
      <trkpt lat="47.85493" lon="7.14297">
        <ele>950.79998779297</ele>
        <time>2023-05-21T08:02:12.000Z</time>
      </trkpt>
      <trkpt lat="47.85492" lon="7.14294">
        <ele>950.40002441406</ele>
        <time>2023-05-21T08:02:13.000Z</time>
      </trkpt>
      <trkpt lat="47.85491" lon="7.14291">
        <ele>950</ele>
        <time>2023-05-21T08:02:14.000Z</time>
      </trkpt>
      <trkpt lat="47.8549" lon="7.14289">
        <ele>949.20001220703</ele>
        <time>2023-05-21T08:02:15.000Z</time>
      </trkpt>
      <trkpt lat="47.85488" lon="7.14279">
        <ele>949.20001220703</ele>
        <time>2023-05-21T08:02:19.000Z</time>
      </trkpt>
      <trkpt lat="47.85485" lon="7.14274">
        <ele>949.20001220703</ele>
        <time>2023-05-21T08:02:21.000Z</time>
      </trkpt>
      <trkpt lat="47.85484" lon="7.14273">
        <ele>948.79998779297</ele>
        <time>2023-05-21T08:02:22.000Z</time>
      </trkpt>
      <trkpt lat="47.85482" lon="7.14272">
        <ele>948.40002441406</ele>
        <time>2023-05-21T08:02:23.000Z</time>
      </trkpt>
      <trkpt lat="47.85481" lon="7.14271">
        <ele>948</ele>
        <time>2023-05-21T08:02:24.000Z</time>
      </trkpt>
      <trkpt lat="47.8548" lon="7.14271">
        <ele>947.40002441406</ele>
        <time>2023-05-21T08:02:25.000Z</time>
      </trkpt>
      <trkpt lat="47.85479" lon="7.1427">
        <ele>947</ele>
        <time>2023-05-21T08:02:26.000Z</time>
      </trkpt>
      <trkpt lat="47.85479" lon="7.1427">
        <ele>947</ele>
        <time>2023-05-21T08:02:27.000Z</time>
      </trkpt>
      <trkpt lat="47.85481" lon="7.14272">
        <ele>944.79998779297</ele>
        <time>2023-05-21T08:02:35.000Z</time>
      </trkpt>
      <trkpt lat="47.85481" lon="7.14273">
        <ele>944.79998779297</ele>
        <time>2023-05-21T08:02:36.000Z</time>
      </trkpt>
      <trkpt lat="47.8548" lon="7.14283">
        <ele>944.40002441406</ele>
        <time>2023-05-21T08:02:39.000Z</time>
      </trkpt>
      <trkpt lat="47.85479" lon="7.14286">
        <ele>943.79998779297</ele>
        <time>2023-05-21T08:02:40.000Z</time>
      </trkpt>
      <trkpt lat="47.85478" lon="7.14289">
        <ele>943.40002441406</ele>
        <time>2023-05-21T08:02:41.000Z</time>
      </trkpt>
      <trkpt lat="47.85476" lon="7.14292">
        <ele>942.79998779297</ele>
        <time>2023-05-21T08:02:42.000Z</time>
      </trkpt>
      <trkpt lat="47.85475" lon="7.14296">
        <ele>942.20001220703</ele>
        <time>2023-05-21T08:02:43.000Z</time>
      </trkpt>
      <trkpt lat="47.85473" lon="7.14301">
        <ele>941.59997558594</ele>
        <time>2023-05-21T08:02:44.000Z</time>
      </trkpt>
      <trkpt lat="47.85471" lon="7.14306">
        <ele>940.59997558594</ele>
        <time>2023-05-21T08:02:45.000Z</time>
      </trkpt>
      <trkpt lat="47.85469" lon="7.14311">
        <ele>939.79998779297</ele>
        <time>2023-05-21T08:02:46.000Z</time>
      </trkpt>
      <trkpt lat="47.85467" lon="7.14315">
        <ele>939</ele>
        <time>2023-05-21T08:02:47.000Z</time>
      </trkpt>
      <trkpt lat="47.85465" lon="7.1432">
        <ele>938</ele>
        <time>2023-05-21T08:02:48.000Z</time>
      </trkpt>
      <trkpt lat="47.85463" lon="7.14323">
        <ele>937</ele>
        <time>2023-05-21T08:02:49.000Z</time>
      </trkpt>
      <trkpt lat="47.85461" lon="7.14324">
        <ele>936.20001220703</ele>
        <time>2023-05-21T08:02:50.000Z</time>
      </trkpt>
      <trkpt lat="47.85459" lon="7.14325">
        <ele>935.20001220703</ele>
        <time>2023-05-21T08:02:51.000Z</time>
      </trkpt>
      <trkpt lat="47.85457" lon="7.14326">
        <ele>934.20001220703</ele>
        <time>2023-05-21T08:02:52.000Z</time>
      </trkpt>
      <trkpt lat="47.85455" lon="7.14325">
        <ele>933.40002441406</ele>
        <time>2023-05-21T08:02:53.000Z</time>
      </trkpt>
      <trkpt lat="47.85454" lon="7.14324">
        <ele>932.40002441406</ele>
        <time>2023-05-21T08:02:54.000Z</time>
      </trkpt>
      <trkpt lat="47.85452" lon="7.14321">
        <ele>931.59997558594</ele>
        <time>2023-05-21T08:02:55.000Z</time>
      </trkpt>
      <trkpt lat="47.8545" lon="7.1432">
        <ele>930.79998779297</ele>
        <time>2023-05-21T08:02:56.000Z</time>
      </trkpt>
      <trkpt lat="47.85449" lon="7.14319">
        <ele>930</ele>
        <time>2023-05-21T08:02:57.000Z</time>
      </trkpt>
      <trkpt lat="47.85448" lon="7.1432">
        <ele>929.20001220703</ele>
        <time>2023-05-21T08:02:58.000Z</time>
      </trkpt>
      <trkpt lat="47.85449" lon="7.1432">
        <ele>925.20001220703</ele>
        <time>2023-05-21T08:03:15.000Z</time>
      </trkpt>
      <trkpt lat="47.85452" lon="7.14331">
        <ele>924.79998779297</ele>
        <time>2023-05-21T08:03:17.000Z</time>
      </trkpt>
      <trkpt lat="47.85454" lon="7.14336">
        <ele>924.40002441406</ele>
        <time>2023-05-21T08:03:18.000Z</time>
      </trkpt>
      <trkpt lat="47.85454" lon="7.14343">
        <ele>924</ele>
        <time>2023-05-21T08:03:19.000Z</time>
      </trkpt>
      <trkpt lat="47.85453" lon="7.14351">
        <ele>923.59997558594</ele>
        <time>2023-05-21T08:03:20.000Z</time>
      </trkpt>
      <trkpt lat="47.85452" lon="7.1436">
        <ele>923</ele>
        <time>2023-05-21T08:03:21.000Z</time>
      </trkpt>
      <trkpt lat="47.85451" lon="7.14371">
        <ele>922.40002441406</ele>
        <time>2023-05-21T08:03:22.000Z</time>
      </trkpt>
      <trkpt lat="47.85451" lon="7.14382">
        <ele>922</ele>
        <time>2023-05-21T08:03:23.000Z</time>
      </trkpt>
      <trkpt lat="47.85451" lon="7.1439">
        <ele>921.20001220703</ele>
        <time>2023-05-21T08:03:24.000Z</time>
      </trkpt>
      <trkpt lat="47.8545" lon="7.14399">
        <ele>920.40002441406</ele>
        <time>2023-05-21T08:03:25.000Z</time>
      </trkpt>
      <trkpt lat="47.85448" lon="7.14407">
        <ele>919.59997558594</ele>
        <time>2023-05-21T08:03:26.000Z</time>
      </trkpt>
      <trkpt lat="47.85447" lon="7.14414">
        <ele>919</ele>
        <time>2023-05-21T08:03:27.000Z</time>
      </trkpt>
      <trkpt lat="47.85444" lon="7.14422">
        <ele>918.20001220703</ele>
        <time>2023-05-21T08:03:28.000Z</time>
      </trkpt>
      <trkpt lat="47.85441" lon="7.14431">
        <ele>916.59997558594</ele>
        <time>2023-05-21T08:03:29.000Z</time>
      </trkpt>
      <trkpt lat="47.85438" lon="7.14438">
        <ele>915.59997558594</ele>
        <time>2023-05-21T08:03:30.000Z</time>
      </trkpt>
      <trkpt lat="47.85437" lon="7.14446">
        <ele>914.79998779297</ele>
        <time>2023-05-21T08:03:31.000Z</time>
      </trkpt>
      <trkpt lat="47.85436" lon="7.14455">
        <ele>913.79998779297</ele>
        <time>2023-05-21T08:03:32.000Z</time>
      </trkpt>
      <trkpt lat="47.85436" lon="7.14464">
        <ele>913</ele>
        <time>2023-05-21T08:03:33.000Z</time>
      </trkpt>
      <trkpt lat="47.85435" lon="7.14473">
        <ele>912</ele>
        <time>2023-05-21T08:03:34.000Z</time>
      </trkpt>
      <trkpt lat="47.85435" lon="7.14484">
        <ele>911</ele>
        <time>2023-05-21T08:03:35.000Z</time>
      </trkpt>
      <trkpt lat="47.85436" lon="7.14493">
        <ele>910</ele>
        <time>2023-05-21T08:03:36.000Z</time>
      </trkpt>
      <trkpt lat="47.85437" lon="7.14504">
        <ele>908.79998779297</ele>
        <time>2023-05-21T08:03:37.000Z</time>
      </trkpt>
      <trkpt lat="47.85438" lon="7.14515">
        <ele>907.59997558594</ele>
        <time>2023-05-21T08:03:38.000Z</time>
      </trkpt>
      <trkpt lat="47.85439" lon="7.14523">
        <ele>906.40002441406</ele>
        <time>2023-05-21T08:03:39.000Z</time>
      </trkpt>
      <trkpt lat="47.85439" lon="7.14531">
        <ele>905.20001220703</ele>
        <time>2023-05-21T08:03:40.000Z</time>
      </trkpt>
      <trkpt lat="47.8544" lon="7.1454">
        <ele>904</ele>
        <time>2023-05-21T08:03:41.000Z</time>
      </trkpt>
      <trkpt lat="47.85439" lon="7.14549">
        <ele>903.40002441406</ele>
        <time>2023-05-21T08:03:42.000Z</time>
      </trkpt>
      <trkpt lat="47.85439" lon="7.14557">
        <ele>902.59997558594</ele>
        <time>2023-05-21T08:03:43.000Z</time>
      </trkpt>
      <trkpt lat="47.8544" lon="7.14566">
        <ele>902</ele>
        <time>2023-05-21T08:03:44.000Z</time>
      </trkpt>
      <trkpt lat="47.85441" lon="7.14575">
        <ele>901.20001220703</ele>
        <time>2023-05-21T08:03:45.000Z</time>
      </trkpt>
      <trkpt lat="47.85443" lon="7.14583">
        <ele>900.59997558594</ele>
        <time>2023-05-21T08:03:46.000Z</time>
      </trkpt>
      <trkpt lat="47.85444" lon="7.14588">
        <ele>900</ele>
        <time>2023-05-21T08:03:47.000Z</time>
      </trkpt>
      <trkpt lat="47.85445" lon="7.14592">
        <ele>899.20001220703</ele>
        <time>2023-05-21T08:03:48.000Z</time>
      </trkpt>
      <trkpt lat="47.85445" lon="7.14597">
        <ele>898.59997558594</ele>
        <time>2023-05-21T08:03:49.000Z</time>
      </trkpt>
      <trkpt lat="47.85444" lon="7.14603">
        <ele>898</ele>
        <time>2023-05-21T08:03:50.000Z</time>
      </trkpt>
      <trkpt lat="47.85443" lon="7.1461">
        <ele>897.40002441406</ele>
        <time>2023-05-21T08:03:51.000Z</time>
      </trkpt>
      <trkpt lat="47.85441" lon="7.14619">
        <ele>896.79998779297</ele>
        <time>2023-05-21T08:03:52.000Z</time>
      </trkpt>
      <trkpt lat="47.85441" lon="7.14629">
        <ele>895.79998779297</ele>
        <time>2023-05-21T08:03:53.000Z</time>
      </trkpt>
      <trkpt lat="47.85441" lon="7.14638">
        <ele>895.20001220703</ele>
        <time>2023-05-21T08:03:54.000Z</time>
      </trkpt>
      <trkpt lat="47.85442" lon="7.14646">
        <ele>894.59997558594</ele>
        <time>2023-05-21T08:03:55.000Z</time>
      </trkpt>
      <trkpt lat="47.85442" lon="7.14654">
        <ele>894</ele>
        <time>2023-05-21T08:03:56.000Z</time>
      </trkpt>
      <trkpt lat="47.85443" lon="7.14661">
        <ele>893.40002441406</ele>
        <time>2023-05-21T08:03:57.000Z</time>
      </trkpt>
      <trkpt lat="47.85444" lon="7.14678">
        <ele>893.40002441406</ele>
        <time>2023-05-21T08:04:00.000Z</time>
      </trkpt>
      <trkpt lat="47.85447" lon="7.14695">
        <ele>893</ele>
        <time>2023-05-21T08:04:03.000Z</time>
      </trkpt>
      <trkpt lat="47.85448" lon="7.14702">
        <ele>892.40002441406</ele>
        <time>2023-05-21T08:04:04.000Z</time>
      </trkpt>
      <trkpt lat="47.85449" lon="7.14709">
        <ele>892</ele>
        <time>2023-05-21T08:04:05.000Z</time>
      </trkpt>
      <trkpt lat="47.8545" lon="7.14716">
        <ele>891.59997558594</ele>
        <time>2023-05-21T08:04:06.000Z</time>
      </trkpt>
      <trkpt lat="47.8545" lon="7.14724">
        <ele>891.20001220703</ele>
        <time>2023-05-21T08:04:07.000Z</time>
      </trkpt>
      <trkpt lat="47.8545" lon="7.14743">
        <ele>891.20001220703</ele>
        <time>2023-05-21T08:04:09.000Z</time>
      </trkpt>
      <trkpt lat="47.8545" lon="7.14753">
        <ele>890.79998779297</ele>
        <time>2023-05-21T08:04:10.000Z</time>
      </trkpt>
      <trkpt lat="47.8545" lon="7.14763">
        <ele>890.20001220703</ele>
        <time>2023-05-21T08:04:11.000Z</time>
      </trkpt>
      <trkpt lat="47.8545" lon="7.14775">
        <ele>889.79998779297</ele>
        <time>2023-05-21T08:04:12.000Z</time>
      </trkpt>
      <trkpt lat="47.85449" lon="7.14786">
        <ele>889.40002441406</ele>
        <time>2023-05-21T08:04:13.000Z</time>
      </trkpt>
      <trkpt lat="47.8545" lon="7.14796">
        <ele>888.79998779297</ele>
        <time>2023-05-21T08:04:14.000Z</time>
      </trkpt>
      <trkpt lat="47.85449" lon="7.14807">
        <ele>888</ele>
        <time>2023-05-21T08:04:15.000Z</time>
      </trkpt>
      <trkpt lat="47.85449" lon="7.14818">
        <ele>887.40002441406</ele>
        <time>2023-05-21T08:04:16.000Z</time>
      </trkpt>
      <trkpt lat="47.85448" lon="7.14829">
        <ele>886.79998779297</ele>
        <time>2023-05-21T08:04:17.000Z</time>
      </trkpt>
      <trkpt lat="47.85447" lon="7.14842">
        <ele>885.40002441406</ele>
        <time>2023-05-21T08:04:18.000Z</time>
      </trkpt>
      <trkpt lat="47.85447" lon="7.14853">
        <ele>884.79998779297</ele>
        <time>2023-05-21T08:04:19.000Z</time>
      </trkpt>
      <trkpt lat="47.85446" lon="7.14865">
        <ele>884</ele>
        <time>2023-05-21T08:04:20.000Z</time>
      </trkpt>
      <trkpt lat="47.85446" lon="7.14877">
        <ele>883.40002441406</ele>
        <time>2023-05-21T08:04:21.000Z</time>
      </trkpt>
      <trkpt lat="47.85446" lon="7.14891">
        <ele>882.40002441406</ele>
        <time>2023-05-21T08:04:22.000Z</time>
      </trkpt>
      <trkpt lat="47.85447" lon="7.14905">
        <ele>881.59997558594</ele>
        <time>2023-05-21T08:04:23.000Z</time>
      </trkpt>
      <trkpt lat="47.85449" lon="7.14918">
        <ele>880.79998779297</ele>
        <time>2023-05-21T08:04:24.000Z</time>
      </trkpt>
      <trkpt lat="47.85451" lon="7.1493">
        <ele>880</ele>
        <time>2023-05-21T08:04:25.000Z</time>
      </trkpt>
      <trkpt lat="47.85454" lon="7.1494">
        <ele>879</ele>
        <time>2023-05-21T08:04:26.000Z</time>
      </trkpt>
      <trkpt lat="47.85457" lon="7.1495">
        <ele>878.20001220703</ele>
        <time>2023-05-21T08:04:27.000Z</time>
      </trkpt>
      <trkpt lat="47.8546" lon="7.1496">
        <ele>877.40002441406</ele>
        <time>2023-05-21T08:04:28.000Z</time>
      </trkpt>
      <trkpt lat="47.85462" lon="7.14971">
        <ele>876.59997558594</ele>
        <time>2023-05-21T08:04:29.000Z</time>
      </trkpt>
      <trkpt lat="47.85463" lon="7.14983">
        <ele>875.79998779297</ele>
        <time>2023-05-21T08:04:30.000Z</time>
      </trkpt>
      <trkpt lat="47.85463" lon="7.14994">
        <ele>875</ele>
        <time>2023-05-21T08:04:31.000Z</time>
      </trkpt>
      <trkpt lat="47.85462" lon="7.15004">
        <ele>874.20001220703</ele>
        <time>2023-05-21T08:04:32.000Z</time>
      </trkpt>
      <trkpt lat="47.85459" lon="7.15015">
        <ele>873.59997558594</ele>
        <time>2023-05-21T08:04:33.000Z</time>
      </trkpt>
      <trkpt lat="47.85456" lon="7.15027">
        <ele>872.79998779297</ele>
        <time>2023-05-21T08:04:34.000Z</time>
      </trkpt>
      <trkpt lat="47.85452" lon="7.15038">
        <ele>872</ele>
        <time>2023-05-21T08:04:35.000Z</time>
      </trkpt>
      <trkpt lat="47.85448" lon="7.15049">
        <ele>871</ele>
        <time>2023-05-21T08:04:36.000Z</time>
      </trkpt>
      <trkpt lat="47.85445" lon="7.1506">
        <ele>870</ele>
        <time>2023-05-21T08:04:37.000Z</time>
      </trkpt>
      <trkpt lat="47.85442" lon="7.15072">
        <ele>869</ele>
        <time>2023-05-21T08:04:38.000Z</time>
      </trkpt>
      <trkpt lat="47.8544" lon="7.15082">
        <ele>868</ele>
        <time>2023-05-21T08:04:39.000Z</time>
      </trkpt>
      <trkpt lat="47.85438" lon="7.15093">
        <ele>866.79998779297</ele>
        <time>2023-05-21T08:04:40.000Z</time>
      </trkpt>
      <trkpt lat="47.85437" lon="7.15102">
        <ele>865.79998779297</ele>
        <time>2023-05-21T08:04:41.000Z</time>
      </trkpt>
      <trkpt lat="47.85436" lon="7.15113">
        <ele>864.59997558594</ele>
        <time>2023-05-21T08:04:42.000Z</time>
      </trkpt>
      <trkpt lat="47.85435" lon="7.15123">
        <ele>862.59997558594</ele>
        <time>2023-05-21T08:04:43.000Z</time>
      </trkpt>
      <trkpt lat="47.85432" lon="7.15133">
        <ele>861.79998779297</ele>
        <time>2023-05-21T08:04:44.000Z</time>
      </trkpt>
      <trkpt lat="47.85429" lon="7.15141">
        <ele>861</ele>
        <time>2023-05-21T08:04:45.000Z</time>
      </trkpt>
      <trkpt lat="47.85424" lon="7.15147">
        <ele>860</ele>
        <time>2023-05-21T08:04:46.000Z</time>
      </trkpt>
      <trkpt lat="47.8542" lon="7.15151">
        <ele>859.40002441406</ele>
        <time>2023-05-21T08:04:47.000Z</time>
      </trkpt>
      <trkpt lat="47.85415" lon="7.15153">
        <ele>858.59997558594</ele>
        <time>2023-05-21T08:04:48.000Z</time>
      </trkpt>
      <trkpt lat="47.85409" lon="7.15153">
        <ele>857.79998779297</ele>
        <time>2023-05-21T08:04:49.000Z</time>
      </trkpt>
      <trkpt lat="47.85403" lon="7.15151">
        <ele>857</ele>
        <time>2023-05-21T08:04:50.000Z</time>
      </trkpt>
      <trkpt lat="47.85397" lon="7.15148">
        <ele>855.79998779297</ele>
        <time>2023-05-21T08:04:51.000Z</time>
      </trkpt>
      <trkpt lat="47.8539" lon="7.15145">
        <ele>854.79998779297</ele>
        <time>2023-05-21T08:04:52.000Z</time>
      </trkpt>
      <trkpt lat="47.85382" lon="7.15141">
        <ele>853.79998779297</ele>
        <time>2023-05-21T08:04:53.000Z</time>
      </trkpt>
      <trkpt lat="47.85371" lon="7.15139">
        <ele>852.59997558594</ele>
        <time>2023-05-21T08:04:54.000Z</time>
      </trkpt>
      <trkpt lat="47.85361" lon="7.15137">
        <ele>851.59997558594</ele>
        <time>2023-05-21T08:04:55.000Z</time>
      </trkpt>
      <trkpt lat="47.85351" lon="7.15136">
        <ele>850.59997558594</ele>
        <time>2023-05-21T08:04:56.000Z</time>
      </trkpt>
      <trkpt lat="47.85339" lon="7.15134">
        <ele>849.59997558594</ele>
        <time>2023-05-21T08:04:57.000Z</time>
      </trkpt>
      <trkpt lat="47.85328" lon="7.15131">
        <ele>848.59997558594</ele>
        <time>2023-05-21T08:04:58.000Z</time>
      </trkpt>
      <trkpt lat="47.85319" lon="7.15131">
        <ele>847.59997558594</ele>
        <time>2023-05-21T08:04:59.000Z</time>
      </trkpt>
      <trkpt lat="47.8531" lon="7.15131">
        <ele>846.59997558594</ele>
        <time>2023-05-21T08:05:00.000Z</time>
      </trkpt>
      <trkpt lat="47.85301" lon="7.15133">
        <ele>845.59997558594</ele>
        <time>2023-05-21T08:05:01.000Z</time>
      </trkpt>
      <trkpt lat="47.85291" lon="7.15137">
        <ele>844.40002441406</ele>
        <time>2023-05-21T08:05:02.000Z</time>
      </trkpt>
      <trkpt lat="47.85282" lon="7.15141">
        <ele>843.40002441406</ele>
        <time>2023-05-21T08:05:03.000Z</time>
      </trkpt>
      <trkpt lat="47.85273" lon="7.15146">
        <ele>842.20001220703</ele>
        <time>2023-05-21T08:05:04.000Z</time>
      </trkpt>
      <trkpt lat="47.85264" lon="7.15151">
        <ele>841</ele>
        <time>2023-05-21T08:05:05.000Z</time>
      </trkpt>
      <trkpt lat="47.85255" lon="7.15157">
        <ele>839.79998779297</ele>
        <time>2023-05-21T08:05:06.000Z</time>
      </trkpt>
      <trkpt lat="47.85247" lon="7.15163">
        <ele>838.59997558594</ele>
        <time>2023-05-21T08:05:07.000Z</time>
      </trkpt>
      <trkpt lat="47.85238" lon="7.15169">
        <ele>836.40002441406</ele>
        <time>2023-05-21T08:05:08.000Z</time>
      </trkpt>
      <trkpt lat="47.85229" lon="7.15175">
        <ele>835.20001220703</ele>
        <time>2023-05-21T08:05:09.000Z</time>
      </trkpt>
      <trkpt lat="47.8522" lon="7.15181">
        <ele>834.20001220703</ele>
        <time>2023-05-21T08:05:10.000Z</time>
      </trkpt>
      <trkpt lat="47.85212" lon="7.15187">
        <ele>833.20001220703</ele>
        <time>2023-05-21T08:05:11.000Z</time>
      </trkpt>
      <trkpt lat="47.85203" lon="7.15192">
        <ele>832.20001220703</ele>
        <time>2023-05-21T08:05:12.000Z</time>
      </trkpt>
      <trkpt lat="47.85196" lon="7.15199">
        <ele>831.20001220703</ele>
        <time>2023-05-21T08:05:13.000Z</time>
      </trkpt>
      <trkpt lat="47.85187" lon="7.15205">
        <ele>830.20001220703</ele>
        <time>2023-05-21T08:05:14.000Z</time>
      </trkpt>
      <trkpt lat="47.85179" lon="7.15212">
        <ele>829</ele>
        <time>2023-05-21T08:05:15.000Z</time>
      </trkpt>
      <trkpt lat="47.85171" lon="7.15219">
        <ele>827.59997558594</ele>
        <time>2023-05-21T08:05:16.000Z</time>
      </trkpt>
      <trkpt lat="47.85164" lon="7.15225">
        <ele>826.20001220703</ele>
        <time>2023-05-21T08:05:17.000Z</time>
      </trkpt>
      <trkpt lat="47.85158" lon="7.15231">
        <ele>824.79998779297</ele>
        <time>2023-05-21T08:05:18.000Z</time>
      </trkpt>
      <trkpt lat="47.85153" lon="7.1524">
        <ele>823.59997558594</ele>
        <time>2023-05-21T08:05:19.000Z</time>
      </trkpt>
      <trkpt lat="47.85146" lon="7.15247">
        <ele>822.20001220703</ele>
        <time>2023-05-21T08:05:20.000Z</time>
      </trkpt>
      <trkpt lat="47.8514" lon="7.15256">
        <ele>820.79998779297</ele>
        <time>2023-05-21T08:05:21.000Z</time>
      </trkpt>
      <trkpt lat="47.85134" lon="7.15266">
        <ele>819.20001220703</ele>
        <time>2023-05-21T08:05:22.000Z</time>
      </trkpt>
      <trkpt lat="47.85128" lon="7.15275">
        <ele>817.79998779297</ele>
        <time>2023-05-21T08:05:23.000Z</time>
      </trkpt>
      <trkpt lat="47.85122" lon="7.15286">
        <ele>816.20001220703</ele>
        <time>2023-05-21T08:05:24.000Z</time>
      </trkpt>
      <trkpt lat="47.85118" lon="7.15297">
        <ele>814.79998779297</ele>
        <time>2023-05-21T08:05:25.000Z</time>
      </trkpt>
      <trkpt lat="47.85115" lon="7.15305">
        <ele>813.40002441406</ele>
        <time>2023-05-21T08:05:26.000Z</time>
      </trkpt>
      <trkpt lat="47.85112" lon="7.15314">
        <ele>812</ele>
        <time>2023-05-21T08:05:27.000Z</time>
      </trkpt>
      <trkpt lat="47.8511" lon="7.15324">
        <ele>810.59997558594</ele>
        <time>2023-05-21T08:05:28.000Z</time>
      </trkpt>
      <trkpt lat="47.85107" lon="7.15334">
        <ele>809.40002441406</ele>
        <time>2023-05-21T08:05:29.000Z</time>
      </trkpt>
      <trkpt lat="47.85105" lon="7.15348">
        <ele>808</ele>
        <time>2023-05-21T08:05:30.000Z</time>
      </trkpt>
      <trkpt lat="47.85102" lon="7.15362">
        <ele>806.59997558594</ele>
        <time>2023-05-21T08:05:31.000Z</time>
      </trkpt>
      <trkpt lat="47.851" lon="7.15378">
        <ele>804</ele>
        <time>2023-05-21T08:05:32.000Z</time>
      </trkpt>
      <trkpt lat="47.85098" lon="7.15394">
        <ele>802.59997558594</ele>
        <time>2023-05-21T08:05:33.000Z</time>
      </trkpt>
      <trkpt lat="47.85096" lon="7.15409">
        <ele>801.40002441406</ele>
        <time>2023-05-21T08:05:34.000Z</time>
      </trkpt>
      <trkpt lat="47.85093" lon="7.15426">
        <ele>800</ele>
        <time>2023-05-21T08:05:35.000Z</time>
      </trkpt>
      <trkpt lat="47.85091" lon="7.15443">
        <ele>798.59997558594</ele>
        <time>2023-05-21T08:05:36.000Z</time>
      </trkpt>
      <trkpt lat="47.8509" lon="7.15459">
        <ele>797.20001220703</ele>
        <time>2023-05-21T08:05:37.000Z</time>
      </trkpt>
      <trkpt lat="47.85088" lon="7.15473">
        <ele>795.79998779297</ele>
        <time>2023-05-21T08:05:38.000Z</time>
      </trkpt>
      <trkpt lat="47.85086" lon="7.15486">
        <ele>794.40002441406</ele>
        <time>2023-05-21T08:05:39.000Z</time>
      </trkpt>
      <trkpt lat="47.85084" lon="7.15497">
        <ele>793</ele>
        <time>2023-05-21T08:05:40.000Z</time>
      </trkpt>
      <trkpt lat="47.85081" lon="7.15507">
        <ele>791.79998779297</ele>
        <time>2023-05-21T08:05:41.000Z</time>
      </trkpt>
      <trkpt lat="47.85077" lon="7.15518">
        <ele>790.59997558594</ele>
        <time>2023-05-21T08:05:42.000Z</time>
      </trkpt>
      <trkpt lat="47.85072" lon="7.15528">
        <ele>789.59997558594</ele>
        <time>2023-05-21T08:05:43.000Z</time>
      </trkpt>
      <trkpt lat="47.85068" lon="7.15538">
        <ele>788.59997558594</ele>
        <time>2023-05-21T08:05:44.000Z</time>
      </trkpt>
      <trkpt lat="47.85065" lon="7.15548">
        <ele>787.59997558594</ele>
        <time>2023-05-21T08:05:45.000Z</time>
      </trkpt>
      <trkpt lat="47.85063" lon="7.15558">
        <ele>786.59997558594</ele>
        <time>2023-05-21T08:05:46.000Z</time>
      </trkpt>
      <trkpt lat="47.85058" lon="7.15566">
        <ele>785.79998779297</ele>
        <time>2023-05-21T08:05:47.000Z</time>
      </trkpt>
      <trkpt lat="47.85054" lon="7.15573">
        <ele>785</ele>
        <time>2023-05-21T08:05:48.000Z</time>
      </trkpt>
      <trkpt lat="47.85048" lon="7.1558">
        <ele>784.20001220703</ele>
        <time>2023-05-21T08:05:49.000Z</time>
      </trkpt>
      <trkpt lat="47.85043" lon="7.15588">
        <ele>783</ele>
        <time>2023-05-21T08:05:50.000Z</time>
      </trkpt>
      <trkpt lat="47.85037" lon="7.15594">
        <ele>782</ele>
        <time>2023-05-21T08:05:51.000Z</time>
      </trkpt>
      <trkpt lat="47.8503" lon="7.15602">
        <ele>780.79998779297</ele>
        <time>2023-05-21T08:05:52.000Z</time>
      </trkpt>
      <trkpt lat="47.85025" lon="7.15611">
        <ele>779.40002441406</ele>
        <time>2023-05-21T08:05:53.000Z</time>
      </trkpt>
      <trkpt lat="47.85019" lon="7.15621">
        <ele>778</ele>
        <time>2023-05-21T08:05:54.000Z</time>
      </trkpt>
      <trkpt lat="47.85014" lon="7.15634">
        <ele>776.59997558594</ele>
        <time>2023-05-21T08:05:55.000Z</time>
      </trkpt>
      <trkpt lat="47.85009" lon="7.15646">
        <ele>775.20001220703</ele>
        <time>2023-05-21T08:05:56.000Z</time>
      </trkpt>
      <trkpt lat="47.85004" lon="7.15659">
        <ele>772</ele>
        <time>2023-05-21T08:05:57.000Z</time>
      </trkpt>
      <trkpt lat="47.84999" lon="7.15671">
        <ele>770.40002441406</ele>
        <time>2023-05-21T08:05:58.000Z</time>
      </trkpt>
      <trkpt lat="47.84994" lon="7.15682">
        <ele>768.79998779297</ele>
        <time>2023-05-21T08:05:59.000Z</time>
      </trkpt>
      <trkpt lat="47.8499" lon="7.15693">
        <ele>767.20001220703</ele>
        <time>2023-05-21T08:06:00.000Z</time>
      </trkpt>
      <trkpt lat="47.84987" lon="7.15705">
        <ele>765.59997558594</ele>
        <time>2023-05-21T08:06:01.000Z</time>
      </trkpt>
      <trkpt lat="47.84985" lon="7.15715">
        <ele>764.20001220703</ele>
        <time>2023-05-21T08:06:02.000Z</time>
      </trkpt>
      <trkpt lat="47.84984" lon="7.15722">
        <ele>762.79998779297</ele>
        <time>2023-05-21T08:06:03.000Z</time>
      </trkpt>
      <trkpt lat="47.84984" lon="7.15726">
        <ele>761.40002441406</ele>
        <time>2023-05-21T08:06:04.000Z</time>
      </trkpt>
      <trkpt lat="47.84985" lon="7.15724">
        <ele>760</ele>
        <time>2023-05-21T08:06:05.000Z</time>
      </trkpt>
      <trkpt lat="47.84987" lon="7.15724">
        <ele>758.59997558594</ele>
        <time>2023-05-21T08:06:06.000Z</time>
      </trkpt>
      <trkpt lat="47.84988" lon="7.15727">
        <ele>757.20001220703</ele>
        <time>2023-05-21T08:07:38.000Z</time>
      </trkpt>
      <trkpt lat="47.84988" lon="7.1573">
        <ele>757.20001220703</ele>
        <time>2023-05-21T08:07:39.000Z</time>
      </trkpt>
      <trkpt lat="47.84979" lon="7.15744">
        <ele>757.20001220703</ele>
        <time>2023-05-21T08:07:42.000Z</time>
      </trkpt>
      <trkpt lat="47.84974" lon="7.1575">
        <ele>756.79998779297</ele>
        <time>2023-05-21T08:07:43.000Z</time>
      </trkpt>
      <trkpt lat="47.84969" lon="7.15756">
        <ele>756.40002441406</ele>
        <time>2023-05-21T08:07:44.000Z</time>
      </trkpt>
      <trkpt lat="47.84962" lon="7.15762">
        <ele>755.79998779297</ele>
        <time>2023-05-21T08:07:45.000Z</time>
      </trkpt>
      <trkpt lat="47.84955" lon="7.15768">
        <ele>755</ele>
        <time>2023-05-21T08:07:46.000Z</time>
      </trkpt>
      <trkpt lat="47.84948" lon="7.15774">
        <ele>754</ele>
        <time>2023-05-21T08:07:47.000Z</time>
      </trkpt>
      <trkpt lat="47.84941" lon="7.1578">
        <ele>753.20001220703</ele>
        <time>2023-05-21T08:07:48.000Z</time>
      </trkpt>
      <trkpt lat="47.84934" lon="7.15786">
        <ele>752</ele>
        <time>2023-05-21T08:07:49.000Z</time>
      </trkpt>
      <trkpt lat="47.84928" lon="7.15792">
        <ele>751</ele>
        <time>2023-05-21T08:07:50.000Z</time>
      </trkpt>
      <trkpt lat="47.84923" lon="7.15798">
        <ele>750</ele>
        <time>2023-05-21T08:07:51.000Z</time>
      </trkpt>
      <trkpt lat="47.84917" lon="7.15806">
        <ele>748.79998779297</ele>
        <time>2023-05-21T08:07:52.000Z</time>
      </trkpt>
      <trkpt lat="47.84911" lon="7.15813">
        <ele>747.59997558594</ele>
        <time>2023-05-21T08:07:53.000Z</time>
      </trkpt>
      <trkpt lat="47.84905" lon="7.15821">
        <ele>746.40002441406</ele>
        <time>2023-05-21T08:07:54.000Z</time>
      </trkpt>
      <trkpt lat="47.84901" lon="7.15829">
        <ele>745</ele>
        <time>2023-05-21T08:07:55.000Z</time>
      </trkpt>
      <trkpt lat="47.84897" lon="7.15837">
        <ele>743.59997558594</ele>
        <time>2023-05-21T08:07:56.000Z</time>
      </trkpt>
      <trkpt lat="47.84893" lon="7.15844">
        <ele>742.40002441406</ele>
        <time>2023-05-21T08:07:57.000Z</time>
      </trkpt>
      <trkpt lat="47.84889" lon="7.15853">
        <ele>741.20001220703</ele>
        <time>2023-05-21T08:07:58.000Z</time>
      </trkpt>
      <trkpt lat="47.84885" lon="7.15864">
        <ele>740.20001220703</ele>
        <time>2023-05-21T08:07:59.000Z</time>
      </trkpt>
      <trkpt lat="47.84879" lon="7.15874">
        <ele>737.79998779297</ele>
        <time>2023-05-21T08:08:00.000Z</time>
      </trkpt>
      <trkpt lat="47.84875" lon="7.15887">
        <ele>736.59997558594</ele>
        <time>2023-05-21T08:08:01.000Z</time>
      </trkpt>
      <trkpt lat="47.84869" lon="7.15902">
        <ele>735.40002441406</ele>
        <time>2023-05-21T08:08:02.000Z</time>
      </trkpt>
      <trkpt lat="47.84863" lon="7.15915">
        <ele>734.40002441406</ele>
        <time>2023-05-21T08:08:03.000Z</time>
      </trkpt>
      <trkpt lat="47.84858" lon="7.15929">
        <ele>733.20001220703</ele>
        <time>2023-05-21T08:08:04.000Z</time>
      </trkpt>
      <trkpt lat="47.84854" lon="7.15942">
        <ele>732</ele>
        <time>2023-05-21T08:08:05.000Z</time>
      </trkpt>
      <trkpt lat="47.8485" lon="7.15956">
        <ele>730.79998779297</ele>
        <time>2023-05-21T08:08:06.000Z</time>
      </trkpt>
      <trkpt lat="47.84846" lon="7.15971">
        <ele>729.59997558594</ele>
        <time>2023-05-21T08:08:07.000Z</time>
      </trkpt>
      <trkpt lat="47.84843" lon="7.15985">
        <ele>728.40002441406</ele>
        <time>2023-05-21T08:08:08.000Z</time>
      </trkpt>
      <trkpt lat="47.84841" lon="7.16">
        <ele>727.20001220703</ele>
        <time>2023-05-21T08:08:09.000Z</time>
      </trkpt>
      <trkpt lat="47.8484" lon="7.16017">
        <ele>726.20001220703</ele>
        <time>2023-05-21T08:08:10.000Z</time>
      </trkpt>
      <trkpt lat="47.84839" lon="7.16032">
        <ele>725</ele>
        <time>2023-05-21T08:08:11.000Z</time>
      </trkpt>
      <trkpt lat="47.84838" lon="7.16047">
        <ele>724.20001220703</ele>
        <time>2023-05-21T08:08:12.000Z</time>
      </trkpt>
      <trkpt lat="47.84838" lon="7.16062">
        <ele>723.20001220703</ele>
        <time>2023-05-21T08:08:13.000Z</time>
      </trkpt>
      <trkpt lat="47.84838" lon="7.16077">
        <ele>722.40002441406</ele>
        <time>2023-05-21T08:08:14.000Z</time>
      </trkpt>
      <trkpt lat="47.84837" lon="7.16092">
        <ele>721.59997558594</ele>
        <time>2023-05-21T08:08:15.000Z</time>
      </trkpt>
      <trkpt lat="47.84837" lon="7.16107">
        <ele>720.79998779297</ele>
        <time>2023-05-21T08:08:16.000Z</time>
      </trkpt>
      <trkpt lat="47.84835" lon="7.16122">
        <ele>720</ele>
        <time>2023-05-21T08:08:17.000Z</time>
      </trkpt>
      <trkpt lat="47.84833" lon="7.16136">
        <ele>719.20001220703</ele>
        <time>2023-05-21T08:08:18.000Z</time>
      </trkpt>
      <trkpt lat="47.84832" lon="7.1615">
        <ele>718.40002441406</ele>
        <time>2023-05-21T08:08:19.000Z</time>
      </trkpt>
      <trkpt lat="47.84825" lon="7.16201">
        <ele>718.40002441406</ele>
        <time>2023-05-21T08:08:23.000Z</time>
      </trkpt>
      <trkpt lat="47.84823" lon="7.16213">
        <ele>718.40002441406</ele>
        <time>2023-05-21T08:08:24.000Z</time>
      </trkpt>
      <trkpt lat="47.84814" lon="7.16262">
        <ele>718.40002441406</ele>
        <time>2023-05-21T08:08:29.000Z</time>
      </trkpt>
      <trkpt lat="47.84811" lon="7.16277">
        <ele>718.40002441406</ele>
        <time>2023-05-21T08:08:31.000Z</time>
      </trkpt>
      <trkpt lat="47.84811" lon="7.16294">
        <ele>717.79998779297</ele>
        <time>2023-05-21T08:08:33.000Z</time>
      </trkpt>
      <trkpt lat="47.84811" lon="7.16303">
        <ele>717.40002441406</ele>
        <time>2023-05-21T08:08:34.000Z</time>
      </trkpt>
      <trkpt lat="47.84811" lon="7.16311">
        <ele>716.79998779297</ele>
        <time>2023-05-21T08:08:35.000Z</time>
      </trkpt>
      <trkpt lat="47.84811" lon="7.16319">
        <ele>716.20001220703</ele>
        <time>2023-05-21T08:08:36.000Z</time>
      </trkpt>
      <trkpt lat="47.84809" lon="7.16327">
        <ele>715.40002441406</ele>
        <time>2023-05-21T08:08:37.000Z</time>
      </trkpt>
      <trkpt lat="47.84808" lon="7.16337">
        <ele>714.59997558594</ele>
        <time>2023-05-21T08:08:38.000Z</time>
      </trkpt>
      <trkpt lat="47.84807" lon="7.16348">
        <ele>713.59997558594</ele>
        <time>2023-05-21T08:08:39.000Z</time>
      </trkpt>
      <trkpt lat="47.84807" lon="7.16357">
        <ele>712.59997558594</ele>
        <time>2023-05-21T08:08:40.000Z</time>
      </trkpt>
      <trkpt lat="47.84808" lon="7.16366">
        <ele>711.40002441406</ele>
        <time>2023-05-21T08:08:41.000Z</time>
      </trkpt>
      <trkpt lat="47.84809" lon="7.16373">
        <ele>710.20001220703</ele>
        <time>2023-05-21T08:08:42.000Z</time>
      </trkpt>
      <trkpt lat="47.84812" lon="7.16381">
        <ele>709</ele>
        <time>2023-05-21T08:08:43.000Z</time>
      </trkpt>
      <trkpt lat="47.84815" lon="7.1639">
        <ele>708</ele>
        <time>2023-05-21T08:08:44.000Z</time>
      </trkpt>
      <trkpt lat="47.84818" lon="7.16399">
        <ele>706.79998779297</ele>
        <time>2023-05-21T08:08:45.000Z</time>
      </trkpt>
      <trkpt lat="47.8482" lon="7.16408">
        <ele>705.59997558594</ele>
        <time>2023-05-21T08:08:46.000Z</time>
      </trkpt>
      <trkpt lat="47.84824" lon="7.16418">
        <ele>704.40002441406</ele>
        <time>2023-05-21T08:08:47.000Z</time>
      </trkpt>
      <trkpt lat="47.84827" lon="7.16428">
        <ele>703.40002441406</ele>
        <time>2023-05-21T08:08:48.000Z</time>
      </trkpt>
      <trkpt lat="47.84832" lon="7.16439">
        <ele>702.20001220703</ele>
        <time>2023-05-21T08:08:49.000Z</time>
      </trkpt>
      <trkpt lat="47.84837" lon="7.16451">
        <ele>699.59997558594</ele>
        <time>2023-05-21T08:08:50.000Z</time>
      </trkpt>
      <trkpt lat="47.84843" lon="7.16462">
        <ele>698.20001220703</ele>
        <time>2023-05-21T08:08:51.000Z</time>
      </trkpt>
      <trkpt lat="47.84848" lon="7.16472">
        <ele>696.79998779297</ele>
        <time>2023-05-21T08:08:52.000Z</time>
      </trkpt>
      <trkpt lat="47.84853" lon="7.16482">
        <ele>695.40002441406</ele>
        <time>2023-05-21T08:08:53.000Z</time>
      </trkpt>
      <trkpt lat="47.84856" lon="7.16491">
        <ele>694</ele>
        <time>2023-05-21T08:08:54.000Z</time>
      </trkpt>
      <trkpt lat="47.84858" lon="7.165">
        <ele>692.79998779297</ele>
        <time>2023-05-21T08:08:55.000Z</time>
      </trkpt>
      <trkpt lat="47.84859" lon="7.16507">
        <ele>691.59997558594</ele>
        <time>2023-05-21T08:08:56.000Z</time>
      </trkpt>
      <trkpt lat="47.84859" lon="7.16514">
        <ele>690.20001220703</ele>
        <time>2023-05-21T08:08:57.000Z</time>
      </trkpt>
      <trkpt lat="47.84858" lon="7.16521">
        <ele>689.20001220703</ele>
        <time>2023-05-21T08:08:58.000Z</time>
      </trkpt>
      <trkpt lat="47.84856" lon="7.16527">
        <ele>688.20001220703</ele>
        <time>2023-05-21T08:08:59.000Z</time>
      </trkpt>
      <trkpt lat="47.84855" lon="7.16532">
        <ele>687</ele>
        <time>2023-05-21T08:09:00.000Z</time>
      </trkpt>
      <trkpt lat="47.84853" lon="7.16538">
        <ele>686.20001220703</ele>
        <time>2023-05-21T08:09:01.000Z</time>
      </trkpt>
      <trkpt lat="47.84851" lon="7.16543">
        <ele>685.20001220703</ele>
        <time>2023-05-21T08:09:02.000Z</time>
      </trkpt>
      <trkpt lat="47.84844" lon="7.16547">
        <ele>684.40002441406</ele>
        <time>2023-05-21T08:09:03.000Z</time>
      </trkpt>
      <trkpt lat="47.84839" lon="7.16552">
        <ele>683.40002441406</ele>
        <time>2023-05-21T08:09:04.000Z</time>
      </trkpt>
      <trkpt lat="47.84835" lon="7.16557">
        <ele>682.59997558594</ele>
        <time>2023-05-21T08:09:05.000Z</time>
      </trkpt>
      <trkpt lat="47.8483" lon="7.16564">
        <ele>681.59997558594</ele>
        <time>2023-05-21T08:09:06.000Z</time>
      </trkpt>
      <trkpt lat="47.84826" lon="7.16572">
        <ele>680.59997558594</ele>
        <time>2023-05-21T08:09:07.000Z</time>
      </trkpt>
      <trkpt lat="47.84823" lon="7.16577">
        <ele>679.59997558594</ele>
        <time>2023-05-21T08:09:08.000Z</time>
      </trkpt>
      <trkpt lat="47.84822" lon="7.16579">
        <ele>678.79998779297</ele>
        <time>2023-05-21T08:09:09.000Z</time>
      </trkpt>
      <trkpt lat="47.84822" lon="7.16581">
        <ele>677.79998779297</ele>
        <time>2023-05-21T08:09:10.000Z</time>
      </trkpt>
      <trkpt lat="47.84822" lon="7.16582">
        <ele>677</ele>
        <time>2023-05-21T08:09:11.000Z</time>
      </trkpt>
      <trkpt lat="47.84825" lon="7.1659">
        <ele>673</ele>
        <time>2023-05-21T08:09:42.000Z</time>
      </trkpt>
      <trkpt lat="47.84823" lon="7.16605">
        <ele>673</ele>
        <time>2023-05-21T08:09:45.000Z</time>
      </trkpt>
      <trkpt lat="47.84821" lon="7.16614">
        <ele>673</ele>
        <time>2023-05-21T08:09:46.000Z</time>
      </trkpt>
      <trkpt lat="47.84819" lon="7.16631">
        <ele>672.40002441406</ele>
        <time>2023-05-21T08:09:48.000Z</time>
      </trkpt>
      <trkpt lat="47.84817" lon="7.16637">
        <ele>671.79998779297</ele>
        <time>2023-05-21T08:09:49.000Z</time>
      </trkpt>
      <trkpt lat="47.84817" lon="7.16642">
        <ele>671.40002441406</ele>
        <time>2023-05-21T08:09:50.000Z</time>
      </trkpt>
      <trkpt lat="47.84816" lon="7.16647">
        <ele>670.59997558594</ele>
        <time>2023-05-21T08:09:51.000Z</time>
      </trkpt>
      <trkpt lat="47.84816" lon="7.16651">
        <ele>670</ele>
        <time>2023-05-21T08:09:52.000Z</time>
      </trkpt>
      <trkpt lat="47.84816" lon="7.16655">
        <ele>669.40002441406</ele>
        <time>2023-05-21T08:09:53.000Z</time>
      </trkpt>
      <trkpt lat="47.84816" lon="7.16659">
        <ele>668.59997558594</ele>
        <time>2023-05-21T08:09:54.000Z</time>
      </trkpt>
      <trkpt lat="47.84816" lon="7.16664">
        <ele>668</ele>
        <time>2023-05-21T08:09:55.000Z</time>
      </trkpt>
      <trkpt lat="47.84817" lon="7.16668">
        <ele>667.59997558594</ele>
        <time>2023-05-21T08:09:56.000Z</time>
      </trkpt>
      <trkpt lat="47.84818" lon="7.16671">
        <ele>667.20001220703</ele>
        <time>2023-05-21T08:09:57.000Z</time>
      </trkpt>
      <trkpt lat="47.84817" lon="7.16675">
        <ele>666.59997558594</ele>
        <time>2023-05-21T08:09:58.000Z</time>
      </trkpt>
      <trkpt lat="47.84818" lon="7.16678">
        <ele>666.20001220703</ele>
        <time>2023-05-21T08:09:59.000Z</time>
      </trkpt>
      <trkpt lat="47.84819" lon="7.1668">
        <ele>665.79998779297</ele>
        <time>2023-05-21T08:10:00.000Z</time>
      </trkpt>
      <trkpt lat="47.84823" lon="7.16687">
        <ele>665.79998779297</ele>
        <time>2023-05-21T08:10:02.000Z</time>
      </trkpt>
      <trkpt lat="47.84826" lon="7.16692">
        <ele>665.40002441406</ele>
        <time>2023-05-21T08:10:03.000Z</time>
      </trkpt>
      <trkpt lat="47.84828" lon="7.16696">
        <ele>664.40002441406</ele>
        <time>2023-05-21T08:10:04.000Z</time>
      </trkpt>
      <trkpt lat="47.84829" lon="7.16702">
        <ele>664</ele>
        <time>2023-05-21T08:10:05.000Z</time>
      </trkpt>
      <trkpt lat="47.8483" lon="7.16708">
        <ele>663.40002441406</ele>
        <time>2023-05-21T08:10:06.000Z</time>
      </trkpt>
      <trkpt lat="47.84832" lon="7.16714">
        <ele>662.79998779297</ele>
        <time>2023-05-21T08:10:07.000Z</time>
      </trkpt>
      <trkpt lat="47.84835" lon="7.16722">
        <ele>662.20001220703</ele>
        <time>2023-05-21T08:10:08.000Z</time>
      </trkpt>
      <trkpt lat="47.84839" lon="7.1673">
        <ele>661.59997558594</ele>
        <time>2023-05-21T08:10:09.000Z</time>
      </trkpt>
      <trkpt lat="47.84845" lon="7.1674">
        <ele>661</ele>
        <time>2023-05-21T08:10:10.000Z</time>
      </trkpt>
      <trkpt lat="47.84854" lon="7.1675">
        <ele>660.20001220703</ele>
        <time>2023-05-21T08:10:11.000Z</time>
      </trkpt>
      <trkpt lat="47.84861" lon="7.16759">
        <ele>659.40002441406</ele>
        <time>2023-05-21T08:10:12.000Z</time>
      </trkpt>
      <trkpt lat="47.84875" lon="7.16769">
        <ele>658.40002441406</ele>
        <time>2023-05-21T08:10:13.000Z</time>
      </trkpt>
      <trkpt lat="47.84883" lon="7.16775">
        <ele>657.59997558594</ele>
        <time>2023-05-21T08:10:14.000Z</time>
      </trkpt>
      <trkpt lat="47.84889" lon="7.16778">
        <ele>656.59997558594</ele>
        <time>2023-05-21T08:10:15.000Z</time>
      </trkpt>
      <trkpt lat="47.84895" lon="7.1678">
        <ele>655.59997558594</ele>
        <time>2023-05-21T08:10:16.000Z</time>
      </trkpt>
      <trkpt lat="47.84901" lon="7.16779">
        <ele>654.59997558594</ele>
        <time>2023-05-21T08:10:17.000Z</time>
      </trkpt>
      <trkpt lat="47.84906" lon="7.16779">
        <ele>653.59997558594</ele>
        <time>2023-05-21T08:10:18.000Z</time>
      </trkpt>
      <trkpt lat="47.84911" lon="7.16777">
        <ele>653</ele>
        <time>2023-05-21T08:10:19.000Z</time>
      </trkpt>
      <trkpt lat="47.84916" lon="7.16775">
        <ele>652.40002441406</ele>
        <time>2023-05-21T08:10:20.000Z</time>
      </trkpt>
      <trkpt lat="47.8492" lon="7.16772">
        <ele>651.59997558594</ele>
        <time>2023-05-21T08:10:21.000Z</time>
      </trkpt>
      <trkpt lat="47.84925" lon="7.1677">
        <ele>651</ele>
        <time>2023-05-21T08:10:22.000Z</time>
      </trkpt>
      <trkpt lat="47.84929" lon="7.16768">
        <ele>650.40002441406</ele>
        <time>2023-05-21T08:10:23.000Z</time>
      </trkpt>
      <trkpt lat="47.84939" lon="7.16764">
        <ele>650.40002441406</ele>
        <time>2023-05-21T08:10:26.000Z</time>
      </trkpt>
      <trkpt lat="47.84955" lon="7.16742">
        <ele>650.40002441406</ele>
        <time>2023-05-21T08:10:32.000Z</time>
      </trkpt>
      <trkpt lat="47.84966" lon="7.1672">
        <ele>650.40002441406</ele>
        <time>2023-05-21T08:10:37.000Z</time>
      </trkpt>
      <trkpt lat="47.84972" lon="7.16695">
        <ele>650.40002441406</ele>
        <time>2023-05-21T08:10:42.000Z</time>
      </trkpt>
      <trkpt lat="47.84976" lon="7.16675">
        <ele>650.40002441406</ele>
        <time>2023-05-21T08:10:47.000Z</time>
      </trkpt>
      <trkpt lat="47.84978" lon="7.16669">
        <ele>650.79998779297</ele>
        <time>2023-05-21T08:10:49.000Z</time>
      </trkpt>
      <trkpt lat="47.84979" lon="7.16665">
        <ele>651.20001220703</ele>
        <time>2023-05-21T08:10:50.000Z</time>
      </trkpt>
      <trkpt lat="47.84981" lon="7.1666">
        <ele>651.59997558594</ele>
        <time>2023-05-21T08:10:51.000Z</time>
      </trkpt>
      <trkpt lat="47.84983" lon="7.16656">
        <ele>652.20001220703</ele>
        <time>2023-05-21T08:10:52.000Z</time>
      </trkpt>
      <trkpt lat="47.84985" lon="7.16652">
        <ele>652.59997558594</ele>
        <time>2023-05-21T08:10:53.000Z</time>
      </trkpt>
      <trkpt lat="47.8499" lon="7.16647">
        <ele>652.59997558594</ele>
        <time>2023-05-21T08:10:55.000Z</time>
      </trkpt>
      <trkpt lat="47.84995" lon="7.16646">
        <ele>652.59997558594</ele>
        <time>2023-05-21T08:10:56.000Z</time>
      </trkpt>
      <trkpt lat="47.85007" lon="7.16646">
        <ele>652.20001220703</ele>
        <time>2023-05-21T08:10:59.000Z</time>
      </trkpt>
      <trkpt lat="47.85012" lon="7.16648">
        <ele>651.59997558594</ele>
        <time>2023-05-21T08:11:00.000Z</time>
      </trkpt>
      <trkpt lat="47.85017" lon="7.16649">
        <ele>651.20001220703</ele>
        <time>2023-05-21T08:11:01.000Z</time>
      </trkpt>
      <trkpt lat="47.85022" lon="7.1665">
        <ele>650.79998779297</ele>
        <time>2023-05-21T08:11:02.000Z</time>
      </trkpt>
      <trkpt lat="47.85028" lon="7.1665">
        <ele>650.20001220703</ele>
        <time>2023-05-21T08:11:03.000Z</time>
      </trkpt>
      <trkpt lat="47.85032" lon="7.16646">
        <ele>649.79998779297</ele>
        <time>2023-05-21T08:11:04.000Z</time>
      </trkpt>
      <trkpt lat="47.85036" lon="7.16645">
        <ele>649.20001220703</ele>
        <time>2023-05-21T08:11:05.000Z</time>
      </trkpt>
      <trkpt lat="47.85039" lon="7.16646">
        <ele>648.79998779297</ele>
        <time>2023-05-21T08:11:06.000Z</time>
      </trkpt>
      <trkpt lat="47.85042" lon="7.16647">
        <ele>648.20001220703</ele>
        <time>2023-05-21T08:11:07.000Z</time>
      </trkpt>
      <trkpt lat="47.85047" lon="7.16651">
        <ele>648.20001220703</ele>
        <time>2023-05-21T08:11:09.000Z</time>
      </trkpt>
      <trkpt lat="47.85052" lon="7.16658">
        <ele>647.79998779297</ele>
        <time>2023-05-21T08:11:11.000Z</time>
      </trkpt>
      <trkpt lat="47.85054" lon="7.16662">
        <ele>647.40002441406</ele>
        <time>2023-05-21T08:11:12.000Z</time>
      </trkpt>
      <trkpt lat="47.85053" lon="7.16666">
        <ele>647</ele>
        <time>2023-05-21T08:11:13.000Z</time>
      </trkpt>
      <trkpt lat="47.85054" lon="7.1667">
        <ele>646.40002441406</ele>
        <time>2023-05-21T08:11:14.000Z</time>
      </trkpt>
      <trkpt lat="47.85054" lon="7.16674">
        <ele>646</ele>
        <time>2023-05-21T08:11:15.000Z</time>
      </trkpt>
      <trkpt lat="47.85062" lon="7.167">
        <ele>646</ele>
        <time>2023-05-21T08:11:20.000Z</time>
      </trkpt>
      <trkpt lat="47.85075" lon="7.16718">
        <ele>646</ele>
        <time>2023-05-21T08:11:25.000Z</time>
      </trkpt>
      <trkpt lat="47.85083" lon="7.16734">
        <ele>646.40002441406</ele>
        <time>2023-05-21T08:11:29.000Z</time>
      </trkpt>
      <trkpt lat="47.85085" lon="7.16738">
        <ele>646.79998779297</ele>
        <time>2023-05-21T08:11:30.000Z</time>
      </trkpt>
      <trkpt lat="47.85086" lon="7.1674">
        <ele>647.20001220703</ele>
        <time>2023-05-21T08:11:31.000Z</time>
      </trkpt>
      <trkpt lat="47.85088" lon="7.16744">
        <ele>647.59997558594</ele>
        <time>2023-05-21T08:11:32.000Z</time>
      </trkpt>
      <trkpt lat="47.8509" lon="7.16748">
        <ele>648</ele>
        <time>2023-05-21T08:11:33.000Z</time>
      </trkpt>
      <trkpt lat="47.85095" lon="7.16759">
        <ele>648.59997558594</ele>
        <time>2023-05-21T08:11:36.000Z</time>
      </trkpt>
      <trkpt lat="47.85097" lon="7.16762">
        <ele>649</ele>
        <time>2023-05-21T08:11:37.000Z</time>
      </trkpt>
      <trkpt lat="47.85099" lon="7.16765">
        <ele>649.40002441406</ele>
        <time>2023-05-21T08:11:38.000Z</time>
      </trkpt>
      <trkpt lat="47.85099" lon="7.16767">
        <ele>649.79998779297</ele>
        <time>2023-05-21T08:11:39.000Z</time>
      </trkpt>
      <trkpt lat="47.85101" lon="7.1677">
        <ele>650.40002441406</ele>
        <time>2023-05-21T08:11:40.000Z</time>
      </trkpt>
      <trkpt lat="47.85103" lon="7.16776">
        <ele>650.79998779297</ele>
        <time>2023-05-21T08:11:42.000Z</time>
      </trkpt>
      <trkpt lat="47.85105" lon="7.16778">
        <ele>651.59997558594</ele>
        <time>2023-05-21T08:11:43.000Z</time>
      </trkpt>
      <trkpt lat="47.85106" lon="7.1678">
        <ele>652</ele>
        <time>2023-05-21T08:11:44.000Z</time>
      </trkpt>
      <trkpt lat="47.85108" lon="7.16781">
        <ele>652.40002441406</ele>
        <time>2023-05-21T08:11:45.000Z</time>
      </trkpt>
      <trkpt lat="47.8511" lon="7.16786">
        <ele>652.79998779297</ele>
        <time>2023-05-21T08:11:48.000Z</time>
      </trkpt>
      <trkpt lat="47.85111" lon="7.16787">
        <ele>653.20001220703</ele>
        <time>2023-05-21T08:11:49.000Z</time>
      </trkpt>
      <trkpt lat="47.85113" lon="7.1679">
        <ele>653.59997558594</ele>
        <time>2023-05-21T08:11:50.000Z</time>
      </trkpt>
      <trkpt lat="47.85116" lon="7.16793">
        <ele>654.20001220703</ele>
        <time>2023-05-21T08:11:51.000Z</time>
      </trkpt>
      <trkpt lat="47.85118" lon="7.16796">
        <ele>654.59997558594</ele>
        <time>2023-05-21T08:11:52.000Z</time>
      </trkpt>
      <trkpt lat="47.85124" lon="7.16801">
        <ele>655</ele>
        <time>2023-05-21T08:11:55.000Z</time>
      </trkpt>
      <trkpt lat="47.85127" lon="7.16803">
        <ele>655.40002441406</ele>
        <time>2023-05-21T08:11:56.000Z</time>
      </trkpt>
      <trkpt lat="47.85129" lon="7.16804">
        <ele>655.79998779297</ele>
        <time>2023-05-21T08:11:57.000Z</time>
      </trkpt>
      <trkpt lat="47.85131" lon="7.16805">
        <ele>656.20001220703</ele>
        <time>2023-05-21T08:11:58.000Z</time>
      </trkpt>
      <trkpt lat="47.85133" lon="7.16807">
        <ele>656.59997558594</ele>
        <time>2023-05-21T08:11:59.000Z</time>
      </trkpt>
      <trkpt lat="47.85139" lon="7.16808">
        <ele>657.20001220703</ele>
        <time>2023-05-21T08:12:02.000Z</time>
      </trkpt>
      <trkpt lat="47.85145" lon="7.1681">
        <ele>657.59997558594</ele>
        <time>2023-05-21T08:12:03.000Z</time>
      </trkpt>
      <trkpt lat="47.85148" lon="7.16811">
        <ele>658</ele>
        <time>2023-05-21T08:12:04.000Z</time>
      </trkpt>
      <trkpt lat="47.85151" lon="7.16813">
        <ele>658.59997558594</ele>
        <time>2023-05-21T08:12:05.000Z</time>
      </trkpt>
      <trkpt lat="47.85154" lon="7.16815">
        <ele>659</ele>
        <time>2023-05-21T08:12:06.000Z</time>
      </trkpt>
      <trkpt lat="47.85157" lon="7.16816">
        <ele>659</ele>
        <time>2023-05-21T08:12:07.000Z</time>
      </trkpt>
      <trkpt lat="47.8516" lon="7.16818">
        <ele>659.40002441406</ele>
        <time>2023-05-21T08:12:08.000Z</time>
      </trkpt>
      <trkpt lat="47.85162" lon="7.1682">
        <ele>659.79998779297</ele>
        <time>2023-05-21T08:12:09.000Z</time>
      </trkpt>
      <trkpt lat="47.85164" lon="7.1682">
        <ele>660.20001220703</ele>
        <time>2023-05-21T08:12:10.000Z</time>
      </trkpt>
      <trkpt lat="47.85167" lon="7.16822">
        <ele>660.79998779297</ele>
        <time>2023-05-21T08:12:11.000Z</time>
      </trkpt>
      <trkpt lat="47.8517" lon="7.16823">
        <ele>661.20001220703</ele>
        <time>2023-05-21T08:12:12.000Z</time>
      </trkpt>
      <trkpt lat="47.85178" lon="7.16827">
        <ele>661.59997558594</ele>
        <time>2023-05-21T08:12:15.000Z</time>
      </trkpt>
      <trkpt lat="47.85181" lon="7.16828">
        <ele>662</ele>
        <time>2023-05-21T08:12:16.000Z</time>
      </trkpt>
      <trkpt lat="47.85184" lon="7.16829">
        <ele>662.40002441406</ele>
        <time>2023-05-21T08:12:17.000Z</time>
      </trkpt>
      <trkpt lat="47.85187" lon="7.1683">
        <ele>662.79998779297</ele>
        <time>2023-05-21T08:12:18.000Z</time>
      </trkpt>
      <trkpt lat="47.85189" lon="7.1683">
        <ele>663.20001220703</ele>
        <time>2023-05-21T08:12:19.000Z</time>
      </trkpt>
      <trkpt lat="47.85198" lon="7.16832">
        <ele>663.79998779297</ele>
        <time>2023-05-21T08:12:22.000Z</time>
      </trkpt>
      <trkpt lat="47.85201" lon="7.16833">
        <ele>664.20001220703</ele>
        <time>2023-05-21T08:12:23.000Z</time>
      </trkpt>
      <trkpt lat="47.85204" lon="7.16833">
        <ele>664.59997558594</ele>
        <time>2023-05-21T08:12:24.000Z</time>
      </trkpt>
      <trkpt lat="47.85207" lon="7.16834">
        <ele>665</ele>
        <time>2023-05-21T08:12:25.000Z</time>
      </trkpt>
      <trkpt lat="47.8521" lon="7.16834">
        <ele>665.40002441406</ele>
        <time>2023-05-21T08:12:26.000Z</time>
      </trkpt>
      <trkpt lat="47.85217" lon="7.16835">
        <ele>665.40002441406</ele>
        <time>2023-05-21T08:12:28.000Z</time>
      </trkpt>
      <trkpt lat="47.85219" lon="7.16834">
        <ele>665.79998779297</ele>
        <time>2023-05-21T08:12:29.000Z</time>
      </trkpt>
      <trkpt lat="47.8522" lon="7.16834">
        <ele>666.20001220703</ele>
        <time>2023-05-21T08:12:30.000Z</time>
      </trkpt>
      <trkpt lat="47.85224" lon="7.16834">
        <ele>667</ele>
        <time>2023-05-21T08:12:31.000Z</time>
      </trkpt>
      <trkpt lat="47.85226" lon="7.16833">
        <ele>667.40002441406</ele>
        <time>2023-05-21T08:12:32.000Z</time>
      </trkpt>
      <trkpt lat="47.85229" lon="7.16831">
        <ele>667.40002441406</ele>
        <time>2023-05-21T08:12:33.000Z</time>
      </trkpt>
      <trkpt lat="47.85234" lon="7.16831">
        <ele>668</ele>
        <time>2023-05-21T08:12:35.000Z</time>
      </trkpt>
      <trkpt lat="47.85235" lon="7.1683">
        <ele>668.40002441406</ele>
        <time>2023-05-21T08:12:36.000Z</time>
      </trkpt>
      <trkpt lat="47.85237" lon="7.1683">
        <ele>668.79998779297</ele>
        <time>2023-05-21T08:12:37.000Z</time>
      </trkpt>
      <trkpt lat="47.85239" lon="7.16829">
        <ele>669.20001220703</ele>
        <time>2023-05-21T08:12:38.000Z</time>
      </trkpt>
      <trkpt lat="47.85241" lon="7.16828">
        <ele>669.79998779297</ele>
        <time>2023-05-21T08:12:39.000Z</time>
      </trkpt>
      <trkpt lat="47.85245" lon="7.16826">
        <ele>670.20001220703</ele>
        <time>2023-05-21T08:12:41.000Z</time>
      </trkpt>
      <trkpt lat="47.85248" lon="7.16826">
        <ele>670.59997558594</ele>
        <time>2023-05-21T08:12:42.000Z</time>
      </trkpt>
      <trkpt lat="47.8525" lon="7.16826">
        <ele>671</ele>
        <time>2023-05-21T08:12:43.000Z</time>
      </trkpt>
      <trkpt lat="47.85253" lon="7.16827">
        <ele>671.40002441406</ele>
        <time>2023-05-21T08:12:44.000Z</time>
      </trkpt>
      <trkpt lat="47.85254" lon="7.16829">
        <ele>671.79998779297</ele>
        <time>2023-05-21T08:12:45.000Z</time>
      </trkpt>
      <trkpt lat="47.8526" lon="7.16834">
        <ele>672.20001220703</ele>
        <time>2023-05-21T08:12:48.000Z</time>
      </trkpt>
      <trkpt lat="47.85261" lon="7.16837">
        <ele>672.79998779297</ele>
        <time>2023-05-21T08:12:49.000Z</time>
      </trkpt>
      <trkpt lat="47.85262" lon="7.1684">
        <ele>673.20001220703</ele>
        <time>2023-05-21T08:12:50.000Z</time>
      </trkpt>
      <trkpt lat="47.85263" lon="7.16843">
        <ele>673.59997558594</ele>
        <time>2023-05-21T08:12:51.000Z</time>
      </trkpt>
      <trkpt lat="47.85264" lon="7.16846">
        <ele>674.20001220703</ele>
        <time>2023-05-21T08:12:52.000Z</time>
      </trkpt>
      <trkpt lat="47.85268" lon="7.16856">
        <ele>674.59997558594</ele>
        <time>2023-05-21T08:12:55.000Z</time>
      </trkpt>
      <trkpt lat="47.85269" lon="7.16859">
        <ele>675.40002441406</ele>
        <time>2023-05-21T08:12:56.000Z</time>
      </trkpt>
      <trkpt lat="47.8527" lon="7.16863">
        <ele>675.79998779297</ele>
        <time>2023-05-21T08:12:57.000Z</time>
      </trkpt>
      <trkpt lat="47.8527" lon="7.16866">
        <ele>676.20001220703</ele>
        <time>2023-05-21T08:12:58.000Z</time>
      </trkpt>
      <trkpt lat="47.85272" lon="7.16873">
        <ele>676.59997558594</ele>
        <time>2023-05-21T08:13:00.000Z</time>
      </trkpt>
      <trkpt lat="47.85273" lon="7.16876">
        <ele>677</ele>
        <time>2023-05-21T08:13:01.000Z</time>
      </trkpt>
      <trkpt lat="47.85274" lon="7.16878">
        <ele>677.40002441406</ele>
        <time>2023-05-21T08:13:02.000Z</time>
      </trkpt>
      <trkpt lat="47.85275" lon="7.16881">
        <ele>677.79998779297</ele>
        <time>2023-05-21T08:13:03.000Z</time>
      </trkpt>
      <trkpt lat="47.85275" lon="7.16883">
        <ele>678.20001220703</ele>
        <time>2023-05-21T08:13:04.000Z</time>
      </trkpt>
      <trkpt lat="47.85277" lon="7.16886">
        <ele>678.20001220703</ele>
        <time>2023-05-21T08:13:05.000Z</time>
      </trkpt>
      <trkpt lat="47.85281" lon="7.16893">
        <ele>678.59997558594</ele>
        <time>2023-05-21T08:13:07.000Z</time>
      </trkpt>
      <trkpt lat="47.85282" lon="7.16897">
        <ele>679</ele>
        <time>2023-05-21T08:13:08.000Z</time>
      </trkpt>
      <trkpt lat="47.85284" lon="7.169">
        <ele>679.40002441406</ele>
        <time>2023-05-21T08:13:09.000Z</time>
      </trkpt>
      <trkpt lat="47.85285" lon="7.16903">
        <ele>679.79998779297</ele>
        <time>2023-05-21T08:13:10.000Z</time>
      </trkpt>
      <trkpt lat="47.85288" lon="7.16906">
        <ele>680.20001220703</ele>
        <time>2023-05-21T08:13:11.000Z</time>
      </trkpt>
      <trkpt lat="47.85293" lon="7.16913">
        <ele>680.79998779297</ele>
        <time>2023-05-21T08:13:14.000Z</time>
      </trkpt>
      <trkpt lat="47.85294" lon="7.16916">
        <ele>681.20001220703</ele>
        <time>2023-05-21T08:13:15.000Z</time>
      </trkpt>
      <trkpt lat="47.85295" lon="7.1692">
        <ele>681.59997558594</ele>
        <time>2023-05-21T08:13:16.000Z</time>
      </trkpt>
      <trkpt lat="47.85297" lon="7.16923">
        <ele>682</ele>
        <time>2023-05-21T08:13:17.000Z</time>
      </trkpt>
      <trkpt lat="47.85299" lon="7.16929">
        <ele>682.59997558594</ele>
        <time>2023-05-21T08:13:18.000Z</time>
      </trkpt>
      <trkpt lat="47.85303" lon="7.16937">
        <ele>682.59997558594</ele>
        <time>2023-05-21T08:13:20.000Z</time>
      </trkpt>
      <trkpt lat="47.85303" lon="7.1694">
        <ele>683.40002441406</ele>
        <time>2023-05-21T08:13:21.000Z</time>
      </trkpt>
      <trkpt lat="47.85304" lon="7.16942">
        <ele>683.79998779297</ele>
        <time>2023-05-21T08:13:22.000Z</time>
      </trkpt>
      <trkpt lat="47.85305" lon="7.16945">
        <ele>684.20001220703</ele>
        <time>2023-05-21T08:13:23.000Z</time>
      </trkpt>
      <trkpt lat="47.85305" lon="7.16947">
        <ele>684.59997558594</ele>
        <time>2023-05-21T08:13:24.000Z</time>
      </trkpt>
      <trkpt lat="47.85305" lon="7.16952">
        <ele>684.59997558594</ele>
        <time>2023-05-21T08:13:26.000Z</time>
      </trkpt>
      <trkpt lat="47.85306" lon="7.16961">
        <ele>685</ele>
        <time>2023-05-21T08:13:28.000Z</time>
      </trkpt>
      <trkpt lat="47.85306" lon="7.16966">
        <ele>685.59997558594</ele>
        <time>2023-05-21T08:13:29.000Z</time>
      </trkpt>
      <trkpt lat="47.85307" lon="7.1697">
        <ele>686</ele>
        <time>2023-05-21T08:13:30.000Z</time>
      </trkpt>
      <trkpt lat="47.85308" lon="7.16974">
        <ele>686.40002441406</ele>
        <time>2023-05-21T08:13:31.000Z</time>
      </trkpt>
      <trkpt lat="47.85309" lon="7.16978">
        <ele>686.79998779297</ele>
        <time>2023-05-21T08:13:32.000Z</time>
      </trkpt>
      <trkpt lat="47.85309" lon="7.16993">
        <ele>687.20001220703</ele>
        <time>2023-05-21T08:13:36.000Z</time>
      </trkpt>
      <trkpt lat="47.8531" lon="7.16998">
        <ele>687.59997558594</ele>
        <time>2023-05-21T08:13:37.000Z</time>
      </trkpt>
      <trkpt lat="47.8531" lon="7.17002">
        <ele>688</ele>
        <time>2023-05-21T08:13:38.000Z</time>
      </trkpt>
      <trkpt lat="47.8531" lon="7.17007">
        <ele>688.59997558594</ele>
        <time>2023-05-21T08:13:39.000Z</time>
      </trkpt>
      <trkpt lat="47.8531" lon="7.17012">
        <ele>689</ele>
        <time>2023-05-21T08:13:40.000Z</time>
      </trkpt>
      <trkpt lat="47.85312" lon="7.17026">
        <ele>689</ele>
        <time>2023-05-21T08:13:43.000Z</time>
      </trkpt>
      <trkpt lat="47.85313" lon="7.17028">
        <ele>689.40002441406</ele>
        <time>2023-05-21T08:13:44.000Z</time>
      </trkpt>
      <trkpt lat="47.85314" lon="7.1703">
        <ele>690.20001220703</ele>
        <time>2023-05-21T08:13:45.000Z</time>
      </trkpt>
      <trkpt lat="47.85314" lon="7.17034">
        <ele>690.59997558594</ele>
        <time>2023-05-21T08:13:46.000Z</time>
      </trkpt>
      <trkpt lat="47.85315" lon="7.17036">
        <ele>691</ele>
        <time>2023-05-21T08:13:47.000Z</time>
      </trkpt>
      <trkpt lat="47.85316" lon="7.17044">
        <ele>691</ele>
        <time>2023-05-21T08:13:49.000Z</time>
      </trkpt>
      <trkpt lat="47.85317" lon="7.1705">
        <ele>691.40002441406</ele>
        <time>2023-05-21T08:13:50.000Z</time>
      </trkpt>
      <trkpt lat="47.85318" lon="7.17053">
        <ele>692</ele>
        <time>2023-05-21T08:13:51.000Z</time>
      </trkpt>
      <trkpt lat="47.85318" lon="7.17057">
        <ele>692.40002441406</ele>
        <time>2023-05-21T08:13:52.000Z</time>
      </trkpt>
      <trkpt lat="47.85318" lon="7.1706">
        <ele>692.79998779297</ele>
        <time>2023-05-21T08:13:53.000Z</time>
      </trkpt>
      <trkpt lat="47.85318" lon="7.17064">
        <ele>693.20001220703</ele>
        <time>2023-05-21T08:13:54.000Z</time>
      </trkpt>
      <trkpt lat="47.85318" lon="7.17071">
        <ele>693.20001220703</ele>
        <time>2023-05-21T08:13:56.000Z</time>
      </trkpt>
      <trkpt lat="47.85319" lon="7.17078">
        <ele>693.59997558594</ele>
        <time>2023-05-21T08:13:58.000Z</time>
      </trkpt>
      <trkpt lat="47.85319" lon="7.17083">
        <ele>694.20001220703</ele>
        <time>2023-05-21T08:13:59.000Z</time>
      </trkpt>
      <trkpt lat="47.8532" lon="7.17087">
        <ele>694.59997558594</ele>
        <time>2023-05-21T08:14:00.000Z</time>
      </trkpt>
      <trkpt lat="47.8532" lon="7.1709">
        <ele>695</ele>
        <time>2023-05-21T08:14:01.000Z</time>
      </trkpt>
      <trkpt lat="47.8532" lon="7.17094">
        <ele>695.40002441406</ele>
        <time>2023-05-21T08:14:02.000Z</time>
      </trkpt>
      <trkpt lat="47.85321" lon="7.17104">
        <ele>695.79998779297</ele>
        <time>2023-05-21T08:14:05.000Z</time>
      </trkpt>
      <trkpt lat="47.85322" lon="7.17106">
        <ele>696.40002441406</ele>
        <time>2023-05-21T08:14:06.000Z</time>
      </trkpt>
      <trkpt lat="47.85322" lon="7.17109">
        <ele>696.79998779297</ele>
        <time>2023-05-21T08:14:07.000Z</time>
      </trkpt>
      <trkpt lat="47.85323" lon="7.17113">
        <ele>697.20001220703</ele>
        <time>2023-05-21T08:14:08.000Z</time>
      </trkpt>
      <trkpt lat="47.85323" lon="7.17116">
        <ele>697.59997558594</ele>
        <time>2023-05-21T08:14:09.000Z</time>
      </trkpt>
      <trkpt lat="47.85323" lon="7.17129">
        <ele>698</ele>
        <time>2023-05-21T08:14:12.000Z</time>
      </trkpt>
      <trkpt lat="47.85321" lon="7.17136">
        <ele>698.59997558594</ele>
        <time>2023-05-21T08:14:13.000Z</time>
      </trkpt>
      <trkpt lat="47.8532" lon="7.17142">
        <ele>699</ele>
        <time>2023-05-21T08:14:14.000Z</time>
      </trkpt>
      <trkpt lat="47.8532" lon="7.17147">
        <ele>699.40002441406</ele>
        <time>2023-05-21T08:14:15.000Z</time>
      </trkpt>
      <trkpt lat="47.85319" lon="7.17152">
        <ele>699.79998779297</ele>
        <time>2023-05-21T08:14:16.000Z</time>
      </trkpt>
      <trkpt lat="47.85317" lon="7.17167">
        <ele>699.79998779297</ele>
        <time>2023-05-21T08:14:20.000Z</time>
      </trkpt>
      <trkpt lat="47.85315" lon="7.17171">
        <ele>699.79998779297</ele>
        <time>2023-05-21T08:14:21.000Z</time>
      </trkpt>
      <trkpt lat="47.85299" lon="7.17188">
        <ele>699.79998779297</ele>
        <time>2023-05-21T08:14:25.000Z</time>
      </trkpt>
      <trkpt lat="47.85288" lon="7.17198">
        <ele>699.40002441406</ele>
        <time>2023-05-21T08:14:27.000Z</time>
      </trkpt>
      <trkpt lat="47.85284" lon="7.17204">
        <ele>699</ele>
        <time>2023-05-21T08:14:28.000Z</time>
      </trkpt>
      <trkpt lat="47.85279" lon="7.17212">
        <ele>698.20001220703</ele>
        <time>2023-05-21T08:14:29.000Z</time>
      </trkpt>
      <trkpt lat="47.85275" lon="7.17222">
        <ele>697.40002441406</ele>
        <time>2023-05-21T08:14:30.000Z</time>
      </trkpt>
      <trkpt lat="47.85271" lon="7.17229">
        <ele>696.40002441406</ele>
        <time>2023-05-21T08:14:31.000Z</time>
      </trkpt>
      <trkpt lat="47.85268" lon="7.17237">
        <ele>695.20001220703</ele>
        <time>2023-05-21T08:14:32.000Z</time>
      </trkpt>
      <trkpt lat="47.85265" lon="7.17245">
        <ele>694</ele>
        <time>2023-05-21T08:14:33.000Z</time>
      </trkpt>
      <trkpt lat="47.85263" lon="7.17252">
        <ele>691.59997558594</ele>
        <time>2023-05-21T08:14:34.000Z</time>
      </trkpt>
      <trkpt lat="47.85261" lon="7.17258">
        <ele>690.40002441406</ele>
        <time>2023-05-21T08:14:35.000Z</time>
      </trkpt>
      <trkpt lat="47.85261" lon="7.17262">
        <ele>689.20001220703</ele>
        <time>2023-05-21T08:14:36.000Z</time>
      </trkpt>
      <trkpt lat="47.8526" lon="7.17265">
        <ele>688.40002441406</ele>
        <time>2023-05-21T08:14:37.000Z</time>
      </trkpt>
      <trkpt lat="47.8526" lon="7.17268">
        <ele>687.40002441406</ele>
        <time>2023-05-21T08:14:38.000Z</time>
      </trkpt>
      <trkpt lat="47.85259" lon="7.17271">
        <ele>686.40002441406</ele>
        <time>2023-05-21T08:14:39.000Z</time>
      </trkpt>
      <trkpt lat="47.85259" lon="7.17274">
        <ele>685.59997558594</ele>
        <time>2023-05-21T08:14:40.000Z</time>
      </trkpt>
      <trkpt lat="47.85259" lon="7.17278">
        <ele>684.79998779297</ele>
        <time>2023-05-21T08:14:41.000Z</time>
      </trkpt>
      <trkpt lat="47.85259" lon="7.17281">
        <ele>684</ele>
        <time>2023-05-21T08:14:42.000Z</time>
      </trkpt>
      <trkpt lat="47.85259" lon="7.17285">
        <ele>683.20001220703</ele>
        <time>2023-05-21T08:14:43.000Z</time>
      </trkpt>
      <trkpt lat="47.8526" lon="7.17289">
        <ele>682.59997558594</ele>
        <time>2023-05-21T08:14:44.000Z</time>
      </trkpt>
      <trkpt lat="47.85261" lon="7.17294">
        <ele>682</ele>
        <time>2023-05-21T08:14:45.000Z</time>
      </trkpt>
      <trkpt lat="47.85263" lon="7.17298">
        <ele>681.40002441406</ele>
        <time>2023-05-21T08:14:46.000Z</time>
      </trkpt>
      <trkpt lat="47.85264" lon="7.17302">
        <ele>681</ele>
        <time>2023-05-21T08:14:47.000Z</time>
      </trkpt>
      <trkpt lat="47.85265" lon="7.17304">
        <ele>680.40002441406</ele>
        <time>2023-05-21T08:14:48.000Z</time>
      </trkpt>
      <trkpt lat="47.85267" lon="7.17313">
        <ele>680.40002441406</ele>
        <time>2023-05-21T08:14:52.000Z</time>
      </trkpt>
      <trkpt lat="47.85268" lon="7.17321">
        <ele>678.20001220703</ele>
        <time>2023-05-21T08:15:34.000Z</time>
      </trkpt>
      <trkpt lat="47.85269" lon="7.17343">
        <ele>678.20001220703</ele>
        <time>2023-05-21T08:15:37.000Z</time>
      </trkpt>
      <trkpt lat="47.8527" lon="7.17363">
        <ele>677.79998779297</ele>
        <time>2023-05-21T08:15:39.000Z</time>
      </trkpt>
      <trkpt lat="47.85271" lon="7.17375">
        <ele>677.20001220703</ele>
        <time>2023-05-21T08:15:40.000Z</time>
      </trkpt>
      <trkpt lat="47.85272" lon="7.17385">
        <ele>676.59997558594</ele>
        <time>2023-05-21T08:15:41.000Z</time>
      </trkpt>
      <trkpt lat="47.85274" lon="7.17393">
        <ele>675.79998779297</ele>
        <time>2023-05-21T08:15:42.000Z</time>
      </trkpt>
      <trkpt lat="47.85277" lon="7.174">
        <ele>675</ele>
        <time>2023-05-21T08:15:43.000Z</time>
      </trkpt>
      <trkpt lat="47.8528" lon="7.17407">
        <ele>674.20001220703</ele>
        <time>2023-05-21T08:15:44.000Z</time>
      </trkpt>
      <trkpt lat="47.85283" lon="7.17416">
        <ele>673.40002441406</ele>
        <time>2023-05-21T08:15:45.000Z</time>
      </trkpt>
      <trkpt lat="47.85285" lon="7.17424">
        <ele>672.59997558594</ele>
        <time>2023-05-21T08:15:46.000Z</time>
      </trkpt>
      <trkpt lat="47.85288" lon="7.17431">
        <ele>671.59997558594</ele>
        <time>2023-05-21T08:15:47.000Z</time>
      </trkpt>
      <trkpt lat="47.8529" lon="7.17436">
        <ele>670.79998779297</ele>
        <time>2023-05-21T08:15:48.000Z</time>
      </trkpt>
      <trkpt lat="47.85291" lon="7.17442">
        <ele>669</ele>
        <time>2023-05-21T08:15:49.000Z</time>
      </trkpt>
      <trkpt lat="47.85291" lon="7.17449">
        <ele>668.20001220703</ele>
        <time>2023-05-21T08:15:50.000Z</time>
      </trkpt>
      <trkpt lat="47.85291" lon="7.17456">
        <ele>667.40002441406</ele>
        <time>2023-05-21T08:15:51.000Z</time>
      </trkpt>
      <trkpt lat="47.85292" lon="7.17463">
        <ele>666.40002441406</ele>
        <time>2023-05-21T08:15:52.000Z</time>
      </trkpt>
      <trkpt lat="47.85293" lon="7.17469">
        <ele>665.59997558594</ele>
        <time>2023-05-21T08:15:53.000Z</time>
      </trkpt>
      <trkpt lat="47.85295" lon="7.17474">
        <ele>664.59997558594</ele>
        <time>2023-05-21T08:15:54.000Z</time>
      </trkpt>
      <trkpt lat="47.85296" lon="7.17476">
        <ele>663.59997558594</ele>
        <time>2023-05-21T08:15:55.000Z</time>
      </trkpt>
      <trkpt lat="47.85298" lon="7.17477">
        <ele>662.79998779297</ele>
        <time>2023-05-21T08:15:56.000Z</time>
      </trkpt>
      <trkpt lat="47.853" lon="7.17479">
        <ele>661.79998779297</ele>
        <time>2023-05-21T08:15:57.000Z</time>
      </trkpt>
      <trkpt lat="47.85303" lon="7.17481">
        <ele>661</ele>
        <time>2023-05-21T08:15:58.000Z</time>
      </trkpt>
      <trkpt lat="47.85306" lon="7.17483">
        <ele>660</ele>
        <time>2023-05-21T08:15:59.000Z</time>
      </trkpt>
      <trkpt lat="47.8531" lon="7.17486">
        <ele>659.20001220703</ele>
        <time>2023-05-21T08:16:00.000Z</time>
      </trkpt>
      <trkpt lat="47.85314" lon="7.17488">
        <ele>658.40002441406</ele>
        <time>2023-05-21T08:16:01.000Z</time>
      </trkpt>
      <trkpt lat="47.85318" lon="7.1749">
        <ele>657.59997558594</ele>
        <time>2023-05-21T08:16:02.000Z</time>
      </trkpt>
      <trkpt lat="47.85321" lon="7.17493">
        <ele>656.79998779297</ele>
        <time>2023-05-21T08:16:03.000Z</time>
      </trkpt>
      <trkpt lat="47.85323" lon="7.17494">
        <ele>656</ele>
        <time>2023-05-21T08:16:04.000Z</time>
      </trkpt>
      <trkpt lat="47.85331" lon="7.17496">
        <ele>655.59997558594</ele>
        <time>2023-05-21T08:16:06.000Z</time>
      </trkpt>
      <trkpt lat="47.85334" lon="7.17496">
        <ele>655.20001220703</ele>
        <time>2023-05-21T08:16:07.000Z</time>
      </trkpt>
      <trkpt lat="47.85337" lon="7.17495">
        <ele>654.59997558594</ele>
        <time>2023-05-21T08:16:08.000Z</time>
      </trkpt>
      <trkpt lat="47.8534" lon="7.17494">
        <ele>654.20001220703</ele>
        <time>2023-05-21T08:16:09.000Z</time>
      </trkpt>
      <trkpt lat="47.85342" lon="7.17493">
        <ele>653.79998779297</ele>
        <time>2023-05-21T08:16:10.000Z</time>
      </trkpt>
      <trkpt lat="47.85344" lon="7.17492">
        <ele>653.79998779297</ele>
        <time>2023-05-21T08:16:11.000Z</time>
      </trkpt>
      <trkpt lat="47.85359" lon="7.17483">
        <ele>654.20001220703</ele>
        <time>2023-05-21T08:16:18.000Z</time>
      </trkpt>
      <trkpt lat="47.85361" lon="7.17481">
        <ele>654.59997558594</ele>
        <time>2023-05-21T08:16:19.000Z</time>
      </trkpt>
      <trkpt lat="47.85362" lon="7.17479">
        <ele>655.20001220703</ele>
        <time>2023-05-21T08:16:20.000Z</time>
      </trkpt>
      <trkpt lat="47.85363" lon="7.17476">
        <ele>655.59997558594</ele>
        <time>2023-05-21T08:16:21.000Z</time>
      </trkpt>
      <trkpt lat="47.85365" lon="7.17473">
        <ele>656</ele>
        <time>2023-05-21T08:16:22.000Z</time>
      </trkpt>
      <trkpt lat="47.85367" lon="7.1747">
        <ele>656</ele>
        <time>2023-05-21T08:16:23.000Z</time>
      </trkpt>
      <trkpt lat="47.85371" lon="7.17466">
        <ele>656.40002441406</ele>
        <time>2023-05-21T08:16:25.000Z</time>
      </trkpt>
      <trkpt lat="47.85373" lon="7.17463">
        <ele>656.79998779297</ele>
        <time>2023-05-21T08:16:26.000Z</time>
      </trkpt>
      <trkpt lat="47.85375" lon="7.17462">
        <ele>657.40002441406</ele>
        <time>2023-05-21T08:16:27.000Z</time>
      </trkpt>
      <trkpt lat="47.85377" lon="7.17459">
        <ele>657.79998779297</ele>
        <time>2023-05-21T08:16:28.000Z</time>
      </trkpt>
      <trkpt lat="47.8538" lon="7.17457">
        <ele>658.20001220703</ele>
        <time>2023-05-21T08:16:29.000Z</time>
      </trkpt>
      <trkpt lat="47.85394" lon="7.17448">
        <ele>658.59997558594</ele>
        <time>2023-05-21T08:16:35.000Z</time>
      </trkpt>
      <trkpt lat="47.85397" lon="7.17448">
        <ele>659</ele>
        <time>2023-05-21T08:16:36.000Z</time>
      </trkpt>
      <trkpt lat="47.854" lon="7.17446">
        <ele>659.40002441406</ele>
        <time>2023-05-21T08:16:37.000Z</time>
      </trkpt>
      <trkpt lat="47.85402" lon="7.17444">
        <ele>660.20001220703</ele>
        <time>2023-05-21T08:16:38.000Z</time>
      </trkpt>
      <trkpt lat="47.8541" lon="7.17442">
        <ele>660.20001220703</ele>
        <time>2023-05-21T08:16:40.000Z</time>
      </trkpt>
      <trkpt lat="47.85415" lon="7.1744">
        <ele>660.79998779297</ele>
        <time>2023-05-21T08:16:42.000Z</time>
      </trkpt>
      <trkpt lat="47.85418" lon="7.17439">
        <ele>661.20001220703</ele>
        <time>2023-05-21T08:16:43.000Z</time>
      </trkpt>
      <trkpt lat="47.85421" lon="7.17438">
        <ele>661.59997558594</ele>
        <time>2023-05-21T08:16:44.000Z</time>
      </trkpt>
      <trkpt lat="47.85423" lon="7.17437">
        <ele>662</ele>
        <time>2023-05-21T08:16:45.000Z</time>
      </trkpt>
      <trkpt lat="47.85426" lon="7.17437">
        <ele>662.59997558594</ele>
        <time>2023-05-21T08:16:46.000Z</time>
      </trkpt>
      <trkpt lat="47.85429" lon="7.17436">
        <ele>663</ele>
        <time>2023-05-21T08:16:47.000Z</time>
      </trkpt>
      <trkpt lat="47.85432" lon="7.17435">
        <ele>663.40002441406</ele>
        <time>2023-05-21T08:16:48.000Z</time>
      </trkpt>
      <trkpt lat="47.85435" lon="7.17434">
        <ele>663.79998779297</ele>
        <time>2023-05-21T08:16:49.000Z</time>
      </trkpt>
      <trkpt lat="47.85438" lon="7.17432">
        <ele>664.20001220703</ele>
        <time>2023-05-21T08:16:50.000Z</time>
      </trkpt>
      <trkpt lat="47.85441" lon="7.17431">
        <ele>664.59997558594</ele>
        <time>2023-05-21T08:16:51.000Z</time>
      </trkpt>
      <trkpt lat="47.85448" lon="7.1743">
        <ele>665</ele>
        <time>2023-05-21T08:16:53.000Z</time>
      </trkpt>
      <trkpt lat="47.85451" lon="7.17429">
        <ele>665.59997558594</ele>
        <time>2023-05-21T08:16:54.000Z</time>
      </trkpt>
      <trkpt lat="47.85454" lon="7.17429">
        <ele>666</ele>
        <time>2023-05-21T08:16:55.000Z</time>
      </trkpt>
      <trkpt lat="47.85457" lon="7.17429">
        <ele>666.40002441406</ele>
        <time>2023-05-21T08:16:56.000Z</time>
      </trkpt>
      <trkpt lat="47.85461" lon="7.17427">
        <ele>666.79998779297</ele>
        <time>2023-05-21T08:16:57.000Z</time>
      </trkpt>
      <trkpt lat="47.8547" lon="7.17426">
        <ele>667.20001220703</ele>
        <time>2023-05-21T08:16:59.000Z</time>
      </trkpt>
      <trkpt lat="47.85475" lon="7.17426">
        <ele>667.79998779297</ele>
        <time>2023-05-21T08:17:00.000Z</time>
      </trkpt>
      <trkpt lat="47.85479" lon="7.17426">
        <ele>668.20001220703</ele>
        <time>2023-05-21T08:17:01.000Z</time>
      </trkpt>
      <trkpt lat="47.85484" lon="7.17427">
        <ele>669</ele>
        <time>2023-05-21T08:17:02.000Z</time>
      </trkpt>
      <trkpt lat="47.85496" lon="7.17432">
        <ele>669.59997558594</ele>
        <time>2023-05-21T08:17:06.000Z</time>
      </trkpt>
      <trkpt lat="47.855" lon="7.17433">
        <ele>670</ele>
        <time>2023-05-21T08:17:07.000Z</time>
      </trkpt>
      <trkpt lat="47.85502" lon="7.17435">
        <ele>670.59997558594</ele>
        <time>2023-05-21T08:17:08.000Z</time>
      </trkpt>
      <trkpt lat="47.85505" lon="7.17437">
        <ele>671</ele>
        <time>2023-05-21T08:17:09.000Z</time>
      </trkpt>
      <trkpt lat="47.85508" lon="7.17438">
        <ele>671.59997558594</ele>
        <time>2023-05-21T08:17:10.000Z</time>
      </trkpt>
      <trkpt lat="47.85512" lon="7.17441">
        <ele>672</ele>
        <time>2023-05-21T08:17:12.000Z</time>
      </trkpt>
      <trkpt lat="47.85514" lon="7.17443">
        <ele>672.40002441406</ele>
        <time>2023-05-21T08:17:13.000Z</time>
      </trkpt>
      <trkpt lat="47.85515" lon="7.17445">
        <ele>672.79998779297</ele>
        <time>2023-05-21T08:17:14.000Z</time>
      </trkpt>
      <trkpt lat="47.85517" lon="7.17446">
        <ele>673.20001220703</ele>
        <time>2023-05-21T08:17:15.000Z</time>
      </trkpt>
      <trkpt lat="47.85519" lon="7.17447">
        <ele>673.59997558594</ele>
        <time>2023-05-21T08:17:16.000Z</time>
      </trkpt>
      <trkpt lat="47.85524" lon="7.17449">
        <ele>674</ele>
        <time>2023-05-21T08:17:19.000Z</time>
      </trkpt>
      <trkpt lat="47.85525" lon="7.1745">
        <ele>674.59997558594</ele>
        <time>2023-05-21T08:17:20.000Z</time>
      </trkpt>
      <trkpt lat="47.85527" lon="7.1745">
        <ele>675</ele>
        <time>2023-05-21T08:17:21.000Z</time>
      </trkpt>
      <trkpt lat="47.85529" lon="7.17452">
        <ele>675.40002441406</ele>
        <time>2023-05-21T08:17:22.000Z</time>
      </trkpt>
      <trkpt lat="47.85531" lon="7.17453">
        <ele>675.79998779297</ele>
        <time>2023-05-21T08:17:23.000Z</time>
      </trkpt>
      <trkpt lat="47.85537" lon="7.17458">
        <ele>676.20001220703</ele>
        <time>2023-05-21T08:17:25.000Z</time>
      </trkpt>
      <trkpt lat="47.85539" lon="7.17459">
        <ele>676.59997558594</ele>
        <time>2023-05-21T08:17:26.000Z</time>
      </trkpt>
      <trkpt lat="47.8554" lon="7.17461">
        <ele>677.40002441406</ele>
        <time>2023-05-21T08:17:27.000Z</time>
      </trkpt>
      <trkpt lat="47.85542" lon="7.17463">
        <ele>677.79998779297</ele>
        <time>2023-05-21T08:17:28.000Z</time>
      </trkpt>
      <trkpt lat="47.85546" lon="7.1747">
        <ele>678.40002441406</ele>
        <time>2023-05-21T08:17:30.000Z</time>
      </trkpt>
      <trkpt lat="47.85548" lon="7.17473">
        <ele>678.79998779297</ele>
        <time>2023-05-21T08:17:31.000Z</time>
      </trkpt>
      <trkpt lat="47.8555" lon="7.17477">
        <ele>679.20001220703</ele>
        <time>2023-05-21T08:17:32.000Z</time>
      </trkpt>
      <trkpt lat="47.85554" lon="7.17481">
        <ele>679.79998779297</ele>
        <time>2023-05-21T08:17:33.000Z</time>
      </trkpt>
      <trkpt lat="47.85556" lon="7.17484">
        <ele>680.20001220703</ele>
        <time>2023-05-21T08:17:34.000Z</time>
      </trkpt>
      <trkpt lat="47.85561" lon="7.17495">
        <ele>680.59997558594</ele>
        <time>2023-05-21T08:17:37.000Z</time>
      </trkpt>
      <trkpt lat="47.85563" lon="7.17501">
        <ele>681</ele>
        <time>2023-05-21T08:17:38.000Z</time>
      </trkpt>
      <trkpt lat="47.85566" lon="7.17508">
        <ele>681.40002441406</ele>
        <time>2023-05-21T08:17:39.000Z</time>
      </trkpt>
      <trkpt lat="47.85567" lon="7.17512">
        <ele>681.79998779297</ele>
        <time>2023-05-21T08:17:40.000Z</time>
      </trkpt>
      <trkpt lat="47.85569" lon="7.17517">
        <ele>682.40002441406</ele>
        <time>2023-05-21T08:17:41.000Z</time>
      </trkpt>
      <trkpt lat="47.8557" lon="7.17521">
        <ele>682.79998779297</ele>
        <time>2023-05-21T08:17:42.000Z</time>
      </trkpt>
      <trkpt lat="47.85573" lon="7.17527">
        <ele>683.20001220703</ele>
        <time>2023-05-21T08:17:43.000Z</time>
      </trkpt>
      <trkpt lat="47.85574" lon="7.17533">
        <ele>683.59997558594</ele>
        <time>2023-05-21T08:17:44.000Z</time>
      </trkpt>
      <trkpt lat="47.85575" lon="7.17536">
        <ele>684</ele>
        <time>2023-05-21T08:17:45.000Z</time>
      </trkpt>
      <trkpt lat="47.85577" lon="7.17542">
        <ele>684.40002441406</ele>
        <time>2023-05-21T08:17:46.000Z</time>
      </trkpt>
      <trkpt lat="47.85582" lon="7.1755">
        <ele>684.40002441406</ele>
        <time>2023-05-21T08:17:47.000Z</time>
      </trkpt>
      <trkpt lat="47.85585" lon="7.17559">
        <ele>684.79998779297</ele>
        <time>2023-05-21T08:17:49.000Z</time>
      </trkpt>
      <trkpt lat="47.85586" lon="7.17563">
        <ele>685.20001220703</ele>
        <time>2023-05-21T08:17:50.000Z</time>
      </trkpt>
      <trkpt lat="47.85589" lon="7.17568">
        <ele>686</ele>
        <time>2023-05-21T08:17:51.000Z</time>
      </trkpt>
      <trkpt lat="47.85591" lon="7.17572">
        <ele>686.40002441406</ele>
        <time>2023-05-21T08:17:52.000Z</time>
      </trkpt>
      <trkpt lat="47.85594" lon="7.17579">
        <ele>686.79998779297</ele>
        <time>2023-05-21T08:17:54.000Z</time>
      </trkpt>
      <trkpt lat="47.85597" lon="7.17583">
        <ele>687.20001220703</ele>
        <time>2023-05-21T08:17:55.000Z</time>
      </trkpt>
      <trkpt lat="47.85598" lon="7.17586">
        <ele>687.79998779297</ele>
        <time>2023-05-21T08:17:56.000Z</time>
      </trkpt>
      <trkpt lat="47.85601" lon="7.17589">
        <ele>688.20001220703</ele>
        <time>2023-05-21T08:17:57.000Z</time>
      </trkpt>
      <trkpt lat="47.85604" lon="7.17591">
        <ele>688.59997558594</ele>
        <time>2023-05-21T08:17:58.000Z</time>
      </trkpt>
      <trkpt lat="47.85606" lon="7.17594">
        <ele>688.59997558594</ele>
        <time>2023-05-21T08:17:59.000Z</time>
      </trkpt>
      <trkpt lat="47.85607" lon="7.17597">
        <ele>689</ele>
        <time>2023-05-21T08:18:00.000Z</time>
      </trkpt>
      <trkpt lat="47.85608" lon="7.176">
        <ele>689.40002441406</ele>
        <time>2023-05-21T08:18:01.000Z</time>
      </trkpt>
      <trkpt lat="47.8561" lon="7.17606">
        <ele>690</ele>
        <time>2023-05-21T08:18:02.000Z</time>
      </trkpt>
      <trkpt lat="47.85613" lon="7.1761">
        <ele>690.40002441406</ele>
        <time>2023-05-21T08:18:03.000Z</time>
      </trkpt>
      <trkpt lat="47.85614" lon="7.17614">
        <ele>690.79998779297</ele>
        <time>2023-05-21T08:18:04.000Z</time>
      </trkpt>
      <trkpt lat="47.85617" lon="7.1762">
        <ele>690.79998779297</ele>
        <time>2023-05-21T08:18:06.000Z</time>
      </trkpt>
      <trkpt lat="47.85618" lon="7.17623">
        <ele>691.20001220703</ele>
        <time>2023-05-21T08:18:07.000Z</time>
      </trkpt>
      <trkpt lat="47.8562" lon="7.17625">
        <ele>691.59997558594</ele>
        <time>2023-05-21T08:18:08.000Z</time>
      </trkpt>
      <trkpt lat="47.85621" lon="7.17628">
        <ele>692</ele>
        <time>2023-05-21T08:18:09.000Z</time>
      </trkpt>
      <trkpt lat="47.85623" lon="7.1763">
        <ele>692.59997558594</ele>
        <time>2023-05-21T08:18:10.000Z</time>
      </trkpt>
      <trkpt lat="47.85625" lon="7.17633">
        <ele>693</ele>
        <time>2023-05-21T08:18:11.000Z</time>
      </trkpt>
      <trkpt lat="47.85629" lon="7.17642">
        <ele>693.40002441406</ele>
        <time>2023-05-21T08:18:14.000Z</time>
      </trkpt>
      <trkpt lat="47.8563" lon="7.17645">
        <ele>693.79998779297</ele>
        <time>2023-05-21T08:18:15.000Z</time>
      </trkpt>
      <trkpt lat="47.85631" lon="7.17647">
        <ele>694.79998779297</ele>
        <time>2023-05-21T08:18:16.000Z</time>
      </trkpt>
      <trkpt lat="47.85632" lon="7.1765">
        <ele>695.20001220703</ele>
        <time>2023-05-21T08:18:17.000Z</time>
      </trkpt>
      <trkpt lat="47.85633" lon="7.17653">
        <ele>695.20001220703</ele>
        <time>2023-05-21T08:18:18.000Z</time>
      </trkpt>
      <trkpt lat="47.85635" lon="7.17656">
        <ele>695.20001220703</ele>
        <time>2023-05-21T08:18:20.000Z</time>
      </trkpt>
      <trkpt lat="47.85637" lon="7.1766">
        <ele>695.59997558594</ele>
        <time>2023-05-21T08:18:22.000Z</time>
      </trkpt>
      <trkpt lat="47.85639" lon="7.17662">
        <ele>696</ele>
        <time>2023-05-21T08:18:23.000Z</time>
      </trkpt>
      <trkpt lat="47.8564" lon="7.17664">
        <ele>696.40002441406</ele>
        <time>2023-05-21T08:18:24.000Z</time>
      </trkpt>
      <trkpt lat="47.85642" lon="7.17666">
        <ele>697</ele>
        <time>2023-05-21T08:18:25.000Z</time>
      </trkpt>
      <trkpt lat="47.85644" lon="7.17668">
        <ele>697.40002441406</ele>
        <time>2023-05-21T08:18:26.000Z</time>
      </trkpt>
      <trkpt lat="47.85649" lon="7.17674">
        <ele>697.40002441406</ele>
        <time>2023-05-21T08:18:29.000Z</time>
      </trkpt>
      <trkpt lat="47.85656" lon="7.17681">
        <ele>697.79998779297</ele>
        <time>2023-05-21T08:18:33.000Z</time>
      </trkpt>
      <trkpt lat="47.85658" lon="7.17683">
        <ele>698.20001220703</ele>
        <time>2023-05-21T08:18:34.000Z</time>
      </trkpt>
      <trkpt lat="47.8566" lon="7.17684">
        <ele>698.59997558594</ele>
        <time>2023-05-21T08:18:35.000Z</time>
      </trkpt>
      <trkpt lat="47.85662" lon="7.17686">
        <ele>699</ele>
        <time>2023-05-21T08:18:36.000Z</time>
      </trkpt>
      <trkpt lat="47.85664" lon="7.17687">
        <ele>699.40002441406</ele>
        <time>2023-05-21T08:18:37.000Z</time>
      </trkpt>
      <trkpt lat="47.8567" lon="7.17693">
        <ele>699.79998779297</ele>
        <time>2023-05-21T08:18:41.000Z</time>
      </trkpt>
      <trkpt lat="47.85672" lon="7.17694">
        <ele>700.59997558594</ele>
        <time>2023-05-21T08:18:42.000Z</time>
      </trkpt>
      <trkpt lat="47.85674" lon="7.17695">
        <ele>701.20001220703</ele>
        <time>2023-05-21T08:18:43.000Z</time>
      </trkpt>
      <trkpt lat="47.85676" lon="7.17696">
        <ele>701.59997558594</ele>
        <time>2023-05-21T08:18:44.000Z</time>
      </trkpt>
      <trkpt lat="47.85682" lon="7.17702">
        <ele>702</ele>
        <time>2023-05-21T08:18:48.000Z</time>
      </trkpt>
      <trkpt lat="47.85684" lon="7.17704">
        <ele>702.40002441406</ele>
        <time>2023-05-21T08:18:49.000Z</time>
      </trkpt>
      <trkpt lat="47.85685" lon="7.17707">
        <ele>702.79998779297</ele>
        <time>2023-05-21T08:18:50.000Z</time>
      </trkpt>
      <trkpt lat="47.85687" lon="7.17708">
        <ele>703.20001220703</ele>
        <time>2023-05-21T08:18:51.000Z</time>
      </trkpt>
      <trkpt lat="47.85689" lon="7.17709">
        <ele>703.59997558594</ele>
        <time>2023-05-21T08:18:52.000Z</time>
      </trkpt>
      <trkpt lat="47.85698" lon="7.17713">
        <ele>703.59997558594</ele>
        <time>2023-05-21T08:18:56.000Z</time>
      </trkpt>
      <trkpt lat="47.85703" lon="7.17716">
        <ele>704</ele>
        <time>2023-05-21T08:18:58.000Z</time>
      </trkpt>
      <trkpt lat="47.85705" lon="7.17718">
        <ele>704.40002441406</ele>
        <time>2023-05-21T08:18:59.000Z</time>
      </trkpt>
      <trkpt lat="47.85708" lon="7.17719">
        <ele>704.79998779297</ele>
        <time>2023-05-21T08:19:00.000Z</time>
      </trkpt>
      <trkpt lat="47.85711" lon="7.1772">
        <ele>705.20001220703</ele>
        <time>2023-05-21T08:19:01.000Z</time>
      </trkpt>
      <trkpt lat="47.85713" lon="7.17721">
        <ele>705.59997558594</ele>
        <time>2023-05-21T08:19:02.000Z</time>
      </trkpt>
      <trkpt lat="47.85723" lon="7.17721">
        <ele>706</ele>
        <time>2023-05-21T08:19:07.000Z</time>
      </trkpt>
      <trkpt lat="47.85724" lon="7.17721">
        <ele>706.59997558594</ele>
        <time>2023-05-21T08:19:08.000Z</time>
      </trkpt>
      <trkpt lat="47.85726" lon="7.17721">
        <ele>707</ele>
        <time>2023-05-21T08:19:09.000Z</time>
      </trkpt>
      <trkpt lat="47.85728" lon="7.1772">
        <ele>707.40002441406</ele>
        <time>2023-05-21T08:19:10.000Z</time>
      </trkpt>
      <trkpt lat="47.8573" lon="7.1772">
        <ele>707.79998779297</ele>
        <time>2023-05-21T08:19:11.000Z</time>
      </trkpt>
      <trkpt lat="47.85735" lon="7.1772">
        <ele>707.79998779297</ele>
        <time>2023-05-21T08:19:13.000Z</time>
      </trkpt>
      <trkpt lat="47.85742" lon="7.17717">
        <ele>708.20001220703</ele>
        <time>2023-05-21T08:19:16.000Z</time>
      </trkpt>
      <trkpt lat="47.85744" lon="7.17717">
        <ele>708.59997558594</ele>
        <time>2023-05-21T08:19:17.000Z</time>
      </trkpt>
      <trkpt lat="47.85746" lon="7.17716">
        <ele>709.20001220703</ele>
        <time>2023-05-21T08:19:18.000Z</time>
      </trkpt>
      <trkpt lat="47.85748" lon="7.17715">
        <ele>709.59997558594</ele>
        <time>2023-05-21T08:19:19.000Z</time>
      </trkpt>
      <trkpt lat="47.85749" lon="7.17714">
        <ele>710</ele>
        <time>2023-05-21T08:19:20.000Z</time>
      </trkpt>
      <trkpt lat="47.85754" lon="7.1771">
        <ele>710.40002441406</ele>
        <time>2023-05-21T08:19:23.000Z</time>
      </trkpt>
      <trkpt lat="47.85756" lon="7.17708">
        <ele>710.79998779297</ele>
        <time>2023-05-21T08:19:24.000Z</time>
      </trkpt>
      <trkpt lat="47.85758" lon="7.17707">
        <ele>711.20001220703</ele>
        <time>2023-05-21T08:19:25.000Z</time>
      </trkpt>
      <trkpt lat="47.8576" lon="7.17706">
        <ele>711.59997558594</ele>
        <time>2023-05-21T08:19:26.000Z</time>
      </trkpt>
      <trkpt lat="47.85761" lon="7.17706">
        <ele>712</ele>
        <time>2023-05-21T08:19:27.000Z</time>
      </trkpt>
      <trkpt lat="47.85761" lon="7.17708">
        <ele>712</ele>
        <time>2023-05-21T08:19:28.000Z</time>
      </trkpt>
      <trkpt lat="47.85763" lon="7.17713">
        <ele>712</ele>
        <time>2023-05-21T08:19:30.000Z</time>
      </trkpt>
      <trkpt lat="47.85764" lon="7.17714">
        <ele>712</ele>
        <time>2023-05-21T08:19:31.000Z</time>
      </trkpt>
      <trkpt lat="47.85765" lon="7.17713">
        <ele>712</ele>
        <time>2023-05-21T08:19:49.000Z</time>
      </trkpt>
      <trkpt lat="47.85766" lon="7.17709">
        <ele>712</ele>
        <time>2023-05-21T08:19:51.000Z</time>
      </trkpt>
      <trkpt lat="47.85774" lon="7.17701">
        <ele>712</ele>
        <time>2023-05-21T08:19:56.000Z</time>
      </trkpt>
      <trkpt lat="47.85775" lon="7.17699">
        <ele>712.40002441406</ele>
        <time>2023-05-21T08:19:57.000Z</time>
      </trkpt>
      <trkpt lat="47.85777" lon="7.17697">
        <ele>712.79998779297</ele>
        <time>2023-05-21T08:19:58.000Z</time>
      </trkpt>
      <trkpt lat="47.85779" lon="7.17696">
        <ele>713.20001220703</ele>
        <time>2023-05-21T08:19:59.000Z</time>
      </trkpt>
      <trkpt lat="47.8578" lon="7.17695">
        <ele>713.59997558594</ele>
        <time>2023-05-21T08:20:00.000Z</time>
      </trkpt>
      <trkpt lat="47.85782" lon="7.17694">
        <ele>714</ele>
        <time>2023-05-21T08:20:01.000Z</time>
      </trkpt>
      <trkpt lat="47.85784" lon="7.17694">
        <ele>714</ele>
        <time>2023-05-21T08:20:02.000Z</time>
      </trkpt>
      <trkpt lat="47.85787" lon="7.17693">
        <ele>714</ele>
        <time>2023-05-21T08:20:03.000Z</time>
      </trkpt>
      <trkpt lat="47.85793" lon="7.17691">
        <ele>714.40002441406</ele>
        <time>2023-05-21T08:20:06.000Z</time>
      </trkpt>
      <trkpt lat="47.85796" lon="7.17691">
        <ele>714.79998779297</ele>
        <time>2023-05-21T08:20:07.000Z</time>
      </trkpt>
      <trkpt lat="47.85798" lon="7.17691">
        <ele>715.40002441406</ele>
        <time>2023-05-21T08:20:08.000Z</time>
      </trkpt>
      <trkpt lat="47.858" lon="7.17691">
        <ele>715.79998779297</ele>
        <time>2023-05-21T08:20:09.000Z</time>
      </trkpt>
      <trkpt lat="47.85802" lon="7.17692">
        <ele>716.20001220703</ele>
        <time>2023-05-21T08:20:10.000Z</time>
      </trkpt>
      <trkpt lat="47.8581" lon="7.17692">
        <ele>716.59997558594</ele>
        <time>2023-05-21T08:20:13.000Z</time>
      </trkpt>
      <trkpt lat="47.85812" lon="7.17692">
        <ele>717</ele>
        <time>2023-05-21T08:20:14.000Z</time>
      </trkpt>
      <trkpt lat="47.85815" lon="7.17693">
        <ele>717.40002441406</ele>
        <time>2023-05-21T08:20:15.000Z</time>
      </trkpt>
      <trkpt lat="47.85817" lon="7.17694">
        <ele>717.79998779297</ele>
        <time>2023-05-21T08:20:16.000Z</time>
      </trkpt>
      <trkpt lat="47.8582" lon="7.17694">
        <ele>718.40002441406</ele>
        <time>2023-05-21T08:20:17.000Z</time>
      </trkpt>
      <trkpt lat="47.85826" lon="7.17694">
        <ele>719.20001220703</ele>
        <time>2023-05-21T08:20:20.000Z</time>
      </trkpt>
      <trkpt lat="47.85828" lon="7.17694">
        <ele>719.59997558594</ele>
        <time>2023-05-21T08:20:21.000Z</time>
      </trkpt>
      <trkpt lat="47.85831" lon="7.17693">
        <ele>720</ele>
        <time>2023-05-21T08:20:22.000Z</time>
      </trkpt>
      <trkpt lat="47.85833" lon="7.17693">
        <ele>720.40002441406</ele>
        <time>2023-05-21T08:20:23.000Z</time>
      </trkpt>
      <trkpt lat="47.85842" lon="7.17694">
        <ele>720.79998779297</ele>
        <time>2023-05-21T08:20:27.000Z</time>
      </trkpt>
      <trkpt lat="47.85845" lon="7.17694">
        <ele>721.20001220703</ele>
        <time>2023-05-21T08:20:28.000Z</time>
      </trkpt>
      <trkpt lat="47.85847" lon="7.17694">
        <ele>721.59997558594</ele>
        <time>2023-05-21T08:20:29.000Z</time>
      </trkpt>
      <trkpt lat="47.8585" lon="7.17694">
        <ele>722.20001220703</ele>
        <time>2023-05-21T08:20:30.000Z</time>
      </trkpt>
      <trkpt lat="47.85853" lon="7.17694">
        <ele>722.59997558594</ele>
        <time>2023-05-21T08:20:31.000Z</time>
      </trkpt>
      <trkpt lat="47.85861" lon="7.17693">
        <ele>722.59997558594</ele>
        <time>2023-05-21T08:20:35.000Z</time>
      </trkpt>
      <trkpt lat="47.85863" lon="7.17693">
        <ele>723</ele>
        <time>2023-05-21T08:20:36.000Z</time>
      </trkpt>
      <trkpt lat="47.85866" lon="7.17692">
        <ele>723.40002441406</ele>
        <time>2023-05-21T08:20:37.000Z</time>
      </trkpt>
      <trkpt lat="47.85868" lon="7.17693">
        <ele>723.79998779297</ele>
        <time>2023-05-21T08:20:38.000Z</time>
      </trkpt>
      <trkpt lat="47.8587" lon="7.17693">
        <ele>724.20001220703</ele>
        <time>2023-05-21T08:20:39.000Z</time>
      </trkpt>
      <trkpt lat="47.85872" lon="7.17693">
        <ele>724.79998779297</ele>
        <time>2023-05-21T08:20:40.000Z</time>
      </trkpt>
      <trkpt lat="47.85876" lon="7.17692">
        <ele>724.79998779297</ele>
        <time>2023-05-21T08:20:42.000Z</time>
      </trkpt>
      <trkpt lat="47.85881" lon="7.17691">
        <ele>725.20001220703</ele>
        <time>2023-05-21T08:20:44.000Z</time>
      </trkpt>
      <trkpt lat="47.85884" lon="7.17691">
        <ele>726</ele>
        <time>2023-05-21T08:20:45.000Z</time>
      </trkpt>
      <trkpt lat="47.85886" lon="7.1769">
        <ele>726.59997558594</ele>
        <time>2023-05-21T08:20:46.000Z</time>
      </trkpt>
      <trkpt lat="47.85889" lon="7.17689">
        <ele>727</ele>
        <time>2023-05-21T08:20:47.000Z</time>
      </trkpt>
      <trkpt lat="47.8589" lon="7.17689">
        <ele>727</ele>
        <time>2023-05-21T08:20:48.000Z</time>
      </trkpt>
      <trkpt lat="47.85895" lon="7.17686">
        <ele>727.40002441406</ele>
        <time>2023-05-21T08:20:50.000Z</time>
      </trkpt>
      <trkpt lat="47.85897" lon="7.17684">
        <ele>727.79998779297</ele>
        <time>2023-05-21T08:20:51.000Z</time>
      </trkpt>
      <trkpt lat="47.859" lon="7.17682">
        <ele>728.20001220703</ele>
        <time>2023-05-21T08:20:52.000Z</time>
      </trkpt>
      <trkpt lat="47.85902" lon="7.17681">
        <ele>728.59997558594</ele>
        <time>2023-05-21T08:20:53.000Z</time>
      </trkpt>
      <trkpt lat="47.85904" lon="7.17679">
        <ele>729</ele>
        <time>2023-05-21T08:20:54.000Z</time>
      </trkpt>
      <trkpt lat="47.85909" lon="7.17676">
        <ele>729.40002441406</ele>
        <time>2023-05-21T08:20:57.000Z</time>
      </trkpt>
      <trkpt lat="47.8591" lon="7.17675">
        <ele>730</ele>
        <time>2023-05-21T08:20:58.000Z</time>
      </trkpt>
      <trkpt lat="47.85911" lon="7.17674">
        <ele>730.40002441406</ele>
        <time>2023-05-21T08:20:59.000Z</time>
      </trkpt>
      <trkpt lat="47.85912" lon="7.17673">
        <ele>730.79998779297</ele>
        <time>2023-05-21T08:21:00.000Z</time>
      </trkpt>
      <trkpt lat="47.85914" lon="7.17672">
        <ele>731.20001220703</ele>
        <time>2023-05-21T08:21:01.000Z</time>
      </trkpt>
      <trkpt lat="47.85919" lon="7.1767">
        <ele>731.20001220703</ele>
        <time>2023-05-21T08:21:04.000Z</time>
      </trkpt>
      <trkpt lat="47.85934" lon="7.17657">
        <ele>731.20001220703</ele>
        <time>2023-05-21T08:21:09.000Z</time>
      </trkpt>
      <trkpt lat="47.85947" lon="7.17646">
        <ele>731.20001220703</ele>
        <time>2023-05-21T08:21:12.000Z</time>
      </trkpt>
      <trkpt lat="47.85955" lon="7.17636">
        <ele>730.79998779297</ele>
        <time>2023-05-21T08:21:14.000Z</time>
      </trkpt>
      <trkpt lat="47.8596" lon="7.17632">
        <ele>730.40002441406</ele>
        <time>2023-05-21T08:21:15.000Z</time>
      </trkpt>
      <trkpt lat="47.85965" lon="7.17628">
        <ele>730</ele>
        <time>2023-05-21T08:21:16.000Z</time>
      </trkpt>
      <trkpt lat="47.8597" lon="7.17623">
        <ele>729.59997558594</ele>
        <time>2023-05-21T08:21:17.000Z</time>
      </trkpt>
      <trkpt lat="47.85974" lon="7.17619">
        <ele>729.20001220703</ele>
        <time>2023-05-21T08:21:18.000Z</time>
      </trkpt>
      <trkpt lat="47.85979" lon="7.17615">
        <ele>728.79998779297</ele>
        <time>2023-05-21T08:21:19.000Z</time>
      </trkpt>
      <trkpt lat="47.85983" lon="7.1761">
        <ele>728.20001220703</ele>
        <time>2023-05-21T08:21:20.000Z</time>
      </trkpt>
      <trkpt lat="47.85987" lon="7.17604">
        <ele>727.79998779297</ele>
        <time>2023-05-21T08:21:21.000Z</time>
      </trkpt>
      <trkpt lat="47.85992" lon="7.17598">
        <ele>727.40002441406</ele>
        <time>2023-05-21T08:21:22.000Z</time>
      </trkpt>
      <trkpt lat="47.85997" lon="7.17592">
        <ele>726.79998779297</ele>
        <time>2023-05-21T08:21:23.000Z</time>
      </trkpt>
      <trkpt lat="47.86002" lon="7.17586">
        <ele>726.40002441406</ele>
        <time>2023-05-21T08:21:24.000Z</time>
      </trkpt>
      <trkpt lat="47.86008" lon="7.17578">
        <ele>726</ele>
        <time>2023-05-21T08:21:25.000Z</time>
      </trkpt>
      <trkpt lat="47.86014" lon="7.17571">
        <ele>725.59997558594</ele>
        <time>2023-05-21T08:21:26.000Z</time>
      </trkpt>
      <trkpt lat="47.8602" lon="7.17563">
        <ele>725</ele>
        <time>2023-05-21T08:21:27.000Z</time>
      </trkpt>
      <trkpt lat="47.86026" lon="7.17556">
        <ele>724.40002441406</ele>
        <time>2023-05-21T08:21:28.000Z</time>
      </trkpt>
      <trkpt lat="47.86032" lon="7.17548">
        <ele>723.79998779297</ele>
        <time>2023-05-21T08:21:29.000Z</time>
      </trkpt>
      <trkpt lat="47.86039" lon="7.17541">
        <ele>723.20001220703</ele>
        <time>2023-05-21T08:21:30.000Z</time>
      </trkpt>
      <trkpt lat="47.86046" lon="7.17533">
        <ele>722.59997558594</ele>
        <time>2023-05-21T08:21:31.000Z</time>
      </trkpt>
      <trkpt lat="47.86053" lon="7.17525">
        <ele>721.79998779297</ele>
        <time>2023-05-21T08:21:32.000Z</time>
      </trkpt>
      <trkpt lat="47.8606" lon="7.17516">
        <ele>721.20001220703</ele>
        <time>2023-05-21T08:21:33.000Z</time>
      </trkpt>
      <trkpt lat="47.86067" lon="7.17507">
        <ele>719.79998779297</ele>
        <time>2023-05-21T08:21:34.000Z</time>
      </trkpt>
      <trkpt lat="47.86073" lon="7.17499">
        <ele>719</ele>
        <time>2023-05-21T08:21:35.000Z</time>
      </trkpt>
      <trkpt lat="47.8608" lon="7.17491">
        <ele>718.20001220703</ele>
        <time>2023-05-21T08:21:36.000Z</time>
      </trkpt>
      <trkpt lat="47.86086" lon="7.17483">
        <ele>717.59997558594</ele>
        <time>2023-05-21T08:21:37.000Z</time>
      </trkpt>
      <trkpt lat="47.86094" lon="7.17475">
        <ele>717</ele>
        <time>2023-05-21T08:21:38.000Z</time>
      </trkpt>
      <trkpt lat="47.86101" lon="7.17467">
        <ele>716.59997558594</ele>
        <time>2023-05-21T08:21:39.000Z</time>
      </trkpt>
      <trkpt lat="47.86109" lon="7.17459">
        <ele>716.20001220703</ele>
        <time>2023-05-21T08:21:40.000Z</time>
      </trkpt>
      <trkpt lat="47.86118" lon="7.17451">
        <ele>715.79998779297</ele>
        <time>2023-05-21T08:21:41.000Z</time>
      </trkpt>
      <trkpt lat="47.86126" lon="7.17444">
        <ele>715.20001220703</ele>
        <time>2023-05-21T08:21:42.000Z</time>
      </trkpt>
      <trkpt lat="47.86135" lon="7.17437">
        <ele>714.59997558594</ele>
        <time>2023-05-21T08:21:43.000Z</time>
      </trkpt>
      <trkpt lat="47.86142" lon="7.17431">
        <ele>714</ele>
        <time>2023-05-21T08:21:44.000Z</time>
      </trkpt>
      <trkpt lat="47.86149" lon="7.17427">
        <ele>713.40002441406</ele>
        <time>2023-05-21T08:21:45.000Z</time>
      </trkpt>
      <trkpt lat="47.86155" lon="7.17424">
        <ele>712.79998779297</ele>
        <time>2023-05-21T08:21:46.000Z</time>
      </trkpt>
      <trkpt lat="47.86162" lon="7.17422">
        <ele>712.40002441406</ele>
        <time>2023-05-21T08:21:47.000Z</time>
      </trkpt>
      <trkpt lat="47.86167" lon="7.1742">
        <ele>711.79998779297</ele>
        <time>2023-05-21T08:21:48.000Z</time>
      </trkpt>
      <trkpt lat="47.86171" lon="7.17419">
        <ele>711.20001220703</ele>
        <time>2023-05-21T08:21:49.000Z</time>
      </trkpt>
      <trkpt lat="47.86176" lon="7.17418">
        <ele>710.59997558594</ele>
        <time>2023-05-21T08:21:50.000Z</time>
      </trkpt>
      <trkpt lat="47.8618" lon="7.17417">
        <ele>710.20001220703</ele>
        <time>2023-05-21T08:21:51.000Z</time>
      </trkpt>
      <trkpt lat="47.86184" lon="7.17416">
        <ele>709.59997558594</ele>
        <time>2023-05-21T08:21:52.000Z</time>
      </trkpt>
      <trkpt lat="47.8619" lon="7.17414">
        <ele>709.20001220703</ele>
        <time>2023-05-21T08:21:53.000Z</time>
      </trkpt>
      <trkpt lat="47.86196" lon="7.17414">
        <ele>708.59997558594</ele>
        <time>2023-05-21T08:21:54.000Z</time>
      </trkpt>
      <trkpt lat="47.86202" lon="7.17413">
        <ele>708.20001220703</ele>
        <time>2023-05-21T08:21:55.000Z</time>
      </trkpt>
      <trkpt lat="47.86209" lon="7.17415">
        <ele>707.79998779297</ele>
        <time>2023-05-21T08:21:56.000Z</time>
      </trkpt>
      <trkpt lat="47.86215" lon="7.17418">
        <ele>707.20001220703</ele>
        <time>2023-05-21T08:21:57.000Z</time>
      </trkpt>
      <trkpt lat="47.8622" lon="7.17425">
        <ele>706.20001220703</ele>
        <time>2023-05-21T08:21:58.000Z</time>
      </trkpt>
      <trkpt lat="47.86224" lon="7.17434">
        <ele>705.40002441406</ele>
        <time>2023-05-21T08:21:59.000Z</time>
      </trkpt>
      <trkpt lat="47.86227" lon="7.17444">
        <ele>704.59997558594</ele>
        <time>2023-05-21T08:22:00.000Z</time>
      </trkpt>
      <trkpt lat="47.8623" lon="7.17454">
        <ele>703.79998779297</ele>
        <time>2023-05-21T08:22:01.000Z</time>
      </trkpt>
      <trkpt lat="47.86234" lon="7.17463">
        <ele>703</ele>
        <time>2023-05-21T08:22:02.000Z</time>
      </trkpt>
      <trkpt lat="47.86238" lon="7.17474">
        <ele>702.20001220703</ele>
        <time>2023-05-21T08:22:03.000Z</time>
      </trkpt>
      <trkpt lat="47.86242" lon="7.17486">
        <ele>701.20001220703</ele>
        <time>2023-05-21T08:22:04.000Z</time>
      </trkpt>
      <trkpt lat="47.86246" lon="7.17496">
        <ele>700.40002441406</ele>
        <time>2023-05-21T08:22:05.000Z</time>
      </trkpt>
      <trkpt lat="47.86249" lon="7.17505">
        <ele>699.40002441406</ele>
        <time>2023-05-21T08:22:06.000Z</time>
      </trkpt>
      <trkpt lat="47.86253" lon="7.17511">
        <ele>698.59997558594</ele>
        <time>2023-05-21T08:22:07.000Z</time>
      </trkpt>
      <trkpt lat="47.86257" lon="7.17517">
        <ele>697.59997558594</ele>
        <time>2023-05-21T08:22:08.000Z</time>
      </trkpt>
      <trkpt lat="47.86261" lon="7.17522">
        <ele>696.59997558594</ele>
        <time>2023-05-21T08:22:09.000Z</time>
      </trkpt>
      <trkpt lat="47.86264" lon="7.17524">
        <ele>696</ele>
        <time>2023-05-21T08:22:10.000Z</time>
      </trkpt>
      <trkpt lat="47.86266" lon="7.17525">
        <ele>695.40002441406</ele>
        <time>2023-05-21T08:22:11.000Z</time>
      </trkpt>
      <trkpt lat="47.86268" lon="7.17527">
        <ele>694.79998779297</ele>
        <time>2023-05-21T08:22:12.000Z</time>
      </trkpt>
      <trkpt lat="47.86269" lon="7.17527">
        <ele>694.20001220703</ele>
        <time>2023-05-21T08:22:13.000Z</time>
      </trkpt>
      <trkpt lat="47.8627" lon="7.17527">
        <ele>693.59997558594</ele>
        <time>2023-05-21T08:22:14.000Z</time>
      </trkpt>
      <trkpt lat="47.8627" lon="7.17527">
        <ele>693.59997558594</ele>
        <time>2023-05-21T08:22:17.000Z</time>
      </trkpt>
      <trkpt lat="47.86269" lon="7.17537">
        <ele>693.59997558594</ele>
        <time>2023-05-21T08:29:03.000Z</time>
      </trkpt>
      <trkpt lat="47.86273" lon="7.17544">
        <ele>693.59997558594</ele>
        <time>2023-05-21T08:29:05.000Z</time>
      </trkpt>
      <trkpt lat="47.86278" lon="7.17554">
        <ele>693.59997558594</ele>
        <time>2023-05-21T08:29:08.000Z</time>
      </trkpt>
      <trkpt lat="47.8628" lon="7.17556">
        <ele>693.59997558594</ele>
        <time>2023-05-21T08:29:09.000Z</time>
      </trkpt>
      <trkpt lat="47.86283" lon="7.17561">
        <ele>694</ele>
        <time>2023-05-21T08:29:11.000Z</time>
      </trkpt>
      <trkpt lat="47.86285" lon="7.17564">
        <ele>694.40002441406</ele>
        <time>2023-05-21T08:29:12.000Z</time>
      </trkpt>
      <trkpt lat="47.86286" lon="7.17566">
        <ele>694.79998779297</ele>
        <time>2023-05-21T08:29:13.000Z</time>
      </trkpt>
      <trkpt lat="47.86288" lon="7.17569">
        <ele>695.40002441406</ele>
        <time>2023-05-21T08:29:14.000Z</time>
      </trkpt>
      <trkpt lat="47.86291" lon="7.17571">
        <ele>695.79998779297</ele>
        <time>2023-05-21T08:29:15.000Z</time>
      </trkpt>
      <trkpt lat="47.86295" lon="7.17576">
        <ele>696.20001220703</ele>
        <time>2023-05-21T08:29:17.000Z</time>
      </trkpt>
      <trkpt lat="47.86298" lon="7.17578">
        <ele>696.79998779297</ele>
        <time>2023-05-21T08:29:18.000Z</time>
      </trkpt>
      <trkpt lat="47.863" lon="7.1758">
        <ele>697.20001220703</ele>
        <time>2023-05-21T08:29:19.000Z</time>
      </trkpt>
      <trkpt lat="47.86302" lon="7.17582">
        <ele>697.59997558594</ele>
        <time>2023-05-21T08:29:20.000Z</time>
      </trkpt>
      <trkpt lat="47.86304" lon="7.17586">
        <ele>698.20001220703</ele>
        <time>2023-05-21T08:29:21.000Z</time>
      </trkpt>
      <trkpt lat="47.86309" lon="7.17591">
        <ele>699</ele>
        <time>2023-05-21T08:29:23.000Z</time>
      </trkpt>
      <trkpt lat="47.86312" lon="7.17594">
        <ele>699.40002441406</ele>
        <time>2023-05-21T08:29:24.000Z</time>
      </trkpt>
      <trkpt lat="47.86314" lon="7.17597">
        <ele>699.79998779297</ele>
        <time>2023-05-21T08:29:25.000Z</time>
      </trkpt>
      <trkpt lat="47.86317" lon="7.176">
        <ele>700.20001220703</ele>
        <time>2023-05-21T08:29:26.000Z</time>
      </trkpt>
      <trkpt lat="47.86319" lon="7.17602">
        <ele>700.20001220703</ele>
        <time>2023-05-21T08:29:27.000Z</time>
      </trkpt>
      <trkpt lat="47.86325" lon="7.17611">
        <ele>700.59997558594</ele>
        <time>2023-05-21T08:29:30.000Z</time>
      </trkpt>
      <trkpt lat="47.86327" lon="7.17614">
        <ele>701</ele>
        <time>2023-05-21T08:29:31.000Z</time>
      </trkpt>
      <trkpt lat="47.86329" lon="7.17616">
        <ele>701.40002441406</ele>
        <time>2023-05-21T08:29:32.000Z</time>
      </trkpt>
      <trkpt lat="47.86331" lon="7.17619">
        <ele>701.79998779297</ele>
        <time>2023-05-21T08:29:33.000Z</time>
      </trkpt>
      <trkpt lat="47.86333" lon="7.17621">
        <ele>702.20001220703</ele>
        <time>2023-05-21T08:29:34.000Z</time>
      </trkpt>
      <trkpt lat="47.86338" lon="7.17626">
        <ele>702.79998779297</ele>
        <time>2023-05-21T08:29:37.000Z</time>
      </trkpt>
      <trkpt lat="47.8634" lon="7.17627">
        <ele>703.20001220703</ele>
        <time>2023-05-21T08:29:38.000Z</time>
      </trkpt>
      <trkpt lat="47.86342" lon="7.17628">
        <ele>703.59997558594</ele>
        <time>2023-05-21T08:29:39.000Z</time>
      </trkpt>
      <trkpt lat="47.86344" lon="7.17629">
        <ele>704.20001220703</ele>
        <time>2023-05-21T08:29:40.000Z</time>
      </trkpt>
      <trkpt lat="47.86346" lon="7.1763">
        <ele>704.59997558594</ele>
        <time>2023-05-21T08:29:41.000Z</time>
      </trkpt>
      <trkpt lat="47.86351" lon="7.1763">
        <ele>704.59997558594</ele>
        <time>2023-05-21T08:29:43.000Z</time>
      </trkpt>
      <trkpt lat="47.86355" lon="7.1763">
        <ele>705</ele>
        <time>2023-05-21T08:29:44.000Z</time>
      </trkpt>
      <trkpt lat="47.86358" lon="7.1763">
        <ele>705.40002441406</ele>
        <time>2023-05-21T08:29:45.000Z</time>
      </trkpt>
      <trkpt lat="47.86362" lon="7.1763">
        <ele>705.79998779297</ele>
        <time>2023-05-21T08:29:46.000Z</time>
      </trkpt>
      <trkpt lat="47.86365" lon="7.17629">
        <ele>706.20001220703</ele>
        <time>2023-05-21T08:29:47.000Z</time>
      </trkpt>
      <trkpt lat="47.86368" lon="7.17629">
        <ele>706.59997558594</ele>
        <time>2023-05-21T08:29:48.000Z</time>
      </trkpt>
      <trkpt lat="47.8638" lon="7.17622">
        <ele>707</ele>
        <time>2023-05-21T08:29:52.000Z</time>
      </trkpt>
      <trkpt lat="47.86382" lon="7.1762">
        <ele>707.40002441406</ele>
        <time>2023-05-21T08:29:53.000Z</time>
      </trkpt>
      <trkpt lat="47.86384" lon="7.17617">
        <ele>707.79998779297</ele>
        <time>2023-05-21T08:29:54.000Z</time>
      </trkpt>
      <trkpt lat="47.86386" lon="7.17615">
        <ele>708.40002441406</ele>
        <time>2023-05-21T08:29:55.000Z</time>
      </trkpt>
      <trkpt lat="47.86387" lon="7.17612">
        <ele>708.79998779297</ele>
        <time>2023-05-21T08:29:56.000Z</time>
      </trkpt>
      <trkpt lat="47.86392" lon="7.17603">
        <ele>708.79998779297</ele>
        <time>2023-05-21T08:29:59.000Z</time>
      </trkpt>
      <trkpt lat="47.86395" lon="7.17597">
        <ele>709.20001220703</ele>
        <time>2023-05-21T08:30:01.000Z</time>
      </trkpt>
      <trkpt lat="47.86396" lon="7.17594">
        <ele>709.59997558594</ele>
        <time>2023-05-21T08:30:02.000Z</time>
      </trkpt>
      <trkpt lat="47.86396" lon="7.17591">
        <ele>710</ele>
        <time>2023-05-21T08:30:03.000Z</time>
      </trkpt>
      <trkpt lat="47.86397" lon="7.17587">
        <ele>710.40002441406</ele>
        <time>2023-05-21T08:30:04.000Z</time>
      </trkpt>
      <trkpt lat="47.86398" lon="7.17583">
        <ele>711</ele>
        <time>2023-05-21T08:30:05.000Z</time>
      </trkpt>
      <trkpt lat="47.864" lon="7.17572">
        <ele>711.40002441406</ele>
        <time>2023-05-21T08:30:08.000Z</time>
      </trkpt>
      <trkpt lat="47.864" lon="7.17569">
        <ele>711.79998779297</ele>
        <time>2023-05-21T08:30:09.000Z</time>
      </trkpt>
      <trkpt lat="47.86401" lon="7.17565">
        <ele>712.20001220703</ele>
        <time>2023-05-21T08:30:10.000Z</time>
      </trkpt>
      <trkpt lat="47.86401" lon="7.17561">
        <ele>712.59997558594</ele>
        <time>2023-05-21T08:30:11.000Z</time>
      </trkpt>
      <trkpt lat="47.86402" lon="7.17557">
        <ele>713</ele>
        <time>2023-05-21T08:30:12.000Z</time>
      </trkpt>
      <trkpt lat="47.86404" lon="7.17544">
        <ele>713.40002441406</ele>
        <time>2023-05-21T08:30:15.000Z</time>
      </trkpt>
      <trkpt lat="47.86405" lon="7.1754">
        <ele>714</ele>
        <time>2023-05-21T08:30:16.000Z</time>
      </trkpt>
      <trkpt lat="47.86405" lon="7.17536">
        <ele>714.40002441406</ele>
        <time>2023-05-21T08:30:17.000Z</time>
      </trkpt>
      <trkpt lat="47.86404" lon="7.17533">
        <ele>714.79998779297</ele>
        <time>2023-05-21T08:30:18.000Z</time>
      </trkpt>
      <trkpt lat="47.86404" lon="7.17529">
        <ele>715.20001220703</ele>
        <time>2023-05-21T08:30:19.000Z</time>
      </trkpt>
      <trkpt lat="47.86402" lon="7.17519">
        <ele>715.20001220703</ele>
        <time>2023-05-21T08:30:22.000Z</time>
      </trkpt>
      <trkpt lat="47.86401" lon="7.17516">
        <ele>715.59997558594</ele>
        <time>2023-05-21T08:30:23.000Z</time>
      </trkpt>
      <trkpt lat="47.86401" lon="7.17514">
        <ele>716</ele>
        <time>2023-05-21T08:30:24.000Z</time>
      </trkpt>
      <trkpt lat="47.86399" lon="7.1751">
        <ele>716.59997558594</ele>
        <time>2023-05-21T08:30:25.000Z</time>
      </trkpt>
      <trkpt lat="47.86398" lon="7.17507">
        <ele>717</ele>
        <time>2023-05-21T08:30:26.000Z</time>
      </trkpt>
      <trkpt lat="47.86397" lon="7.17503">
        <ele>717.40002441406</ele>
        <time>2023-05-21T08:30:27.000Z</time>
      </trkpt>
      <trkpt lat="47.86394" lon="7.17497">
        <ele>717.40002441406</ele>
        <time>2023-05-21T08:30:29.000Z</time>
      </trkpt>
      <trkpt lat="47.86387" lon="7.17484">
        <ele>717.79998779297</ele>
        <time>2023-05-21T08:30:33.000Z</time>
      </trkpt>
      <trkpt lat="47.86385" lon="7.1748">
        <ele>718.20001220703</ele>
        <time>2023-05-21T08:30:34.000Z</time>
      </trkpt>
      <trkpt lat="47.86383" lon="7.17477">
        <ele>718.59997558594</ele>
        <time>2023-05-21T08:30:35.000Z</time>
      </trkpt>
      <trkpt lat="47.86381" lon="7.17473">
        <ele>719</ele>
        <time>2023-05-21T08:30:36.000Z</time>
      </trkpt>
      <trkpt lat="47.8638" lon="7.1747">
        <ele>719.59997558594</ele>
        <time>2023-05-21T08:30:37.000Z</time>
      </trkpt>
      <trkpt lat="47.8637" lon="7.17449">
        <ele>719.59997558594</ele>
        <time>2023-05-21T08:30:43.000Z</time>
      </trkpt>
      <trkpt lat="47.86369" lon="7.17445">
        <ele>720</ele>
        <time>2023-05-21T08:30:44.000Z</time>
      </trkpt>
      <trkpt lat="47.86368" lon="7.1744">
        <ele>720.40002441406</ele>
        <time>2023-05-21T08:30:45.000Z</time>
      </trkpt>
      <trkpt lat="47.86366" lon="7.17436">
        <ele>720.79998779297</ele>
        <time>2023-05-21T08:30:46.000Z</time>
      </trkpt>
      <trkpt lat="47.86365" lon="7.17432">
        <ele>721.20001220703</ele>
        <time>2023-05-21T08:30:47.000Z</time>
      </trkpt>
      <trkpt lat="47.86364" lon="7.17428">
        <ele>721.59997558594</ele>
        <time>2023-05-21T08:30:48.000Z</time>
      </trkpt>
      <trkpt lat="47.86364" lon="7.17399">
        <ele>721.59997558594</ele>
        <time>2023-05-21T08:30:55.000Z</time>
      </trkpt>
      <trkpt lat="47.86368" lon="7.17371">
        <ele>721.59997558594</ele>
        <time>2023-05-21T08:31:01.000Z</time>
      </trkpt>
      <trkpt lat="47.86369" lon="7.17362">
        <ele>722</ele>
        <time>2023-05-21T08:31:03.000Z</time>
      </trkpt>
      <trkpt lat="47.8637" lon="7.17358">
        <ele>722.40002441406</ele>
        <time>2023-05-21T08:31:04.000Z</time>
      </trkpt>
      <trkpt lat="47.8637" lon="7.17353">
        <ele>722.79998779297</ele>
        <time>2023-05-21T08:31:05.000Z</time>
      </trkpt>
      <trkpt lat="47.86371" lon="7.17348">
        <ele>723.20001220703</ele>
        <time>2023-05-21T08:31:06.000Z</time>
      </trkpt>
      <trkpt lat="47.86372" lon="7.17343">
        <ele>723.59997558594</ele>
        <time>2023-05-21T08:31:07.000Z</time>
      </trkpt>
      <trkpt lat="47.86377" lon="7.17315">
        <ele>723.59997558594</ele>
        <time>2023-05-21T08:31:13.000Z</time>
      </trkpt>
      <trkpt lat="47.8638" lon="7.17286">
        <ele>723.59997558594</ele>
        <time>2023-05-21T08:31:20.000Z</time>
      </trkpt>
      <trkpt lat="47.86384" lon="7.17261">
        <ele>723.59997558594</ele>
        <time>2023-05-21T08:31:25.000Z</time>
      </trkpt>
      <trkpt lat="47.8639" lon="7.17229">
        <ele>723.59997558594</ele>
        <time>2023-05-21T08:31:32.000Z</time>
      </trkpt>
      <trkpt lat="47.8639" lon="7.17225">
        <ele>724</ele>
        <time>2023-05-21T08:31:33.000Z</time>
      </trkpt>
      <trkpt lat="47.86391" lon="7.17221">
        <ele>724.40002441406</ele>
        <time>2023-05-21T08:31:34.000Z</time>
      </trkpt>
      <trkpt lat="47.86392" lon="7.17217">
        <ele>725</ele>
        <time>2023-05-21T08:31:35.000Z</time>
      </trkpt>
      <trkpt lat="47.86393" lon="7.17212">
        <ele>725.40002441406</ele>
        <time>2023-05-21T08:31:36.000Z</time>
      </trkpt>
      <trkpt lat="47.86393" lon="7.17207">
        <ele>725.79998779297</ele>
        <time>2023-05-21T08:31:37.000Z</time>
      </trkpt>
      <trkpt lat="47.86394" lon="7.17203">
        <ele>725.79998779297</ele>
        <time>2023-05-21T08:31:38.000Z</time>
      </trkpt>
      <trkpt lat="47.86397" lon="7.17186">
        <ele>725.79998779297</ele>
        <time>2023-05-21T08:31:43.000Z</time>
      </trkpt>
      <trkpt lat="47.86398" lon="7.17169">
        <ele>725.79998779297</ele>
        <time>2023-05-21T08:31:48.000Z</time>
      </trkpt>
      <trkpt lat="47.86406" lon="7.17138">
        <ele>725.79998779297</ele>
        <time>2023-05-21T08:31:53.000Z</time>
      </trkpt>
      <trkpt lat="47.86416" lon="7.17105">
        <ele>725.79998779297</ele>
        <time>2023-05-21T08:31:58.000Z</time>
      </trkpt>
      <trkpt lat="47.86428" lon="7.17068">
        <ele>725.79998779297</ele>
        <time>2023-05-21T08:32:04.000Z</time>
      </trkpt>
      <trkpt lat="47.86437" lon="7.17032">
        <ele>725.79998779297</ele>
        <time>2023-05-21T08:32:09.000Z</time>
      </trkpt>
      <trkpt lat="47.8644" lon="7.17024">
        <ele>725.79998779297</ele>
        <time>2023-05-21T08:32:10.000Z</time>
      </trkpt>
      <trkpt lat="47.86442" lon="7.17015">
        <ele>725.79998779297</ele>
        <time>2023-05-21T08:32:11.000Z</time>
      </trkpt>
      <trkpt lat="47.8645" lon="7.16976">
        <ele>725.79998779297</ele>
        <time>2023-05-21T08:32:16.000Z</time>
      </trkpt>
      <trkpt lat="47.86453" lon="7.16963">
        <ele>725.79998779297</ele>
        <time>2023-05-21T08:32:18.000Z</time>
      </trkpt>
      <trkpt lat="47.86459" lon="7.16947">
        <ele>725.79998779297</ele>
        <time>2023-05-21T08:32:21.000Z</time>
      </trkpt>
      <trkpt lat="47.86467" lon="7.1694">
        <ele>725.79998779297</ele>
        <time>2023-05-21T08:32:23.000Z</time>
      </trkpt>
      <trkpt lat="47.86471" lon="7.16939">
        <ele>725.79998779297</ele>
        <time>2023-05-21T08:32:24.000Z</time>
      </trkpt>
      <trkpt lat="47.86485" lon="7.16933">
        <ele>725.79998779297</ele>
        <time>2023-05-21T08:32:29.000Z</time>
      </trkpt>
      <trkpt lat="47.86497" lon="7.16929">
        <ele>726.20001220703</ele>
        <time>2023-05-21T08:32:32.000Z</time>
      </trkpt>
      <trkpt lat="47.865" lon="7.16926">
        <ele>726.59997558594</ele>
        <time>2023-05-21T08:32:33.000Z</time>
      </trkpt>
      <trkpt lat="47.86503" lon="7.16923">
        <ele>727</ele>
        <time>2023-05-21T08:32:34.000Z</time>
      </trkpt>
      <trkpt lat="47.86505" lon="7.1692">
        <ele>727.59997558594</ele>
        <time>2023-05-21T08:32:35.000Z</time>
      </trkpt>
      <trkpt lat="47.86508" lon="7.16916">
        <ele>728</ele>
        <time>2023-05-21T08:32:36.000Z</time>
      </trkpt>
      <trkpt lat="47.86523" lon="7.16896">
        <ele>728.79998779297</ele>
        <time>2023-05-21T08:32:41.000Z</time>
      </trkpt>
      <trkpt lat="47.86526" lon="7.16893">
        <ele>729.20001220703</ele>
        <time>2023-05-21T08:32:42.000Z</time>
      </trkpt>
      <trkpt lat="47.86529" lon="7.1689">
        <ele>729.59997558594</ele>
        <time>2023-05-21T08:32:43.000Z</time>
      </trkpt>
      <trkpt lat="47.86532" lon="7.16887">
        <ele>730</ele>
        <time>2023-05-21T08:32:44.000Z</time>
      </trkpt>
      <trkpt lat="47.86537" lon="7.16882">
        <ele>730.59997558594</ele>
        <time>2023-05-21T08:32:46.000Z</time>
      </trkpt>
      <trkpt lat="47.8654" lon="7.1688">
        <ele>731</ele>
        <time>2023-05-21T08:32:47.000Z</time>
      </trkpt>
      <trkpt lat="47.86543" lon="7.16878">
        <ele>731.40002441406</ele>
        <time>2023-05-21T08:32:48.000Z</time>
      </trkpt>
      <trkpt lat="47.86546" lon="7.16876">
        <ele>731.79998779297</ele>
        <time>2023-05-21T08:32:49.000Z</time>
      </trkpt>
      <trkpt lat="47.86549" lon="7.16875">
        <ele>732.40002441406</ele>
        <time>2023-05-21T08:32:50.000Z</time>
      </trkpt>
      <trkpt lat="47.86551" lon="7.16874">
        <ele>732.79998779297</ele>
        <time>2023-05-21T08:32:51.000Z</time>
      </trkpt>
      <trkpt lat="47.86554" lon="7.16874">
        <ele>733.20001220703</ele>
        <time>2023-05-21T08:32:52.000Z</time>
      </trkpt>
      <trkpt lat="47.86557" lon="7.16875">
        <ele>733.79998779297</ele>
        <time>2023-05-21T08:32:53.000Z</time>
      </trkpt>
      <trkpt lat="47.86559" lon="7.16876">
        <ele>734.20001220703</ele>
        <time>2023-05-21T08:32:54.000Z</time>
      </trkpt>
      <trkpt lat="47.86561" lon="7.16878">
        <ele>734.59997558594</ele>
        <time>2023-05-21T08:32:55.000Z</time>
      </trkpt>
      <trkpt lat="47.86566" lon="7.16882">
        <ele>734.59997558594</ele>
        <time>2023-05-21T08:32:57.000Z</time>
      </trkpt>
      <trkpt lat="47.8657" lon="7.16884">
        <ele>735</ele>
        <time>2023-05-21T08:32:58.000Z</time>
      </trkpt>
      <trkpt lat="47.86572" lon="7.16886">
        <ele>735.40002441406</ele>
        <time>2023-05-21T08:32:59.000Z</time>
      </trkpt>
      <trkpt lat="47.86575" lon="7.16888">
        <ele>735.79998779297</ele>
        <time>2023-05-21T08:33:00.000Z</time>
      </trkpt>
      <trkpt lat="47.86577" lon="7.16891">
        <ele>736.40002441406</ele>
        <time>2023-05-21T08:33:01.000Z</time>
      </trkpt>
      <trkpt lat="47.86581" lon="7.16893">
        <ele>736.79998779297</ele>
        <time>2023-05-21T08:33:02.000Z</time>
      </trkpt>
      <trkpt lat="47.8659" lon="7.169">
        <ele>737.59997558594</ele>
        <time>2023-05-21T08:33:05.000Z</time>
      </trkpt>
      <trkpt lat="47.86593" lon="7.16903">
        <ele>738</ele>
        <time>2023-05-21T08:33:06.000Z</time>
      </trkpt>
      <trkpt lat="47.86596" lon="7.16906">
        <ele>738.40002441406</ele>
        <time>2023-05-21T08:33:07.000Z</time>
      </trkpt>
      <trkpt lat="47.86599" lon="7.16908">
        <ele>738.79998779297</ele>
        <time>2023-05-21T08:33:08.000Z</time>
      </trkpt>
      <trkpt lat="47.86606" lon="7.16913">
        <ele>738.79998779297</ele>
        <time>2023-05-21T08:33:10.000Z</time>
      </trkpt>
      <trkpt lat="47.86617" lon="7.16922">
        <ele>739.20001220703</ele>
        <time>2023-05-21T08:33:13.000Z</time>
      </trkpt>
      <trkpt lat="47.8662" lon="7.16924">
        <ele>739.59997558594</ele>
        <time>2023-05-21T08:33:14.000Z</time>
      </trkpt>
      <trkpt lat="47.86623" lon="7.16927">
        <ele>740</ele>
        <time>2023-05-21T08:33:15.000Z</time>
      </trkpt>
      <trkpt lat="47.86626" lon="7.16929">
        <ele>740.40002441406</ele>
        <time>2023-05-21T08:33:16.000Z</time>
      </trkpt>
      <trkpt lat="47.8663" lon="7.16932">
        <ele>740.79998779297</ele>
        <time>2023-05-21T08:33:17.000Z</time>
      </trkpt>
      <trkpt lat="47.86641" lon="7.16942">
        <ele>741.40002441406</ele>
        <time>2023-05-21T08:33:21.000Z</time>
      </trkpt>
      <trkpt lat="47.86644" lon="7.16945">
        <ele>741.79998779297</ele>
        <time>2023-05-21T08:33:22.000Z</time>
      </trkpt>
      <trkpt lat="47.86646" lon="7.16948">
        <ele>742.20001220703</ele>
        <time>2023-05-21T08:33:23.000Z</time>
      </trkpt>
      <trkpt lat="47.86649" lon="7.1695">
        <ele>742.59997558594</ele>
        <time>2023-05-21T08:33:24.000Z</time>
      </trkpt>
      <trkpt lat="47.86652" lon="7.16952">
        <ele>743</ele>
        <time>2023-05-21T08:33:25.000Z</time>
      </trkpt>
      <trkpt lat="47.86659" lon="7.16951">
        <ele>743</ele>
        <time>2023-05-21T08:33:28.000Z</time>
      </trkpt>
      <trkpt lat="47.86662" lon="7.16949">
        <ele>743</ele>
        <time>2023-05-21T08:33:29.000Z</time>
      </trkpt>
      <trkpt lat="47.86664" lon="7.16946">
        <ele>743.40002441406</ele>
        <time>2023-05-21T08:33:30.000Z</time>
      </trkpt>
      <trkpt lat="47.86665" lon="7.16941">
        <ele>743.79998779297</ele>
        <time>2023-05-21T08:33:31.000Z</time>
      </trkpt>
      <trkpt lat="47.86665" lon="7.16936">
        <ele>744.20001220703</ele>
        <time>2023-05-21T08:33:32.000Z</time>
      </trkpt>
      <trkpt lat="47.86665" lon="7.1693">
        <ele>744.59997558594</ele>
        <time>2023-05-21T08:33:33.000Z</time>
      </trkpt>
      <trkpt lat="47.86664" lon="7.16925">
        <ele>745.20001220703</ele>
        <time>2023-05-21T08:33:34.000Z</time>
      </trkpt>
      <trkpt lat="47.86663" lon="7.1692">
        <ele>745.20001220703</ele>
        <time>2023-05-21T08:33:35.000Z</time>
      </trkpt>
      <trkpt lat="47.8666" lon="7.16899">
        <ele>745.20001220703</ele>
        <time>2023-05-21T08:33:40.000Z</time>
      </trkpt>
      <trkpt lat="47.86655" lon="7.16873">
        <ele>745.59997558594</ele>
        <time>2023-05-21T08:33:45.000Z</time>
      </trkpt>
      <trkpt lat="47.86654" lon="7.16869">
        <ele>746</ele>
        <time>2023-05-21T08:33:46.000Z</time>
      </trkpt>
      <trkpt lat="47.86653" lon="7.16864">
        <ele>746.40002441406</ele>
        <time>2023-05-21T08:33:47.000Z</time>
      </trkpt>
      <trkpt lat="47.86653" lon="7.16859">
        <ele>746.79998779297</ele>
        <time>2023-05-21T08:33:48.000Z</time>
      </trkpt>
      <trkpt lat="47.86652" lon="7.16855">
        <ele>747.20001220703</ele>
        <time>2023-05-21T08:33:49.000Z</time>
      </trkpt>
      <trkpt lat="47.86651" lon="7.16845">
        <ele>747.20001220703</ele>
        <time>2023-05-21T08:33:51.000Z</time>
      </trkpt>
      <trkpt lat="47.86648" lon="7.1683">
        <ele>747.59997558594</ele>
        <time>2023-05-21T08:33:54.000Z</time>
      </trkpt>
      <trkpt lat="47.86648" lon="7.16826">
        <ele>748</ele>
        <time>2023-05-21T08:33:55.000Z</time>
      </trkpt>
      <trkpt lat="47.86647" lon="7.1682">
        <ele>748.79998779297</ele>
        <time>2023-05-21T08:33:56.000Z</time>
      </trkpt>
      <trkpt lat="47.86646" lon="7.16816">
        <ele>749.20001220703</ele>
        <time>2023-05-21T08:33:57.000Z</time>
      </trkpt>
      <trkpt lat="47.86644" lon="7.16811">
        <ele>749.20001220703</ele>
        <time>2023-05-21T08:33:58.000Z</time>
      </trkpt>
      <trkpt lat="47.8664" lon="7.16792">
        <ele>749.59997558594</ele>
        <time>2023-05-21T08:34:02.000Z</time>
      </trkpt>
      <trkpt lat="47.86639" lon="7.16787">
        <ele>750.20001220703</ele>
        <time>2023-05-21T08:34:03.000Z</time>
      </trkpt>
      <trkpt lat="47.86638" lon="7.16784">
        <ele>750.59997558594</ele>
        <time>2023-05-21T08:34:04.000Z</time>
      </trkpt>
      <trkpt lat="47.86638" lon="7.16779">
        <ele>751</ele>
        <time>2023-05-21T08:34:05.000Z</time>
      </trkpt>
      <trkpt lat="47.86637" lon="7.16774">
        <ele>751.40002441406</ele>
        <time>2023-05-21T08:34:06.000Z</time>
      </trkpt>
      <trkpt lat="47.86637" lon="7.16768">
        <ele>751.40002441406</ele>
        <time>2023-05-21T08:34:07.000Z</time>
      </trkpt>
      <trkpt lat="47.86637" lon="7.16735">
        <ele>751.79998779297</ele>
        <time>2023-05-21T08:34:13.000Z</time>
      </trkpt>
      <trkpt lat="47.86637" lon="7.16729">
        <ele>752.20001220703</ele>
        <time>2023-05-21T08:34:14.000Z</time>
      </trkpt>
      <trkpt lat="47.86637" lon="7.16724">
        <ele>752.59997558594</ele>
        <time>2023-05-21T08:34:15.000Z</time>
      </trkpt>
      <trkpt lat="47.86637" lon="7.16719">
        <ele>753</ele>
        <time>2023-05-21T08:34:16.000Z</time>
      </trkpt>
      <trkpt lat="47.86637" lon="7.16713">
        <ele>753.40002441406</ele>
        <time>2023-05-21T08:34:17.000Z</time>
      </trkpt>
      <trkpt lat="47.86637" lon="7.16698">
        <ele>753.40002441406</ele>
        <time>2023-05-21T08:34:20.000Z</time>
      </trkpt>
      <trkpt lat="47.86637" lon="7.16692">
        <ele>753.79998779297</ele>
        <time>2023-05-21T08:34:21.000Z</time>
      </trkpt>
      <trkpt lat="47.86638" lon="7.16686">
        <ele>754.40002441406</ele>
        <time>2023-05-21T08:34:22.000Z</time>
      </trkpt>
      <trkpt lat="47.86638" lon="7.16682">
        <ele>754.79998779297</ele>
        <time>2023-05-21T08:34:23.000Z</time>
      </trkpt>
      <trkpt lat="47.86639" lon="7.16677">
        <ele>755.20001220703</ele>
        <time>2023-05-21T08:34:24.000Z</time>
      </trkpt>
      <trkpt lat="47.8664" lon="7.16672">
        <ele>755.59997558594</ele>
        <time>2023-05-21T08:34:25.000Z</time>
      </trkpt>
      <trkpt lat="47.86646" lon="7.16652">
        <ele>756.20001220703</ele>
        <time>2023-05-21T08:34:30.000Z</time>
      </trkpt>
      <trkpt lat="47.86647" lon="7.16648">
        <ele>756.59997558594</ele>
        <time>2023-05-21T08:34:31.000Z</time>
      </trkpt>
      <trkpt lat="47.86649" lon="7.16644">
        <ele>757</ele>
        <time>2023-05-21T08:34:32.000Z</time>
      </trkpt>
      <trkpt lat="47.86651" lon="7.1664">
        <ele>757.59997558594</ele>
        <time>2023-05-21T08:34:33.000Z</time>
      </trkpt>
      <trkpt lat="47.86653" lon="7.16636">
        <ele>758</ele>
        <time>2023-05-21T08:34:34.000Z</time>
      </trkpt>
      <trkpt lat="47.86658" lon="7.16629">
        <ele>758</ele>
        <time>2023-05-21T08:34:36.000Z</time>
      </trkpt>
      <trkpt lat="47.8666" lon="7.16626">
        <ele>758</ele>
        <time>2023-05-21T08:34:37.000Z</time>
      </trkpt>
      <trkpt lat="47.86663" lon="7.16623">
        <ele>758.40002441406</ele>
        <time>2023-05-21T08:34:38.000Z</time>
      </trkpt>
      <trkpt lat="47.86666" lon="7.1662">
        <ele>758.79998779297</ele>
        <time>2023-05-21T08:34:39.000Z</time>
      </trkpt>
      <trkpt lat="47.86669" lon="7.16617">
        <ele>759.20001220703</ele>
        <time>2023-05-21T08:34:40.000Z</time>
      </trkpt>
      <trkpt lat="47.86672" lon="7.16615">
        <ele>759.79998779297</ele>
        <time>2023-05-21T08:34:41.000Z</time>
      </trkpt>
      <trkpt lat="47.86674" lon="7.16612">
        <ele>760.20001220703</ele>
        <time>2023-05-21T08:34:42.000Z</time>
      </trkpt>
      <trkpt lat="47.8668" lon="7.16604">
        <ele>760.20001220703</ele>
        <time>2023-05-21T08:34:44.000Z</time>
      </trkpt>
      <trkpt lat="47.86683" lon="7.16599">
        <ele>760.59997558594</ele>
        <time>2023-05-21T08:34:45.000Z</time>
      </trkpt>
      <trkpt lat="47.86685" lon="7.16595">
        <ele>761</ele>
        <time>2023-05-21T08:34:46.000Z</time>
      </trkpt>
      <trkpt lat="47.86688" lon="7.16591">
        <ele>761.40002441406</ele>
        <time>2023-05-21T08:34:47.000Z</time>
      </trkpt>
      <trkpt lat="47.86689" lon="7.16586">
        <ele>761.79998779297</ele>
        <time>2023-05-21T08:34:48.000Z</time>
      </trkpt>
      <trkpt lat="47.8669" lon="7.16581">
        <ele>762.40002441406</ele>
        <time>2023-05-21T08:34:49.000Z</time>
      </trkpt>
      <trkpt lat="47.86691" lon="7.16576">
        <ele>762.40002441406</ele>
        <time>2023-05-21T08:34:50.000Z</time>
      </trkpt>
      <trkpt lat="47.86693" lon="7.16549">
        <ele>762.40002441406</ele>
        <time>2023-05-21T08:34:56.000Z</time>
      </trkpt>
      <trkpt lat="47.86692" lon="7.16524">
        <ele>762.79998779297</ele>
        <time>2023-05-21T08:35:01.000Z</time>
      </trkpt>
      <trkpt lat="47.86691" lon="7.16519">
        <ele>763.20001220703</ele>
        <time>2023-05-21T08:35:02.000Z</time>
      </trkpt>
      <trkpt lat="47.8669" lon="7.16514">
        <ele>763.59997558594</ele>
        <time>2023-05-21T08:35:03.000Z</time>
      </trkpt>
      <trkpt lat="47.8669" lon="7.16508">
        <ele>764</ele>
        <time>2023-05-21T08:35:04.000Z</time>
      </trkpt>
      <trkpt lat="47.86689" lon="7.16503">
        <ele>764.40002441406</ele>
        <time>2023-05-21T08:35:05.000Z</time>
      </trkpt>
      <trkpt lat="47.86684" lon="7.16467">
        <ele>764.40002441406</ele>
        <time>2023-05-21T08:35:12.000Z</time>
      </trkpt>
      <trkpt lat="47.8668" lon="7.16451">
        <ele>764.79998779297</ele>
        <time>2023-05-21T08:35:15.000Z</time>
      </trkpt>
      <trkpt lat="47.86679" lon="7.16446">
        <ele>765.20001220703</ele>
        <time>2023-05-21T08:35:16.000Z</time>
      </trkpt>
      <trkpt lat="47.86677" lon="7.16441">
        <ele>765.79998779297</ele>
        <time>2023-05-21T08:35:17.000Z</time>
      </trkpt>
      <trkpt lat="47.86676" lon="7.16437">
        <ele>766.20001220703</ele>
        <time>2023-05-21T08:35:18.000Z</time>
      </trkpt>
      <trkpt lat="47.86674" lon="7.16431">
        <ele>766.59997558594</ele>
        <time>2023-05-21T08:35:19.000Z</time>
      </trkpt>
      <trkpt lat="47.86667" lon="7.16412">
        <ele>766.59997558594</ele>
        <time>2023-05-21T08:35:24.000Z</time>
      </trkpt>
      <trkpt lat="47.86665" lon="7.16412">
        <ele>767</ele>
        <time>2023-05-21T08:35:25.000Z</time>
      </trkpt>
      <trkpt lat="47.86664" lon="7.16411">
        <ele>767.59997558594</ele>
        <time>2023-05-21T08:35:26.000Z</time>
      </trkpt>
      <trkpt lat="47.86662" lon="7.1641">
        <ele>768</ele>
        <time>2023-05-21T08:35:27.000Z</time>
      </trkpt>
      <trkpt lat="47.86661" lon="7.16409">
        <ele>768.40002441406</ele>
        <time>2023-05-21T08:35:28.000Z</time>
      </trkpt>
      <trkpt lat="47.86661" lon="7.16406">
        <ele>768.79998779297</ele>
        <time>2023-05-21T08:35:29.000Z</time>
      </trkpt>
      <trkpt lat="47.86659" lon="7.16398">
        <ele>768.79998779297</ele>
        <time>2023-05-21T08:35:31.000Z</time>
      </trkpt>
      <trkpt lat="47.86656" lon="7.16389">
        <ele>768.79998779297</ele>
        <time>2023-05-21T08:35:33.000Z</time>
      </trkpt>
      <trkpt lat="47.86651" lon="7.16377">
        <ele>768.79998779297</ele>
        <time>2023-05-21T08:35:36.000Z</time>
      </trkpt>
      <trkpt lat="47.86646" lon="7.16362">
        <ele>769.20001220703</ele>
        <time>2023-05-21T08:35:40.000Z</time>
      </trkpt>
      <trkpt lat="47.86646" lon="7.16359">
        <ele>769.59997558594</ele>
        <time>2023-05-21T08:35:41.000Z</time>
      </trkpt>
      <trkpt lat="47.86645" lon="7.16355">
        <ele>770</ele>
        <time>2023-05-21T08:35:42.000Z</time>
      </trkpt>
      <trkpt lat="47.86643" lon="7.16352">
        <ele>770.40002441406</ele>
        <time>2023-05-21T08:35:43.000Z</time>
      </trkpt>
      <trkpt lat="47.86642" lon="7.16348">
        <ele>770.79998779297</ele>
        <time>2023-05-21T08:35:44.000Z</time>
      </trkpt>
      <trkpt lat="47.86635" lon="7.1633">
        <ele>770.79998779297</ele>
        <time>2023-05-21T08:35:49.000Z</time>
      </trkpt>
      <trkpt lat="47.86632" lon="7.16315">
        <ele>771.20001220703</ele>
        <time>2023-05-21T08:35:53.000Z</time>
      </trkpt>
      <trkpt lat="47.86631" lon="7.16311">
        <ele>771.79998779297</ele>
        <time>2023-05-21T08:35:54.000Z</time>
      </trkpt>
      <trkpt lat="47.86631" lon="7.16306">
        <ele>772.20001220703</ele>
        <time>2023-05-21T08:35:55.000Z</time>
      </trkpt>
      <trkpt lat="47.8663" lon="7.16302">
        <ele>772.59997558594</ele>
        <time>2023-05-21T08:35:56.000Z</time>
      </trkpt>
      <trkpt lat="47.86629" lon="7.16298">
        <ele>773</ele>
        <time>2023-05-21T08:35:57.000Z</time>
      </trkpt>
      <trkpt lat="47.86626" lon="7.1628">
        <ele>773</ele>
        <time>2023-05-21T08:36:01.000Z</time>
      </trkpt>
      <trkpt lat="47.86625" lon="7.16276">
        <ele>773.59997558594</ele>
        <time>2023-05-21T08:36:02.000Z</time>
      </trkpt>
      <trkpt lat="47.86625" lon="7.16272">
        <ele>774</ele>
        <time>2023-05-21T08:36:03.000Z</time>
      </trkpt>
      <trkpt lat="47.86624" lon="7.16269">
        <ele>774.40002441406</ele>
        <time>2023-05-21T08:36:04.000Z</time>
      </trkpt>
      <trkpt lat="47.86624" lon="7.16266">
        <ele>774.79998779297</ele>
        <time>2023-05-21T08:36:05.000Z</time>
      </trkpt>
      <trkpt lat="47.86623" lon="7.16262">
        <ele>775.40002441406</ele>
        <time>2023-05-21T08:36:06.000Z</time>
      </trkpt>
      <trkpt lat="47.86623" lon="7.16258">
        <ele>775.40002441406</ele>
        <time>2023-05-21T08:36:07.000Z</time>
      </trkpt>
      <trkpt lat="47.86622" lon="7.1625">
        <ele>775.79998779297</ele>
        <time>2023-05-21T08:36:09.000Z</time>
      </trkpt>
      <trkpt lat="47.86622" lon="7.16246">
        <ele>776.20001220703</ele>
        <time>2023-05-21T08:36:10.000Z</time>
      </trkpt>
      <trkpt lat="47.86623" lon="7.16241">
        <ele>776.59997558594</ele>
        <time>2023-05-21T08:36:11.000Z</time>
      </trkpt>
      <trkpt lat="47.86623" lon="7.16237">
        <ele>777</ele>
        <time>2023-05-21T08:36:12.000Z</time>
      </trkpt>
      <trkpt lat="47.86623" lon="7.16232">
        <ele>777.40002441406</ele>
        <time>2023-05-21T08:36:13.000Z</time>
      </trkpt>
      <trkpt lat="47.86623" lon="7.16221">
        <ele>777.40002441406</ele>
        <time>2023-05-21T08:36:16.000Z</time>
      </trkpt>
      <trkpt lat="47.86622" lon="7.16215">
        <ele>777.79998779297</ele>
        <time>2023-05-21T08:36:17.000Z</time>
      </trkpt>
      <trkpt lat="47.86622" lon="7.1621">
        <ele>778.20001220703</ele>
        <time>2023-05-21T08:36:18.000Z</time>
      </trkpt>
      <trkpt lat="47.86622" lon="7.16205">
        <ele>778.59997558594</ele>
        <time>2023-05-21T08:36:19.000Z</time>
      </trkpt>
      <trkpt lat="47.86621" lon="7.162">
        <ele>779</ele>
        <time>2023-05-21T08:36:20.000Z</time>
      </trkpt>
      <trkpt lat="47.86621" lon="7.16195">
        <ele>779.59997558594</ele>
        <time>2023-05-21T08:36:21.000Z</time>
      </trkpt>
      <trkpt lat="47.86622" lon="7.16183">
        <ele>779.59997558594</ele>
        <time>2023-05-21T08:36:24.000Z</time>
      </trkpt>
      <trkpt lat="47.86623" lon="7.16175">
        <ele>780</ele>
        <time>2023-05-21T08:36:26.000Z</time>
      </trkpt>
      <trkpt lat="47.86623" lon="7.16171">
        <ele>780.40002441406</ele>
        <time>2023-05-21T08:36:27.000Z</time>
      </trkpt>
      <trkpt lat="47.86622" lon="7.16166">
        <ele>780.79998779297</ele>
        <time>2023-05-21T08:36:28.000Z</time>
      </trkpt>
      <trkpt lat="47.86623" lon="7.16161">
        <ele>781.20001220703</ele>
        <time>2023-05-21T08:36:29.000Z</time>
      </trkpt>
      <trkpt lat="47.86623" lon="7.16155">
        <ele>781.59997558594</ele>
        <time>2023-05-21T08:36:30.000Z</time>
      </trkpt>
      <trkpt lat="47.86623" lon="7.16149">
        <ele>781.59997558594</ele>
        <time>2023-05-21T08:36:31.000Z</time>
      </trkpt>
      <trkpt lat="47.86624" lon="7.16132">
        <ele>782</ele>
        <time>2023-05-21T08:36:34.000Z</time>
      </trkpt>
      <trkpt lat="47.86624" lon="7.16127">
        <ele>782.40002441406</ele>
        <time>2023-05-21T08:36:35.000Z</time>
      </trkpt>
      <trkpt lat="47.86624" lon="7.16122">
        <ele>783</ele>
        <time>2023-05-21T08:36:36.000Z</time>
      </trkpt>
      <trkpt lat="47.86625" lon="7.16118">
        <ele>783.40002441406</ele>
        <time>2023-05-21T08:36:37.000Z</time>
      </trkpt>
      <trkpt lat="47.86625" lon="7.16114">
        <ele>783.79998779297</ele>
        <time>2023-05-21T08:36:38.000Z</time>
      </trkpt>
      <trkpt lat="47.86627" lon="7.16094">
        <ele>783.79998779297</ele>
        <time>2023-05-21T08:36:42.000Z</time>
      </trkpt>
      <trkpt lat="47.86628" lon="7.16089">
        <ele>784.20001220703</ele>
        <time>2023-05-21T08:36:43.000Z</time>
      </trkpt>
      <trkpt lat="47.86629" lon="7.16084">
        <ele>784.59997558594</ele>
        <time>2023-05-21T08:36:44.000Z</time>
      </trkpt>
      <trkpt lat="47.8663" lon="7.1608">
        <ele>785</ele>
        <time>2023-05-21T08:36:45.000Z</time>
      </trkpt>
      <trkpt lat="47.86631" lon="7.16075">
        <ele>785.40002441406</ele>
        <time>2023-05-21T08:36:46.000Z</time>
      </trkpt>
      <trkpt lat="47.86632" lon="7.1607">
        <ele>785.79998779297</ele>
        <time>2023-05-21T08:36:47.000Z</time>
      </trkpt>
      <trkpt lat="47.86633" lon="7.16065">
        <ele>785.79998779297</ele>
        <time>2023-05-21T08:36:48.000Z</time>
      </trkpt>
      <trkpt lat="47.86634" lon="7.1606">
        <ele>786.20001220703</ele>
        <time>2023-05-21T08:36:49.000Z</time>
      </trkpt>
      <trkpt lat="47.86635" lon="7.16056">
        <ele>786.59997558594</ele>
        <time>2023-05-21T08:36:50.000Z</time>
      </trkpt>
      <trkpt lat="47.86635" lon="7.16053">
        <ele>787.20001220703</ele>
        <time>2023-05-21T08:36:51.000Z</time>
      </trkpt>
      <trkpt lat="47.86636" lon="7.16049">
        <ele>787.59997558594</ele>
        <time>2023-05-21T08:36:52.000Z</time>
      </trkpt>
      <trkpt lat="47.86637" lon="7.16044">
        <ele>788</ele>
        <time>2023-05-21T08:36:53.000Z</time>
      </trkpt>
      <trkpt lat="47.86638" lon="7.1604">
        <ele>788</ele>
        <time>2023-05-21T08:36:54.000Z</time>
      </trkpt>
      <trkpt lat="47.86645" lon="7.16011">
        <ele>788</ele>
        <time>2023-05-21T08:37:00.000Z</time>
      </trkpt>
      <trkpt lat="47.86643" lon="7.15981">
        <ele>788</ele>
        <time>2023-05-21T08:37:05.000Z</time>
      </trkpt>
      <trkpt lat="47.86634" lon="7.1595">
        <ele>788</ele>
        <time>2023-05-21T08:37:09.000Z</time>
      </trkpt>
      <trkpt lat="47.86625" lon="7.15926">
        <ele>787.59997558594</ele>
        <time>2023-05-21T08:37:12.000Z</time>
      </trkpt>
      <trkpt lat="47.86622" lon="7.15917">
        <ele>787.20001220703</ele>
        <time>2023-05-21T08:37:13.000Z</time>
      </trkpt>
      <trkpt lat="47.86619" lon="7.15909">
        <ele>786.40002441406</ele>
        <time>2023-05-21T08:37:14.000Z</time>
      </trkpt>
      <trkpt lat="47.86617" lon="7.15899">
        <ele>786</ele>
        <time>2023-05-21T08:37:15.000Z</time>
      </trkpt>
      <trkpt lat="47.86612" lon="7.1585">
        <ele>786</ele>
        <time>2023-05-21T08:37:20.000Z</time>
      </trkpt>
      <trkpt lat="47.86611" lon="7.15829">
        <ele>785.40002441406</ele>
        <time>2023-05-21T08:37:22.000Z</time>
      </trkpt>
      <trkpt lat="47.8661" lon="7.15819">
        <ele>785</ele>
        <time>2023-05-21T08:37:23.000Z</time>
      </trkpt>
      <trkpt lat="47.8661" lon="7.15809">
        <ele>784.59997558594</ele>
        <time>2023-05-21T08:37:24.000Z</time>
      </trkpt>
      <trkpt lat="47.8661" lon="7.15798">
        <ele>784</ele>
        <time>2023-05-21T08:37:25.000Z</time>
      </trkpt>
      <trkpt lat="47.86611" lon="7.15789">
        <ele>783.59997558594</ele>
        <time>2023-05-21T08:37:26.000Z</time>
      </trkpt>
      <trkpt lat="47.86612" lon="7.15754">
        <ele>783.59997558594</ele>
        <time>2023-05-21T08:37:30.000Z</time>
      </trkpt>
      <trkpt lat="47.86612" lon="7.15745">
        <ele>783.20001220703</ele>
        <time>2023-05-21T08:37:31.000Z</time>
      </trkpt>
      <trkpt lat="47.86612" lon="7.15737">
        <ele>782.79998779297</ele>
        <time>2023-05-21T08:37:32.000Z</time>
      </trkpt>
      <trkpt lat="47.86612" lon="7.15727">
        <ele>782.40002441406</ele>
        <time>2023-05-21T08:37:33.000Z</time>
      </trkpt>
      <trkpt lat="47.86612" lon="7.15719">
        <ele>782</ele>
        <time>2023-05-21T08:37:34.000Z</time>
      </trkpt>
      <trkpt lat="47.86612" lon="7.1571">
        <ele>781.59997558594</ele>
        <time>2023-05-21T08:37:35.000Z</time>
      </trkpt>
      <trkpt lat="47.86612" lon="7.15686">
        <ele>781.59997558594</ele>
        <time>2023-05-21T08:37:38.000Z</time>
      </trkpt>
      <trkpt lat="47.86613" lon="7.15652">
        <ele>781.59997558594</ele>
        <time>2023-05-21T08:37:43.000Z</time>
      </trkpt>
      <trkpt lat="47.86613" lon="7.15615">
        <ele>782</ele>
        <time>2023-05-21T08:37:48.000Z</time>
      </trkpt>
      <trkpt lat="47.86612" lon="7.15607">
        <ele>782.40002441406</ele>
        <time>2023-05-21T08:37:49.000Z</time>
      </trkpt>
      <trkpt lat="47.86611" lon="7.156">
        <ele>782.79998779297</ele>
        <time>2023-05-21T08:37:50.000Z</time>
      </trkpt>
      <trkpt lat="47.8661" lon="7.15593">
        <ele>783.20001220703</ele>
        <time>2023-05-21T08:37:51.000Z</time>
      </trkpt>
      <trkpt lat="47.86608" lon="7.15585">
        <ele>783.59997558594</ele>
        <time>2023-05-21T08:37:52.000Z</time>
      </trkpt>
      <trkpt lat="47.86605" lon="7.15572">
        <ele>783.59997558594</ele>
        <time>2023-05-21T08:37:54.000Z</time>
      </trkpt>
      <trkpt lat="47.86603" lon="7.15565">
        <ele>783.59997558594</ele>
        <time>2023-05-21T08:37:55.000Z</time>
      </trkpt>
      <trkpt lat="47.86598" lon="7.15552">
        <ele>783.59997558594</ele>
        <time>2023-05-21T08:37:57.000Z</time>
      </trkpt>
      <trkpt lat="47.86596" lon="7.15547">
        <ele>784</ele>
        <time>2023-05-21T08:37:58.000Z</time>
      </trkpt>
      <trkpt lat="47.86593" lon="7.15542">
        <ele>784.40002441406</ele>
        <time>2023-05-21T08:37:59.000Z</time>
      </trkpt>
      <trkpt lat="47.8659" lon="7.15538">
        <ele>784.79998779297</ele>
        <time>2023-05-21T08:38:00.000Z</time>
      </trkpt>
      <trkpt lat="47.86586" lon="7.15534">
        <ele>785.40002441406</ele>
        <time>2023-05-21T08:38:01.000Z</time>
      </trkpt>
      <trkpt lat="47.86583" lon="7.1553">
        <ele>785.79998779297</ele>
        <time>2023-05-21T08:38:02.000Z</time>
      </trkpt>
      <trkpt lat="47.86571" lon="7.15516">
        <ele>785.79998779297</ele>
        <time>2023-05-21T08:38:05.000Z</time>
      </trkpt>
      <trkpt lat="47.86559" lon="7.15502">
        <ele>785.79998779297</ele>
        <time>2023-05-21T08:38:08.000Z</time>
      </trkpt>
      <trkpt lat="47.86543" lon="7.1549">
        <ele>786.20001220703</ele>
        <time>2023-05-21T08:38:12.000Z</time>
      </trkpt>
      <trkpt lat="47.86539" lon="7.15487">
        <ele>786.59997558594</ele>
        <time>2023-05-21T08:38:13.000Z</time>
      </trkpt>
      <trkpt lat="47.86535" lon="7.15484">
        <ele>787</ele>
        <time>2023-05-21T08:38:14.000Z</time>
      </trkpt>
      <trkpt lat="47.86531" lon="7.15481">
        <ele>787.40002441406</ele>
        <time>2023-05-21T08:38:15.000Z</time>
      </trkpt>
      <trkpt lat="47.86527" lon="7.15478">
        <ele>787.79998779297</ele>
        <time>2023-05-21T08:38:16.000Z</time>
      </trkpt>
      <trkpt lat="47.86519" lon="7.15473">
        <ele>787.79998779297</ele>
        <time>2023-05-21T08:38:18.000Z</time>
      </trkpt>
      <trkpt lat="47.86515" lon="7.15471">
        <ele>787.79998779297</ele>
        <time>2023-05-21T08:38:19.000Z</time>
      </trkpt>
      <trkpt lat="47.86498" lon="7.15465">
        <ele>787.79998779297</ele>
        <time>2023-05-21T08:38:23.000Z</time>
      </trkpt>
      <trkpt lat="47.86464" lon="7.15451">
        <ele>787.79998779297</ele>
        <time>2023-05-21T08:38:31.000Z</time>
      </trkpt>
      <trkpt lat="47.86437" lon="7.15438">
        <ele>787.79998779297</ele>
        <time>2023-05-21T08:38:37.000Z</time>
      </trkpt>
      <trkpt lat="47.86432" lon="7.15434">
        <ele>787.79998779297</ele>
        <time>2023-05-21T08:38:38.000Z</time>
      </trkpt>
      <trkpt lat="47.86422" lon="7.15414">
        <ele>787.79998779297</ele>
        <time>2023-05-21T08:38:41.000Z</time>
      </trkpt>
      <trkpt lat="47.86417" lon="7.15381">
        <ele>787.79998779297</ele>
        <time>2023-05-21T08:38:45.000Z</time>
      </trkpt>
      <trkpt lat="47.86416" lon="7.15372">
        <ele>787.79998779297</ele>
        <time>2023-05-21T08:38:46.000Z</time>
      </trkpt>
      <trkpt lat="47.86408" lon="7.15335">
        <ele>787.79998779297</ele>
        <time>2023-05-21T08:38:50.000Z</time>
      </trkpt>
      <trkpt lat="47.86405" lon="7.15324">
        <ele>787.40002441406</ele>
        <time>2023-05-21T08:38:51.000Z</time>
      </trkpt>
      <trkpt lat="47.86401" lon="7.15313">
        <ele>787</ele>
        <time>2023-05-21T08:38:52.000Z</time>
      </trkpt>
      <trkpt lat="47.86396" lon="7.15302">
        <ele>786.20001220703</ele>
        <time>2023-05-21T08:38:53.000Z</time>
      </trkpt>
      <trkpt lat="47.86392" lon="7.15292">
        <ele>785.79998779297</ele>
        <time>2023-05-21T08:38:54.000Z</time>
      </trkpt>
      <trkpt lat="47.86388" lon="7.15282">
        <ele>785.20001220703</ele>
        <time>2023-05-21T08:38:55.000Z</time>
      </trkpt>
      <trkpt lat="47.86385" lon="7.15273">
        <ele>784.79998779297</ele>
        <time>2023-05-21T08:38:56.000Z</time>
      </trkpt>
      <trkpt lat="47.86386" lon="7.15261">
        <ele>784.40002441406</ele>
        <time>2023-05-21T08:38:57.000Z</time>
      </trkpt>
      <trkpt lat="47.86387" lon="7.15251">
        <ele>784</ele>
        <time>2023-05-21T08:38:58.000Z</time>
      </trkpt>
      <trkpt lat="47.8639" lon="7.15241">
        <ele>783.40002441406</ele>
        <time>2023-05-21T08:38:59.000Z</time>
      </trkpt>
      <trkpt lat="47.86394" lon="7.15233">
        <ele>783</ele>
        <time>2023-05-21T08:39:00.000Z</time>
      </trkpt>
      <trkpt lat="47.86398" lon="7.15224">
        <ele>782.59997558594</ele>
        <time>2023-05-21T08:39:01.000Z</time>
      </trkpt>
      <trkpt lat="47.86403" lon="7.15215">
        <ele>782.20001220703</ele>
        <time>2023-05-21T08:39:02.000Z</time>
      </trkpt>
      <trkpt lat="47.86406" lon="7.15206">
        <ele>781.59997558594</ele>
        <time>2023-05-21T08:39:03.000Z</time>
      </trkpt>
      <trkpt lat="47.8641" lon="7.15195">
        <ele>781.20001220703</ele>
        <time>2023-05-21T08:39:04.000Z</time>
      </trkpt>
      <trkpt lat="47.86413" lon="7.15183">
        <ele>780.59997558594</ele>
        <time>2023-05-21T08:39:05.000Z</time>
      </trkpt>
      <trkpt lat="47.86417" lon="7.1517">
        <ele>780.20001220703</ele>
        <time>2023-05-21T08:39:06.000Z</time>
      </trkpt>
      <trkpt lat="47.8642" lon="7.15159">
        <ele>779.59997558594</ele>
        <time>2023-05-21T08:39:07.000Z</time>
      </trkpt>
      <trkpt lat="47.86421" lon="7.15149">
        <ele>779.20001220703</ele>
        <time>2023-05-21T08:39:08.000Z</time>
      </trkpt>
      <trkpt lat="47.86422" lon="7.15139">
        <ele>778.59997558594</ele>
        <time>2023-05-21T08:39:09.000Z</time>
      </trkpt>
      <trkpt lat="47.8642" lon="7.15128">
        <ele>778.20001220703</ele>
        <time>2023-05-21T08:39:10.000Z</time>
      </trkpt>
      <trkpt lat="47.86417" lon="7.15117">
        <ele>777.59997558594</ele>
        <time>2023-05-21T08:39:11.000Z</time>
      </trkpt>
      <trkpt lat="47.86412" lon="7.15107">
        <ele>777</ele>
        <time>2023-05-21T08:39:12.000Z</time>
      </trkpt>
      <trkpt lat="47.86407" lon="7.15098">
        <ele>776.40002441406</ele>
        <time>2023-05-21T08:39:13.000Z</time>
      </trkpt>
      <trkpt lat="47.86401" lon="7.1509">
        <ele>776</ele>
        <time>2023-05-21T08:39:14.000Z</time>
      </trkpt>
      <trkpt lat="47.86395" lon="7.15084">
        <ele>775.40002441406</ele>
        <time>2023-05-21T08:39:15.000Z</time>
      </trkpt>
      <trkpt lat="47.86388" lon="7.15079">
        <ele>774.59997558594</ele>
        <time>2023-05-21T08:39:16.000Z</time>
      </trkpt>
      <trkpt lat="47.8638" lon="7.15074">
        <ele>774</ele>
        <time>2023-05-21T08:39:17.000Z</time>
      </trkpt>
      <trkpt lat="47.86373" lon="7.1507">
        <ele>772.40002441406</ele>
        <time>2023-05-21T08:39:18.000Z</time>
      </trkpt>
      <trkpt lat="47.86366" lon="7.15062">
        <ele>771.79998779297</ele>
        <time>2023-05-21T08:39:19.000Z</time>
      </trkpt>
      <trkpt lat="47.86359" lon="7.15053">
        <ele>771.20001220703</ele>
        <time>2023-05-21T08:39:20.000Z</time>
      </trkpt>
      <trkpt lat="47.86354" lon="7.15043">
        <ele>770.59997558594</ele>
        <time>2023-05-21T08:39:21.000Z</time>
      </trkpt>
      <trkpt lat="47.86349" lon="7.15031">
        <ele>770</ele>
        <time>2023-05-21T08:39:22.000Z</time>
      </trkpt>
      <trkpt lat="47.86344" lon="7.1502">
        <ele>769.59997558594</ele>
        <time>2023-05-21T08:39:23.000Z</time>
      </trkpt>
      <trkpt lat="47.86339" lon="7.15008">
        <ele>769</ele>
        <time>2023-05-21T08:39:24.000Z</time>
      </trkpt>
      <trkpt lat="47.8633" lon="7.14984">
        <ele>768.40002441406</ele>
        <time>2023-05-21T08:39:26.000Z</time>
      </trkpt>
      <trkpt lat="47.86326" lon="7.14972">
        <ele>768</ele>
        <time>2023-05-21T08:39:27.000Z</time>
      </trkpt>
      <trkpt lat="47.86324" lon="7.14961">
        <ele>767.59997558594</ele>
        <time>2023-05-21T08:39:28.000Z</time>
      </trkpt>
      <trkpt lat="47.86324" lon="7.1495">
        <ele>767</ele>
        <time>2023-05-21T08:39:29.000Z</time>
      </trkpt>
      <trkpt lat="47.86325" lon="7.14938">
        <ele>766.59997558594</ele>
        <time>2023-05-21T08:39:30.000Z</time>
      </trkpt>
      <trkpt lat="47.86331" lon="7.14897">
        <ele>766.59997558594</ele>
        <time>2023-05-21T08:39:34.000Z</time>
      </trkpt>
      <trkpt lat="47.86324" lon="7.14861">
        <ele>766.59997558594</ele>
        <time>2023-05-21T08:39:38.000Z</time>
      </trkpt>
      <trkpt lat="47.8632" lon="7.14853">
        <ele>766.59997558594</ele>
        <time>2023-05-21T08:39:39.000Z</time>
      </trkpt>
      <trkpt lat="47.86305" lon="7.14825">
        <ele>766.59997558594</ele>
        <time>2023-05-21T08:39:43.000Z</time>
      </trkpt>
      <trkpt lat="47.86287" lon="7.14804">
        <ele>766.59997558594</ele>
        <time>2023-05-21T08:39:47.000Z</time>
      </trkpt>
      <trkpt lat="47.86273" lon="7.14785">
        <ele>766.59997558594</ele>
        <time>2023-05-21T08:39:50.000Z</time>
      </trkpt>
      <trkpt lat="47.86272" lon="7.14776">
        <ele>766.59997558594</ele>
        <time>2023-05-21T08:39:51.000Z</time>
      </trkpt>
      <trkpt lat="47.86277" lon="7.14755">
        <ele>766.59997558594</ele>
        <time>2023-05-21T08:39:54.000Z</time>
      </trkpt>
      <trkpt lat="47.86292" lon="7.14739">
        <ele>766.59997558594</ele>
        <time>2023-05-21T08:39:57.000Z</time>
      </trkpt>
      <trkpt lat="47.86313" lon="7.14723">
        <ele>766.59997558594</ele>
        <time>2023-05-21T08:40:01.000Z</time>
      </trkpt>
      <trkpt lat="47.86332" lon="7.14722">
        <ele>766.20001220703</ele>
        <time>2023-05-21T08:40:04.000Z</time>
      </trkpt>
      <trkpt lat="47.86339" lon="7.14721">
        <ele>765.59997558594</ele>
        <time>2023-05-21T08:40:05.000Z</time>
      </trkpt>
      <trkpt lat="47.86345" lon="7.1472">
        <ele>765.20001220703</ele>
        <time>2023-05-21T08:40:06.000Z</time>
      </trkpt>
      <trkpt lat="47.86352" lon="7.14718">
        <ele>764.40002441406</ele>
        <time>2023-05-21T08:40:07.000Z</time>
      </trkpt>
      <trkpt lat="47.86365" lon="7.14715">
        <ele>764.40002441406</ele>
        <time>2023-05-21T08:40:09.000Z</time>
      </trkpt>
      <trkpt lat="47.86372" lon="7.14712">
        <ele>764.40002441406</ele>
        <time>2023-05-21T08:40:10.000Z</time>
      </trkpt>
      <trkpt lat="47.86379" lon="7.14708">
        <ele>764</ele>
        <time>2023-05-21T08:40:11.000Z</time>
      </trkpt>
      <trkpt lat="47.86387" lon="7.14705">
        <ele>763.40002441406</ele>
        <time>2023-05-21T08:40:12.000Z</time>
      </trkpt>
      <trkpt lat="47.86395" lon="7.14703">
        <ele>763</ele>
        <time>2023-05-21T08:40:13.000Z</time>
      </trkpt>
      <trkpt lat="47.86403" lon="7.14704">
        <ele>762.59997558594</ele>
        <time>2023-05-21T08:40:14.000Z</time>
      </trkpt>
      <trkpt lat="47.86411" lon="7.14706">
        <ele>762</ele>
        <time>2023-05-21T08:40:15.000Z</time>
      </trkpt>
      <trkpt lat="47.86419" lon="7.14708">
        <ele>761.59997558594</ele>
        <time>2023-05-21T08:40:16.000Z</time>
      </trkpt>
      <trkpt lat="47.86426" lon="7.14711">
        <ele>761.20001220703</ele>
        <time>2023-05-21T08:40:17.000Z</time>
      </trkpt>
      <trkpt lat="47.86435" lon="7.14716">
        <ele>760.79998779297</ele>
        <time>2023-05-21T08:40:18.000Z</time>
      </trkpt>
      <trkpt lat="47.86443" lon="7.1472">
        <ele>760.20001220703</ele>
        <time>2023-05-21T08:40:19.000Z</time>
      </trkpt>
      <trkpt lat="47.8645" lon="7.14724">
        <ele>759.59997558594</ele>
        <time>2023-05-21T08:40:20.000Z</time>
      </trkpt>
      <trkpt lat="47.86459" lon="7.14727">
        <ele>759</ele>
        <time>2023-05-21T08:40:21.000Z</time>
      </trkpt>
      <trkpt lat="47.86467" lon="7.14729">
        <ele>758.40002441406</ele>
        <time>2023-05-21T08:40:22.000Z</time>
      </trkpt>
      <trkpt lat="47.86475" lon="7.14731">
        <ele>757.79998779297</ele>
        <time>2023-05-21T08:40:23.000Z</time>
      </trkpt>
      <trkpt lat="47.86483" lon="7.14733">
        <ele>757</ele>
        <time>2023-05-21T08:40:24.000Z</time>
      </trkpt>
      <trkpt lat="47.86491" lon="7.14735">
        <ele>756.20001220703</ele>
        <time>2023-05-21T08:40:25.000Z</time>
      </trkpt>
      <trkpt lat="47.86501" lon="7.14734">
        <ele>755.59997558594</ele>
        <time>2023-05-21T08:40:26.000Z</time>
      </trkpt>
      <trkpt lat="47.8651" lon="7.14732">
        <ele>754.79998779297</ele>
        <time>2023-05-21T08:40:27.000Z</time>
      </trkpt>
      <trkpt lat="47.86528" lon="7.14721">
        <ele>754.40002441406</ele>
        <time>2023-05-21T08:40:29.000Z</time>
      </trkpt>
      <trkpt lat="47.86535" lon="7.14714">
        <ele>754</ele>
        <time>2023-05-21T08:40:30.000Z</time>
      </trkpt>
      <trkpt lat="47.86542" lon="7.14704">
        <ele>753.59997558594</ele>
        <time>2023-05-21T08:40:31.000Z</time>
      </trkpt>
      <trkpt lat="47.8655" lon="7.14695">
        <ele>752.59997558594</ele>
        <time>2023-05-21T08:40:32.000Z</time>
      </trkpt>
      <trkpt lat="47.86557" lon="7.14687">
        <ele>752</ele>
        <time>2023-05-21T08:40:33.000Z</time>
      </trkpt>
      <trkpt lat="47.86566" lon="7.14683">
        <ele>751.40002441406</ele>
        <time>2023-05-21T08:40:34.000Z</time>
      </trkpt>
      <trkpt lat="47.86576" lon="7.14681">
        <ele>750.59997558594</ele>
        <time>2023-05-21T08:40:35.000Z</time>
      </trkpt>
      <trkpt lat="47.86586" lon="7.14681">
        <ele>749.79998779297</ele>
        <time>2023-05-21T08:40:36.000Z</time>
      </trkpt>
      <trkpt lat="47.86597" lon="7.14682">
        <ele>749.20001220703</ele>
        <time>2023-05-21T08:40:37.000Z</time>
      </trkpt>
      <trkpt lat="47.86608" lon="7.14683">
        <ele>748.40002441406</ele>
        <time>2023-05-21T08:40:38.000Z</time>
      </trkpt>
      <trkpt lat="47.8662" lon="7.14685">
        <ele>747.79998779297</ele>
        <time>2023-05-21T08:40:39.000Z</time>
      </trkpt>
      <trkpt lat="47.86632" lon="7.14693">
        <ele>746.79998779297</ele>
        <time>2023-05-21T08:40:40.000Z</time>
      </trkpt>
      <trkpt lat="47.86643" lon="7.14704">
        <ele>746</ele>
        <time>2023-05-21T08:40:41.000Z</time>
      </trkpt>
      <trkpt lat="47.86651" lon="7.14715">
        <ele>745</ele>
        <time>2023-05-21T08:40:42.000Z</time>
      </trkpt>
      <trkpt lat="47.86656" lon="7.14725">
        <ele>743.79998779297</ele>
        <time>2023-05-21T08:40:43.000Z</time>
      </trkpt>
      <trkpt lat="47.86663" lon="7.14731">
        <ele>742.79998779297</ele>
        <time>2023-05-21T08:40:44.000Z</time>
      </trkpt>
      <trkpt lat="47.8667" lon="7.14737">
        <ele>742</ele>
        <time>2023-05-21T08:40:45.000Z</time>
      </trkpt>
      <trkpt lat="47.86677" lon="7.1474">
        <ele>741</ele>
        <time>2023-05-21T08:40:46.000Z</time>
      </trkpt>
      <trkpt lat="47.86683" lon="7.1474">
        <ele>740.20001220703</ele>
        <time>2023-05-21T08:40:47.000Z</time>
      </trkpt>
      <trkpt lat="47.86689" lon="7.14738">
        <ele>739.40002441406</ele>
        <time>2023-05-21T08:40:48.000Z</time>
      </trkpt>
      <trkpt lat="47.86694" lon="7.14731">
        <ele>738.59997558594</ele>
        <time>2023-05-21T08:40:49.000Z</time>
      </trkpt>
      <trkpt lat="47.86698" lon="7.14722">
        <ele>737.79998779297</ele>
        <time>2023-05-21T08:40:50.000Z</time>
      </trkpt>
      <trkpt lat="47.867" lon="7.14711">
        <ele>737.20001220703</ele>
        <time>2023-05-21T08:40:51.000Z</time>
      </trkpt>
      <trkpt lat="47.86702" lon="7.14699">
        <ele>736.40002441406</ele>
        <time>2023-05-21T08:40:52.000Z</time>
      </trkpt>
      <trkpt lat="47.86703" lon="7.14686">
        <ele>735.59997558594</ele>
        <time>2023-05-21T08:40:53.000Z</time>
      </trkpt>
      <trkpt lat="47.86704" lon="7.14673">
        <ele>735</ele>
        <time>2023-05-21T08:40:54.000Z</time>
      </trkpt>
      <trkpt lat="47.86704" lon="7.14659">
        <ele>734.20001220703</ele>
        <time>2023-05-21T08:40:55.000Z</time>
      </trkpt>
      <trkpt lat="47.86704" lon="7.14645">
        <ele>733.40002441406</ele>
        <time>2023-05-21T08:40:56.000Z</time>
      </trkpt>
      <trkpt lat="47.86704" lon="7.14632">
        <ele>732</ele>
        <time>2023-05-21T08:40:57.000Z</time>
      </trkpt>
      <trkpt lat="47.86703" lon="7.14617">
        <ele>731.20001220703</ele>
        <time>2023-05-21T08:40:58.000Z</time>
      </trkpt>
      <trkpt lat="47.86701" lon="7.14602">
        <ele>730.40002441406</ele>
        <time>2023-05-21T08:40:59.000Z</time>
      </trkpt>
      <trkpt lat="47.86698" lon="7.14588">
        <ele>729.79998779297</ele>
        <time>2023-05-21T08:41:00.000Z</time>
      </trkpt>
      <trkpt lat="47.86694" lon="7.14572">
        <ele>729</ele>
        <time>2023-05-21T08:41:01.000Z</time>
      </trkpt>
      <trkpt lat="47.86691" lon="7.14557">
        <ele>728.40002441406</ele>
        <time>2023-05-21T08:41:02.000Z</time>
      </trkpt>
      <trkpt lat="47.86687" lon="7.14542">
        <ele>727.59997558594</ele>
        <time>2023-05-21T08:41:03.000Z</time>
      </trkpt>
      <trkpt lat="47.86684" lon="7.14526">
        <ele>726.79998779297</ele>
        <time>2023-05-21T08:41:04.000Z</time>
      </trkpt>
      <trkpt lat="47.86681" lon="7.14511">
        <ele>726.20001220703</ele>
        <time>2023-05-21T08:41:05.000Z</time>
      </trkpt>
      <trkpt lat="47.86679" lon="7.14495">
        <ele>725.40002441406</ele>
        <time>2023-05-21T08:41:06.000Z</time>
      </trkpt>
      <trkpt lat="47.86676" lon="7.14477">
        <ele>724.59997558594</ele>
        <time>2023-05-21T08:41:07.000Z</time>
      </trkpt>
      <trkpt lat="47.86671" lon="7.14458">
        <ele>723.59997558594</ele>
        <time>2023-05-21T08:41:08.000Z</time>
      </trkpt>
      <trkpt lat="47.86664" lon="7.1444">
        <ele>722.59997558594</ele>
        <time>2023-05-21T08:41:09.000Z</time>
      </trkpt>
      <trkpt lat="47.86658" lon="7.14422">
        <ele>721.59997558594</ele>
        <time>2023-05-21T08:41:10.000Z</time>
      </trkpt>
      <trkpt lat="47.86652" lon="7.14406">
        <ele>720.40002441406</ele>
        <time>2023-05-21T08:41:11.000Z</time>
      </trkpt>
      <trkpt lat="47.86647" lon="7.14394">
        <ele>719.20001220703</ele>
        <time>2023-05-21T08:41:12.000Z</time>
      </trkpt>
      <trkpt lat="47.86642" lon="7.14382">
        <ele>718.20001220703</ele>
        <time>2023-05-21T08:41:13.000Z</time>
      </trkpt>
      <trkpt lat="47.86636" lon="7.14373">
        <ele>717</ele>
        <time>2023-05-21T08:41:14.000Z</time>
      </trkpt>
      <trkpt lat="47.8663" lon="7.14364">
        <ele>715.79998779297</ele>
        <time>2023-05-21T08:41:15.000Z</time>
      </trkpt>
      <trkpt lat="47.86624" lon="7.14357">
        <ele>714.79998779297</ele>
        <time>2023-05-21T08:41:16.000Z</time>
      </trkpt>
      <trkpt lat="47.8661" lon="7.14335">
        <ele>714.79998779297</ele>
        <time>2023-05-21T08:41:20.000Z</time>
      </trkpt>
      <trkpt lat="47.86593" lon="7.14313">
        <ele>715.20001220703</ele>
        <time>2023-05-21T08:41:26.000Z</time>
      </trkpt>
      <trkpt lat="47.86591" lon="7.1431">
        <ele>715.59997558594</ele>
        <time>2023-05-21T08:41:27.000Z</time>
      </trkpt>
      <trkpt lat="47.86588" lon="7.14308">
        <ele>716.20001220703</ele>
        <time>2023-05-21T08:41:28.000Z</time>
      </trkpt>
      <trkpt lat="47.86585" lon="7.14306">
        <ele>716.59997558594</ele>
        <time>2023-05-21T08:41:29.000Z</time>
      </trkpt>
      <trkpt lat="47.86583" lon="7.14304">
        <ele>717</ele>
        <time>2023-05-21T08:41:30.000Z</time>
      </trkpt>
      <trkpt lat="47.86581" lon="7.14302">
        <ele>717</ele>
        <time>2023-05-21T08:41:31.000Z</time>
      </trkpt>
      <trkpt lat="47.86578" lon="7.143">
        <ele>717.59997558594</ele>
        <time>2023-05-21T08:41:32.000Z</time>
      </trkpt>
      <trkpt lat="47.86575" lon="7.14298">
        <ele>718</ele>
        <time>2023-05-21T08:41:33.000Z</time>
      </trkpt>
      <trkpt lat="47.86573" lon="7.14296">
        <ele>718.59997558594</ele>
        <time>2023-05-21T08:41:34.000Z</time>
      </trkpt>
      <trkpt lat="47.8657" lon="7.14294">
        <ele>719</ele>
        <time>2023-05-21T08:41:35.000Z</time>
      </trkpt>
      <trkpt lat="47.86568" lon="7.14293">
        <ele>719.40002441406</ele>
        <time>2023-05-21T08:41:36.000Z</time>
      </trkpt>
      <trkpt lat="47.86562" lon="7.1429">
        <ele>720</ele>
        <time>2023-05-21T08:41:38.000Z</time>
      </trkpt>
      <trkpt lat="47.8656" lon="7.14287">
        <ele>720.40002441406</ele>
        <time>2023-05-21T08:41:39.000Z</time>
      </trkpt>
      <trkpt lat="47.86557" lon="7.14285">
        <ele>720.79998779297</ele>
        <time>2023-05-21T08:41:40.000Z</time>
      </trkpt>
      <trkpt lat="47.86555" lon="7.14283">
        <ele>721.20001220703</ele>
        <time>2023-05-21T08:41:41.000Z</time>
      </trkpt>
      <trkpt lat="47.86552" lon="7.14281">
        <ele>721.59997558594</ele>
        <time>2023-05-21T08:41:42.000Z</time>
      </trkpt>
      <trkpt lat="47.8655" lon="7.14279">
        <ele>722</ele>
        <time>2023-05-21T08:41:43.000Z</time>
      </trkpt>
      <trkpt lat="47.86548" lon="7.14277">
        <ele>722.59997558594</ele>
        <time>2023-05-21T08:41:44.000Z</time>
      </trkpt>
      <trkpt lat="47.86545" lon="7.14274">
        <ele>723</ele>
        <time>2023-05-21T08:41:45.000Z</time>
      </trkpt>
      <trkpt lat="47.86543" lon="7.14273">
        <ele>723.79998779297</ele>
        <time>2023-05-21T08:41:46.000Z</time>
      </trkpt>
      <trkpt lat="47.86537" lon="7.14272">
        <ele>724.20001220703</ele>
        <time>2023-05-21T08:41:48.000Z</time>
      </trkpt>
      <trkpt lat="47.86534" lon="7.14271">
        <ele>724.79998779297</ele>
        <time>2023-05-21T08:41:49.000Z</time>
      </trkpt>
      <trkpt lat="47.8653" lon="7.14268">
        <ele>725.20001220703</ele>
        <time>2023-05-21T08:41:50.000Z</time>
      </trkpt>
      <trkpt lat="47.86528" lon="7.14266">
        <ele>725.59997558594</ele>
        <time>2023-05-21T08:41:51.000Z</time>
      </trkpt>
      <trkpt lat="47.86525" lon="7.14265">
        <ele>726.20001220703</ele>
        <time>2023-05-21T08:41:52.000Z</time>
      </trkpt>
      <trkpt lat="47.86522" lon="7.14263">
        <ele>726.59997558594</ele>
        <time>2023-05-21T08:41:53.000Z</time>
      </trkpt>
      <trkpt lat="47.8652" lon="7.14262">
        <ele>727</ele>
        <time>2023-05-21T08:41:54.000Z</time>
      </trkpt>
      <trkpt lat="47.86517" lon="7.14262">
        <ele>727.40002441406</ele>
        <time>2023-05-21T08:41:55.000Z</time>
      </trkpt>
      <trkpt lat="47.86514" lon="7.14261">
        <ele>727.79998779297</ele>
        <time>2023-05-21T08:41:56.000Z</time>
      </trkpt>
      <trkpt lat="47.86512" lon="7.14259">
        <ele>728.20001220703</ele>
        <time>2023-05-21T08:41:57.000Z</time>
      </trkpt>
      <trkpt lat="47.86506" lon="7.14254">
        <ele>728.59997558594</ele>
        <time>2023-05-21T08:41:59.000Z</time>
      </trkpt>
      <trkpt lat="47.86502" lon="7.14252">
        <ele>729</ele>
        <time>2023-05-21T08:42:00.000Z</time>
      </trkpt>
      <trkpt lat="47.865" lon="7.14251">
        <ele>729.40002441406</ele>
        <time>2023-05-21T08:42:01.000Z</time>
      </trkpt>
      <trkpt lat="47.86498" lon="7.14249">
        <ele>729.79998779297</ele>
        <time>2023-05-21T08:42:02.000Z</time>
      </trkpt>
      <trkpt lat="47.86495" lon="7.14247">
        <ele>730.40002441406</ele>
        <time>2023-05-21T08:42:03.000Z</time>
      </trkpt>
      <trkpt lat="47.86492" lon="7.14245">
        <ele>730.40002441406</ele>
        <time>2023-05-21T08:42:04.000Z</time>
      </trkpt>
      <trkpt lat="47.86489" lon="7.14245">
        <ele>730.79998779297</ele>
        <time>2023-05-21T08:42:05.000Z</time>
      </trkpt>
      <trkpt lat="47.86487" lon="7.14244">
        <ele>731.20001220703</ele>
        <time>2023-05-21T08:42:06.000Z</time>
      </trkpt>
      <trkpt lat="47.86484" lon="7.14244">
        <ele>731.59997558594</ele>
        <time>2023-05-21T08:42:07.000Z</time>
      </trkpt>
      <trkpt lat="47.86482" lon="7.14243">
        <ele>732</ele>
        <time>2023-05-21T08:42:08.000Z</time>
      </trkpt>
      <trkpt lat="47.86481" lon="7.14242">
        <ele>732.59997558594</ele>
        <time>2023-05-21T08:42:09.000Z</time>
      </trkpt>
      <trkpt lat="47.86478" lon="7.14239">
        <ele>733</ele>
        <time>2023-05-21T08:42:10.000Z</time>
      </trkpt>
      <trkpt lat="47.86476" lon="7.14237">
        <ele>734</ele>
        <time>2023-05-21T08:42:11.000Z</time>
      </trkpt>
      <trkpt lat="47.86473" lon="7.14236">
        <ele>734.40002441406</ele>
        <time>2023-05-21T08:42:12.000Z</time>
      </trkpt>
      <trkpt lat="47.8647" lon="7.14235">
        <ele>734.79998779297</ele>
        <time>2023-05-21T08:42:13.000Z</time>
      </trkpt>
      <trkpt lat="47.86467" lon="7.14233">
        <ele>734.79998779297</ele>
        <time>2023-05-21T08:42:14.000Z</time>
      </trkpt>
      <trkpt lat="47.86465" lon="7.14233">
        <ele>735.40002441406</ele>
        <time>2023-05-21T08:42:15.000Z</time>
      </trkpt>
      <trkpt lat="47.86461" lon="7.14232">
        <ele>735.79998779297</ele>
        <time>2023-05-21T08:42:16.000Z</time>
      </trkpt>
      <trkpt lat="47.86459" lon="7.14231">
        <ele>736.40002441406</ele>
        <time>2023-05-21T08:42:17.000Z</time>
      </trkpt>
      <trkpt lat="47.86456" lon="7.1423">
        <ele>736.79998779297</ele>
        <time>2023-05-21T08:42:18.000Z</time>
      </trkpt>
      <trkpt lat="47.86453" lon="7.14228">
        <ele>737.20001220703</ele>
        <time>2023-05-21T08:42:19.000Z</time>
      </trkpt>
      <trkpt lat="47.86449" lon="7.14225">
        <ele>737.59997558594</ele>
        <time>2023-05-21T08:42:20.000Z</time>
      </trkpt>
      <trkpt lat="47.86446" lon="7.14223">
        <ele>738</ele>
        <time>2023-05-21T08:42:21.000Z</time>
      </trkpt>
      <trkpt lat="47.86443" lon="7.14221">
        <ele>738.40002441406</ele>
        <time>2023-05-21T08:42:22.000Z</time>
      </trkpt>
      <trkpt lat="47.86441" lon="7.14219">
        <ele>738.79998779297</ele>
        <time>2023-05-21T08:42:23.000Z</time>
      </trkpt>
      <trkpt lat="47.86439" lon="7.14218">
        <ele>739.20001220703</ele>
        <time>2023-05-21T08:42:24.000Z</time>
      </trkpt>
      <trkpt lat="47.86436" lon="7.14217">
        <ele>739.59997558594</ele>
        <time>2023-05-21T08:42:25.000Z</time>
      </trkpt>
      <trkpt lat="47.86433" lon="7.14216">
        <ele>740</ele>
        <time>2023-05-21T08:42:26.000Z</time>
      </trkpt>
      <trkpt lat="47.8643" lon="7.14214">
        <ele>740.59997558594</ele>
        <time>2023-05-21T08:42:27.000Z</time>
      </trkpt>
      <trkpt lat="47.86427" lon="7.14213">
        <ele>741</ele>
        <time>2023-05-21T08:42:28.000Z</time>
      </trkpt>
      <trkpt lat="47.86424" lon="7.14211">
        <ele>741.40002441406</ele>
        <time>2023-05-21T08:42:29.000Z</time>
      </trkpt>
      <trkpt lat="47.86421" lon="7.14209">
        <ele>741.40002441406</ele>
        <time>2023-05-21T08:42:30.000Z</time>
      </trkpt>
      <trkpt lat="47.86408" lon="7.14198">
        <ele>741.40002441406</ele>
        <time>2023-05-21T08:42:35.000Z</time>
      </trkpt>
      <trkpt lat="47.86406" lon="7.14195">
        <ele>742</ele>
        <time>2023-05-21T08:42:36.000Z</time>
      </trkpt>
      <trkpt lat="47.86403" lon="7.14192">
        <ele>743</ele>
        <time>2023-05-21T08:42:37.000Z</time>
      </trkpt>
      <trkpt lat="47.86399" lon="7.1419">
        <ele>744.20001220703</ele>
        <time>2023-05-21T08:42:38.000Z</time>
      </trkpt>
      <trkpt lat="47.86397" lon="7.14188">
        <ele>745.20001220703</ele>
        <time>2023-05-21T08:42:39.000Z</time>
      </trkpt>
      <trkpt lat="47.86394" lon="7.14187">
        <ele>746.20001220703</ele>
        <time>2023-05-21T08:42:40.000Z</time>
      </trkpt>
      <trkpt lat="47.86392" lon="7.14184">
        <ele>747.40002441406</ele>
        <time>2023-05-21T08:42:41.000Z</time>
      </trkpt>
      <trkpt lat="47.86391" lon="7.14181">
        <ele>747.40002441406</ele>
        <time>2023-05-21T08:42:42.000Z</time>
      </trkpt>
      <trkpt lat="47.86389" lon="7.1416">
        <ele>747.40002441406</ele>
        <time>2023-05-21T08:42:47.000Z</time>
      </trkpt>
      <trkpt lat="47.86391" lon="7.14152">
        <ele>747.79998779297</ele>
        <time>2023-05-21T08:42:49.000Z</time>
      </trkpt>
      <trkpt lat="47.86392" lon="7.14148">
        <ele>748.20001220703</ele>
        <time>2023-05-21T08:42:50.000Z</time>
      </trkpt>
      <trkpt lat="47.86394" lon="7.14145">
        <ele>748.79998779297</ele>
        <time>2023-05-21T08:42:51.000Z</time>
      </trkpt>
      <trkpt lat="47.86395" lon="7.14142">
        <ele>749.20001220703</ele>
        <time>2023-05-21T08:42:52.000Z</time>
      </trkpt>
      <trkpt lat="47.86397" lon="7.14137">
        <ele>749.79998779297</ele>
        <time>2023-05-21T08:42:53.000Z</time>
      </trkpt>
      <trkpt lat="47.86398" lon="7.14127">
        <ele>750.20001220703</ele>
        <time>2023-05-21T08:42:55.000Z</time>
      </trkpt>
      <trkpt lat="47.86398" lon="7.14123">
        <ele>750.59997558594</ele>
        <time>2023-05-21T08:42:56.000Z</time>
      </trkpt>
      <trkpt lat="47.86398" lon="7.14119">
        <ele>751</ele>
        <time>2023-05-21T08:42:57.000Z</time>
      </trkpt>
      <trkpt lat="47.86396" lon="7.14116">
        <ele>751.40002441406</ele>
        <time>2023-05-21T08:42:58.000Z</time>
      </trkpt>
      <trkpt lat="47.86395" lon="7.14113">
        <ele>751.79998779297</ele>
        <time>2023-05-21T08:42:59.000Z</time>
      </trkpt>
      <trkpt lat="47.86394" lon="7.1411">
        <ele>752.20001220703</ele>
        <time>2023-05-21T08:43:00.000Z</time>
      </trkpt>
      <trkpt lat="47.86393" lon="7.14107">
        <ele>752.59997558594</ele>
        <time>2023-05-21T08:43:01.000Z</time>
      </trkpt>
      <trkpt lat="47.86392" lon="7.14104">
        <ele>753</ele>
        <time>2023-05-21T08:43:02.000Z</time>
      </trkpt>
      <trkpt lat="47.86391" lon="7.14101">
        <ele>753.40002441406</ele>
        <time>2023-05-21T08:43:03.000Z</time>
      </trkpt>
      <trkpt lat="47.8639" lon="7.14098">
        <ele>753.79998779297</ele>
        <time>2023-05-21T08:43:04.000Z</time>
      </trkpt>
      <trkpt lat="47.8639" lon="7.14095">
        <ele>753.79998779297</ele>
        <time>2023-05-21T08:43:05.000Z</time>
      </trkpt>
      <trkpt lat="47.86389" lon="7.14088">
        <ele>754.20001220703</ele>
        <time>2023-05-21T08:43:07.000Z</time>
      </trkpt>
      <trkpt lat="47.86388" lon="7.14084">
        <ele>754.59997558594</ele>
        <time>2023-05-21T08:43:08.000Z</time>
      </trkpt>
      <trkpt lat="47.86387" lon="7.1408">
        <ele>755.20001220703</ele>
        <time>2023-05-21T08:43:09.000Z</time>
      </trkpt>
      <trkpt lat="47.86387" lon="7.14076">
        <ele>755.59997558594</ele>
        <time>2023-05-21T08:43:10.000Z</time>
      </trkpt>
      <trkpt lat="47.86386" lon="7.14071">
        <ele>756</ele>
        <time>2023-05-21T08:43:11.000Z</time>
      </trkpt>
      <trkpt lat="47.86385" lon="7.14064">
        <ele>756.59997558594</ele>
        <time>2023-05-21T08:43:13.000Z</time>
      </trkpt>
      <trkpt lat="47.86385" lon="7.14061">
        <ele>757</ele>
        <time>2023-05-21T08:43:14.000Z</time>
      </trkpt>
      <trkpt lat="47.86385" lon="7.14057">
        <ele>757.40002441406</ele>
        <time>2023-05-21T08:43:15.000Z</time>
      </trkpt>
      <trkpt lat="47.86384" lon="7.14053">
        <ele>757.79998779297</ele>
        <time>2023-05-21T08:43:16.000Z</time>
      </trkpt>
      <trkpt lat="47.86384" lon="7.1405">
        <ele>758.20001220703</ele>
        <time>2023-05-21T08:43:17.000Z</time>
      </trkpt>
      <trkpt lat="47.86384" lon="7.14044">
        <ele>758.20001220703</ele>
        <time>2023-05-21T08:43:19.000Z</time>
      </trkpt>
      <trkpt lat="47.86384" lon="7.14041">
        <ele>758.59997558594</ele>
        <time>2023-05-21T08:43:20.000Z</time>
      </trkpt>
      <trkpt lat="47.86385" lon="7.14036">
        <ele>759</ele>
        <time>2023-05-21T08:43:21.000Z</time>
      </trkpt>
      <trkpt lat="47.86384" lon="7.14031">
        <ele>759.40002441406</ele>
        <time>2023-05-21T08:43:22.000Z</time>
      </trkpt>
      <trkpt lat="47.86384" lon="7.14027">
        <ele>760</ele>
        <time>2023-05-21T08:43:23.000Z</time>
      </trkpt>
      <trkpt lat="47.86383" lon="7.14023">
        <ele>760.40002441406</ele>
        <time>2023-05-21T08:43:24.000Z</time>
      </trkpt>
      <trkpt lat="47.86383" lon="7.1402">
        <ele>760.40002441406</ele>
        <time>2023-05-21T08:43:25.000Z</time>
      </trkpt>
      <trkpt lat="47.86383" lon="7.14016">
        <ele>760.79998779297</ele>
        <time>2023-05-21T08:43:26.000Z</time>
      </trkpt>
      <trkpt lat="47.86383" lon="7.14012">
        <ele>761.20001220703</ele>
        <time>2023-05-21T08:43:27.000Z</time>
      </trkpt>
      <trkpt lat="47.86383" lon="7.14009">
        <ele>761.59997558594</ele>
        <time>2023-05-21T08:43:28.000Z</time>
      </trkpt>
      <trkpt lat="47.86383" lon="7.14005">
        <ele>762.20001220703</ele>
        <time>2023-05-21T08:43:29.000Z</time>
      </trkpt>
      <trkpt lat="47.86382" lon="7.14001">
        <ele>762.59997558594</ele>
        <time>2023-05-21T08:43:30.000Z</time>
      </trkpt>
      <trkpt lat="47.86382" lon="7.13998">
        <ele>762.59997558594</ele>
        <time>2023-05-21T08:43:31.000Z</time>
      </trkpt>
      <trkpt lat="47.86381" lon="7.13993">
        <ele>763</ele>
        <time>2023-05-21T08:43:32.000Z</time>
      </trkpt>
      <trkpt lat="47.8638" lon="7.1399">
        <ele>763.40002441406</ele>
        <time>2023-05-21T08:43:33.000Z</time>
      </trkpt>
      <trkpt lat="47.8638" lon="7.13986">
        <ele>763.79998779297</ele>
        <time>2023-05-21T08:43:34.000Z</time>
      </trkpt>
      <trkpt lat="47.86379" lon="7.13981">
        <ele>764.20001220703</ele>
        <time>2023-05-21T08:43:35.000Z</time>
      </trkpt>
      <trkpt lat="47.86378" lon="7.13976">
        <ele>764.59997558594</ele>
        <time>2023-05-21T08:43:36.000Z</time>
      </trkpt>
      <trkpt lat="47.86378" lon="7.13968">
        <ele>765</ele>
        <time>2023-05-21T08:43:38.000Z</time>
      </trkpt>
      <trkpt lat="47.86378" lon="7.13963">
        <ele>765.40002441406</ele>
        <time>2023-05-21T08:43:39.000Z</time>
      </trkpt>
      <trkpt lat="47.86378" lon="7.13959">
        <ele>766</ele>
        <time>2023-05-21T08:43:40.000Z</time>
      </trkpt>
      <trkpt lat="47.86378" lon="7.13955">
        <ele>766.40002441406</ele>
        <time>2023-05-21T08:43:41.000Z</time>
      </trkpt>
      <trkpt lat="47.86378" lon="7.13951">
        <ele>766.79998779297</ele>
        <time>2023-05-21T08:43:42.000Z</time>
      </trkpt>
      <trkpt lat="47.86379" lon="7.13939">
        <ele>766.79998779297</ele>
        <time>2023-05-21T08:43:45.000Z</time>
      </trkpt>
      <trkpt lat="47.86379" lon="7.13934">
        <ele>767.20001220703</ele>
        <time>2023-05-21T08:43:46.000Z</time>
      </trkpt>
      <trkpt lat="47.8638" lon="7.13929">
        <ele>767.59997558594</ele>
        <time>2023-05-21T08:43:47.000Z</time>
      </trkpt>
      <trkpt lat="47.8638" lon="7.13925">
        <ele>768</ele>
        <time>2023-05-21T08:43:48.000Z</time>
      </trkpt>
      <trkpt lat="47.8638" lon="7.13922">
        <ele>768.40002441406</ele>
        <time>2023-05-21T08:43:49.000Z</time>
      </trkpt>
      <trkpt lat="47.8638" lon="7.13918">
        <ele>769</ele>
        <time>2023-05-21T08:43:50.000Z</time>
      </trkpt>
      <trkpt lat="47.8638" lon="7.13915">
        <ele>769</ele>
        <time>2023-05-21T08:43:51.000Z</time>
      </trkpt>
      <trkpt lat="47.86381" lon="7.13907">
        <ele>769.40002441406</ele>
        <time>2023-05-21T08:43:53.000Z</time>
      </trkpt>
      <trkpt lat="47.86381" lon="7.13904">
        <ele>769.79998779297</ele>
        <time>2023-05-21T08:43:54.000Z</time>
      </trkpt>
      <trkpt lat="47.8638" lon="7.13901">
        <ele>770.40002441406</ele>
        <time>2023-05-21T08:43:55.000Z</time>
      </trkpt>
      <trkpt lat="47.8638" lon="7.13898">
        <ele>770.79998779297</ele>
        <time>2023-05-21T08:43:56.000Z</time>
      </trkpt>
      <trkpt lat="47.86379" lon="7.13895">
        <ele>771.20001220703</ele>
        <time>2023-05-21T08:43:57.000Z</time>
      </trkpt>
      <trkpt lat="47.86376" lon="7.13885">
        <ele>771.79998779297</ele>
        <time>2023-05-21T08:44:00.000Z</time>
      </trkpt>
      <trkpt lat="47.86376" lon="7.1388">
        <ele>772.20001220703</ele>
        <time>2023-05-21T08:44:01.000Z</time>
      </trkpt>
      <trkpt lat="47.86375" lon="7.13876">
        <ele>772.59997558594</ele>
        <time>2023-05-21T08:44:02.000Z</time>
      </trkpt>
      <trkpt lat="47.86375" lon="7.13871">
        <ele>773</ele>
        <time>2023-05-21T08:44:03.000Z</time>
      </trkpt>
      <trkpt lat="47.86375" lon="7.13867">
        <ele>773.40002441406</ele>
        <time>2023-05-21T08:44:04.000Z</time>
      </trkpt>
      <trkpt lat="47.86377" lon="7.13856">
        <ele>773.40002441406</ele>
        <time>2023-05-21T08:44:07.000Z</time>
      </trkpt>
      <trkpt lat="47.86378" lon="7.13852">
        <ele>774</ele>
        <time>2023-05-21T08:44:08.000Z</time>
      </trkpt>
      <trkpt lat="47.8638" lon="7.13851">
        <ele>774.40002441406</ele>
        <time>2023-05-21T08:44:09.000Z</time>
      </trkpt>
      <trkpt lat="47.86381" lon="7.13849">
        <ele>774.79998779297</ele>
        <time>2023-05-21T08:44:10.000Z</time>
      </trkpt>
      <trkpt lat="47.86383" lon="7.13847">
        <ele>775.20001220703</ele>
        <time>2023-05-21T08:44:11.000Z</time>
      </trkpt>
      <trkpt lat="47.86386" lon="7.13844">
        <ele>775.79998779297</ele>
        <time>2023-05-21T08:44:12.000Z</time>
      </trkpt>
      <trkpt lat="47.86388" lon="7.13842">
        <ele>775.79998779297</ele>
        <time>2023-05-21T08:44:13.000Z</time>
      </trkpt>
      <trkpt lat="47.8639" lon="7.13838">
        <ele>776.20001220703</ele>
        <time>2023-05-21T08:44:14.000Z</time>
      </trkpt>
      <trkpt lat="47.86393" lon="7.13836">
        <ele>776.59997558594</ele>
        <time>2023-05-21T08:44:15.000Z</time>
      </trkpt>
      <trkpt lat="47.86395" lon="7.13834">
        <ele>777</ele>
        <time>2023-05-21T08:44:16.000Z</time>
      </trkpt>
      <trkpt lat="47.86397" lon="7.13832">
        <ele>777.40002441406</ele>
        <time>2023-05-21T08:44:17.000Z</time>
      </trkpt>
      <trkpt lat="47.864" lon="7.1383">
        <ele>777.79998779297</ele>
        <time>2023-05-21T08:44:18.000Z</time>
      </trkpt>
      <trkpt lat="47.86402" lon="7.13828">
        <ele>777.79998779297</ele>
        <time>2023-05-21T08:44:19.000Z</time>
      </trkpt>
      <trkpt lat="47.86404" lon="7.13827">
        <ele>778.20001220703</ele>
        <time>2023-05-21T08:44:20.000Z</time>
      </trkpt>
      <trkpt lat="47.86406" lon="7.13826">
        <ele>778.59997558594</ele>
        <time>2023-05-21T08:44:21.000Z</time>
      </trkpt>
      <trkpt lat="47.86408" lon="7.13826">
        <ele>779</ele>
        <time>2023-05-21T08:44:22.000Z</time>
      </trkpt>
      <trkpt lat="47.8641" lon="7.13826">
        <ele>779.40002441406</ele>
        <time>2023-05-21T08:44:23.000Z</time>
      </trkpt>
      <trkpt lat="47.86412" lon="7.13825">
        <ele>780</ele>
        <time>2023-05-21T08:44:24.000Z</time>
      </trkpt>
      <trkpt lat="47.86415" lon="7.13823">
        <ele>780</ele>
        <time>2023-05-21T08:44:25.000Z</time>
      </trkpt>
      <trkpt lat="47.86422" lon="7.1382">
        <ele>780.40002441406</ele>
        <time>2023-05-21T08:44:28.000Z</time>
      </trkpt>
      <trkpt lat="47.86425" lon="7.13819">
        <ele>780.79998779297</ele>
        <time>2023-05-21T08:44:29.000Z</time>
      </trkpt>
      <trkpt lat="47.86426" lon="7.13818">
        <ele>781.20001220703</ele>
        <time>2023-05-21T08:44:30.000Z</time>
      </trkpt>
      <trkpt lat="47.86428" lon="7.13817">
        <ele>781.59997558594</ele>
        <time>2023-05-21T08:44:31.000Z</time>
      </trkpt>
      <trkpt lat="47.8643" lon="7.13816">
        <ele>782</ele>
        <time>2023-05-21T08:44:32.000Z</time>
      </trkpt>
      <trkpt lat="47.86442" lon="7.13811">
        <ele>782.40002441406</ele>
        <time>2023-05-21T08:44:36.000Z</time>
      </trkpt>
      <trkpt lat="47.86445" lon="7.13809">
        <ele>783</ele>
        <time>2023-05-21T08:44:37.000Z</time>
      </trkpt>
      <trkpt lat="47.86448" lon="7.13807">
        <ele>783.40002441406</ele>
        <time>2023-05-21T08:44:38.000Z</time>
      </trkpt>
      <trkpt lat="47.8645" lon="7.13803">
        <ele>784.40002441406</ele>
        <time>2023-05-21T08:44:39.000Z</time>
      </trkpt>
      <trkpt lat="47.86454" lon="7.13795">
        <ele>784.79998779297</ele>
        <time>2023-05-21T08:44:41.000Z</time>
      </trkpt>
      <trkpt lat="47.86454" lon="7.1379">
        <ele>785.20001220703</ele>
        <time>2023-05-21T08:44:42.000Z</time>
      </trkpt>
      <trkpt lat="47.86456" lon="7.13786">
        <ele>785.79998779297</ele>
        <time>2023-05-21T08:44:43.000Z</time>
      </trkpt>
      <trkpt lat="47.86457" lon="7.13783">
        <ele>786.20001220703</ele>
        <time>2023-05-21T08:44:44.000Z</time>
      </trkpt>
      <trkpt lat="47.86458" lon="7.1378">
        <ele>786.59997558594</ele>
        <time>2023-05-21T08:44:45.000Z</time>
      </trkpt>
      <trkpt lat="47.86459" lon="7.13773">
        <ele>787</ele>
        <time>2023-05-21T08:44:47.000Z</time>
      </trkpt>
      <trkpt lat="47.86459" lon="7.13768">
        <ele>787.59997558594</ele>
        <time>2023-05-21T08:44:48.000Z</time>
      </trkpt>
      <trkpt lat="47.86459" lon="7.13765">
        <ele>788</ele>
        <time>2023-05-21T08:44:49.000Z</time>
      </trkpt>
      <trkpt lat="47.8646" lon="7.13762">
        <ele>788.40002441406</ele>
        <time>2023-05-21T08:44:50.000Z</time>
      </trkpt>
      <trkpt lat="47.86461" lon="7.13758">
        <ele>789</ele>
        <time>2023-05-21T08:44:51.000Z</time>
      </trkpt>
      <trkpt lat="47.86463" lon="7.13751">
        <ele>789.40002441406</ele>
        <time>2023-05-21T08:44:53.000Z</time>
      </trkpt>
      <trkpt lat="47.86464" lon="7.13747">
        <ele>789.79998779297</ele>
        <time>2023-05-21T08:44:54.000Z</time>
      </trkpt>
      <trkpt lat="47.86464" lon="7.13744">
        <ele>790.20001220703</ele>
        <time>2023-05-21T08:44:55.000Z</time>
      </trkpt>
      <trkpt lat="47.86465" lon="7.1374">
        <ele>790.59997558594</ele>
        <time>2023-05-21T08:44:56.000Z</time>
      </trkpt>
      <trkpt lat="47.86467" lon="7.13736">
        <ele>791</ele>
        <time>2023-05-21T08:44:57.000Z</time>
      </trkpt>
      <trkpt lat="47.86469" lon="7.13729">
        <ele>791.40002441406</ele>
        <time>2023-05-21T08:44:59.000Z</time>
      </trkpt>
      <trkpt lat="47.8647" lon="7.13725">
        <ele>791.79998779297</ele>
        <time>2023-05-21T08:45:00.000Z</time>
      </trkpt>
      <trkpt lat="47.86471" lon="7.13721">
        <ele>792.20001220703</ele>
        <time>2023-05-21T08:45:01.000Z</time>
      </trkpt>
      <trkpt lat="47.86473" lon="7.13717">
        <ele>792.59997558594</ele>
        <time>2023-05-21T08:45:02.000Z</time>
      </trkpt>
      <trkpt lat="47.86474" lon="7.13713">
        <ele>793</ele>
        <time>2023-05-21T08:45:03.000Z</time>
      </trkpt>
      <trkpt lat="47.86475" lon="7.13705">
        <ele>793.40002441406</ele>
        <time>2023-05-21T08:45:05.000Z</time>
      </trkpt>
      <trkpt lat="47.86475" lon="7.13701">
        <ele>793.79998779297</ele>
        <time>2023-05-21T08:45:06.000Z</time>
      </trkpt>
      <trkpt lat="47.86476" lon="7.13698">
        <ele>794.20001220703</ele>
        <time>2023-05-21T08:45:07.000Z</time>
      </trkpt>
      <trkpt lat="47.86477" lon="7.13694">
        <ele>794.59997558594</ele>
        <time>2023-05-21T08:45:08.000Z</time>
      </trkpt>
      <trkpt lat="47.86477" lon="7.1369">
        <ele>795</ele>
        <time>2023-05-21T08:45:09.000Z</time>
      </trkpt>
      <trkpt lat="47.86479" lon="7.13685">
        <ele>795.40002441406</ele>
        <time>2023-05-21T08:45:11.000Z</time>
      </trkpt>
      <trkpt lat="47.86479" lon="7.13682">
        <ele>795.79998779297</ele>
        <time>2023-05-21T08:45:12.000Z</time>
      </trkpt>
      <trkpt lat="47.86479" lon="7.13679">
        <ele>796.20001220703</ele>
        <time>2023-05-21T08:45:13.000Z</time>
      </trkpt>
      <trkpt lat="47.8648" lon="7.13674">
        <ele>796.59997558594</ele>
        <time>2023-05-21T08:45:14.000Z</time>
      </trkpt>
      <trkpt lat="47.8648" lon="7.13671">
        <ele>797</ele>
        <time>2023-05-21T08:45:15.000Z</time>
      </trkpt>
      <trkpt lat="47.86481" lon="7.13667">
        <ele>797</ele>
        <time>2023-05-21T08:45:16.000Z</time>
      </trkpt>
      <trkpt lat="47.86482" lon="7.13656">
        <ele>797.59997558594</ele>
        <time>2023-05-21T08:45:19.000Z</time>
      </trkpt>
      <trkpt lat="47.86482" lon="7.13653">
        <ele>798</ele>
        <time>2023-05-21T08:45:20.000Z</time>
      </trkpt>
      <trkpt lat="47.86483" lon="7.1365">
        <ele>798.40002441406</ele>
        <time>2023-05-21T08:45:21.000Z</time>
      </trkpt>
      <trkpt lat="47.86483" lon="7.13646">
        <ele>799</ele>
        <time>2023-05-21T08:45:22.000Z</time>
      </trkpt>
      <trkpt lat="47.86484" lon="7.13642">
        <ele>799.40002441406</ele>
        <time>2023-05-21T08:45:23.000Z</time>
      </trkpt>
      <trkpt lat="47.86485" lon="7.13635">
        <ele>799.79998779297</ele>
        <time>2023-05-21T08:45:25.000Z</time>
      </trkpt>
      <trkpt lat="47.86486" lon="7.1363">
        <ele>800.20001220703</ele>
        <time>2023-05-21T08:45:26.000Z</time>
      </trkpt>
      <trkpt lat="47.86487" lon="7.13624">
        <ele>800.59997558594</ele>
        <time>2023-05-21T08:45:27.000Z</time>
      </trkpt>
      <trkpt lat="47.86488" lon="7.1362">
        <ele>801.20001220703</ele>
        <time>2023-05-21T08:45:28.000Z</time>
      </trkpt>
      <trkpt lat="47.8649" lon="7.13616">
        <ele>801.59997558594</ele>
        <time>2023-05-21T08:45:29.000Z</time>
      </trkpt>
      <trkpt lat="47.86494" lon="7.13609">
        <ele>802</ele>
        <time>2023-05-21T08:45:31.000Z</time>
      </trkpt>
      <trkpt lat="47.86496" lon="7.13606">
        <ele>802.40002441406</ele>
        <time>2023-05-21T08:45:32.000Z</time>
      </trkpt>
      <trkpt lat="47.86497" lon="7.13602">
        <ele>802.79998779297</ele>
        <time>2023-05-21T08:45:33.000Z</time>
      </trkpt>
      <trkpt lat="47.86499" lon="7.13599">
        <ele>803.40002441406</ele>
        <time>2023-05-21T08:45:34.000Z</time>
      </trkpt>
      <trkpt lat="47.865" lon="7.13595">
        <ele>803.79998779297</ele>
        <time>2023-05-21T08:45:35.000Z</time>
      </trkpt>
      <trkpt lat="47.86505" lon="7.13586">
        <ele>804.20001220703</ele>
        <time>2023-05-21T08:45:38.000Z</time>
      </trkpt>
      <trkpt lat="47.86507" lon="7.13583">
        <ele>804.59997558594</ele>
        <time>2023-05-21T08:45:39.000Z</time>
      </trkpt>
      <trkpt lat="47.86509" lon="7.1358">
        <ele>805</ele>
        <time>2023-05-21T08:45:40.000Z</time>
      </trkpt>
      <trkpt lat="47.86511" lon="7.13578">
        <ele>805.59997558594</ele>
        <time>2023-05-21T08:45:41.000Z</time>
      </trkpt>
      <trkpt lat="47.86513" lon="7.13578">
        <ele>806</ele>
        <time>2023-05-21T08:45:42.000Z</time>
      </trkpt>
      <trkpt lat="47.8652" lon="7.13579">
        <ele>806.40002441406</ele>
        <time>2023-05-21T08:45:45.000Z</time>
      </trkpt>
      <trkpt lat="47.86522" lon="7.13581">
        <ele>806.79998779297</ele>
        <time>2023-05-21T08:45:46.000Z</time>
      </trkpt>
      <trkpt lat="47.86524" lon="7.13583">
        <ele>807.20001220703</ele>
        <time>2023-05-21T08:45:47.000Z</time>
      </trkpt>
      <trkpt lat="47.86526" lon="7.13585">
        <ele>807.59997558594</ele>
        <time>2023-05-21T08:45:48.000Z</time>
      </trkpt>
      <trkpt lat="47.86527" lon="7.13587">
        <ele>808.20001220703</ele>
        <time>2023-05-21T08:45:49.000Z</time>
      </trkpt>
      <trkpt lat="47.86533" lon="7.13592">
        <ele>808.20001220703</ele>
        <time>2023-05-21T08:45:53.000Z</time>
      </trkpt>
      <trkpt lat="47.86546" lon="7.13602">
        <ele>808.20001220703</ele>
        <time>2023-05-21T08:45:59.000Z</time>
      </trkpt>
      <trkpt lat="47.86561" lon="7.13614">
        <ele>808.20001220703</ele>
        <time>2023-05-21T08:46:04.000Z</time>
      </trkpt>
      <trkpt lat="47.86584" lon="7.13619">
        <ele>808.20001220703</ele>
        <time>2023-05-21T08:46:10.000Z</time>
      </trkpt>
      <trkpt lat="47.86596" lon="7.13618">
        <ele>807.79998779297</ele>
        <time>2023-05-21T08:46:13.000Z</time>
      </trkpt>
      <trkpt lat="47.866" lon="7.13618">
        <ele>807.40002441406</ele>
        <time>2023-05-21T08:46:14.000Z</time>
      </trkpt>
      <trkpt lat="47.86602" lon="7.13617">
        <ele>807</ele>
        <time>2023-05-21T08:46:15.000Z</time>
      </trkpt>
      <trkpt lat="47.86606" lon="7.13616">
        <ele>806.59997558594</ele>
        <time>2023-05-21T08:46:16.000Z</time>
      </trkpt>
      <trkpt lat="47.8661" lon="7.13615">
        <ele>806.20001220703</ele>
        <time>2023-05-21T08:46:17.000Z</time>
      </trkpt>
      <trkpt lat="47.86631" lon="7.13598">
        <ele>806.20001220703</ele>
        <time>2023-05-21T08:46:22.000Z</time>
      </trkpt>
      <trkpt lat="47.86643" lon="7.13576">
        <ele>806.20001220703</ele>
        <time>2023-05-21T08:46:26.000Z</time>
      </trkpt>
      <trkpt lat="47.86646" lon="7.1357">
        <ele>806.20001220703</ele>
        <time>2023-05-21T08:46:27.000Z</time>
      </trkpt>
      <trkpt lat="47.86657" lon="7.13549">
        <ele>806.20001220703</ele>
        <time>2023-05-21T08:46:31.000Z</time>
      </trkpt>
      <trkpt lat="47.86664" lon="7.13541">
        <ele>806.20001220703</ele>
        <time>2023-05-21T08:46:33.000Z</time>
      </trkpt>
      <trkpt lat="47.86683" lon="7.13532">
        <ele>806.20001220703</ele>
        <time>2023-05-21T08:46:37.000Z</time>
      </trkpt>
      <trkpt lat="47.86687" lon="7.1353">
        <ele>806.20001220703</ele>
        <time>2023-05-21T08:46:38.000Z</time>
      </trkpt>
      <trkpt lat="47.86701" lon="7.1352">
        <ele>806.20001220703</ele>
        <time>2023-05-21T08:46:41.000Z</time>
      </trkpt>
      <trkpt lat="47.86709" lon="7.1351">
        <ele>806.20001220703</ele>
        <time>2023-05-21T08:46:43.000Z</time>
      </trkpt>
      <trkpt lat="47.86711" lon="7.13503">
        <ele>806.20001220703</ele>
        <time>2023-05-21T08:46:44.000Z</time>
      </trkpt>
      <trkpt lat="47.86716" lon="7.13485">
        <ele>806.20001220703</ele>
        <time>2023-05-21T08:46:47.000Z</time>
      </trkpt>
      <trkpt lat="47.86718" lon="7.13471">
        <ele>806.20001220703</ele>
        <time>2023-05-21T08:46:49.000Z</time>
      </trkpt>
      <trkpt lat="47.86718" lon="7.13456">
        <ele>806.20001220703</ele>
        <time>2023-05-21T08:46:51.000Z</time>
      </trkpt>
      <trkpt lat="47.86716" lon="7.13427">
        <ele>806.20001220703</ele>
        <time>2023-05-21T08:46:55.000Z</time>
      </trkpt>
      <trkpt lat="47.86714" lon="7.13414">
        <ele>806.20001220703</ele>
        <time>2023-05-21T08:46:57.000Z</time>
      </trkpt>
      <trkpt lat="47.86708" lon="7.13394">
        <ele>806.20001220703</ele>
        <time>2023-05-21T08:47:00.000Z</time>
      </trkpt>
      <trkpt lat="47.86703" lon="7.13381">
        <ele>806.20001220703</ele>
        <time>2023-05-21T08:47:02.000Z</time>
      </trkpt>
      <trkpt lat="47.867" lon="7.13368">
        <ele>806.20001220703</ele>
        <time>2023-05-21T08:47:04.000Z</time>
      </trkpt>
      <trkpt lat="47.86702" lon="7.13354">
        <ele>806.20001220703</ele>
        <time>2023-05-21T08:47:06.000Z</time>
      </trkpt>
      <trkpt lat="47.86708" lon="7.13336">
        <ele>806.20001220703</ele>
        <time>2023-05-21T08:47:09.000Z</time>
      </trkpt>
      <trkpt lat="47.86711" lon="7.13331">
        <ele>806.20001220703</ele>
        <time>2023-05-21T08:47:10.000Z</time>
      </trkpt>
      <trkpt lat="47.86723" lon="7.13309">
        <ele>806.20001220703</ele>
        <time>2023-05-21T08:47:14.000Z</time>
      </trkpt>
      <trkpt lat="47.86726" lon="7.13302">
        <ele>806.20001220703</ele>
        <time>2023-05-21T08:47:15.000Z</time>
      </trkpt>
      <trkpt lat="47.86745" lon="7.13259">
        <ele>806.20001220703</ele>
        <time>2023-05-21T08:47:22.000Z</time>
      </trkpt>
      <trkpt lat="47.86749" lon="7.1324">
        <ele>806.20001220703</ele>
        <time>2023-05-21T08:47:25.000Z</time>
      </trkpt>
      <trkpt lat="47.8675" lon="7.13221">
        <ele>806.20001220703</ele>
        <time>2023-05-21T08:47:28.000Z</time>
      </trkpt>
      <trkpt lat="47.86752" lon="7.13215">
        <ele>806.20001220703</ele>
        <time>2023-05-21T08:47:29.000Z</time>
      </trkpt>
      <trkpt lat="47.86761" lon="7.13201">
        <ele>806.20001220703</ele>
        <time>2023-05-21T08:47:32.000Z</time>
      </trkpt>
      <trkpt lat="47.86781" lon="7.13172">
        <ele>806.20001220703</ele>
        <time>2023-05-21T08:47:38.000Z</time>
      </trkpt>
      <trkpt lat="47.86783" lon="7.13167">
        <ele>805.59997558594</ele>
        <time>2023-05-21T08:47:39.000Z</time>
      </trkpt>
      <trkpt lat="47.86786" lon="7.13161">
        <ele>805.20001220703</ele>
        <time>2023-05-21T08:47:40.000Z</time>
      </trkpt>
      <trkpt lat="47.86788" lon="7.13154">
        <ele>804.79998779297</ele>
        <time>2023-05-21T08:47:41.000Z</time>
      </trkpt>
      <trkpt lat="47.8679" lon="7.13149">
        <ele>804.40002441406</ele>
        <time>2023-05-21T08:47:42.000Z</time>
      </trkpt>
      <trkpt lat="47.86794" lon="7.13143">
        <ele>804</ele>
        <time>2023-05-21T08:47:43.000Z</time>
      </trkpt>
      <trkpt lat="47.86797" lon="7.13138">
        <ele>804</ele>
        <time>2023-05-21T08:47:44.000Z</time>
      </trkpt>
      <trkpt lat="47.86806" lon="7.13122">
        <ele>804</ele>
        <time>2023-05-21T08:47:47.000Z</time>
      </trkpt>
      <trkpt lat="47.86809" lon="7.13117">
        <ele>804</ele>
        <time>2023-05-21T08:47:48.000Z</time>
      </trkpt>
      <trkpt lat="47.86821" lon="7.131">
        <ele>804</ele>
        <time>2023-05-21T08:47:51.000Z</time>
      </trkpt>
      <trkpt lat="47.86828" lon="7.1309">
        <ele>804</ele>
        <time>2023-05-21T08:47:53.000Z</time>
      </trkpt>
      <trkpt lat="47.86834" lon="7.13079">
        <ele>804</ele>
        <time>2023-05-21T08:47:55.000Z</time>
      </trkpt>
      <trkpt lat="47.86842" lon="7.13066">
        <ele>804</ele>
        <time>2023-05-21T08:47:58.000Z</time>
      </trkpt>
      <trkpt lat="47.8685" lon="7.13064">
        <ele>804</ele>
        <time>2023-05-21T08:48:00.000Z</time>
      </trkpt>
      <trkpt lat="47.86856" lon="7.13066">
        <ele>804</ele>
        <time>2023-05-21T08:48:01.000Z</time>
      </trkpt>
      <trkpt lat="47.86872" lon="7.13082">
        <ele>803.59997558594</ele>
        <time>2023-05-21T08:48:04.000Z</time>
      </trkpt>
      <trkpt lat="47.86875" lon="7.1309">
        <ele>803.20001220703</ele>
        <time>2023-05-21T08:48:05.000Z</time>
      </trkpt>
      <trkpt lat="47.86877" lon="7.13103">
        <ele>802.59997558594</ele>
        <time>2023-05-21T08:48:06.000Z</time>
      </trkpt>
      <trkpt lat="47.86879" lon="7.13116">
        <ele>802</ele>
        <time>2023-05-21T08:48:07.000Z</time>
      </trkpt>
      <trkpt lat="47.86882" lon="7.13129">
        <ele>801.20001220703</ele>
        <time>2023-05-21T08:48:08.000Z</time>
      </trkpt>
      <trkpt lat="47.86885" lon="7.13144">
        <ele>800.20001220703</ele>
        <time>2023-05-21T08:48:09.000Z</time>
      </trkpt>
      <trkpt lat="47.86886" lon="7.13159">
        <ele>799.40002441406</ele>
        <time>2023-05-21T08:48:10.000Z</time>
      </trkpt>
      <trkpt lat="47.86888" lon="7.13176">
        <ele>798.40002441406</ele>
        <time>2023-05-21T08:48:11.000Z</time>
      </trkpt>
      <trkpt lat="47.86888" lon="7.13192">
        <ele>797.40002441406</ele>
        <time>2023-05-21T08:48:12.000Z</time>
      </trkpt>
      <trkpt lat="47.86888" lon="7.13208">
        <ele>796.20001220703</ele>
        <time>2023-05-21T08:48:13.000Z</time>
      </trkpt>
      <trkpt lat="47.86888" lon="7.13226">
        <ele>795.20001220703</ele>
        <time>2023-05-21T08:48:14.000Z</time>
      </trkpt>
      <trkpt lat="47.8689" lon="7.13243">
        <ele>794</ele>
        <time>2023-05-21T08:48:15.000Z</time>
      </trkpt>
      <trkpt lat="47.86893" lon="7.1326">
        <ele>792.79998779297</ele>
        <time>2023-05-21T08:48:16.000Z</time>
      </trkpt>
      <trkpt lat="47.86896" lon="7.13277">
        <ele>791.59997558594</ele>
        <time>2023-05-21T08:48:17.000Z</time>
      </trkpt>
      <trkpt lat="47.869" lon="7.13295">
        <ele>790.40002441406</ele>
        <time>2023-05-21T08:48:18.000Z</time>
      </trkpt>
      <trkpt lat="47.86903" lon="7.13312">
        <ele>789.20001220703</ele>
        <time>2023-05-21T08:48:19.000Z</time>
      </trkpt>
      <trkpt lat="47.86905" lon="7.13329">
        <ele>788</ele>
        <time>2023-05-21T08:48:20.000Z</time>
      </trkpt>
      <trkpt lat="47.86906" lon="7.13347">
        <ele>786.59997558594</ele>
        <time>2023-05-21T08:48:21.000Z</time>
      </trkpt>
      <trkpt lat="47.86906" lon="7.13365">
        <ele>784</ele>
        <time>2023-05-21T08:48:22.000Z</time>
      </trkpt>
      <trkpt lat="47.86907" lon="7.1338">
        <ele>782.59997558594</ele>
        <time>2023-05-21T08:48:23.000Z</time>
      </trkpt>
      <trkpt lat="47.86907" lon="7.13395">
        <ele>781.20001220703</ele>
        <time>2023-05-21T08:48:24.000Z</time>
      </trkpt>
      <trkpt lat="47.86906" lon="7.13409">
        <ele>779.79998779297</ele>
        <time>2023-05-21T08:48:25.000Z</time>
      </trkpt>
      <trkpt lat="47.86906" lon="7.13424">
        <ele>778.40002441406</ele>
        <time>2023-05-21T08:48:26.000Z</time>
      </trkpt>
      <trkpt lat="47.86905" lon="7.13441">
        <ele>777.20001220703</ele>
        <time>2023-05-21T08:48:27.000Z</time>
      </trkpt>
      <trkpt lat="47.86902" lon="7.13458">
        <ele>775.79998779297</ele>
        <time>2023-05-21T08:48:28.000Z</time>
      </trkpt>
      <trkpt lat="47.86898" lon="7.13474">
        <ele>774.59997558594</ele>
        <time>2023-05-21T08:48:29.000Z</time>
      </trkpt>
      <trkpt lat="47.86896" lon="7.13492">
        <ele>773.20001220703</ele>
        <time>2023-05-21T08:48:30.000Z</time>
      </trkpt>
      <trkpt lat="47.86894" lon="7.13508">
        <ele>771.59997558594</ele>
        <time>2023-05-21T08:48:31.000Z</time>
      </trkpt>
      <trkpt lat="47.86893" lon="7.13524">
        <ele>770.20001220703</ele>
        <time>2023-05-21T08:48:32.000Z</time>
      </trkpt>
      <trkpt lat="47.86892" lon="7.1354">
        <ele>768.79998779297</ele>
        <time>2023-05-21T08:48:33.000Z</time>
      </trkpt>
      <trkpt lat="47.86892" lon="7.13558">
        <ele>767.40002441406</ele>
        <time>2023-05-21T08:48:34.000Z</time>
      </trkpt>
      <trkpt lat="47.86891" lon="7.13576">
        <ele>766</ele>
        <time>2023-05-21T08:48:35.000Z</time>
      </trkpt>
      <trkpt lat="47.86891" lon="7.13593">
        <ele>764.40002441406</ele>
        <time>2023-05-21T08:48:36.000Z</time>
      </trkpt>
      <trkpt lat="47.86891" lon="7.1361">
        <ele>763</ele>
        <time>2023-05-21T08:48:37.000Z</time>
      </trkpt>
      <trkpt lat="47.8689" lon="7.13626">
        <ele>761.59997558594</ele>
        <time>2023-05-21T08:48:38.000Z</time>
      </trkpt>
      <trkpt lat="47.86896" lon="7.13639">
        <ele>760</ele>
        <time>2023-05-21T08:48:39.000Z</time>
      </trkpt>
      <trkpt lat="47.86903" lon="7.13651">
        <ele>758.59997558594</ele>
        <time>2023-05-21T08:48:40.000Z</time>
      </trkpt>
      <trkpt lat="47.86908" lon="7.13662">
        <ele>757.20001220703</ele>
        <time>2023-05-21T08:48:41.000Z</time>
      </trkpt>
      <trkpt lat="47.86914" lon="7.13674">
        <ele>756</ele>
        <time>2023-05-21T08:48:42.000Z</time>
      </trkpt>
      <trkpt lat="47.86919" lon="7.13685">
        <ele>754.59997558594</ele>
        <time>2023-05-21T08:48:43.000Z</time>
      </trkpt>
      <trkpt lat="47.86923" lon="7.13698">
        <ele>753.40002441406</ele>
        <time>2023-05-21T08:48:44.000Z</time>
      </trkpt>
      <trkpt lat="47.86924" lon="7.13711">
        <ele>752.20001220703</ele>
        <time>2023-05-21T08:48:45.000Z</time>
      </trkpt>
      <trkpt lat="47.86924" lon="7.13725">
        <ele>751</ele>
        <time>2023-05-21T08:48:46.000Z</time>
      </trkpt>
      <trkpt lat="47.86924" lon="7.13738">
        <ele>749.20001220703</ele>
        <time>2023-05-21T08:48:47.000Z</time>
      </trkpt>
      <trkpt lat="47.86921" lon="7.13748">
        <ele>748.20001220703</ele>
        <time>2023-05-21T08:48:48.000Z</time>
      </trkpt>
      <trkpt lat="47.86916" lon="7.13758">
        <ele>747.40002441406</ele>
        <time>2023-05-21T08:48:49.000Z</time>
      </trkpt>
      <trkpt lat="47.86914" lon="7.13769">
        <ele>746.40002441406</ele>
        <time>2023-05-21T08:48:50.000Z</time>
      </trkpt>
      <trkpt lat="47.86912" lon="7.13781">
        <ele>745.40002441406</ele>
        <time>2023-05-21T08:48:51.000Z</time>
      </trkpt>
      <trkpt lat="47.86912" lon="7.13798">
        <ele>744.40002441406</ele>
        <time>2023-05-21T08:48:52.000Z</time>
      </trkpt>
      <trkpt lat="47.86912" lon="7.13814">
        <ele>743.20001220703</ele>
        <time>2023-05-21T08:48:53.000Z</time>
      </trkpt>
      <trkpt lat="47.86916" lon="7.13832">
        <ele>742</ele>
        <time>2023-05-21T08:48:54.000Z</time>
      </trkpt>
      <trkpt lat="47.8692" lon="7.13851">
        <ele>740.79998779297</ele>
        <time>2023-05-21T08:48:55.000Z</time>
      </trkpt>
      <trkpt lat="47.86924" lon="7.13867">
        <ele>739.59997558594</ele>
        <time>2023-05-21T08:48:56.000Z</time>
      </trkpt>
      <trkpt lat="47.86929" lon="7.13885">
        <ele>738.20001220703</ele>
        <time>2023-05-21T08:48:57.000Z</time>
      </trkpt>
      <trkpt lat="47.86933" lon="7.13901">
        <ele>737</ele>
        <time>2023-05-21T08:48:58.000Z</time>
      </trkpt>
      <trkpt lat="47.86936" lon="7.13918">
        <ele>735.79998779297</ele>
        <time>2023-05-21T08:48:59.000Z</time>
      </trkpt>
      <trkpt lat="47.86938" lon="7.13935">
        <ele>734.59997558594</ele>
        <time>2023-05-21T08:49:00.000Z</time>
      </trkpt>
      <trkpt lat="47.86942" lon="7.13953">
        <ele>733.40002441406</ele>
        <time>2023-05-21T08:49:01.000Z</time>
      </trkpt>
      <trkpt lat="47.86944" lon="7.1397">
        <ele>732.20001220703</ele>
        <time>2023-05-21T08:49:02.000Z</time>
      </trkpt>
      <trkpt lat="47.86945" lon="7.13988">
        <ele>731.20001220703</ele>
        <time>2023-05-21T08:49:03.000Z</time>
      </trkpt>
      <trkpt lat="47.86944" lon="7.14005">
        <ele>730</ele>
        <time>2023-05-21T08:49:04.000Z</time>
      </trkpt>
      <trkpt lat="47.86943" lon="7.14021">
        <ele>729</ele>
        <time>2023-05-21T08:49:05.000Z</time>
      </trkpt>
      <trkpt lat="47.86943" lon="7.14039">
        <ele>727.79998779297</ele>
        <time>2023-05-21T08:49:06.000Z</time>
      </trkpt>
      <trkpt lat="47.86945" lon="7.14056">
        <ele>726.59997558594</ele>
        <time>2023-05-21T08:49:07.000Z</time>
      </trkpt>
      <trkpt lat="47.86945" lon="7.14067">
        <ele>725.20001220703</ele>
        <time>2023-05-21T08:49:08.000Z</time>
      </trkpt>
      <trkpt lat="47.86942" lon="7.14075">
        <ele>724</ele>
        <time>2023-05-21T08:49:09.000Z</time>
      </trkpt>
      <trkpt lat="47.86939" lon="7.14082">
        <ele>722.79998779297</ele>
        <time>2023-05-21T08:49:10.000Z</time>
      </trkpt>
      <trkpt lat="47.86936" lon="7.14084">
        <ele>720.20001220703</ele>
        <time>2023-05-21T08:49:11.000Z</time>
      </trkpt>
      <trkpt lat="47.86933" lon="7.14087">
        <ele>719</ele>
        <time>2023-05-21T08:49:12.000Z</time>
      </trkpt>
      <trkpt lat="47.86924" lon="7.14066">
        <ele>719</ele>
        <time>2023-05-21T08:49:15.000Z</time>
      </trkpt>
      <trkpt lat="47.86921" lon="7.14061">
        <ele>718.59997558594</ele>
        <time>2023-05-21T08:49:16.000Z</time>
      </trkpt>
      <trkpt lat="47.86917" lon="7.14054">
        <ele>718</ele>
        <time>2023-05-21T08:49:17.000Z</time>
      </trkpt>
      <trkpt lat="47.86912" lon="7.14049">
        <ele>717.59997558594</ele>
        <time>2023-05-21T08:49:18.000Z</time>
      </trkpt>
      <trkpt lat="47.86909" lon="7.14046">
        <ele>717.20001220703</ele>
        <time>2023-05-21T08:49:19.000Z</time>
      </trkpt>
      <trkpt lat="47.86907" lon="7.14043">
        <ele>716.79998779297</ele>
        <time>2023-05-21T08:49:20.000Z</time>
      </trkpt>
      <trkpt lat="47.86905" lon="7.14042">
        <ele>716.20001220703</ele>
        <time>2023-05-21T08:49:21.000Z</time>
      </trkpt>
      <trkpt lat="47.86904" lon="7.14039">
        <ele>715.79998779297</ele>
        <time>2023-05-21T08:49:22.000Z</time>
      </trkpt>
      <trkpt lat="47.86902" lon="7.14038">
        <ele>715.40002441406</ele>
        <time>2023-05-21T08:49:23.000Z</time>
      </trkpt>
      <trkpt lat="47.869" lon="7.14037">
        <ele>714.79998779297</ele>
        <time>2023-05-21T08:49:24.000Z</time>
      </trkpt>
      <trkpt lat="47.86899" lon="7.14037">
        <ele>714.40002441406</ele>
        <time>2023-05-21T08:49:25.000Z</time>
      </trkpt>
      <trkpt lat="47.86897" lon="7.14038">
        <ele>714.40002441406</ele>
        <time>2023-05-21T08:49:27.000Z</time>
      </trkpt>
      <trkpt lat="47.86895" lon="7.1404">
        <ele>713.79998779297</ele>
        <time>2023-05-21T08:49:29.000Z</time>
      </trkpt>
      <trkpt lat="47.86894" lon="7.14045">
        <ele>713.40002441406</ele>
        <time>2023-05-21T08:49:30.000Z</time>
      </trkpt>
      <trkpt lat="47.86892" lon="7.14052">
        <ele>712.79998779297</ele>
        <time>2023-05-21T08:49:31.000Z</time>
      </trkpt>
      <trkpt lat="47.8689" lon="7.14061">
        <ele>712.40002441406</ele>
        <time>2023-05-21T08:49:32.000Z</time>
      </trkpt>
      <trkpt lat="47.86888" lon="7.14068">
        <ele>711.79998779297</ele>
        <time>2023-05-21T08:49:33.000Z</time>
      </trkpt>
      <trkpt lat="47.86886" lon="7.14075">
        <ele>711</ele>
        <time>2023-05-21T08:49:34.000Z</time>
      </trkpt>
      <trkpt lat="47.86884" lon="7.14081">
        <ele>710.40002441406</ele>
        <time>2023-05-21T08:49:35.000Z</time>
      </trkpt>
      <trkpt lat="47.8688" lon="7.14086">
        <ele>709</ele>
        <time>2023-05-21T08:49:36.000Z</time>
      </trkpt>
      <trkpt lat="47.86876" lon="7.14091">
        <ele>708.20001220703</ele>
        <time>2023-05-21T08:49:37.000Z</time>
      </trkpt>
      <trkpt lat="47.86872" lon="7.14095">
        <ele>707.20001220703</ele>
        <time>2023-05-21T08:49:38.000Z</time>
      </trkpt>
      <trkpt lat="47.86868" lon="7.14101">
        <ele>706.20001220703</ele>
        <time>2023-05-21T08:49:39.000Z</time>
      </trkpt>
      <trkpt lat="47.86864" lon="7.14106">
        <ele>705</ele>
        <time>2023-05-21T08:49:40.000Z</time>
      </trkpt>
      <trkpt lat="47.86861" lon="7.14114">
        <ele>704</ele>
        <time>2023-05-21T08:49:41.000Z</time>
      </trkpt>
      <trkpt lat="47.86858" lon="7.14121">
        <ele>702.79998779297</ele>
        <time>2023-05-21T08:49:42.000Z</time>
      </trkpt>
      <trkpt lat="47.86854" lon="7.14126">
        <ele>701.79998779297</ele>
        <time>2023-05-21T08:49:43.000Z</time>
      </trkpt>
      <trkpt lat="47.86851" lon="7.14129">
        <ele>700.59997558594</ele>
        <time>2023-05-21T08:49:44.000Z</time>
      </trkpt>
      <trkpt lat="47.86848" lon="7.14133">
        <ele>699.59997558594</ele>
        <time>2023-05-21T08:49:45.000Z</time>
      </trkpt>
      <trkpt lat="47.86845" lon="7.14138">
        <ele>698.59997558594</ele>
        <time>2023-05-21T08:49:46.000Z</time>
      </trkpt>
      <trkpt lat="47.86842" lon="7.14143">
        <ele>697.79998779297</ele>
        <time>2023-05-21T08:49:47.000Z</time>
      </trkpt>
      <trkpt lat="47.86839" lon="7.14147">
        <ele>697</ele>
        <time>2023-05-21T08:49:48.000Z</time>
      </trkpt>
      <trkpt lat="47.86838" lon="7.14152">
        <ele>696</ele>
        <time>2023-05-21T08:49:49.000Z</time>
      </trkpt>
      <trkpt lat="47.86836" lon="7.14155">
        <ele>695.40002441406</ele>
        <time>2023-05-21T08:49:50.000Z</time>
      </trkpt>
      <trkpt lat="47.86834" lon="7.14157">
        <ele>694.79998779297</ele>
        <time>2023-05-21T08:49:51.000Z</time>
      </trkpt>
      <trkpt lat="47.86833" lon="7.14159">
        <ele>694.20001220703</ele>
        <time>2023-05-21T08:49:52.000Z</time>
      </trkpt>
      <trkpt lat="47.86832" lon="7.1417">
        <ele>693</ele>
        <time>2023-05-21T08:50:06.000Z</time>
      </trkpt>
      <trkpt lat="47.86833" lon="7.14175">
        <ele>693</ele>
        <time>2023-05-21T08:50:07.000Z</time>
      </trkpt>
      <trkpt lat="47.86839" lon="7.14207">
        <ele>692.59997558594</ele>
        <time>2023-05-21T08:50:11.000Z</time>
      </trkpt>
      <trkpt lat="47.86841" lon="7.14216">
        <ele>692</ele>
        <time>2023-05-21T08:50:12.000Z</time>
      </trkpt>
      <trkpt lat="47.86843" lon="7.14226">
        <ele>691.59997558594</ele>
        <time>2023-05-21T08:50:13.000Z</time>
      </trkpt>
      <trkpt lat="47.86846" lon="7.14236">
        <ele>691</ele>
        <time>2023-05-21T08:50:14.000Z</time>
      </trkpt>
      <trkpt lat="47.86848" lon="7.14246">
        <ele>690.59997558594</ele>
        <time>2023-05-21T08:50:15.000Z</time>
      </trkpt>
      <trkpt lat="47.8685" lon="7.14258">
        <ele>690</ele>
        <time>2023-05-21T08:50:16.000Z</time>
      </trkpt>
      <trkpt lat="47.86851" lon="7.1427">
        <ele>689.40002441406</ele>
        <time>2023-05-21T08:50:17.000Z</time>
      </trkpt>
      <trkpt lat="47.86852" lon="7.14283">
        <ele>688.59997558594</ele>
        <time>2023-05-21T08:50:18.000Z</time>
      </trkpt>
      <trkpt lat="47.86852" lon="7.14295">
        <ele>688</ele>
        <time>2023-05-21T08:50:19.000Z</time>
      </trkpt>
      <trkpt lat="47.86852" lon="7.14308">
        <ele>687.20001220703</ele>
        <time>2023-05-21T08:50:20.000Z</time>
      </trkpt>
      <trkpt lat="47.86853" lon="7.14322">
        <ele>686.40002441406</ele>
        <time>2023-05-21T08:50:21.000Z</time>
      </trkpt>
      <trkpt lat="47.86852" lon="7.14335">
        <ele>685.59997558594</ele>
        <time>2023-05-21T08:50:22.000Z</time>
      </trkpt>
      <trkpt lat="47.8685" lon="7.14347">
        <ele>684.59997558594</ele>
        <time>2023-05-21T08:50:23.000Z</time>
      </trkpt>
      <trkpt lat="47.86847" lon="7.1436">
        <ele>683.59997558594</ele>
        <time>2023-05-21T08:50:24.000Z</time>
      </trkpt>
      <trkpt lat="47.86844" lon="7.14373">
        <ele>681.79998779297</ele>
        <time>2023-05-21T08:50:25.000Z</time>
      </trkpt>
      <trkpt lat="47.86837" lon="7.14392">
        <ele>680.79998779297</ele>
        <time>2023-05-21T08:50:26.000Z</time>
      </trkpt>
      <trkpt lat="47.86831" lon="7.14409">
        <ele>679.79998779297</ele>
        <time>2023-05-21T08:50:27.000Z</time>
      </trkpt>
      <trkpt lat="47.86825" lon="7.14427">
        <ele>678.79998779297</ele>
        <time>2023-05-21T08:50:28.000Z</time>
      </trkpt>
      <trkpt lat="47.8682" lon="7.14443">
        <ele>677.59997558594</ele>
        <time>2023-05-21T08:50:29.000Z</time>
      </trkpt>
      <trkpt lat="47.86815" lon="7.1446">
        <ele>676.59997558594</ele>
        <time>2023-05-21T08:50:30.000Z</time>
      </trkpt>
      <trkpt lat="47.86812" lon="7.14476">
        <ele>675.40002441406</ele>
        <time>2023-05-21T08:50:31.000Z</time>
      </trkpt>
      <trkpt lat="47.86809" lon="7.14491">
        <ele>674.40002441406</ele>
        <time>2023-05-21T08:50:32.000Z</time>
      </trkpt>
      <trkpt lat="47.86806" lon="7.14505">
        <ele>673.20001220703</ele>
        <time>2023-05-21T08:50:33.000Z</time>
      </trkpt>
      <trkpt lat="47.86804" lon="7.14519">
        <ele>672.20001220703</ele>
        <time>2023-05-21T08:50:34.000Z</time>
      </trkpt>
      <trkpt lat="47.86804" lon="7.14531">
        <ele>671.20001220703</ele>
        <time>2023-05-21T08:50:35.000Z</time>
      </trkpt>
      <trkpt lat="47.86804" lon="7.14542">
        <ele>670.40002441406</ele>
        <time>2023-05-21T08:50:36.000Z</time>
      </trkpt>
      <trkpt lat="47.86805" lon="7.14552">
        <ele>669.79998779297</ele>
        <time>2023-05-21T08:50:37.000Z</time>
      </trkpt>
      <trkpt lat="47.86807" lon="7.14562">
        <ele>669.20001220703</ele>
        <time>2023-05-21T08:50:38.000Z</time>
      </trkpt>
      <trkpt lat="47.86809" lon="7.14571">
        <ele>668.59997558594</ele>
        <time>2023-05-21T08:50:39.000Z</time>
      </trkpt>
      <trkpt lat="47.86811" lon="7.14581">
        <ele>668</ele>
        <time>2023-05-21T08:50:40.000Z</time>
      </trkpt>
      <trkpt lat="47.86821" lon="7.14613">
        <ele>668</ele>
        <time>2023-05-21T08:50:44.000Z</time>
      </trkpt>
      <trkpt lat="47.86829" lon="7.14634">
        <ele>668</ele>
        <time>2023-05-21T08:50:48.000Z</time>
      </trkpt>
      <trkpt lat="47.86835" lon="7.14646">
        <ele>668.40002441406</ele>
        <time>2023-05-21T08:50:50.000Z</time>
      </trkpt>
      <trkpt lat="47.86839" lon="7.14653">
        <ele>668.79998779297</ele>
        <time>2023-05-21T08:50:51.000Z</time>
      </trkpt>
      <trkpt lat="47.86842" lon="7.14659">
        <ele>669.20001220703</ele>
        <time>2023-05-21T08:50:52.000Z</time>
      </trkpt>
      <trkpt lat="47.86845" lon="7.14665">
        <ele>669.79998779297</ele>
        <time>2023-05-21T08:50:53.000Z</time>
      </trkpt>
      <trkpt lat="47.86848" lon="7.14673">
        <ele>670.20001220703</ele>
        <time>2023-05-21T08:50:54.000Z</time>
      </trkpt>
      <trkpt lat="47.86851" lon="7.14678">
        <ele>670.20001220703</ele>
        <time>2023-05-21T08:50:55.000Z</time>
      </trkpt>
      <trkpt lat="47.86858" lon="7.14701">
        <ele>670.59997558594</ele>
        <time>2023-05-21T08:50:58.000Z</time>
      </trkpt>
      <trkpt lat="47.8686" lon="7.14709">
        <ele>671</ele>
        <time>2023-05-21T08:50:59.000Z</time>
      </trkpt>
      <trkpt lat="47.86862" lon="7.14716">
        <ele>671.40002441406</ele>
        <time>2023-05-21T08:51:00.000Z</time>
      </trkpt>
      <trkpt lat="47.86864" lon="7.14723">
        <ele>671.79998779297</ele>
        <time>2023-05-21T08:51:01.000Z</time>
      </trkpt>
      <trkpt lat="47.86865" lon="7.1473">
        <ele>672.20001220703</ele>
        <time>2023-05-21T08:51:02.000Z</time>
      </trkpt>
      <trkpt lat="47.86874" lon="7.14755">
        <ele>672.20001220703</ele>
        <time>2023-05-21T08:51:06.000Z</time>
      </trkpt>
      <trkpt lat="47.86875" lon="7.14766">
        <ele>672.20001220703</ele>
        <time>2023-05-21T08:51:08.000Z</time>
      </trkpt>
      <trkpt lat="47.86872" lon="7.14788">
        <ele>672.20001220703</ele>
        <time>2023-05-21T08:51:12.000Z</time>
      </trkpt>
      <trkpt lat="47.8687" lon="7.14793">
        <ele>672.59997558594</ele>
        <time>2023-05-21T08:51:13.000Z</time>
      </trkpt>
      <trkpt lat="47.86868" lon="7.14798">
        <ele>673</ele>
        <time>2023-05-21T08:51:14.000Z</time>
      </trkpt>
      <trkpt lat="47.86867" lon="7.14803">
        <ele>673.40002441406</ele>
        <time>2023-05-21T08:51:15.000Z</time>
      </trkpt>
      <trkpt lat="47.86865" lon="7.14808">
        <ele>673.79998779297</ele>
        <time>2023-05-21T08:51:16.000Z</time>
      </trkpt>
      <trkpt lat="47.86864" lon="7.14814">
        <ele>674.40002441406</ele>
        <time>2023-05-21T08:51:17.000Z</time>
      </trkpt>
      <trkpt lat="47.8685" lon="7.14832">
        <ele>674.40002441406</ele>
        <time>2023-05-21T08:51:22.000Z</time>
      </trkpt>
      <trkpt lat="47.86843" lon="7.14834">
        <ele>674.79998779297</ele>
        <time>2023-05-21T08:51:24.000Z</time>
      </trkpt>
      <trkpt lat="47.86839" lon="7.14834">
        <ele>675.20001220703</ele>
        <time>2023-05-21T08:51:25.000Z</time>
      </trkpt>
      <trkpt lat="47.86836" lon="7.14833">
        <ele>675.59997558594</ele>
        <time>2023-05-21T08:51:26.000Z</time>
      </trkpt>
      <trkpt lat="47.86832" lon="7.14832">
        <ele>676</ele>
        <time>2023-05-21T08:51:27.000Z</time>
      </trkpt>
      <trkpt lat="47.86829" lon="7.1483">
        <ele>676.40002441406</ele>
        <time>2023-05-21T08:51:28.000Z</time>
      </trkpt>
      <trkpt lat="47.86807" lon="7.14829">
        <ele>676.40002441406</ele>
        <time>2023-05-21T08:51:33.000Z</time>
      </trkpt>
      <trkpt lat="47.86794" lon="7.14841">
        <ele>676.40002441406</ele>
        <time>2023-05-21T08:51:37.000Z</time>
      </trkpt>
      <trkpt lat="47.86791" lon="7.14865">
        <ele>676.40002441406</ele>
        <time>2023-05-21T08:51:41.000Z</time>
      </trkpt>
      <trkpt lat="47.86787" lon="7.14896">
        <ele>676.79998779297</ele>
        <time>2023-05-21T08:51:46.000Z</time>
      </trkpt>
      <trkpt lat="47.86785" lon="7.14901">
        <ele>677.20001220703</ele>
        <time>2023-05-21T08:51:47.000Z</time>
      </trkpt>
      <trkpt lat="47.86781" lon="7.14905">
        <ele>677.59997558594</ele>
        <time>2023-05-21T08:51:48.000Z</time>
      </trkpt>
      <trkpt lat="47.86777" lon="7.14908">
        <ele>678</ele>
        <time>2023-05-21T08:51:49.000Z</time>
      </trkpt>
      <trkpt lat="47.86774" lon="7.1491">
        <ele>678.40002441406</ele>
        <time>2023-05-21T08:51:50.000Z</time>
      </trkpt>
      <trkpt lat="47.86761" lon="7.14909">
        <ele>678.40002441406</ele>
        <time>2023-05-21T08:51:53.000Z</time>
      </trkpt>
      <trkpt lat="47.86747" lon="7.14906">
        <ele>678.40002441406</ele>
        <time>2023-05-21T08:51:56.000Z</time>
      </trkpt>
      <trkpt lat="47.86727" lon="7.14902">
        <ele>678.40002441406</ele>
        <time>2023-05-21T08:52:01.000Z</time>
      </trkpt>
      <trkpt lat="47.86721" lon="7.14902">
        <ele>678.40002441406</ele>
        <time>2023-05-21T08:52:02.000Z</time>
      </trkpt>
      <trkpt lat="47.86709" lon="7.14907">
        <ele>678.40002441406</ele>
        <time>2023-05-21T08:52:04.000Z</time>
      </trkpt>
      <trkpt lat="47.86691" lon="7.14915">
        <ele>678</ele>
        <time>2023-05-21T08:52:07.000Z</time>
      </trkpt>
      <trkpt lat="47.86684" lon="7.14917">
        <ele>677.59997558594</ele>
        <time>2023-05-21T08:52:08.000Z</time>
      </trkpt>
      <trkpt lat="47.86678" lon="7.14919">
        <ele>677.20001220703</ele>
        <time>2023-05-21T08:52:09.000Z</time>
      </trkpt>
      <trkpt lat="47.86672" lon="7.1492">
        <ele>676.79998779297</ele>
        <time>2023-05-21T08:52:10.000Z</time>
      </trkpt>
      <trkpt lat="47.86663" lon="7.1492">
        <ele>676.40002441406</ele>
        <time>2023-05-21T08:52:11.000Z</time>
      </trkpt>
      <trkpt lat="47.86649" lon="7.14919">
        <ele>676.40002441406</ele>
        <time>2023-05-21T08:52:13.000Z</time>
      </trkpt>
      <trkpt lat="47.86642" lon="7.14918">
        <ele>676</ele>
        <time>2023-05-21T08:52:14.000Z</time>
      </trkpt>
      <trkpt lat="47.86636" lon="7.14918">
        <ele>675.59997558594</ele>
        <time>2023-05-21T08:52:15.000Z</time>
      </trkpt>
      <trkpt lat="47.86632" lon="7.14919">
        <ele>675.20001220703</ele>
        <time>2023-05-21T08:52:16.000Z</time>
      </trkpt>
      <trkpt lat="47.8663" lon="7.1492">
        <ele>674.79998779297</ele>
        <time>2023-05-21T08:52:17.000Z</time>
      </trkpt>
      <trkpt lat="47.86627" lon="7.14923">
        <ele>674.40002441406</ele>
        <time>2023-05-21T08:52:18.000Z</time>
      </trkpt>
      <trkpt lat="47.86626" lon="7.14927">
        <ele>674.40002441406</ele>
        <time>2023-05-21T08:52:19.000Z</time>
      </trkpt>
      <trkpt lat="47.86626" lon="7.14932">
        <ele>674.40002441406</ele>
        <time>2023-05-21T08:52:20.000Z</time>
      </trkpt>
      <trkpt lat="47.86628" lon="7.1496">
        <ele>674.40002441406</ele>
        <time>2023-05-21T08:52:26.000Z</time>
      </trkpt>
      <trkpt lat="47.86632" lon="7.14971">
        <ele>674.40002441406</ele>
        <time>2023-05-21T08:52:29.000Z</time>
      </trkpt>
      <trkpt lat="47.86634" lon="7.14976">
        <ele>674.40002441406</ele>
        <time>2023-05-21T08:52:31.000Z</time>
      </trkpt>
      <trkpt lat="47.86637" lon="7.14982">
        <ele>674.40002441406</ele>
        <time>2023-05-21T08:52:33.000Z</time>
      </trkpt>
      <trkpt lat="47.86642" lon="7.14992">
        <ele>674.79998779297</ele>
        <time>2023-05-21T08:52:36.000Z</time>
      </trkpt>
      <trkpt lat="47.86643" lon="7.14996">
        <ele>675.20001220703</ele>
        <time>2023-05-21T08:52:37.000Z</time>
      </trkpt>
      <trkpt lat="47.86645" lon="7.14999">
        <ele>675.59997558594</ele>
        <time>2023-05-21T08:52:38.000Z</time>
      </trkpt>
      <trkpt lat="47.86647" lon="7.15002">
        <ele>676</ele>
        <time>2023-05-21T08:52:39.000Z</time>
      </trkpt>
      <trkpt lat="47.86649" lon="7.15005">
        <ele>676.59997558594</ele>
        <time>2023-05-21T08:52:40.000Z</time>
      </trkpt>
      <trkpt lat="47.86659" lon="7.15019">
        <ele>676.59997558594</ele>
        <time>2023-05-21T08:52:44.000Z</time>
      </trkpt>
      <trkpt lat="47.86662" lon="7.15026">
        <ele>677</ele>
        <time>2023-05-21T08:52:46.000Z</time>
      </trkpt>
      <trkpt lat="47.86663" lon="7.1503">
        <ele>677.40002441406</ele>
        <time>2023-05-21T08:52:47.000Z</time>
      </trkpt>
      <trkpt lat="47.86664" lon="7.15033">
        <ele>677.79998779297</ele>
        <time>2023-05-21T08:52:48.000Z</time>
      </trkpt>
      <trkpt lat="47.86665" lon="7.15036">
        <ele>678.40002441406</ele>
        <time>2023-05-21T08:52:49.000Z</time>
      </trkpt>
      <trkpt lat="47.86666" lon="7.15039">
        <ele>678.79998779297</ele>
        <time>2023-05-21T08:52:50.000Z</time>
      </trkpt>
      <trkpt lat="47.86666" lon="7.15045">
        <ele>678.79998779297</ele>
        <time>2023-05-21T08:52:52.000Z</time>
      </trkpt>
      <trkpt lat="47.86665" lon="7.15049">
        <ele>679.20001220703</ele>
        <time>2023-05-21T08:52:54.000Z</time>
      </trkpt>
      <trkpt lat="47.86664" lon="7.15052">
        <ele>679.59997558594</ele>
        <time>2023-05-21T08:52:55.000Z</time>
      </trkpt>
      <trkpt lat="47.86663" lon="7.15054">
        <ele>680</ele>
        <time>2023-05-21T08:52:56.000Z</time>
      </trkpt>
      <trkpt lat="47.86661" lon="7.15056">
        <ele>680.40002441406</ele>
        <time>2023-05-21T08:52:57.000Z</time>
      </trkpt>
      <trkpt lat="47.86659" lon="7.15059">
        <ele>680.79998779297</ele>
        <time>2023-05-21T08:52:58.000Z</time>
      </trkpt>
      <trkpt lat="47.86652" lon="7.15069">
        <ele>680.79998779297</ele>
        <time>2023-05-21T08:53:01.000Z</time>
      </trkpt>
      <trkpt lat="47.86643" lon="7.15089">
        <ele>681.40002441406</ele>
        <time>2023-05-21T08:53:06.000Z</time>
      </trkpt>
      <trkpt lat="47.86642" lon="7.15093">
        <ele>681.79998779297</ele>
        <time>2023-05-21T08:53:07.000Z</time>
      </trkpt>
      <trkpt lat="47.86641" lon="7.15097">
        <ele>682.20001220703</ele>
        <time>2023-05-21T08:53:08.000Z</time>
      </trkpt>
      <trkpt lat="47.8664" lon="7.15102">
        <ele>682.59997558594</ele>
        <time>2023-05-21T08:53:09.000Z</time>
      </trkpt>
      <trkpt lat="47.86638" lon="7.15106">
        <ele>683</ele>
        <time>2023-05-21T08:53:10.000Z</time>
      </trkpt>
      <trkpt lat="47.86634" lon="7.15118">
        <ele>683</ele>
        <time>2023-05-21T08:53:13.000Z</time>
      </trkpt>
      <trkpt lat="47.86628" lon="7.15142">
        <ele>683</ele>
        <time>2023-05-21T08:53:19.000Z</time>
      </trkpt>
      <trkpt lat="47.86628" lon="7.15146">
        <ele>683.40002441406</ele>
        <time>2023-05-21T08:53:20.000Z</time>
      </trkpt>
      <trkpt lat="47.86628" lon="7.1515">
        <ele>683.79998779297</ele>
        <time>2023-05-21T08:53:21.000Z</time>
      </trkpt>
      <trkpt lat="47.86627" lon="7.15154">
        <ele>684.20001220703</ele>
        <time>2023-05-21T08:53:22.000Z</time>
      </trkpt>
      <trkpt lat="47.86626" lon="7.15157">
        <ele>684.59997558594</ele>
        <time>2023-05-21T08:53:23.000Z</time>
      </trkpt>
      <trkpt lat="47.86626" lon="7.15161">
        <ele>685</ele>
        <time>2023-05-21T08:53:24.000Z</time>
      </trkpt>
      <trkpt lat="47.86626" lon="7.15165">
        <ele>685</ele>
        <time>2023-05-21T08:53:25.000Z</time>
      </trkpt>
      <trkpt lat="47.86624" lon="7.15178">
        <ele>685</ele>
        <time>2023-05-21T08:53:29.000Z</time>
      </trkpt>
      <trkpt lat="47.86627" lon="7.15187">
        <ele>685.40002441406</ele>
        <time>2023-05-21T08:53:32.000Z</time>
      </trkpt>
      <trkpt lat="47.86628" lon="7.15191">
        <ele>686</ele>
        <time>2023-05-21T08:53:33.000Z</time>
      </trkpt>
      <trkpt lat="47.86629" lon="7.15195">
        <ele>686.40002441406</ele>
        <time>2023-05-21T08:53:34.000Z</time>
      </trkpt>
      <trkpt lat="47.86631" lon="7.15197">
        <ele>686.79998779297</ele>
        <time>2023-05-21T08:53:35.000Z</time>
      </trkpt>
      <trkpt lat="47.86633" lon="7.15198">
        <ele>687.20001220703</ele>
        <time>2023-05-21T08:53:36.000Z</time>
      </trkpt>
      <trkpt lat="47.86636" lon="7.15198">
        <ele>687.20001220703</ele>
        <time>2023-05-21T08:53:38.000Z</time>
      </trkpt>
      <trkpt lat="47.86638" lon="7.15197">
        <ele>687.20001220703</ele>
        <time>2023-05-21T08:53:39.000Z</time>
      </trkpt>
      <trkpt lat="47.8665" lon="7.15193">
        <ele>687.20001220703</ele>
        <time>2023-05-21T08:53:43.000Z</time>
      </trkpt>
      <trkpt lat="47.86661" lon="7.15184">
        <ele>687.59997558594</ele>
        <time>2023-05-21T08:53:48.000Z</time>
      </trkpt>
      <trkpt lat="47.86663" lon="7.15181">
        <ele>688</ele>
        <time>2023-05-21T08:53:49.000Z</time>
      </trkpt>
      <trkpt lat="47.86665" lon="7.15179">
        <ele>688.40002441406</ele>
        <time>2023-05-21T08:53:50.000Z</time>
      </trkpt>
      <trkpt lat="47.86667" lon="7.15176">
        <ele>689</ele>
        <time>2023-05-21T08:53:51.000Z</time>
      </trkpt>
      <trkpt lat="47.86669" lon="7.15174">
        <ele>689.40002441406</ele>
        <time>2023-05-21T08:53:52.000Z</time>
      </trkpt>
      <trkpt lat="47.86673" lon="7.1517">
        <ele>689.40002441406</ele>
        <time>2023-05-21T08:53:54.000Z</time>
      </trkpt>
      <trkpt lat="47.86676" lon="7.15169">
        <ele>689.79998779297</ele>
        <time>2023-05-21T08:53:55.000Z</time>
      </trkpt>
      <trkpt lat="47.86679" lon="7.15168">
        <ele>690.20001220703</ele>
        <time>2023-05-21T08:53:56.000Z</time>
      </trkpt>
      <trkpt lat="47.86682" lon="7.15168">
        <ele>690.79998779297</ele>
        <time>2023-05-21T08:53:57.000Z</time>
      </trkpt>
      <trkpt lat="47.86684" lon="7.15168">
        <ele>691.20001220703</ele>
        <time>2023-05-21T08:53:58.000Z</time>
      </trkpt>
      <trkpt lat="47.86686" lon="7.15169">
        <ele>691.59997558594</ele>
        <time>2023-05-21T08:53:59.000Z</time>
      </trkpt>
      <trkpt lat="47.86698" lon="7.15176">
        <ele>691.59997558594</ele>
        <time>2023-05-21T08:54:04.000Z</time>
      </trkpt>
      <trkpt lat="47.86711" lon="7.15191">
        <ele>692</ele>
        <time>2023-05-21T08:54:10.000Z</time>
      </trkpt>
      <trkpt lat="47.86712" lon="7.15194">
        <ele>692.40002441406</ele>
        <time>2023-05-21T08:54:11.000Z</time>
      </trkpt>
      <trkpt lat="47.86714" lon="7.15197">
        <ele>692.79998779297</ele>
        <time>2023-05-21T08:54:12.000Z</time>
      </trkpt>
      <trkpt lat="47.86716" lon="7.152">
        <ele>693.20001220703</ele>
        <time>2023-05-21T08:54:13.000Z</time>
      </trkpt>
      <trkpt lat="47.86718" lon="7.15203">
        <ele>693.59997558594</ele>
        <time>2023-05-21T08:54:14.000Z</time>
      </trkpt>
      <trkpt lat="47.8672" lon="7.15209">
        <ele>693.59997558594</ele>
        <time>2023-05-21T08:54:16.000Z</time>
      </trkpt>
      <trkpt lat="47.86721" lon="7.15216">
        <ele>693.59997558594</ele>
        <time>2023-05-21T08:54:18.000Z</time>
      </trkpt>
      <trkpt lat="47.86723" lon="7.15221">
        <ele>694.20001220703</ele>
        <time>2023-05-21T08:54:20.000Z</time>
      </trkpt>
      <trkpt lat="47.86724" lon="7.15224">
        <ele>694.59997558594</ele>
        <time>2023-05-21T08:54:21.000Z</time>
      </trkpt>
      <trkpt lat="47.86726" lon="7.15227">
        <ele>695</ele>
        <time>2023-05-21T08:54:22.000Z</time>
      </trkpt>
      <trkpt lat="47.86727" lon="7.15229">
        <ele>695.59997558594</ele>
        <time>2023-05-21T08:54:23.000Z</time>
      </trkpt>
      <trkpt lat="47.86729" lon="7.15232">
        <ele>696</ele>
        <time>2023-05-21T08:54:24.000Z</time>
      </trkpt>
      <trkpt lat="47.86731" lon="7.15243">
        <ele>696</ele>
        <time>2023-05-21T08:54:27.000Z</time>
      </trkpt>
      <trkpt lat="47.86733" lon="7.1525">
        <ele>696.40002441406</ele>
        <time>2023-05-21T08:54:29.000Z</time>
      </trkpt>
      <trkpt lat="47.86735" lon="7.15252">
        <ele>696.79998779297</ele>
        <time>2023-05-21T08:54:30.000Z</time>
      </trkpt>
      <trkpt lat="47.86736" lon="7.15255">
        <ele>697.79998779297</ele>
        <time>2023-05-21T08:54:31.000Z</time>
      </trkpt>
      <trkpt lat="47.86737" lon="7.15258">
        <ele>698.20001220703</ele>
        <time>2023-05-21T08:54:32.000Z</time>
      </trkpt>
      <trkpt lat="47.86742" lon="7.15272">
        <ele>698.20001220703</ele>
        <time>2023-05-21T08:54:37.000Z</time>
      </trkpt>
      <trkpt lat="47.86744" lon="7.15273">
        <ele>698.20001220703</ele>
        <time>2023-05-21T08:54:38.000Z</time>
      </trkpt>
      <trkpt lat="47.86746" lon="7.15274">
        <ele>698.59997558594</ele>
        <time>2023-05-21T08:54:39.000Z</time>
      </trkpt>
      <trkpt lat="47.86748" lon="7.15275">
        <ele>699.20001220703</ele>
        <time>2023-05-21T08:54:40.000Z</time>
      </trkpt>
      <trkpt lat="47.8675" lon="7.15275">
        <ele>699.59997558594</ele>
        <time>2023-05-21T08:54:41.000Z</time>
      </trkpt>
      <trkpt lat="47.86752" lon="7.15276">
        <ele>700</ele>
        <time>2023-05-21T08:54:42.000Z</time>
      </trkpt>
      <trkpt lat="47.86753" lon="7.15276">
        <ele>700.40002441406</ele>
        <time>2023-05-21T08:54:43.000Z</time>
      </trkpt>
      <trkpt lat="47.86765" lon="7.1528">
        <ele>700.40002441406</ele>
        <time>2023-05-21T08:54:48.000Z</time>
      </trkpt>
      <trkpt lat="47.86777" lon="7.15286">
        <ele>700.40002441406</ele>
        <time>2023-05-21T08:54:53.000Z</time>
      </trkpt>
      <trkpt lat="47.86792" lon="7.15304">
        <ele>700.40002441406</ele>
        <time>2023-05-21T08:54:59.000Z</time>
      </trkpt>
      <trkpt lat="47.86796" lon="7.15321">
        <ele>700.40002441406</ele>
        <time>2023-05-21T08:55:04.000Z</time>
      </trkpt>
      <trkpt lat="47.86796" lon="7.15325">
        <ele>700.79998779297</ele>
        <time>2023-05-21T08:55:05.000Z</time>
      </trkpt>
      <trkpt lat="47.86797" lon="7.15329">
        <ele>701.20001220703</ele>
        <time>2023-05-21T08:55:06.000Z</time>
      </trkpt>
      <trkpt lat="47.86798" lon="7.15334">
        <ele>701.59997558594</ele>
        <time>2023-05-21T08:55:07.000Z</time>
      </trkpt>
      <trkpt lat="47.86798" lon="7.15338">
        <ele>702</ele>
        <time>2023-05-21T08:55:08.000Z</time>
      </trkpt>
      <trkpt lat="47.86798" lon="7.15342">
        <ele>702.40002441406</ele>
        <time>2023-05-21T08:55:09.000Z</time>
      </trkpt>
      <trkpt lat="47.86798" lon="7.15346">
        <ele>702.40002441406</ele>
        <time>2023-05-21T08:55:10.000Z</time>
      </trkpt>
      <trkpt lat="47.86799" lon="7.15353">
        <ele>702.79998779297</ele>
        <time>2023-05-21T08:55:12.000Z</time>
      </trkpt>
      <trkpt lat="47.86799" lon="7.15356">
        <ele>703.40002441406</ele>
        <time>2023-05-21T08:55:13.000Z</time>
      </trkpt>
      <trkpt lat="47.868" lon="7.1536">
        <ele>703.79998779297</ele>
        <time>2023-05-21T08:55:14.000Z</time>
      </trkpt>
      <trkpt lat="47.868" lon="7.15364">
        <ele>704.20001220703</ele>
        <time>2023-05-21T08:55:15.000Z</time>
      </trkpt>
      <trkpt lat="47.86801" lon="7.15368">
        <ele>704.59997558594</ele>
        <time>2023-05-21T08:55:16.000Z</time>
      </trkpt>
      <trkpt lat="47.86802" lon="7.15372">
        <ele>704.59997558594</ele>
        <time>2023-05-21T08:55:17.000Z</time>
      </trkpt>
      <trkpt lat="47.86802" lon="7.15376">
        <ele>705</ele>
        <time>2023-05-21T08:55:18.000Z</time>
      </trkpt>
      <trkpt lat="47.86803" lon="7.1538">
        <ele>705.59997558594</ele>
        <time>2023-05-21T08:55:19.000Z</time>
      </trkpt>
      <trkpt lat="47.86804" lon="7.15384">
        <ele>706</ele>
        <time>2023-05-21T08:55:20.000Z</time>
      </trkpt>
      <trkpt lat="47.86805" lon="7.15388">
        <ele>706.79998779297</ele>
        <time>2023-05-21T08:55:21.000Z</time>
      </trkpt>
      <trkpt lat="47.86805" lon="7.15399">
        <ele>707.40002441406</ele>
        <time>2023-05-21T08:55:24.000Z</time>
      </trkpt>
      <trkpt lat="47.86806" lon="7.15402">
        <ele>707.79998779297</ele>
        <time>2023-05-21T08:55:25.000Z</time>
      </trkpt>
      <trkpt lat="47.86806" lon="7.15405">
        <ele>708.20001220703</ele>
        <time>2023-05-21T08:55:26.000Z</time>
      </trkpt>
      <trkpt lat="47.86807" lon="7.15408">
        <ele>708.79998779297</ele>
        <time>2023-05-21T08:55:27.000Z</time>
      </trkpt>
      <trkpt lat="47.86807" lon="7.15411">
        <ele>709.20001220703</ele>
        <time>2023-05-21T08:55:28.000Z</time>
      </trkpt>
      <trkpt lat="47.86808" lon="7.15418">
        <ele>709.59997558594</ele>
        <time>2023-05-21T08:55:30.000Z</time>
      </trkpt>
      <trkpt lat="47.86808" lon="7.15421">
        <ele>710.20001220703</ele>
        <time>2023-05-21T08:55:31.000Z</time>
      </trkpt>
      <trkpt lat="47.86809" lon="7.15425">
        <ele>710.59997558594</ele>
        <time>2023-05-21T08:55:32.000Z</time>
      </trkpt>
      <trkpt lat="47.86809" lon="7.15429">
        <ele>711</ele>
        <time>2023-05-21T08:55:33.000Z</time>
      </trkpt>
      <trkpt lat="47.86809" lon="7.15433">
        <ele>711.40002441406</ele>
        <time>2023-05-21T08:55:34.000Z</time>
      </trkpt>
      <trkpt lat="47.86809" lon="7.1544">
        <ele>711.79998779297</ele>
        <time>2023-05-21T08:55:36.000Z</time>
      </trkpt>
      <trkpt lat="47.86809" lon="7.15443">
        <ele>712.40002441406</ele>
        <time>2023-05-21T08:55:37.000Z</time>
      </trkpt>
      <trkpt lat="47.86809" lon="7.15446">
        <ele>712.79998779297</ele>
        <time>2023-05-21T08:55:38.000Z</time>
      </trkpt>
      <trkpt lat="47.86809" lon="7.15449">
        <ele>713.20001220703</ele>
        <time>2023-05-21T08:55:39.000Z</time>
      </trkpt>
      <trkpt lat="47.86809" lon="7.15452">
        <ele>713.59997558594</ele>
        <time>2023-05-21T08:55:40.000Z</time>
      </trkpt>
      <trkpt lat="47.86809" lon="7.15457">
        <ele>714</ele>
        <time>2023-05-21T08:55:42.000Z</time>
      </trkpt>
      <trkpt lat="47.86809" lon="7.15459">
        <ele>714.59997558594</ele>
        <time>2023-05-21T08:55:43.000Z</time>
      </trkpt>
      <trkpt lat="47.86809" lon="7.15463">
        <ele>715</ele>
        <time>2023-05-21T08:55:44.000Z</time>
      </trkpt>
      <trkpt lat="47.86809" lon="7.15466">
        <ele>715.40002441406</ele>
        <time>2023-05-21T08:55:45.000Z</time>
      </trkpt>
      <trkpt lat="47.86808" lon="7.15471">
        <ele>716.20001220703</ele>
        <time>2023-05-21T08:55:46.000Z</time>
      </trkpt>
      <trkpt lat="47.86808" lon="7.15475">
        <ele>716.79998779297</ele>
        <time>2023-05-21T08:55:47.000Z</time>
      </trkpt>
      <trkpt lat="47.86807" lon="7.15479">
        <ele>717.20001220703</ele>
        <time>2023-05-21T08:55:48.000Z</time>
      </trkpt>
      <trkpt lat="47.86807" lon="7.15483">
        <ele>717.59997558594</ele>
        <time>2023-05-21T08:55:49.000Z</time>
      </trkpt>
      <trkpt lat="47.86806" lon="7.15487">
        <ele>718</ele>
        <time>2023-05-21T08:55:50.000Z</time>
      </trkpt>
      <trkpt lat="47.86803" lon="7.15503">
        <ele>718.40002441406</ele>
        <time>2023-05-21T08:55:53.000Z</time>
      </trkpt>
      <trkpt lat="47.86802" lon="7.15508">
        <ele>719</ele>
        <time>2023-05-21T08:55:54.000Z</time>
      </trkpt>
      <trkpt lat="47.86802" lon="7.15512">
        <ele>719.40002441406</ele>
        <time>2023-05-21T08:55:55.000Z</time>
      </trkpt>
      <trkpt lat="47.86801" lon="7.15516">
        <ele>719.79998779297</ele>
        <time>2023-05-21T08:55:56.000Z</time>
      </trkpt>
      <trkpt lat="47.868" lon="7.1552">
        <ele>720.20001220703</ele>
        <time>2023-05-21T08:55:57.000Z</time>
      </trkpt>
      <trkpt lat="47.86796" lon="7.15534">
        <ele>720.59997558594</ele>
        <time>2023-05-21T08:56:01.000Z</time>
      </trkpt>
      <trkpt lat="47.86795" lon="7.15537">
        <ele>721.20001220703</ele>
        <time>2023-05-21T08:56:02.000Z</time>
      </trkpt>
      <trkpt lat="47.86793" lon="7.1554">
        <ele>721.59997558594</ele>
        <time>2023-05-21T08:56:03.000Z</time>
      </trkpt>
      <trkpt lat="47.86791" lon="7.15542">
        <ele>722</ele>
        <time>2023-05-21T08:56:04.000Z</time>
      </trkpt>
      <trkpt lat="47.8679" lon="7.15545">
        <ele>722.40002441406</ele>
        <time>2023-05-21T08:56:05.000Z</time>
      </trkpt>
      <trkpt lat="47.86784" lon="7.15551">
        <ele>722.79998779297</ele>
        <time>2023-05-21T08:56:08.000Z</time>
      </trkpt>
      <trkpt lat="47.86783" lon="7.15553">
        <ele>723.20001220703</ele>
        <time>2023-05-21T08:56:09.000Z</time>
      </trkpt>
      <trkpt lat="47.86781" lon="7.15556">
        <ele>724.20001220703</ele>
        <time>2023-05-21T08:56:10.000Z</time>
      </trkpt>
      <trkpt lat="47.86778" lon="7.15558">
        <ele>724.59997558594</ele>
        <time>2023-05-21T08:56:11.000Z</time>
      </trkpt>
      <trkpt lat="47.86776" lon="7.1556">
        <ele>725</ele>
        <time>2023-05-21T08:56:12.000Z</time>
      </trkpt>
      <trkpt lat="47.86773" lon="7.15563">
        <ele>725.59997558594</ele>
        <time>2023-05-21T08:56:13.000Z</time>
      </trkpt>
      <trkpt lat="47.86771" lon="7.15566">
        <ele>726</ele>
        <time>2023-05-21T08:56:14.000Z</time>
      </trkpt>
      <trkpt lat="47.86769" lon="7.15568">
        <ele>726.40002441406</ele>
        <time>2023-05-21T08:56:15.000Z</time>
      </trkpt>
      <trkpt lat="47.86767" lon="7.1557">
        <ele>727</ele>
        <time>2023-05-21T08:56:16.000Z</time>
      </trkpt>
      <trkpt lat="47.86764" lon="7.15571">
        <ele>727.40002441406</ele>
        <time>2023-05-21T08:56:17.000Z</time>
      </trkpt>
      <trkpt lat="47.86762" lon="7.15571">
        <ele>727.79998779297</ele>
        <time>2023-05-21T08:56:18.000Z</time>
      </trkpt>
      <trkpt lat="47.8676" lon="7.15571">
        <ele>728.40002441406</ele>
        <time>2023-05-21T08:56:19.000Z</time>
      </trkpt>
      <trkpt lat="47.86759" lon="7.1557">
        <ele>728.79998779297</ele>
        <time>2023-05-21T08:56:20.000Z</time>
      </trkpt>
      <trkpt lat="47.86757" lon="7.15569">
        <ele>729.20001220703</ele>
        <time>2023-05-21T08:56:21.000Z</time>
      </trkpt>
      <trkpt lat="47.86756" lon="7.1557">
        <ele>729.20001220703</ele>
        <time>2023-05-21T08:56:22.000Z</time>
      </trkpt>
      <trkpt lat="47.86756" lon="7.15576">
        <ele>729.20001220703</ele>
        <time>2023-05-21T08:58:37.000Z</time>
      </trkpt>
      <trkpt lat="47.86749" lon="7.15588">
        <ele>729.20001220703</ele>
        <time>2023-05-21T08:58:41.000Z</time>
      </trkpt>
      <trkpt lat="47.86743" lon="7.15597">
        <ele>729.20001220703</ele>
        <time>2023-05-21T08:58:43.000Z</time>
      </trkpt>
      <trkpt lat="47.8674" lon="7.15603">
        <ele>729.20001220703</ele>
        <time>2023-05-21T08:58:44.000Z</time>
      </trkpt>
      <trkpt lat="47.86737" lon="7.15609">
        <ele>729.20001220703</ele>
        <time>2023-05-21T08:58:45.000Z</time>
      </trkpt>
      <trkpt lat="47.86732" lon="7.15638">
        <ele>729.20001220703</ele>
        <time>2023-05-21T08:58:49.000Z</time>
      </trkpt>
      <trkpt lat="47.86731" lon="7.15645">
        <ele>728.79998779297</ele>
        <time>2023-05-21T08:58:50.000Z</time>
      </trkpt>
      <trkpt lat="47.8673" lon="7.15651">
        <ele>728.40002441406</ele>
        <time>2023-05-21T08:58:51.000Z</time>
      </trkpt>
      <trkpt lat="47.86728" lon="7.15658">
        <ele>728</ele>
        <time>2023-05-21T08:58:52.000Z</time>
      </trkpt>
      <trkpt lat="47.86728" lon="7.15665">
        <ele>727.59997558594</ele>
        <time>2023-05-21T08:58:53.000Z</time>
      </trkpt>
      <trkpt lat="47.86727" lon="7.15671">
        <ele>727</ele>
        <time>2023-05-21T08:58:54.000Z</time>
      </trkpt>
      <trkpt lat="47.86725" lon="7.15707">
        <ele>727</ele>
        <time>2023-05-21T08:58:59.000Z</time>
      </trkpt>
      <trkpt lat="47.86723" lon="7.15729">
        <ele>727</ele>
        <time>2023-05-21T08:59:01.000Z</time>
      </trkpt>
      <trkpt lat="47.86723" lon="7.1574">
        <ele>726.59997558594</ele>
        <time>2023-05-21T08:59:02.000Z</time>
      </trkpt>
      <trkpt lat="47.86724" lon="7.15751">
        <ele>726.20001220703</ele>
        <time>2023-05-21T08:59:03.000Z</time>
      </trkpt>
      <trkpt lat="47.86725" lon="7.15763">
        <ele>725.79998779297</ele>
        <time>2023-05-21T08:59:04.000Z</time>
      </trkpt>
      <trkpt lat="47.86726" lon="7.15775">
        <ele>725.20001220703</ele>
        <time>2023-05-21T08:59:05.000Z</time>
      </trkpt>
      <trkpt lat="47.86728" lon="7.15788">
        <ele>724.59997558594</ele>
        <time>2023-05-21T08:59:06.000Z</time>
      </trkpt>
      <trkpt lat="47.86732" lon="7.158">
        <ele>723.40002441406</ele>
        <time>2023-05-21T08:59:07.000Z</time>
      </trkpt>
      <trkpt lat="47.86735" lon="7.15812">
        <ele>722.79998779297</ele>
        <time>2023-05-21T08:59:08.000Z</time>
      </trkpt>
      <trkpt lat="47.86739" lon="7.15822">
        <ele>722.40002441406</ele>
        <time>2023-05-21T08:59:09.000Z</time>
      </trkpt>
      <trkpt lat="47.86743" lon="7.15833">
        <ele>722</ele>
        <time>2023-05-21T08:59:10.000Z</time>
      </trkpt>
      <trkpt lat="47.86747" lon="7.15844">
        <ele>721.40002441406</ele>
        <time>2023-05-21T08:59:11.000Z</time>
      </trkpt>
      <trkpt lat="47.86751" lon="7.15855">
        <ele>721</ele>
        <time>2023-05-21T08:59:12.000Z</time>
      </trkpt>
      <trkpt lat="47.86756" lon="7.15864">
        <ele>720.59997558594</ele>
        <time>2023-05-21T08:59:13.000Z</time>
      </trkpt>
      <trkpt lat="47.86777" lon="7.15888">
        <ele>720.59997558594</ele>
        <time>2023-05-21T08:59:16.000Z</time>
      </trkpt>
      <trkpt lat="47.86799" lon="7.15909">
        <ele>720.20001220703</ele>
        <time>2023-05-21T08:59:19.000Z</time>
      </trkpt>
      <trkpt lat="47.86806" lon="7.15915">
        <ele>719.79998779297</ele>
        <time>2023-05-21T08:59:20.000Z</time>
      </trkpt>
      <trkpt lat="47.86813" lon="7.15922">
        <ele>719.20001220703</ele>
        <time>2023-05-21T08:59:21.000Z</time>
      </trkpt>
      <trkpt lat="47.86819" lon="7.1593">
        <ele>718.79998779297</ele>
        <time>2023-05-21T08:59:22.000Z</time>
      </trkpt>
      <trkpt lat="47.86825" lon="7.15938">
        <ele>718.40002441406</ele>
        <time>2023-05-21T08:59:23.000Z</time>
      </trkpt>
      <trkpt lat="47.86853" lon="7.15978">
        <ele>718.40002441406</ele>
        <time>2023-05-21T08:59:28.000Z</time>
      </trkpt>
      <trkpt lat="47.86859" lon="7.15988">
        <ele>718</ele>
        <time>2023-05-21T08:59:29.000Z</time>
      </trkpt>
      <trkpt lat="47.86864" lon="7.15997">
        <ele>717.40002441406</ele>
        <time>2023-05-21T08:59:30.000Z</time>
      </trkpt>
      <trkpt lat="47.86869" lon="7.16007">
        <ele>716.20001220703</ele>
        <time>2023-05-21T08:59:31.000Z</time>
      </trkpt>
      <trkpt lat="47.86872" lon="7.16018">
        <ele>715.59997558594</ele>
        <time>2023-05-21T08:59:32.000Z</time>
      </trkpt>
      <trkpt lat="47.86874" lon="7.16029">
        <ele>714.79998779297</ele>
        <time>2023-05-21T08:59:33.000Z</time>
      </trkpt>
      <trkpt lat="47.86874" lon="7.1604">
        <ele>714.20001220703</ele>
        <time>2023-05-21T08:59:34.000Z</time>
      </trkpt>
      <trkpt lat="47.86873" lon="7.16051">
        <ele>713.59997558594</ele>
        <time>2023-05-21T08:59:35.000Z</time>
      </trkpt>
      <trkpt lat="47.8687" lon="7.16063">
        <ele>713</ele>
        <time>2023-05-21T08:59:36.000Z</time>
      </trkpt>
      <trkpt lat="47.86866" lon="7.16073">
        <ele>712.40002441406</ele>
        <time>2023-05-21T08:59:37.000Z</time>
      </trkpt>
      <trkpt lat="47.86861" lon="7.16081">
        <ele>711.79998779297</ele>
        <time>2023-05-21T08:59:38.000Z</time>
      </trkpt>
      <trkpt lat="47.86854" lon="7.16087">
        <ele>711.20001220703</ele>
        <time>2023-05-21T08:59:39.000Z</time>
      </trkpt>
      <trkpt lat="47.86847" lon="7.16091">
        <ele>710.40002441406</ele>
        <time>2023-05-21T08:59:40.000Z</time>
      </trkpt>
      <trkpt lat="47.86839" lon="7.16093">
        <ele>709.79998779297</ele>
        <time>2023-05-21T08:59:41.000Z</time>
      </trkpt>
      <trkpt lat="47.86831" lon="7.16095">
        <ele>709.20001220703</ele>
        <time>2023-05-21T08:59:42.000Z</time>
      </trkpt>
      <trkpt lat="47.86822" lon="7.16097">
        <ele>708.40002441406</ele>
        <time>2023-05-21T08:59:43.000Z</time>
      </trkpt>
      <trkpt lat="47.86814" lon="7.16099">
        <ele>707.59997558594</ele>
        <time>2023-05-21T08:59:44.000Z</time>
      </trkpt>
      <trkpt lat="47.86806" lon="7.16101">
        <ele>706.79998779297</ele>
        <time>2023-05-21T08:59:45.000Z</time>
      </trkpt>
      <trkpt lat="47.86799" lon="7.16104">
        <ele>706.20001220703</ele>
        <time>2023-05-21T08:59:46.000Z</time>
      </trkpt>
      <trkpt lat="47.86795" lon="7.16107">
        <ele>705.40002441406</ele>
        <time>2023-05-21T08:59:47.000Z</time>
      </trkpt>
      <trkpt lat="47.86791" lon="7.1611">
        <ele>704.79998779297</ele>
        <time>2023-05-21T08:59:48.000Z</time>
      </trkpt>
      <trkpt lat="47.86787" lon="7.16113">
        <ele>704</ele>
        <time>2023-05-21T08:59:49.000Z</time>
      </trkpt>
      <trkpt lat="47.86772" lon="7.16138">
        <ele>704.40002441406</ele>
        <time>2023-05-21T08:59:54.000Z</time>
      </trkpt>
      <trkpt lat="47.8677" lon="7.16144">
        <ele>704.79998779297</ele>
        <time>2023-05-21T08:59:55.000Z</time>
      </trkpt>
      <trkpt lat="47.86767" lon="7.16151">
        <ele>705.59997558594</ele>
        <time>2023-05-21T08:59:56.000Z</time>
      </trkpt>
      <trkpt lat="47.86765" lon="7.16158">
        <ele>706</ele>
        <time>2023-05-21T08:59:57.000Z</time>
      </trkpt>
      <trkpt lat="47.86764" lon="7.16165">
        <ele>706</ele>
        <time>2023-05-21T08:59:58.000Z</time>
      </trkpt>
      <trkpt lat="47.86761" lon="7.1618">
        <ele>706</ele>
        <time>2023-05-21T09:00:00.000Z</time>
      </trkpt>
      <trkpt lat="47.86758" lon="7.16225">
        <ele>706</ele>
        <time>2023-05-21T09:00:05.000Z</time>
      </trkpt>
      <trkpt lat="47.86757" lon="7.16255">
        <ele>705.59997558594</ele>
        <time>2023-05-21T09:00:08.000Z</time>
      </trkpt>
      <trkpt lat="47.86757" lon="7.16265">
        <ele>705.20001220703</ele>
        <time>2023-05-21T09:00:09.000Z</time>
      </trkpt>
      <trkpt lat="47.86757" lon="7.16275">
        <ele>704.79998779297</ele>
        <time>2023-05-21T09:00:10.000Z</time>
      </trkpt>
      <trkpt lat="47.86757" lon="7.16284">
        <ele>704.40002441406</ele>
        <time>2023-05-21T09:00:11.000Z</time>
      </trkpt>
      <trkpt lat="47.86759" lon="7.16291">
        <ele>704</ele>
        <time>2023-05-21T09:00:12.000Z</time>
      </trkpt>
      <trkpt lat="47.86763" lon="7.16307">
        <ele>703.40002441406</ele>
        <time>2023-05-21T09:00:14.000Z</time>
      </trkpt>
      <trkpt lat="47.86765" lon="7.16315">
        <ele>703</ele>
        <time>2023-05-21T09:00:15.000Z</time>
      </trkpt>
      <trkpt lat="47.86768" lon="7.16325">
        <ele>702.59997558594</ele>
        <time>2023-05-21T09:00:16.000Z</time>
      </trkpt>
      <trkpt lat="47.86771" lon="7.16334">
        <ele>702</ele>
        <time>2023-05-21T09:00:17.000Z</time>
      </trkpt>
      <trkpt lat="47.86774" lon="7.16343">
        <ele>701.40002441406</ele>
        <time>2023-05-21T09:00:18.000Z</time>
      </trkpt>
      <trkpt lat="47.86777" lon="7.16349">
        <ele>700.79998779297</ele>
        <time>2023-05-21T09:00:19.000Z</time>
      </trkpt>
      <trkpt lat="47.86779" lon="7.16353">
        <ele>700.20001220703</ele>
        <time>2023-05-21T09:00:20.000Z</time>
      </trkpt>
      <trkpt lat="47.86782" lon="7.16354">
        <ele>699.20001220703</ele>
        <time>2023-05-21T09:00:21.000Z</time>
      </trkpt>
      <trkpt lat="47.86783" lon="7.16355">
        <ele>699.20001220703</ele>
        <time>2023-05-21T09:00:22.000Z</time>
      </trkpt>
      <trkpt lat="47.86786" lon="7.16356">
        <ele>699.20001220703</ele>
        <time>2023-05-21T09:00:24.000Z</time>
      </trkpt>
      <trkpt lat="47.86788" lon="7.16358">
        <ele>698.59997558594</ele>
        <time>2023-05-21T09:00:25.000Z</time>
      </trkpt>
      <trkpt lat="47.86789" lon="7.16361">
        <ele>698.20001220703</ele>
        <time>2023-05-21T09:00:26.000Z</time>
      </trkpt>
      <trkpt lat="47.86792" lon="7.16364">
        <ele>697.79998779297</ele>
        <time>2023-05-21T09:00:27.000Z</time>
      </trkpt>
      <trkpt lat="47.86795" lon="7.1637">
        <ele>697.40002441406</ele>
        <time>2023-05-21T09:00:28.000Z</time>
      </trkpt>
      <trkpt lat="47.868" lon="7.16377">
        <ele>697</ele>
        <time>2023-05-21T09:00:29.000Z</time>
      </trkpt>
      <trkpt lat="47.86804" lon="7.16383">
        <ele>696.40002441406</ele>
        <time>2023-05-21T09:00:30.000Z</time>
      </trkpt>
      <trkpt lat="47.86808" lon="7.16391">
        <ele>696</ele>
        <time>2023-05-21T09:00:31.000Z</time>
      </trkpt>
      <trkpt lat="47.86812" lon="7.16399">
        <ele>695.20001220703</ele>
        <time>2023-05-21T09:00:32.000Z</time>
      </trkpt>
      <trkpt lat="47.86817" lon="7.16408">
        <ele>694.40002441406</ele>
        <time>2023-05-21T09:00:33.000Z</time>
      </trkpt>
      <trkpt lat="47.86821" lon="7.16416">
        <ele>693.59997558594</ele>
        <time>2023-05-21T09:00:34.000Z</time>
      </trkpt>
      <trkpt lat="47.86825" lon="7.16424">
        <ele>692.79998779297</ele>
        <time>2023-05-21T09:00:35.000Z</time>
      </trkpt>
      <trkpt lat="47.86828" lon="7.16432">
        <ele>692</ele>
        <time>2023-05-21T09:00:36.000Z</time>
      </trkpt>
      <trkpt lat="47.86831" lon="7.1644">
        <ele>691.20001220703</ele>
        <time>2023-05-21T09:00:37.000Z</time>
      </trkpt>
      <trkpt lat="47.86834" lon="7.16446">
        <ele>690.40002441406</ele>
        <time>2023-05-21T09:00:38.000Z</time>
      </trkpt>
      <trkpt lat="47.86835" lon="7.16451">
        <ele>689.40002441406</ele>
        <time>2023-05-21T09:00:39.000Z</time>
      </trkpt>
      <trkpt lat="47.86836" lon="7.16456">
        <ele>688.59997558594</ele>
        <time>2023-05-21T09:00:40.000Z</time>
      </trkpt>
      <trkpt lat="47.86838" lon="7.16461">
        <ele>687.79998779297</ele>
        <time>2023-05-21T09:00:41.000Z</time>
      </trkpt>
      <trkpt lat="47.86839" lon="7.16467">
        <ele>687</ele>
        <time>2023-05-21T09:00:42.000Z</time>
      </trkpt>
      <trkpt lat="47.8684" lon="7.16473">
        <ele>686</ele>
        <time>2023-05-21T09:00:43.000Z</time>
      </trkpt>
      <trkpt lat="47.86841" lon="7.16479">
        <ele>684.59997558594</ele>
        <time>2023-05-21T09:00:44.000Z</time>
      </trkpt>
      <trkpt lat="47.86841" lon="7.16484">
        <ele>684</ele>
        <time>2023-05-21T09:00:45.000Z</time>
      </trkpt>
      <trkpt lat="47.86841" lon="7.16489">
        <ele>683.20001220703</ele>
        <time>2023-05-21T09:00:46.000Z</time>
      </trkpt>
      <trkpt lat="47.86842" lon="7.16494">
        <ele>682.59997558594</ele>
        <time>2023-05-21T09:00:47.000Z</time>
      </trkpt>
      <trkpt lat="47.86842" lon="7.16501">
        <ele>681.79998779297</ele>
        <time>2023-05-21T09:00:48.000Z</time>
      </trkpt>
      <trkpt lat="47.86842" lon="7.16507">
        <ele>681.40002441406</ele>
        <time>2023-05-21T09:00:49.000Z</time>
      </trkpt>
      <trkpt lat="47.86843" lon="7.16513">
        <ele>680.79998779297</ele>
        <time>2023-05-21T09:00:50.000Z</time>
      </trkpt>
      <trkpt lat="47.86844" lon="7.16519">
        <ele>680.20001220703</ele>
        <time>2023-05-21T09:00:51.000Z</time>
      </trkpt>
      <trkpt lat="47.86846" lon="7.16525">
        <ele>679.59997558594</ele>
        <time>2023-05-21T09:00:52.000Z</time>
      </trkpt>
      <trkpt lat="47.86849" lon="7.1653">
        <ele>679</ele>
        <time>2023-05-21T09:00:53.000Z</time>
      </trkpt>
      <trkpt lat="47.86851" lon="7.16536">
        <ele>678.40002441406</ele>
        <time>2023-05-21T09:00:54.000Z</time>
      </trkpt>
      <trkpt lat="47.86854" lon="7.16544">
        <ele>677.59997558594</ele>
        <time>2023-05-21T09:00:55.000Z</time>
      </trkpt>
      <trkpt lat="47.86857" lon="7.16552">
        <ele>677</ele>
        <time>2023-05-21T09:00:56.000Z</time>
      </trkpt>
      <trkpt lat="47.8686" lon="7.16561">
        <ele>676.40002441406</ele>
        <time>2023-05-21T09:00:57.000Z</time>
      </trkpt>
      <trkpt lat="47.86863" lon="7.16571">
        <ele>675.79998779297</ele>
        <time>2023-05-21T09:00:58.000Z</time>
      </trkpt>
      <trkpt lat="47.86866" lon="7.16581">
        <ele>675</ele>
        <time>2023-05-21T09:00:59.000Z</time>
      </trkpt>
      <trkpt lat="47.86869" lon="7.16592">
        <ele>674.20001220703</ele>
        <time>2023-05-21T09:01:00.000Z</time>
      </trkpt>
      <trkpt lat="47.86872" lon="7.16601">
        <ele>673.40002441406</ele>
        <time>2023-05-21T09:01:01.000Z</time>
      </trkpt>
      <trkpt lat="47.86874" lon="7.16608">
        <ele>672.59997558594</ele>
        <time>2023-05-21T09:01:02.000Z</time>
      </trkpt>
      <trkpt lat="47.86875" lon="7.16615">
        <ele>671.79998779297</ele>
        <time>2023-05-21T09:01:03.000Z</time>
      </trkpt>
      <trkpt lat="47.86876" lon="7.16621">
        <ele>670.79998779297</ele>
        <time>2023-05-21T09:01:04.000Z</time>
      </trkpt>
      <trkpt lat="47.86875" lon="7.16627">
        <ele>670</ele>
        <time>2023-05-21T09:01:05.000Z</time>
      </trkpt>
      <trkpt lat="47.86874" lon="7.16632">
        <ele>669</ele>
        <time>2023-05-21T09:01:06.000Z</time>
      </trkpt>
      <trkpt lat="47.86872" lon="7.16636">
        <ele>668.20001220703</ele>
        <time>2023-05-21T09:01:07.000Z</time>
      </trkpt>
      <trkpt lat="47.86869" lon="7.16639">
        <ele>667.40002441406</ele>
        <time>2023-05-21T09:01:08.000Z</time>
      </trkpt>
      <trkpt lat="47.86864" lon="7.16643">
        <ele>666</ele>
        <time>2023-05-21T09:01:09.000Z</time>
      </trkpt>
      <trkpt lat="47.86861" lon="7.16647">
        <ele>665.20001220703</ele>
        <time>2023-05-21T09:01:10.000Z</time>
      </trkpt>
      <trkpt lat="47.86857" lon="7.16651">
        <ele>664.59997558594</ele>
        <time>2023-05-21T09:01:11.000Z</time>
      </trkpt>
      <trkpt lat="47.86854" lon="7.16656">
        <ele>663.79998779297</ele>
        <time>2023-05-21T09:01:12.000Z</time>
      </trkpt>
      <trkpt lat="47.86852" lon="7.1666">
        <ele>663.20001220703</ele>
        <time>2023-05-21T09:01:13.000Z</time>
      </trkpt>
      <trkpt lat="47.8685" lon="7.16665">
        <ele>662.40002441406</ele>
        <time>2023-05-21T09:01:14.000Z</time>
      </trkpt>
      <trkpt lat="47.86848" lon="7.16669">
        <ele>661.59997558594</ele>
        <time>2023-05-21T09:01:15.000Z</time>
      </trkpt>
      <trkpt lat="47.86846" lon="7.16672">
        <ele>661</ele>
        <time>2023-05-21T09:01:16.000Z</time>
      </trkpt>
      <trkpt lat="47.86844" lon="7.16675">
        <ele>660.40002441406</ele>
        <time>2023-05-21T09:01:17.000Z</time>
      </trkpt>
      <trkpt lat="47.86844" lon="7.16678">
        <ele>659.59997558594</ele>
        <time>2023-05-21T09:01:18.000Z</time>
      </trkpt>
      <trkpt lat="47.86843" lon="7.16681">
        <ele>659</ele>
        <time>2023-05-21T09:01:19.000Z</time>
      </trkpt>
      <trkpt lat="47.86842" lon="7.16684">
        <ele>658.40002441406</ele>
        <time>2023-05-21T09:01:20.000Z</time>
      </trkpt>
      <trkpt lat="47.86841" lon="7.16688">
        <ele>657.79998779297</ele>
        <time>2023-05-21T09:01:21.000Z</time>
      </trkpt>
      <trkpt lat="47.8684" lon="7.16697">
        <ele>657.40002441406</ele>
        <time>2023-05-21T09:01:23.000Z</time>
      </trkpt>
      <trkpt lat="47.86839" lon="7.16704">
        <ele>656.79998779297</ele>
        <time>2023-05-21T09:01:24.000Z</time>
      </trkpt>
      <trkpt lat="47.86838" lon="7.16709">
        <ele>656.40002441406</ele>
        <time>2023-05-21T09:01:25.000Z</time>
      </trkpt>
      <trkpt lat="47.86837" lon="7.16714">
        <ele>656</ele>
        <time>2023-05-21T09:01:26.000Z</time>
      </trkpt>
      <trkpt lat="47.86835" lon="7.16719">
        <ele>655.40002441406</ele>
        <time>2023-05-21T09:01:27.000Z</time>
      </trkpt>
      <trkpt lat="47.86834" lon="7.16722">
        <ele>654.79998779297</ele>
        <time>2023-05-21T09:01:28.000Z</time>
      </trkpt>
      <trkpt lat="47.86833" lon="7.16725">
        <ele>654.40002441406</ele>
        <time>2023-05-21T09:01:29.000Z</time>
      </trkpt>
      <trkpt lat="47.86832" lon="7.16728">
        <ele>653.79998779297</ele>
        <time>2023-05-21T09:01:30.000Z</time>
      </trkpt>
      <trkpt lat="47.86832" lon="7.1673">
        <ele>653.20001220703</ele>
        <time>2023-05-21T09:01:31.000Z</time>
      </trkpt>
      <trkpt lat="47.86831" lon="7.1673">
        <ele>651.20001220703</ele>
        <time>2023-05-21T09:01:37.000Z</time>
      </trkpt>
      <trkpt lat="47.86829" lon="7.16747">
        <ele>650.59997558594</ele>
        <time>2023-05-21T09:01:40.000Z</time>
      </trkpt>
      <trkpt lat="47.86829" lon="7.16751">
        <ele>650.20001220703</ele>
        <time>2023-05-21T09:01:41.000Z</time>
      </trkpt>
      <trkpt lat="47.86829" lon="7.16756">
        <ele>649.79998779297</ele>
        <time>2023-05-21T09:01:42.000Z</time>
      </trkpt>
      <trkpt lat="47.8683" lon="7.16762">
        <ele>649.40002441406</ele>
        <time>2023-05-21T09:01:43.000Z</time>
      </trkpt>
      <trkpt lat="47.86832" lon="7.16767">
        <ele>648.79998779297</ele>
        <time>2023-05-21T09:01:44.000Z</time>
      </trkpt>
      <trkpt lat="47.86834" lon="7.16775">
        <ele>648.79998779297</ele>
        <time>2023-05-21T09:01:45.000Z</time>
      </trkpt>
      <trkpt lat="47.86836" lon="7.16783">
        <ele>648.40002441406</ele>
        <time>2023-05-21T09:01:46.000Z</time>
      </trkpt>
      <trkpt lat="47.86839" lon="7.16789">
        <ele>647.79998779297</ele>
        <time>2023-05-21T09:01:47.000Z</time>
      </trkpt>
      <trkpt lat="47.86841" lon="7.16796">
        <ele>647.20001220703</ele>
        <time>2023-05-21T09:01:48.000Z</time>
      </trkpt>
      <trkpt lat="47.86843" lon="7.16803">
        <ele>646.59997558594</ele>
        <time>2023-05-21T09:01:49.000Z</time>
      </trkpt>
      <trkpt lat="47.86845" lon="7.16809">
        <ele>646</ele>
        <time>2023-05-21T09:01:50.000Z</time>
      </trkpt>
      <trkpt lat="47.86848" lon="7.16817">
        <ele>645.40002441406</ele>
        <time>2023-05-21T09:01:51.000Z</time>
      </trkpt>
      <trkpt lat="47.86851" lon="7.16823">
        <ele>644.59997558594</ele>
        <time>2023-05-21T09:01:52.000Z</time>
      </trkpt>
      <trkpt lat="47.86854" lon="7.1683">
        <ele>643.79998779297</ele>
        <time>2023-05-21T09:01:53.000Z</time>
      </trkpt>
      <trkpt lat="47.86857" lon="7.16838">
        <ele>643</ele>
        <time>2023-05-21T09:01:54.000Z</time>
      </trkpt>
      <trkpt lat="47.8686" lon="7.16846">
        <ele>642.40002441406</ele>
        <time>2023-05-21T09:01:55.000Z</time>
      </trkpt>
      <trkpt lat="47.86864" lon="7.16853">
        <ele>641.59997558594</ele>
        <time>2023-05-21T09:01:56.000Z</time>
      </trkpt>
      <trkpt lat="47.86868" lon="7.16858">
        <ele>641</ele>
        <time>2023-05-21T09:01:57.000Z</time>
      </trkpt>
      <trkpt lat="47.86871" lon="7.16864">
        <ele>640.40002441406</ele>
        <time>2023-05-21T09:01:58.000Z</time>
      </trkpt>
      <trkpt lat="47.86876" lon="7.16871">
        <ele>638.79998779297</ele>
        <time>2023-05-21T09:01:59.000Z</time>
      </trkpt>
      <trkpt lat="47.86881" lon="7.16878">
        <ele>638</ele>
        <time>2023-05-21T09:02:00.000Z</time>
      </trkpt>
      <trkpt lat="47.86887" lon="7.16885">
        <ele>637</ele>
        <time>2023-05-21T09:02:01.000Z</time>
      </trkpt>
      <trkpt lat="47.86892" lon="7.16892">
        <ele>636</ele>
        <time>2023-05-21T09:02:02.000Z</time>
      </trkpt>
      <trkpt lat="47.86897" lon="7.169">
        <ele>635</ele>
        <time>2023-05-21T09:02:03.000Z</time>
      </trkpt>
      <trkpt lat="47.869" lon="7.16909">
        <ele>634</ele>
        <time>2023-05-21T09:02:04.000Z</time>
      </trkpt>
      <trkpt lat="47.86903" lon="7.16921">
        <ele>633</ele>
        <time>2023-05-21T09:02:05.000Z</time>
      </trkpt>
      <trkpt lat="47.86906" lon="7.16931">
        <ele>631.79998779297</ele>
        <time>2023-05-21T09:02:06.000Z</time>
      </trkpt>
      <trkpt lat="47.86908" lon="7.1694">
        <ele>630.79998779297</ele>
        <time>2023-05-21T09:02:07.000Z</time>
      </trkpt>
      <trkpt lat="47.86909" lon="7.16948">
        <ele>629.79998779297</ele>
        <time>2023-05-21T09:02:08.000Z</time>
      </trkpt>
      <trkpt lat="47.86911" lon="7.16955">
        <ele>628.79998779297</ele>
        <time>2023-05-21T09:02:09.000Z</time>
      </trkpt>
      <trkpt lat="47.86913" lon="7.16963">
        <ele>628</ele>
        <time>2023-05-21T09:02:10.000Z</time>
      </trkpt>
      <trkpt lat="47.86914" lon="7.16969">
        <ele>627.20001220703</ele>
        <time>2023-05-21T09:02:11.000Z</time>
      </trkpt>
      <trkpt lat="47.86915" lon="7.16974">
        <ele>626.20001220703</ele>
        <time>2023-05-21T09:02:12.000Z</time>
      </trkpt>
      <trkpt lat="47.86915" lon="7.16978">
        <ele>625.40002441406</ele>
        <time>2023-05-21T09:02:13.000Z</time>
      </trkpt>
      <trkpt lat="47.86915" lon="7.16982">
        <ele>624.59997558594</ele>
        <time>2023-05-21T09:02:14.000Z</time>
      </trkpt>
      <trkpt lat="47.86915" lon="7.16985">
        <ele>624</ele>
        <time>2023-05-21T09:02:15.000Z</time>
      </trkpt>
      <trkpt lat="47.86915" lon="7.16988">
        <ele>623.40002441406</ele>
        <time>2023-05-21T09:02:16.000Z</time>
      </trkpt>
      <trkpt lat="47.86916" lon="7.16989">
        <ele>622.79998779297</ele>
        <time>2023-05-21T09:02:17.000Z</time>
      </trkpt>
      <trkpt lat="47.86916" lon="7.16989">
        <ele>622.40002441406</ele>
        <time>2023-05-21T09:02:18.000Z</time>
      </trkpt>
      <trkpt lat="47.86917" lon="7.16988">
        <ele>621.79998779297</ele>
        <time>2023-05-21T09:02:36.000Z</time>
      </trkpt>
      <trkpt lat="47.86918" lon="7.16983">
        <ele>621.79998779297</ele>
        <time>2023-05-21T09:02:38.000Z</time>
      </trkpt>
      <trkpt lat="47.8692" lon="7.16981">
        <ele>621.79998779297</ele>
        <time>2023-05-21T09:02:40.000Z</time>
      </trkpt>
      <trkpt lat="47.86921" lon="7.1697">
        <ele>621.79998779297</ele>
        <time>2023-05-21T09:02:53.000Z</time>
      </trkpt>
      <trkpt lat="47.86922" lon="7.16966">
        <ele>621.79998779297</ele>
        <time>2023-05-21T09:02:54.000Z</time>
      </trkpt>
      <trkpt lat="47.86923" lon="7.16959">
        <ele>621.40002441406</ele>
        <time>2023-05-21T09:02:56.000Z</time>
      </trkpt>
      <trkpt lat="47.86923" lon="7.16954">
        <ele>620.79998779297</ele>
        <time>2023-05-21T09:02:57.000Z</time>
      </trkpt>
      <trkpt lat="47.86922" lon="7.16948">
        <ele>620.40002441406</ele>
        <time>2023-05-21T09:02:58.000Z</time>
      </trkpt>
      <trkpt lat="47.86923" lon="7.16942">
        <ele>620</ele>
        <time>2023-05-21T09:02:59.000Z</time>
      </trkpt>
      <trkpt lat="47.86923" lon="7.16936">
        <ele>619.40002441406</ele>
        <time>2023-05-21T09:03:00.000Z</time>
      </trkpt>
      <trkpt lat="47.86924" lon="7.16914">
        <ele>619.40002441406</ele>
        <time>2023-05-21T09:03:03.000Z</time>
      </trkpt>
      <trkpt lat="47.86923" lon="7.16907">
        <ele>619</ele>
        <time>2023-05-21T09:03:04.000Z</time>
      </trkpt>
      <trkpt lat="47.86922" lon="7.16899">
        <ele>618.59997558594</ele>
        <time>2023-05-21T09:03:05.000Z</time>
      </trkpt>
      <trkpt lat="47.86922" lon="7.16893">
        <ele>618.20001220703</ele>
        <time>2023-05-21T09:03:06.000Z</time>
      </trkpt>
      <trkpt lat="47.86921" lon="7.16886">
        <ele>617.79998779297</ele>
        <time>2023-05-21T09:03:07.000Z</time>
      </trkpt>
      <trkpt lat="47.86919" lon="7.16879">
        <ele>617.40002441406</ele>
        <time>2023-05-21T09:03:08.000Z</time>
      </trkpt>
      <trkpt lat="47.8691" lon="7.16844">
        <ele>617.40002441406</ele>
        <time>2023-05-21T09:03:13.000Z</time>
      </trkpt>
      <trkpt lat="47.86908" lon="7.16837">
        <ele>617.40002441406</ele>
        <time>2023-05-21T09:03:14.000Z</time>
      </trkpt>
      <trkpt lat="47.86903" lon="7.16825">
        <ele>617</ele>
        <time>2023-05-21T09:03:16.000Z</time>
      </trkpt>
      <trkpt lat="47.86901" lon="7.16817">
        <ele>616.59997558594</ele>
        <time>2023-05-21T09:03:17.000Z</time>
      </trkpt>
      <trkpt lat="47.869" lon="7.16809">
        <ele>616</ele>
        <time>2023-05-21T09:03:18.000Z</time>
      </trkpt>
      <trkpt lat="47.86901" lon="7.16801">
        <ele>615.59997558594</ele>
        <time>2023-05-21T09:03:19.000Z</time>
      </trkpt>
      <trkpt lat="47.86901" lon="7.16795">
        <ele>615</ele>
        <time>2023-05-21T09:03:20.000Z</time>
      </trkpt>
      <trkpt lat="47.86903" lon="7.1679">
        <ele>614.59997558594</ele>
        <time>2023-05-21T09:03:21.000Z</time>
      </trkpt>
      <trkpt lat="47.86907" lon="7.16786">
        <ele>614</ele>
        <time>2023-05-21T09:03:22.000Z</time>
      </trkpt>
      <trkpt lat="47.86911" lon="7.16782">
        <ele>613.59997558594</ele>
        <time>2023-05-21T09:03:23.000Z</time>
      </trkpt>
      <trkpt lat="47.86916" lon="7.16777">
        <ele>613</ele>
        <time>2023-05-21T09:03:24.000Z</time>
      </trkpt>
      <trkpt lat="47.86922" lon="7.16772">
        <ele>612.20001220703</ele>
        <time>2023-05-21T09:03:25.000Z</time>
      </trkpt>
      <trkpt lat="47.86927" lon="7.16769">
        <ele>611.59997558594</ele>
        <time>2023-05-21T09:03:26.000Z</time>
      </trkpt>
      <trkpt lat="47.86932" lon="7.1677">
        <ele>611</ele>
        <time>2023-05-21T09:03:27.000Z</time>
      </trkpt>
      <trkpt lat="47.86935" lon="7.16774">
        <ele>610.20001220703</ele>
        <time>2023-05-21T09:03:28.000Z</time>
      </trkpt>
      <trkpt lat="47.86936" lon="7.16778">
        <ele>609.59997558594</ele>
        <time>2023-05-21T09:03:29.000Z</time>
      </trkpt>
      <trkpt lat="47.86936" lon="7.16781">
        <ele>608.79998779297</ele>
        <time>2023-05-21T09:03:30.000Z</time>
      </trkpt>
      <trkpt lat="47.86934" lon="7.16785">
        <ele>608</ele>
        <time>2023-05-21T09:03:31.000Z</time>
      </trkpt>
      <trkpt lat="47.86928" lon="7.16791">
        <ele>608</ele>
        <time>2023-05-21T09:03:33.000Z</time>
      </trkpt>
      <trkpt lat="47.86921" lon="7.16805">
        <ele>607.59997558594</ele>
        <time>2023-05-21T09:03:36.000Z</time>
      </trkpt>
      <trkpt lat="47.86919" lon="7.1681">
        <ele>607.20001220703</ele>
        <time>2023-05-21T09:03:37.000Z</time>
      </trkpt>
      <trkpt lat="47.86918" lon="7.16817">
        <ele>606.20001220703</ele>
        <time>2023-05-21T09:03:38.000Z</time>
      </trkpt>
      <trkpt lat="47.86917" lon="7.16823">
        <ele>605.79998779297</ele>
        <time>2023-05-21T09:03:39.000Z</time>
      </trkpt>
      <trkpt lat="47.86915" lon="7.16831">
        <ele>605.40002441406</ele>
        <time>2023-05-21T09:03:40.000Z</time>
      </trkpt>
      <trkpt lat="47.86914" lon="7.16839">
        <ele>605</ele>
        <time>2023-05-21T09:03:41.000Z</time>
      </trkpt>
      <trkpt lat="47.86912" lon="7.16847">
        <ele>604.40002441406</ele>
        <time>2023-05-21T09:03:42.000Z</time>
      </trkpt>
      <trkpt lat="47.86912" lon="7.16857">
        <ele>604</ele>
        <time>2023-05-21T09:03:43.000Z</time>
      </trkpt>
      <trkpt lat="47.86917" lon="7.16867">
        <ele>603.59997558594</ele>
        <time>2023-05-21T09:03:44.000Z</time>
      </trkpt>
      <trkpt lat="47.86923" lon="7.16878">
        <ele>603.59997558594</ele>
        <time>2023-05-21T09:03:45.000Z</time>
      </trkpt>
      <trkpt lat="47.86933" lon="7.16901">
        <ele>603.20001220703</ele>
        <time>2023-05-21T09:03:47.000Z</time>
      </trkpt>
      <trkpt lat="47.86937" lon="7.16912">
        <ele>602.79998779297</ele>
        <time>2023-05-21T09:03:48.000Z</time>
      </trkpt>
      <trkpt lat="47.8694" lon="7.16923">
        <ele>602.20001220703</ele>
        <time>2023-05-21T09:03:49.000Z</time>
      </trkpt>
      <trkpt lat="47.86943" lon="7.16933">
        <ele>601.79998779297</ele>
        <time>2023-05-21T09:03:50.000Z</time>
      </trkpt>
      <trkpt lat="47.86945" lon="7.16945">
        <ele>601.40002441406</ele>
        <time>2023-05-21T09:03:51.000Z</time>
      </trkpt>
      <trkpt lat="47.86947" lon="7.16956">
        <ele>601</ele>
        <time>2023-05-21T09:03:52.000Z</time>
      </trkpt>
      <trkpt lat="47.86948" lon="7.16967">
        <ele>600.59997558594</ele>
        <time>2023-05-21T09:03:53.000Z</time>
      </trkpt>
      <trkpt lat="47.86949" lon="7.16978">
        <ele>600.20001220703</ele>
        <time>2023-05-21T09:03:54.000Z</time>
      </trkpt>
      <trkpt lat="47.8695" lon="7.1699">
        <ele>599.79998779297</ele>
        <time>2023-05-21T09:03:55.000Z</time>
      </trkpt>
      <trkpt lat="47.86951" lon="7.17001">
        <ele>599.40002441406</ele>
        <time>2023-05-21T09:03:56.000Z</time>
      </trkpt>
      <trkpt lat="47.86952" lon="7.17013">
        <ele>599.40002441406</ele>
        <time>2023-05-21T09:03:57.000Z</time>
      </trkpt>
      <trkpt lat="47.86953" lon="7.17025">
        <ele>598.79998779297</ele>
        <time>2023-05-21T09:03:58.000Z</time>
      </trkpt>
      <trkpt lat="47.86955" lon="7.17037">
        <ele>598.40002441406</ele>
        <time>2023-05-21T09:03:59.000Z</time>
      </trkpt>
      <trkpt lat="47.86956" lon="7.1705">
        <ele>598</ele>
        <time>2023-05-21T09:04:00.000Z</time>
      </trkpt>
      <trkpt lat="47.86956" lon="7.17063">
        <ele>597.59997558594</ele>
        <time>2023-05-21T09:04:01.000Z</time>
      </trkpt>
      <trkpt lat="47.86956" lon="7.17075">
        <ele>597</ele>
        <time>2023-05-21T09:04:02.000Z</time>
      </trkpt>
      <trkpt lat="47.86954" lon="7.17085">
        <ele>596.59997558594</ele>
        <time>2023-05-21T09:04:03.000Z</time>
      </trkpt>
      <trkpt lat="47.86952" lon="7.17092">
        <ele>596.20001220703</ele>
        <time>2023-05-21T09:04:04.000Z</time>
      </trkpt>
      <trkpt lat="47.8695" lon="7.17099">
        <ele>595.79998779297</ele>
        <time>2023-05-21T09:04:05.000Z</time>
      </trkpt>
      <trkpt lat="47.86947" lon="7.17106">
        <ele>595.40002441406</ele>
        <time>2023-05-21T09:04:06.000Z</time>
      </trkpt>
      <trkpt lat="47.86945" lon="7.17113">
        <ele>594.79998779297</ele>
        <time>2023-05-21T09:04:07.000Z</time>
      </trkpt>
      <trkpt lat="47.8694" lon="7.17129">
        <ele>594.79998779297</ele>
        <time>2023-05-21T09:04:09.000Z</time>
      </trkpt>
      <trkpt lat="47.86939" lon="7.17139">
        <ele>594.79998779297</ele>
        <time>2023-05-21T09:04:10.000Z</time>
      </trkpt>
      <trkpt lat="47.86938" lon="7.17149">
        <ele>594.40002441406</ele>
        <time>2023-05-21T09:04:11.000Z</time>
      </trkpt>
      <trkpt lat="47.86938" lon="7.1716">
        <ele>594</ele>
        <time>2023-05-21T09:04:12.000Z</time>
      </trkpt>
      <trkpt lat="47.86937" lon="7.1717">
        <ele>593.40002441406</ele>
        <time>2023-05-21T09:04:13.000Z</time>
      </trkpt>
      <trkpt lat="47.86939" lon="7.17181">
        <ele>593</ele>
        <time>2023-05-21T09:04:14.000Z</time>
      </trkpt>
      <trkpt lat="47.8694" lon="7.17192">
        <ele>592.59997558594</ele>
        <time>2023-05-21T09:04:15.000Z</time>
      </trkpt>
      <trkpt lat="47.86943" lon="7.17214">
        <ele>592</ele>
        <time>2023-05-21T09:04:17.000Z</time>
      </trkpt>
      <trkpt lat="47.86945" lon="7.17225">
        <ele>591.59997558594</ele>
        <time>2023-05-21T09:04:18.000Z</time>
      </trkpt>
      <trkpt lat="47.86946" lon="7.17236">
        <ele>591.20001220703</ele>
        <time>2023-05-21T09:04:19.000Z</time>
      </trkpt>
      <trkpt lat="47.86948" lon="7.17248">
        <ele>590.59997558594</ele>
        <time>2023-05-21T09:04:20.000Z</time>
      </trkpt>
      <trkpt lat="47.86949" lon="7.17261">
        <ele>590.20001220703</ele>
        <time>2023-05-21T09:04:21.000Z</time>
      </trkpt>
      <trkpt lat="47.86954" lon="7.17316">
        <ele>589.79998779297</ele>
        <time>2023-05-21T09:04:25.000Z</time>
      </trkpt>
      <trkpt lat="47.86955" lon="7.1733">
        <ele>589.20001220703</ele>
        <time>2023-05-21T09:04:26.000Z</time>
      </trkpt>
      <trkpt lat="47.86957" lon="7.17342">
        <ele>588.20001220703</ele>
        <time>2023-05-21T09:04:27.000Z</time>
      </trkpt>
      <trkpt lat="47.86958" lon="7.17356">
        <ele>587.59997558594</ele>
        <time>2023-05-21T09:04:28.000Z</time>
      </trkpt>
      <trkpt lat="47.86958" lon="7.17369">
        <ele>587.20001220703</ele>
        <time>2023-05-21T09:04:29.000Z</time>
      </trkpt>
      <trkpt lat="47.86958" lon="7.17383">
        <ele>586.59997558594</ele>
        <time>2023-05-21T09:04:30.000Z</time>
      </trkpt>
      <trkpt lat="47.86958" lon="7.17396">
        <ele>586</ele>
        <time>2023-05-21T09:04:31.000Z</time>
      </trkpt>
      <trkpt lat="47.86957" lon="7.17409">
        <ele>585.59997558594</ele>
        <time>2023-05-21T09:04:32.000Z</time>
      </trkpt>
      <trkpt lat="47.86956" lon="7.17423">
        <ele>585.20001220703</ele>
        <time>2023-05-21T09:04:33.000Z</time>
      </trkpt>
      <trkpt lat="47.86955" lon="7.17436">
        <ele>584.79998779297</ele>
        <time>2023-05-21T09:04:34.000Z</time>
      </trkpt>
      <trkpt lat="47.86952" lon="7.17447">
        <ele>584.20001220703</ele>
        <time>2023-05-21T09:04:35.000Z</time>
      </trkpt>
      <trkpt lat="47.86948" lon="7.17458">
        <ele>583.79998779297</ele>
        <time>2023-05-21T09:04:36.000Z</time>
      </trkpt>
      <trkpt lat="47.86943" lon="7.17468">
        <ele>583.40002441406</ele>
        <time>2023-05-21T09:04:37.000Z</time>
      </trkpt>
      <trkpt lat="47.86935" lon="7.17476">
        <ele>583</ele>
        <time>2023-05-21T09:04:38.000Z</time>
      </trkpt>
      <trkpt lat="47.86927" lon="7.17482">
        <ele>582.40002441406</ele>
        <time>2023-05-21T09:04:39.000Z</time>
      </trkpt>
      <trkpt lat="47.86919" lon="7.17486">
        <ele>582</ele>
        <time>2023-05-21T09:04:40.000Z</time>
      </trkpt>
      <trkpt lat="47.86909" lon="7.1749">
        <ele>581.40002441406</ele>
        <time>2023-05-21T09:04:41.000Z</time>
      </trkpt>
      <trkpt lat="47.86901" lon="7.17494">
        <ele>580.79998779297</ele>
        <time>2023-05-21T09:04:42.000Z</time>
      </trkpt>
      <trkpt lat="47.86893" lon="7.17499">
        <ele>580.40002441406</ele>
        <time>2023-05-21T09:04:43.000Z</time>
      </trkpt>
      <trkpt lat="47.86886" lon="7.17506">
        <ele>580</ele>
        <time>2023-05-21T09:04:44.000Z</time>
      </trkpt>
      <trkpt lat="47.86879" lon="7.17515">
        <ele>579.59997558594</ele>
        <time>2023-05-21T09:04:45.000Z</time>
      </trkpt>
      <trkpt lat="47.86872" lon="7.17525">
        <ele>579.20001220703</ele>
        <time>2023-05-21T09:04:46.000Z</time>
      </trkpt>
      <trkpt lat="47.86865" lon="7.17536">
        <ele>578.59997558594</ele>
        <time>2023-05-21T09:04:47.000Z</time>
      </trkpt>
      <trkpt lat="47.8686" lon="7.17548">
        <ele>578.20001220703</ele>
        <time>2023-05-21T09:04:48.000Z</time>
      </trkpt>
      <trkpt lat="47.86856" lon="7.17559">
        <ele>577.59997558594</ele>
        <time>2023-05-21T09:04:49.000Z</time>
      </trkpt>
      <trkpt lat="47.86851" lon="7.17568">
        <ele>577.20001220703</ele>
        <time>2023-05-21T09:04:50.000Z</time>
      </trkpt>
      <trkpt lat="47.86846" lon="7.17574">
        <ele>576.79998779297</ele>
        <time>2023-05-21T09:04:51.000Z</time>
      </trkpt>
      <trkpt lat="47.86841" lon="7.17578">
        <ele>575.79998779297</ele>
        <time>2023-05-21T09:04:52.000Z</time>
      </trkpt>
      <trkpt lat="47.86834" lon="7.17579">
        <ele>575.40002441406</ele>
        <time>2023-05-21T09:04:53.000Z</time>
      </trkpt>
      <trkpt lat="47.86828" lon="7.17578">
        <ele>575</ele>
        <time>2023-05-21T09:04:54.000Z</time>
      </trkpt>
      <trkpt lat="47.8682" lon="7.17578">
        <ele>574.59997558594</ele>
        <time>2023-05-21T09:04:55.000Z</time>
      </trkpt>
      <trkpt lat="47.86813" lon="7.17578">
        <ele>574</ele>
        <time>2023-05-21T09:04:56.000Z</time>
      </trkpt>
      <trkpt lat="47.86798" lon="7.17576">
        <ele>573.59997558594</ele>
        <time>2023-05-21T09:04:58.000Z</time>
      </trkpt>
      <trkpt lat="47.8679" lon="7.17573">
        <ele>573.20001220703</ele>
        <time>2023-05-21T09:04:59.000Z</time>
      </trkpt>
      <trkpt lat="47.86782" lon="7.17569">
        <ele>572.79998779297</ele>
        <time>2023-05-21T09:05:00.000Z</time>
      </trkpt>
      <trkpt lat="47.86774" lon="7.17565">
        <ele>572.20001220703</ele>
        <time>2023-05-21T09:05:01.000Z</time>
      </trkpt>
      <trkpt lat="47.86767" lon="7.17562">
        <ele>571.79998779297</ele>
        <time>2023-05-21T09:05:02.000Z</time>
      </trkpt>
      <trkpt lat="47.86761" lon="7.1756">
        <ele>571.40002441406</ele>
        <time>2023-05-21T09:05:03.000Z</time>
      </trkpt>
      <trkpt lat="47.86757" lon="7.17561">
        <ele>571</ele>
        <time>2023-05-21T09:05:04.000Z</time>
      </trkpt>
      <trkpt lat="47.86755" lon="7.17564">
        <ele>570.59997558594</ele>
        <time>2023-05-21T09:05:05.000Z</time>
      </trkpt>
      <trkpt lat="47.86755" lon="7.1757">
        <ele>570.20001220703</ele>
        <time>2023-05-21T09:05:06.000Z</time>
      </trkpt>
      <trkpt lat="47.86756" lon="7.17576">
        <ele>569.79998779297</ele>
        <time>2023-05-21T09:05:07.000Z</time>
      </trkpt>
      <trkpt lat="47.86759" lon="7.17605">
        <ele>569.40002441406</ele>
        <time>2023-05-21T09:05:10.000Z</time>
      </trkpt>
      <trkpt lat="47.86761" lon="7.17616">
        <ele>569</ele>
        <time>2023-05-21T09:05:11.000Z</time>
      </trkpt>
      <trkpt lat="47.86765" lon="7.17627">
        <ele>568.59997558594</ele>
        <time>2023-05-21T09:05:12.000Z</time>
      </trkpt>
      <trkpt lat="47.8677" lon="7.17642">
        <ele>568.20001220703</ele>
        <time>2023-05-21T09:05:13.000Z</time>
      </trkpt>
      <trkpt lat="47.86774" lon="7.17656">
        <ele>567.59997558594</ele>
        <time>2023-05-21T09:05:14.000Z</time>
      </trkpt>
      <trkpt lat="47.86778" lon="7.17669">
        <ele>567</ele>
        <time>2023-05-21T09:05:15.000Z</time>
      </trkpt>
      <trkpt lat="47.86781" lon="7.17683">
        <ele>566.40002441406</ele>
        <time>2023-05-21T09:05:16.000Z</time>
      </trkpt>
      <trkpt lat="47.86784" lon="7.17699">
        <ele>565</ele>
        <time>2023-05-21T09:05:17.000Z</time>
      </trkpt>
      <trkpt lat="47.86787" lon="7.17715">
        <ele>564</ele>
        <time>2023-05-21T09:05:18.000Z</time>
      </trkpt>
      <trkpt lat="47.8679" lon="7.17732">
        <ele>563.20001220703</ele>
        <time>2023-05-21T09:05:19.000Z</time>
      </trkpt>
      <trkpt lat="47.86793" lon="7.17749">
        <ele>562.40002441406</ele>
        <time>2023-05-21T09:05:20.000Z</time>
      </trkpt>
      <trkpt lat="47.86796" lon="7.17767">
        <ele>561.40002441406</ele>
        <time>2023-05-21T09:05:21.000Z</time>
      </trkpt>
      <trkpt lat="47.86798" lon="7.17783">
        <ele>560.40002441406</ele>
        <time>2023-05-21T09:05:22.000Z</time>
      </trkpt>
      <trkpt lat="47.86799" lon="7.17799">
        <ele>559.40002441406</ele>
        <time>2023-05-21T09:05:23.000Z</time>
      </trkpt>
      <trkpt lat="47.86799" lon="7.17815">
        <ele>558.59997558594</ele>
        <time>2023-05-21T09:05:24.000Z</time>
      </trkpt>
      <trkpt lat="47.86799" lon="7.17832">
        <ele>557.79998779297</ele>
        <time>2023-05-21T09:05:25.000Z</time>
      </trkpt>
      <trkpt lat="47.86799" lon="7.1785">
        <ele>556.79998779297</ele>
        <time>2023-05-21T09:05:26.000Z</time>
      </trkpt>
      <trkpt lat="47.86799" lon="7.17867">
        <ele>555.79998779297</ele>
        <time>2023-05-21T09:05:27.000Z</time>
      </trkpt>
      <trkpt lat="47.86799" lon="7.17884">
        <ele>554.79998779297</ele>
        <time>2023-05-21T09:05:28.000Z</time>
      </trkpt>
      <trkpt lat="47.86799" lon="7.179">
        <ele>553.79998779297</ele>
        <time>2023-05-21T09:05:29.000Z</time>
      </trkpt>
      <trkpt lat="47.868" lon="7.17917">
        <ele>552.79998779297</ele>
        <time>2023-05-21T09:05:30.000Z</time>
      </trkpt>
      <trkpt lat="47.86799" lon="7.17933">
        <ele>551.79998779297</ele>
        <time>2023-05-21T09:05:31.000Z</time>
      </trkpt>
      <trkpt lat="47.86798" lon="7.1795">
        <ele>550.59997558594</ele>
        <time>2023-05-21T09:05:32.000Z</time>
      </trkpt>
      <trkpt lat="47.86798" lon="7.17968">
        <ele>549.40002441406</ele>
        <time>2023-05-21T09:05:33.000Z</time>
      </trkpt>
      <trkpt lat="47.86798" lon="7.17984">
        <ele>548.40002441406</ele>
        <time>2023-05-21T09:05:34.000Z</time>
      </trkpt>
      <trkpt lat="47.86798" lon="7.18001">
        <ele>547.20001220703</ele>
        <time>2023-05-21T09:05:35.000Z</time>
      </trkpt>
      <trkpt lat="47.86797" lon="7.18019">
        <ele>546</ele>
        <time>2023-05-21T09:05:36.000Z</time>
      </trkpt>
      <trkpt lat="47.86794" lon="7.18037">
        <ele>544.79998779297</ele>
        <time>2023-05-21T09:05:37.000Z</time>
      </trkpt>
      <trkpt lat="47.86791" lon="7.18055">
        <ele>543.79998779297</ele>
        <time>2023-05-21T09:05:38.000Z</time>
      </trkpt>
      <trkpt lat="47.86786" lon="7.18072">
        <ele>542.59997558594</ele>
        <time>2023-05-21T09:05:39.000Z</time>
      </trkpt>
      <trkpt lat="47.8678" lon="7.1809">
        <ele>541.40002441406</ele>
        <time>2023-05-21T09:05:40.000Z</time>
      </trkpt>
      <trkpt lat="47.86772" lon="7.18106">
        <ele>539.20001220703</ele>
        <time>2023-05-21T09:05:41.000Z</time>
      </trkpt>
      <trkpt lat="47.86764" lon="7.18121">
        <ele>538.20001220703</ele>
        <time>2023-05-21T09:05:42.000Z</time>
      </trkpt>
      <trkpt lat="47.86756" lon="7.18134">
        <ele>537.40002441406</ele>
        <time>2023-05-21T09:05:43.000Z</time>
      </trkpt>
      <trkpt lat="47.86747" lon="7.18147">
        <ele>536.40002441406</ele>
        <time>2023-05-21T09:05:44.000Z</time>
      </trkpt>
      <trkpt lat="47.86738" lon="7.18157">
        <ele>535.59997558594</ele>
        <time>2023-05-21T09:05:45.000Z</time>
      </trkpt>
      <trkpt lat="47.86731" lon="7.18165">
        <ele>534.79998779297</ele>
        <time>2023-05-21T09:05:46.000Z</time>
      </trkpt>
      <trkpt lat="47.86726" lon="7.18171">
        <ele>534</ele>
        <time>2023-05-21T09:05:47.000Z</time>
      </trkpt>
      <trkpt lat="47.86724" lon="7.18176">
        <ele>533.20001220703</ele>
        <time>2023-05-21T09:05:48.000Z</time>
      </trkpt>
      <trkpt lat="47.86723" lon="7.18182">
        <ele>532.59997558594</ele>
        <time>2023-05-21T09:05:49.000Z</time>
      </trkpt>
      <trkpt lat="47.86724" lon="7.18204">
        <ele>532.20001220703</ele>
        <time>2023-05-21T09:05:52.000Z</time>
      </trkpt>
      <trkpt lat="47.86727" lon="7.18209">
        <ele>531.79998779297</ele>
        <time>2023-05-21T09:05:53.000Z</time>
      </trkpt>
      <trkpt lat="47.8673" lon="7.18212">
        <ele>531.20001220703</ele>
        <time>2023-05-21T09:05:54.000Z</time>
      </trkpt>
      <trkpt lat="47.86733" lon="7.18214">
        <ele>530.79998779297</ele>
        <time>2023-05-21T09:05:55.000Z</time>
      </trkpt>
      <trkpt lat="47.86739" lon="7.18214">
        <ele>530.40002441406</ele>
        <time>2023-05-21T09:05:56.000Z</time>
      </trkpt>
      <trkpt lat="47.86746" lon="7.18214">
        <ele>529.79998779297</ele>
        <time>2023-05-21T09:05:57.000Z</time>
      </trkpt>
      <trkpt lat="47.86753" lon="7.18213">
        <ele>529.40002441406</ele>
        <time>2023-05-21T09:05:58.000Z</time>
      </trkpt>
      <trkpt lat="47.86761" lon="7.18212">
        <ele>528.79998779297</ele>
        <time>2023-05-21T09:05:59.000Z</time>
      </trkpt>
      <trkpt lat="47.86769" lon="7.18212">
        <ele>528.20001220703</ele>
        <time>2023-05-21T09:06:00.000Z</time>
      </trkpt>
      <trkpt lat="47.86777" lon="7.18213">
        <ele>527.59997558594</ele>
        <time>2023-05-21T09:06:01.000Z</time>
      </trkpt>
      <trkpt lat="47.86786" lon="7.18213">
        <ele>527</ele>
        <time>2023-05-21T09:06:02.000Z</time>
      </trkpt>
      <trkpt lat="47.86795" lon="7.18214">
        <ele>526.40002441406</ele>
        <time>2023-05-21T09:06:03.000Z</time>
      </trkpt>
      <trkpt lat="47.86804" lon="7.18215">
        <ele>525.79998779297</ele>
        <time>2023-05-21T09:06:04.000Z</time>
      </trkpt>
      <trkpt lat="47.86813" lon="7.18216">
        <ele>525.20001220703</ele>
        <time>2023-05-21T09:06:05.000Z</time>
      </trkpt>
      <trkpt lat="47.86822" lon="7.18215">
        <ele>524</ele>
        <time>2023-05-21T09:06:06.000Z</time>
      </trkpt>
      <trkpt lat="47.86831" lon="7.18213">
        <ele>523.40002441406</ele>
        <time>2023-05-21T09:06:07.000Z</time>
      </trkpt>
      <trkpt lat="47.86839" lon="7.18208">
        <ele>522.79998779297</ele>
        <time>2023-05-21T09:06:08.000Z</time>
      </trkpt>
      <trkpt lat="47.86848" lon="7.18203">
        <ele>522</ele>
        <time>2023-05-21T09:06:09.000Z</time>
      </trkpt>
      <trkpt lat="47.86856" lon="7.18197">
        <ele>521.40002441406</ele>
        <time>2023-05-21T09:06:10.000Z</time>
      </trkpt>
      <trkpt lat="47.86865" lon="7.1819">
        <ele>520.59997558594</ele>
        <time>2023-05-21T09:06:11.000Z</time>
      </trkpt>
      <trkpt lat="47.86875" lon="7.18182">
        <ele>520</ele>
        <time>2023-05-21T09:06:12.000Z</time>
      </trkpt>
      <trkpt lat="47.86883" lon="7.18173">
        <ele>519.20001220703</ele>
        <time>2023-05-21T09:06:13.000Z</time>
      </trkpt>
      <trkpt lat="47.86892" lon="7.18165">
        <ele>518.59997558594</ele>
        <time>2023-05-21T09:06:14.000Z</time>
      </trkpt>
      <trkpt lat="47.86901" lon="7.18156">
        <ele>517.79998779297</ele>
        <time>2023-05-21T09:06:15.000Z</time>
      </trkpt>
      <trkpt lat="47.8691" lon="7.18147">
        <ele>517.20001220703</ele>
        <time>2023-05-21T09:06:16.000Z</time>
      </trkpt>
      <trkpt lat="47.86919" lon="7.18137">
        <ele>516.59997558594</ele>
        <time>2023-05-21T09:06:17.000Z</time>
      </trkpt>
      <trkpt lat="47.86927" lon="7.18127">
        <ele>515.79998779297</ele>
        <time>2023-05-21T09:06:18.000Z</time>
      </trkpt>
      <trkpt lat="47.86934" lon="7.18119">
        <ele>515.20001220703</ele>
        <time>2023-05-21T09:06:19.000Z</time>
      </trkpt>
      <trkpt lat="47.86939" lon="7.18113">
        <ele>514.59997558594</ele>
        <time>2023-05-21T09:06:20.000Z</time>
      </trkpt>
      <trkpt lat="47.86944" lon="7.1811">
        <ele>513.79998779297</ele>
        <time>2023-05-21T09:06:21.000Z</time>
      </trkpt>
      <trkpt lat="47.86949" lon="7.18111">
        <ele>513.20001220703</ele>
        <time>2023-05-21T09:06:22.000Z</time>
      </trkpt>
      <trkpt lat="47.86955" lon="7.18114">
        <ele>512.40002441406</ele>
        <time>2023-05-21T09:06:23.000Z</time>
      </trkpt>
      <trkpt lat="47.86961" lon="7.1812">
        <ele>511.79998779297</ele>
        <time>2023-05-21T09:06:24.000Z</time>
      </trkpt>
      <trkpt lat="47.86966" lon="7.18126">
        <ele>511.20001220703</ele>
        <time>2023-05-21T09:06:25.000Z</time>
      </trkpt>
      <trkpt lat="47.86969" lon="7.18134">
        <ele>510.79998779297</ele>
        <time>2023-05-21T09:06:26.000Z</time>
      </trkpt>
      <trkpt lat="47.86971" lon="7.18144">
        <ele>510.20001220703</ele>
        <time>2023-05-21T09:06:27.000Z</time>
      </trkpt>
      <trkpt lat="47.86972" lon="7.18156">
        <ele>509.60000610352</ele>
        <time>2023-05-21T09:06:28.000Z</time>
      </trkpt>
      <trkpt lat="47.86973" lon="7.18169">
        <ele>509</ele>
        <time>2023-05-21T09:06:29.000Z</time>
      </trkpt>
      <trkpt lat="47.86973" lon="7.18182">
        <ele>508.39999389648</ele>
        <time>2023-05-21T09:06:30.000Z</time>
      </trkpt>
      <trkpt lat="47.86974" lon="7.18195">
        <ele>507</ele>
        <time>2023-05-21T09:06:31.000Z</time>
      </trkpt>
      <trkpt lat="47.86975" lon="7.1821">
        <ele>506.39999389648</ele>
        <time>2023-05-21T09:06:32.000Z</time>
      </trkpt>
      <trkpt lat="47.86976" lon="7.18226">
        <ele>505.60000610352</ele>
        <time>2023-05-21T09:06:33.000Z</time>
      </trkpt>
      <trkpt lat="47.86976" lon="7.18243">
        <ele>505</ele>
        <time>2023-05-21T09:06:34.000Z</time>
      </trkpt>
      <trkpt lat="47.86976" lon="7.1826">
        <ele>504.20001220703</ele>
        <time>2023-05-21T09:06:35.000Z</time>
      </trkpt>
      <trkpt lat="47.86977" lon="7.18274">
        <ele>503.39999389648</ele>
        <time>2023-05-21T09:06:36.000Z</time>
      </trkpt>
      <trkpt lat="47.86978" lon="7.18287">
        <ele>502.39999389648</ele>
        <time>2023-05-21T09:06:37.000Z</time>
      </trkpt>
      <trkpt lat="47.86979" lon="7.18298">
        <ele>501.60000610352</ele>
        <time>2023-05-21T09:06:38.000Z</time>
      </trkpt>
      <trkpt lat="47.8698" lon="7.18308">
        <ele>500.79998779297</ele>
        <time>2023-05-21T09:06:39.000Z</time>
      </trkpt>
      <trkpt lat="47.86981" lon="7.18314">
        <ele>500</ele>
        <time>2023-05-21T09:06:40.000Z</time>
      </trkpt>
      <trkpt lat="47.86982" lon="7.18319">
        <ele>499.39999389648</ele>
        <time>2023-05-21T09:06:41.000Z</time>
      </trkpt>
      <trkpt lat="47.86983" lon="7.1832">
        <ele>498.60000610352</ele>
        <time>2023-05-21T09:06:42.000Z</time>
      </trkpt>
      <trkpt lat="47.86985" lon="7.1832">
        <ele>497.79998779297</ele>
        <time>2023-05-21T09:06:43.000Z</time>
      </trkpt>
      <trkpt lat="47.8699" lon="7.18317">
        <ele>497.39999389648</ele>
        <time>2023-05-21T09:06:45.000Z</time>
      </trkpt>
      <trkpt lat="47.86993" lon="7.18313">
        <ele>496.79998779297</ele>
        <time>2023-05-21T09:06:46.000Z</time>
      </trkpt>
      <trkpt lat="47.86995" lon="7.18308">
        <ele>496.39999389648</ele>
        <time>2023-05-21T09:06:47.000Z</time>
      </trkpt>
      <trkpt lat="47.86997" lon="7.18305">
        <ele>496</ele>
        <time>2023-05-21T09:06:48.000Z</time>
      </trkpt>
      <trkpt lat="47.86999" lon="7.18298">
        <ele>495.60000610352</ele>
        <time>2023-05-21T09:06:49.000Z</time>
      </trkpt>
      <trkpt lat="47.87" lon="7.18291">
        <ele>495.60000610352</ele>
        <time>2023-05-21T09:06:50.000Z</time>
      </trkpt>
      <trkpt lat="47.87004" lon="7.18269">
        <ele>495.60000610352</ele>
        <time>2023-05-21T09:06:53.000Z</time>
      </trkpt>
      <trkpt lat="47.87006" lon="7.18254">
        <ele>495.60000610352</ele>
        <time>2023-05-21T09:06:55.000Z</time>
      </trkpt>
      <trkpt lat="47.87008" lon="7.18209">
        <ele>495.60000610352</ele>
        <time>2023-05-21T09:07:01.000Z</time>
      </trkpt>
      <trkpt lat="47.8701" lon="7.18172">
        <ele>495.60000610352</ele>
        <time>2023-05-21T09:07:06.000Z</time>
      </trkpt>
      <trkpt lat="47.87011" lon="7.18163">
        <ele>495.60000610352</ele>
        <time>2023-05-21T09:07:07.000Z</time>
      </trkpt>
      <trkpt lat="47.87014" lon="7.18134">
        <ele>495.60000610352</ele>
        <time>2023-05-21T09:07:10.000Z</time>
      </trkpt>
      <trkpt lat="47.87016" lon="7.18122">
        <ele>495.60000610352</ele>
        <time>2023-05-21T09:07:11.000Z</time>
      </trkpt>
      <trkpt lat="47.8703" lon="7.18095">
        <ele>495.60000610352</ele>
        <time>2023-05-21T09:07:15.000Z</time>
      </trkpt>
      <trkpt lat="47.87047" lon="7.18064">
        <ele>496</ele>
        <time>2023-05-21T09:07:20.000Z</time>
      </trkpt>
      <trkpt lat="47.8705" lon="7.18059">
        <ele>496.39999389648</ele>
        <time>2023-05-21T09:07:21.000Z</time>
      </trkpt>
      <trkpt lat="47.87053" lon="7.18054">
        <ele>497</ele>
        <time>2023-05-21T09:07:22.000Z</time>
      </trkpt>
      <trkpt lat="47.87055" lon="7.18049">
        <ele>497.39999389648</ele>
        <time>2023-05-21T09:07:23.000Z</time>
      </trkpt>
      <trkpt lat="47.87057" lon="7.18044">
        <ele>497.79998779297</ele>
        <time>2023-05-21T09:07:24.000Z</time>
      </trkpt>
      <trkpt lat="47.87059" lon="7.18039">
        <ele>497.79998779297</ele>
        <time>2023-05-21T09:07:25.000Z</time>
      </trkpt>
      <trkpt lat="47.87069" lon="7.18005">
        <ele>497.79998779297</ele>
        <time>2023-05-21T09:07:31.000Z</time>
      </trkpt>
      <trkpt lat="47.87072" lon="7.17994">
        <ele>498.20001220703</ele>
        <time>2023-05-21T09:07:33.000Z</time>
      </trkpt>
      <trkpt lat="47.87074" lon="7.17988">
        <ele>498.60000610352</ele>
        <time>2023-05-21T09:07:34.000Z</time>
      </trkpt>
      <trkpt lat="47.87075" lon="7.17982">
        <ele>499.20001220703</ele>
        <time>2023-05-21T09:07:35.000Z</time>
      </trkpt>
      <trkpt lat="47.87077" lon="7.17975">
        <ele>499.60000610352</ele>
        <time>2023-05-21T09:07:36.000Z</time>
      </trkpt>
      <trkpt lat="47.87078" lon="7.17968">
        <ele>500</ele>
        <time>2023-05-21T09:07:37.000Z</time>
      </trkpt>
      <trkpt lat="47.87089" lon="7.17913">
        <ele>500</ele>
        <time>2023-05-21T09:07:45.000Z</time>
      </trkpt>
      <trkpt lat="47.87092" lon="7.17884">
        <ele>500</ele>
        <time>2023-05-21T09:07:49.000Z</time>
      </trkpt>
      <trkpt lat="47.87093" lon="7.17876">
        <ele>500</ele>
        <time>2023-05-21T09:07:50.000Z</time>
      </trkpt>
      <trkpt lat="47.87102" lon="7.1783">
        <ele>500</ele>
        <time>2023-05-21T09:07:56.000Z</time>
      </trkpt>
      <trkpt lat="47.87108" lon="7.17796">
        <ele>500</ele>
        <time>2023-05-21T09:08:00.000Z</time>
      </trkpt>
      <trkpt lat="47.87111" lon="7.17779">
        <ele>500</ele>
        <time>2023-05-21T09:08:02.000Z</time>
      </trkpt>
      <trkpt lat="47.87119" lon="7.17729">
        <ele>500</ele>
        <time>2023-05-21T09:08:08.000Z</time>
      </trkpt>
      <trkpt lat="47.87123" lon="7.17723">
        <ele>500</ele>
        <time>2023-05-21T09:08:10.000Z</time>
      </trkpt>
      <trkpt lat="47.87126" lon="7.17725">
        <ele>500</ele>
        <time>2023-05-21T09:08:11.000Z</time>
      </trkpt>
      <trkpt lat="47.87131" lon="7.1774">
        <ele>499.60000610352</ele>
        <time>2023-05-21T09:08:14.000Z</time>
      </trkpt>
      <trkpt lat="47.87132" lon="7.17748">
        <ele>499.20001220703</ele>
        <time>2023-05-21T09:08:15.000Z</time>
      </trkpt>
      <trkpt lat="47.87133" lon="7.17756">
        <ele>498.60000610352</ele>
        <time>2023-05-21T09:08:16.000Z</time>
      </trkpt>
      <trkpt lat="47.87135" lon="7.17765">
        <ele>498.20001220703</ele>
        <time>2023-05-21T09:08:17.000Z</time>
      </trkpt>
      <trkpt lat="47.87137" lon="7.17773">
        <ele>497.79998779297</ele>
        <time>2023-05-21T09:08:18.000Z</time>
      </trkpt>
      <trkpt lat="47.87139" lon="7.1778">
        <ele>497.20001220703</ele>
        <time>2023-05-21T09:08:19.000Z</time>
      </trkpt>
      <trkpt lat="47.87141" lon="7.17785">
        <ele>496.60000610352</ele>
        <time>2023-05-21T09:08:20.000Z</time>
      </trkpt>
      <trkpt lat="47.87143" lon="7.17789">
        <ele>496.20001220703</ele>
        <time>2023-05-21T09:08:21.000Z</time>
      </trkpt>
      <trkpt lat="47.87145" lon="7.17792">
        <ele>495.60000610352</ele>
        <time>2023-05-21T09:08:22.000Z</time>
      </trkpt>
      <trkpt lat="47.87148" lon="7.17797">
        <ele>495.20001220703</ele>
        <time>2023-05-21T09:08:24.000Z</time>
      </trkpt>
      <trkpt lat="47.8715" lon="7.17801">
        <ele>494.79998779297</ele>
        <time>2023-05-21T09:08:25.000Z</time>
      </trkpt>
      <trkpt lat="47.87152" lon="7.17807">
        <ele>494.39999389648</ele>
        <time>2023-05-21T09:08:26.000Z</time>
      </trkpt>
      <trkpt lat="47.87154" lon="7.17812">
        <ele>494</ele>
        <time>2023-05-21T09:08:27.000Z</time>
      </trkpt>
      <trkpt lat="47.87157" lon="7.17819">
        <ele>493.60000610352</ele>
        <time>2023-05-21T09:08:28.000Z</time>
      </trkpt>
      <trkpt lat="47.87164" lon="7.17835">
        <ele>493</ele>
        <time>2023-05-21T09:08:30.000Z</time>
      </trkpt>
      <trkpt lat="47.87169" lon="7.17844">
        <ele>492.60000610352</ele>
        <time>2023-05-21T09:08:31.000Z</time>
      </trkpt>
      <trkpt lat="47.87173" lon="7.17853">
        <ele>492.20001220703</ele>
        <time>2023-05-21T09:08:32.000Z</time>
      </trkpt>
      <trkpt lat="47.87181" lon="7.17863">
        <ele>491.79998779297</ele>
        <time>2023-05-21T09:08:33.000Z</time>
      </trkpt>
      <trkpt lat="47.87188" lon="7.17874">
        <ele>490.39999389648</ele>
        <time>2023-05-21T09:08:34.000Z</time>
      </trkpt>
      <trkpt lat="47.87193" lon="7.17884">
        <ele>489.79998779297</ele>
        <time>2023-05-21T09:08:35.000Z</time>
      </trkpt>
      <trkpt lat="47.87197" lon="7.17895">
        <ele>489</ele>
        <time>2023-05-21T09:08:36.000Z</time>
      </trkpt>
      <trkpt lat="47.87201" lon="7.17905">
        <ele>488.20001220703</ele>
        <time>2023-05-21T09:08:37.000Z</time>
      </trkpt>
      <trkpt lat="47.87204" lon="7.17916">
        <ele>487.60000610352</ele>
        <time>2023-05-21T09:08:38.000Z</time>
      </trkpt>
      <trkpt lat="47.87207" lon="7.17927">
        <ele>486.79998779297</ele>
        <time>2023-05-21T09:08:39.000Z</time>
      </trkpt>
      <trkpt lat="47.87208" lon="7.17938">
        <ele>486</ele>
        <time>2023-05-21T09:08:40.000Z</time>
      </trkpt>
      <trkpt lat="47.8721" lon="7.17949">
        <ele>485.39999389648</ele>
        <time>2023-05-21T09:08:41.000Z</time>
      </trkpt>
      <trkpt lat="47.87211" lon="7.1796">
        <ele>484.60000610352</ele>
        <time>2023-05-21T09:08:42.000Z</time>
      </trkpt>
      <trkpt lat="47.87212" lon="7.17972">
        <ele>484</ele>
        <time>2023-05-21T09:08:43.000Z</time>
      </trkpt>
      <trkpt lat="47.87213" lon="7.17983">
        <ele>483.60000610352</ele>
        <time>2023-05-21T09:08:44.000Z</time>
      </trkpt>
      <trkpt lat="47.87214" lon="7.17994">
        <ele>483.20001220703</ele>
        <time>2023-05-21T09:08:45.000Z</time>
      </trkpt>
      <trkpt lat="47.87216" lon="7.18004">
        <ele>482.60000610352</ele>
        <time>2023-05-21T09:08:46.000Z</time>
      </trkpt>
      <trkpt lat="47.87217" lon="7.18013">
        <ele>482.20001220703</ele>
        <time>2023-05-21T09:08:47.000Z</time>
      </trkpt>
      <trkpt lat="47.87217" lon="7.18021">
        <ele>481.79998779297</ele>
        <time>2023-05-21T09:08:48.000Z</time>
      </trkpt>
      <trkpt lat="47.87216" lon="7.1803">
        <ele>481.79998779297</ele>
        <time>2023-05-21T09:08:52.000Z</time>
      </trkpt>
      <trkpt lat="47.87217" lon="7.1803">
        <ele>481.79998779297</ele>
        <time>2023-05-21T09:08:53.000Z</time>
      </trkpt>
      <trkpt lat="47.87216" lon="7.18034">
        <ele>479.79998779297</ele>
        <time>2023-05-21T09:09:02.000Z</time>
      </trkpt>
      <trkpt lat="47.87216" lon="7.18034">
        <ele>479.79998779297</ele>
        <time>2023-05-21T09:09:03.000Z</time>
      </trkpt>
      <trkpt lat="47.87216" lon="7.18038">
        <ele>479.79998779297</ele>
        <time>2023-05-21T09:09:05.000Z</time>
      </trkpt>
      <trkpt lat="47.8722" lon="7.18052">
        <ele>479.79998779297</ele>
        <time>2023-05-21T09:09:08.000Z</time>
      </trkpt>
      <trkpt lat="47.87224" lon="7.18081">
        <ele>479.39999389648</ele>
        <time>2023-05-21T09:09:11.000Z</time>
      </trkpt>
      <trkpt lat="47.87225" lon="7.18091">
        <ele>479</ele>
        <time>2023-05-21T09:09:12.000Z</time>
      </trkpt>
      <trkpt lat="47.87222" lon="7.18101">
        <ele>478.60000610352</ele>
        <time>2023-05-21T09:09:13.000Z</time>
      </trkpt>
      <trkpt lat="47.8722" lon="7.18111">
        <ele>478.20001220703</ele>
        <time>2023-05-21T09:09:14.000Z</time>
      </trkpt>
      <trkpt lat="47.87219" lon="7.18122">
        <ele>477.79998779297</ele>
        <time>2023-05-21T09:09:15.000Z</time>
      </trkpt>
      <trkpt lat="47.87217" lon="7.18134">
        <ele>477.20001220703</ele>
        <time>2023-05-21T09:09:16.000Z</time>
      </trkpt>
      <trkpt lat="47.87216" lon="7.18147">
        <ele>476.60000610352</ele>
        <time>2023-05-21T09:09:17.000Z</time>
      </trkpt>
      <trkpt lat="47.87215" lon="7.18159">
        <ele>476</ele>
        <time>2023-05-21T09:09:18.000Z</time>
      </trkpt>
      <trkpt lat="47.87214" lon="7.18171">
        <ele>475.39999389648</ele>
        <time>2023-05-21T09:09:19.000Z</time>
      </trkpt>
      <trkpt lat="47.87212" lon="7.18182">
        <ele>474.79998779297</ele>
        <time>2023-05-21T09:09:20.000Z</time>
      </trkpt>
      <trkpt lat="47.87211" lon="7.18194">
        <ele>474</ele>
        <time>2023-05-21T09:09:21.000Z</time>
      </trkpt>
      <trkpt lat="47.8721" lon="7.18206">
        <ele>473.39999389648</ele>
        <time>2023-05-21T09:09:22.000Z</time>
      </trkpt>
      <trkpt lat="47.8721" lon="7.18218">
        <ele>472.79998779297</ele>
        <time>2023-05-21T09:09:23.000Z</time>
      </trkpt>
      <trkpt lat="47.87209" lon="7.18231">
        <ele>472.20001220703</ele>
        <time>2023-05-21T09:09:24.000Z</time>
      </trkpt>
      <trkpt lat="47.87209" lon="7.18241">
        <ele>471.39999389648</ele>
        <time>2023-05-21T09:09:25.000Z</time>
      </trkpt>
      <trkpt lat="47.87208" lon="7.18252">
        <ele>471</ele>
        <time>2023-05-21T09:09:26.000Z</time>
      </trkpt>
      <trkpt lat="47.87208" lon="7.18262">
        <ele>470.39999389648</ele>
        <time>2023-05-21T09:09:27.000Z</time>
      </trkpt>
      <trkpt lat="47.87207" lon="7.18268">
        <ele>469.79998779297</ele>
        <time>2023-05-21T09:09:28.000Z</time>
      </trkpt>
      <trkpt lat="47.87208" lon="7.18271">
        <ele>469.20001220703</ele>
        <time>2023-05-21T09:09:29.000Z</time>
      </trkpt>
      <trkpt lat="47.87208" lon="7.18273">
        <ele>468.60000610352</ele>
        <time>2023-05-21T09:09:30.000Z</time>
      </trkpt>
      <trkpt lat="47.8721" lon="7.18277">
        <ele>468</ele>
        <time>2023-05-21T09:09:31.000Z</time>
      </trkpt>
      <trkpt lat="47.87212" lon="7.18281">
        <ele>467.39999389648</ele>
        <time>2023-05-21T09:09:32.000Z</time>
      </trkpt>
      <trkpt lat="47.87214" lon="7.18285">
        <ele>467</ele>
        <time>2023-05-21T09:09:33.000Z</time>
      </trkpt>
      <trkpt lat="47.87216" lon="7.1829">
        <ele>466.60000610352</ele>
        <time>2023-05-21T09:09:34.000Z</time>
      </trkpt>
      <trkpt lat="47.87218" lon="7.18297">
        <ele>466</ele>
        <time>2023-05-21T09:09:35.000Z</time>
      </trkpt>
      <trkpt lat="47.8722" lon="7.18303">
        <ele>465.60000610352</ele>
        <time>2023-05-21T09:09:36.000Z</time>
      </trkpt>
      <trkpt lat="47.87222" lon="7.18309">
        <ele>465</ele>
        <time>2023-05-21T09:09:37.000Z</time>
      </trkpt>
      <trkpt lat="47.87225" lon="7.18316">
        <ele>464.60000610352</ele>
        <time>2023-05-21T09:09:38.000Z</time>
      </trkpt>
      <trkpt lat="47.87228" lon="7.18322">
        <ele>464</ele>
        <time>2023-05-21T09:09:39.000Z</time>
      </trkpt>
      <trkpt lat="47.87229" lon="7.18329">
        <ele>463.60000610352</ele>
        <time>2023-05-21T09:09:40.000Z</time>
      </trkpt>
      <trkpt lat="47.87232" lon="7.1835">
        <ele>463.60000610352</ele>
        <time>2023-05-21T09:09:43.000Z</time>
      </trkpt>
      <trkpt lat="47.87234" lon="7.18363">
        <ele>463.60000610352</ele>
        <time>2023-05-21T09:09:45.000Z</time>
      </trkpt>
      <trkpt lat="47.87238" lon="7.18387">
        <ele>463.20001220703</ele>
        <time>2023-05-21T09:09:48.000Z</time>
      </trkpt>
      <trkpt lat="47.8724" lon="7.18397">
        <ele>462.39999389648</ele>
        <time>2023-05-21T09:09:49.000Z</time>
      </trkpt>
      <trkpt lat="47.87241" lon="7.18407">
        <ele>461.79998779297</ele>
        <time>2023-05-21T09:09:50.000Z</time>
      </trkpt>
      <trkpt lat="47.87244" lon="7.18417">
        <ele>461.39999389648</ele>
        <time>2023-05-21T09:09:51.000Z</time>
      </trkpt>
      <trkpt lat="47.87249" lon="7.18437">
        <ele>461</ele>
        <time>2023-05-21T09:09:53.000Z</time>
      </trkpt>
      <trkpt lat="47.87252" lon="7.18447">
        <ele>460.60000610352</ele>
        <time>2023-05-21T09:09:54.000Z</time>
      </trkpt>
      <trkpt lat="47.87254" lon="7.18457">
        <ele>460.20001220703</ele>
        <time>2023-05-21T09:09:55.000Z</time>
      </trkpt>
      <trkpt lat="47.87257" lon="7.18467">
        <ele>459.60000610352</ele>
        <time>2023-05-21T09:09:56.000Z</time>
      </trkpt>
      <trkpt lat="47.8726" lon="7.18478">
        <ele>459.20001220703</ele>
        <time>2023-05-21T09:09:57.000Z</time>
      </trkpt>
      <trkpt lat="47.87268" lon="7.18507">
        <ele>459.20001220703</ele>
        <time>2023-05-21T09:10:00.000Z</time>
      </trkpt>
      <trkpt lat="47.8727" lon="7.18517">
        <ele>459.20001220703</ele>
        <time>2023-05-21T09:10:01.000Z</time>
      </trkpt>
      <trkpt lat="47.87273" lon="7.18536">
        <ele>458.79998779297</ele>
        <time>2023-05-21T09:10:03.000Z</time>
      </trkpt>
      <trkpt lat="47.87275" lon="7.18546">
        <ele>458.39999389648</ele>
        <time>2023-05-21T09:10:04.000Z</time>
      </trkpt>
      <trkpt lat="47.87277" lon="7.18555">
        <ele>458</ele>
        <time>2023-05-21T09:10:05.000Z</time>
      </trkpt>
      <trkpt lat="47.87278" lon="7.18564">
        <ele>457.60000610352</ele>
        <time>2023-05-21T09:10:06.000Z</time>
      </trkpt>
      <trkpt lat="47.87279" lon="7.18574">
        <ele>457.20001220703</ele>
        <time>2023-05-21T09:10:07.000Z</time>
      </trkpt>
      <trkpt lat="47.8728" lon="7.18592">
        <ele>457.20001220703</ele>
        <time>2023-05-21T09:10:09.000Z</time>
      </trkpt>
      <trkpt lat="47.87284" lon="7.186">
        <ele>457.20001220703</ele>
        <time>2023-05-21T09:10:10.000Z</time>
      </trkpt>
      <trkpt lat="47.87291" lon="7.18615">
        <ele>457.20001220703</ele>
        <time>2023-05-21T09:10:12.000Z</time>
      </trkpt>
      <trkpt lat="47.87299" lon="7.18631">
        <ele>457.20001220703</ele>
        <time>2023-05-21T09:10:14.000Z</time>
      </trkpt>
      <trkpt lat="47.87305" lon="7.18645">
        <ele>457.20001220703</ele>
        <time>2023-05-21T09:10:16.000Z</time>
      </trkpt>
      <trkpt lat="47.87325" lon="7.1868">
        <ele>457.20001220703</ele>
        <time>2023-05-21T09:10:21.000Z</time>
      </trkpt>
      <trkpt lat="47.87333" lon="7.18694">
        <ele>457.20001220703</ele>
        <time>2023-05-21T09:10:23.000Z</time>
      </trkpt>
      <trkpt lat="47.8734" lon="7.18708">
        <ele>457.20001220703</ele>
        <time>2023-05-21T09:10:25.000Z</time>
      </trkpt>
      <trkpt lat="47.87347" lon="7.18721">
        <ele>457.20001220703</ele>
        <time>2023-05-21T09:10:27.000Z</time>
      </trkpt>
      <trkpt lat="47.87351" lon="7.18735">
        <ele>457.20001220703</ele>
        <time>2023-05-21T09:10:29.000Z</time>
      </trkpt>
      <trkpt lat="47.87354" lon="7.18748">
        <ele>457.20001220703</ele>
        <time>2023-05-21T09:10:31.000Z</time>
      </trkpt>
      <trkpt lat="47.87356" lon="7.18758">
        <ele>457.20001220703</ele>
        <time>2023-05-21T09:10:33.000Z</time>
      </trkpt>
      <trkpt lat="47.87358" lon="7.18763">
        <ele>457.20001220703</ele>
        <time>2023-05-21T09:10:35.000Z</time>
      </trkpt>
      <trkpt lat="47.87363" lon="7.18765">
        <ele>457.20001220703</ele>
        <time>2023-05-21T09:10:37.000Z</time>
      </trkpt>
      <trkpt lat="47.87374" lon="7.18772">
        <ele>457.20001220703</ele>
        <time>2023-05-21T09:10:42.000Z</time>
      </trkpt>
      <trkpt lat="47.87376" lon="7.18774">
        <ele>457.20001220703</ele>
        <time>2023-05-21T09:10:43.000Z</time>
      </trkpt>
      <trkpt lat="47.87378" lon="7.18777">
        <ele>457.60000610352</ele>
        <time>2023-05-21T09:10:44.000Z</time>
      </trkpt>
      <trkpt lat="47.87379" lon="7.18779">
        <ele>458</ele>
        <time>2023-05-21T09:10:45.000Z</time>
      </trkpt>
      <trkpt lat="47.87381" lon="7.18782">
        <ele>458.39999389648</ele>
        <time>2023-05-21T09:10:46.000Z</time>
      </trkpt>
      <trkpt lat="47.87382" lon="7.18784">
        <ele>458.79998779297</ele>
        <time>2023-05-21T09:10:47.000Z</time>
      </trkpt>
      <trkpt lat="47.87382" lon="7.18786">
        <ele>459.39999389648</ele>
        <time>2023-05-21T09:10:48.000Z</time>
      </trkpt>
      <trkpt lat="47.87388" lon="7.18806">
        <ele>459.39999389648</ele>
        <time>2023-05-21T09:10:55.000Z</time>
      </trkpt>
      <trkpt lat="47.87389" lon="7.18809">
        <ele>459.79998779297</ele>
        <time>2023-05-21T09:10:56.000Z</time>
      </trkpt>
      <trkpt lat="47.87391" lon="7.18813">
        <ele>460.20001220703</ele>
        <time>2023-05-21T09:10:57.000Z</time>
      </trkpt>
      <trkpt lat="47.87393" lon="7.18816">
        <ele>460.60000610352</ele>
        <time>2023-05-21T09:10:58.000Z</time>
      </trkpt>
      <trkpt lat="47.87394" lon="7.1882">
        <ele>461</ele>
        <time>2023-05-21T09:10:59.000Z</time>
      </trkpt>
      <trkpt lat="47.87396" lon="7.18823">
        <ele>461.39999389648</ele>
        <time>2023-05-21T09:11:00.000Z</time>
      </trkpt>
      <trkpt lat="47.87398" lon="7.18827">
        <ele>461.39999389648</ele>
        <time>2023-05-21T09:11:01.000Z</time>
      </trkpt>
      <trkpt lat="47.87406" lon="7.18851">
        <ele>461.39999389648</ele>
        <time>2023-05-21T09:11:07.000Z</time>
      </trkpt>
      <trkpt lat="47.87415" lon="7.18867">
        <ele>461.39999389648</ele>
        <time>2023-05-21T09:11:12.000Z</time>
      </trkpt>
      <trkpt lat="47.87421" lon="7.18879">
        <ele>461.79998779297</ele>
        <time>2023-05-21T09:11:15.000Z</time>
      </trkpt>
      <trkpt lat="47.87423" lon="7.18884">
        <ele>462.20001220703</ele>
        <time>2023-05-21T09:11:16.000Z</time>
      </trkpt>
      <trkpt lat="47.87424" lon="7.18888">
        <ele>462.60000610352</ele>
        <time>2023-05-21T09:11:17.000Z</time>
      </trkpt>
      <trkpt lat="47.87426" lon="7.18892">
        <ele>463</ele>
        <time>2023-05-21T09:11:18.000Z</time>
      </trkpt>
      <trkpt lat="47.87427" lon="7.18897">
        <ele>463.39999389648</ele>
        <time>2023-05-21T09:11:19.000Z</time>
      </trkpt>
      <trkpt lat="47.87432" lon="7.18913">
        <ele>463.39999389648</ele>
        <time>2023-05-21T09:11:23.000Z</time>
      </trkpt>
      <trkpt lat="47.87436" lon="7.18927">
        <ele>463.79998779297</ele>
        <time>2023-05-21T09:11:27.000Z</time>
      </trkpt>
      <trkpt lat="47.87438" lon="7.18932">
        <ele>464.20001220703</ele>
        <time>2023-05-21T09:11:28.000Z</time>
      </trkpt>
      <trkpt lat="47.87439" lon="7.18936">
        <ele>465</ele>
        <time>2023-05-21T09:11:29.000Z</time>
      </trkpt>
      <trkpt lat="47.8744" lon="7.18939">
        <ele>465.60000610352</ele>
        <time>2023-05-21T09:11:30.000Z</time>
      </trkpt>
      <trkpt lat="47.8744" lon="7.1894">
        <ele>465.60000610352</ele>
        <time>2023-05-21T09:11:31.000Z</time>
      </trkpt>
      <trkpt lat="47.87441" lon="7.18946">
        <ele>465.60000610352</ele>
        <time>2023-05-21T09:11:33.000Z</time>
      </trkpt>
      <trkpt lat="47.87443" lon="7.18956">
        <ele>465.60000610352</ele>
        <time>2023-05-21T09:11:36.000Z</time>
      </trkpt>
      <trkpt lat="47.87451" lon="7.1898">
        <ele>465.60000610352</ele>
        <time>2023-05-21T09:11:43.000Z</time>
      </trkpt>
      <trkpt lat="47.87455" lon="7.18991">
        <ele>466</ele>
        <time>2023-05-21T09:11:46.000Z</time>
      </trkpt>
      <trkpt lat="47.87456" lon="7.18995">
        <ele>466.39999389648</ele>
        <time>2023-05-21T09:11:47.000Z</time>
      </trkpt>
      <trkpt lat="47.87457" lon="7.18999">
        <ele>466.79998779297</ele>
        <time>2023-05-21T09:11:48.000Z</time>
      </trkpt>
      <trkpt lat="47.87457" lon="7.19003">
        <ele>467.20001220703</ele>
        <time>2023-05-21T09:11:49.000Z</time>
      </trkpt>
      <trkpt lat="47.87458" lon="7.19007">
        <ele>467.60000610352</ele>
        <time>2023-05-21T09:11:50.000Z</time>
      </trkpt>
      <trkpt lat="47.87464" lon="7.19026">
        <ele>467.60000610352</ele>
        <time>2023-05-21T09:11:55.000Z</time>
      </trkpt>
      <trkpt lat="47.8747" lon="7.19052">
        <ele>467.60000610352</ele>
        <time>2023-05-21T09:12:00.000Z</time>
      </trkpt>
      <trkpt lat="47.87471" lon="7.19057">
        <ele>468</ele>
        <time>2023-05-21T09:12:01.000Z</time>
      </trkpt>
      <trkpt lat="47.87472" lon="7.19062">
        <ele>468.39999389648</ele>
        <time>2023-05-21T09:12:02.000Z</time>
      </trkpt>
      <trkpt lat="47.87473" lon="7.19067">
        <ele>468.79998779297</ele>
        <time>2023-05-21T09:12:03.000Z</time>
      </trkpt>
      <trkpt lat="47.87475" lon="7.19072">
        <ele>469.20001220703</ele>
        <time>2023-05-21T09:12:04.000Z</time>
      </trkpt>
      <trkpt lat="47.87478" lon="7.19076">
        <ele>469.60000610352</ele>
        <time>2023-05-21T09:12:05.000Z</time>
      </trkpt>
      <trkpt lat="47.8748" lon="7.1908">
        <ele>469.60000610352</ele>
        <time>2023-05-21T09:12:06.000Z</time>
      </trkpt>
      <trkpt lat="47.87489" lon="7.19108">
        <ele>470</ele>
        <time>2023-05-21T09:12:11.000Z</time>
      </trkpt>
      <trkpt lat="47.87491" lon="7.19113">
        <ele>470.39999389648</ele>
        <time>2023-05-21T09:12:12.000Z</time>
      </trkpt>
      <trkpt lat="47.87493" lon="7.19119">
        <ele>470.79998779297</ele>
        <time>2023-05-21T09:12:13.000Z</time>
      </trkpt>
      <trkpt lat="47.87494" lon="7.19125">
        <ele>471.20001220703</ele>
        <time>2023-05-21T09:12:14.000Z</time>
      </trkpt>
      <trkpt lat="47.87496" lon="7.1913">
        <ele>471.60000610352</ele>
        <time>2023-05-21T09:12:15.000Z</time>
      </trkpt>
      <trkpt lat="47.87499" lon="7.19144">
        <ele>472</ele>
        <time>2023-05-21T09:12:18.000Z</time>
      </trkpt>
      <trkpt lat="47.875" lon="7.19148">
        <ele>472.39999389648</ele>
        <time>2023-05-21T09:12:19.000Z</time>
      </trkpt>
      <trkpt lat="47.875" lon="7.19153">
        <ele>473</ele>
        <time>2023-05-21T09:12:20.000Z</time>
      </trkpt>
      <trkpt lat="47.87498" lon="7.19157">
        <ele>473.39999389648</ele>
        <time>2023-05-21T09:12:21.000Z</time>
      </trkpt>
      <trkpt lat="47.87495" lon="7.19162">
        <ele>473.79998779297</ele>
        <time>2023-05-21T09:12:22.000Z</time>
      </trkpt>
      <trkpt lat="47.87481" lon="7.19169">
        <ele>473.79998779297</ele>
        <time>2023-05-21T09:12:26.000Z</time>
      </trkpt>
      <trkpt lat="47.87472" lon="7.1917">
        <ele>473.79998779297</ele>
        <time>2023-05-21T09:12:28.000Z</time>
      </trkpt>
      <trkpt lat="47.87457" lon="7.19174">
        <ele>473.79998779297</ele>
        <time>2023-05-21T09:12:31.000Z</time>
      </trkpt>
      <trkpt lat="47.87427" lon="7.19179">
        <ele>473.79998779297</ele>
        <time>2023-05-21T09:12:36.000Z</time>
      </trkpt>
      <trkpt lat="47.8742" lon="7.19179">
        <ele>473.39999389648</ele>
        <time>2023-05-21T09:12:37.000Z</time>
      </trkpt>
      <trkpt lat="47.87413" lon="7.1918">
        <ele>472.79998779297</ele>
        <time>2023-05-21T09:12:38.000Z</time>
      </trkpt>
      <trkpt lat="47.87406" lon="7.19182">
        <ele>472.39999389648</ele>
        <time>2023-05-21T09:12:39.000Z</time>
      </trkpt>
      <trkpt lat="47.87399" lon="7.19183">
        <ele>471.79998779297</ele>
        <time>2023-05-21T09:12:40.000Z</time>
      </trkpt>
      <trkpt lat="47.87392" lon="7.19185">
        <ele>471.39999389648</ele>
        <time>2023-05-21T09:12:41.000Z</time>
      </trkpt>
      <trkpt lat="47.87384" lon="7.19186">
        <ele>470.79998779297</ele>
        <time>2023-05-21T09:12:42.000Z</time>
      </trkpt>
      <trkpt lat="47.87376" lon="7.19186">
        <ele>470</ele>
        <time>2023-05-21T09:12:43.000Z</time>
      </trkpt>
      <trkpt lat="47.87368" lon="7.19187">
        <ele>469.60000610352</ele>
        <time>2023-05-21T09:12:44.000Z</time>
      </trkpt>
      <trkpt lat="47.8736" lon="7.19187">
        <ele>468.79998779297</ele>
        <time>2023-05-21T09:12:45.000Z</time>
      </trkpt>
      <trkpt lat="47.87352" lon="7.19187">
        <ele>468.20001220703</ele>
        <time>2023-05-21T09:12:46.000Z</time>
      </trkpt>
      <trkpt lat="47.87343" lon="7.19186">
        <ele>467.39999389648</ele>
        <time>2023-05-21T09:12:47.000Z</time>
      </trkpt>
      <trkpt lat="47.87336" lon="7.19185">
        <ele>466.60000610352</ele>
        <time>2023-05-21T09:12:48.000Z</time>
      </trkpt>
      <trkpt lat="47.87328" lon="7.19183">
        <ele>465.79998779297</ele>
        <time>2023-05-21T09:12:49.000Z</time>
      </trkpt>
      <trkpt lat="47.87321" lon="7.19177">
        <ele>464.79998779297</ele>
        <time>2023-05-21T09:12:50.000Z</time>
      </trkpt>
      <trkpt lat="47.87314" lon="7.19169">
        <ele>464</ele>
        <time>2023-05-21T09:12:51.000Z</time>
      </trkpt>
      <trkpt lat="47.87306" lon="7.1916">
        <ele>463</ele>
        <time>2023-05-21T09:12:52.000Z</time>
      </trkpt>
      <trkpt lat="47.87299" lon="7.19149">
        <ele>462</ele>
        <time>2023-05-21T09:12:53.000Z</time>
      </trkpt>
      <trkpt lat="47.87292" lon="7.19137">
        <ele>460.79998779297</ele>
        <time>2023-05-21T09:12:54.000Z</time>
      </trkpt>
      <trkpt lat="47.87285" lon="7.19126">
        <ele>459.60000610352</ele>
        <time>2023-05-21T09:12:55.000Z</time>
      </trkpt>
      <trkpt lat="47.8728" lon="7.19116">
        <ele>458.39999389648</ele>
        <time>2023-05-21T09:12:56.000Z</time>
      </trkpt>
      <trkpt lat="47.87274" lon="7.19109">
        <ele>457.20001220703</ele>
        <time>2023-05-21T09:12:57.000Z</time>
      </trkpt>
      <trkpt lat="47.87269" lon="7.19104">
        <ele>455.79998779297</ele>
        <time>2023-05-21T09:12:58.000Z</time>
      </trkpt>
      <trkpt lat="47.87266" lon="7.19104">
        <ele>454.39999389648</ele>
        <time>2023-05-21T09:12:59.000Z</time>
      </trkpt>
      <trkpt lat="47.87265" lon="7.19106">
        <ele>453.20001220703</ele>
        <time>2023-05-21T09:13:00.000Z</time>
      </trkpt>
      <trkpt lat="47.87265" lon="7.19115">
        <ele>452</ele>
        <time>2023-05-21T09:13:01.000Z</time>
      </trkpt>
      <trkpt lat="47.87265" lon="7.19124">
        <ele>450.79998779297</ele>
        <time>2023-05-21T09:13:02.000Z</time>
      </trkpt>
      <trkpt lat="47.87263" lon="7.19132">
        <ele>449.79998779297</ele>
        <time>2023-05-21T09:13:03.000Z</time>
      </trkpt>
      <trkpt lat="47.87259" lon="7.19143">
        <ele>448.79998779297</ele>
        <time>2023-05-21T09:13:04.000Z</time>
      </trkpt>
      <trkpt lat="47.87255" lon="7.19156">
        <ele>447.60000610352</ele>
        <time>2023-05-21T09:13:05.000Z</time>
      </trkpt>
      <trkpt lat="47.87249" lon="7.19167">
        <ele>446.60000610352</ele>
        <time>2023-05-21T09:13:06.000Z</time>
      </trkpt>
      <trkpt lat="47.87242" lon="7.19176">
        <ele>445.60000610352</ele>
        <time>2023-05-21T09:13:07.000Z</time>
      </trkpt>
      <trkpt lat="47.87234" lon="7.19182">
        <ele>443.39999389648</ele>
        <time>2023-05-21T09:13:08.000Z</time>
      </trkpt>
      <trkpt lat="47.87226" lon="7.19184">
        <ele>442.20001220703</ele>
        <time>2023-05-21T09:13:09.000Z</time>
      </trkpt>
      <trkpt lat="47.87219" lon="7.19185">
        <ele>441.20001220703</ele>
        <time>2023-05-21T09:13:10.000Z</time>
      </trkpt>
      <trkpt lat="47.87212" lon="7.19185">
        <ele>440</ele>
        <time>2023-05-21T09:13:11.000Z</time>
      </trkpt>
      <trkpt lat="47.87205" lon="7.19184">
        <ele>440</ele>
        <time>2023-05-21T09:13:12.000Z</time>
      </trkpt>
      <trkpt lat="47.87186" lon="7.1918">
        <ele>440</ele>
        <time>2023-05-21T09:13:15.000Z</time>
      </trkpt>
      <trkpt lat="47.87169" lon="7.19175">
        <ele>440</ele>
        <time>2023-05-21T09:13:18.000Z</time>
      </trkpt>
      <trkpt lat="47.87142" lon="7.19169">
        <ele>440</ele>
        <time>2023-05-21T09:13:24.000Z</time>
      </trkpt>
      <trkpt lat="47.87134" lon="7.19167">
        <ele>440.39999389648</ele>
        <time>2023-05-21T09:13:26.000Z</time>
      </trkpt>
      <trkpt lat="47.87131" lon="7.19167">
        <ele>440.79998779297</ele>
        <time>2023-05-21T09:13:27.000Z</time>
      </trkpt>
      <trkpt lat="47.87127" lon="7.19168">
        <ele>441.20001220703</ele>
        <time>2023-05-21T09:13:28.000Z</time>
      </trkpt>
      <trkpt lat="47.87124" lon="7.19167">
        <ele>441.60000610352</ele>
        <time>2023-05-21T09:13:29.000Z</time>
      </trkpt>
      <trkpt lat="47.8712" lon="7.19166">
        <ele>442</ele>
        <time>2023-05-21T09:13:30.000Z</time>
      </trkpt>
      <trkpt lat="47.87116" lon="7.19166">
        <ele>442.39999389648</ele>
        <time>2023-05-21T09:13:31.000Z</time>
      </trkpt>
      <trkpt lat="47.87112" lon="7.19166">
        <ele>443</ele>
        <time>2023-05-21T09:13:32.000Z</time>
      </trkpt>
      <trkpt lat="47.87108" lon="7.19166">
        <ele>444</ele>
        <time>2023-05-21T09:13:33.000Z</time>
      </trkpt>
      <trkpt lat="47.87105" lon="7.19167">
        <ele>444.39999389648</ele>
        <time>2023-05-21T09:13:34.000Z</time>
      </trkpt>
      <trkpt lat="47.87101" lon="7.19168">
        <ele>444.79998779297</ele>
        <time>2023-05-21T09:13:35.000Z</time>
      </trkpt>
      <trkpt lat="47.87099" lon="7.19169">
        <ele>445.20001220703</ele>
        <time>2023-05-21T09:13:36.000Z</time>
      </trkpt>
      <trkpt lat="47.87095" lon="7.1917">
        <ele>445.79998779297</ele>
        <time>2023-05-21T09:13:37.000Z</time>
      </trkpt>
      <trkpt lat="47.87091" lon="7.19171">
        <ele>446.20001220703</ele>
        <time>2023-05-21T09:13:38.000Z</time>
      </trkpt>
      <trkpt lat="47.87087" lon="7.19172">
        <ele>446.60000610352</ele>
        <time>2023-05-21T09:13:39.000Z</time>
      </trkpt>
      <trkpt lat="47.87077" lon="7.19173">
        <ele>447</ele>
        <time>2023-05-21T09:13:42.000Z</time>
      </trkpt>
      <trkpt lat="47.87074" lon="7.19173">
        <ele>447.60000610352</ele>
        <time>2023-05-21T09:13:43.000Z</time>
      </trkpt>
      <trkpt lat="47.8707" lon="7.19173">
        <ele>448</ele>
        <time>2023-05-21T09:13:44.000Z</time>
      </trkpt>
      <trkpt lat="47.87067" lon="7.19173">
        <ele>448.39999389648</ele>
        <time>2023-05-21T09:13:45.000Z</time>
      </trkpt>
      <trkpt lat="47.87064" lon="7.19172">
        <ele>449</ele>
        <time>2023-05-21T09:13:46.000Z</time>
      </trkpt>
      <trkpt lat="47.8705" lon="7.19169">
        <ele>449.39999389648</ele>
        <time>2023-05-21T09:13:50.000Z</time>
      </trkpt>
      <trkpt lat="47.87047" lon="7.19168">
        <ele>449.79998779297</ele>
        <time>2023-05-21T09:13:51.000Z</time>
      </trkpt>
      <trkpt lat="47.87043" lon="7.19167">
        <ele>450.39999389648</ele>
        <time>2023-05-21T09:13:52.000Z</time>
      </trkpt>
      <trkpt lat="47.8704" lon="7.19166">
        <ele>450.79998779297</ele>
        <time>2023-05-21T09:13:53.000Z</time>
      </trkpt>
      <trkpt lat="47.87035" lon="7.19166">
        <ele>451.20001220703</ele>
        <time>2023-05-21T09:13:54.000Z</time>
      </trkpt>
      <trkpt lat="47.87024" lon="7.19163">
        <ele>451.20001220703</ele>
        <time>2023-05-21T09:13:57.000Z</time>
      </trkpt>
      <trkpt lat="47.87001" lon="7.19152">
        <ele>451.20001220703</ele>
        <time>2023-05-21T09:14:03.000Z</time>
      </trkpt>
      <trkpt lat="47.86989" lon="7.19142">
        <ele>451.20001220703</ele>
        <time>2023-05-21T09:14:07.000Z</time>
      </trkpt>
      <trkpt lat="47.86971" lon="7.1913">
        <ele>451.60000610352</ele>
        <time>2023-05-21T09:14:13.000Z</time>
      </trkpt>
      <trkpt lat="47.86967" lon="7.19129">
        <ele>452</ele>
        <time>2023-05-21T09:14:14.000Z</time>
      </trkpt>
      <trkpt lat="47.86964" lon="7.19127">
        <ele>452.60000610352</ele>
        <time>2023-05-21T09:14:15.000Z</time>
      </trkpt>
      <trkpt lat="47.86959" lon="7.19125">
        <ele>453</ele>
        <time>2023-05-21T09:14:16.000Z</time>
      </trkpt>
      <trkpt lat="47.86955" lon="7.19122">
        <ele>453.39999389648</ele>
        <time>2023-05-21T09:14:17.000Z</time>
      </trkpt>
      <trkpt lat="47.86943" lon="7.19113">
        <ele>453.39999389648</ele>
        <time>2023-05-21T09:14:20.000Z</time>
      </trkpt>
      <trkpt lat="47.86911" lon="7.19093">
        <ele>453.39999389648</ele>
        <time>2023-05-21T09:14:26.000Z</time>
      </trkpt>
      <trkpt lat="47.86895" lon="7.19076">
        <ele>453.39999389648</ele>
        <time>2023-05-21T09:14:30.000Z</time>
      </trkpt>
      <trkpt lat="47.86889" lon="7.19066">
        <ele>453.39999389648</ele>
        <time>2023-05-21T09:14:32.000Z</time>
      </trkpt>
      <trkpt lat="47.86874" lon="7.19042">
        <ele>453.39999389648</ele>
        <time>2023-05-21T09:14:37.000Z</time>
      </trkpt>
      <trkpt lat="47.86864" lon="7.19025">
        <ele>453.39999389648</ele>
        <time>2023-05-21T09:14:40.000Z</time>
      </trkpt>
      <trkpt lat="47.86853" lon="7.19003">
        <ele>453.39999389648</ele>
        <time>2023-05-21T09:14:44.000Z</time>
      </trkpt>
      <trkpt lat="47.86849" lon="7.18992">
        <ele>453.39999389648</ele>
        <time>2023-05-21T09:14:46.000Z</time>
      </trkpt>
      <trkpt lat="47.86833" lon="7.18965">
        <ele>453.39999389648</ele>
        <time>2023-05-21T09:14:52.000Z</time>
      </trkpt>
      <trkpt lat="47.86811" lon="7.18938">
        <ele>453.39999389648</ele>
        <time>2023-05-21T09:14:59.000Z</time>
      </trkpt>
      <trkpt lat="47.86791" lon="7.18933">
        <ele>453.39999389648</ele>
        <time>2023-05-21T09:15:04.000Z</time>
      </trkpt>
      <trkpt lat="47.86773" lon="7.18933">
        <ele>452.79998779297</ele>
        <time>2023-05-21T09:15:07.000Z</time>
      </trkpt>
      <trkpt lat="47.86765" lon="7.18934">
        <ele>452.39999389648</ele>
        <time>2023-05-21T09:15:08.000Z</time>
      </trkpt>
      <trkpt lat="47.86757" lon="7.18935">
        <ele>452</ele>
        <time>2023-05-21T09:15:09.000Z</time>
      </trkpt>
      <trkpt lat="47.86749" lon="7.18937">
        <ele>451.39999389648</ele>
        <time>2023-05-21T09:15:10.000Z</time>
      </trkpt>
      <trkpt lat="47.8674" lon="7.1894">
        <ele>450.20001220703</ele>
        <time>2023-05-21T09:15:11.000Z</time>
      </trkpt>
      <trkpt lat="47.86732" lon="7.18943">
        <ele>449.39999389648</ele>
        <time>2023-05-21T09:15:12.000Z</time>
      </trkpt>
      <trkpt lat="47.86724" lon="7.18946">
        <ele>448.39999389648</ele>
        <time>2023-05-21T09:15:13.000Z</time>
      </trkpt>
      <trkpt lat="47.86718" lon="7.18953">
        <ele>447.60000610352</ele>
        <time>2023-05-21T09:15:14.000Z</time>
      </trkpt>
      <trkpt lat="47.86712" lon="7.18961">
        <ele>446.60000610352</ele>
        <time>2023-05-21T09:15:15.000Z</time>
      </trkpt>
      <trkpt lat="47.8671" lon="7.1897">
        <ele>445.60000610352</ele>
        <time>2023-05-21T09:15:16.000Z</time>
      </trkpt>
      <trkpt lat="47.86708" lon="7.18981">
        <ele>444.60000610352</ele>
        <time>2023-05-21T09:15:17.000Z</time>
      </trkpt>
      <trkpt lat="47.86706" lon="7.18991">
        <ele>444</ele>
        <time>2023-05-21T09:15:18.000Z</time>
      </trkpt>
      <trkpt lat="47.86704" lon="7.19002">
        <ele>443.39999389648</ele>
        <time>2023-05-21T09:15:19.000Z</time>
      </trkpt>
      <trkpt lat="47.86701" lon="7.19014">
        <ele>442.79998779297</ele>
        <time>2023-05-21T09:15:20.000Z</time>
      </trkpt>
      <trkpt lat="47.86699" lon="7.19026">
        <ele>442.20001220703</ele>
        <time>2023-05-21T09:15:21.000Z</time>
      </trkpt>
      <trkpt lat="47.86696" lon="7.19038">
        <ele>441.60000610352</ele>
        <time>2023-05-21T09:15:22.000Z</time>
      </trkpt>
      <trkpt lat="47.86692" lon="7.19049">
        <ele>440.79998779297</ele>
        <time>2023-05-21T09:15:23.000Z</time>
      </trkpt>
      <trkpt lat="47.86688" lon="7.19061">
        <ele>440.20001220703</ele>
        <time>2023-05-21T09:15:24.000Z</time>
      </trkpt>
      <trkpt lat="47.86682" lon="7.19073">
        <ele>439.39999389648</ele>
        <time>2023-05-21T09:15:25.000Z</time>
      </trkpt>
      <trkpt lat="47.86677" lon="7.19084">
        <ele>438.79998779297</ele>
        <time>2023-05-21T09:15:26.000Z</time>
      </trkpt>
      <trkpt lat="47.8667" lon="7.19095">
        <ele>438</ele>
        <time>2023-05-21T09:15:27.000Z</time>
      </trkpt>
      <trkpt lat="47.86663" lon="7.19106">
        <ele>437.39999389648</ele>
        <time>2023-05-21T09:15:28.000Z</time>
      </trkpt>
      <trkpt lat="47.86655" lon="7.19116">
        <ele>436.60000610352</ele>
        <time>2023-05-21T09:15:29.000Z</time>
      </trkpt>
      <trkpt lat="47.86647" lon="7.19126">
        <ele>435.79998779297</ele>
        <time>2023-05-21T09:15:30.000Z</time>
      </trkpt>
      <trkpt lat="47.86638" lon="7.19136">
        <ele>435</ele>
        <time>2023-05-21T09:15:31.000Z</time>
      </trkpt>
      <trkpt lat="47.86631" lon="7.19143">
        <ele>434.20001220703</ele>
        <time>2023-05-21T09:15:32.000Z</time>
      </trkpt>
      <trkpt lat="47.86624" lon="7.19148">
        <ele>433.39999389648</ele>
        <time>2023-05-21T09:15:33.000Z</time>
      </trkpt>
      <trkpt lat="47.86617" lon="7.19151">
        <ele>432.39999389648</ele>
        <time>2023-05-21T09:15:34.000Z</time>
      </trkpt>
      <trkpt lat="47.86612" lon="7.19153">
        <ele>430.79998779297</ele>
        <time>2023-05-21T09:15:35.000Z</time>
      </trkpt>
      <trkpt lat="47.86608" lon="7.19152">
        <ele>429.79998779297</ele>
        <time>2023-05-21T09:15:36.000Z</time>
      </trkpt>
      <trkpt lat="47.86592" lon="7.19142">
        <ele>429.79998779297</ele>
        <time>2023-05-21T09:15:40.000Z</time>
      </trkpt>
      <trkpt lat="47.86586" lon="7.19133">
        <ele>429.79998779297</ele>
        <time>2023-05-21T09:15:42.000Z</time>
      </trkpt>
      <trkpt lat="47.86576" lon="7.19124">
        <ele>429.79998779297</ele>
        <time>2023-05-21T09:15:45.000Z</time>
      </trkpt>
      <trkpt lat="47.86562" lon="7.19113">
        <ele>430.20001220703</ele>
        <time>2023-05-21T09:15:50.000Z</time>
      </trkpt>
      <trkpt lat="47.86559" lon="7.19111">
        <ele>430.60000610352</ele>
        <time>2023-05-21T09:15:51.000Z</time>
      </trkpt>
      <trkpt lat="47.86556" lon="7.19109">
        <ele>431</ele>
        <time>2023-05-21T09:15:52.000Z</time>
      </trkpt>
      <trkpt lat="47.86553" lon="7.19108">
        <ele>431.39999389648</ele>
        <time>2023-05-21T09:15:53.000Z</time>
      </trkpt>
      <trkpt lat="47.8655" lon="7.19106">
        <ele>431.79998779297</ele>
        <time>2023-05-21T09:15:54.000Z</time>
      </trkpt>
      <trkpt lat="47.86547" lon="7.19104">
        <ele>431.79998779297</ele>
        <time>2023-05-21T09:15:55.000Z</time>
      </trkpt>
      <trkpt lat="47.86544" lon="7.19103">
        <ele>432.20001220703</ele>
        <time>2023-05-21T09:15:56.000Z</time>
      </trkpt>
      <trkpt lat="47.8654" lon="7.19101">
        <ele>432.79998779297</ele>
        <time>2023-05-21T09:15:57.000Z</time>
      </trkpt>
      <trkpt lat="47.86537" lon="7.19099">
        <ele>433.20001220703</ele>
        <time>2023-05-21T09:15:58.000Z</time>
      </trkpt>
      <trkpt lat="47.86534" lon="7.19097">
        <ele>433.60000610352</ele>
        <time>2023-05-21T09:15:59.000Z</time>
      </trkpt>
      <trkpt lat="47.86531" lon="7.19096">
        <ele>434</ele>
        <time>2023-05-21T09:16:00.000Z</time>
      </trkpt>
      <trkpt lat="47.86525" lon="7.19092">
        <ele>434.39999389648</ele>
        <time>2023-05-21T09:16:02.000Z</time>
      </trkpt>
      <trkpt lat="47.86522" lon="7.1909">
        <ele>434.79998779297</ele>
        <time>2023-05-21T09:16:03.000Z</time>
      </trkpt>
      <trkpt lat="47.86519" lon="7.19089">
        <ele>435.39999389648</ele>
        <time>2023-05-21T09:16:04.000Z</time>
      </trkpt>
      <trkpt lat="47.86516" lon="7.19088">
        <ele>435.79998779297</ele>
        <time>2023-05-21T09:16:05.000Z</time>
      </trkpt>
      <trkpt lat="47.86512" lon="7.19086">
        <ele>436.20001220703</ele>
        <time>2023-05-21T09:16:06.000Z</time>
      </trkpt>
      <trkpt lat="47.86496" lon="7.19077">
        <ele>436.60000610352</ele>
        <time>2023-05-21T09:16:11.000Z</time>
      </trkpt>
      <trkpt lat="47.86493" lon="7.19075">
        <ele>437.20001220703</ele>
        <time>2023-05-21T09:16:12.000Z</time>
      </trkpt>
      <trkpt lat="47.8649" lon="7.19074">
        <ele>437.60000610352</ele>
        <time>2023-05-21T09:16:13.000Z</time>
      </trkpt>
      <trkpt lat="47.86487" lon="7.19073">
        <ele>438</ele>
        <time>2023-05-21T09:16:14.000Z</time>
      </trkpt>
      <trkpt lat="47.86484" lon="7.19071">
        <ele>438.39999389648</ele>
        <time>2023-05-21T09:16:15.000Z</time>
      </trkpt>
      <trkpt lat="47.86474" lon="7.19069">
        <ele>439</ele>
        <time>2023-05-21T09:16:18.000Z</time>
      </trkpt>
      <trkpt lat="47.86471" lon="7.19068">
        <ele>439.39999389648</ele>
        <time>2023-05-21T09:16:19.000Z</time>
      </trkpt>
      <trkpt lat="47.86468" lon="7.19067">
        <ele>439.79998779297</ele>
        <time>2023-05-21T09:16:20.000Z</time>
      </trkpt>
      <trkpt lat="47.86465" lon="7.19067">
        <ele>440.39999389648</ele>
        <time>2023-05-21T09:16:21.000Z</time>
      </trkpt>
      <trkpt lat="47.86462" lon="7.19066">
        <ele>440.79998779297</ele>
        <time>2023-05-21T09:16:22.000Z</time>
      </trkpt>
      <trkpt lat="47.86454" lon="7.19064">
        <ele>440.79998779297</ele>
        <time>2023-05-21T09:16:25.000Z</time>
      </trkpt>
      <trkpt lat="47.86451" lon="7.19063">
        <ele>441.20001220703</ele>
        <time>2023-05-21T09:16:26.000Z</time>
      </trkpt>
      <trkpt lat="47.86449" lon="7.19062">
        <ele>441.60000610352</ele>
        <time>2023-05-21T09:16:27.000Z</time>
      </trkpt>
      <trkpt lat="47.86446" lon="7.1906">
        <ele>442</ele>
        <time>2023-05-21T09:16:28.000Z</time>
      </trkpt>
      <trkpt lat="47.86443" lon="7.19058">
        <ele>442.39999389648</ele>
        <time>2023-05-21T09:16:29.000Z</time>
      </trkpt>
      <trkpt lat="47.8644" lon="7.19057">
        <ele>442.79998779297</ele>
        <time>2023-05-21T09:16:30.000Z</time>
      </trkpt>
      <trkpt lat="47.86437" lon="7.19055">
        <ele>442.79998779297</ele>
        <time>2023-05-21T09:16:31.000Z</time>
      </trkpt>
      <trkpt lat="47.8643" lon="7.19049">
        <ele>443.39999389648</ele>
        <time>2023-05-21T09:16:34.000Z</time>
      </trkpt>
      <trkpt lat="47.86427" lon="7.19048">
        <ele>443.79998779297</ele>
        <time>2023-05-21T09:16:35.000Z</time>
      </trkpt>
      <trkpt lat="47.86425" lon="7.19045">
        <ele>444.20001220703</ele>
        <time>2023-05-21T09:16:36.000Z</time>
      </trkpt>
      <trkpt lat="47.86422" lon="7.19041">
        <ele>444.60000610352</ele>
        <time>2023-05-21T09:16:37.000Z</time>
      </trkpt>
      <trkpt lat="47.8642" lon="7.19038">
        <ele>445</ele>
        <time>2023-05-21T09:16:38.000Z</time>
      </trkpt>
      <trkpt lat="47.86405" lon="7.19025">
        <ele>445.39999389648</ele>
        <time>2023-05-21T09:16:43.000Z</time>
      </trkpt>
      <trkpt lat="47.86402" lon="7.19022">
        <ele>445.79998779297</ele>
        <time>2023-05-21T09:16:44.000Z</time>
      </trkpt>
      <trkpt lat="47.864" lon="7.19021">
        <ele>446.39999389648</ele>
        <time>2023-05-21T09:16:45.000Z</time>
      </trkpt>
      <trkpt lat="47.86397" lon="7.19018">
        <ele>446.79998779297</ele>
        <time>2023-05-21T09:16:46.000Z</time>
      </trkpt>
      <trkpt lat="47.86395" lon="7.19017">
        <ele>447.20001220703</ele>
        <time>2023-05-21T09:16:47.000Z</time>
      </trkpt>
      <trkpt lat="47.86389" lon="7.19014">
        <ele>447.20001220703</ele>
        <time>2023-05-21T09:16:49.000Z</time>
      </trkpt>
      <trkpt lat="47.86386" lon="7.19011">
        <ele>447.60000610352</ele>
        <time>2023-05-21T09:16:50.000Z</time>
      </trkpt>
      <trkpt lat="47.86383" lon="7.19009">
        <ele>448.20001220703</ele>
        <time>2023-05-21T09:16:51.000Z</time>
      </trkpt>
      <trkpt lat="47.86381" lon="7.19007">
        <ele>448.60000610352</ele>
        <time>2023-05-21T09:16:52.000Z</time>
      </trkpt>
      <trkpt lat="47.86379" lon="7.19004">
        <ele>449</ele>
        <time>2023-05-21T09:16:53.000Z</time>
      </trkpt>
      <trkpt lat="47.86376" lon="7.19002">
        <ele>449.60000610352</ele>
        <time>2023-05-21T09:16:54.000Z</time>
      </trkpt>
      <trkpt lat="47.86374" lon="7.19">
        <ele>449.60000610352</ele>
        <time>2023-05-21T09:16:55.000Z</time>
      </trkpt>
      <trkpt lat="47.8637" lon="7.18996">
        <ele>450</ele>
        <time>2023-05-21T09:16:57.000Z</time>
      </trkpt>
      <trkpt lat="47.86367" lon="7.18994">
        <ele>450.39999389648</ele>
        <time>2023-05-21T09:16:58.000Z</time>
      </trkpt>
      <trkpt lat="47.86365" lon="7.18992">
        <ele>450.79998779297</ele>
        <time>2023-05-21T09:16:59.000Z</time>
      </trkpt>
      <trkpt lat="47.86363" lon="7.1899">
        <ele>451.20001220703</ele>
        <time>2023-05-21T09:17:00.000Z</time>
      </trkpt>
      <trkpt lat="47.86361" lon="7.18988">
        <ele>451.60000610352</ele>
        <time>2023-05-21T09:17:01.000Z</time>
      </trkpt>
      <trkpt lat="47.86352" lon="7.18981">
        <ele>452</ele>
        <time>2023-05-21T09:17:05.000Z</time>
      </trkpt>
      <trkpt lat="47.8635" lon="7.1898">
        <ele>452.39999389648</ele>
        <time>2023-05-21T09:17:06.000Z</time>
      </trkpt>
      <trkpt lat="47.86347" lon="7.18979">
        <ele>453</ele>
        <time>2023-05-21T09:17:07.000Z</time>
      </trkpt>
      <trkpt lat="47.86345" lon="7.18977">
        <ele>453.39999389648</ele>
        <time>2023-05-21T09:17:08.000Z</time>
      </trkpt>
      <trkpt lat="47.86342" lon="7.18975">
        <ele>453.79998779297</ele>
        <time>2023-05-21T09:17:09.000Z</time>
      </trkpt>
      <trkpt lat="47.86328" lon="7.18963">
        <ele>454.60000610352</ele>
        <time>2023-05-21T09:17:14.000Z</time>
      </trkpt>
      <trkpt lat="47.86325" lon="7.18961">
        <ele>455</ele>
        <time>2023-05-21T09:17:15.000Z</time>
      </trkpt>
      <trkpt lat="47.86323" lon="7.18958">
        <ele>455.60000610352</ele>
        <time>2023-05-21T09:17:16.000Z</time>
      </trkpt>
      <trkpt lat="47.86319" lon="7.18957">
        <ele>456</ele>
        <time>2023-05-21T09:17:17.000Z</time>
      </trkpt>
      <trkpt lat="47.86313" lon="7.18953">
        <ele>456</ele>
        <time>2023-05-21T09:17:19.000Z</time>
      </trkpt>
      <trkpt lat="47.86299" lon="7.18943">
        <ele>456.39999389648</ele>
        <time>2023-05-21T09:17:23.000Z</time>
      </trkpt>
      <trkpt lat="47.86295" lon="7.1894">
        <ele>456.79998779297</ele>
        <time>2023-05-21T09:17:24.000Z</time>
      </trkpt>
      <trkpt lat="47.86292" lon="7.18938">
        <ele>457.39999389648</ele>
        <time>2023-05-21T09:17:25.000Z</time>
      </trkpt>
      <trkpt lat="47.86289" lon="7.18936">
        <ele>457.79998779297</ele>
        <time>2023-05-21T09:17:26.000Z</time>
      </trkpt>
      <trkpt lat="47.86286" lon="7.18934">
        <ele>458.20001220703</ele>
        <time>2023-05-21T09:17:27.000Z</time>
      </trkpt>
      <trkpt lat="47.86274" lon="7.18924">
        <ele>458.20001220703</ele>
        <time>2023-05-21T09:17:31.000Z</time>
      </trkpt>
      <trkpt lat="47.86255" lon="7.18904">
        <ele>458.20001220703</ele>
        <time>2023-05-21T09:17:38.000Z</time>
      </trkpt>
      <trkpt lat="47.86234" lon="7.18878">
        <ele>458.20001220703</ele>
        <time>2023-05-21T09:17:45.000Z</time>
      </trkpt>
      <trkpt lat="47.86218" lon="7.18861">
        <ele>458.60000610352</ele>
        <time>2023-05-21T09:17:50.000Z</time>
      </trkpt>
      <trkpt lat="47.86214" lon="7.18858">
        <ele>459</ele>
        <time>2023-05-21T09:17:51.000Z</time>
      </trkpt>
      <trkpt lat="47.86211" lon="7.18855">
        <ele>459.39999389648</ele>
        <time>2023-05-21T09:17:52.000Z</time>
      </trkpt>
      <trkpt lat="47.86208" lon="7.18852">
        <ele>459.79998779297</ele>
        <time>2023-05-21T09:17:53.000Z</time>
      </trkpt>
      <trkpt lat="47.86206" lon="7.18848">
        <ele>460.20001220703</ele>
        <time>2023-05-21T09:17:54.000Z</time>
      </trkpt>
      <trkpt lat="47.86201" lon="7.18836">
        <ele>460.20001220703</ele>
        <time>2023-05-21T09:17:57.000Z</time>
      </trkpt>
      <trkpt lat="47.86189" lon="7.1881">
        <ele>460.60000610352</ele>
        <time>2023-05-21T09:18:03.000Z</time>
      </trkpt>
      <trkpt lat="47.86187" lon="7.18806">
        <ele>461.20001220703</ele>
        <time>2023-05-21T09:18:04.000Z</time>
      </trkpt>
      <trkpt lat="47.86185" lon="7.18801">
        <ele>461.60000610352</ele>
        <time>2023-05-21T09:18:05.000Z</time>
      </trkpt>
      <trkpt lat="47.86183" lon="7.18797">
        <ele>462</ele>
        <time>2023-05-21T09:18:06.000Z</time>
      </trkpt>
      <trkpt lat="47.86182" lon="7.18794">
        <ele>462.60000610352</ele>
        <time>2023-05-21T09:18:07.000Z</time>
      </trkpt>
      <trkpt lat="47.86174" lon="7.18781">
        <ele>463</ele>
        <time>2023-05-21T09:18:10.000Z</time>
      </trkpt>
      <trkpt lat="47.86171" lon="7.18777">
        <ele>463.39999389648</ele>
        <time>2023-05-21T09:18:11.000Z</time>
      </trkpt>
      <trkpt lat="47.86169" lon="7.18774">
        <ele>463.79998779297</ele>
        <time>2023-05-21T09:18:12.000Z</time>
      </trkpt>
      <trkpt lat="47.86167" lon="7.1877">
        <ele>464.20001220703</ele>
        <time>2023-05-21T09:18:13.000Z</time>
      </trkpt>
      <trkpt lat="47.86164" lon="7.18767">
        <ele>464.60000610352</ele>
        <time>2023-05-21T09:18:14.000Z</time>
      </trkpt>
      <trkpt lat="47.86156" lon="7.18756">
        <ele>464.60000610352</ele>
        <time>2023-05-21T09:18:17.000Z</time>
      </trkpt>
      <trkpt lat="47.86153" lon="7.18753">
        <ele>465</ele>
        <time>2023-05-21T09:18:18.000Z</time>
      </trkpt>
      <trkpt lat="47.86149" lon="7.18749">
        <ele>465.39999389648</ele>
        <time>2023-05-21T09:18:19.000Z</time>
      </trkpt>
      <trkpt lat="47.86145" lon="7.18747">
        <ele>465.79998779297</ele>
        <time>2023-05-21T09:18:20.000Z</time>
      </trkpt>
      <trkpt lat="47.86142" lon="7.18744">
        <ele>466.20001220703</ele>
        <time>2023-05-21T09:18:21.000Z</time>
      </trkpt>
      <trkpt lat="47.8614" lon="7.18742">
        <ele>466.60000610352</ele>
        <time>2023-05-21T09:18:22.000Z</time>
      </trkpt>
      <trkpt lat="47.86136" lon="7.1874">
        <ele>466.60000610352</ele>
        <time>2023-05-21T09:18:23.000Z</time>
      </trkpt>
      <trkpt lat="47.86119" lon="7.18724">
        <ele>466.60000610352</ele>
        <time>2023-05-21T09:18:28.000Z</time>
      </trkpt>
      <trkpt lat="47.86099" lon="7.18711">
        <ele>466.60000610352</ele>
        <time>2023-05-21T09:18:33.000Z</time>
      </trkpt>
      <trkpt lat="47.86085" lon="7.18701">
        <ele>467.20001220703</ele>
        <time>2023-05-21T09:18:37.000Z</time>
      </trkpt>
      <trkpt lat="47.86082" lon="7.18698">
        <ele>467.60000610352</ele>
        <time>2023-05-21T09:18:38.000Z</time>
      </trkpt>
      <trkpt lat="47.8608" lon="7.18696">
        <ele>468</ele>
        <time>2023-05-21T09:18:39.000Z</time>
      </trkpt>
      <trkpt lat="47.86077" lon="7.18694">
        <ele>468.39999389648</ele>
        <time>2023-05-21T09:18:40.000Z</time>
      </trkpt>
      <trkpt lat="47.86075" lon="7.18692">
        <ele>468.79998779297</ele>
        <time>2023-05-21T09:18:41.000Z</time>
      </trkpt>
      <trkpt lat="47.86064" lon="7.18679">
        <ele>468.79998779297</ele>
        <time>2023-05-21T09:18:44.000Z</time>
      </trkpt>
      <trkpt lat="47.86038" lon="7.18653">
        <ele>468.79998779297</ele>
        <time>2023-05-21T09:18:50.000Z</time>
      </trkpt>
      <trkpt lat="47.8603" lon="7.18646">
        <ele>468.79998779297</ele>
        <time>2023-05-21T09:18:52.000Z</time>
      </trkpt>
      <trkpt lat="47.86017" lon="7.1863">
        <ele>468.79998779297</ele>
        <time>2023-05-21T09:18:55.000Z</time>
      </trkpt>
      <trkpt lat="47.86007" lon="7.18623">
        <ele>468.79998779297</ele>
        <time>2023-05-21T09:18:57.000Z</time>
      </trkpt>
      <trkpt lat="47.85996" lon="7.18617">
        <ele>468.79998779297</ele>
        <time>2023-05-21T09:18:59.000Z</time>
      </trkpt>
      <trkpt lat="47.85977" lon="7.18609">
        <ele>468.39999389648</ele>
        <time>2023-05-21T09:19:02.000Z</time>
      </trkpt>
      <trkpt lat="47.85969" lon="7.18604">
        <ele>467.79998779297</ele>
        <time>2023-05-21T09:19:03.000Z</time>
      </trkpt>
      <trkpt lat="47.85961" lon="7.186">
        <ele>467.20001220703</ele>
        <time>2023-05-21T09:19:04.000Z</time>
      </trkpt>
      <trkpt lat="47.85954" lon="7.18597">
        <ele>466.79998779297</ele>
        <time>2023-05-21T09:19:05.000Z</time>
      </trkpt>
      <trkpt lat="47.85949" lon="7.18594">
        <ele>466.20001220703</ele>
        <time>2023-05-21T09:19:06.000Z</time>
      </trkpt>
      <trkpt lat="47.85943" lon="7.18593">
        <ele>466.20001220703</ele>
        <time>2023-05-21T09:19:07.000Z</time>
      </trkpt>
      <trkpt lat="47.85939" lon="7.18593">
        <ele>466.20001220703</ele>
        <time>2023-05-21T09:19:08.000Z</time>
      </trkpt>
      <trkpt lat="47.85917" lon="7.18598">
        <ele>466.20001220703</ele>
        <time>2023-05-21T09:19:13.000Z</time>
      </trkpt>
      <trkpt lat="47.85897" lon="7.18606">
        <ele>466.20001220703</ele>
        <time>2023-05-21T09:19:17.000Z</time>
      </trkpt>
      <trkpt lat="47.85891" lon="7.18607">
        <ele>466.20001220703</ele>
        <time>2023-05-21T09:19:18.000Z</time>
      </trkpt>
      <trkpt lat="47.85873" lon="7.18607">
        <ele>466.20001220703</ele>
        <time>2023-05-21T09:19:21.000Z</time>
      </trkpt>
      <trkpt lat="47.85856" lon="7.18606">
        <ele>466.20001220703</ele>
        <time>2023-05-21T09:19:24.000Z</time>
      </trkpt>
      <trkpt lat="47.85832" lon="7.18606">
        <ele>466.20001220703</ele>
        <time>2023-05-21T09:19:29.000Z</time>
      </trkpt>
      <trkpt lat="47.85822" lon="7.18606">
        <ele>466.20001220703</ele>
        <time>2023-05-21T09:19:31.000Z</time>
      </trkpt>
      <trkpt lat="47.85808" lon="7.18606">
        <ele>466.20001220703</ele>
        <time>2023-05-21T09:19:34.000Z</time>
      </trkpt>
      <trkpt lat="47.85774" lon="7.18604">
        <ele>467</ele>
        <time>2023-05-21T09:19:41.000Z</time>
      </trkpt>
      <trkpt lat="47.85769" lon="7.18604">
        <ele>467.60000610352</ele>
        <time>2023-05-21T09:19:42.000Z</time>
      </trkpt>
      <trkpt lat="47.85764" lon="7.18604">
        <ele>468</ele>
        <time>2023-05-21T09:19:43.000Z</time>
      </trkpt>
      <trkpt lat="47.8576" lon="7.18604">
        <ele>468.39999389648</ele>
        <time>2023-05-21T09:19:44.000Z</time>
      </trkpt>
      <trkpt lat="47.85752" lon="7.18603">
        <ele>468.39999389648</ele>
        <time>2023-05-21T09:19:46.000Z</time>
      </trkpt>
      <trkpt lat="47.85733" lon="7.186">
        <ele>468.39999389648</ele>
        <time>2023-05-21T09:19:50.000Z</time>
      </trkpt>
      <trkpt lat="47.85728" lon="7.186">
        <ele>468.39999389648</ele>
        <time>2023-05-21T09:19:51.000Z</time>
      </trkpt>
      <trkpt lat="47.85708" lon="7.18599">
        <ele>468.39999389648</ele>
        <time>2023-05-21T09:19:55.000Z</time>
      </trkpt>
      <trkpt lat="47.85686" lon="7.18598">
        <ele>468.39999389648</ele>
        <time>2023-05-21T09:20:00.000Z</time>
      </trkpt>
      <trkpt lat="47.85681" lon="7.18597">
        <ele>468.39999389648</ele>
        <time>2023-05-21T09:20:01.000Z</time>
      </trkpt>
      <trkpt lat="47.85664" lon="7.18594">
        <ele>469.20001220703</ele>
        <time>2023-05-21T09:20:05.000Z</time>
      </trkpt>
      <trkpt lat="47.85659" lon="7.18592">
        <ele>469.60000610352</ele>
        <time>2023-05-21T09:20:06.000Z</time>
      </trkpt>
      <trkpt lat="47.85655" lon="7.18591">
        <ele>470</ele>
        <time>2023-05-21T09:20:07.000Z</time>
      </trkpt>
      <trkpt lat="47.8565" lon="7.18589">
        <ele>470.39999389648</ele>
        <time>2023-05-21T09:20:08.000Z</time>
      </trkpt>
      <trkpt lat="47.85633" lon="7.1858">
        <ele>470.39999389648</ele>
        <time>2023-05-21T09:20:12.000Z</time>
      </trkpt>
      <trkpt lat="47.85629" lon="7.18579">
        <ele>470.39999389648</ele>
        <time>2023-05-21T09:20:13.000Z</time>
      </trkpt>
      <trkpt lat="47.8561" lon="7.18574">
        <ele>470.39999389648</ele>
        <time>2023-05-21T09:20:17.000Z</time>
      </trkpt>
      <trkpt lat="47.85602" lon="7.18572">
        <ele>470.79998779297</ele>
        <time>2023-05-21T09:20:19.000Z</time>
      </trkpt>
      <trkpt lat="47.85598" lon="7.18571">
        <ele>471.39999389648</ele>
        <time>2023-05-21T09:20:20.000Z</time>
      </trkpt>
      <trkpt lat="47.85594" lon="7.18569">
        <ele>471.79998779297</ele>
        <time>2023-05-21T09:20:21.000Z</time>
      </trkpt>
      <trkpt lat="47.8559" lon="7.18568">
        <ele>472.20001220703</ele>
        <time>2023-05-21T09:20:22.000Z</time>
      </trkpt>
      <trkpt lat="47.85586" lon="7.18566">
        <ele>472.79998779297</ele>
        <time>2023-05-21T09:20:23.000Z</time>
      </trkpt>
      <trkpt lat="47.85578" lon="7.18564">
        <ele>473.20001220703</ele>
        <time>2023-05-21T09:20:25.000Z</time>
      </trkpt>
      <trkpt lat="47.85572" lon="7.18565">
        <ele>473.60000610352</ele>
        <time>2023-05-21T09:20:26.000Z</time>
      </trkpt>
      <trkpt lat="47.85566" lon="7.18565">
        <ele>474</ele>
        <time>2023-05-21T09:20:27.000Z</time>
      </trkpt>
      <trkpt lat="47.85562" lon="7.18564">
        <ele>474.39999389648</ele>
        <time>2023-05-21T09:20:28.000Z</time>
      </trkpt>
      <trkpt lat="47.85557" lon="7.18564">
        <ele>474.79998779297</ele>
        <time>2023-05-21T09:20:29.000Z</time>
      </trkpt>
      <trkpt lat="47.85548" lon="7.18566">
        <ele>475.20001220703</ele>
        <time>2023-05-21T09:20:31.000Z</time>
      </trkpt>
      <trkpt lat="47.85543" lon="7.18567">
        <ele>475.60000610352</ele>
        <time>2023-05-21T09:20:32.000Z</time>
      </trkpt>
      <trkpt lat="47.85539" lon="7.18567">
        <ele>476</ele>
        <time>2023-05-21T09:20:33.000Z</time>
      </trkpt>
      <trkpt lat="47.85535" lon="7.18569">
        <ele>476.39999389648</ele>
        <time>2023-05-21T09:20:34.000Z</time>
      </trkpt>
      <trkpt lat="47.8553" lon="7.1857">
        <ele>476.79998779297</ele>
        <time>2023-05-21T09:20:35.000Z</time>
      </trkpt>
      <trkpt lat="47.85526" lon="7.18571">
        <ele>476.79998779297</ele>
        <time>2023-05-21T09:20:36.000Z</time>
      </trkpt>
      <trkpt lat="47.85502" lon="7.1858">
        <ele>476.79998779297</ele>
        <time>2023-05-21T09:20:42.000Z</time>
      </trkpt>
      <trkpt lat="47.85475" lon="7.18585">
        <ele>476.79998779297</ele>
        <time>2023-05-21T09:20:49.000Z</time>
      </trkpt>
      <trkpt lat="47.8545" lon="7.18589">
        <ele>476.79998779297</ele>
        <time>2023-05-21T09:20:55.000Z</time>
      </trkpt>
      <trkpt lat="47.85428" lon="7.18586">
        <ele>476.79998779297</ele>
        <time>2023-05-21T09:21:01.000Z</time>
      </trkpt>
      <trkpt lat="47.85416" lon="7.18589">
        <ele>476.79998779297</ele>
        <time>2023-05-21T09:21:06.000Z</time>
      </trkpt>
      <trkpt lat="47.85397" lon="7.18596">
        <ele>476.79998779297</ele>
        <time>2023-05-21T09:21:12.000Z</time>
      </trkpt>
      <trkpt lat="47.85372" lon="7.18602">
        <ele>476.79998779297</ele>
        <time>2023-05-21T09:21:19.000Z</time>
      </trkpt>
      <trkpt lat="47.85349" lon="7.18602">
        <ele>476.79998779297</ele>
        <time>2023-05-21T09:21:25.000Z</time>
      </trkpt>
      <trkpt lat="47.85318" lon="7.18599">
        <ele>476.79998779297</ele>
        <time>2023-05-21T09:21:33.000Z</time>
      </trkpt>
      <trkpt lat="47.85299" lon="7.18595">
        <ele>476.79998779297</ele>
        <time>2023-05-21T09:21:38.000Z</time>
      </trkpt>
      <trkpt lat="47.85271" lon="7.18593">
        <ele>476.79998779297</ele>
        <time>2023-05-21T09:21:45.000Z</time>
      </trkpt>
      <trkpt lat="47.85264" lon="7.18593">
        <ele>477.20001220703</ele>
        <time>2023-05-21T09:21:47.000Z</time>
      </trkpt>
      <trkpt lat="47.8526" lon="7.18594">
        <ele>477.60000610352</ele>
        <time>2023-05-21T09:21:48.000Z</time>
      </trkpt>
      <trkpt lat="47.85256" lon="7.18595">
        <ele>478.20001220703</ele>
        <time>2023-05-21T09:21:49.000Z</time>
      </trkpt>
      <trkpt lat="47.85253" lon="7.18595">
        <ele>478.60000610352</ele>
        <time>2023-05-21T09:21:50.000Z</time>
      </trkpt>
      <trkpt lat="47.85249" lon="7.18595">
        <ele>479</ele>
        <time>2023-05-21T09:21:51.000Z</time>
      </trkpt>
      <trkpt lat="47.85241" lon="7.18597">
        <ele>479</ele>
        <time>2023-05-21T09:21:53.000Z</time>
      </trkpt>
      <trkpt lat="47.85232" lon="7.18598">
        <ele>479</ele>
        <time>2023-05-21T09:21:55.000Z</time>
      </trkpt>
      <trkpt lat="47.8522" lon="7.186">
        <ele>479</ele>
        <time>2023-05-21T09:21:58.000Z</time>
      </trkpt>
      <trkpt lat="47.85205" lon="7.18603">
        <ele>479</ele>
        <time>2023-05-21T09:22:01.000Z</time>
      </trkpt>
      <trkpt lat="47.852" lon="7.18604">
        <ele>479</ele>
        <time>2023-05-21T09:22:02.000Z</time>
      </trkpt>
      <trkpt lat="47.85164" lon="7.18614">
        <ele>478.60000610352</ele>
        <time>2023-05-21T09:22:09.000Z</time>
      </trkpt>
      <trkpt lat="47.85159" lon="7.18615">
        <ele>478.20001220703</ele>
        <time>2023-05-21T09:22:10.000Z</time>
      </trkpt>
      <trkpt lat="47.85153" lon="7.18614">
        <ele>477.60000610352</ele>
        <time>2023-05-21T09:22:11.000Z</time>
      </trkpt>
      <trkpt lat="47.85148" lon="7.18612">
        <ele>477.20001220703</ele>
        <time>2023-05-21T09:22:12.000Z</time>
      </trkpt>
      <trkpt lat="47.85142" lon="7.18611">
        <ele>476.79998779297</ele>
        <time>2023-05-21T09:22:13.000Z</time>
      </trkpt>
      <trkpt lat="47.85132" lon="7.18607">
        <ele>476.79998779297</ele>
        <time>2023-05-21T09:22:15.000Z</time>
      </trkpt>
      <trkpt lat="47.85116" lon="7.18599">
        <ele>476.79998779297</ele>
        <time>2023-05-21T09:22:18.000Z</time>
      </trkpt>
      <trkpt lat="47.85085" lon="7.18591">
        <ele>476.79998779297</ele>
        <time>2023-05-21T09:22:24.000Z</time>
      </trkpt>
      <trkpt lat="47.8508" lon="7.18591">
        <ele>476.79998779297</ele>
        <time>2023-05-21T09:22:25.000Z</time>
      </trkpt>
      <trkpt lat="47.85061" lon="7.18593">
        <ele>476.79998779297</ele>
        <time>2023-05-21T09:22:29.000Z</time>
      </trkpt>
      <trkpt lat="47.85034" lon="7.18607">
        <ele>476.79998779297</ele>
        <time>2023-05-21T09:22:35.000Z</time>
      </trkpt>
      <trkpt lat="47.85025" lon="7.1861">
        <ele>477.20001220703</ele>
        <time>2023-05-21T09:22:37.000Z</time>
      </trkpt>
      <trkpt lat="47.85022" lon="7.18611">
        <ele>477.60000610352</ele>
        <time>2023-05-21T09:22:38.000Z</time>
      </trkpt>
      <trkpt lat="47.85017" lon="7.18611">
        <ele>478</ele>
        <time>2023-05-21T09:22:39.000Z</time>
      </trkpt>
      <trkpt lat="47.85012" lon="7.18611">
        <ele>478.39999389648</ele>
        <time>2023-05-21T09:22:40.000Z</time>
      </trkpt>
      <trkpt lat="47.85006" lon="7.18613">
        <ele>479</ele>
        <time>2023-05-21T09:22:41.000Z</time>
      </trkpt>
      <trkpt lat="47.84977" lon="7.18618">
        <ele>479</ele>
        <time>2023-05-21T09:22:46.000Z</time>
      </trkpt>
      <trkpt lat="47.84971" lon="7.18618">
        <ele>479</ele>
        <time>2023-05-21T09:22:47.000Z</time>
      </trkpt>
      <trkpt lat="47.84954" lon="7.18614">
        <ele>479</ele>
        <time>2023-05-21T09:22:50.000Z</time>
      </trkpt>
      <trkpt lat="47.84938" lon="7.18607">
        <ele>479</ele>
        <time>2023-05-21T09:22:53.000Z</time>
      </trkpt>
      <trkpt lat="47.84902" lon="7.18589">
        <ele>478</ele>
        <time>2023-05-21T09:22:59.000Z</time>
      </trkpt>
      <trkpt lat="47.84895" lon="7.18586">
        <ele>477.60000610352</ele>
        <time>2023-05-21T09:23:00.000Z</time>
      </trkpt>
      <trkpt lat="47.84887" lon="7.18582">
        <ele>477.20001220703</ele>
        <time>2023-05-21T09:23:01.000Z</time>
      </trkpt>
      <trkpt lat="47.84879" lon="7.18578">
        <ele>476.79998779297</ele>
        <time>2023-05-21T09:23:02.000Z</time>
      </trkpt>
      <trkpt lat="47.84871" lon="7.18576">
        <ele>476.20001220703</ele>
        <time>2023-05-21T09:23:03.000Z</time>
      </trkpt>
      <trkpt lat="47.84863" lon="7.18574">
        <ele>475.60000610352</ele>
        <time>2023-05-21T09:23:04.000Z</time>
      </trkpt>
      <trkpt lat="47.84855" lon="7.18571">
        <ele>475.20001220703</ele>
        <time>2023-05-21T09:23:05.000Z</time>
      </trkpt>
      <trkpt lat="47.84846" lon="7.18569">
        <ele>474.60000610352</ele>
        <time>2023-05-21T09:23:06.000Z</time>
      </trkpt>
      <trkpt lat="47.84836" lon="7.18567">
        <ele>474</ele>
        <time>2023-05-21T09:23:07.000Z</time>
      </trkpt>
      <trkpt lat="47.84827" lon="7.18566">
        <ele>473.60000610352</ele>
        <time>2023-05-21T09:23:08.000Z</time>
      </trkpt>
      <trkpt lat="47.84817" lon="7.18566">
        <ele>472.79998779297</ele>
        <time>2023-05-21T09:23:09.000Z</time>
      </trkpt>
      <trkpt lat="47.84808" lon="7.18567">
        <ele>472</ele>
        <time>2023-05-21T09:23:10.000Z</time>
      </trkpt>
      <trkpt lat="47.84798" lon="7.18568">
        <ele>471.39999389648</ele>
        <time>2023-05-21T09:23:11.000Z</time>
      </trkpt>
      <trkpt lat="47.84787" lon="7.1857">
        <ele>470.39999389648</ele>
        <time>2023-05-21T09:23:12.000Z</time>
      </trkpt>
      <trkpt lat="47.84776" lon="7.18572">
        <ele>469.60000610352</ele>
        <time>2023-05-21T09:23:13.000Z</time>
      </trkpt>
      <trkpt lat="47.84765" lon="7.18573">
        <ele>468.60000610352</ele>
        <time>2023-05-21T09:23:14.000Z</time>
      </trkpt>
      <trkpt lat="47.84754" lon="7.18574">
        <ele>467.79998779297</ele>
        <time>2023-05-21T09:23:15.000Z</time>
      </trkpt>
      <trkpt lat="47.84743" lon="7.18573">
        <ele>466.79998779297</ele>
        <time>2023-05-21T09:23:16.000Z</time>
      </trkpt>
      <trkpt lat="47.84733" lon="7.18572">
        <ele>466</ele>
        <time>2023-05-21T09:23:17.000Z</time>
      </trkpt>
      <trkpt lat="47.84722" lon="7.18572">
        <ele>465</ele>
        <time>2023-05-21T09:23:18.000Z</time>
      </trkpt>
      <trkpt lat="47.84713" lon="7.18572">
        <ele>464.20001220703</ele>
        <time>2023-05-21T09:23:19.000Z</time>
      </trkpt>
      <trkpt lat="47.84703" lon="7.18571">
        <ele>463.20001220703</ele>
        <time>2023-05-21T09:23:20.000Z</time>
      </trkpt>
      <trkpt lat="47.84694" lon="7.18569">
        <ele>462.39999389648</ele>
        <time>2023-05-21T09:23:21.000Z</time>
      </trkpt>
      <trkpt lat="47.84685" lon="7.18566">
        <ele>461.79998779297</ele>
        <time>2023-05-21T09:23:22.000Z</time>
      </trkpt>
      <trkpt lat="47.84676" lon="7.18563">
        <ele>461</ele>
        <time>2023-05-21T09:23:23.000Z</time>
      </trkpt>
      <trkpt lat="47.84668" lon="7.18561">
        <ele>460.39999389648</ele>
        <time>2023-05-21T09:23:24.000Z</time>
      </trkpt>
      <trkpt lat="47.84659" lon="7.18559">
        <ele>460</ele>
        <time>2023-05-21T09:23:25.000Z</time>
      </trkpt>
      <trkpt lat="47.84643" lon="7.18554">
        <ele>460</ele>
        <time>2023-05-21T09:23:27.000Z</time>
      </trkpt>
      <trkpt lat="47.84604" lon="7.18543">
        <ele>460</ele>
        <time>2023-05-21T09:23:33.000Z</time>
      </trkpt>
      <trkpt lat="47.84573" lon="7.18534">
        <ele>460</ele>
        <time>2023-05-21T09:23:39.000Z</time>
      </trkpt>
      <trkpt lat="47.84535" lon="7.18508">
        <ele>460</ele>
        <time>2023-05-21T09:23:47.000Z</time>
      </trkpt>
      <trkpt lat="47.84517" lon="7.18498">
        <ele>460</ele>
        <time>2023-05-21T09:23:51.000Z</time>
      </trkpt>
      <trkpt lat="47.84506" lon="7.1849">
        <ele>460</ele>
        <time>2023-05-21T09:23:54.000Z</time>
      </trkpt>
      <trkpt lat="47.8449" lon="7.18478">
        <ele>460.39999389648</ele>
        <time>2023-05-21T09:23:58.000Z</time>
      </trkpt>
      <trkpt lat="47.84485" lon="7.18476">
        <ele>460.79998779297</ele>
        <time>2023-05-21T09:23:59.000Z</time>
      </trkpt>
      <trkpt lat="47.84481" lon="7.18474">
        <ele>461.20001220703</ele>
        <time>2023-05-21T09:24:00.000Z</time>
      </trkpt>
      <trkpt lat="47.84477" lon="7.18471">
        <ele>461.60000610352</ele>
        <time>2023-05-21T09:24:01.000Z</time>
      </trkpt>
      <trkpt lat="47.84473" lon="7.1847">
        <ele>462</ele>
        <time>2023-05-21T09:24:02.000Z</time>
      </trkpt>
      <trkpt lat="47.84448" lon="7.18461">
        <ele>462</ele>
        <time>2023-05-21T09:24:08.000Z</time>
      </trkpt>
      <trkpt lat="47.84418" lon="7.18453">
        <ele>462</ele>
        <time>2023-05-21T09:24:15.000Z</time>
      </trkpt>
      <trkpt lat="47.84396" lon="7.18447">
        <ele>462</ele>
        <time>2023-05-21T09:24:20.000Z</time>
      </trkpt>
      <trkpt lat="47.84392" lon="7.18447">
        <ele>462</ele>
        <time>2023-05-21T09:24:21.000Z</time>
      </trkpt>
      <trkpt lat="47.84365" lon="7.1844">
        <ele>462</ele>
        <time>2023-05-21T09:24:27.000Z</time>
      </trkpt>
      <trkpt lat="47.84339" lon="7.18432">
        <ele>462</ele>
        <time>2023-05-21T09:24:33.000Z</time>
      </trkpt>
      <trkpt lat="47.84329" lon="7.18429">
        <ele>462</ele>
        <time>2023-05-21T09:24:35.000Z</time>
      </trkpt>
      <trkpt lat="47.84309" lon="7.18418">
        <ele>462</ele>
        <time>2023-05-21T09:24:39.000Z</time>
      </trkpt>
      <trkpt lat="47.84279" lon="7.18389">
        <ele>462</ele>
        <time>2023-05-21T09:24:45.000Z</time>
      </trkpt>
      <trkpt lat="47.84242" lon="7.18358">
        <ele>462</ele>
        <time>2023-05-21T09:24:52.000Z</time>
      </trkpt>
      <trkpt lat="47.84231" lon="7.18355">
        <ele>462</ele>
        <time>2023-05-21T09:24:54.000Z</time>
      </trkpt>
      <trkpt lat="47.8422" lon="7.18352">
        <ele>462</ele>
        <time>2023-05-21T09:24:56.000Z</time>
      </trkpt>
      <trkpt lat="47.8418" lon="7.18334">
        <ele>462</ele>
        <time>2023-05-21T09:25:02.000Z</time>
      </trkpt>
      <trkpt lat="47.84137" lon="7.18312">
        <ele>461.60000610352</ele>
        <time>2023-05-21T09:25:08.000Z</time>
      </trkpt>
      <trkpt lat="47.8413" lon="7.18307">
        <ele>461</ele>
        <time>2023-05-21T09:25:09.000Z</time>
      </trkpt>
      <trkpt lat="47.84123" lon="7.18303">
        <ele>460.60000610352</ele>
        <time>2023-05-21T09:25:10.000Z</time>
      </trkpt>
      <trkpt lat="47.84116" lon="7.18299">
        <ele>460</ele>
        <time>2023-05-21T09:25:11.000Z</time>
      </trkpt>
      <trkpt lat="47.84108" lon="7.18295">
        <ele>459.60000610352</ele>
        <time>2023-05-21T09:25:12.000Z</time>
      </trkpt>
      <trkpt lat="47.84067" lon="7.18265">
        <ele>459.60000610352</ele>
        <time>2023-05-21T09:25:18.000Z</time>
      </trkpt>
      <trkpt lat="47.84049" lon="7.18246">
        <ele>459.20001220703</ele>
        <time>2023-05-21T09:25:21.000Z</time>
      </trkpt>
      <trkpt lat="47.84043" lon="7.18239">
        <ele>458.79998779297</ele>
        <time>2023-05-21T09:25:22.000Z</time>
      </trkpt>
      <trkpt lat="47.84038" lon="7.18233">
        <ele>458.39999389648</ele>
        <time>2023-05-21T09:25:23.000Z</time>
      </trkpt>
      <trkpt lat="47.84033" lon="7.18226">
        <ele>457.79998779297</ele>
        <time>2023-05-21T09:25:24.000Z</time>
      </trkpt>
      <trkpt lat="47.84027" lon="7.1822">
        <ele>457.39999389648</ele>
        <time>2023-05-21T09:25:25.000Z</time>
      </trkpt>
      <trkpt lat="47.84012" lon="7.182">
        <ele>457.39999389648</ele>
        <time>2023-05-21T09:25:28.000Z</time>
      </trkpt>
      <trkpt lat="47.84002" lon="7.18187">
        <ele>457.39999389648</ele>
        <time>2023-05-21T09:25:30.000Z</time>
      </trkpt>
      <trkpt lat="47.83964" lon="7.18135">
        <ele>457</ele>
        <time>2023-05-21T09:25:38.000Z</time>
      </trkpt>
      <trkpt lat="47.83959" lon="7.18128">
        <ele>456.60000610352</ele>
        <time>2023-05-21T09:25:39.000Z</time>
      </trkpt>
      <trkpt lat="47.83955" lon="7.18122">
        <ele>456.20001220703</ele>
        <time>2023-05-21T09:25:40.000Z</time>
      </trkpt>
      <trkpt lat="47.8395" lon="7.18115">
        <ele>455.79998779297</ele>
        <time>2023-05-21T09:25:41.000Z</time>
      </trkpt>
      <trkpt lat="47.83945" lon="7.18109">
        <ele>455.39999389648</ele>
        <time>2023-05-21T09:25:42.000Z</time>
      </trkpt>
      <trkpt lat="47.83914" lon="7.18071">
        <ele>455.39999389648</ele>
        <time>2023-05-21T09:25:48.000Z</time>
      </trkpt>
      <trkpt lat="47.83893" lon="7.18046">
        <ele>455</ele>
        <time>2023-05-21T09:25:52.000Z</time>
      </trkpt>
      <trkpt lat="47.83888" lon="7.1804">
        <ele>454.60000610352</ele>
        <time>2023-05-21T09:25:53.000Z</time>
      </trkpt>
      <trkpt lat="47.83883" lon="7.18036">
        <ele>454.20001220703</ele>
        <time>2023-05-21T09:25:54.000Z</time>
      </trkpt>
      <trkpt lat="47.8388" lon="7.18031">
        <ele>453.79998779297</ele>
        <time>2023-05-21T09:25:55.000Z</time>
      </trkpt>
      <trkpt lat="47.8388" lon="7.18024">
        <ele>453.39999389648</ele>
        <time>2023-05-21T09:25:56.000Z</time>
      </trkpt>
      <trkpt lat="47.83884" lon="7.18015">
        <ele>453.39999389648</ele>
        <time>2023-05-21T09:25:58.000Z</time>
      </trkpt>
      <trkpt lat="47.83891" lon="7.18011">
        <ele>453.39999389648</ele>
        <time>2023-05-21T09:26:00.000Z</time>
      </trkpt>
      <trkpt lat="47.83901" lon="7.18005">
        <ele>453.39999389648</ele>
        <time>2023-05-21T09:26:03.000Z</time>
      </trkpt>
      <trkpt lat="47.83915" lon="7.17995">
        <ele>453.79998779297</ele>
        <time>2023-05-21T09:26:08.000Z</time>
      </trkpt>
      <trkpt lat="47.83918" lon="7.17993">
        <ele>454.20001220703</ele>
        <time>2023-05-21T09:26:09.000Z</time>
      </trkpt>
      <trkpt lat="47.83921" lon="7.17991">
        <ele>454.79998779297</ele>
        <time>2023-05-21T09:26:10.000Z</time>
      </trkpt>
      <trkpt lat="47.83924" lon="7.1799">
        <ele>455.20001220703</ele>
        <time>2023-05-21T09:26:11.000Z</time>
      </trkpt>
      <trkpt lat="47.83927" lon="7.17988">
        <ele>455.60000610352</ele>
        <time>2023-05-21T09:26:12.000Z</time>
      </trkpt>
      <trkpt lat="47.83936" lon="7.17981">
        <ele>456</ele>
        <time>2023-05-21T09:26:15.000Z</time>
      </trkpt>
      <trkpt lat="47.8394" lon="7.1798">
        <ele>456.39999389648</ele>
        <time>2023-05-21T09:26:16.000Z</time>
      </trkpt>
      <trkpt lat="47.83942" lon="7.17978">
        <ele>456.79998779297</ele>
        <time>2023-05-21T09:26:17.000Z</time>
      </trkpt>
      <trkpt lat="47.83946" lon="7.17976">
        <ele>457.20001220703</ele>
        <time>2023-05-21T09:26:18.000Z</time>
      </trkpt>
      <trkpt lat="47.83948" lon="7.17975">
        <ele>457.60000610352</ele>
        <time>2023-05-21T09:26:19.000Z</time>
      </trkpt>
      <trkpt lat="47.83972" lon="7.17966">
        <ele>458</ele>
        <time>2023-05-21T09:26:26.000Z</time>
      </trkpt>
      <trkpt lat="47.83975" lon="7.17965">
        <ele>458.39999389648</ele>
        <time>2023-05-21T09:26:27.000Z</time>
      </trkpt>
      <trkpt lat="47.83978" lon="7.17963">
        <ele>458.79998779297</ele>
        <time>2023-05-21T09:26:28.000Z</time>
      </trkpt>
      <trkpt lat="47.83981" lon="7.17962">
        <ele>459.20001220703</ele>
        <time>2023-05-21T09:26:29.000Z</time>
      </trkpt>
      <trkpt lat="47.83984" lon="7.1796">
        <ele>459.79998779297</ele>
        <time>2023-05-21T09:26:30.000Z</time>
      </trkpt>
      <trkpt lat="47.83997" lon="7.17952">
        <ele>460.20001220703</ele>
        <time>2023-05-21T09:26:34.000Z</time>
      </trkpt>
      <trkpt lat="47.84" lon="7.17951">
        <ele>460.60000610352</ele>
        <time>2023-05-21T09:26:35.000Z</time>
      </trkpt>
      <trkpt lat="47.84004" lon="7.17949">
        <ele>461</ele>
        <time>2023-05-21T09:26:36.000Z</time>
      </trkpt>
      <trkpt lat="47.84007" lon="7.17947">
        <ele>461.39999389648</ele>
        <time>2023-05-21T09:26:37.000Z</time>
      </trkpt>
      <trkpt lat="47.8401" lon="7.17945">
        <ele>461.79998779297</ele>
        <time>2023-05-21T09:26:38.000Z</time>
      </trkpt>
      <trkpt lat="47.84019" lon="7.17937">
        <ele>462.39999389648</ele>
        <time>2023-05-21T09:26:41.000Z</time>
      </trkpt>
      <trkpt lat="47.84022" lon="7.17934">
        <ele>462.79998779297</ele>
        <time>2023-05-21T09:26:42.000Z</time>
      </trkpt>
      <trkpt lat="47.84025" lon="7.17931">
        <ele>463.20001220703</ele>
        <time>2023-05-21T09:26:43.000Z</time>
      </trkpt>
      <trkpt lat="47.84028" lon="7.17928">
        <ele>463.60000610352</ele>
        <time>2023-05-21T09:26:44.000Z</time>
      </trkpt>
      <trkpt lat="47.8403" lon="7.17925">
        <ele>464</ele>
        <time>2023-05-21T09:26:45.000Z</time>
      </trkpt>
      <trkpt lat="47.84041" lon="7.17912">
        <ele>464</ele>
        <time>2023-05-21T09:26:49.000Z</time>
      </trkpt>
      <trkpt lat="47.84046" lon="7.17907">
        <ele>464.39999389648</ele>
        <time>2023-05-21T09:26:51.000Z</time>
      </trkpt>
      <trkpt lat="47.84049" lon="7.17904">
        <ele>465</ele>
        <time>2023-05-21T09:26:52.000Z</time>
      </trkpt>
      <trkpt lat="47.84051" lon="7.17902">
        <ele>465.39999389648</ele>
        <time>2023-05-21T09:26:53.000Z</time>
      </trkpt>
      <trkpt lat="47.84054" lon="7.17899">
        <ele>465.79998779297</ele>
        <time>2023-05-21T09:26:54.000Z</time>
      </trkpt>
      <trkpt lat="47.84057" lon="7.17896">
        <ele>466.20001220703</ele>
        <time>2023-05-21T09:26:55.000Z</time>
      </trkpt>
      <trkpt lat="47.84065" lon="7.17889">
        <ele>466.60000610352</ele>
        <time>2023-05-21T09:26:58.000Z</time>
      </trkpt>
      <trkpt lat="47.84068" lon="7.17887">
        <ele>467</ele>
        <time>2023-05-21T09:26:59.000Z</time>
      </trkpt>
      <trkpt lat="47.84071" lon="7.17885">
        <ele>467.60000610352</ele>
        <time>2023-05-21T09:27:00.000Z</time>
      </trkpt>
      <trkpt lat="47.84074" lon="7.17883">
        <ele>468</ele>
        <time>2023-05-21T09:27:01.000Z</time>
      </trkpt>
      <trkpt lat="47.84077" lon="7.17881">
        <ele>468.39999389648</ele>
        <time>2023-05-21T09:27:02.000Z</time>
      </trkpt>
      <trkpt lat="47.84087" lon="7.17875">
        <ele>469.20001220703</ele>
        <time>2023-05-21T09:27:05.000Z</time>
      </trkpt>
      <trkpt lat="47.8409" lon="7.17873">
        <ele>469.60000610352</ele>
        <time>2023-05-21T09:27:06.000Z</time>
      </trkpt>
      <trkpt lat="47.84093" lon="7.17871">
        <ele>470</ele>
        <time>2023-05-21T09:27:07.000Z</time>
      </trkpt>
      <trkpt lat="47.84096" lon="7.17868">
        <ele>470.60000610352</ele>
        <time>2023-05-21T09:27:08.000Z</time>
      </trkpt>
      <trkpt lat="47.84106" lon="7.17862">
        <ele>471</ele>
        <time>2023-05-21T09:27:11.000Z</time>
      </trkpt>
      <trkpt lat="47.84109" lon="7.1786">
        <ele>471.39999389648</ele>
        <time>2023-05-21T09:27:12.000Z</time>
      </trkpt>
      <trkpt lat="47.84112" lon="7.17858">
        <ele>471.79998779297</ele>
        <time>2023-05-21T09:27:13.000Z</time>
      </trkpt>
      <trkpt lat="47.84115" lon="7.17856">
        <ele>472.20001220703</ele>
        <time>2023-05-21T09:27:14.000Z</time>
      </trkpt>
      <trkpt lat="47.84118" lon="7.17854">
        <ele>472.60000610352</ele>
        <time>2023-05-21T09:27:15.000Z</time>
      </trkpt>
      <trkpt lat="47.84127" lon="7.17847">
        <ele>473</ele>
        <time>2023-05-21T09:27:18.000Z</time>
      </trkpt>
      <trkpt lat="47.84131" lon="7.17845">
        <ele>473.60000610352</ele>
        <time>2023-05-21T09:27:19.000Z</time>
      </trkpt>
      <trkpt lat="47.84134" lon="7.17843">
        <ele>474</ele>
        <time>2023-05-21T09:27:20.000Z</time>
      </trkpt>
      <trkpt lat="47.84137" lon="7.17841">
        <ele>474.39999389648</ele>
        <time>2023-05-21T09:27:21.000Z</time>
      </trkpt>
      <trkpt lat="47.8414" lon="7.17839">
        <ele>474.79998779297</ele>
        <time>2023-05-21T09:27:22.000Z</time>
      </trkpt>
      <trkpt lat="47.84149" lon="7.17832">
        <ele>474.79998779297</ele>
        <time>2023-05-21T09:27:25.000Z</time>
      </trkpt>
      <trkpt lat="47.84153" lon="7.1783">
        <ele>475.39999389648</ele>
        <time>2023-05-21T09:27:26.000Z</time>
      </trkpt>
      <trkpt lat="47.84156" lon="7.17828">
        <ele>475.79998779297</ele>
        <time>2023-05-21T09:27:27.000Z</time>
      </trkpt>
      <trkpt lat="47.84159" lon="7.17826">
        <ele>476.20001220703</ele>
        <time>2023-05-21T09:27:28.000Z</time>
      </trkpt>
      <trkpt lat="47.84162" lon="7.17823">
        <ele>476.60000610352</ele>
        <time>2023-05-21T09:27:29.000Z</time>
      </trkpt>
      <trkpt lat="47.84165" lon="7.17821">
        <ele>477.20001220703</ele>
        <time>2023-05-21T09:27:30.000Z</time>
      </trkpt>
      <trkpt lat="47.84167" lon="7.17818">
        <ele>477.60000610352</ele>
        <time>2023-05-21T09:27:31.000Z</time>
      </trkpt>
      <trkpt lat="47.8417" lon="7.17816">
        <ele>478</ele>
        <time>2023-05-21T09:27:32.000Z</time>
      </trkpt>
      <trkpt lat="47.84172" lon="7.17813">
        <ele>478.39999389648</ele>
        <time>2023-05-21T09:27:33.000Z</time>
      </trkpt>
      <trkpt lat="47.84175" lon="7.17811">
        <ele>478.79998779297</ele>
        <time>2023-05-21T09:27:34.000Z</time>
      </trkpt>
      <trkpt lat="47.84177" lon="7.17808">
        <ele>479.20001220703</ele>
        <time>2023-05-21T09:27:35.000Z</time>
      </trkpt>
      <trkpt lat="47.8418" lon="7.17805">
        <ele>479.20001220703</ele>
        <time>2023-05-21T09:27:36.000Z</time>
      </trkpt>
      <trkpt lat="47.84182" lon="7.17802">
        <ele>479.60000610352</ele>
        <time>2023-05-21T09:27:37.000Z</time>
      </trkpt>
      <trkpt lat="47.84184" lon="7.17799">
        <ele>480</ele>
        <time>2023-05-21T09:27:38.000Z</time>
      </trkpt>
      <trkpt lat="47.84187" lon="7.17797">
        <ele>480.39999389648</ele>
        <time>2023-05-21T09:27:39.000Z</time>
      </trkpt>
      <trkpt lat="47.84189" lon="7.17794">
        <ele>480.79998779297</ele>
        <time>2023-05-21T09:27:40.000Z</time>
      </trkpt>
      <trkpt lat="47.84192" lon="7.17791">
        <ele>481.20001220703</ele>
        <time>2023-05-21T09:27:41.000Z</time>
      </trkpt>
      <trkpt lat="47.84195" lon="7.17789">
        <ele>481.79998779297</ele>
        <time>2023-05-21T09:27:42.000Z</time>
      </trkpt>
      <trkpt lat="47.84197" lon="7.17786">
        <ele>482.20001220703</ele>
        <time>2023-05-21T09:27:43.000Z</time>
      </trkpt>
      <trkpt lat="47.842" lon="7.17783">
        <ele>482.60000610352</ele>
        <time>2023-05-21T09:27:44.000Z</time>
      </trkpt>
      <trkpt lat="47.84202" lon="7.17781">
        <ele>483</ele>
        <time>2023-05-21T09:27:45.000Z</time>
      </trkpt>
      <trkpt lat="47.84205" lon="7.17779">
        <ele>483.39999389648</ele>
        <time>2023-05-21T09:27:46.000Z</time>
      </trkpt>
      <trkpt lat="47.84211" lon="7.17774">
        <ele>483.39999389648</ele>
        <time>2023-05-21T09:27:48.000Z</time>
      </trkpt>
      <trkpt lat="47.84214" lon="7.17772">
        <ele>483.79998779297</ele>
        <time>2023-05-21T09:27:49.000Z</time>
      </trkpt>
      <trkpt lat="47.84218" lon="7.1777">
        <ele>484.20001220703</ele>
        <time>2023-05-21T09:27:50.000Z</time>
      </trkpt>
      <trkpt lat="47.84221" lon="7.17767">
        <ele>484.60000610352</ele>
        <time>2023-05-21T09:27:51.000Z</time>
      </trkpt>
      <trkpt lat="47.84223" lon="7.17765">
        <ele>485.20001220703</ele>
        <time>2023-05-21T09:27:52.000Z</time>
      </trkpt>
      <trkpt lat="47.84226" lon="7.17763">
        <ele>485.60000610352</ele>
        <time>2023-05-21T09:27:53.000Z</time>
      </trkpt>
      <trkpt lat="47.84233" lon="7.17759">
        <ele>486</ele>
        <time>2023-05-21T09:27:55.000Z</time>
      </trkpt>
      <trkpt lat="47.84236" lon="7.17756">
        <ele>486.60000610352</ele>
        <time>2023-05-21T09:27:56.000Z</time>
      </trkpt>
      <trkpt lat="47.84239" lon="7.17754">
        <ele>487</ele>
        <time>2023-05-21T09:27:57.000Z</time>
      </trkpt>
      <trkpt lat="47.84242" lon="7.17751">
        <ele>487.39999389648</ele>
        <time>2023-05-21T09:27:58.000Z</time>
      </trkpt>
      <trkpt lat="47.84244" lon="7.17749">
        <ele>488</ele>
        <time>2023-05-21T09:27:59.000Z</time>
      </trkpt>
      <trkpt lat="47.84252" lon="7.17744">
        <ele>488.39999389648</ele>
        <time>2023-05-21T09:28:02.000Z</time>
      </trkpt>
      <trkpt lat="47.84254" lon="7.17743">
        <ele>488.79998779297</ele>
        <time>2023-05-21T09:28:03.000Z</time>
      </trkpt>
      <trkpt lat="47.84257" lon="7.17742">
        <ele>489.39999389648</ele>
        <time>2023-05-21T09:28:04.000Z</time>
      </trkpt>
      <trkpt lat="47.8426" lon="7.1774">
        <ele>489.79998779297</ele>
        <time>2023-05-21T09:28:05.000Z</time>
      </trkpt>
      <trkpt lat="47.84262" lon="7.17739">
        <ele>490.20001220703</ele>
        <time>2023-05-21T09:28:06.000Z</time>
      </trkpt>
      <trkpt lat="47.84268" lon="7.17736">
        <ele>490.20001220703</ele>
        <time>2023-05-21T09:28:08.000Z</time>
      </trkpt>
      <trkpt lat="47.84273" lon="7.17731">
        <ele>490.79998779297</ele>
        <time>2023-05-21T09:28:10.000Z</time>
      </trkpt>
      <trkpt lat="47.84276" lon="7.17729">
        <ele>491.20001220703</ele>
        <time>2023-05-21T09:28:11.000Z</time>
      </trkpt>
      <trkpt lat="47.84278" lon="7.17727">
        <ele>491.60000610352</ele>
        <time>2023-05-21T09:28:12.000Z</time>
      </trkpt>
      <trkpt lat="47.84281" lon="7.17725">
        <ele>492</ele>
        <time>2023-05-21T09:28:13.000Z</time>
      </trkpt>
      <trkpt lat="47.84283" lon="7.17723">
        <ele>492.60000610352</ele>
        <time>2023-05-21T09:28:14.000Z</time>
      </trkpt>
      <trkpt lat="47.84292" lon="7.17716">
        <ele>493</ele>
        <time>2023-05-21T09:28:17.000Z</time>
      </trkpt>
      <trkpt lat="47.84294" lon="7.17714">
        <ele>493.39999389648</ele>
        <time>2023-05-21T09:28:18.000Z</time>
      </trkpt>
      <trkpt lat="47.84297" lon="7.17712">
        <ele>493.79998779297</ele>
        <time>2023-05-21T09:28:19.000Z</time>
      </trkpt>
      <trkpt lat="47.843" lon="7.17711">
        <ele>494.60000610352</ele>
        <time>2023-05-21T09:28:20.000Z</time>
      </trkpt>
      <trkpt lat="47.84305" lon="7.17707">
        <ele>495.20001220703</ele>
        <time>2023-05-21T09:28:22.000Z</time>
      </trkpt>
      <trkpt lat="47.84308" lon="7.17706">
        <ele>495.60000610352</ele>
        <time>2023-05-21T09:28:23.000Z</time>
      </trkpt>
      <trkpt lat="47.8431" lon="7.17704">
        <ele>496</ele>
        <time>2023-05-21T09:28:24.000Z</time>
      </trkpt>
      <trkpt lat="47.84313" lon="7.17703">
        <ele>496.60000610352</ele>
        <time>2023-05-21T09:28:25.000Z</time>
      </trkpt>
      <trkpt lat="47.84315" lon="7.17701">
        <ele>497</ele>
        <time>2023-05-21T09:28:26.000Z</time>
      </trkpt>
      <trkpt lat="47.8432" lon="7.17698">
        <ele>497.39999389648</ele>
        <time>2023-05-21T09:28:28.000Z</time>
      </trkpt>
      <trkpt lat="47.84322" lon="7.17695">
        <ele>497.79998779297</ele>
        <time>2023-05-21T09:28:29.000Z</time>
      </trkpt>
      <trkpt lat="47.84322" lon="7.17692">
        <ele>498.39999389648</ele>
        <time>2023-05-21T09:28:30.000Z</time>
      </trkpt>
      <trkpt lat="47.84323" lon="7.17691">
        <ele>498.79998779297</ele>
        <time>2023-05-21T09:28:31.000Z</time>
      </trkpt>
      <trkpt lat="47.84323" lon="7.17689">
        <ele>499.20001220703</ele>
        <time>2023-05-21T09:28:32.000Z</time>
      </trkpt>
      <trkpt lat="47.84324" lon="7.17687">
        <ele>501</ele>
        <time>2023-05-21T09:30:13.000Z</time>
      </trkpt>
      <trkpt lat="47.84319" lon="7.17684">
        <ele>501</ele>
        <time>2023-05-21T09:30:15.000Z</time>
      </trkpt>
      <trkpt lat="47.84309" lon="7.17679">
        <ele>500.60000610352</ele>
        <time>2023-05-21T09:30:18.000Z</time>
      </trkpt>
      <trkpt lat="47.84305" lon="7.17679">
        <ele>500.20001220703</ele>
        <time>2023-05-21T09:30:19.000Z</time>
      </trkpt>
      <trkpt lat="47.84301" lon="7.17678">
        <ele>499.79998779297</ele>
        <time>2023-05-21T09:30:20.000Z</time>
      </trkpt>
      <trkpt lat="47.84298" lon="7.17676">
        <ele>499.39999389648</ele>
        <time>2023-05-21T09:30:21.000Z</time>
      </trkpt>
      <trkpt lat="47.84295" lon="7.17674">
        <ele>499</ele>
        <time>2023-05-21T09:30:22.000Z</time>
      </trkpt>
      <trkpt lat="47.8429" lon="7.1767">
        <ele>498.60000610352</ele>
        <time>2023-05-21T09:30:24.000Z</time>
      </trkpt>
      <trkpt lat="47.84289" lon="7.17668">
        <ele>498.20001220703</ele>
        <time>2023-05-21T09:30:25.000Z</time>
      </trkpt>
      <trkpt lat="47.84288" lon="7.17666">
        <ele>497.79998779297</ele>
        <time>2023-05-21T09:30:26.000Z</time>
      </trkpt>
      <trkpt lat="47.84288" lon="7.17665">
        <ele>497.39999389648</ele>
        <time>2023-05-21T09:30:27.000Z</time>
      </trkpt>
      <trkpt lat="47.84287" lon="7.17664">
        <ele>497</ele>
        <time>2023-05-21T09:30:28.000Z</time>
      </trkpt>
      <trkpt lat="47.84281" lon="7.17658">
        <ele>497</ele>
        <time>2023-05-21T09:30:32.000Z</time>
      </trkpt>
      <trkpt lat="47.84278" lon="7.17658">
        <ele>497</ele>
        <time>2023-05-21T09:30:33.000Z</time>
      </trkpt>
      <trkpt lat="47.84268" lon="7.1766">
        <ele>496.60000610352</ele>
        <time>2023-05-21T09:30:36.000Z</time>
      </trkpt>
      <trkpt lat="47.84265" lon="7.17661">
        <ele>496.20001220703</ele>
        <time>2023-05-21T09:30:37.000Z</time>
      </trkpt>
      <trkpt lat="47.84262" lon="7.17663">
        <ele>495.79998779297</ele>
        <time>2023-05-21T09:30:38.000Z</time>
      </trkpt>
      <trkpt lat="47.84258" lon="7.17664">
        <ele>495.39999389648</ele>
        <time>2023-05-21T09:30:39.000Z</time>
      </trkpt>
      <trkpt lat="47.84255" lon="7.17666">
        <ele>495</ele>
        <time>2023-05-21T09:30:40.000Z</time>
      </trkpt>
      <trkpt lat="47.84239" lon="7.17668">
        <ele>495</ele>
        <time>2023-05-21T09:30:44.000Z</time>
      </trkpt>
      <trkpt lat="47.84222" lon="7.17665">
        <ele>495</ele>
        <time>2023-05-21T09:30:49.000Z</time>
      </trkpt>
      <trkpt lat="47.84205" lon="7.17659">
        <ele>495</ele>
        <time>2023-05-21T09:30:55.000Z</time>
      </trkpt>
      <trkpt lat="47.84192" lon="7.17652">
        <ele>495</ele>
        <time>2023-05-21T09:30:58.000Z</time>
      </trkpt>
      <trkpt lat="47.84187" lon="7.17649">
        <ele>495</ele>
        <time>2023-05-21T09:30:59.000Z</time>
      </trkpt>
      <trkpt lat="47.84176" lon="7.17647">
        <ele>495</ele>
        <time>2023-05-21T09:31:01.000Z</time>
      </trkpt>
      <trkpt lat="47.84166" lon="7.17649">
        <ele>494.60000610352</ele>
        <time>2023-05-21T09:31:03.000Z</time>
      </trkpt>
      <trkpt lat="47.8416" lon="7.1765">
        <ele>494.20001220703</ele>
        <time>2023-05-21T09:31:04.000Z</time>
      </trkpt>
      <trkpt lat="47.84155" lon="7.17651">
        <ele>493.60000610352</ele>
        <time>2023-05-21T09:31:05.000Z</time>
      </trkpt>
      <trkpt lat="47.84151" lon="7.17651">
        <ele>493.20001220703</ele>
        <time>2023-05-21T09:31:06.000Z</time>
      </trkpt>
      <trkpt lat="47.84146" lon="7.17651">
        <ele>492.79998779297</ele>
        <time>2023-05-21T09:31:07.000Z</time>
      </trkpt>
      <trkpt lat="47.84142" lon="7.17651">
        <ele>492.79998779297</ele>
        <time>2023-05-21T09:31:08.000Z</time>
      </trkpt>
      <trkpt lat="47.84137" lon="7.1765">
        <ele>492.79998779297</ele>
        <time>2023-05-21T09:31:09.000Z</time>
      </trkpt>
      <trkpt lat="47.84114" lon="7.1764">
        <ele>492.79998779297</ele>
        <time>2023-05-21T09:31:13.000Z</time>
      </trkpt>
      <trkpt lat="47.84098" lon="7.17629">
        <ele>492.79998779297</ele>
        <time>2023-05-21T09:31:17.000Z</time>
      </trkpt>
      <trkpt lat="47.84094" lon="7.17627">
        <ele>492.79998779297</ele>
        <time>2023-05-21T09:31:18.000Z</time>
      </trkpt>
      <trkpt lat="47.84078" lon="7.17629">
        <ele>492.79998779297</ele>
        <time>2023-05-21T09:31:22.000Z</time>
      </trkpt>
      <trkpt lat="47.84073" lon="7.1763">
        <ele>492.79998779297</ele>
        <time>2023-05-21T09:31:23.000Z</time>
      </trkpt>
      <trkpt lat="47.84057" lon="7.17629">
        <ele>492.79998779297</ele>
        <time>2023-05-21T09:31:26.000Z</time>
      </trkpt>
      <trkpt lat="47.84041" lon="7.17623">
        <ele>492.79998779297</ele>
        <time>2023-05-21T09:31:29.000Z</time>
      </trkpt>
      <trkpt lat="47.8403" lon="7.17617">
        <ele>492.79998779297</ele>
        <time>2023-05-21T09:31:31.000Z</time>
      </trkpt>
      <trkpt lat="47.84011" lon="7.17604">
        <ele>492.79998779297</ele>
        <time>2023-05-21T09:31:35.000Z</time>
      </trkpt>
      <trkpt lat="47.84002" lon="7.17595">
        <ele>492.79998779297</ele>
        <time>2023-05-21T09:31:37.000Z</time>
      </trkpt>
      <trkpt lat="47.83992" lon="7.17586">
        <ele>492.79998779297</ele>
        <time>2023-05-21T09:31:39.000Z</time>
      </trkpt>
      <trkpt lat="47.83983" lon="7.17578">
        <ele>492.79998779297</ele>
        <time>2023-05-21T09:31:41.000Z</time>
      </trkpt>
      <trkpt lat="47.83974" lon="7.17568">
        <ele>492.39999389648</ele>
        <time>2023-05-21T09:31:43.000Z</time>
      </trkpt>
      <trkpt lat="47.8397" lon="7.17562">
        <ele>491.60000610352</ele>
        <time>2023-05-21T09:31:44.000Z</time>
      </trkpt>
      <trkpt lat="47.83965" lon="7.17556">
        <ele>491.20001220703</ele>
        <time>2023-05-21T09:31:45.000Z</time>
      </trkpt>
      <trkpt lat="47.8396" lon="7.17549">
        <ele>490.79998779297</ele>
        <time>2023-05-21T09:31:46.000Z</time>
      </trkpt>
      <trkpt lat="47.83946" lon="7.17529">
        <ele>490.20001220703</ele>
        <time>2023-05-21T09:31:49.000Z</time>
      </trkpt>
      <trkpt lat="47.8394" lon="7.1752">
        <ele>489.79998779297</ele>
        <time>2023-05-21T09:31:50.000Z</time>
      </trkpt>
      <trkpt lat="47.83935" lon="7.1751">
        <ele>489.39999389648</ele>
        <time>2023-05-21T09:31:51.000Z</time>
      </trkpt>
      <trkpt lat="47.8393" lon="7.175">
        <ele>488.60000610352</ele>
        <time>2023-05-21T09:31:52.000Z</time>
      </trkpt>
      <trkpt lat="47.83925" lon="7.17489">
        <ele>488</ele>
        <time>2023-05-21T09:31:53.000Z</time>
      </trkpt>
      <trkpt lat="47.8392" lon="7.17478">
        <ele>487.39999389648</ele>
        <time>2023-05-21T09:31:54.000Z</time>
      </trkpt>
      <trkpt lat="47.83913" lon="7.17466">
        <ele>486.60000610352</ele>
        <time>2023-05-21T09:31:55.000Z</time>
      </trkpt>
      <trkpt lat="47.83907" lon="7.17455">
        <ele>485.79998779297</ele>
        <time>2023-05-21T09:31:56.000Z</time>
      </trkpt>
      <trkpt lat="47.839" lon="7.17445">
        <ele>485</ele>
        <time>2023-05-21T09:31:57.000Z</time>
      </trkpt>
      <trkpt lat="47.83891" lon="7.17434">
        <ele>484.20001220703</ele>
        <time>2023-05-21T09:31:58.000Z</time>
      </trkpt>
      <trkpt lat="47.83883" lon="7.17425">
        <ele>483.20001220703</ele>
        <time>2023-05-21T09:31:59.000Z</time>
      </trkpt>
      <trkpt lat="47.83873" lon="7.17416">
        <ele>482.39999389648</ele>
        <time>2023-05-21T09:32:00.000Z</time>
      </trkpt>
      <trkpt lat="47.83864" lon="7.17407">
        <ele>481.60000610352</ele>
        <time>2023-05-21T09:32:01.000Z</time>
      </trkpt>
      <trkpt lat="47.83856" lon="7.17399">
        <ele>480.60000610352</ele>
        <time>2023-05-21T09:32:02.000Z</time>
      </trkpt>
      <trkpt lat="47.83847" lon="7.1739">
        <ele>479.60000610352</ele>
        <time>2023-05-21T09:32:03.000Z</time>
      </trkpt>
      <trkpt lat="47.8384" lon="7.17381">
        <ele>478.60000610352</ele>
        <time>2023-05-21T09:32:04.000Z</time>
      </trkpt>
      <trkpt lat="47.83834" lon="7.1737">
        <ele>477.60000610352</ele>
        <time>2023-05-21T09:32:05.000Z</time>
      </trkpt>
      <trkpt lat="47.83829" lon="7.17359">
        <ele>476.60000610352</ele>
        <time>2023-05-21T09:32:06.000Z</time>
      </trkpt>
      <trkpt lat="47.83825" lon="7.17349">
        <ele>475.79998779297</ele>
        <time>2023-05-21T09:32:07.000Z</time>
      </trkpt>
      <trkpt lat="47.83821" lon="7.17339">
        <ele>474.79998779297</ele>
        <time>2023-05-21T09:32:08.000Z</time>
      </trkpt>
      <trkpt lat="47.83818" lon="7.17331">
        <ele>473</ele>
        <time>2023-05-21T09:32:09.000Z</time>
      </trkpt>
      <trkpt lat="47.83815" lon="7.17325">
        <ele>472.20001220703</ele>
        <time>2023-05-21T09:32:10.000Z</time>
      </trkpt>
      <trkpt lat="47.83813" lon="7.17321">
        <ele>471.20001220703</ele>
        <time>2023-05-21T09:32:11.000Z</time>
      </trkpt>
      <trkpt lat="47.83809" lon="7.17319">
        <ele>470.39999389648</ele>
        <time>2023-05-21T09:32:12.000Z</time>
      </trkpt>
      <trkpt lat="47.83806" lon="7.17319">
        <ele>470</ele>
        <time>2023-05-21T09:32:13.000Z</time>
      </trkpt>
      <trkpt lat="47.83803" lon="7.17319">
        <ele>469.60000610352</ele>
        <time>2023-05-21T09:32:14.000Z</time>
      </trkpt>
      <trkpt lat="47.838" lon="7.1732">
        <ele>469.20001220703</ele>
        <time>2023-05-21T09:32:15.000Z</time>
      </trkpt>
      <trkpt lat="47.83798" lon="7.17323">
        <ele>468.79998779297</ele>
        <time>2023-05-21T09:32:16.000Z</time>
      </trkpt>
      <trkpt lat="47.83796" lon="7.17327">
        <ele>468.39999389648</ele>
        <time>2023-05-21T09:32:17.000Z</time>
      </trkpt>
      <trkpt lat="47.83789" lon="7.17344">
        <ele>468.39999389648</ele>
        <time>2023-05-21T09:32:20.000Z</time>
      </trkpt>
      <trkpt lat="47.83787" lon="7.17352">
        <ele>468</ele>
        <time>2023-05-21T09:32:21.000Z</time>
      </trkpt>
      <trkpt lat="47.83785" lon="7.17359">
        <ele>467.60000610352</ele>
        <time>2023-05-21T09:32:22.000Z</time>
      </trkpt>
      <trkpt lat="47.83783" lon="7.17366">
        <ele>467.20001220703</ele>
        <time>2023-05-21T09:32:23.000Z</time>
      </trkpt>
      <trkpt lat="47.8378" lon="7.17373">
        <ele>466.79998779297</ele>
        <time>2023-05-21T09:32:24.000Z</time>
      </trkpt>
      <trkpt lat="47.83777" lon="7.17382">
        <ele>466.39999389648</ele>
        <time>2023-05-21T09:32:25.000Z</time>
      </trkpt>
      <trkpt lat="47.83774" lon="7.17389">
        <ele>466.39999389648</ele>
        <time>2023-05-21T09:32:26.000Z</time>
      </trkpt>
      <trkpt lat="47.83762" lon="7.1741">
        <ele>466</ele>
        <time>2023-05-21T09:32:29.000Z</time>
      </trkpt>
      <trkpt lat="47.83757" lon="7.17417">
        <ele>465.39999389648</ele>
        <time>2023-05-21T09:32:30.000Z</time>
      </trkpt>
      <trkpt lat="47.83753" lon="7.17424">
        <ele>465</ele>
        <time>2023-05-21T09:32:31.000Z</time>
      </trkpt>
      <trkpt lat="47.83747" lon="7.17429">
        <ele>464.60000610352</ele>
        <time>2023-05-21T09:32:32.000Z</time>
      </trkpt>
      <trkpt lat="47.83742" lon="7.17434">
        <ele>464.20001220703</ele>
        <time>2023-05-21T09:32:33.000Z</time>
      </trkpt>
      <trkpt lat="47.83736" lon="7.17437">
        <ele>464.20001220703</ele>
        <time>2023-05-21T09:32:34.000Z</time>
      </trkpt>
      <trkpt lat="47.8373" lon="7.17437">
        <ele>463.60000610352</ele>
        <time>2023-05-21T09:32:35.000Z</time>
      </trkpt>
      <trkpt lat="47.83723" lon="7.17433">
        <ele>463.20001220703</ele>
        <time>2023-05-21T09:32:36.000Z</time>
      </trkpt>
      <trkpt lat="47.83717" lon="7.17426">
        <ele>462.79998779297</ele>
        <time>2023-05-21T09:32:37.000Z</time>
      </trkpt>
      <trkpt lat="47.83712" lon="7.17418">
        <ele>462.39999389648</ele>
        <time>2023-05-21T09:32:38.000Z</time>
      </trkpt>
      <trkpt lat="47.83706" lon="7.17409">
        <ele>461.79998779297</ele>
        <time>2023-05-21T09:32:39.000Z</time>
      </trkpt>
      <trkpt lat="47.837" lon="7.17399">
        <ele>461.20001220703</ele>
        <time>2023-05-21T09:32:40.000Z</time>
      </trkpt>
      <trkpt lat="47.83694" lon="7.1739">
        <ele>460.39999389648</ele>
        <time>2023-05-21T09:32:41.000Z</time>
      </trkpt>
      <trkpt lat="47.83688" lon="7.17382">
        <ele>459.79998779297</ele>
        <time>2023-05-21T09:32:42.000Z</time>
      </trkpt>
      <trkpt lat="47.83682" lon="7.17373">
        <ele>459.39999389648</ele>
        <time>2023-05-21T09:32:43.000Z</time>
      </trkpt>
      <trkpt lat="47.83678" lon="7.17363">
        <ele>458.79998779297</ele>
        <time>2023-05-21T09:32:44.000Z</time>
      </trkpt>
      <trkpt lat="47.83674" lon="7.17353">
        <ele>458.20001220703</ele>
        <time>2023-05-21T09:32:45.000Z</time>
      </trkpt>
      <trkpt lat="47.83672" lon="7.17344">
        <ele>457.60000610352</ele>
        <time>2023-05-21T09:32:46.000Z</time>
      </trkpt>
      <trkpt lat="47.83669" lon="7.17334">
        <ele>457</ele>
        <time>2023-05-21T09:32:47.000Z</time>
      </trkpt>
      <trkpt lat="47.83667" lon="7.17327">
        <ele>457</ele>
        <time>2023-05-21T09:32:48.000Z</time>
      </trkpt>
      <trkpt lat="47.83665" lon="7.17319">
        <ele>457</ele>
        <time>2023-05-21T09:32:49.000Z</time>
      </trkpt>
      <trkpt lat="47.83663" lon="7.17312">
        <ele>457</ele>
        <time>2023-05-21T09:32:50.000Z</time>
      </trkpt>
      <trkpt lat="47.83651" lon="7.17304">
        <ele>457</ele>
        <time>2023-05-21T09:32:53.000Z</time>
      </trkpt>
      <trkpt lat="47.83647" lon="7.17305">
        <ele>457</ele>
        <time>2023-05-21T09:32:54.000Z</time>
      </trkpt>
      <trkpt lat="47.83632" lon="7.17308">
        <ele>457</ele>
        <time>2023-05-21T09:32:58.000Z</time>
      </trkpt>
      <trkpt lat="47.83612" lon="7.17307">
        <ele>457</ele>
        <time>2023-05-21T09:33:04.000Z</time>
      </trkpt>
      <trkpt lat="47.83602" lon="7.17307">
        <ele>457.39999389648</ele>
        <time>2023-05-21T09:33:08.000Z</time>
      </trkpt>
      <trkpt lat="47.83599" lon="7.17307">
        <ele>458</ele>
        <time>2023-05-21T09:33:09.000Z</time>
      </trkpt>
      <trkpt lat="47.83596" lon="7.17307">
        <ele>458.39999389648</ele>
        <time>2023-05-21T09:33:10.000Z</time>
      </trkpt>
      <trkpt lat="47.83593" lon="7.17308">
        <ele>458.79998779297</ele>
        <time>2023-05-21T09:33:11.000Z</time>
      </trkpt>
      <trkpt lat="47.83591" lon="7.17308">
        <ele>459.20001220703</ele>
        <time>2023-05-21T09:33:12.000Z</time>
      </trkpt>
      <trkpt lat="47.83578" lon="7.17311">
        <ele>459.20001220703</ele>
        <time>2023-05-21T09:33:16.000Z</time>
      </trkpt>
      <trkpt lat="47.83575" lon="7.17313">
        <ele>459.60000610352</ele>
        <time>2023-05-21T09:33:17.000Z</time>
      </trkpt>
      <trkpt lat="47.83572" lon="7.17314">
        <ele>460</ele>
        <time>2023-05-21T09:33:18.000Z</time>
      </trkpt>
      <trkpt lat="47.83569" lon="7.17316">
        <ele>460.39999389648</ele>
        <time>2023-05-21T09:33:19.000Z</time>
      </trkpt>
      <trkpt lat="47.83567" lon="7.17317">
        <ele>460.79998779297</ele>
        <time>2023-05-21T09:33:20.000Z</time>
      </trkpt>
      <trkpt lat="47.83564" lon="7.17319">
        <ele>461.20001220703</ele>
        <time>2023-05-21T09:33:21.000Z</time>
      </trkpt>
      <trkpt lat="47.83562" lon="7.17321">
        <ele>461.20001220703</ele>
        <time>2023-05-21T09:33:22.000Z</time>
      </trkpt>
      <trkpt lat="47.8356" lon="7.17324">
        <ele>461.60000610352</ele>
        <time>2023-05-21T09:33:23.000Z</time>
      </trkpt>
      <trkpt lat="47.83558" lon="7.17327">
        <ele>462</ele>
        <time>2023-05-21T09:33:24.000Z</time>
      </trkpt>
      <trkpt lat="47.83556" lon="7.1733">
        <ele>462.39999389648</ele>
        <time>2023-05-21T09:33:25.000Z</time>
      </trkpt>
      <trkpt lat="47.83554" lon="7.17333">
        <ele>462.79998779297</ele>
        <time>2023-05-21T09:33:26.000Z</time>
      </trkpt>
      <trkpt lat="47.83552" lon="7.17337">
        <ele>463.20001220703</ele>
        <time>2023-05-21T09:33:27.000Z</time>
      </trkpt>
      <trkpt lat="47.83547" lon="7.17343">
        <ele>463.20001220703</ele>
        <time>2023-05-21T09:33:29.000Z</time>
      </trkpt>
      <trkpt lat="47.83529" lon="7.17366">
        <ele>463.20001220703</ele>
        <time>2023-05-21T09:33:36.000Z</time>
      </trkpt>
      <trkpt lat="47.83522" lon="7.17376">
        <ele>463.60000610352</ele>
        <time>2023-05-21T09:33:39.000Z</time>
      </trkpt>
      <trkpt lat="47.83519" lon="7.17379">
        <ele>464</ele>
        <time>2023-05-21T09:33:40.000Z</time>
      </trkpt>
      <trkpt lat="47.83516" lon="7.17381">
        <ele>464.39999389648</ele>
        <time>2023-05-21T09:33:41.000Z</time>
      </trkpt>
      <trkpt lat="47.83513" lon="7.17384">
        <ele>464.79998779297</ele>
        <time>2023-05-21T09:33:42.000Z</time>
      </trkpt>
      <trkpt lat="47.83511" lon="7.17386">
        <ele>465.20001220703</ele>
        <time>2023-05-21T09:33:43.000Z</time>
      </trkpt>
      <trkpt lat="47.83493" lon="7.17397">
        <ele>465.20001220703</ele>
        <time>2023-05-21T09:33:49.000Z</time>
      </trkpt>
      <trkpt lat="47.83481" lon="7.17402">
        <ele>465.79998779297</ele>
        <time>2023-05-21T09:33:53.000Z</time>
      </trkpt>
      <trkpt lat="47.83478" lon="7.17404">
        <ele>466.20001220703</ele>
        <time>2023-05-21T09:33:54.000Z</time>
      </trkpt>
      <trkpt lat="47.83475" lon="7.17405">
        <ele>466.60000610352</ele>
        <time>2023-05-21T09:33:55.000Z</time>
      </trkpt>
      <trkpt lat="47.83473" lon="7.17407">
        <ele>467</ele>
        <time>2023-05-21T09:33:56.000Z</time>
      </trkpt>
      <trkpt lat="47.8347" lon="7.17408">
        <ele>467.39999389648</ele>
        <time>2023-05-21T09:33:57.000Z</time>
      </trkpt>
      <trkpt lat="47.83461" lon="7.17403">
        <ele>467.39999389648</ele>
        <time>2023-05-21T09:34:00.000Z</time>
      </trkpt>
      <trkpt lat="47.83458" lon="7.17394">
        <ele>467.79998779297</ele>
        <time>2023-05-21T09:34:02.000Z</time>
      </trkpt>
      <trkpt lat="47.83456" lon="7.1739">
        <ele>468.39999389648</ele>
        <time>2023-05-21T09:34:03.000Z</time>
      </trkpt>
      <trkpt lat="47.83455" lon="7.17387">
        <ele>468.79998779297</ele>
        <time>2023-05-21T09:34:04.000Z</time>
      </trkpt>
      <trkpt lat="47.83453" lon="7.17383">
        <ele>469.20001220703</ele>
        <time>2023-05-21T09:34:05.000Z</time>
      </trkpt>
      <trkpt lat="47.83452" lon="7.17379">
        <ele>469.60000610352</ele>
        <time>2023-05-21T09:34:06.000Z</time>
      </trkpt>
      <trkpt lat="47.83447" lon="7.17368">
        <ele>470</ele>
        <time>2023-05-21T09:34:09.000Z</time>
      </trkpt>
      <trkpt lat="47.83445" lon="7.17364">
        <ele>470.39999389648</ele>
        <time>2023-05-21T09:34:10.000Z</time>
      </trkpt>
      <trkpt lat="47.83443" lon="7.1736">
        <ele>470.79998779297</ele>
        <time>2023-05-21T09:34:11.000Z</time>
      </trkpt>
      <trkpt lat="47.83442" lon="7.17356">
        <ele>471.79998779297</ele>
        <time>2023-05-21T09:34:12.000Z</time>
      </trkpt>
      <trkpt lat="47.83438" lon="7.17349">
        <ele>472.20001220703</ele>
        <time>2023-05-21T09:34:14.000Z</time>
      </trkpt>
      <trkpt lat="47.83436" lon="7.17346">
        <ele>472.60000610352</ele>
        <time>2023-05-21T09:34:15.000Z</time>
      </trkpt>
      <trkpt lat="47.83434" lon="7.17342">
        <ele>473</ele>
        <time>2023-05-21T09:34:16.000Z</time>
      </trkpt>
      <trkpt lat="47.83431" lon="7.17338">
        <ele>473.39999389648</ele>
        <time>2023-05-21T09:34:17.000Z</time>
      </trkpt>
      <trkpt lat="47.83429" lon="7.17335">
        <ele>473.79998779297</ele>
        <time>2023-05-21T09:34:18.000Z</time>
      </trkpt>
      <trkpt lat="47.83425" lon="7.17328">
        <ele>474.20001220703</ele>
        <time>2023-05-21T09:34:20.000Z</time>
      </trkpt>
      <trkpt lat="47.83422" lon="7.17325">
        <ele>474.60000610352</ele>
        <time>2023-05-21T09:34:21.000Z</time>
      </trkpt>
      <trkpt lat="47.8342" lon="7.17323">
        <ele>475.20001220703</ele>
        <time>2023-05-21T09:34:22.000Z</time>
      </trkpt>
      <trkpt lat="47.83417" lon="7.17321">
        <ele>475.60000610352</ele>
        <time>2023-05-21T09:34:23.000Z</time>
      </trkpt>
      <trkpt lat="47.83415" lon="7.17318">
        <ele>476</ele>
        <time>2023-05-21T09:34:24.000Z</time>
      </trkpt>
      <trkpt lat="47.83408" lon="7.17311">
        <ele>476.39999389648</ele>
        <time>2023-05-21T09:34:27.000Z</time>
      </trkpt>
      <trkpt lat="47.83406" lon="7.17308">
        <ele>477</ele>
        <time>2023-05-21T09:34:28.000Z</time>
      </trkpt>
      <trkpt lat="47.83404" lon="7.17305">
        <ele>477.39999389648</ele>
        <time>2023-05-21T09:34:29.000Z</time>
      </trkpt>
      <trkpt lat="47.83402" lon="7.17302">
        <ele>477.79998779297</ele>
        <time>2023-05-21T09:34:30.000Z</time>
      </trkpt>
      <trkpt lat="47.834" lon="7.17299">
        <ele>478.20001220703</ele>
        <time>2023-05-21T09:34:31.000Z</time>
      </trkpt>
      <trkpt lat="47.83387" lon="7.1728">
        <ele>478.20001220703</ele>
        <time>2023-05-21T09:34:37.000Z</time>
      </trkpt>
      <trkpt lat="47.8338" lon="7.17269">
        <ele>478.60000610352</ele>
        <time>2023-05-21T09:34:40.000Z</time>
      </trkpt>
      <trkpt lat="47.83378" lon="7.17266">
        <ele>479</ele>
        <time>2023-05-21T09:34:41.000Z</time>
      </trkpt>
      <trkpt lat="47.83376" lon="7.17262">
        <ele>479.39999389648</ele>
        <time>2023-05-21T09:34:42.000Z</time>
      </trkpt>
      <trkpt lat="47.83374" lon="7.17259">
        <ele>479.79998779297</ele>
        <time>2023-05-21T09:34:43.000Z</time>
      </trkpt>
      <trkpt lat="47.83372" lon="7.17255">
        <ele>480.20001220703</ele>
        <time>2023-05-21T09:34:44.000Z</time>
      </trkpt>
      <trkpt lat="47.83359" lon="7.17236">
        <ele>480.20001220703</ele>
        <time>2023-05-21T09:34:50.000Z</time>
      </trkpt>
      <trkpt lat="47.83352" lon="7.17216">
        <ele>480.20001220703</ele>
        <time>2023-05-21T09:34:55.000Z</time>
      </trkpt>
      <trkpt lat="47.83351" lon="7.17212">
        <ele>480.79998779297</ele>
        <time>2023-05-21T09:34:56.000Z</time>
      </trkpt>
      <trkpt lat="47.83349" lon="7.17208">
        <ele>481.20001220703</ele>
        <time>2023-05-21T09:34:57.000Z</time>
      </trkpt>
      <trkpt lat="47.83348" lon="7.17204">
        <ele>481.60000610352</ele>
        <time>2023-05-21T09:34:58.000Z</time>
      </trkpt>
      <trkpt lat="47.83346" lon="7.172">
        <ele>482</ele>
        <time>2023-05-21T09:34:59.000Z</time>
      </trkpt>
      <trkpt lat="47.83344" lon="7.17196">
        <ele>482.60000610352</ele>
        <time>2023-05-21T09:35:00.000Z</time>
      </trkpt>
      <trkpt lat="47.8334" lon="7.17188">
        <ele>483</ele>
        <time>2023-05-21T09:35:02.000Z</time>
      </trkpt>
      <trkpt lat="47.83339" lon="7.17185">
        <ele>483.39999389648</ele>
        <time>2023-05-21T09:35:03.000Z</time>
      </trkpt>
      <trkpt lat="47.83337" lon="7.17181">
        <ele>484</ele>
        <time>2023-05-21T09:35:04.000Z</time>
      </trkpt>
      <trkpt lat="47.83336" lon="7.17177">
        <ele>484.39999389648</ele>
        <time>2023-05-21T09:35:05.000Z</time>
      </trkpt>
      <trkpt lat="47.83334" lon="7.17173">
        <ele>484.79998779297</ele>
        <time>2023-05-21T09:35:06.000Z</time>
      </trkpt>
      <trkpt lat="47.83329" lon="7.17162">
        <ele>485.20001220703</ele>
        <time>2023-05-21T09:35:09.000Z</time>
      </trkpt>
      <trkpt lat="47.83328" lon="7.17158">
        <ele>485.79998779297</ele>
        <time>2023-05-21T09:35:10.000Z</time>
      </trkpt>
      <trkpt lat="47.83326" lon="7.17154">
        <ele>486.20001220703</ele>
        <time>2023-05-21T09:35:11.000Z</time>
      </trkpt>
      <trkpt lat="47.83325" lon="7.17151">
        <ele>486.60000610352</ele>
        <time>2023-05-21T09:35:12.000Z</time>
      </trkpt>
      <trkpt lat="47.83324" lon="7.17147">
        <ele>487</ele>
        <time>2023-05-21T09:35:13.000Z</time>
      </trkpt>
      <trkpt lat="47.83321" lon="7.17141">
        <ele>487.39999389648</ele>
        <time>2023-05-21T09:35:15.000Z</time>
      </trkpt>
      <trkpt lat="47.83319" lon="7.1714">
        <ele>487.79998779297</ele>
        <time>2023-05-21T09:35:16.000Z</time>
      </trkpt>
      <trkpt lat="47.83317" lon="7.17138">
        <ele>488.20001220703</ele>
        <time>2023-05-21T09:35:17.000Z</time>
      </trkpt>
      <trkpt lat="47.83314" lon="7.17135">
        <ele>488.60000610352</ele>
        <time>2023-05-21T09:35:18.000Z</time>
      </trkpt>
      <trkpt lat="47.83313" lon="7.17131">
        <ele>489</ele>
        <time>2023-05-21T09:35:19.000Z</time>
      </trkpt>
      <trkpt lat="47.83312" lon="7.17123">
        <ele>489</ele>
        <time>2023-05-21T09:35:21.000Z</time>
      </trkpt>
      <trkpt lat="47.83311" lon="7.17113">
        <ele>489.39999389648</ele>
        <time>2023-05-21T09:35:23.000Z</time>
      </trkpt>
      <trkpt lat="47.83311" lon="7.17109">
        <ele>489.79998779297</ele>
        <time>2023-05-21T09:35:24.000Z</time>
      </trkpt>
      <trkpt lat="47.83312" lon="7.17105">
        <ele>490.79998779297</ele>
        <time>2023-05-21T09:35:25.000Z</time>
      </trkpt>
      <trkpt lat="47.83312" lon="7.17101">
        <ele>491.20001220703</ele>
        <time>2023-05-21T09:35:26.000Z</time>
      </trkpt>
      <trkpt lat="47.83312" lon="7.17097">
        <ele>491.20001220703</ele>
        <time>2023-05-21T09:35:27.000Z</time>
      </trkpt>
      <trkpt lat="47.83312" lon="7.17093">
        <ele>491.60000610352</ele>
        <time>2023-05-21T09:35:28.000Z</time>
      </trkpt>
      <trkpt lat="47.83312" lon="7.17089">
        <ele>492</ele>
        <time>2023-05-21T09:35:29.000Z</time>
      </trkpt>
      <trkpt lat="47.83312" lon="7.17085">
        <ele>492.60000610352</ele>
        <time>2023-05-21T09:35:30.000Z</time>
      </trkpt>
      <trkpt lat="47.83311" lon="7.17081">
        <ele>493</ele>
        <time>2023-05-21T09:35:31.000Z</time>
      </trkpt>
      <trkpt lat="47.83311" lon="7.17077">
        <ele>493.60000610352</ele>
        <time>2023-05-21T09:35:32.000Z</time>
      </trkpt>
      <trkpt lat="47.83311" lon="7.17073">
        <ele>494</ele>
        <time>2023-05-21T09:35:33.000Z</time>
      </trkpt>
      <trkpt lat="47.83311" lon="7.1707">
        <ele>494.39999389648</ele>
        <time>2023-05-21T09:35:34.000Z</time>
      </trkpt>
      <trkpt lat="47.83312" lon="7.17066">
        <ele>494.79998779297</ele>
        <time>2023-05-21T09:35:35.000Z</time>
      </trkpt>
      <trkpt lat="47.83312" lon="7.17062">
        <ele>495.39999389648</ele>
        <time>2023-05-21T09:35:36.000Z</time>
      </trkpt>
      <trkpt lat="47.83312" lon="7.17059">
        <ele>495.79998779297</ele>
        <time>2023-05-21T09:35:37.000Z</time>
      </trkpt>
      <trkpt lat="47.83312" lon="7.17051">
        <ele>496.20001220703</ele>
        <time>2023-05-21T09:35:39.000Z</time>
      </trkpt>
      <trkpt lat="47.83312" lon="7.17048">
        <ele>496.79998779297</ele>
        <time>2023-05-21T09:35:40.000Z</time>
      </trkpt>
      <trkpt lat="47.83312" lon="7.17044">
        <ele>497.20001220703</ele>
        <time>2023-05-21T09:35:41.000Z</time>
      </trkpt>
      <trkpt lat="47.83311" lon="7.17041">
        <ele>497.60000610352</ele>
        <time>2023-05-21T09:35:42.000Z</time>
      </trkpt>
      <trkpt lat="47.83311" lon="7.17037">
        <ele>498.20001220703</ele>
        <time>2023-05-21T09:35:43.000Z</time>
      </trkpt>
      <trkpt lat="47.8331" lon="7.17033">
        <ele>498.60000610352</ele>
        <time>2023-05-21T09:35:44.000Z</time>
      </trkpt>
      <trkpt lat="47.83309" lon="7.1703">
        <ele>499</ele>
        <time>2023-05-21T09:35:45.000Z</time>
      </trkpt>
      <trkpt lat="47.83309" lon="7.17027">
        <ele>499.39999389648</ele>
        <time>2023-05-21T09:35:46.000Z</time>
      </trkpt>
      <trkpt lat="47.83308" lon="7.17024">
        <ele>499.79998779297</ele>
        <time>2023-05-21T09:35:47.000Z</time>
      </trkpt>
      <trkpt lat="47.83308" lon="7.17022">
        <ele>500.20001220703</ele>
        <time>2023-05-21T09:35:48.000Z</time>
      </trkpt>
      <trkpt lat="47.83307" lon="7.17016">
        <ele>500.60000610352</ele>
        <time>2023-05-21T09:35:49.000Z</time>
      </trkpt>
      <trkpt lat="47.83307" lon="7.17012">
        <ele>501.39999389648</ele>
        <time>2023-05-21T09:35:50.000Z</time>
      </trkpt>
      <trkpt lat="47.83306" lon="7.17008">
        <ele>502</ele>
        <time>2023-05-21T09:35:51.000Z</time>
      </trkpt>
      <trkpt lat="47.83304" lon="7.17003">
        <ele>502.39999389648</ele>
        <time>2023-05-21T09:35:52.000Z</time>
      </trkpt>
      <trkpt lat="47.83303" lon="7.17">
        <ele>502.79998779297</ele>
        <time>2023-05-21T09:35:53.000Z</time>
      </trkpt>
      <trkpt lat="47.83302" lon="7.16995">
        <ele>503.20001220703</ele>
        <time>2023-05-21T09:35:54.000Z</time>
      </trkpt>
      <trkpt lat="47.83301" lon="7.16991">
        <ele>503.60000610352</ele>
        <time>2023-05-21T09:35:55.000Z</time>
      </trkpt>
      <trkpt lat="47.83301" lon="7.16987">
        <ele>504</ele>
        <time>2023-05-21T09:35:56.000Z</time>
      </trkpt>
      <trkpt lat="47.833" lon="7.16983">
        <ele>504.39999389648</ele>
        <time>2023-05-21T09:35:57.000Z</time>
      </trkpt>
      <trkpt lat="47.833" lon="7.16975">
        <ele>504.79998779297</ele>
        <time>2023-05-21T09:35:59.000Z</time>
      </trkpt>
      <trkpt lat="47.83301" lon="7.16971">
        <ele>505.20001220703</ele>
        <time>2023-05-21T09:36:00.000Z</time>
      </trkpt>
      <trkpt lat="47.83302" lon="7.16968">
        <ele>505.79998779297</ele>
        <time>2023-05-21T09:36:01.000Z</time>
      </trkpt>
      <trkpt lat="47.83303" lon="7.16964">
        <ele>506.20001220703</ele>
        <time>2023-05-21T09:36:02.000Z</time>
      </trkpt>
      <trkpt lat="47.83304" lon="7.16961">
        <ele>506.60000610352</ele>
        <time>2023-05-21T09:36:03.000Z</time>
      </trkpt>
      <trkpt lat="47.83305" lon="7.16954">
        <ele>507</ele>
        <time>2023-05-21T09:36:05.000Z</time>
      </trkpt>
      <trkpt lat="47.83307" lon="7.1695">
        <ele>507.60000610352</ele>
        <time>2023-05-21T09:36:06.000Z</time>
      </trkpt>
      <trkpt lat="47.83308" lon="7.16947">
        <ele>508</ele>
        <time>2023-05-21T09:36:07.000Z</time>
      </trkpt>
      <trkpt lat="47.83309" lon="7.16944">
        <ele>508.39999389648</ele>
        <time>2023-05-21T09:36:08.000Z</time>
      </trkpt>
      <trkpt lat="47.83309" lon="7.16943">
        <ele>509</ele>
        <time>2023-05-21T09:36:09.000Z</time>
      </trkpt>
      <trkpt lat="47.8331" lon="7.1694">
        <ele>509.39999389648</ele>
        <time>2023-05-21T09:36:10.000Z</time>
      </trkpt>
      <trkpt lat="47.83311" lon="7.16938">
        <ele>509.79998779297</ele>
        <time>2023-05-21T09:36:11.000Z</time>
      </trkpt>
      <trkpt lat="47.83312" lon="7.16935">
        <ele>510.20001220703</ele>
        <time>2023-05-21T09:36:12.000Z</time>
      </trkpt>
      <trkpt lat="47.83314" lon="7.16932">
        <ele>510.60000610352</ele>
        <time>2023-05-21T09:36:13.000Z</time>
      </trkpt>
      <trkpt lat="47.83315" lon="7.16929">
        <ele>511</ele>
        <time>2023-05-21T09:36:14.000Z</time>
      </trkpt>
      <trkpt lat="47.83317" lon="7.16926">
        <ele>511.39999389648</ele>
        <time>2023-05-21T09:36:15.000Z</time>
      </trkpt>
      <trkpt lat="47.83319" lon="7.16922">
        <ele>511.79998779297</ele>
        <time>2023-05-21T09:36:16.000Z</time>
      </trkpt>
      <trkpt lat="47.83321" lon="7.16919">
        <ele>512.20001220703</ele>
        <time>2023-05-21T09:36:17.000Z</time>
      </trkpt>
      <trkpt lat="47.83323" lon="7.16915">
        <ele>512.59997558594</ele>
        <time>2023-05-21T09:36:18.000Z</time>
      </trkpt>
      <trkpt lat="47.83325" lon="7.16912">
        <ele>513</ele>
        <time>2023-05-21T09:36:19.000Z</time>
      </trkpt>
      <trkpt lat="47.8333" lon="7.16903">
        <ele>513.59997558594</ele>
        <time>2023-05-21T09:36:22.000Z</time>
      </trkpt>
      <trkpt lat="47.83331" lon="7.169">
        <ele>514</ele>
        <time>2023-05-21T09:36:23.000Z</time>
      </trkpt>
      <trkpt lat="47.83333" lon="7.16898">
        <ele>514.40002441406</ele>
        <time>2023-05-21T09:36:24.000Z</time>
      </trkpt>
      <trkpt lat="47.83336" lon="7.16894">
        <ele>515</ele>
        <time>2023-05-21T09:36:25.000Z</time>
      </trkpt>
      <trkpt lat="47.83338" lon="7.16891">
        <ele>515.40002441406</ele>
        <time>2023-05-21T09:36:26.000Z</time>
      </trkpt>
      <trkpt lat="47.8334" lon="7.16888">
        <ele>515.40002441406</ele>
        <time>2023-05-21T09:36:27.000Z</time>
      </trkpt>
      <trkpt lat="47.83343" lon="7.16885">
        <ele>515.79998779297</ele>
        <time>2023-05-21T09:36:28.000Z</time>
      </trkpt>
      <trkpt lat="47.83345" lon="7.16884">
        <ele>516.20001220703</ele>
        <time>2023-05-21T09:36:29.000Z</time>
      </trkpt>
      <trkpt lat="47.83347" lon="7.16881">
        <ele>516.79998779297</ele>
        <time>2023-05-21T09:36:30.000Z</time>
      </trkpt>
      <trkpt lat="47.83349" lon="7.16879">
        <ele>517.20001220703</ele>
        <time>2023-05-21T09:36:31.000Z</time>
      </trkpt>
      <trkpt lat="47.83351" lon="7.16877">
        <ele>517.59997558594</ele>
        <time>2023-05-21T09:36:32.000Z</time>
      </trkpt>
      <trkpt lat="47.83354" lon="7.16873">
        <ele>518</ele>
        <time>2023-05-21T09:36:34.000Z</time>
      </trkpt>
      <trkpt lat="47.83354" lon="7.16872">
        <ele>518.40002441406</ele>
        <time>2023-05-21T09:36:35.000Z</time>
      </trkpt>
      <trkpt lat="47.83355" lon="7.1687">
        <ele>518.79998779297</ele>
        <time>2023-05-21T09:36:36.000Z</time>
      </trkpt>
      <trkpt lat="47.83356" lon="7.16869">
        <ele>519.20001220703</ele>
        <time>2023-05-21T09:36:37.000Z</time>
      </trkpt>
      <trkpt lat="47.83357" lon="7.16868">
        <ele>519.59997558594</ele>
        <time>2023-05-21T09:36:38.000Z</time>
      </trkpt>
      <trkpt lat="47.83359" lon="7.16863">
        <ele>520</ele>
        <time>2023-05-21T09:36:40.000Z</time>
      </trkpt>
      <trkpt lat="47.8336" lon="7.16861">
        <ele>520.59997558594</ele>
        <time>2023-05-21T09:36:41.000Z</time>
      </trkpt>
      <trkpt lat="47.83362" lon="7.16857">
        <ele>521</ele>
        <time>2023-05-21T09:36:42.000Z</time>
      </trkpt>
      <trkpt lat="47.83364" lon="7.16853">
        <ele>521.40002441406</ele>
        <time>2023-05-21T09:36:43.000Z</time>
      </trkpt>
      <trkpt lat="47.83366" lon="7.16849">
        <ele>521.79998779297</ele>
        <time>2023-05-21T09:36:44.000Z</time>
      </trkpt>
      <trkpt lat="47.83375" lon="7.16835">
        <ele>522.20001220703</ele>
        <time>2023-05-21T09:36:48.000Z</time>
      </trkpt>
      <trkpt lat="47.83377" lon="7.16831">
        <ele>522.79998779297</ele>
        <time>2023-05-21T09:36:49.000Z</time>
      </trkpt>
      <trkpt lat="47.8338" lon="7.16828">
        <ele>523.20001220703</ele>
        <time>2023-05-21T09:36:50.000Z</time>
      </trkpt>
      <trkpt lat="47.83383" lon="7.16825">
        <ele>523.59997558594</ele>
        <time>2023-05-21T09:36:51.000Z</time>
      </trkpt>
      <trkpt lat="47.83385" lon="7.16821">
        <ele>524.20001220703</ele>
        <time>2023-05-21T09:36:52.000Z</time>
      </trkpt>
      <trkpt lat="47.83388" lon="7.16814">
        <ele>524.59997558594</ele>
        <time>2023-05-21T09:36:54.000Z</time>
      </trkpt>
      <trkpt lat="47.8339" lon="7.16811">
        <ele>525</ele>
        <time>2023-05-21T09:36:55.000Z</time>
      </trkpt>
      <trkpt lat="47.83393" lon="7.16807">
        <ele>525.40002441406</ele>
        <time>2023-05-21T09:36:56.000Z</time>
      </trkpt>
      <trkpt lat="47.83394" lon="7.16803">
        <ele>525.79998779297</ele>
        <time>2023-05-21T09:36:57.000Z</time>
      </trkpt>
      <trkpt lat="47.83396" lon="7.168">
        <ele>526.20001220703</ele>
        <time>2023-05-21T09:36:58.000Z</time>
      </trkpt>
      <trkpt lat="47.83399" lon="7.16793">
        <ele>526.59997558594</ele>
        <time>2023-05-21T09:37:00.000Z</time>
      </trkpt>
      <trkpt lat="47.83401" lon="7.1679">
        <ele>527</ele>
        <time>2023-05-21T09:37:01.000Z</time>
      </trkpt>
      <trkpt lat="47.83403" lon="7.16787">
        <ele>527.40002441406</ele>
        <time>2023-05-21T09:37:02.000Z</time>
      </trkpt>
      <trkpt lat="47.83406" lon="7.16784">
        <ele>527.79998779297</ele>
        <time>2023-05-21T09:37:03.000Z</time>
      </trkpt>
      <trkpt lat="47.83408" lon="7.16779">
        <ele>528.20001220703</ele>
        <time>2023-05-21T09:37:04.000Z</time>
      </trkpt>
      <trkpt lat="47.83414" lon="7.1677">
        <ele>528.79998779297</ele>
        <time>2023-05-21T09:37:06.000Z</time>
      </trkpt>
      <trkpt lat="47.83416" lon="7.16765">
        <ele>529.20001220703</ele>
        <time>2023-05-21T09:37:07.000Z</time>
      </trkpt>
      <trkpt lat="47.83419" lon="7.16761">
        <ele>529.59997558594</ele>
        <time>2023-05-21T09:37:08.000Z</time>
      </trkpt>
      <trkpt lat="47.83422" lon="7.16757">
        <ele>530</ele>
        <time>2023-05-21T09:37:09.000Z</time>
      </trkpt>
      <trkpt lat="47.83424" lon="7.16753">
        <ele>530.59997558594</ele>
        <time>2023-05-21T09:37:10.000Z</time>
      </trkpt>
      <trkpt lat="47.83432" lon="7.16742">
        <ele>531</ele>
        <time>2023-05-21T09:37:13.000Z</time>
      </trkpt>
      <trkpt lat="47.83434" lon="7.16739">
        <ele>531.40002441406</ele>
        <time>2023-05-21T09:37:14.000Z</time>
      </trkpt>
      <trkpt lat="47.83436" lon="7.16736">
        <ele>531.79998779297</ele>
        <time>2023-05-21T09:37:15.000Z</time>
      </trkpt>
      <trkpt lat="47.83439" lon="7.16733">
        <ele>532.40002441406</ele>
        <time>2023-05-21T09:37:16.000Z</time>
      </trkpt>
      <trkpt lat="47.83441" lon="7.16729">
        <ele>532.79998779297</ele>
        <time>2023-05-21T09:37:17.000Z</time>
      </trkpt>
      <trkpt lat="47.83445" lon="7.16722">
        <ele>533.20001220703</ele>
        <time>2023-05-21T09:37:19.000Z</time>
      </trkpt>
      <trkpt lat="47.83447" lon="7.16719">
        <ele>533.59997558594</ele>
        <time>2023-05-21T09:37:20.000Z</time>
      </trkpt>
      <trkpt lat="47.83449" lon="7.16716">
        <ele>534</ele>
        <time>2023-05-21T09:37:21.000Z</time>
      </trkpt>
      <trkpt lat="47.83452" lon="7.16713">
        <ele>534.40002441406</ele>
        <time>2023-05-21T09:37:22.000Z</time>
      </trkpt>
      <trkpt lat="47.83454" lon="7.16709">
        <ele>535</ele>
        <time>2023-05-21T09:37:23.000Z</time>
      </trkpt>
      <trkpt lat="47.83456" lon="7.16703">
        <ele>535</ele>
        <time>2023-05-21T09:37:25.000Z</time>
      </trkpt>
      <trkpt lat="47.83459" lon="7.16697">
        <ele>535.40002441406</ele>
        <time>2023-05-21T09:37:27.000Z</time>
      </trkpt>
      <trkpt lat="47.8346" lon="7.16694">
        <ele>536</ele>
        <time>2023-05-21T09:37:28.000Z</time>
      </trkpt>
      <trkpt lat="47.83461" lon="7.16691">
        <ele>536.59997558594</ele>
        <time>2023-05-21T09:37:29.000Z</time>
      </trkpt>
      <trkpt lat="47.83462" lon="7.16688">
        <ele>537.59997558594</ele>
        <time>2023-05-21T09:37:30.000Z</time>
      </trkpt>
      <trkpt lat="47.83462" lon="7.16685">
        <ele>537.59997558594</ele>
        <time>2023-05-21T09:37:31.000Z</time>
      </trkpt>
      <trkpt lat="47.83462" lon="7.16677">
        <ele>537.59997558594</ele>
        <time>2023-05-21T09:37:34.000Z</time>
      </trkpt>
      <trkpt lat="47.83466" lon="7.16659">
        <ele>537.59997558594</ele>
        <time>2023-05-21T09:37:38.000Z</time>
      </trkpt>
      <trkpt lat="47.83471" lon="7.16642">
        <ele>538</ele>
        <time>2023-05-21T09:37:42.000Z</time>
      </trkpt>
      <trkpt lat="47.83473" lon="7.16636">
        <ele>538.59997558594</ele>
        <time>2023-05-21T09:37:43.000Z</time>
      </trkpt>
      <trkpt lat="47.83475" lon="7.16631">
        <ele>539</ele>
        <time>2023-05-21T09:37:44.000Z</time>
      </trkpt>
      <trkpt lat="47.83476" lon="7.16626">
        <ele>539.40002441406</ele>
        <time>2023-05-21T09:37:45.000Z</time>
      </trkpt>
      <trkpt lat="47.83477" lon="7.16622">
        <ele>540</ele>
        <time>2023-05-21T09:37:46.000Z</time>
      </trkpt>
      <trkpt lat="47.83479" lon="7.16613">
        <ele>540.40002441406</ele>
        <time>2023-05-21T09:37:48.000Z</time>
      </trkpt>
      <trkpt lat="47.83479" lon="7.16609">
        <ele>540.79998779297</ele>
        <time>2023-05-21T09:37:49.000Z</time>
      </trkpt>
      <trkpt lat="47.8348" lon="7.16605">
        <ele>541.20001220703</ele>
        <time>2023-05-21T09:37:50.000Z</time>
      </trkpt>
      <trkpt lat="47.83481" lon="7.16601">
        <ele>541.79998779297</ele>
        <time>2023-05-21T09:37:51.000Z</time>
      </trkpt>
      <trkpt lat="47.83481" lon="7.16597">
        <ele>542.20001220703</ele>
        <time>2023-05-21T09:37:52.000Z</time>
      </trkpt>
      <trkpt lat="47.83483" lon="7.16589">
        <ele>543</ele>
        <time>2023-05-21T09:37:54.000Z</time>
      </trkpt>
      <trkpt lat="47.83484" lon="7.16586">
        <ele>543.40002441406</ele>
        <time>2023-05-21T09:37:55.000Z</time>
      </trkpt>
      <trkpt lat="47.83484" lon="7.16582">
        <ele>543.79998779297</ele>
        <time>2023-05-21T09:37:56.000Z</time>
      </trkpt>
      <trkpt lat="47.83484" lon="7.16579">
        <ele>544.40002441406</ele>
        <time>2023-05-21T09:37:57.000Z</time>
      </trkpt>
      <trkpt lat="47.83484" lon="7.16576">
        <ele>544.79998779297</ele>
        <time>2023-05-21T09:37:58.000Z</time>
      </trkpt>
      <trkpt lat="47.83484" lon="7.16573">
        <ele>545.20001220703</ele>
        <time>2023-05-21T09:37:59.000Z</time>
      </trkpt>
      <trkpt lat="47.83484" lon="7.1657">
        <ele>545.59997558594</ele>
        <time>2023-05-21T09:38:00.000Z</time>
      </trkpt>
      <trkpt lat="47.83485" lon="7.16567">
        <ele>546.20001220703</ele>
        <time>2023-05-21T09:38:01.000Z</time>
      </trkpt>
      <trkpt lat="47.83485" lon="7.16565">
        <ele>546.59997558594</ele>
        <time>2023-05-21T09:38:02.000Z</time>
      </trkpt>
      <trkpt lat="47.83487" lon="7.16558">
        <ele>546.59997558594</ele>
        <time>2023-05-21T09:38:06.000Z</time>
      </trkpt>
      <trkpt lat="47.83488" lon="7.16558">
        <ele>547</ele>
        <time>2023-05-21T09:38:07.000Z</time>
      </trkpt>
      <trkpt lat="47.83484" lon="7.16538">
        <ele>548.79998779297</ele>
        <time>2023-05-21T09:40:00.000Z</time>
      </trkpt>
      <trkpt lat="47.83483" lon="7.16533">
        <ele>548.79998779297</ele>
        <time>2023-05-21T09:40:02.000Z</time>
      </trkpt>
      <trkpt lat="47.83482" lon="7.16529">
        <ele>549.20001220703</ele>
        <time>2023-05-21T09:40:04.000Z</time>
      </trkpt>
      <trkpt lat="47.83481" lon="7.16526">
        <ele>549.59997558594</ele>
        <time>2023-05-21T09:40:05.000Z</time>
      </trkpt>
      <trkpt lat="47.83481" lon="7.16523">
        <ele>550</ele>
        <time>2023-05-21T09:40:06.000Z</time>
      </trkpt>
      <trkpt lat="47.83481" lon="7.1652">
        <ele>550.40002441406</ele>
        <time>2023-05-21T09:40:07.000Z</time>
      </trkpt>
      <trkpt lat="47.8348" lon="7.16517">
        <ele>550.79998779297</ele>
        <time>2023-05-21T09:40:08.000Z</time>
      </trkpt>
      <trkpt lat="47.83479" lon="7.16508">
        <ele>550.79998779297</ele>
        <time>2023-05-21T09:40:12.000Z</time>
      </trkpt>
      <trkpt lat="47.8348" lon="7.16506">
        <ele>551.20001220703</ele>
        <time>2023-05-21T09:40:13.000Z</time>
      </trkpt>
      <trkpt lat="47.8348" lon="7.16503">
        <ele>551.59997558594</ele>
        <time>2023-05-21T09:40:14.000Z</time>
      </trkpt>
      <trkpt lat="47.83479" lon="7.165">
        <ele>552</ele>
        <time>2023-05-21T09:40:15.000Z</time>
      </trkpt>
      <trkpt lat="47.83479" lon="7.16498">
        <ele>552.59997558594</ele>
        <time>2023-05-21T09:40:16.000Z</time>
      </trkpt>
      <trkpt lat="47.83479" lon="7.16496">
        <ele>553</ele>
        <time>2023-05-21T09:40:17.000Z</time>
      </trkpt>
      <trkpt lat="47.83479" lon="7.16494">
        <ele>553</ele>
        <time>2023-05-21T09:40:18.000Z</time>
      </trkpt>
      <trkpt lat="47.83479" lon="7.16494">
        <ele>555</ele>
        <time>2023-05-21T09:40:24.000Z</time>
      </trkpt>
      <trkpt lat="47.83482" lon="7.16482">
        <ele>555</ele>
        <time>2023-05-21T09:40:27.000Z</time>
      </trkpt>
      <trkpt lat="47.83484" lon="7.16478">
        <ele>555</ele>
        <time>2023-05-21T09:40:28.000Z</time>
      </trkpt>
      <trkpt lat="47.83489" lon="7.1647">
        <ele>555.40002441406</ele>
        <time>2023-05-21T09:40:31.000Z</time>
      </trkpt>
      <trkpt lat="47.83491" lon="7.16466">
        <ele>555.79998779297</ele>
        <time>2023-05-21T09:40:32.000Z</time>
      </trkpt>
      <trkpt lat="47.83492" lon="7.16463">
        <ele>556.40002441406</ele>
        <time>2023-05-21T09:40:33.000Z</time>
      </trkpt>
      <trkpt lat="47.83493" lon="7.16459">
        <ele>556.79998779297</ele>
        <time>2023-05-21T09:40:34.000Z</time>
      </trkpt>
      <trkpt lat="47.83495" lon="7.16455">
        <ele>557.20001220703</ele>
        <time>2023-05-21T09:40:35.000Z</time>
      </trkpt>
      <trkpt lat="47.83496" lon="7.1645">
        <ele>557.59997558594</ele>
        <time>2023-05-21T09:40:36.000Z</time>
      </trkpt>
      <trkpt lat="47.83498" lon="7.16446">
        <ele>558</ele>
        <time>2023-05-21T09:40:37.000Z</time>
      </trkpt>
      <trkpt lat="47.83499" lon="7.16442">
        <ele>558.59997558594</ele>
        <time>2023-05-21T09:40:38.000Z</time>
      </trkpt>
      <trkpt lat="47.83501" lon="7.16438">
        <ele>559</ele>
        <time>2023-05-21T09:40:39.000Z</time>
      </trkpt>
      <trkpt lat="47.83502" lon="7.16433">
        <ele>559.40002441406</ele>
        <time>2023-05-21T09:40:40.000Z</time>
      </trkpt>
      <trkpt lat="47.83504" lon="7.16429">
        <ele>559.79998779297</ele>
        <time>2023-05-21T09:40:41.000Z</time>
      </trkpt>
      <trkpt lat="47.83506" lon="7.16425">
        <ele>560.40002441406</ele>
        <time>2023-05-21T09:40:42.000Z</time>
      </trkpt>
      <trkpt lat="47.83508" lon="7.1642">
        <ele>560.79998779297</ele>
        <time>2023-05-21T09:40:43.000Z</time>
      </trkpt>
      <trkpt lat="47.8351" lon="7.16416">
        <ele>561.20001220703</ele>
        <time>2023-05-21T09:40:44.000Z</time>
      </trkpt>
      <trkpt lat="47.83512" lon="7.1641">
        <ele>561.59997558594</ele>
        <time>2023-05-21T09:40:45.000Z</time>
      </trkpt>
      <trkpt lat="47.83514" lon="7.16405">
        <ele>562</ele>
        <time>2023-05-21T09:40:46.000Z</time>
      </trkpt>
      <trkpt lat="47.83515" lon="7.16401">
        <ele>562.59997558594</ele>
        <time>2023-05-21T09:40:47.000Z</time>
      </trkpt>
      <trkpt lat="47.83517" lon="7.16397">
        <ele>563</ele>
        <time>2023-05-21T09:40:48.000Z</time>
      </trkpt>
      <trkpt lat="47.83519" lon="7.16394">
        <ele>564</ele>
        <time>2023-05-21T09:40:49.000Z</time>
      </trkpt>
      <trkpt lat="47.83521" lon="7.1639">
        <ele>564</ele>
        <time>2023-05-21T09:40:50.000Z</time>
      </trkpt>
      <trkpt lat="47.83523" lon="7.16388">
        <ele>564.40002441406</ele>
        <time>2023-05-21T09:40:51.000Z</time>
      </trkpt>
      <trkpt lat="47.83525" lon="7.16387">
        <ele>564.79998779297</ele>
        <time>2023-05-21T09:40:52.000Z</time>
      </trkpt>
      <trkpt lat="47.83526" lon="7.16384">
        <ele>565.20001220703</ele>
        <time>2023-05-21T09:40:53.000Z</time>
      </trkpt>
      <trkpt lat="47.83527" lon="7.16383">
        <ele>565.79998779297</ele>
        <time>2023-05-21T09:40:54.000Z</time>
      </trkpt>
      <trkpt lat="47.8353" lon="7.16381">
        <ele>566.20001220703</ele>
        <time>2023-05-21T09:40:55.000Z</time>
      </trkpt>
      <trkpt lat="47.83531" lon="7.16378">
        <ele>566.20001220703</ele>
        <time>2023-05-21T09:40:56.000Z</time>
      </trkpt>
      <trkpt lat="47.83534" lon="7.16376">
        <ele>566.59997558594</ele>
        <time>2023-05-21T09:40:57.000Z</time>
      </trkpt>
      <trkpt lat="47.83536" lon="7.16372">
        <ele>567</ele>
        <time>2023-05-21T09:40:58.000Z</time>
      </trkpt>
      <trkpt lat="47.83539" lon="7.16368">
        <ele>567.59997558594</ele>
        <time>2023-05-21T09:40:59.000Z</time>
      </trkpt>
      <trkpt lat="47.83541" lon="7.16364">
        <ele>568</ele>
        <time>2023-05-21T09:41:00.000Z</time>
      </trkpt>
      <trkpt lat="47.83544" lon="7.1636">
        <ele>568.40002441406</ele>
        <time>2023-05-21T09:41:01.000Z</time>
      </trkpt>
      <trkpt lat="47.83547" lon="7.16356">
        <ele>568.40002441406</ele>
        <time>2023-05-21T09:41:02.000Z</time>
      </trkpt>
      <trkpt lat="47.8355" lon="7.16352">
        <ele>568.79998779297</ele>
        <time>2023-05-21T09:41:03.000Z</time>
      </trkpt>
      <trkpt lat="47.83552" lon="7.16347">
        <ele>569.20001220703</ele>
        <time>2023-05-21T09:41:04.000Z</time>
      </trkpt>
      <trkpt lat="47.83554" lon="7.16342">
        <ele>569.59997558594</ele>
        <time>2023-05-21T09:41:05.000Z</time>
      </trkpt>
      <trkpt lat="47.83556" lon="7.16338">
        <ele>570</ele>
        <time>2023-05-21T09:41:06.000Z</time>
      </trkpt>
      <trkpt lat="47.83558" lon="7.16333">
        <ele>570.40002441406</ele>
        <time>2023-05-21T09:41:07.000Z</time>
      </trkpt>
      <trkpt lat="47.83559" lon="7.16329">
        <ele>570.79998779297</ele>
        <time>2023-05-21T09:41:08.000Z</time>
      </trkpt>
      <trkpt lat="47.83561" lon="7.16325">
        <ele>571.20001220703</ele>
        <time>2023-05-21T09:41:09.000Z</time>
      </trkpt>
      <trkpt lat="47.83564" lon="7.16321">
        <ele>571.59997558594</ele>
        <time>2023-05-21T09:41:10.000Z</time>
      </trkpt>
      <trkpt lat="47.83566" lon="7.16318">
        <ele>572.20001220703</ele>
        <time>2023-05-21T09:41:11.000Z</time>
      </trkpt>
      <trkpt lat="47.83568" lon="7.16315">
        <ele>572.59997558594</ele>
        <time>2023-05-21T09:41:12.000Z</time>
      </trkpt>
      <trkpt lat="47.8357" lon="7.16312">
        <ele>573.40002441406</ele>
        <time>2023-05-21T09:41:13.000Z</time>
      </trkpt>
      <trkpt lat="47.83572" lon="7.1631">
        <ele>573.79998779297</ele>
        <time>2023-05-21T09:41:14.000Z</time>
      </trkpt>
      <trkpt lat="47.83573" lon="7.16306">
        <ele>574.20001220703</ele>
        <time>2023-05-21T09:41:15.000Z</time>
      </trkpt>
      <trkpt lat="47.83574" lon="7.16302">
        <ele>574.59997558594</ele>
        <time>2023-05-21T09:41:16.000Z</time>
      </trkpt>
      <trkpt lat="47.83576" lon="7.16294">
        <ele>575</ele>
        <time>2023-05-21T09:41:18.000Z</time>
      </trkpt>
      <trkpt lat="47.83576" lon="7.16287">
        <ele>575.40002441406</ele>
        <time>2023-05-21T09:41:19.000Z</time>
      </trkpt>
      <trkpt lat="47.83577" lon="7.16282">
        <ele>575.79998779297</ele>
        <time>2023-05-21T09:41:20.000Z</time>
      </trkpt>
      <trkpt lat="47.83578" lon="7.16278">
        <ele>576.20001220703</ele>
        <time>2023-05-21T09:41:21.000Z</time>
      </trkpt>
      <trkpt lat="47.83579" lon="7.16273">
        <ele>576.59997558594</ele>
        <time>2023-05-21T09:41:22.000Z</time>
      </trkpt>
      <trkpt lat="47.83583" lon="7.1626">
        <ele>577</ele>
        <time>2023-05-21T09:41:25.000Z</time>
      </trkpt>
      <trkpt lat="47.83584" lon="7.16257">
        <ele>577.40002441406</ele>
        <time>2023-05-21T09:41:26.000Z</time>
      </trkpt>
      <trkpt lat="47.83586" lon="7.16253">
        <ele>578</ele>
        <time>2023-05-21T09:41:27.000Z</time>
      </trkpt>
      <trkpt lat="47.83588" lon="7.16248">
        <ele>578.40002441406</ele>
        <time>2023-05-21T09:41:28.000Z</time>
      </trkpt>
      <trkpt lat="47.83589" lon="7.16244">
        <ele>578.79998779297</ele>
        <time>2023-05-21T09:41:29.000Z</time>
      </trkpt>
      <trkpt lat="47.83596" lon="7.16232">
        <ele>578.79998779297</ele>
        <time>2023-05-21T09:41:32.000Z</time>
      </trkpt>
      <trkpt lat="47.83599" lon="7.16229">
        <ele>579.20001220703</ele>
        <time>2023-05-21T09:41:33.000Z</time>
      </trkpt>
      <trkpt lat="47.83601" lon="7.16226">
        <ele>579.59997558594</ele>
        <time>2023-05-21T09:41:34.000Z</time>
      </trkpt>
      <trkpt lat="47.83603" lon="7.16223">
        <ele>580.20001220703</ele>
        <time>2023-05-21T09:41:35.000Z</time>
      </trkpt>
      <trkpt lat="47.83605" lon="7.1622">
        <ele>580.59997558594</ele>
        <time>2023-05-21T09:41:36.000Z</time>
      </trkpt>
      <trkpt lat="47.83607" lon="7.16215">
        <ele>581</ele>
        <time>2023-05-21T09:41:37.000Z</time>
      </trkpt>
      <trkpt lat="47.83609" lon="7.16205">
        <ele>581.40002441406</ele>
        <time>2023-05-21T09:41:39.000Z</time>
      </trkpt>
      <trkpt lat="47.83611" lon="7.162">
        <ele>581.79998779297</ele>
        <time>2023-05-21T09:41:40.000Z</time>
      </trkpt>
      <trkpt lat="47.83612" lon="7.16196">
        <ele>582.40002441406</ele>
        <time>2023-05-21T09:41:41.000Z</time>
      </trkpt>
      <trkpt lat="47.83614" lon="7.16193">
        <ele>582.79998779297</ele>
        <time>2023-05-21T09:41:42.000Z</time>
      </trkpt>
      <trkpt lat="47.83616" lon="7.16189">
        <ele>583.20001220703</ele>
        <time>2023-05-21T09:41:43.000Z</time>
      </trkpt>
      <trkpt lat="47.83621" lon="7.16183">
        <ele>583.59997558594</ele>
        <time>2023-05-21T09:41:45.000Z</time>
      </trkpt>
      <trkpt lat="47.83624" lon="7.1618">
        <ele>584</ele>
        <time>2023-05-21T09:41:46.000Z</time>
      </trkpt>
      <trkpt lat="47.83627" lon="7.16177">
        <ele>584.40002441406</ele>
        <time>2023-05-21T09:41:47.000Z</time>
      </trkpt>
      <trkpt lat="47.83629" lon="7.16175">
        <ele>584.79998779297</ele>
        <time>2023-05-21T09:41:48.000Z</time>
      </trkpt>
      <trkpt lat="47.83632" lon="7.16173">
        <ele>585.20001220703</ele>
        <time>2023-05-21T09:41:49.000Z</time>
      </trkpt>
      <trkpt lat="47.83634" lon="7.16171">
        <ele>585.79998779297</ele>
        <time>2023-05-21T09:41:50.000Z</time>
      </trkpt>
      <trkpt lat="47.83637" lon="7.16169">
        <ele>586.20001220703</ele>
        <time>2023-05-21T09:41:51.000Z</time>
      </trkpt>
      <trkpt lat="47.83641" lon="7.16167">
        <ele>586.59997558594</ele>
        <time>2023-05-21T09:41:52.000Z</time>
      </trkpt>
      <trkpt lat="47.83644" lon="7.16165">
        <ele>587</ele>
        <time>2023-05-21T09:41:53.000Z</time>
      </trkpt>
      <trkpt lat="47.83647" lon="7.16164">
        <ele>587.40002441406</ele>
        <time>2023-05-21T09:41:54.000Z</time>
      </trkpt>
      <trkpt lat="47.83653" lon="7.1616">
        <ele>587.79998779297</ele>
        <time>2023-05-21T09:41:56.000Z</time>
      </trkpt>
      <trkpt lat="47.83655" lon="7.16159">
        <ele>588.20001220703</ele>
        <time>2023-05-21T09:41:57.000Z</time>
      </trkpt>
      <trkpt lat="47.83659" lon="7.16157">
        <ele>588.59997558594</ele>
        <time>2023-05-21T09:41:58.000Z</time>
      </trkpt>
      <trkpt lat="47.83662" lon="7.16156">
        <ele>589.20001220703</ele>
        <time>2023-05-21T09:41:59.000Z</time>
      </trkpt>
      <trkpt lat="47.83665" lon="7.16154">
        <ele>589.59997558594</ele>
        <time>2023-05-21T09:42:00.000Z</time>
      </trkpt>
      <trkpt lat="47.8367" lon="7.16151">
        <ele>590.40002441406</ele>
        <time>2023-05-21T09:42:02.000Z</time>
      </trkpt>
      <trkpt lat="47.83673" lon="7.1615">
        <ele>591</ele>
        <time>2023-05-21T09:42:03.000Z</time>
      </trkpt>
      <trkpt lat="47.83675" lon="7.16149">
        <ele>591.40002441406</ele>
        <time>2023-05-21T09:42:04.000Z</time>
      </trkpt>
      <trkpt lat="47.83678" lon="7.16148">
        <ele>591.79998779297</ele>
        <time>2023-05-21T09:42:05.000Z</time>
      </trkpt>
      <trkpt lat="47.83684" lon="7.16147">
        <ele>591.79998779297</ele>
        <time>2023-05-21T09:42:07.000Z</time>
      </trkpt>
      <trkpt lat="47.83687" lon="7.16147">
        <ele>592.20001220703</ele>
        <time>2023-05-21T09:42:08.000Z</time>
      </trkpt>
      <trkpt lat="47.8369" lon="7.16146">
        <ele>592.59997558594</ele>
        <time>2023-05-21T09:42:09.000Z</time>
      </trkpt>
      <trkpt lat="47.83692" lon="7.16145">
        <ele>593.20001220703</ele>
        <time>2023-05-21T09:42:10.000Z</time>
      </trkpt>
      <trkpt lat="47.83695" lon="7.16144">
        <ele>593.59997558594</ele>
        <time>2023-05-21T09:42:11.000Z</time>
      </trkpt>
      <trkpt lat="47.83698" lon="7.16143">
        <ele>594</ele>
        <time>2023-05-21T09:42:12.000Z</time>
      </trkpt>
      <trkpt lat="47.83701" lon="7.16143">
        <ele>594</ele>
        <time>2023-05-21T09:42:13.000Z</time>
      </trkpt>
      <trkpt lat="47.8371" lon="7.16142">
        <ele>594.40002441406</ele>
        <time>2023-05-21T09:42:16.000Z</time>
      </trkpt>
      <trkpt lat="47.83713" lon="7.16142">
        <ele>594.79998779297</ele>
        <time>2023-05-21T09:42:17.000Z</time>
      </trkpt>
      <trkpt lat="47.83716" lon="7.16141">
        <ele>595.40002441406</ele>
        <time>2023-05-21T09:42:18.000Z</time>
      </trkpt>
      <trkpt lat="47.83718" lon="7.1614">
        <ele>595.79998779297</ele>
        <time>2023-05-21T09:42:19.000Z</time>
      </trkpt>
      <trkpt lat="47.83721" lon="7.16139">
        <ele>596.20001220703</ele>
        <time>2023-05-21T09:42:20.000Z</time>
      </trkpt>
      <trkpt lat="47.83726" lon="7.16137">
        <ele>596.59997558594</ele>
        <time>2023-05-21T09:42:22.000Z</time>
      </trkpt>
      <trkpt lat="47.83729" lon="7.16135">
        <ele>597.20001220703</ele>
        <time>2023-05-21T09:42:23.000Z</time>
      </trkpt>
      <trkpt lat="47.83732" lon="7.16133">
        <ele>597.59997558594</ele>
        <time>2023-05-21T09:42:24.000Z</time>
      </trkpt>
      <trkpt lat="47.83735" lon="7.16131">
        <ele>598.20001220703</ele>
        <time>2023-05-21T09:42:25.000Z</time>
      </trkpt>
      <trkpt lat="47.83738" lon="7.16129">
        <ele>598.59997558594</ele>
        <time>2023-05-21T09:42:26.000Z</time>
      </trkpt>
      <trkpt lat="47.8374" lon="7.16127">
        <ele>599.40002441406</ele>
        <time>2023-05-21T09:42:27.000Z</time>
      </trkpt>
      <trkpt lat="47.83744" lon="7.16124">
        <ele>599.79998779297</ele>
        <time>2023-05-21T09:42:28.000Z</time>
      </trkpt>
      <trkpt lat="47.83746" lon="7.16122">
        <ele>600.20001220703</ele>
        <time>2023-05-21T09:42:29.000Z</time>
      </trkpt>
      <trkpt lat="47.83749" lon="7.16121">
        <ele>600.59997558594</ele>
        <time>2023-05-21T09:42:30.000Z</time>
      </trkpt>
      <trkpt lat="47.83752" lon="7.16119">
        <ele>600.59997558594</ele>
        <time>2023-05-21T09:42:31.000Z</time>
      </trkpt>
      <trkpt lat="47.83755" lon="7.16118">
        <ele>601.20001220703</ele>
        <time>2023-05-21T09:42:32.000Z</time>
      </trkpt>
      <trkpt lat="47.83758" lon="7.16117">
        <ele>601.59997558594</ele>
        <time>2023-05-21T09:42:33.000Z</time>
      </trkpt>
      <trkpt lat="47.83761" lon="7.16116">
        <ele>602</ele>
        <time>2023-05-21T09:42:34.000Z</time>
      </trkpt>
      <trkpt lat="47.83763" lon="7.16115">
        <ele>602.59997558594</ele>
        <time>2023-05-21T09:42:35.000Z</time>
      </trkpt>
      <trkpt lat="47.83766" lon="7.16114">
        <ele>603</ele>
        <time>2023-05-21T09:42:36.000Z</time>
      </trkpt>
      <trkpt lat="47.83773" lon="7.16113">
        <ele>603.40002441406</ele>
        <time>2023-05-21T09:42:38.000Z</time>
      </trkpt>
      <trkpt lat="47.83776" lon="7.16112">
        <ele>603.79998779297</ele>
        <time>2023-05-21T09:42:39.000Z</time>
      </trkpt>
      <trkpt lat="47.83779" lon="7.16111">
        <ele>604.20001220703</ele>
        <time>2023-05-21T09:42:40.000Z</time>
      </trkpt>
      <trkpt lat="47.83781" lon="7.16109">
        <ele>604.59997558594</ele>
        <time>2023-05-21T09:42:41.000Z</time>
      </trkpt>
      <trkpt lat="47.83784" lon="7.16108">
        <ele>605</ele>
        <time>2023-05-21T09:42:42.000Z</time>
      </trkpt>
      <trkpt lat="47.83785" lon="7.16106">
        <ele>605.40002441406</ele>
        <time>2023-05-21T09:42:43.000Z</time>
      </trkpt>
      <trkpt lat="47.83788" lon="7.16104">
        <ele>605.79998779297</ele>
        <time>2023-05-21T09:42:44.000Z</time>
      </trkpt>
      <trkpt lat="47.83791" lon="7.16102">
        <ele>606.20001220703</ele>
        <time>2023-05-21T09:42:45.000Z</time>
      </trkpt>
      <trkpt lat="47.83794" lon="7.161">
        <ele>606.59997558594</ele>
        <time>2023-05-21T09:42:46.000Z</time>
      </trkpt>
      <trkpt lat="47.83797" lon="7.16098">
        <ele>607</ele>
        <time>2023-05-21T09:42:47.000Z</time>
      </trkpt>
      <trkpt lat="47.83802" lon="7.16092">
        <ele>607.59997558594</ele>
        <time>2023-05-21T09:42:49.000Z</time>
      </trkpt>
      <trkpt lat="47.83804" lon="7.1609">
        <ele>608</ele>
        <time>2023-05-21T09:42:50.000Z</time>
      </trkpt>
      <trkpt lat="47.83806" lon="7.16087">
        <ele>608.40002441406</ele>
        <time>2023-05-21T09:42:51.000Z</time>
      </trkpt>
      <trkpt lat="47.83808" lon="7.16083">
        <ele>609.40002441406</ele>
        <time>2023-05-21T09:42:52.000Z</time>
      </trkpt>
      <trkpt lat="47.83811" lon="7.16076">
        <ele>609.79998779297</ele>
        <time>2023-05-21T09:42:54.000Z</time>
      </trkpt>
      <trkpt lat="47.83812" lon="7.16073">
        <ele>610.20001220703</ele>
        <time>2023-05-21T09:42:55.000Z</time>
      </trkpt>
      <trkpt lat="47.83813" lon="7.16071">
        <ele>610.59997558594</ele>
        <time>2023-05-21T09:42:56.000Z</time>
      </trkpt>
      <trkpt lat="47.83814" lon="7.16068">
        <ele>611</ele>
        <time>2023-05-21T09:42:57.000Z</time>
      </trkpt>
      <trkpt lat="47.83814" lon="7.16064">
        <ele>611.40002441406</ele>
        <time>2023-05-21T09:42:58.000Z</time>
      </trkpt>
      <trkpt lat="47.83814" lon="7.1606">
        <ele>611.40002441406</ele>
        <time>2023-05-21T09:42:59.000Z</time>
      </trkpt>
      <trkpt lat="47.83814" lon="7.16051">
        <ele>611.79998779297</ele>
        <time>2023-05-21T09:43:01.000Z</time>
      </trkpt>
      <trkpt lat="47.83814" lon="7.16045">
        <ele>612.20001220703</ele>
        <time>2023-05-21T09:43:02.000Z</time>
      </trkpt>
      <trkpt lat="47.83813" lon="7.1604">
        <ele>612.59997558594</ele>
        <time>2023-05-21T09:43:03.000Z</time>
      </trkpt>
      <trkpt lat="47.83812" lon="7.16035">
        <ele>613.20001220703</ele>
        <time>2023-05-21T09:43:04.000Z</time>
      </trkpt>
      <trkpt lat="47.83811" lon="7.1603">
        <ele>613.59997558594</ele>
        <time>2023-05-21T09:43:05.000Z</time>
      </trkpt>
      <trkpt lat="47.8381" lon="7.16018">
        <ele>614</ele>
        <time>2023-05-21T09:43:07.000Z</time>
      </trkpt>
      <trkpt lat="47.83809" lon="7.16013">
        <ele>614.40002441406</ele>
        <time>2023-05-21T09:43:08.000Z</time>
      </trkpt>
      <trkpt lat="47.83809" lon="7.16009">
        <ele>614.79998779297</ele>
        <time>2023-05-21T09:43:09.000Z</time>
      </trkpt>
      <trkpt lat="47.83808" lon="7.16004">
        <ele>615.20001220703</ele>
        <time>2023-05-21T09:43:10.000Z</time>
      </trkpt>
      <trkpt lat="47.83807" lon="7.15999">
        <ele>615.79998779297</ele>
        <time>2023-05-21T09:43:11.000Z</time>
      </trkpt>
      <trkpt lat="47.83804" lon="7.1599">
        <ele>616.20001220703</ele>
        <time>2023-05-21T09:43:13.000Z</time>
      </trkpt>
      <trkpt lat="47.83804" lon="7.15985">
        <ele>616.59997558594</ele>
        <time>2023-05-21T09:43:15.000Z</time>
      </trkpt>
      <trkpt lat="47.83803" lon="7.15982">
        <ele>617</ele>
        <time>2023-05-21T09:43:16.000Z</time>
      </trkpt>
      <trkpt lat="47.83803" lon="7.15981">
        <ele>617.79998779297</ele>
        <time>2023-05-21T09:43:17.000Z</time>
      </trkpt>
      <trkpt lat="47.83803" lon="7.15978">
        <ele>617.79998779297</ele>
        <time>2023-05-21T09:43:18.000Z</time>
      </trkpt>
      <trkpt lat="47.838" lon="7.15973">
        <ele>618.40002441406</ele>
        <time>2023-05-21T09:43:20.000Z</time>
      </trkpt>
      <trkpt lat="47.83799" lon="7.15971">
        <ele>618.79998779297</ele>
        <time>2023-05-21T09:43:21.000Z</time>
      </trkpt>
      <trkpt lat="47.83798" lon="7.15967">
        <ele>619.20001220703</ele>
        <time>2023-05-21T09:43:22.000Z</time>
      </trkpt>
      <trkpt lat="47.83797" lon="7.15961">
        <ele>619.59997558594</ele>
        <time>2023-05-21T09:43:23.000Z</time>
      </trkpt>
      <trkpt lat="47.83796" lon="7.15957">
        <ele>620</ele>
        <time>2023-05-21T09:43:24.000Z</time>
      </trkpt>
      <trkpt lat="47.83794" lon="7.15952">
        <ele>620</ele>
        <time>2023-05-21T09:43:25.000Z</time>
      </trkpt>
      <trkpt lat="47.83792" lon="7.15943">
        <ele>620.40002441406</ele>
        <time>2023-05-21T09:43:27.000Z</time>
      </trkpt>
      <trkpt lat="47.83791" lon="7.15939">
        <ele>621</ele>
        <time>2023-05-21T09:43:28.000Z</time>
      </trkpt>
      <trkpt lat="47.8379" lon="7.15935">
        <ele>621.40002441406</ele>
        <time>2023-05-21T09:43:29.000Z</time>
      </trkpt>
      <trkpt lat="47.83789" lon="7.15932">
        <ele>621.79998779297</ele>
        <time>2023-05-21T09:43:30.000Z</time>
      </trkpt>
      <trkpt lat="47.83788" lon="7.15928">
        <ele>622.20001220703</ele>
        <time>2023-05-21T09:43:31.000Z</time>
      </trkpt>
      <trkpt lat="47.83786" lon="7.15918">
        <ele>622.59997558594</ele>
        <time>2023-05-21T09:43:33.000Z</time>
      </trkpt>
      <trkpt lat="47.83785" lon="7.15914">
        <ele>623.20001220703</ele>
        <time>2023-05-21T09:43:34.000Z</time>
      </trkpt>
      <trkpt lat="47.83785" lon="7.15909">
        <ele>623.59997558594</ele>
        <time>2023-05-21T09:43:35.000Z</time>
      </trkpt>
      <trkpt lat="47.83784" lon="7.15904">
        <ele>624</ele>
        <time>2023-05-21T09:43:36.000Z</time>
      </trkpt>
      <trkpt lat="47.83783" lon="7.159">
        <ele>624.59997558594</ele>
        <time>2023-05-21T09:43:37.000Z</time>
      </trkpt>
      <trkpt lat="47.83781" lon="7.15891">
        <ele>625</ele>
        <time>2023-05-21T09:43:39.000Z</time>
      </trkpt>
      <trkpt lat="47.83779" lon="7.15885">
        <ele>625.40002441406</ele>
        <time>2023-05-21T09:43:40.000Z</time>
      </trkpt>
      <trkpt lat="47.83777" lon="7.15882">
        <ele>626</ele>
        <time>2023-05-21T09:43:41.000Z</time>
      </trkpt>
      <trkpt lat="47.83776" lon="7.15879">
        <ele>626.79998779297</ele>
        <time>2023-05-21T09:43:42.000Z</time>
      </trkpt>
      <trkpt lat="47.83773" lon="7.15871">
        <ele>627.40002441406</ele>
        <time>2023-05-21T09:43:44.000Z</time>
      </trkpt>
      <trkpt lat="47.83772" lon="7.15867">
        <ele>627.79998779297</ele>
        <time>2023-05-21T09:43:45.000Z</time>
      </trkpt>
      <trkpt lat="47.8377" lon="7.15862">
        <ele>628.40002441406</ele>
        <time>2023-05-21T09:43:46.000Z</time>
      </trkpt>
      <trkpt lat="47.83768" lon="7.15858">
        <ele>628.79998779297</ele>
        <time>2023-05-21T09:43:47.000Z</time>
      </trkpt>
      <trkpt lat="47.83766" lon="7.15852">
        <ele>629.40002441406</ele>
        <time>2023-05-21T09:43:48.000Z</time>
      </trkpt>
      <trkpt lat="47.83763" lon="7.15841">
        <ele>629.79998779297</ele>
        <time>2023-05-21T09:43:50.000Z</time>
      </trkpt>
      <trkpt lat="47.83761" lon="7.15836">
        <ele>630.20001220703</ele>
        <time>2023-05-21T09:43:51.000Z</time>
      </trkpt>
      <trkpt lat="47.8376" lon="7.1583">
        <ele>630.59997558594</ele>
        <time>2023-05-21T09:43:52.000Z</time>
      </trkpt>
      <trkpt lat="47.8376" lon="7.15826">
        <ele>631</ele>
        <time>2023-05-21T09:43:53.000Z</time>
      </trkpt>
      <trkpt lat="47.83758" lon="7.15821">
        <ele>631.40002441406</ele>
        <time>2023-05-21T09:43:54.000Z</time>
      </trkpt>
      <trkpt lat="47.83757" lon="7.15817">
        <ele>631.79998779297</ele>
        <time>2023-05-21T09:43:55.000Z</time>
      </trkpt>
      <trkpt lat="47.83756" lon="7.15813">
        <ele>632.40002441406</ele>
        <time>2023-05-21T09:43:56.000Z</time>
      </trkpt>
      <trkpt lat="47.83755" lon="7.15809">
        <ele>632.79998779297</ele>
        <time>2023-05-21T09:43:57.000Z</time>
      </trkpt>
      <trkpt lat="47.83754" lon="7.15806">
        <ele>633.20001220703</ele>
        <time>2023-05-21T09:43:58.000Z</time>
      </trkpt>
      <trkpt lat="47.83753" lon="7.15801">
        <ele>633.59997558594</ele>
        <time>2023-05-21T09:43:59.000Z</time>
      </trkpt>
      <trkpt lat="47.83752" lon="7.15796">
        <ele>634</ele>
        <time>2023-05-21T09:44:00.000Z</time>
      </trkpt>
      <trkpt lat="47.8375" lon="7.15792">
        <ele>634.59997558594</ele>
        <time>2023-05-21T09:44:01.000Z</time>
      </trkpt>
      <trkpt lat="47.83749" lon="7.15788">
        <ele>635</ele>
        <time>2023-05-21T09:44:02.000Z</time>
      </trkpt>
      <trkpt lat="47.83749" lon="7.15784">
        <ele>635.40002441406</ele>
        <time>2023-05-21T09:44:03.000Z</time>
      </trkpt>
      <trkpt lat="47.83748" lon="7.1578">
        <ele>635.79998779297</ele>
        <time>2023-05-21T09:44:04.000Z</time>
      </trkpt>
      <trkpt lat="47.83747" lon="7.15775">
        <ele>636.20001220703</ele>
        <time>2023-05-21T09:44:05.000Z</time>
      </trkpt>
      <trkpt lat="47.83747" lon="7.15771">
        <ele>637</ele>
        <time>2023-05-21T09:44:06.000Z</time>
      </trkpt>
      <trkpt lat="47.83746" lon="7.15766">
        <ele>637.40002441406</ele>
        <time>2023-05-21T09:44:07.000Z</time>
      </trkpt>
      <trkpt lat="47.83746" lon="7.15761">
        <ele>637.79998779297</ele>
        <time>2023-05-21T09:44:08.000Z</time>
      </trkpt>
      <trkpt lat="47.83744" lon="7.15753">
        <ele>638.40002441406</ele>
        <time>2023-05-21T09:44:10.000Z</time>
      </trkpt>
      <trkpt lat="47.83744" lon="7.15749">
        <ele>638.79998779297</ele>
        <time>2023-05-21T09:44:11.000Z</time>
      </trkpt>
      <trkpt lat="47.83743" lon="7.15745">
        <ele>639.20001220703</ele>
        <time>2023-05-21T09:44:12.000Z</time>
      </trkpt>
      <trkpt lat="47.83742" lon="7.15741">
        <ele>639.79998779297</ele>
        <time>2023-05-21T09:44:13.000Z</time>
      </trkpt>
      <trkpt lat="47.83741" lon="7.15737">
        <ele>640.20001220703</ele>
        <time>2023-05-21T09:44:14.000Z</time>
      </trkpt>
      <trkpt lat="47.83739" lon="7.15733">
        <ele>640.79998779297</ele>
        <time>2023-05-21T09:44:15.000Z</time>
      </trkpt>
      <trkpt lat="47.83737" lon="7.15728">
        <ele>641.20001220703</ele>
        <time>2023-05-21T09:44:16.000Z</time>
      </trkpt>
      <trkpt lat="47.83736" lon="7.15723">
        <ele>641.59997558594</ele>
        <time>2023-05-21T09:44:17.000Z</time>
      </trkpt>
      <trkpt lat="47.83735" lon="7.15719">
        <ele>642.20001220703</ele>
        <time>2023-05-21T09:44:18.000Z</time>
      </trkpt>
      <trkpt lat="47.83733" lon="7.15715">
        <ele>642.59997558594</ele>
        <time>2023-05-21T09:44:19.000Z</time>
      </trkpt>
      <trkpt lat="47.83732" lon="7.15711">
        <ele>643.20001220703</ele>
        <time>2023-05-21T09:44:20.000Z</time>
      </trkpt>
      <trkpt lat="47.83731" lon="7.15708">
        <ele>643.59997558594</ele>
        <time>2023-05-21T09:44:21.000Z</time>
      </trkpt>
      <trkpt lat="47.83731" lon="7.15704">
        <ele>644</ele>
        <time>2023-05-21T09:44:22.000Z</time>
      </trkpt>
      <trkpt lat="47.83732" lon="7.15702">
        <ele>644.59997558594</ele>
        <time>2023-05-21T09:44:23.000Z</time>
      </trkpt>
      <trkpt lat="47.83733" lon="7.15699">
        <ele>645</ele>
        <time>2023-05-21T09:44:24.000Z</time>
      </trkpt>
      <trkpt lat="47.83733" lon="7.15695">
        <ele>645</ele>
        <time>2023-05-21T09:44:25.000Z</time>
      </trkpt>
      <trkpt lat="47.8373" lon="7.15671">
        <ele>645.40002441406</ele>
        <time>2023-05-21T09:44:30.000Z</time>
      </trkpt>
      <trkpt lat="47.83729" lon="7.15667">
        <ele>646.20001220703</ele>
        <time>2023-05-21T09:44:31.000Z</time>
      </trkpt>
      <trkpt lat="47.83729" lon="7.15662">
        <ele>646.59997558594</ele>
        <time>2023-05-21T09:44:32.000Z</time>
      </trkpt>
      <trkpt lat="47.83729" lon="7.15659">
        <ele>647</ele>
        <time>2023-05-21T09:44:33.000Z</time>
      </trkpt>
      <trkpt lat="47.8373" lon="7.1565">
        <ele>647</ele>
        <time>2023-05-21T09:44:36.000Z</time>
      </trkpt>
      <trkpt lat="47.83729" lon="7.15647">
        <ele>647</ele>
        <time>2023-05-21T09:44:37.000Z</time>
      </trkpt>
      <trkpt lat="47.83729" lon="7.15639">
        <ele>647</ele>
        <time>2023-05-21T09:44:40.000Z</time>
      </trkpt>
      <trkpt lat="47.83729" lon="7.15638">
        <ele>647</ele>
        <time>2023-05-21T09:44:41.000Z</time>
      </trkpt>
      <trkpt lat="47.83729" lon="7.15636">
        <ele>647.40002441406</ele>
        <time>2023-05-21T09:44:42.000Z</time>
      </trkpt>
      <trkpt lat="47.83729" lon="7.15635">
        <ele>648</ele>
        <time>2023-05-21T09:44:43.000Z</time>
      </trkpt>
      <trkpt lat="47.83729" lon="7.15634">
        <ele>648.40002441406</ele>
        <time>2023-05-21T09:44:44.000Z</time>
      </trkpt>
      <trkpt lat="47.83728" lon="7.15632">
        <ele>648.79998779297</ele>
        <time>2023-05-21T09:44:45.000Z</time>
      </trkpt>
      <trkpt lat="47.83728" lon="7.1563">
        <ele>649.20001220703</ele>
        <time>2023-05-21T09:44:46.000Z</time>
      </trkpt>
      <trkpt lat="47.83728" lon="7.15629">
        <ele>649.20001220703</ele>
        <time>2023-05-21T09:44:48.000Z</time>
      </trkpt>
      <trkpt lat="47.83727" lon="7.15633">
        <ele>649.20001220703</ele>
        <time>2023-05-21T09:48:55.000Z</time>
      </trkpt>
      <trkpt lat="47.83727" lon="7.15634">
        <ele>649.20001220703</ele>
        <time>2023-05-21T09:48:56.000Z</time>
      </trkpt>
      <trkpt lat="47.83726" lon="7.15636">
        <ele>649.20001220703</ele>
        <time>2023-05-21T09:48:57.000Z</time>
      </trkpt>
      <trkpt lat="47.83724" lon="7.15643">
        <ele>649.20001220703</ele>
        <time>2023-05-21T09:48:59.000Z</time>
      </trkpt>
      <trkpt lat="47.83726" lon="7.15657">
        <ele>649.20001220703</ele>
        <time>2023-05-21T09:49:03.000Z</time>
      </trkpt>
      <trkpt lat="47.83728" lon="7.15659">
        <ele>648.79998779297</ele>
        <time>2023-05-21T09:49:04.000Z</time>
      </trkpt>
      <trkpt lat="47.83729" lon="7.15659">
        <ele>648.20001220703</ele>
        <time>2023-05-21T09:49:05.000Z</time>
      </trkpt>
      <trkpt lat="47.8373" lon="7.15659">
        <ele>647.79998779297</ele>
        <time>2023-05-21T09:49:06.000Z</time>
      </trkpt>
      <trkpt lat="47.8373" lon="7.15658">
        <ele>647.40002441406</ele>
        <time>2023-05-21T09:49:07.000Z</time>
      </trkpt>
      <trkpt lat="47.83731" lon="7.15657">
        <ele>647</ele>
        <time>2023-05-21T09:49:08.000Z</time>
      </trkpt>
      <trkpt lat="47.83731" lon="7.15655">
        <ele>647</ele>
        <time>2023-05-21T09:49:09.000Z</time>
      </trkpt>
      <trkpt lat="47.83731" lon="7.1565">
        <ele>647</ele>
        <time>2023-05-21T09:49:14.000Z</time>
      </trkpt>
      <trkpt lat="47.8373" lon="7.15636">
        <ele>647</ele>
        <time>2023-05-21T09:49:57.000Z</time>
      </trkpt>
      <trkpt lat="47.83726" lon="7.15614">
        <ele>647</ele>
        <time>2023-05-21T09:50:01.000Z</time>
      </trkpt>
      <trkpt lat="47.83723" lon="7.15592">
        <ele>647</ele>
        <time>2023-05-21T09:50:05.000Z</time>
      </trkpt>
      <trkpt lat="47.83722" lon="7.15579">
        <ele>647</ele>
        <time>2023-05-21T09:50:09.000Z</time>
      </trkpt>
      <trkpt lat="47.83716" lon="7.15566">
        <ele>647</ele>
        <time>2023-05-21T09:50:13.000Z</time>
      </trkpt>
      <trkpt lat="47.83711" lon="7.15551">
        <ele>647</ele>
        <time>2023-05-21T09:50:17.000Z</time>
      </trkpt>
      <trkpt lat="47.83711" lon="7.15546">
        <ele>647</ele>
        <time>2023-05-21T09:50:18.000Z</time>
      </trkpt>
      <trkpt lat="47.83714" lon="7.1553">
        <ele>647</ele>
        <time>2023-05-21T09:50:22.000Z</time>
      </trkpt>
      <trkpt lat="47.83711" lon="7.15517">
        <ele>647</ele>
        <time>2023-05-21T09:50:25.000Z</time>
      </trkpt>
      <trkpt lat="47.83708" lon="7.15515">
        <ele>647</ele>
        <time>2023-05-21T09:50:26.000Z</time>
      </trkpt>
      <trkpt lat="47.83691" lon="7.15503">
        <ele>647</ele>
        <time>2023-05-21T09:50:29.000Z</time>
      </trkpt>
      <trkpt lat="47.83678" lon="7.15491">
        <ele>647</ele>
        <time>2023-05-21T09:50:31.000Z</time>
      </trkpt>
      <trkpt lat="47.83671" lon="7.15484">
        <ele>646.40002441406</ele>
        <time>2023-05-21T09:50:32.000Z</time>
      </trkpt>
      <trkpt lat="47.83664" lon="7.15477">
        <ele>646</ele>
        <time>2023-05-21T09:50:33.000Z</time>
      </trkpt>
      <trkpt lat="47.83656" lon="7.15469">
        <ele>645.59997558594</ele>
        <time>2023-05-21T09:50:34.000Z</time>
      </trkpt>
      <trkpt lat="47.83647" lon="7.1546">
        <ele>644.79998779297</ele>
        <time>2023-05-21T09:50:35.000Z</time>
      </trkpt>
      <trkpt lat="47.83639" lon="7.1545">
        <ele>644.20001220703</ele>
        <time>2023-05-21T09:50:36.000Z</time>
      </trkpt>
      <trkpt lat="47.8363" lon="7.1544">
        <ele>643.59997558594</ele>
        <time>2023-05-21T09:50:37.000Z</time>
      </trkpt>
      <trkpt lat="47.83622" lon="7.15431">
        <ele>642.79998779297</ele>
        <time>2023-05-21T09:50:38.000Z</time>
      </trkpt>
      <trkpt lat="47.83615" lon="7.15422">
        <ele>642</ele>
        <time>2023-05-21T09:50:39.000Z</time>
      </trkpt>
      <trkpt lat="47.83607" lon="7.15412">
        <ele>641.20001220703</ele>
        <time>2023-05-21T09:50:40.000Z</time>
      </trkpt>
      <trkpt lat="47.83599" lon="7.15402">
        <ele>640.59997558594</ele>
        <time>2023-05-21T09:50:41.000Z</time>
      </trkpt>
      <trkpt lat="47.83592" lon="7.15392">
        <ele>639.20001220703</ele>
        <time>2023-05-21T09:50:42.000Z</time>
      </trkpt>
      <trkpt lat="47.83585" lon="7.15382">
        <ele>638.79998779297</ele>
        <time>2023-05-21T09:50:43.000Z</time>
      </trkpt>
      <trkpt lat="47.83579" lon="7.15375">
        <ele>638.20001220703</ele>
        <time>2023-05-21T09:50:44.000Z</time>
      </trkpt>
      <trkpt lat="47.83573" lon="7.15367">
        <ele>637.59997558594</ele>
        <time>2023-05-21T09:50:45.000Z</time>
      </trkpt>
      <trkpt lat="47.83567" lon="7.15361">
        <ele>636.79998779297</ele>
        <time>2023-05-21T09:50:46.000Z</time>
      </trkpt>
      <trkpt lat="47.83561" lon="7.15354">
        <ele>636.20001220703</ele>
        <time>2023-05-21T09:50:47.000Z</time>
      </trkpt>
      <trkpt lat="47.83555" lon="7.15347">
        <ele>635.40002441406</ele>
        <time>2023-05-21T09:50:48.000Z</time>
      </trkpt>
      <trkpt lat="47.83548" lon="7.15341">
        <ele>634.59997558594</ele>
        <time>2023-05-21T09:50:49.000Z</time>
      </trkpt>
      <trkpt lat="47.83541" lon="7.15336">
        <ele>633.59997558594</ele>
        <time>2023-05-21T09:50:50.000Z</time>
      </trkpt>
      <trkpt lat="47.83534" lon="7.15331">
        <ele>632.59997558594</ele>
        <time>2023-05-21T09:50:51.000Z</time>
      </trkpt>
      <trkpt lat="47.83528" lon="7.15328">
        <ele>631.40002441406</ele>
        <time>2023-05-21T09:50:52.000Z</time>
      </trkpt>
      <trkpt lat="47.83522" lon="7.15325">
        <ele>630.20001220703</ele>
        <time>2023-05-21T09:50:53.000Z</time>
      </trkpt>
      <trkpt lat="47.83518" lon="7.15324">
        <ele>629</ele>
        <time>2023-05-21T09:50:54.000Z</time>
      </trkpt>
      <trkpt lat="47.83516" lon="7.1532">
        <ele>627.79998779297</ele>
        <time>2023-05-21T09:50:55.000Z</time>
      </trkpt>
      <trkpt lat="47.83516" lon="7.15315">
        <ele>626.40002441406</ele>
        <time>2023-05-21T09:50:56.000Z</time>
      </trkpt>
      <trkpt lat="47.83517" lon="7.1531">
        <ele>625.20001220703</ele>
        <time>2023-05-21T09:50:57.000Z</time>
      </trkpt>
      <trkpt lat="47.83519" lon="7.15306">
        <ele>623.79998779297</ele>
        <time>2023-05-21T09:50:58.000Z</time>
      </trkpt>
      <trkpt lat="47.83522" lon="7.15301">
        <ele>623</ele>
        <time>2023-05-21T09:50:59.000Z</time>
      </trkpt>
      <trkpt lat="47.83524" lon="7.15295">
        <ele>622</ele>
        <time>2023-05-21T09:51:00.000Z</time>
      </trkpt>
      <trkpt lat="47.83527" lon="7.15289">
        <ele>621</ele>
        <time>2023-05-21T09:51:01.000Z</time>
      </trkpt>
      <trkpt lat="47.83529" lon="7.15281">
        <ele>620</ele>
        <time>2023-05-21T09:51:02.000Z</time>
      </trkpt>
      <trkpt lat="47.83532" lon="7.15272">
        <ele>619</ele>
        <time>2023-05-21T09:51:03.000Z</time>
      </trkpt>
      <trkpt lat="47.83533" lon="7.15262">
        <ele>618.59997558594</ele>
        <time>2023-05-21T09:51:04.000Z</time>
      </trkpt>
      <trkpt lat="47.83535" lon="7.15253">
        <ele>618.20001220703</ele>
        <time>2023-05-21T09:51:05.000Z</time>
      </trkpt>
      <trkpt lat="47.83535" lon="7.15243">
        <ele>617.40002441406</ele>
        <time>2023-05-21T09:51:06.000Z</time>
      </trkpt>
      <trkpt lat="47.83536" lon="7.15233">
        <ele>617</ele>
        <time>2023-05-21T09:51:07.000Z</time>
      </trkpt>
      <trkpt lat="47.83535" lon="7.15222">
        <ele>617</ele>
        <time>2023-05-21T09:51:08.000Z</time>
      </trkpt>
      <trkpt lat="47.83535" lon="7.15172">
        <ele>617</ele>
        <time>2023-05-21T09:51:13.000Z</time>
      </trkpt>
      <trkpt lat="47.8354" lon="7.15115">
        <ele>617</ele>
        <time>2023-05-21T09:51:19.000Z</time>
      </trkpt>
      <trkpt lat="47.83546" lon="7.15058">
        <ele>617</ele>
        <time>2023-05-21T09:51:25.000Z</time>
      </trkpt>
      <trkpt lat="47.83551" lon="7.15029">
        <ele>617</ele>
        <time>2023-05-21T09:51:28.000Z</time>
      </trkpt>
      <trkpt lat="47.83557" lon="7.15013">
        <ele>617</ele>
        <time>2023-05-21T09:51:30.000Z</time>
      </trkpt>
      <trkpt lat="47.83575" lon="7.14977">
        <ele>617</ele>
        <time>2023-05-21T09:51:35.000Z</time>
      </trkpt>
      <trkpt lat="47.83579" lon="7.14972">
        <ele>617</ele>
        <time>2023-05-21T09:51:36.000Z</time>
      </trkpt>
      <trkpt lat="47.83583" lon="7.14967">
        <ele>617</ele>
        <time>2023-05-21T09:51:37.000Z</time>
      </trkpt>
      <trkpt lat="47.83595" lon="7.14948">
        <ele>617</ele>
        <time>2023-05-21T09:51:40.000Z</time>
      </trkpt>
      <trkpt lat="47.836" lon="7.14942">
        <ele>617</ele>
        <time>2023-05-21T09:51:41.000Z</time>
      </trkpt>
      <trkpt lat="47.83627" lon="7.14907">
        <ele>617</ele>
        <time>2023-05-21T09:51:47.000Z</time>
      </trkpt>
      <trkpt lat="47.83646" lon="7.14882">
        <ele>617</ele>
        <time>2023-05-21T09:51:51.000Z</time>
      </trkpt>
      <trkpt lat="47.8365" lon="7.14877">
        <ele>617</ele>
        <time>2023-05-21T09:51:52.000Z</time>
      </trkpt>
      <trkpt lat="47.83674" lon="7.14853">
        <ele>617</ele>
        <time>2023-05-21T09:51:57.000Z</time>
      </trkpt>
      <trkpt lat="47.83686" lon="7.14839">
        <ele>617</ele>
        <time>2023-05-21T09:52:00.000Z</time>
      </trkpt>
      <trkpt lat="47.83688" lon="7.14827">
        <ele>617</ele>
        <time>2023-05-21T09:52:02.000Z</time>
      </trkpt>
      <trkpt lat="47.83678" lon="7.14816">
        <ele>617</ele>
        <time>2023-05-21T09:52:05.000Z</time>
      </trkpt>
      <trkpt lat="47.83669" lon="7.14813">
        <ele>617</ele>
        <time>2023-05-21T09:52:07.000Z</time>
      </trkpt>
      <trkpt lat="47.83661" lon="7.14811">
        <ele>617.40002441406</ele>
        <time>2023-05-21T09:52:09.000Z</time>
      </trkpt>
      <trkpt lat="47.83656" lon="7.1481">
        <ele>617.79998779297</ele>
        <time>2023-05-21T09:52:10.000Z</time>
      </trkpt>
      <trkpt lat="47.83652" lon="7.14809">
        <ele>618.40002441406</ele>
        <time>2023-05-21T09:52:11.000Z</time>
      </trkpt>
      <trkpt lat="47.83647" lon="7.14807">
        <ele>618.79998779297</ele>
        <time>2023-05-21T09:52:12.000Z</time>
      </trkpt>
      <trkpt lat="47.83642" lon="7.14806">
        <ele>619.20001220703</ele>
        <time>2023-05-21T09:52:13.000Z</time>
      </trkpt>
      <trkpt lat="47.83638" lon="7.14804">
        <ele>619.20001220703</ele>
        <time>2023-05-21T09:52:14.000Z</time>
      </trkpt>
      <trkpt lat="47.83634" lon="7.148">
        <ele>619.20001220703</ele>
        <time>2023-05-21T09:52:15.000Z</time>
      </trkpt>
      <trkpt lat="47.83622" lon="7.14786">
        <ele>619.20001220703</ele>
        <time>2023-05-21T09:52:18.000Z</time>
      </trkpt>
      <trkpt lat="47.83618" lon="7.1478">
        <ele>619.20001220703</ele>
        <time>2023-05-21T09:52:19.000Z</time>
      </trkpt>
      <trkpt lat="47.83609" lon="7.14752">
        <ele>619.20001220703</ele>
        <time>2023-05-21T09:52:23.000Z</time>
      </trkpt>
      <trkpt lat="47.83607" lon="7.14719">
        <ele>619.20001220703</ele>
        <time>2023-05-21T09:52:27.000Z</time>
      </trkpt>
      <trkpt lat="47.83607" lon="7.1471">
        <ele>619.20001220703</ele>
        <time>2023-05-21T09:52:28.000Z</time>
      </trkpt>
      <trkpt lat="47.83606" lon="7.14657">
        <ele>619.20001220703</ele>
        <time>2023-05-21T09:52:34.000Z</time>
      </trkpt>
      <trkpt lat="47.83606" lon="7.14621">
        <ele>619.20001220703</ele>
        <time>2023-05-21T09:52:38.000Z</time>
      </trkpt>
      <trkpt lat="47.83608" lon="7.14612">
        <ele>619.20001220703</ele>
        <time>2023-05-21T09:52:39.000Z</time>
      </trkpt>
      <trkpt lat="47.83618" lon="7.1459">
        <ele>619.20001220703</ele>
        <time>2023-05-21T09:52:42.000Z</time>
      </trkpt>
      <trkpt lat="47.83622" lon="7.14583">
        <ele>619.20001220703</ele>
        <time>2023-05-21T09:52:43.000Z</time>
      </trkpt>
      <trkpt lat="47.83638" lon="7.1455">
        <ele>618.79998779297</ele>
        <time>2023-05-21T09:52:47.000Z</time>
      </trkpt>
      <trkpt lat="47.83641" lon="7.14542">
        <ele>618.40002441406</ele>
        <time>2023-05-21T09:52:48.000Z</time>
      </trkpt>
      <trkpt lat="47.83643" lon="7.14533">
        <ele>617.79998779297</ele>
        <time>2023-05-21T09:52:49.000Z</time>
      </trkpt>
      <trkpt lat="47.83645" lon="7.14525">
        <ele>617.40002441406</ele>
        <time>2023-05-21T09:52:50.000Z</time>
      </trkpt>
      <trkpt lat="47.83647" lon="7.14517">
        <ele>617</ele>
        <time>2023-05-21T09:52:51.000Z</time>
      </trkpt>
      <trkpt lat="47.83644" lon="7.14502">
        <ele>617</ele>
        <time>2023-05-21T09:52:53.000Z</time>
      </trkpt>
      <trkpt lat="47.83635" lon="7.14493">
        <ele>616.59997558594</ele>
        <time>2023-05-21T09:52:56.000Z</time>
      </trkpt>
      <trkpt lat="47.83634" lon="7.14493">
        <ele>616.20001220703</ele>
        <time>2023-05-21T09:52:57.000Z</time>
      </trkpt>
      <trkpt lat="47.83633" lon="7.14494">
        <ele>615.79998779297</ele>
        <time>2023-05-21T09:52:58.000Z</time>
      </trkpt>
      <trkpt lat="47.83633" lon="7.14496">
        <ele>615.40002441406</ele>
        <time>2023-05-21T09:52:59.000Z</time>
      </trkpt>
      <trkpt lat="47.83631" lon="7.14498">
        <ele>615</ele>
        <time>2023-05-21T09:53:00.000Z</time>
      </trkpt>
      <trkpt lat="47.8362" lon="7.14508">
        <ele>615</ele>
        <time>2023-05-21T09:53:03.000Z</time>
      </trkpt>
      <trkpt lat="47.83608" lon="7.14515">
        <ele>615</ele>
        <time>2023-05-21T09:53:05.000Z</time>
      </trkpt>
      <trkpt lat="47.83591" lon="7.14527">
        <ele>615</ele>
        <time>2023-05-21T09:53:08.000Z</time>
      </trkpt>
      <trkpt lat="47.83571" lon="7.14547">
        <ele>615</ele>
        <time>2023-05-21T09:53:12.000Z</time>
      </trkpt>
      <trkpt lat="47.83565" lon="7.14554">
        <ele>615</ele>
        <time>2023-05-21T09:53:13.000Z</time>
      </trkpt>
      <trkpt lat="47.83556" lon="7.1457">
        <ele>615</ele>
        <time>2023-05-21T09:53:15.000Z</time>
      </trkpt>
      <trkpt lat="47.83548" lon="7.14587">
        <ele>615</ele>
        <time>2023-05-21T09:53:17.000Z</time>
      </trkpt>
      <trkpt lat="47.83544" lon="7.14596">
        <ele>615</ele>
        <time>2023-05-21T09:53:18.000Z</time>
      </trkpt>
      <trkpt lat="47.83539" lon="7.14605">
        <ele>615</ele>
        <time>2023-05-21T09:53:19.000Z</time>
      </trkpt>
      <trkpt lat="47.83529" lon="7.14619">
        <ele>615</ele>
        <time>2023-05-21T09:53:21.000Z</time>
      </trkpt>
      <trkpt lat="47.83524" lon="7.14624">
        <ele>615</ele>
        <time>2023-05-21T09:53:22.000Z</time>
      </trkpt>
      <trkpt lat="47.83503" lon="7.14634">
        <ele>615</ele>
        <time>2023-05-21T09:53:26.000Z</time>
      </trkpt>
      <trkpt lat="47.83498" lon="7.14636">
        <ele>615</ele>
        <time>2023-05-21T09:53:27.000Z</time>
      </trkpt>
      <trkpt lat="47.83486" lon="7.1465">
        <ele>615</ele>
        <time>2023-05-21T09:53:30.000Z</time>
      </trkpt>
      <trkpt lat="47.83482" lon="7.14673">
        <ele>615</ele>
        <time>2023-05-21T09:53:32.000Z</time>
      </trkpt>
      <trkpt lat="47.83478" lon="7.14687">
        <ele>614.59997558594</ele>
        <time>2023-05-21T09:53:33.000Z</time>
      </trkpt>
      <trkpt lat="47.83475" lon="7.14698">
        <ele>613.59997558594</ele>
        <time>2023-05-21T09:53:34.000Z</time>
      </trkpt>
      <trkpt lat="47.83471" lon="7.14708">
        <ele>613</ele>
        <time>2023-05-21T09:53:35.000Z</time>
      </trkpt>
      <trkpt lat="47.83468" lon="7.14719">
        <ele>612.40002441406</ele>
        <time>2023-05-21T09:53:36.000Z</time>
      </trkpt>
      <trkpt lat="47.83464" lon="7.1473">
        <ele>611.79998779297</ele>
        <time>2023-05-21T09:53:37.000Z</time>
      </trkpt>
      <trkpt lat="47.83461" lon="7.14741">
        <ele>611.20001220703</ele>
        <time>2023-05-21T09:53:38.000Z</time>
      </trkpt>
      <trkpt lat="47.83457" lon="7.14753">
        <ele>610.59997558594</ele>
        <time>2023-05-21T09:53:39.000Z</time>
      </trkpt>
      <trkpt lat="47.83453" lon="7.14765">
        <ele>610</ele>
        <time>2023-05-21T09:53:40.000Z</time>
      </trkpt>
      <trkpt lat="47.83448" lon="7.14777">
        <ele>609.40002441406</ele>
        <time>2023-05-21T09:53:41.000Z</time>
      </trkpt>
      <trkpt lat="47.83443" lon="7.14788">
        <ele>609</ele>
        <time>2023-05-21T09:53:42.000Z</time>
      </trkpt>
      <trkpt lat="47.83437" lon="7.14797">
        <ele>608.40002441406</ele>
        <time>2023-05-21T09:53:43.000Z</time>
      </trkpt>
      <trkpt lat="47.83431" lon="7.14808">
        <ele>607.79998779297</ele>
        <time>2023-05-21T09:53:44.000Z</time>
      </trkpt>
      <trkpt lat="47.83426" lon="7.14817">
        <ele>607.20001220703</ele>
        <time>2023-05-21T09:53:45.000Z</time>
      </trkpt>
      <trkpt lat="47.8342" lon="7.14828">
        <ele>606.59997558594</ele>
        <time>2023-05-21T09:53:46.000Z</time>
      </trkpt>
      <trkpt lat="47.83413" lon="7.14838">
        <ele>606.20001220703</ele>
        <time>2023-05-21T09:53:47.000Z</time>
      </trkpt>
      <trkpt lat="47.83407" lon="7.14849">
        <ele>605.59997558594</ele>
        <time>2023-05-21T09:53:48.000Z</time>
      </trkpt>
      <trkpt lat="47.834" lon="7.1486">
        <ele>605.20001220703</ele>
        <time>2023-05-21T09:53:49.000Z</time>
      </trkpt>
      <trkpt lat="47.83392" lon="7.14871">
        <ele>604.79998779297</ele>
        <time>2023-05-21T09:53:50.000Z</time>
      </trkpt>
      <trkpt lat="47.83385" lon="7.14882">
        <ele>604.20001220703</ele>
        <time>2023-05-21T09:53:51.000Z</time>
      </trkpt>
      <trkpt lat="47.83377" lon="7.14892">
        <ele>603.40002441406</ele>
        <time>2023-05-21T09:53:52.000Z</time>
      </trkpt>
      <trkpt lat="47.83368" lon="7.14901">
        <ele>602.79998779297</ele>
        <time>2023-05-21T09:53:53.000Z</time>
      </trkpt>
      <trkpt lat="47.83359" lon="7.14911">
        <ele>602</ele>
        <time>2023-05-21T09:53:54.000Z</time>
      </trkpt>
      <trkpt lat="47.83351" lon="7.1492">
        <ele>601.20001220703</ele>
        <time>2023-05-21T09:53:55.000Z</time>
      </trkpt>
      <trkpt lat="47.83343" lon="7.14926">
        <ele>600.40002441406</ele>
        <time>2023-05-21T09:53:56.000Z</time>
      </trkpt>
      <trkpt lat="47.83336" lon="7.1493">
        <ele>599.40002441406</ele>
        <time>2023-05-21T09:53:57.000Z</time>
      </trkpt>
      <trkpt lat="47.83328" lon="7.14932">
        <ele>598.40002441406</ele>
        <time>2023-05-21T09:53:58.000Z</time>
      </trkpt>
      <trkpt lat="47.8332" lon="7.14929">
        <ele>596.59997558594</ele>
        <time>2023-05-21T09:53:59.000Z</time>
      </trkpt>
      <trkpt lat="47.83312" lon="7.14923">
        <ele>596.59997558594</ele>
        <time>2023-05-21T09:54:00.000Z</time>
      </trkpt>
      <trkpt lat="47.83297" lon="7.14912">
        <ele>596.20001220703</ele>
        <time>2023-05-21T09:54:02.000Z</time>
      </trkpt>
      <trkpt lat="47.8329" lon="7.14906">
        <ele>595.79998779297</ele>
        <time>2023-05-21T09:54:03.000Z</time>
      </trkpt>
      <trkpt lat="47.83283" lon="7.14902">
        <ele>595.40002441406</ele>
        <time>2023-05-21T09:54:04.000Z</time>
      </trkpt>
      <trkpt lat="47.83275" lon="7.14898">
        <ele>595</ele>
        <time>2023-05-21T09:54:05.000Z</time>
      </trkpt>
      <trkpt lat="47.83268" lon="7.14895">
        <ele>594.40002441406</ele>
        <time>2023-05-21T09:54:06.000Z</time>
      </trkpt>
      <trkpt lat="47.8326" lon="7.14894">
        <ele>594</ele>
        <time>2023-05-21T09:54:07.000Z</time>
      </trkpt>
      <trkpt lat="47.83251" lon="7.14895">
        <ele>593.59997558594</ele>
        <time>2023-05-21T09:54:08.000Z</time>
      </trkpt>
      <trkpt lat="47.83243" lon="7.14897">
        <ele>593.20001220703</ele>
        <time>2023-05-21T09:54:09.000Z</time>
      </trkpt>
      <trkpt lat="47.83236" lon="7.14899">
        <ele>592.79998779297</ele>
        <time>2023-05-21T09:54:10.000Z</time>
      </trkpt>
      <trkpt lat="47.8323" lon="7.14904">
        <ele>592.20001220703</ele>
        <time>2023-05-21T09:54:11.000Z</time>
      </trkpt>
      <trkpt lat="47.83224" lon="7.14908">
        <ele>592.20001220703</ele>
        <time>2023-05-21T09:54:12.000Z</time>
      </trkpt>
      <trkpt lat="47.83218" lon="7.1491">
        <ele>592.20001220703</ele>
        <time>2023-05-21T09:54:13.000Z</time>
      </trkpt>
      <trkpt lat="47.83199" lon="7.14909">
        <ele>592.20001220703</ele>
        <time>2023-05-21T09:54:16.000Z</time>
      </trkpt>
      <trkpt lat="47.83186" lon="7.14904">
        <ele>592.20001220703</ele>
        <time>2023-05-21T09:54:18.000Z</time>
      </trkpt>
      <trkpt lat="47.8318" lon="7.149">
        <ele>592.20001220703</ele>
        <time>2023-05-21T09:54:19.000Z</time>
      </trkpt>
      <trkpt lat="47.83167" lon="7.14892">
        <ele>592.20001220703</ele>
        <time>2023-05-21T09:54:21.000Z</time>
      </trkpt>
      <trkpt lat="47.83153" lon="7.14882">
        <ele>591.79998779297</ele>
        <time>2023-05-21T09:54:23.000Z</time>
      </trkpt>
      <trkpt lat="47.83147" lon="7.14878">
        <ele>591.40002441406</ele>
        <time>2023-05-21T09:54:24.000Z</time>
      </trkpt>
      <trkpt lat="47.8314" lon="7.14872">
        <ele>591</ele>
        <time>2023-05-21T09:54:25.000Z</time>
      </trkpt>
      <trkpt lat="47.83133" lon="7.14867">
        <ele>590.59997558594</ele>
        <time>2023-05-21T09:54:26.000Z</time>
      </trkpt>
      <trkpt lat="47.83127" lon="7.1486">
        <ele>590.20001220703</ele>
        <time>2023-05-21T09:54:27.000Z</time>
      </trkpt>
      <trkpt lat="47.83117" lon="7.1484">
        <ele>590.20001220703</ele>
        <time>2023-05-21T09:54:29.000Z</time>
      </trkpt>
      <trkpt lat="47.83112" lon="7.1482">
        <ele>589.79998779297</ele>
        <time>2023-05-21T09:54:31.000Z</time>
      </trkpt>
      <trkpt lat="47.8311" lon="7.14808">
        <ele>589.40002441406</ele>
        <time>2023-05-21T09:54:32.000Z</time>
      </trkpt>
      <trkpt lat="47.83108" lon="7.14796">
        <ele>589</ele>
        <time>2023-05-21T09:54:33.000Z</time>
      </trkpt>
      <trkpt lat="47.83106" lon="7.14784">
        <ele>588.40002441406</ele>
        <time>2023-05-21T09:54:34.000Z</time>
      </trkpt>
      <trkpt lat="47.83105" lon="7.14772">
        <ele>588</ele>
        <time>2023-05-21T09:54:35.000Z</time>
      </trkpt>
      <trkpt lat="47.83102" lon="7.14747">
        <ele>587.59997558594</ele>
        <time>2023-05-21T09:54:37.000Z</time>
      </trkpt>
      <trkpt lat="47.831" lon="7.14735">
        <ele>587</ele>
        <time>2023-05-21T09:54:38.000Z</time>
      </trkpt>
      <trkpt lat="47.83097" lon="7.14724">
        <ele>586.59997558594</ele>
        <time>2023-05-21T09:54:39.000Z</time>
      </trkpt>
      <trkpt lat="47.83095" lon="7.14713">
        <ele>586.20001220703</ele>
        <time>2023-05-21T09:54:40.000Z</time>
      </trkpt>
      <trkpt lat="47.83092" lon="7.147">
        <ele>585.59997558594</ele>
        <time>2023-05-21T09:54:41.000Z</time>
      </trkpt>
      <trkpt lat="47.83089" lon="7.14688">
        <ele>585.20001220703</ele>
        <time>2023-05-21T09:54:42.000Z</time>
      </trkpt>
      <trkpt lat="47.83085" lon="7.14678">
        <ele>584.59997558594</ele>
        <time>2023-05-21T09:54:43.000Z</time>
      </trkpt>
      <trkpt lat="47.83082" lon="7.14669">
        <ele>584.20001220703</ele>
        <time>2023-05-21T09:54:44.000Z</time>
      </trkpt>
      <trkpt lat="47.83078" lon="7.14662">
        <ele>583.79998779297</ele>
        <time>2023-05-21T09:54:45.000Z</time>
      </trkpt>
      <trkpt lat="47.83074" lon="7.14658">
        <ele>583.20001220703</ele>
        <time>2023-05-21T09:54:46.000Z</time>
      </trkpt>
      <trkpt lat="47.8307" lon="7.14659">
        <ele>583.20001220703</ele>
        <time>2023-05-21T09:54:47.000Z</time>
      </trkpt>
      <trkpt lat="47.83066" lon="7.14664">
        <ele>582.40002441406</ele>
        <time>2023-05-21T09:54:48.000Z</time>
      </trkpt>
      <trkpt lat="47.83063" lon="7.14669">
        <ele>582</ele>
        <time>2023-05-21T09:54:49.000Z</time>
      </trkpt>
      <trkpt lat="47.8306" lon="7.14673">
        <ele>581.59997558594</ele>
        <time>2023-05-21T09:54:50.000Z</time>
      </trkpt>
      <trkpt lat="47.83058" lon="7.14677">
        <ele>581.20001220703</ele>
        <time>2023-05-21T09:54:51.000Z</time>
      </trkpt>
      <trkpt lat="47.83057" lon="7.14701">
        <ele>581.20001220703</ele>
        <time>2023-05-21T09:54:54.000Z</time>
      </trkpt>
      <trkpt lat="47.83048" lon="7.14721">
        <ele>581.20001220703</ele>
        <time>2023-05-21T09:54:56.000Z</time>
      </trkpt>
      <trkpt lat="47.83033" lon="7.14742">
        <ele>581.20001220703</ele>
        <time>2023-05-21T09:54:58.000Z</time>
      </trkpt>
      <trkpt lat="47.83012" lon="7.14755">
        <ele>581.20001220703</ele>
        <time>2023-05-21T09:55:02.000Z</time>
      </trkpt>
      <trkpt lat="47.82997" lon="7.14758">
        <ele>581.59997558594</ele>
        <time>2023-05-21T09:55:05.000Z</time>
      </trkpt>
      <trkpt lat="47.82992" lon="7.1476">
        <ele>582</ele>
        <time>2023-05-21T09:55:06.000Z</time>
      </trkpt>
      <trkpt lat="47.82987" lon="7.14764">
        <ele>582.40002441406</ele>
        <time>2023-05-21T09:55:07.000Z</time>
      </trkpt>
      <trkpt lat="47.82983" lon="7.14767">
        <ele>582.79998779297</ele>
        <time>2023-05-21T09:55:08.000Z</time>
      </trkpt>
      <trkpt lat="47.82978" lon="7.14772">
        <ele>583.20001220703</ele>
        <time>2023-05-21T09:55:09.000Z</time>
      </trkpt>
      <trkpt lat="47.82965" lon="7.14787">
        <ele>583.20001220703</ele>
        <time>2023-05-21T09:55:12.000Z</time>
      </trkpt>
      <trkpt lat="47.8296" lon="7.14791">
        <ele>583.59997558594</ele>
        <time>2023-05-21T09:55:13.000Z</time>
      </trkpt>
      <trkpt lat="47.82955" lon="7.14795">
        <ele>584.20001220703</ele>
        <time>2023-05-21T09:55:14.000Z</time>
      </trkpt>
      <trkpt lat="47.82949" lon="7.14799">
        <ele>584.59997558594</ele>
        <time>2023-05-21T09:55:15.000Z</time>
      </trkpt>
      <trkpt lat="47.82945" lon="7.14802">
        <ele>585</ele>
        <time>2023-05-21T09:55:16.000Z</time>
      </trkpt>
      <trkpt lat="47.82939" lon="7.14803">
        <ele>585.40002441406</ele>
        <time>2023-05-21T09:55:17.000Z</time>
      </trkpt>
      <trkpt lat="47.82918" lon="7.14797">
        <ele>585.79998779297</ele>
        <time>2023-05-21T09:55:21.000Z</time>
      </trkpt>
      <trkpt lat="47.82913" lon="7.14794">
        <ele>586.20001220703</ele>
        <time>2023-05-21T09:55:22.000Z</time>
      </trkpt>
      <trkpt lat="47.82909" lon="7.14791">
        <ele>586.79998779297</ele>
        <time>2023-05-21T09:55:23.000Z</time>
      </trkpt>
      <trkpt lat="47.82905" lon="7.14787">
        <ele>587.20001220703</ele>
        <time>2023-05-21T09:55:24.000Z</time>
      </trkpt>
      <trkpt lat="47.82901" lon="7.14783">
        <ele>587.59997558594</ele>
        <time>2023-05-21T09:55:25.000Z</time>
      </trkpt>
      <trkpt lat="47.82895" lon="7.14777">
        <ele>587.59997558594</ele>
        <time>2023-05-21T09:55:27.000Z</time>
      </trkpt>
      <trkpt lat="47.8289" lon="7.14772">
        <ele>588</ele>
        <time>2023-05-21T09:55:29.000Z</time>
      </trkpt>
      <trkpt lat="47.82889" lon="7.1477">
        <ele>588.59997558594</ele>
        <time>2023-05-21T09:55:30.000Z</time>
      </trkpt>
      <trkpt lat="47.82887" lon="7.14767">
        <ele>589.20001220703</ele>
        <time>2023-05-21T09:55:31.000Z</time>
      </trkpt>
      <trkpt lat="47.82885" lon="7.14764">
        <ele>589.59997558594</ele>
        <time>2023-05-21T09:55:32.000Z</time>
      </trkpt>
      <trkpt lat="47.82883" lon="7.14759">
        <ele>590.20001220703</ele>
        <time>2023-05-21T09:55:33.000Z</time>
      </trkpt>
      <trkpt lat="47.82866" lon="7.14733">
        <ele>590.59997558594</ele>
        <time>2023-05-21T09:55:39.000Z</time>
      </trkpt>
      <trkpt lat="47.82863" lon="7.14729">
        <ele>591</ele>
        <time>2023-05-21T09:55:40.000Z</time>
      </trkpt>
      <trkpt lat="47.82861" lon="7.14724">
        <ele>591.40002441406</ele>
        <time>2023-05-21T09:55:41.000Z</time>
      </trkpt>
      <trkpt lat="47.82859" lon="7.1472">
        <ele>591.79998779297</ele>
        <time>2023-05-21T09:55:42.000Z</time>
      </trkpt>
      <trkpt lat="47.82855" lon="7.14715">
        <ele>592.20001220703</ele>
        <time>2023-05-21T09:55:43.000Z</time>
      </trkpt>
      <trkpt lat="47.82849" lon="7.14706">
        <ele>592.59997558594</ele>
        <time>2023-05-21T09:55:45.000Z</time>
      </trkpt>
      <trkpt lat="47.82847" lon="7.14701">
        <ele>593</ele>
        <time>2023-05-21T09:55:46.000Z</time>
      </trkpt>
      <trkpt lat="47.82845" lon="7.14696">
        <ele>593.40002441406</ele>
        <time>2023-05-21T09:55:47.000Z</time>
      </trkpt>
      <trkpt lat="47.82842" lon="7.14692">
        <ele>594</ele>
        <time>2023-05-21T09:55:48.000Z</time>
      </trkpt>
      <trkpt lat="47.82839" lon="7.14688">
        <ele>594.40002441406</ele>
        <time>2023-05-21T09:55:49.000Z</time>
      </trkpt>
      <trkpt lat="47.82835" lon="7.14684">
        <ele>594.40002441406</ele>
        <time>2023-05-21T09:55:50.000Z</time>
      </trkpt>
      <trkpt lat="47.82831" lon="7.14679">
        <ele>594.40002441406</ele>
        <time>2023-05-21T09:55:51.000Z</time>
      </trkpt>
      <trkpt lat="47.82808" lon="7.14654">
        <ele>594.40002441406</ele>
        <time>2023-05-21T09:55:55.000Z</time>
      </trkpt>
      <trkpt lat="47.82798" lon="7.14644">
        <ele>593.79998779297</ele>
        <time>2023-05-21T09:55:57.000Z</time>
      </trkpt>
      <trkpt lat="47.82795" lon="7.14639">
        <ele>593.40002441406</ele>
        <time>2023-05-21T09:55:58.000Z</time>
      </trkpt>
      <trkpt lat="47.82792" lon="7.14635">
        <ele>593</ele>
        <time>2023-05-21T09:55:59.000Z</time>
      </trkpt>
      <trkpt lat="47.82789" lon="7.14631">
        <ele>592.40002441406</ele>
        <time>2023-05-21T09:56:00.000Z</time>
      </trkpt>
      <trkpt lat="47.82788" lon="7.14628">
        <ele>591.59997558594</ele>
        <time>2023-05-21T09:56:01.000Z</time>
      </trkpt>
      <trkpt lat="47.82786" lon="7.14625">
        <ele>591.20001220703</ele>
        <time>2023-05-21T09:56:02.000Z</time>
      </trkpt>
      <trkpt lat="47.82785" lon="7.14623">
        <ele>590.79998779297</ele>
        <time>2023-05-21T09:56:03.000Z</time>
      </trkpt>
      <trkpt lat="47.82784" lon="7.14622">
        <ele>590.40002441406</ele>
        <time>2023-05-21T09:56:04.000Z</time>
      </trkpt>
      <trkpt lat="47.82783" lon="7.14623">
        <ele>590</ele>
        <time>2023-05-21T09:56:05.000Z</time>
      </trkpt>
      <trkpt lat="47.82784" lon="7.14625">
        <ele>590</ele>
        <time>2023-05-21T09:56:06.000Z</time>
      </trkpt>
      <trkpt lat="47.82785" lon="7.14628">
        <ele>590</ele>
        <time>2023-05-21T09:56:08.000Z</time>
      </trkpt>
      <trkpt lat="47.8279" lon="7.14633">
        <ele>590</ele>
        <time>2023-05-21T09:56:11.000Z</time>
      </trkpt>
      <trkpt lat="47.82791" lon="7.14635">
        <ele>590</ele>
        <time>2023-05-21T09:56:12.000Z</time>
      </trkpt>
      <trkpt lat="47.82797" lon="7.14646">
        <ele>590</ele>
        <time>2023-05-21T09:56:16.000Z</time>
      </trkpt>
      <trkpt lat="47.82792" lon="7.1465">
        <ele>590</ele>
        <time>2023-05-21T09:56:19.000Z</time>
      </trkpt>
      <trkpt lat="47.8279" lon="7.1465">
        <ele>590</ele>
        <time>2023-05-21T09:56:20.000Z</time>
      </trkpt>
      <trkpt lat="47.82789" lon="7.1465">
        <ele>590</ele>
        <time>2023-05-21T09:56:23.000Z</time>
      </trkpt>
      <trkpt lat="47.82787" lon="7.14649">
        <ele>587.20001220703</ele>
        <time>2023-05-21T09:56:44.000Z</time>
      </trkpt>
      <trkpt lat="47.82779" lon="7.14644">
        <ele>587.20001220703</ele>
        <time>2023-05-21T09:56:47.000Z</time>
      </trkpt>
      <trkpt lat="47.82765" lon="7.14648">
        <ele>586.79998779297</ele>
        <time>2023-05-21T09:56:51.000Z</time>
      </trkpt>
      <trkpt lat="47.82762" lon="7.14649">
        <ele>586.20001220703</ele>
        <time>2023-05-21T09:56:52.000Z</time>
      </trkpt>
      <trkpt lat="47.82761" lon="7.1465">
        <ele>585.59997558594</ele>
        <time>2023-05-21T09:56:53.000Z</time>
      </trkpt>
      <trkpt lat="47.82759" lon="7.1465">
        <ele>585.20001220703</ele>
        <time>2023-05-21T09:56:54.000Z</time>
      </trkpt>
      <trkpt lat="47.82756" lon="7.14651">
        <ele>584.59997558594</ele>
        <time>2023-05-21T09:56:55.000Z</time>
      </trkpt>
      <trkpt lat="47.82753" lon="7.14652">
        <ele>584.20001220703</ele>
        <time>2023-05-21T09:56:56.000Z</time>
      </trkpt>
      <trkpt lat="47.82749" lon="7.14653">
        <ele>583.59997558594</ele>
        <time>2023-05-21T09:56:57.000Z</time>
      </trkpt>
      <trkpt lat="47.82744" lon="7.14655">
        <ele>583</ele>
        <time>2023-05-21T09:56:58.000Z</time>
      </trkpt>
      <trkpt lat="47.82739" lon="7.14656">
        <ele>582.59997558594</ele>
        <time>2023-05-21T09:56:59.000Z</time>
      </trkpt>
      <trkpt lat="47.82734" lon="7.14658">
        <ele>582</ele>
        <time>2023-05-21T09:57:00.000Z</time>
      </trkpt>
      <trkpt lat="47.82729" lon="7.14658">
        <ele>581.59997558594</ele>
        <time>2023-05-21T09:57:01.000Z</time>
      </trkpt>
      <trkpt lat="47.82725" lon="7.14657">
        <ele>581</ele>
        <time>2023-05-21T09:57:02.000Z</time>
      </trkpt>
      <trkpt lat="47.82723" lon="7.14652">
        <ele>580.59997558594</ele>
        <time>2023-05-21T09:57:03.000Z</time>
      </trkpt>
      <trkpt lat="47.8272" lon="7.14647">
        <ele>580.20001220703</ele>
        <time>2023-05-21T09:57:04.000Z</time>
      </trkpt>
      <trkpt lat="47.82717" lon="7.14637">
        <ele>580.20001220703</ele>
        <time>2023-05-21T09:57:06.000Z</time>
      </trkpt>
      <trkpt lat="47.82715" lon="7.14633">
        <ele>580.20001220703</ele>
        <time>2023-05-21T09:57:07.000Z</time>
      </trkpt>
      <trkpt lat="47.82711" lon="7.14626">
        <ele>580.20001220703</ele>
        <time>2023-05-21T09:57:11.000Z</time>
      </trkpt>
      <trkpt lat="47.82711" lon="7.14626">
        <ele>580.20001220703</ele>
        <time>2023-05-21T09:57:13.000Z</time>
      </trkpt>
      <trkpt lat="47.8271" lon="7.14629">
        <ele>580.20001220703</ele>
        <time>2023-05-21T09:57:17.000Z</time>
      </trkpt>
      <trkpt lat="47.8271" lon="7.14629">
        <ele>580.20001220703</ele>
        <time>2023-05-21T09:57:19.000Z</time>
      </trkpt>
      <trkpt lat="47.82712" lon="7.14641">
        <ele>580.20001220703</ele>
        <time>2023-05-21T09:57:23.000Z</time>
      </trkpt>
      <trkpt lat="47.82718" lon="7.14656">
        <ele>580.20001220703</ele>
        <time>2023-05-21T09:57:27.000Z</time>
      </trkpt>
      <trkpt lat="47.82724" lon="7.14659">
        <ele>580.20001220703</ele>
        <time>2023-05-21T09:57:29.000Z</time>
      </trkpt>
      <trkpt lat="47.8273" lon="7.14659">
        <ele>580.20001220703</ele>
        <time>2023-05-21T09:57:31.000Z</time>
      </trkpt>
      <trkpt lat="47.82738" lon="7.14658">
        <ele>580.20001220703</ele>
        <time>2023-05-21T09:57:33.000Z</time>
      </trkpt>
      <trkpt lat="47.8275" lon="7.14656">
        <ele>580.20001220703</ele>
        <time>2023-05-21T09:57:36.000Z</time>
      </trkpt>
      <trkpt lat="47.82764" lon="7.14648">
        <ele>580.59997558594</ele>
        <time>2023-05-21T09:57:41.000Z</time>
      </trkpt>
      <trkpt lat="47.82766" lon="7.14647">
        <ele>581</ele>
        <time>2023-05-21T09:57:42.000Z</time>
      </trkpt>
      <trkpt lat="47.82769" lon="7.14647">
        <ele>581.40002441406</ele>
        <time>2023-05-21T09:57:43.000Z</time>
      </trkpt>
      <trkpt lat="47.8277" lon="7.14647">
        <ele>582</ele>
        <time>2023-05-21T09:57:44.000Z</time>
      </trkpt>
      <trkpt lat="47.82773" lon="7.14647">
        <ele>582.40002441406</ele>
        <time>2023-05-21T09:57:45.000Z</time>
      </trkpt>
      <trkpt lat="47.82775" lon="7.14648">
        <ele>583</ele>
        <time>2023-05-21T09:57:46.000Z</time>
      </trkpt>
      <trkpt lat="47.82778" lon="7.1465">
        <ele>583.40002441406</ele>
        <time>2023-05-21T09:57:47.000Z</time>
      </trkpt>
      <trkpt lat="47.8278" lon="7.14652">
        <ele>584</ele>
        <time>2023-05-21T09:57:48.000Z</time>
      </trkpt>
      <trkpt lat="47.82783" lon="7.14653">
        <ele>584.59997558594</ele>
        <time>2023-05-21T09:57:49.000Z</time>
      </trkpt>
      <trkpt lat="47.82787" lon="7.14653">
        <ele>585</ele>
        <time>2023-05-21T09:57:51.000Z</time>
      </trkpt>
      <trkpt lat="47.82789" lon="7.14653">
        <ele>585.40002441406</ele>
        <time>2023-05-21T09:57:52.000Z</time>
      </trkpt>
      <trkpt lat="47.82791" lon="7.14651">
        <ele>585.79998779297</ele>
        <time>2023-05-21T09:57:53.000Z</time>
      </trkpt>
      <trkpt lat="47.8279" lon="7.1465">
        <ele>586.40002441406</ele>
        <time>2023-05-21T09:57:54.000Z</time>
      </trkpt>
      <trkpt lat="47.8279" lon="7.14648">
        <ele>586.79998779297</ele>
        <time>2023-05-21T09:57:55.000Z</time>
      </trkpt>
      <trkpt lat="47.82789" lon="7.14645">
        <ele>586.79998779297</ele>
        <time>2023-05-21T09:57:56.000Z</time>
      </trkpt>
      <trkpt lat="47.82787" lon="7.14642">
        <ele>586.79998779297</ele>
        <time>2023-05-21T09:57:57.000Z</time>
      </trkpt>
      <trkpt lat="47.8278" lon="7.14625">
        <ele>586.79998779297</ele>
        <time>2023-05-21T09:58:01.000Z</time>
      </trkpt>
      <trkpt lat="47.82772" lon="7.14609">
        <ele>586.79998779297</ele>
        <time>2023-05-21T09:58:04.000Z</time>
      </trkpt>
      <trkpt lat="47.82768" lon="7.14594">
        <ele>586.79998779297</ele>
        <time>2023-05-21T09:58:06.000Z</time>
      </trkpt>
      <trkpt lat="47.82761" lon="7.14551">
        <ele>586.79998779297</ele>
        <time>2023-05-21T09:58:10.000Z</time>
      </trkpt>
      <trkpt lat="47.82761" lon="7.14537">
        <ele>586.40002441406</ele>
        <time>2023-05-21T09:58:11.000Z</time>
      </trkpt>
      <trkpt lat="47.82763" lon="7.14525">
        <ele>585.79998779297</ele>
        <time>2023-05-21T09:58:12.000Z</time>
      </trkpt>
      <trkpt lat="47.82766" lon="7.14511">
        <ele>585.40002441406</ele>
        <time>2023-05-21T09:58:13.000Z</time>
      </trkpt>
      <trkpt lat="47.82769" lon="7.14499">
        <ele>584.79998779297</ele>
        <time>2023-05-21T09:58:14.000Z</time>
      </trkpt>
      <trkpt lat="47.82773" lon="7.14487">
        <ele>584.20001220703</ele>
        <time>2023-05-21T09:58:15.000Z</time>
      </trkpt>
      <trkpt lat="47.82776" lon="7.14477">
        <ele>583.59997558594</ele>
        <time>2023-05-21T09:58:16.000Z</time>
      </trkpt>
      <trkpt lat="47.82779" lon="7.14467">
        <ele>582.79998779297</ele>
        <time>2023-05-21T09:58:17.000Z</time>
      </trkpt>
      <trkpt lat="47.82783" lon="7.14458">
        <ele>582.20001220703</ele>
        <time>2023-05-21T09:58:18.000Z</time>
      </trkpt>
      <trkpt lat="47.82794" lon="7.14428">
        <ele>582.20001220703</ele>
        <time>2023-05-21T09:58:22.000Z</time>
      </trkpt>
      <trkpt lat="47.828" lon="7.14414">
        <ele>582.20001220703</ele>
        <time>2023-05-21T09:58:24.000Z</time>
      </trkpt>
      <trkpt lat="47.82808" lon="7.14394">
        <ele>582.20001220703</ele>
        <time>2023-05-21T09:58:27.000Z</time>
      </trkpt>
      <trkpt lat="47.82815" lon="7.14375">
        <ele>582.20001220703</ele>
        <time>2023-05-21T09:58:30.000Z</time>
      </trkpt>
      <trkpt lat="47.8282" lon="7.14362">
        <ele>582.20001220703</ele>
        <time>2023-05-21T09:58:32.000Z</time>
      </trkpt>
      <trkpt lat="47.82829" lon="7.14339">
        <ele>582.59997558594</ele>
        <time>2023-05-21T09:58:36.000Z</time>
      </trkpt>
      <trkpt lat="47.82831" lon="7.14333">
        <ele>583</ele>
        <time>2023-05-21T09:58:37.000Z</time>
      </trkpt>
      <trkpt lat="47.82833" lon="7.14326">
        <ele>583.40002441406</ele>
        <time>2023-05-21T09:58:38.000Z</time>
      </trkpt>
      <trkpt lat="47.82835" lon="7.14319">
        <ele>583.79998779297</ele>
        <time>2023-05-21T09:58:39.000Z</time>
      </trkpt>
      <trkpt lat="47.82837" lon="7.14311">
        <ele>584.20001220703</ele>
        <time>2023-05-21T09:58:40.000Z</time>
      </trkpt>
      <trkpt lat="47.82839" lon="7.14304">
        <ele>584.20001220703</ele>
        <time>2023-05-21T09:58:41.000Z</time>
      </trkpt>
      <trkpt lat="47.82844" lon="7.14284">
        <ele>584.20001220703</ele>
        <time>2023-05-21T09:58:44.000Z</time>
      </trkpt>
      <trkpt lat="47.82852" lon="7.1426">
        <ele>584.20001220703</ele>
        <time>2023-05-21T09:58:48.000Z</time>
      </trkpt>
      <trkpt lat="47.82857" lon="7.1425">
        <ele>584.20001220703</ele>
        <time>2023-05-21T09:58:50.000Z</time>
      </trkpt>
      <trkpt lat="47.82859" lon="7.14247">
        <ele>584.59997558594</ele>
        <time>2023-05-21T09:58:51.000Z</time>
      </trkpt>
      <trkpt lat="47.82862" lon="7.14243">
        <ele>585</ele>
        <time>2023-05-21T09:58:52.000Z</time>
      </trkpt>
      <trkpt lat="47.82864" lon="7.14239">
        <ele>585.59997558594</ele>
        <time>2023-05-21T09:58:53.000Z</time>
      </trkpt>
      <trkpt lat="47.82867" lon="7.14234">
        <ele>586.40002441406</ele>
        <time>2023-05-21T09:58:54.000Z</time>
      </trkpt>
      <trkpt lat="47.82874" lon="7.14227">
        <ele>586.40002441406</ele>
        <time>2023-05-21T09:58:56.000Z</time>
      </trkpt>
      <trkpt lat="47.82885" lon="7.14219">
        <ele>586.79998779297</ele>
        <time>2023-05-21T09:58:59.000Z</time>
      </trkpt>
      <trkpt lat="47.82888" lon="7.14217">
        <ele>587.20001220703</ele>
        <time>2023-05-21T09:59:00.000Z</time>
      </trkpt>
      <trkpt lat="47.82893" lon="7.14215">
        <ele>587.59997558594</ele>
        <time>2023-05-21T09:59:01.000Z</time>
      </trkpt>
      <trkpt lat="47.82896" lon="7.14214">
        <ele>588</ele>
        <time>2023-05-21T09:59:02.000Z</time>
      </trkpt>
      <trkpt lat="47.82901" lon="7.14214">
        <ele>588.40002441406</ele>
        <time>2023-05-21T09:59:03.000Z</time>
      </trkpt>
      <trkpt lat="47.82914" lon="7.14208">
        <ele>588.40002441406</ele>
        <time>2023-05-21T09:59:07.000Z</time>
      </trkpt>
      <trkpt lat="47.82917" lon="7.14206">
        <ele>588.79998779297</ele>
        <time>2023-05-21T09:59:08.000Z</time>
      </trkpt>
      <trkpt lat="47.82919" lon="7.14202">
        <ele>589.20001220703</ele>
        <time>2023-05-21T09:59:09.000Z</time>
      </trkpt>
      <trkpt lat="47.82921" lon="7.14199">
        <ele>589.59997558594</ele>
        <time>2023-05-21T09:59:10.000Z</time>
      </trkpt>
      <trkpt lat="47.82923" lon="7.14194">
        <ele>590</ele>
        <time>2023-05-21T09:59:11.000Z</time>
      </trkpt>
      <trkpt lat="47.82925" lon="7.14189">
        <ele>590.40002441406</ele>
        <time>2023-05-21T09:59:12.000Z</time>
      </trkpt>
      <trkpt lat="47.8293" lon="7.1417">
        <ele>590.79998779297</ele>
        <time>2023-05-21T09:59:16.000Z</time>
      </trkpt>
      <trkpt lat="47.8293" lon="7.14165">
        <ele>591.20001220703</ele>
        <time>2023-05-21T09:59:17.000Z</time>
      </trkpt>
      <trkpt lat="47.82931" lon="7.14161">
        <ele>591.59997558594</ele>
        <time>2023-05-21T09:59:18.000Z</time>
      </trkpt>
      <trkpt lat="47.82931" lon="7.14156">
        <ele>592.59997558594</ele>
        <time>2023-05-21T09:59:19.000Z</time>
      </trkpt>
      <trkpt lat="47.8293" lon="7.14146">
        <ele>592.59997558594</ele>
        <time>2023-05-21T09:59:21.000Z</time>
      </trkpt>
      <trkpt lat="47.8293" lon="7.14141">
        <ele>593</ele>
        <time>2023-05-21T09:59:22.000Z</time>
      </trkpt>
      <trkpt lat="47.82929" lon="7.14136">
        <ele>593.40002441406</ele>
        <time>2023-05-21T09:59:23.000Z</time>
      </trkpt>
      <trkpt lat="47.82927" lon="7.14131">
        <ele>593.79998779297</ele>
        <time>2023-05-21T09:59:24.000Z</time>
      </trkpt>
      <trkpt lat="47.82926" lon="7.14127">
        <ele>594.20001220703</ele>
        <time>2023-05-21T09:59:25.000Z</time>
      </trkpt>
      <trkpt lat="47.82924" lon="7.14121">
        <ele>594.59997558594</ele>
        <time>2023-05-21T09:59:26.000Z</time>
      </trkpt>
      <trkpt lat="47.82921" lon="7.14116">
        <ele>594.59997558594</ele>
        <time>2023-05-21T09:59:27.000Z</time>
      </trkpt>
      <trkpt lat="47.8291" lon="7.14094">
        <ele>595.20001220703</ele>
        <time>2023-05-21T09:59:33.000Z</time>
      </trkpt>
      <trkpt lat="47.82908" lon="7.14089">
        <ele>595.79998779297</ele>
        <time>2023-05-21T09:59:34.000Z</time>
      </trkpt>
      <trkpt lat="47.82907" lon="7.14086">
        <ele>596.20001220703</ele>
        <time>2023-05-21T09:59:35.000Z</time>
      </trkpt>
      <trkpt lat="47.82905" lon="7.14083">
        <ele>596.79998779297</ele>
        <time>2023-05-21T09:59:36.000Z</time>
      </trkpt>
      <trkpt lat="47.82903" lon="7.14079">
        <ele>597.40002441406</ele>
        <time>2023-05-21T09:59:37.000Z</time>
      </trkpt>
      <trkpt lat="47.829" lon="7.14068">
        <ele>597.40002441406</ele>
        <time>2023-05-21T09:59:40.000Z</time>
      </trkpt>
      <trkpt lat="47.829" lon="7.14059">
        <ele>597.79998779297</ele>
        <time>2023-05-21T09:59:42.000Z</time>
      </trkpt>
      <trkpt lat="47.829" lon="7.14055">
        <ele>598.59997558594</ele>
        <time>2023-05-21T09:59:43.000Z</time>
      </trkpt>
      <trkpt lat="47.829" lon="7.1405">
        <ele>599</ele>
        <time>2023-05-21T09:59:44.000Z</time>
      </trkpt>
      <trkpt lat="47.82901" lon="7.14047">
        <ele>599.40002441406</ele>
        <time>2023-05-21T09:59:45.000Z</time>
      </trkpt>
      <trkpt lat="47.82903" lon="7.14034">
        <ele>599.79998779297</ele>
        <time>2023-05-21T09:59:48.000Z</time>
      </trkpt>
      <trkpt lat="47.82903" lon="7.1403">
        <ele>600.20001220703</ele>
        <time>2023-05-21T09:59:49.000Z</time>
      </trkpt>
      <trkpt lat="47.82903" lon="7.14025">
        <ele>600.79998779297</ele>
        <time>2023-05-21T09:59:50.000Z</time>
      </trkpt>
      <trkpt lat="47.82903" lon="7.14022">
        <ele>601.20001220703</ele>
        <time>2023-05-21T09:59:51.000Z</time>
      </trkpt>
      <trkpt lat="47.82903" lon="7.14018">
        <ele>601.59997558594</ele>
        <time>2023-05-21T09:59:52.000Z</time>
      </trkpt>
      <trkpt lat="47.82905" lon="7.14012">
        <ele>602</ele>
        <time>2023-05-21T09:59:54.000Z</time>
      </trkpt>
      <trkpt lat="47.82905" lon="7.14009">
        <ele>602.40002441406</ele>
        <time>2023-05-21T09:59:55.000Z</time>
      </trkpt>
      <trkpt lat="47.82906" lon="7.14006">
        <ele>603</ele>
        <time>2023-05-21T09:59:56.000Z</time>
      </trkpt>
      <trkpt lat="47.82907" lon="7.14002">
        <ele>603.40002441406</ele>
        <time>2023-05-21T09:59:57.000Z</time>
      </trkpt>
      <trkpt lat="47.82907" lon="7.13998">
        <ele>603.79998779297</ele>
        <time>2023-05-21T09:59:58.000Z</time>
      </trkpt>
      <trkpt lat="47.82911" lon="7.13985">
        <ele>604.20001220703</ele>
        <time>2023-05-21T10:00:01.000Z</time>
      </trkpt>
      <trkpt lat="47.82911" lon="7.13981">
        <ele>604.59997558594</ele>
        <time>2023-05-21T10:00:02.000Z</time>
      </trkpt>
      <trkpt lat="47.82913" lon="7.13977">
        <ele>605.20001220703</ele>
        <time>2023-05-21T10:00:03.000Z</time>
      </trkpt>
      <trkpt lat="47.82913" lon="7.13974">
        <ele>605.59997558594</ele>
        <time>2023-05-21T10:00:04.000Z</time>
      </trkpt>
      <trkpt lat="47.82913" lon="7.1397">
        <ele>606</ele>
        <time>2023-05-21T10:00:05.000Z</time>
      </trkpt>
      <trkpt lat="47.82915" lon="7.13966">
        <ele>606.40002441406</ele>
        <time>2023-05-21T10:00:06.000Z</time>
      </trkpt>
      <trkpt lat="47.82916" lon="7.13962">
        <ele>606.79998779297</ele>
        <time>2023-05-21T10:00:07.000Z</time>
      </trkpt>
      <trkpt lat="47.82917" lon="7.1396">
        <ele>607.59997558594</ele>
        <time>2023-05-21T10:00:08.000Z</time>
      </trkpt>
      <trkpt lat="47.82918" lon="7.13957">
        <ele>608</ele>
        <time>2023-05-21T10:00:09.000Z</time>
      </trkpt>
      <trkpt lat="47.82919" lon="7.13955">
        <ele>608.40002441406</ele>
        <time>2023-05-21T10:00:10.000Z</time>
      </trkpt>
      <trkpt lat="47.82921" lon="7.13952">
        <ele>608.79998779297</ele>
        <time>2023-05-21T10:00:11.000Z</time>
      </trkpt>
      <trkpt lat="47.82922" lon="7.13949">
        <ele>609.20001220703</ele>
        <time>2023-05-21T10:00:12.000Z</time>
      </trkpt>
      <trkpt lat="47.82924" lon="7.13946">
        <ele>609.79998779297</ele>
        <time>2023-05-21T10:00:13.000Z</time>
      </trkpt>
      <trkpt lat="47.82925" lon="7.13942">
        <ele>610.20001220703</ele>
        <time>2023-05-21T10:00:14.000Z</time>
      </trkpt>
      <trkpt lat="47.82928" lon="7.13936">
        <ele>610.59997558594</ele>
        <time>2023-05-21T10:00:16.000Z</time>
      </trkpt>
      <trkpt lat="47.8293" lon="7.13933">
        <ele>611</ele>
        <time>2023-05-21T10:00:17.000Z</time>
      </trkpt>
      <trkpt lat="47.82932" lon="7.1393">
        <ele>611.59997558594</ele>
        <time>2023-05-21T10:00:18.000Z</time>
      </trkpt>
      <trkpt lat="47.82933" lon="7.13927">
        <ele>612</ele>
        <time>2023-05-21T10:00:19.000Z</time>
      </trkpt>
      <trkpt lat="47.82935" lon="7.13924">
        <ele>612.40002441406</ele>
        <time>2023-05-21T10:00:20.000Z</time>
      </trkpt>
      <trkpt lat="47.82939" lon="7.13918">
        <ele>612.79998779297</ele>
        <time>2023-05-21T10:00:22.000Z</time>
      </trkpt>
      <trkpt lat="47.82941" lon="7.13915">
        <ele>613.20001220703</ele>
        <time>2023-05-21T10:00:23.000Z</time>
      </trkpt>
      <trkpt lat="47.82943" lon="7.13912">
        <ele>613.59997558594</ele>
        <time>2023-05-21T10:00:24.000Z</time>
      </trkpt>
      <trkpt lat="47.82945" lon="7.13909">
        <ele>614</ele>
        <time>2023-05-21T10:00:25.000Z</time>
      </trkpt>
      <trkpt lat="47.82946" lon="7.13906">
        <ele>614.59997558594</ele>
        <time>2023-05-21T10:00:26.000Z</time>
      </trkpt>
      <trkpt lat="47.82953" lon="7.13898">
        <ele>615</ele>
        <time>2023-05-21T10:00:29.000Z</time>
      </trkpt>
      <trkpt lat="47.82955" lon="7.13896">
        <ele>615.40002441406</ele>
        <time>2023-05-21T10:00:30.000Z</time>
      </trkpt>
      <trkpt lat="47.82957" lon="7.13892">
        <ele>615.79998779297</ele>
        <time>2023-05-21T10:00:31.000Z</time>
      </trkpt>
      <trkpt lat="47.82959" lon="7.13889">
        <ele>616.20001220703</ele>
        <time>2023-05-21T10:00:32.000Z</time>
      </trkpt>
      <trkpt lat="47.82962" lon="7.13886">
        <ele>616.59997558594</ele>
        <time>2023-05-21T10:00:33.000Z</time>
      </trkpt>
      <trkpt lat="47.82968" lon="7.13876">
        <ele>617</ele>
        <time>2023-05-21T10:00:36.000Z</time>
      </trkpt>
      <trkpt lat="47.8297" lon="7.13872">
        <ele>617.40002441406</ele>
        <time>2023-05-21T10:00:37.000Z</time>
      </trkpt>
      <trkpt lat="47.82972" lon="7.1387">
        <ele>617.79998779297</ele>
        <time>2023-05-21T10:00:38.000Z</time>
      </trkpt>
      <trkpt lat="47.82975" lon="7.13869">
        <ele>618.20001220703</ele>
        <time>2023-05-21T10:00:39.000Z</time>
      </trkpt>
      <trkpt lat="47.82978" lon="7.13867">
        <ele>618.59997558594</ele>
        <time>2023-05-21T10:00:40.000Z</time>
      </trkpt>
      <trkpt lat="47.82984" lon="7.13863">
        <ele>618.59997558594</ele>
        <time>2023-05-21T10:00:42.000Z</time>
      </trkpt>
      <trkpt lat="47.8299" lon="7.13856">
        <ele>619</ele>
        <time>2023-05-21T10:00:44.000Z</time>
      </trkpt>
      <trkpt lat="47.82992" lon="7.13853">
        <ele>619.40002441406</ele>
        <time>2023-05-21T10:00:45.000Z</time>
      </trkpt>
      <trkpt lat="47.82995" lon="7.1385">
        <ele>619.79998779297</ele>
        <time>2023-05-21T10:00:46.000Z</time>
      </trkpt>
      <trkpt lat="47.82998" lon="7.13847">
        <ele>620.40002441406</ele>
        <time>2023-05-21T10:00:47.000Z</time>
      </trkpt>
      <trkpt lat="47.83" lon="7.13845">
        <ele>620.79998779297</ele>
        <time>2023-05-21T10:00:48.000Z</time>
      </trkpt>
      <trkpt lat="47.83012" lon="7.13828">
        <ele>621.20001220703</ele>
        <time>2023-05-21T10:00:54.000Z</time>
      </trkpt>
      <trkpt lat="47.83013" lon="7.13823">
        <ele>621.59997558594</ele>
        <time>2023-05-21T10:00:55.000Z</time>
      </trkpt>
      <trkpt lat="47.83014" lon="7.13819">
        <ele>622</ele>
        <time>2023-05-21T10:00:56.000Z</time>
      </trkpt>
      <trkpt lat="47.83015" lon="7.13816">
        <ele>623</ele>
        <time>2023-05-21T10:00:57.000Z</time>
      </trkpt>
      <trkpt lat="47.83015" lon="7.13808">
        <ele>623</ele>
        <time>2023-05-21T10:00:59.000Z</time>
      </trkpt>
      <trkpt lat="47.83012" lon="7.13795">
        <ele>623.40002441406</ele>
        <time>2023-05-21T10:01:02.000Z</time>
      </trkpt>
      <trkpt lat="47.83011" lon="7.13789">
        <ele>623.79998779297</ele>
        <time>2023-05-21T10:01:03.000Z</time>
      </trkpt>
      <trkpt lat="47.83009" lon="7.13784">
        <ele>624.20001220703</ele>
        <time>2023-05-21T10:01:04.000Z</time>
      </trkpt>
      <trkpt lat="47.83007" lon="7.13779">
        <ele>624.59997558594</ele>
        <time>2023-05-21T10:01:05.000Z</time>
      </trkpt>
      <trkpt lat="47.83004" lon="7.13775">
        <ele>625</ele>
        <time>2023-05-21T10:01:06.000Z</time>
      </trkpt>
      <trkpt lat="47.82998" lon="7.13759">
        <ele>625</ele>
        <time>2023-05-21T10:01:10.000Z</time>
      </trkpt>
      <trkpt lat="47.82989" lon="7.1374">
        <ele>625.40002441406</ele>
        <time>2023-05-21T10:01:15.000Z</time>
      </trkpt>
      <trkpt lat="47.82987" lon="7.13736">
        <ele>625.79998779297</ele>
        <time>2023-05-21T10:01:16.000Z</time>
      </trkpt>
      <trkpt lat="47.82985" lon="7.13732">
        <ele>626.40002441406</ele>
        <time>2023-05-21T10:01:17.000Z</time>
      </trkpt>
      <trkpt lat="47.82984" lon="7.13729">
        <ele>626.79998779297</ele>
        <time>2023-05-21T10:01:18.000Z</time>
      </trkpt>
      <trkpt lat="47.82982" lon="7.13725">
        <ele>627.20001220703</ele>
        <time>2023-05-21T10:01:19.000Z</time>
      </trkpt>
      <trkpt lat="47.82979" lon="7.13719">
        <ele>627.59997558594</ele>
        <time>2023-05-21T10:01:21.000Z</time>
      </trkpt>
      <trkpt lat="47.82976" lon="7.13715">
        <ele>628</ele>
        <time>2023-05-21T10:01:22.000Z</time>
      </trkpt>
      <trkpt lat="47.82975" lon="7.1371">
        <ele>628.40002441406</ele>
        <time>2023-05-21T10:01:23.000Z</time>
      </trkpt>
      <trkpt lat="47.82974" lon="7.13705">
        <ele>628.79998779297</ele>
        <time>2023-05-21T10:01:24.000Z</time>
      </trkpt>
      <trkpt lat="47.82974" lon="7.13699">
        <ele>629.20001220703</ele>
        <time>2023-05-21T10:01:25.000Z</time>
      </trkpt>
      <trkpt lat="47.82976" lon="7.13689">
        <ele>629.20001220703</ele>
        <time>2023-05-21T10:01:27.000Z</time>
      </trkpt>
      <trkpt lat="47.82986" lon="7.13656">
        <ele>629.20001220703</ele>
        <time>2023-05-21T10:01:34.000Z</time>
      </trkpt>
      <trkpt lat="47.82997" lon="7.13632">
        <ele>629.20001220703</ele>
        <time>2023-05-21T10:01:39.000Z</time>
      </trkpt>
      <trkpt lat="47.83008" lon="7.13614">
        <ele>629.20001220703</ele>
        <time>2023-05-21T10:01:45.000Z</time>
      </trkpt>
      <trkpt lat="47.8301" lon="7.13611">
        <ele>629.59997558594</ele>
        <time>2023-05-21T10:01:46.000Z</time>
      </trkpt>
      <trkpt lat="47.83012" lon="7.1361">
        <ele>630</ele>
        <time>2023-05-21T10:01:47.000Z</time>
      </trkpt>
      <trkpt lat="47.83012" lon="7.13609">
        <ele>630.40002441406</ele>
        <time>2023-05-21T10:01:48.000Z</time>
      </trkpt>
      <trkpt lat="47.83012" lon="7.13609">
        <ele>630.79998779297</ele>
        <time>2023-05-21T10:01:49.000Z</time>
      </trkpt>
      <trkpt lat="47.83012" lon="7.13605">
        <ele>631.20001220703</ele>
        <time>2023-05-21T10:01:53.000Z</time>
      </trkpt>
      <trkpt lat="47.83012" lon="7.13594">
        <ele>631.20001220703</ele>
        <time>2023-05-21T10:01:55.000Z</time>
      </trkpt>
      <trkpt lat="47.83014" lon="7.13579">
        <ele>630.79998779297</ele>
        <time>2023-05-21T10:01:57.000Z</time>
      </trkpt>
      <trkpt lat="47.83016" lon="7.13572">
        <ele>630.20001220703</ele>
        <time>2023-05-21T10:01:58.000Z</time>
      </trkpt>
      <trkpt lat="47.83018" lon="7.13564">
        <ele>629.79998779297</ele>
        <time>2023-05-21T10:01:59.000Z</time>
      </trkpt>
      <trkpt lat="47.83019" lon="7.13557">
        <ele>629</ele>
        <time>2023-05-21T10:02:00.000Z</time>
      </trkpt>
      <trkpt lat="47.83021" lon="7.13551">
        <ele>628.40002441406</ele>
        <time>2023-05-21T10:02:01.000Z</time>
      </trkpt>
      <trkpt lat="47.83023" lon="7.13544">
        <ele>627.59997558594</ele>
        <time>2023-05-21T10:02:02.000Z</time>
      </trkpt>
      <trkpt lat="47.83024" lon="7.13537">
        <ele>627</ele>
        <time>2023-05-21T10:02:03.000Z</time>
      </trkpt>
      <trkpt lat="47.83025" lon="7.13531">
        <ele>626.20001220703</ele>
        <time>2023-05-21T10:02:04.000Z</time>
      </trkpt>
      <trkpt lat="47.83026" lon="7.13523">
        <ele>625.20001220703</ele>
        <time>2023-05-21T10:02:05.000Z</time>
      </trkpt>
      <trkpt lat="47.83026" lon="7.13516">
        <ele>624.40002441406</ele>
        <time>2023-05-21T10:02:06.000Z</time>
      </trkpt>
      <trkpt lat="47.83026" lon="7.13508">
        <ele>623.40002441406</ele>
        <time>2023-05-21T10:02:07.000Z</time>
      </trkpt>
      <trkpt lat="47.83026" lon="7.13501">
        <ele>622.40002441406</ele>
        <time>2023-05-21T10:02:08.000Z</time>
      </trkpt>
      <trkpt lat="47.83026" lon="7.13495">
        <ele>621.20001220703</ele>
        <time>2023-05-21T10:02:09.000Z</time>
      </trkpt>
      <trkpt lat="47.83025" lon="7.13491">
        <ele>619</ele>
        <time>2023-05-21T10:02:10.000Z</time>
      </trkpt>
      <trkpt lat="47.83025" lon="7.13485">
        <ele>618</ele>
        <time>2023-05-21T10:02:11.000Z</time>
      </trkpt>
      <trkpt lat="47.83026" lon="7.13478">
        <ele>616.79998779297</ele>
        <time>2023-05-21T10:02:12.000Z</time>
      </trkpt>
      <trkpt lat="47.83028" lon="7.1347">
        <ele>615.79998779297</ele>
        <time>2023-05-21T10:02:13.000Z</time>
      </trkpt>
      <trkpt lat="47.83029" lon="7.13463">
        <ele>614.79998779297</ele>
        <time>2023-05-21T10:02:14.000Z</time>
      </trkpt>
      <trkpt lat="47.83029" lon="7.13458">
        <ele>614</ele>
        <time>2023-05-21T10:02:15.000Z</time>
      </trkpt>
      <trkpt lat="47.83029" lon="7.13452">
        <ele>613</ele>
        <time>2023-05-21T10:02:16.000Z</time>
      </trkpt>
      <trkpt lat="47.83029" lon="7.13444">
        <ele>612</ele>
        <time>2023-05-21T10:02:17.000Z</time>
      </trkpt>
      <trkpt lat="47.8303" lon="7.13436">
        <ele>611.40002441406</ele>
        <time>2023-05-21T10:02:18.000Z</time>
      </trkpt>
      <trkpt lat="47.83031" lon="7.13428">
        <ele>611</ele>
        <time>2023-05-21T10:02:19.000Z</time>
      </trkpt>
      <trkpt lat="47.83031" lon="7.13421">
        <ele>610.59997558594</ele>
        <time>2023-05-21T10:02:20.000Z</time>
      </trkpt>
      <trkpt lat="47.8303" lon="7.13414">
        <ele>610.20001220703</ele>
        <time>2023-05-21T10:02:21.000Z</time>
      </trkpt>
      <trkpt lat="47.83029" lon="7.13407">
        <ele>609.79998779297</ele>
        <time>2023-05-21T10:02:22.000Z</time>
      </trkpt>
      <trkpt lat="47.83026" lon="7.13399">
        <ele>609.79998779297</ele>
        <time>2023-05-21T10:02:23.000Z</time>
      </trkpt>
      <trkpt lat="47.83024" lon="7.13381">
        <ele>609.20001220703</ele>
        <time>2023-05-21T10:02:25.000Z</time>
      </trkpt>
      <trkpt lat="47.83023" lon="7.1337">
        <ele>608.59997558594</ele>
        <time>2023-05-21T10:02:26.000Z</time>
      </trkpt>
      <trkpt lat="47.83022" lon="7.1336">
        <ele>608</ele>
        <time>2023-05-21T10:02:27.000Z</time>
      </trkpt>
      <trkpt lat="47.8302" lon="7.1335">
        <ele>607.40002441406</ele>
        <time>2023-05-21T10:02:28.000Z</time>
      </trkpt>
      <trkpt lat="47.83019" lon="7.13339">
        <ele>606.79998779297</ele>
        <time>2023-05-21T10:02:29.000Z</time>
      </trkpt>
      <trkpt lat="47.83017" lon="7.13327">
        <ele>606</ele>
        <time>2023-05-21T10:02:30.000Z</time>
      </trkpt>
      <trkpt lat="47.83015" lon="7.13316">
        <ele>605</ele>
        <time>2023-05-21T10:02:31.000Z</time>
      </trkpt>
      <trkpt lat="47.83014" lon="7.13303">
        <ele>604.20001220703</ele>
        <time>2023-05-21T10:02:32.000Z</time>
      </trkpt>
      <trkpt lat="47.83015" lon="7.13291">
        <ele>603.20001220703</ele>
        <time>2023-05-21T10:02:33.000Z</time>
      </trkpt>
      <trkpt lat="47.83016" lon="7.1328">
        <ele>601.40002441406</ele>
        <time>2023-05-21T10:02:34.000Z</time>
      </trkpt>
      <trkpt lat="47.83016" lon="7.13269">
        <ele>600.40002441406</ele>
        <time>2023-05-21T10:02:35.000Z</time>
      </trkpt>
      <trkpt lat="47.83019" lon="7.13257">
        <ele>599.59997558594</ele>
        <time>2023-05-21T10:02:36.000Z</time>
      </trkpt>
      <trkpt lat="47.83021" lon="7.13246">
        <ele>598.59997558594</ele>
        <time>2023-05-21T10:02:37.000Z</time>
      </trkpt>
      <trkpt lat="47.83025" lon="7.13235">
        <ele>597.59997558594</ele>
        <time>2023-05-21T10:02:38.000Z</time>
      </trkpt>
      <trkpt lat="47.83028" lon="7.13225">
        <ele>596.59997558594</ele>
        <time>2023-05-21T10:02:39.000Z</time>
      </trkpt>
      <trkpt lat="47.83032" lon="7.13217">
        <ele>595.40002441406</ele>
        <time>2023-05-21T10:02:40.000Z</time>
      </trkpt>
      <trkpt lat="47.83036" lon="7.13209">
        <ele>594.20001220703</ele>
        <time>2023-05-21T10:02:41.000Z</time>
      </trkpt>
      <trkpt lat="47.83043" lon="7.13202">
        <ele>593</ele>
        <time>2023-05-21T10:02:42.000Z</time>
      </trkpt>
      <trkpt lat="47.83048" lon="7.13196">
        <ele>591.79998779297</ele>
        <time>2023-05-21T10:02:43.000Z</time>
      </trkpt>
      <trkpt lat="47.83053" lon="7.13189">
        <ele>590.59997558594</ele>
        <time>2023-05-21T10:02:44.000Z</time>
      </trkpt>
      <trkpt lat="47.83058" lon="7.13184">
        <ele>589.40002441406</ele>
        <time>2023-05-21T10:02:45.000Z</time>
      </trkpt>
      <trkpt lat="47.83064" lon="7.13177">
        <ele>588.20001220703</ele>
        <time>2023-05-21T10:02:46.000Z</time>
      </trkpt>
      <trkpt lat="47.8307" lon="7.13169">
        <ele>587</ele>
        <time>2023-05-21T10:02:47.000Z</time>
      </trkpt>
      <trkpt lat="47.83078" lon="7.13162">
        <ele>585.59997558594</ele>
        <time>2023-05-21T10:02:48.000Z</time>
      </trkpt>
      <trkpt lat="47.83086" lon="7.13156">
        <ele>584.20001220703</ele>
        <time>2023-05-21T10:02:49.000Z</time>
      </trkpt>
      <trkpt lat="47.83093" lon="7.13154">
        <ele>582.79998779297</ele>
        <time>2023-05-21T10:02:50.000Z</time>
      </trkpt>
      <trkpt lat="47.83099" lon="7.13147">
        <ele>581.40002441406</ele>
        <time>2023-05-21T10:02:51.000Z</time>
      </trkpt>
      <trkpt lat="47.83103" lon="7.13138">
        <ele>580</ele>
        <time>2023-05-21T10:02:52.000Z</time>
      </trkpt>
      <trkpt lat="47.83104" lon="7.13129">
        <ele>579</ele>
        <time>2023-05-21T10:02:53.000Z</time>
      </trkpt>
      <trkpt lat="47.83104" lon="7.1312">
        <ele>578</ele>
        <time>2023-05-21T10:02:54.000Z</time>
      </trkpt>
      <trkpt lat="47.83093" lon="7.13114">
        <ele>577</ele>
        <time>2023-05-21T10:02:55.000Z</time>
      </trkpt>
      <trkpt lat="47.83085" lon="7.13107">
        <ele>576</ele>
        <time>2023-05-21T10:02:56.000Z</time>
      </trkpt>
      <trkpt lat="47.83078" lon="7.131">
        <ele>575</ele>
        <time>2023-05-21T10:02:57.000Z</time>
      </trkpt>
      <trkpt lat="47.83071" lon="7.13094">
        <ele>572.20001220703</ele>
        <time>2023-05-21T10:02:58.000Z</time>
      </trkpt>
      <trkpt lat="47.83065" lon="7.13089">
        <ele>570.79998779297</ele>
        <time>2023-05-21T10:02:59.000Z</time>
      </trkpt>
      <trkpt lat="47.83059" lon="7.13084">
        <ele>569.40002441406</ele>
        <time>2023-05-21T10:03:00.000Z</time>
      </trkpt>
      <trkpt lat="47.83052" lon="7.1308">
        <ele>567.79998779297</ele>
        <time>2023-05-21T10:03:01.000Z</time>
      </trkpt>
      <trkpt lat="47.83045" lon="7.13075">
        <ele>566.20001220703</ele>
        <time>2023-05-21T10:03:02.000Z</time>
      </trkpt>
      <trkpt lat="47.83038" lon="7.13069">
        <ele>564.79998779297</ele>
        <time>2023-05-21T10:03:03.000Z</time>
      </trkpt>
      <trkpt lat="47.83031" lon="7.13064">
        <ele>563.20001220703</ele>
        <time>2023-05-21T10:03:04.000Z</time>
      </trkpt>
      <trkpt lat="47.83023" lon="7.1306">
        <ele>561.40002441406</ele>
        <time>2023-05-21T10:03:05.000Z</time>
      </trkpt>
      <trkpt lat="47.83015" lon="7.13056">
        <ele>559.59997558594</ele>
        <time>2023-05-21T10:03:06.000Z</time>
      </trkpt>
      <trkpt lat="47.83006" lon="7.13053">
        <ele>557.59997558594</ele>
        <time>2023-05-21T10:03:07.000Z</time>
      </trkpt>
      <trkpt lat="47.82999" lon="7.13053">
        <ele>555.79998779297</ele>
        <time>2023-05-21T10:03:08.000Z</time>
      </trkpt>
      <trkpt lat="47.82991" lon="7.13053">
        <ele>554</ele>
        <time>2023-05-21T10:03:09.000Z</time>
      </trkpt>
      <trkpt lat="47.82983" lon="7.13055">
        <ele>552.20001220703</ele>
        <time>2023-05-21T10:03:10.000Z</time>
      </trkpt>
      <trkpt lat="47.82974" lon="7.13056">
        <ele>550.40002441406</ele>
        <time>2023-05-21T10:03:11.000Z</time>
      </trkpt>
      <trkpt lat="47.82965" lon="7.13057">
        <ele>548.79998779297</ele>
        <time>2023-05-21T10:03:12.000Z</time>
      </trkpt>
      <trkpt lat="47.82956" lon="7.13059">
        <ele>547.20001220703</ele>
        <time>2023-05-21T10:03:13.000Z</time>
      </trkpt>
      <trkpt lat="47.82947" lon="7.13061">
        <ele>545.40002441406</ele>
        <time>2023-05-21T10:03:14.000Z</time>
      </trkpt>
      <trkpt lat="47.82938" lon="7.13063">
        <ele>543.79998779297</ele>
        <time>2023-05-21T10:03:15.000Z</time>
      </trkpt>
      <trkpt lat="47.82929" lon="7.13065">
        <ele>542.20001220703</ele>
        <time>2023-05-21T10:03:16.000Z</time>
      </trkpt>
      <trkpt lat="47.82922" lon="7.13067">
        <ele>540.59997558594</ele>
        <time>2023-05-21T10:03:17.000Z</time>
      </trkpt>
      <trkpt lat="47.82912" lon="7.13076">
        <ele>539</ele>
        <time>2023-05-21T10:03:18.000Z</time>
      </trkpt>
      <trkpt lat="47.82904" lon="7.13084">
        <ele>537.40002441406</ele>
        <time>2023-05-21T10:03:19.000Z</time>
      </trkpt>
      <trkpt lat="47.82896" lon="7.13091">
        <ele>536</ele>
        <time>2023-05-21T10:03:20.000Z</time>
      </trkpt>
      <trkpt lat="47.82888" lon="7.13098">
        <ele>534.59997558594</ele>
        <time>2023-05-21T10:03:21.000Z</time>
      </trkpt>
      <trkpt lat="47.82881" lon="7.13104">
        <ele>533.20001220703</ele>
        <time>2023-05-21T10:03:22.000Z</time>
      </trkpt>
      <trkpt lat="47.82875" lon="7.1311">
        <ele>530.40002441406</ele>
        <time>2023-05-21T10:03:23.000Z</time>
      </trkpt>
      <trkpt lat="47.8287" lon="7.13118">
        <ele>529.20001220703</ele>
        <time>2023-05-21T10:03:24.000Z</time>
      </trkpt>
      <trkpt lat="47.82865" lon="7.13125">
        <ele>528</ele>
        <time>2023-05-21T10:03:25.000Z</time>
      </trkpt>
      <trkpt lat="47.82859" lon="7.13131">
        <ele>527</ele>
        <time>2023-05-21T10:03:26.000Z</time>
      </trkpt>
      <trkpt lat="47.82854" lon="7.1314">
        <ele>525.79998779297</ele>
        <time>2023-05-21T10:03:27.000Z</time>
      </trkpt>
      <trkpt lat="47.82851" lon="7.13154">
        <ele>524.40002441406</ele>
        <time>2023-05-21T10:03:28.000Z</time>
      </trkpt>
      <trkpt lat="47.82845" lon="7.13163">
        <ele>523.20001220703</ele>
        <time>2023-05-21T10:03:29.000Z</time>
      </trkpt>
      <trkpt lat="47.82842" lon="7.13169">
        <ele>521.79998779297</ele>
        <time>2023-05-21T10:03:30.000Z</time>
      </trkpt>
      <trkpt lat="47.82841" lon="7.13172">
        <ele>520.59997558594</ele>
        <time>2023-05-21T10:03:31.000Z</time>
      </trkpt>
      <trkpt lat="47.82843" lon="7.13173">
        <ele>519.40002441406</ele>
        <time>2023-05-21T10:03:32.000Z</time>
      </trkpt>
      <trkpt lat="47.82844" lon="7.1317">
        <ele>518</ele>
        <time>2023-05-21T10:03:33.000Z</time>
      </trkpt>
      <trkpt lat="47.82847" lon="7.13169">
        <ele>516.79998779297</ele>
        <time>2023-05-21T10:03:34.000Z</time>
      </trkpt>
      <trkpt lat="47.8286" lon="7.13161">
        <ele>516.79998779297</ele>
        <time>2023-05-21T10:03:38.000Z</time>
      </trkpt>
      <trkpt lat="47.82868" lon="7.13145">
        <ele>516.79998779297</ele>
        <time>2023-05-21T10:03:43.000Z</time>
      </trkpt>
      <trkpt lat="47.82877" lon="7.13137">
        <ele>517.20001220703</ele>
        <time>2023-05-21T10:03:47.000Z</time>
      </trkpt>
      <trkpt lat="47.82878" lon="7.13135">
        <ele>518</ele>
        <time>2023-05-21T10:03:48.000Z</time>
      </trkpt>
      <trkpt lat="47.82879" lon="7.13133">
        <ele>518.40002441406</ele>
        <time>2023-05-21T10:03:49.000Z</time>
      </trkpt>
      <trkpt lat="47.8288" lon="7.1313">
        <ele>518.79998779297</ele>
        <time>2023-05-21T10:03:50.000Z</time>
      </trkpt>
      <trkpt lat="47.8288" lon="7.13128">
        <ele>519.20001220703</ele>
        <time>2023-05-21T10:03:51.000Z</time>
      </trkpt>
      <trkpt lat="47.82881" lon="7.13126">
        <ele>519.59997558594</ele>
        <time>2023-05-21T10:03:52.000Z</time>
      </trkpt>
      <trkpt lat="47.82881" lon="7.13123">
        <ele>520</ele>
        <time>2023-05-21T10:03:53.000Z</time>
      </trkpt>
      <trkpt lat="47.82882" lon="7.1312">
        <ele>520.40002441406</ele>
        <time>2023-05-21T10:03:54.000Z</time>
      </trkpt>
      <trkpt lat="47.82884" lon="7.13117">
        <ele>520.79998779297</ele>
        <time>2023-05-21T10:03:55.000Z</time>
      </trkpt>
      <trkpt lat="47.82892" lon="7.13105">
        <ele>521.20001220703</ele>
        <time>2023-05-21T10:03:59.000Z</time>
      </trkpt>
      <trkpt lat="47.82895" lon="7.13102">
        <ele>521.59997558594</ele>
        <time>2023-05-21T10:04:00.000Z</time>
      </trkpt>
      <trkpt lat="47.82898" lon="7.131">
        <ele>522</ele>
        <time>2023-05-21T10:04:01.000Z</time>
      </trkpt>
      <trkpt lat="47.829" lon="7.13097">
        <ele>522.59997558594</ele>
        <time>2023-05-21T10:04:02.000Z</time>
      </trkpt>
      <trkpt lat="47.82902" lon="7.13095">
        <ele>523</ele>
        <time>2023-05-21T10:04:03.000Z</time>
      </trkpt>
      <trkpt lat="47.82908" lon="7.13088">
        <ele>523.40002441406</ele>
        <time>2023-05-21T10:04:06.000Z</time>
      </trkpt>
      <trkpt lat="47.82909" lon="7.13085">
        <ele>523.79998779297</ele>
        <time>2023-05-21T10:04:07.000Z</time>
      </trkpt>
      <trkpt lat="47.82911" lon="7.13083">
        <ele>524.40002441406</ele>
        <time>2023-05-21T10:04:08.000Z</time>
      </trkpt>
      <trkpt lat="47.82913" lon="7.1308">
        <ele>524.79998779297</ele>
        <time>2023-05-21T10:04:09.000Z</time>
      </trkpt>
      <trkpt lat="47.82914" lon="7.13078">
        <ele>525.20001220703</ele>
        <time>2023-05-21T10:04:10.000Z</time>
      </trkpt>
      <trkpt lat="47.82915" lon="7.13076">
        <ele>525.59997558594</ele>
        <time>2023-05-21T10:04:11.000Z</time>
      </trkpt>
      <trkpt lat="47.82917" lon="7.13074">
        <ele>526</ele>
        <time>2023-05-21T10:04:12.000Z</time>
      </trkpt>
      <trkpt lat="47.82919" lon="7.13072">
        <ele>527</ele>
        <time>2023-05-21T10:04:13.000Z</time>
      </trkpt>
      <trkpt lat="47.82921" lon="7.1307">
        <ele>527.40002441406</ele>
        <time>2023-05-21T10:04:14.000Z</time>
      </trkpt>
      <trkpt lat="47.82926" lon="7.13067">
        <ele>527.79998779297</ele>
        <time>2023-05-21T10:04:16.000Z</time>
      </trkpt>
      <trkpt lat="47.82928" lon="7.13065">
        <ele>528.20001220703</ele>
        <time>2023-05-21T10:04:17.000Z</time>
      </trkpt>
      <trkpt lat="47.8293" lon="7.13063">
        <ele>528.59997558594</ele>
        <time>2023-05-21T10:04:18.000Z</time>
      </trkpt>
      <trkpt lat="47.82932" lon="7.13061">
        <ele>529</ele>
        <time>2023-05-21T10:04:19.000Z</time>
      </trkpt>
      <trkpt lat="47.82934" lon="7.13059">
        <ele>529.40002441406</ele>
        <time>2023-05-21T10:04:20.000Z</time>
      </trkpt>
      <trkpt lat="47.82942" lon="7.13052">
        <ele>529.79998779297</ele>
        <time>2023-05-21T10:04:24.000Z</time>
      </trkpt>
      <trkpt lat="47.82944" lon="7.1305">
        <ele>530.20001220703</ele>
        <time>2023-05-21T10:04:25.000Z</time>
      </trkpt>
      <trkpt lat="47.82946" lon="7.13047">
        <ele>530.59997558594</ele>
        <time>2023-05-21T10:04:26.000Z</time>
      </trkpt>
      <trkpt lat="47.82948" lon="7.13045">
        <ele>531</ele>
        <time>2023-05-21T10:04:27.000Z</time>
      </trkpt>
      <trkpt lat="47.8295" lon="7.13042">
        <ele>531.40002441406</ele>
        <time>2023-05-21T10:04:28.000Z</time>
      </trkpt>
      <trkpt lat="47.82958" lon="7.13034">
        <ele>531.79998779297</ele>
        <time>2023-05-21T10:04:32.000Z</time>
      </trkpt>
      <trkpt lat="47.82961" lon="7.13033">
        <ele>532.20001220703</ele>
        <time>2023-05-21T10:04:33.000Z</time>
      </trkpt>
      <trkpt lat="47.82963" lon="7.1303">
        <ele>532.59997558594</ele>
        <time>2023-05-21T10:04:34.000Z</time>
      </trkpt>
      <trkpt lat="47.82967" lon="7.13029">
        <ele>533</ele>
        <time>2023-05-21T10:04:35.000Z</time>
      </trkpt>
      <trkpt lat="47.82967" lon="7.13021">
        <ele>533.40002441406</ele>
        <time>2023-05-21T10:04:36.000Z</time>
      </trkpt>
      <trkpt lat="47.82971" lon="7.13014">
        <ele>534</ele>
        <time>2023-05-21T10:04:38.000Z</time>
      </trkpt>
      <trkpt lat="47.82972" lon="7.13012">
        <ele>534.40002441406</ele>
        <time>2023-05-21T10:04:39.000Z</time>
      </trkpt>
      <trkpt lat="47.82975" lon="7.13011">
        <ele>534.79998779297</ele>
        <time>2023-05-21T10:04:40.000Z</time>
      </trkpt>
      <trkpt lat="47.82976" lon="7.13009">
        <ele>535.20001220703</ele>
        <time>2023-05-21T10:04:41.000Z</time>
      </trkpt>
      <trkpt lat="47.82977" lon="7.13008">
        <ele>535.59997558594</ele>
        <time>2023-05-21T10:04:42.000Z</time>
      </trkpt>
      <trkpt lat="47.82979" lon="7.13006">
        <ele>535.59997558594</ele>
        <time>2023-05-21T10:04:43.000Z</time>
      </trkpt>
      <trkpt lat="47.82982" lon="7.13001">
        <ele>536.20001220703</ele>
        <time>2023-05-21T10:04:45.000Z</time>
      </trkpt>
      <trkpt lat="47.82983" lon="7.12997">
        <ele>536.59997558594</ele>
        <time>2023-05-21T10:04:46.000Z</time>
      </trkpt>
      <trkpt lat="47.82985" lon="7.12994">
        <ele>537</ele>
        <time>2023-05-21T10:04:47.000Z</time>
      </trkpt>
      <trkpt lat="47.82987" lon="7.12993">
        <ele>537.40002441406</ele>
        <time>2023-05-21T10:04:48.000Z</time>
      </trkpt>
      <trkpt lat="47.82989" lon="7.1299">
        <ele>537.79998779297</ele>
        <time>2023-05-21T10:04:49.000Z</time>
      </trkpt>
      <trkpt lat="47.8299" lon="7.12988">
        <ele>537.79998779297</ele>
        <time>2023-05-21T10:04:53.000Z</time>
      </trkpt>
      <trkpt lat="47.82989" lon="7.12989">
        <ele>538.20001220703</ele>
        <time>2023-05-21T10:04:54.000Z</time>
      </trkpt>
      <trkpt lat="47.82988" lon="7.12989">
        <ele>538.59997558594</ele>
        <time>2023-05-21T10:04:55.000Z</time>
      </trkpt>
      <trkpt lat="47.82986" lon="7.12989">
        <ele>539</ele>
        <time>2023-05-21T10:04:56.000Z</time>
      </trkpt>
      <trkpt lat="47.82984" lon="7.1299">
        <ele>539.40002441406</ele>
        <time>2023-05-21T10:04:57.000Z</time>
      </trkpt>
      <trkpt lat="47.82983" lon="7.1299">
        <ele>540</ele>
        <time>2023-05-21T10:04:58.000Z</time>
      </trkpt>
      <trkpt lat="47.82978" lon="7.12996">
        <ele>540.40002441406</ele>
        <time>2023-05-21T10:05:02.000Z</time>
      </trkpt>
      <trkpt lat="47.82976" lon="7.12997">
        <ele>540.79998779297</ele>
        <time>2023-05-21T10:05:03.000Z</time>
      </trkpt>
      <trkpt lat="47.82975" lon="7.12998">
        <ele>541.20001220703</ele>
        <time>2023-05-21T10:05:04.000Z</time>
      </trkpt>
      <trkpt lat="47.82973" lon="7.12999">
        <ele>541.59997558594</ele>
        <time>2023-05-21T10:05:05.000Z</time>
      </trkpt>
      <trkpt lat="47.82972" lon="7.13">
        <ele>542</ele>
        <time>2023-05-21T10:05:06.000Z</time>
      </trkpt>
      <trkpt lat="47.82955" lon="7.13007">
        <ele>542</ele>
        <time>2023-05-21T10:05:12.000Z</time>
      </trkpt>
      <trkpt lat="47.82947" lon="7.13007">
        <ele>542.40002441406</ele>
        <time>2023-05-21T10:05:14.000Z</time>
      </trkpt>
      <trkpt lat="47.82943" lon="7.13007">
        <ele>542.79998779297</ele>
        <time>2023-05-21T10:05:15.000Z</time>
      </trkpt>
      <trkpt lat="47.82939" lon="7.13007">
        <ele>543.20001220703</ele>
        <time>2023-05-21T10:05:16.000Z</time>
      </trkpt>
      <trkpt lat="47.82935" lon="7.13007">
        <ele>543.59997558594</ele>
        <time>2023-05-21T10:05:17.000Z</time>
      </trkpt>
      <trkpt lat="47.82931" lon="7.13008">
        <ele>544</ele>
        <time>2023-05-21T10:05:18.000Z</time>
      </trkpt>
      <trkpt lat="47.82921" lon="7.13013">
        <ele>544</ele>
        <time>2023-05-21T10:05:21.000Z</time>
      </trkpt>
      <trkpt lat="47.82915" lon="7.13018">
        <ele>544</ele>
        <time>2023-05-21T10:05:24.000Z</time>
      </trkpt>
      <trkpt lat="47.8291" lon="7.13022">
        <ele>544.40002441406</ele>
        <time>2023-05-21T10:05:27.000Z</time>
      </trkpt>
      <trkpt lat="47.82909" lon="7.13022">
        <ele>544.79998779297</ele>
        <time>2023-05-21T10:05:28.000Z</time>
      </trkpt>
      <trkpt lat="47.82909" lon="7.13023">
        <ele>545.20001220703</ele>
        <time>2023-05-21T10:05:29.000Z</time>
      </trkpt>
      <trkpt lat="47.82907" lon="7.13025">
        <ele>545.79998779297</ele>
        <time>2023-05-21T10:05:30.000Z</time>
      </trkpt>
      <trkpt lat="47.82906" lon="7.13027">
        <ele>546.20001220703</ele>
        <time>2023-05-21T10:05:31.000Z</time>
      </trkpt>
      <trkpt lat="47.82899" lon="7.13032">
        <ele>546.59997558594</ele>
        <time>2023-05-21T10:05:33.000Z</time>
      </trkpt>
      <trkpt lat="47.82896" lon="7.13035">
        <ele>547</ele>
        <time>2023-05-21T10:05:34.000Z</time>
      </trkpt>
      <trkpt lat="47.82894" lon="7.13038">
        <ele>547.40002441406</ele>
        <time>2023-05-21T10:05:35.000Z</time>
      </trkpt>
      <trkpt lat="47.82891" lon="7.1304">
        <ele>547.79998779297</ele>
        <time>2023-05-21T10:05:36.000Z</time>
      </trkpt>
      <trkpt lat="47.82888" lon="7.13042">
        <ele>548.20001220703</ele>
        <time>2023-05-21T10:05:37.000Z</time>
      </trkpt>
      <trkpt lat="47.82882" lon="7.13049">
        <ele>548.59997558594</ele>
        <time>2023-05-21T10:05:40.000Z</time>
      </trkpt>
      <trkpt lat="47.82881" lon="7.1305">
        <ele>549</ele>
        <time>2023-05-21T10:05:41.000Z</time>
      </trkpt>
      <trkpt lat="47.82879" lon="7.13051">
        <ele>549.40002441406</ele>
        <time>2023-05-21T10:05:42.000Z</time>
      </trkpt>
      <trkpt lat="47.82878" lon="7.13052">
        <ele>550</ele>
        <time>2023-05-21T10:05:43.000Z</time>
      </trkpt>
      <trkpt lat="47.82876" lon="7.13052">
        <ele>550.40002441406</ele>
        <time>2023-05-21T10:05:44.000Z</time>
      </trkpt>
      <trkpt lat="47.82873" lon="7.13053">
        <ele>550.40002441406</ele>
        <time>2023-05-21T10:05:46.000Z</time>
      </trkpt>
      <trkpt lat="47.82872" lon="7.13054">
        <ele>550.79998779297</ele>
        <time>2023-05-21T10:05:47.000Z</time>
      </trkpt>
      <trkpt lat="47.8287" lon="7.13056">
        <ele>551.20001220703</ele>
        <time>2023-05-21T10:05:48.000Z</time>
      </trkpt>
      <trkpt lat="47.82868" lon="7.13057">
        <ele>551.59997558594</ele>
        <time>2023-05-21T10:05:49.000Z</time>
      </trkpt>
      <trkpt lat="47.82865" lon="7.13057">
        <ele>552.20001220703</ele>
        <time>2023-05-21T10:05:50.000Z</time>
      </trkpt>
      <trkpt lat="47.82862" lon="7.13059">
        <ele>552.59997558594</ele>
        <time>2023-05-21T10:05:51.000Z</time>
      </trkpt>
      <trkpt lat="47.82849" lon="7.13074">
        <ele>553</ele>
        <time>2023-05-21T10:05:56.000Z</time>
      </trkpt>
      <trkpt lat="47.82847" lon="7.13077">
        <ele>553.40002441406</ele>
        <time>2023-05-21T10:05:57.000Z</time>
      </trkpt>
      <trkpt lat="47.82845" lon="7.1308">
        <ele>553.79998779297</ele>
        <time>2023-05-21T10:05:58.000Z</time>
      </trkpt>
      <trkpt lat="47.82842" lon="7.13084">
        <ele>554.20001220703</ele>
        <time>2023-05-21T10:05:59.000Z</time>
      </trkpt>
      <trkpt lat="47.82839" lon="7.13088">
        <ele>554.59997558594</ele>
        <time>2023-05-21T10:06:00.000Z</time>
      </trkpt>
      <trkpt lat="47.82834" lon="7.13101">
        <ele>555.20001220703</ele>
        <time>2023-05-21T10:06:03.000Z</time>
      </trkpt>
      <trkpt lat="47.82832" lon="7.13105">
        <ele>555.59997558594</ele>
        <time>2023-05-21T10:06:04.000Z</time>
      </trkpt>
      <trkpt lat="47.8283" lon="7.13109">
        <ele>556</ele>
        <time>2023-05-21T10:06:05.000Z</time>
      </trkpt>
      <trkpt lat="47.82829" lon="7.13113">
        <ele>556.40002441406</ele>
        <time>2023-05-21T10:06:06.000Z</time>
      </trkpt>
      <trkpt lat="47.82828" lon="7.13116">
        <ele>557</ele>
        <time>2023-05-21T10:06:07.000Z</time>
      </trkpt>
      <trkpt lat="47.82825" lon="7.13122">
        <ele>557.40002441406</ele>
        <time>2023-05-21T10:06:09.000Z</time>
      </trkpt>
      <trkpt lat="47.82824" lon="7.13125">
        <ele>557.79998779297</ele>
        <time>2023-05-21T10:06:10.000Z</time>
      </trkpt>
      <trkpt lat="47.82822" lon="7.13128">
        <ele>558.20001220703</ele>
        <time>2023-05-21T10:06:11.000Z</time>
      </trkpt>
      <trkpt lat="47.82821" lon="7.13132">
        <ele>558.59997558594</ele>
        <time>2023-05-21T10:06:12.000Z</time>
      </trkpt>
      <trkpt lat="47.82819" lon="7.13135">
        <ele>559</ele>
        <time>2023-05-21T10:06:13.000Z</time>
      </trkpt>
      <trkpt lat="47.82816" lon="7.13142">
        <ele>559.40002441406</ele>
        <time>2023-05-21T10:06:15.000Z</time>
      </trkpt>
      <trkpt lat="47.82815" lon="7.13144">
        <ele>560.20001220703</ele>
        <time>2023-05-21T10:06:16.000Z</time>
      </trkpt>
      <trkpt lat="47.82813" lon="7.13149">
        <ele>560.59997558594</ele>
        <time>2023-05-21T10:06:17.000Z</time>
      </trkpt>
      <trkpt lat="47.82811" lon="7.13153">
        <ele>561.20001220703</ele>
        <time>2023-05-21T10:06:18.000Z</time>
      </trkpt>
      <trkpt lat="47.82805" lon="7.13166">
        <ele>561.59997558594</ele>
        <time>2023-05-21T10:06:22.000Z</time>
      </trkpt>
      <trkpt lat="47.82803" lon="7.1317">
        <ele>562</ele>
        <time>2023-05-21T10:06:23.000Z</time>
      </trkpt>
      <trkpt lat="47.82801" lon="7.13174">
        <ele>562.40002441406</ele>
        <time>2023-05-21T10:06:24.000Z</time>
      </trkpt>
      <trkpt lat="47.828" lon="7.13177">
        <ele>562.79998779297</ele>
        <time>2023-05-21T10:06:25.000Z</time>
      </trkpt>
      <trkpt lat="47.828" lon="7.1318">
        <ele>563.20001220703</ele>
        <time>2023-05-21T10:06:26.000Z</time>
      </trkpt>
      <trkpt lat="47.82798" lon="7.13187">
        <ele>563.20001220703</ele>
        <time>2023-05-21T10:06:28.000Z</time>
      </trkpt>
      <trkpt lat="47.82797" lon="7.1319">
        <ele>563.59997558594</ele>
        <time>2023-05-21T10:06:29.000Z</time>
      </trkpt>
      <trkpt lat="47.82796" lon="7.13193">
        <ele>564</ele>
        <time>2023-05-21T10:06:30.000Z</time>
      </trkpt>
      <trkpt lat="47.82795" lon="7.13196">
        <ele>564.40002441406</ele>
        <time>2023-05-21T10:06:31.000Z</time>
      </trkpt>
      <trkpt lat="47.82795" lon="7.13199">
        <ele>564.79998779297</ele>
        <time>2023-05-21T10:06:32.000Z</time>
      </trkpt>
      <trkpt lat="47.82794" lon="7.13201">
        <ele>565.20001220703</ele>
        <time>2023-05-21T10:06:33.000Z</time>
      </trkpt>
      <trkpt lat="47.82793" lon="7.13204">
        <ele>565.20001220703</ele>
        <time>2023-05-21T10:06:34.000Z</time>
      </trkpt>
      <trkpt lat="47.8279" lon="7.13213">
        <ele>565.59997558594</ele>
        <time>2023-05-21T10:06:37.000Z</time>
      </trkpt>
      <trkpt lat="47.82788" lon="7.13216">
        <ele>566</ele>
        <time>2023-05-21T10:06:38.000Z</time>
      </trkpt>
      <trkpt lat="47.82787" lon="7.13219">
        <ele>566.40002441406</ele>
        <time>2023-05-21T10:06:39.000Z</time>
      </trkpt>
      <trkpt lat="47.82785" lon="7.13221">
        <ele>566.79998779297</ele>
        <time>2023-05-21T10:06:40.000Z</time>
      </trkpt>
      <trkpt lat="47.82784" lon="7.13224">
        <ele>567.20001220703</ele>
        <time>2023-05-21T10:06:41.000Z</time>
      </trkpt>
      <trkpt lat="47.82781" lon="7.13229">
        <ele>567.59997558594</ele>
        <time>2023-05-21T10:06:43.000Z</time>
      </trkpt>
      <trkpt lat="47.8278" lon="7.13232">
        <ele>568</ele>
        <time>2023-05-21T10:06:44.000Z</time>
      </trkpt>
      <trkpt lat="47.82778" lon="7.13236">
        <ele>568.40002441406</ele>
        <time>2023-05-21T10:06:45.000Z</time>
      </trkpt>
      <trkpt lat="47.82775" lon="7.1324">
        <ele>569</ele>
        <time>2023-05-21T10:06:46.000Z</time>
      </trkpt>
      <trkpt lat="47.82773" lon="7.13244">
        <ele>569.40002441406</ele>
        <time>2023-05-21T10:06:47.000Z</time>
      </trkpt>
      <trkpt lat="47.82764" lon="7.13257">
        <ele>569.79998779297</ele>
        <time>2023-05-21T10:06:52.000Z</time>
      </trkpt>
      <trkpt lat="47.82763" lon="7.13258">
        <ele>570.20001220703</ele>
        <time>2023-05-21T10:06:53.000Z</time>
      </trkpt>
      <trkpt lat="47.82762" lon="7.1326">
        <ele>570.59997558594</ele>
        <time>2023-05-21T10:06:54.000Z</time>
      </trkpt>
      <trkpt lat="47.8276" lon="7.13261">
        <ele>571</ele>
        <time>2023-05-21T10:06:55.000Z</time>
      </trkpt>
      <trkpt lat="47.82759" lon="7.13263">
        <ele>571.40002441406</ele>
        <time>2023-05-21T10:06:56.000Z</time>
      </trkpt>
      <trkpt lat="47.82755" lon="7.13266">
        <ele>571.40002441406</ele>
        <time>2023-05-21T10:06:58.000Z</time>
      </trkpt>
      <trkpt lat="47.82751" lon="7.1327">
        <ele>571.79998779297</ele>
        <time>2023-05-21T10:07:00.000Z</time>
      </trkpt>
      <trkpt lat="47.82749" lon="7.13271">
        <ele>572.20001220703</ele>
        <time>2023-05-21T10:07:01.000Z</time>
      </trkpt>
      <trkpt lat="47.82747" lon="7.13271">
        <ele>572.59997558594</ele>
        <time>2023-05-21T10:07:02.000Z</time>
      </trkpt>
      <trkpt lat="47.82746" lon="7.13272">
        <ele>573</ele>
        <time>2023-05-21T10:07:03.000Z</time>
      </trkpt>
      <trkpt lat="47.82744" lon="7.13272">
        <ele>573.40002441406</ele>
        <time>2023-05-21T10:07:04.000Z</time>
      </trkpt>
      <trkpt lat="47.82728" lon="7.13266">
        <ele>573.40002441406</ele>
        <time>2023-05-21T10:07:12.000Z</time>
      </trkpt>
      <trkpt lat="47.82726" lon="7.13265">
        <ele>573.79998779297</ele>
        <time>2023-05-21T10:07:13.000Z</time>
      </trkpt>
      <trkpt lat="47.82724" lon="7.13264">
        <ele>574.20001220703</ele>
        <time>2023-05-21T10:07:14.000Z</time>
      </trkpt>
      <trkpt lat="47.82721" lon="7.13261">
        <ele>575.20001220703</ele>
        <time>2023-05-21T10:07:15.000Z</time>
      </trkpt>
      <trkpt lat="47.82721" lon="7.13261">
        <ele>575.20001220703</ele>
        <time>2023-05-21T10:07:16.000Z</time>
      </trkpt>
      <trkpt lat="47.82719" lon="7.13259">
        <ele>575.59997558594</ele>
        <time>2023-05-21T10:07:17.000Z</time>
      </trkpt>
      <trkpt lat="47.82712" lon="7.13251">
        <ele>575.59997558594</ele>
        <time>2023-05-21T10:07:22.000Z</time>
      </trkpt>
      <trkpt lat="47.8271" lon="7.13249">
        <ele>576</ele>
        <time>2023-05-21T10:07:23.000Z</time>
      </trkpt>
      <trkpt lat="47.82707" lon="7.13247">
        <ele>576.59997558594</ele>
        <time>2023-05-21T10:07:24.000Z</time>
      </trkpt>
      <trkpt lat="47.82705" lon="7.13246">
        <ele>577</ele>
        <time>2023-05-21T10:07:25.000Z</time>
      </trkpt>
      <trkpt lat="47.82703" lon="7.13245">
        <ele>577.40002441406</ele>
        <time>2023-05-21T10:07:26.000Z</time>
      </trkpt>
      <trkpt lat="47.82701" lon="7.13244">
        <ele>577.79998779297</ele>
        <time>2023-05-21T10:07:27.000Z</time>
      </trkpt>
      <trkpt lat="47.827" lon="7.13244">
        <ele>577.79998779297</ele>
        <time>2023-05-21T10:07:28.000Z</time>
      </trkpt>
      <trkpt lat="47.827" lon="7.13244">
        <ele>578.59997558594</ele>
        <time>2023-05-21T10:07:29.000Z</time>
      </trkpt>
      <trkpt lat="47.82699" lon="7.13245">
        <ele>580</ele>
        <time>2023-05-21T10:07:47.000Z</time>
      </trkpt>
      <trkpt lat="47.82695" lon="7.13244">
        <ele>580</ele>
        <time>2023-05-21T10:07:49.000Z</time>
      </trkpt>
      <trkpt lat="47.82689" lon="7.13245">
        <ele>580</ele>
        <time>2023-05-21T10:07:53.000Z</time>
      </trkpt>
      <trkpt lat="47.82688" lon="7.13246">
        <ele>580</ele>
        <time>2023-05-21T10:07:54.000Z</time>
      </trkpt>
      <trkpt lat="47.82686" lon="7.13247">
        <ele>580</ele>
        <time>2023-05-21T10:07:55.000Z</time>
      </trkpt>
      <trkpt lat="47.82684" lon="7.1325">
        <ele>580</ele>
        <time>2023-05-21T10:07:57.000Z</time>
      </trkpt>
      <trkpt lat="47.82682" lon="7.13253">
        <ele>580</ele>
        <time>2023-05-21T10:07:58.000Z</time>
      </trkpt>
      <trkpt lat="47.82679" lon="7.13258">
        <ele>580.40002441406</ele>
        <time>2023-05-21T10:08:00.000Z</time>
      </trkpt>
      <trkpt lat="47.82677" lon="7.13261">
        <ele>580.79998779297</ele>
        <time>2023-05-21T10:08:01.000Z</time>
      </trkpt>
      <trkpt lat="47.82675" lon="7.13264">
        <ele>581.40002441406</ele>
        <time>2023-05-21T10:08:02.000Z</time>
      </trkpt>
      <trkpt lat="47.82673" lon="7.13268">
        <ele>581.79998779297</ele>
        <time>2023-05-21T10:08:03.000Z</time>
      </trkpt>
      <trkpt lat="47.82671" lon="7.13271">
        <ele>582.20001220703</ele>
        <time>2023-05-21T10:08:04.000Z</time>
      </trkpt>
      <trkpt lat="47.82667" lon="7.13276">
        <ele>582.59997558594</ele>
        <time>2023-05-21T10:08:06.000Z</time>
      </trkpt>
      <trkpt lat="47.82665" lon="7.1328">
        <ele>583.20001220703</ele>
        <time>2023-05-21T10:08:07.000Z</time>
      </trkpt>
      <trkpt lat="47.82663" lon="7.13283">
        <ele>583.59997558594</ele>
        <time>2023-05-21T10:08:08.000Z</time>
      </trkpt>
      <trkpt lat="47.82661" lon="7.13286">
        <ele>584</ele>
        <time>2023-05-21T10:08:09.000Z</time>
      </trkpt>
      <trkpt lat="47.82659" lon="7.13289">
        <ele>584.40002441406</ele>
        <time>2023-05-21T10:08:10.000Z</time>
      </trkpt>
      <trkpt lat="47.82658" lon="7.13292">
        <ele>584.79998779297</ele>
        <time>2023-05-21T10:08:11.000Z</time>
      </trkpt>
      <trkpt lat="47.82656" lon="7.13295">
        <ele>585.20001220703</ele>
        <time>2023-05-21T10:08:12.000Z</time>
      </trkpt>
      <trkpt lat="47.82655" lon="7.13298">
        <ele>585.59997558594</ele>
        <time>2023-05-21T10:08:13.000Z</time>
      </trkpt>
      <trkpt lat="47.82654" lon="7.13301">
        <ele>586</ele>
        <time>2023-05-21T10:08:14.000Z</time>
      </trkpt>
      <trkpt lat="47.82652" lon="7.13304">
        <ele>586.40002441406</ele>
        <time>2023-05-21T10:08:15.000Z</time>
      </trkpt>
      <trkpt lat="47.82651" lon="7.13306">
        <ele>586.40002441406</ele>
        <time>2023-05-21T10:08:16.000Z</time>
      </trkpt>
      <trkpt lat="47.82648" lon="7.13311">
        <ele>586.79998779297</ele>
        <time>2023-05-21T10:08:18.000Z</time>
      </trkpt>
      <trkpt lat="47.82647" lon="7.13314">
        <ele>587.79998779297</ele>
        <time>2023-05-21T10:08:19.000Z</time>
      </trkpt>
      <trkpt lat="47.82645" lon="7.13317">
        <ele>588.20001220703</ele>
        <time>2023-05-21T10:08:20.000Z</time>
      </trkpt>
      <trkpt lat="47.82644" lon="7.13319">
        <ele>588.59997558594</ele>
        <time>2023-05-21T10:08:21.000Z</time>
      </trkpt>
      <trkpt lat="47.82642" lon="7.13326">
        <ele>588.59997558594</ele>
        <time>2023-05-21T10:08:24.000Z</time>
      </trkpt>
      <trkpt lat="47.8264" lon="7.13328">
        <ele>589</ele>
        <time>2023-05-21T10:08:25.000Z</time>
      </trkpt>
      <trkpt lat="47.82639" lon="7.13331">
        <ele>589.40002441406</ele>
        <time>2023-05-21T10:08:26.000Z</time>
      </trkpt>
      <trkpt lat="47.82637" lon="7.13334">
        <ele>590</ele>
        <time>2023-05-21T10:08:27.000Z</time>
      </trkpt>
      <trkpt lat="47.82636" lon="7.13337">
        <ele>590.40002441406</ele>
        <time>2023-05-21T10:08:28.000Z</time>
      </trkpt>
      <trkpt lat="47.82635" lon="7.1334">
        <ele>590.79998779297</ele>
        <time>2023-05-21T10:08:29.000Z</time>
      </trkpt>
      <trkpt lat="47.82633" lon="7.13343">
        <ele>590.79998779297</ele>
        <time>2023-05-21T10:08:30.000Z</time>
      </trkpt>
      <trkpt lat="47.82623" lon="7.13358">
        <ele>590.79998779297</ele>
        <time>2023-05-21T10:08:36.000Z</time>
      </trkpt>
      <trkpt lat="47.82622" lon="7.13361">
        <ele>591.20001220703</ele>
        <time>2023-05-21T10:08:37.000Z</time>
      </trkpt>
      <trkpt lat="47.8262" lon="7.13365">
        <ele>591.59997558594</ele>
        <time>2023-05-21T10:08:38.000Z</time>
      </trkpt>
      <trkpt lat="47.82619" lon="7.13368">
        <ele>592.20001220703</ele>
        <time>2023-05-21T10:08:39.000Z</time>
      </trkpt>
      <trkpt lat="47.82617" lon="7.13371">
        <ele>592.59997558594</ele>
        <time>2023-05-21T10:08:40.000Z</time>
      </trkpt>
      <trkpt lat="47.82615" lon="7.13374">
        <ele>593</ele>
        <time>2023-05-21T10:08:41.000Z</time>
      </trkpt>
      <trkpt lat="47.82612" lon="7.13379">
        <ele>593</ele>
        <time>2023-05-21T10:08:43.000Z</time>
      </trkpt>
      <trkpt lat="47.8261" lon="7.13381">
        <ele>593.40002441406</ele>
        <time>2023-05-21T10:08:44.000Z</time>
      </trkpt>
      <trkpt lat="47.82608" lon="7.13383">
        <ele>593.79998779297</ele>
        <time>2023-05-21T10:08:45.000Z</time>
      </trkpt>
      <trkpt lat="47.82607" lon="7.13386">
        <ele>594.40002441406</ele>
        <time>2023-05-21T10:08:46.000Z</time>
      </trkpt>
      <trkpt lat="47.82605" lon="7.13389">
        <ele>594.79998779297</ele>
        <time>2023-05-21T10:08:47.000Z</time>
      </trkpt>
      <trkpt lat="47.82604" lon="7.13391">
        <ele>595.20001220703</ele>
        <time>2023-05-21T10:08:48.000Z</time>
      </trkpt>
      <trkpt lat="47.82599" lon="7.13399">
        <ele>595.59997558594</ele>
        <time>2023-05-21T10:08:51.000Z</time>
      </trkpt>
      <trkpt lat="47.82598" lon="7.13402">
        <ele>596</ele>
        <time>2023-05-21T10:08:52.000Z</time>
      </trkpt>
      <trkpt lat="47.82596" lon="7.13405">
        <ele>596.40002441406</ele>
        <time>2023-05-21T10:08:53.000Z</time>
      </trkpt>
      <trkpt lat="47.82595" lon="7.13408">
        <ele>596.79998779297</ele>
        <time>2023-05-21T10:08:54.000Z</time>
      </trkpt>
      <trkpt lat="47.82595" lon="7.13411">
        <ele>597.20001220703</ele>
        <time>2023-05-21T10:08:55.000Z</time>
      </trkpt>
      <trkpt lat="47.82593" lon="7.13413">
        <ele>597.20001220703</ele>
        <time>2023-05-21T10:08:56.000Z</time>
      </trkpt>
      <trkpt lat="47.82592" lon="7.13418">
        <ele>597.20001220703</ele>
        <time>2023-05-21T10:08:59.000Z</time>
      </trkpt>
      <trkpt lat="47.82588" lon="7.13425">
        <ele>597.59997558594</ele>
        <time>2023-05-21T10:09:04.000Z</time>
      </trkpt>
      <trkpt lat="47.82587" lon="7.13426">
        <ele>598</ele>
        <time>2023-05-21T10:09:05.000Z</time>
      </trkpt>
      <trkpt lat="47.82585" lon="7.13426">
        <ele>598.40002441406</ele>
        <time>2023-05-21T10:09:06.000Z</time>
      </trkpt>
      <trkpt lat="47.82583" lon="7.13426">
        <ele>598.79998779297</ele>
        <time>2023-05-21T10:09:07.000Z</time>
      </trkpt>
      <trkpt lat="47.82582" lon="7.13426">
        <ele>599.20001220703</ele>
        <time>2023-05-21T10:09:08.000Z</time>
      </trkpt>
      <trkpt lat="47.82579" lon="7.13426">
        <ele>599.59997558594</ele>
        <time>2023-05-21T10:09:12.000Z</time>
      </trkpt>
      <trkpt lat="47.82577" lon="7.13426">
        <ele>600.20001220703</ele>
        <time>2023-05-21T10:09:13.000Z</time>
      </trkpt>
      <trkpt lat="47.82576" lon="7.13426">
        <ele>600.59997558594</ele>
        <time>2023-05-21T10:09:14.000Z</time>
      </trkpt>
      <trkpt lat="47.82574" lon="7.13426">
        <ele>601</ele>
        <time>2023-05-21T10:09:15.000Z</time>
      </trkpt>
      <trkpt lat="47.82572" lon="7.13426">
        <ele>601.40002441406</ele>
        <time>2023-05-21T10:09:16.000Z</time>
      </trkpt>
      <trkpt lat="47.82568" lon="7.13423">
        <ele>601.40002441406</ele>
        <time>2023-05-21T10:09:19.000Z</time>
      </trkpt>
      <trkpt lat="47.82567" lon="7.13419">
        <ele>601.79998779297</ele>
        <time>2023-05-21T10:09:21.000Z</time>
      </trkpt>
      <trkpt lat="47.82566" lon="7.13418">
        <ele>602.40002441406</ele>
        <time>2023-05-21T10:09:22.000Z</time>
      </trkpt>
      <trkpt lat="47.82564" lon="7.13417">
        <ele>602.79998779297</ele>
        <time>2023-05-21T10:09:23.000Z</time>
      </trkpt>
      <trkpt lat="47.82563" lon="7.13416">
        <ele>603.20001220703</ele>
        <time>2023-05-21T10:09:24.000Z</time>
      </trkpt>
      <trkpt lat="47.82562" lon="7.13414">
        <ele>603.59997558594</ele>
        <time>2023-05-21T10:09:25.000Z</time>
      </trkpt>
      <trkpt lat="47.82557" lon="7.13402">
        <ele>604</ele>
        <time>2023-05-21T10:09:31.000Z</time>
      </trkpt>
      <trkpt lat="47.82556" lon="7.134">
        <ele>604.79998779297</ele>
        <time>2023-05-21T10:09:32.000Z</time>
      </trkpt>
      <trkpt lat="47.82556" lon="7.13398">
        <ele>605.40002441406</ele>
        <time>2023-05-21T10:09:33.000Z</time>
      </trkpt>
      <trkpt lat="47.82555" lon="7.13396">
        <ele>605.79998779297</ele>
        <time>2023-05-21T10:09:34.000Z</time>
      </trkpt>
      <trkpt lat="47.8255" lon="7.13386">
        <ele>606.20001220703</ele>
        <time>2023-05-21T10:09:39.000Z</time>
      </trkpt>
      <trkpt lat="47.8255" lon="7.13384">
        <ele>606.59997558594</ele>
        <time>2023-05-21T10:09:40.000Z</time>
      </trkpt>
      <trkpt lat="47.82549" lon="7.13383">
        <ele>607</ele>
        <time>2023-05-21T10:09:41.000Z</time>
      </trkpt>
      <trkpt lat="47.82548" lon="7.13381">
        <ele>607.40002441406</ele>
        <time>2023-05-21T10:09:42.000Z</time>
      </trkpt>
      <trkpt lat="47.82547" lon="7.13379">
        <ele>607.79998779297</ele>
        <time>2023-05-21T10:09:43.000Z</time>
      </trkpt>
      <trkpt lat="47.82546" lon="7.13377">
        <ele>607.79998779297</ele>
        <time>2023-05-21T10:09:44.000Z</time>
      </trkpt>
      <trkpt lat="47.82543" lon="7.13365">
        <ele>608.20001220703</ele>
        <time>2023-05-21T10:09:51.000Z</time>
      </trkpt>
      <trkpt lat="47.82543" lon="7.13364">
        <ele>608.59997558594</ele>
        <time>2023-05-21T10:09:52.000Z</time>
      </trkpt>
      <trkpt lat="47.82543" lon="7.13362">
        <ele>609</ele>
        <time>2023-05-21T10:09:53.000Z</time>
      </trkpt>
      <trkpt lat="47.82542" lon="7.1336">
        <ele>609.40002441406</ele>
        <time>2023-05-21T10:09:54.000Z</time>
      </trkpt>
      <trkpt lat="47.82542" lon="7.13358">
        <ele>609.79998779297</ele>
        <time>2023-05-21T10:09:55.000Z</time>
      </trkpt>
      <trkpt lat="47.82542" lon="7.13354">
        <ele>609.79998779297</ele>
        <time>2023-05-21T10:09:57.000Z</time>
      </trkpt>
      <trkpt lat="47.82539" lon="7.13347">
        <ele>609.79998779297</ele>
        <time>2023-05-21T10:10:03.000Z</time>
      </trkpt>
      <trkpt lat="47.82538" lon="7.13337">
        <ele>610.20001220703</ele>
        <time>2023-05-21T10:10:07.000Z</time>
      </trkpt>
      <trkpt lat="47.82538" lon="7.13335">
        <ele>610.59997558594</ele>
        <time>2023-05-21T10:10:08.000Z</time>
      </trkpt>
      <trkpt lat="47.82538" lon="7.13333">
        <ele>611.20001220703</ele>
        <time>2023-05-21T10:10:09.000Z</time>
      </trkpt>
      <trkpt lat="47.82538" lon="7.13332">
        <ele>612</ele>
        <time>2023-05-21T10:10:10.000Z</time>
      </trkpt>
      <trkpt lat="47.82537" lon="7.1332">
        <ele>612</ele>
        <time>2023-05-21T10:10:17.000Z</time>
      </trkpt>
      <trkpt lat="47.82538" lon="7.13319">
        <ele>612.40002441406</ele>
        <time>2023-05-21T10:10:18.000Z</time>
      </trkpt>
      <trkpt lat="47.82538" lon="7.13317">
        <ele>612.79998779297</ele>
        <time>2023-05-21T10:10:19.000Z</time>
      </trkpt>
      <trkpt lat="47.82538" lon="7.13315">
        <ele>613.20001220703</ele>
        <time>2023-05-21T10:10:20.000Z</time>
      </trkpt>
      <trkpt lat="47.82538" lon="7.13313">
        <ele>613.59997558594</ele>
        <time>2023-05-21T10:10:21.000Z</time>
      </trkpt>
      <trkpt lat="47.82538" lon="7.13312">
        <ele>614.20001220703</ele>
        <time>2023-05-21T10:10:22.000Z</time>
      </trkpt>
      <trkpt lat="47.82538" lon="7.13309">
        <ele>614.20001220703</ele>
        <time>2023-05-21T10:10:24.000Z</time>
      </trkpt>
      <trkpt lat="47.82536" lon="7.13299">
        <ele>614.59997558594</ele>
        <time>2023-05-21T10:10:30.000Z</time>
      </trkpt>
      <trkpt lat="47.82536" lon="7.13297">
        <ele>615</ele>
        <time>2023-05-21T10:10:31.000Z</time>
      </trkpt>
      <trkpt lat="47.82536" lon="7.13295">
        <ele>615.40002441406</ele>
        <time>2023-05-21T10:10:32.000Z</time>
      </trkpt>
      <trkpt lat="47.82535" lon="7.13293">
        <ele>615.79998779297</ele>
        <time>2023-05-21T10:10:33.000Z</time>
      </trkpt>
      <trkpt lat="47.82535" lon="7.13292">
        <ele>616.20001220703</ele>
        <time>2023-05-21T10:10:34.000Z</time>
      </trkpt>
      <trkpt lat="47.82533" lon="7.13286">
        <ele>616.20001220703</ele>
        <time>2023-05-21T10:10:38.000Z</time>
      </trkpt>
      <trkpt lat="47.82531" lon="7.1328">
        <ele>616.20001220703</ele>
        <time>2023-05-21T10:10:42.000Z</time>
      </trkpt>
      <trkpt lat="47.82524" lon="7.13269">
        <ele>617.40002441406</ele>
        <time>2023-05-21T10:10:49.000Z</time>
      </trkpt>
      <trkpt lat="47.82523" lon="7.13268">
        <ele>617.79998779297</ele>
        <time>2023-05-21T10:10:50.000Z</time>
      </trkpt>
      <trkpt lat="47.82522" lon="7.13266">
        <ele>618.20001220703</ele>
        <time>2023-05-21T10:10:51.000Z</time>
      </trkpt>
      <trkpt lat="47.82519" lon="7.13261">
        <ele>618.20001220703</ele>
        <time>2023-05-21T10:10:55.000Z</time>
      </trkpt>
      <trkpt lat="47.82516" lon="7.13254">
        <ele>618.20001220703</ele>
        <time>2023-05-21T10:10:58.000Z</time>
      </trkpt>
      <trkpt lat="47.82512" lon="7.13247">
        <ele>618.59997558594</ele>
        <time>2023-05-21T10:11:01.000Z</time>
      </trkpt>
      <trkpt lat="47.82511" lon="7.13245">
        <ele>619</ele>
        <time>2023-05-21T10:11:02.000Z</time>
      </trkpt>
      <trkpt lat="47.8251" lon="7.13244">
        <ele>619.40002441406</ele>
        <time>2023-05-21T10:11:03.000Z</time>
      </trkpt>
      <trkpt lat="47.8251" lon="7.13242">
        <ele>619.79998779297</ele>
        <time>2023-05-21T10:11:04.000Z</time>
      </trkpt>
      <trkpt lat="47.82509" lon="7.13241">
        <ele>620.20001220703</ele>
        <time>2023-05-21T10:11:05.000Z</time>
      </trkpt>
      <trkpt lat="47.82506" lon="7.13236">
        <ele>620.20001220703</ele>
        <time>2023-05-21T10:11:08.000Z</time>
      </trkpt>
      <trkpt lat="47.82503" lon="7.13231">
        <ele>620.79998779297</ele>
        <time>2023-05-21T10:11:11.000Z</time>
      </trkpt>
      <trkpt lat="47.82502" lon="7.1323">
        <ele>621.20001220703</ele>
        <time>2023-05-21T10:11:12.000Z</time>
      </trkpt>
      <trkpt lat="47.82501" lon="7.13229">
        <ele>621.59997558594</ele>
        <time>2023-05-21T10:11:13.000Z</time>
      </trkpt>
      <trkpt lat="47.825" lon="7.13227">
        <ele>622</ele>
        <time>2023-05-21T10:11:14.000Z</time>
      </trkpt>
      <trkpt lat="47.825" lon="7.13226">
        <ele>622.40002441406</ele>
        <time>2023-05-21T10:11:15.000Z</time>
      </trkpt>
      <trkpt lat="47.82493" lon="7.13219">
        <ele>622.40002441406</ele>
        <time>2023-05-21T10:11:22.000Z</time>
      </trkpt>
      <trkpt lat="47.82491" lon="7.13215">
        <ele>623.20001220703</ele>
        <time>2023-05-21T10:11:24.000Z</time>
      </trkpt>
      <trkpt lat="47.8249" lon="7.13214">
        <ele>623.59997558594</ele>
        <time>2023-05-21T10:11:25.000Z</time>
      </trkpt>
      <trkpt lat="47.82489" lon="7.13213">
        <ele>624.20001220703</ele>
        <time>2023-05-21T10:11:26.000Z</time>
      </trkpt>
      <trkpt lat="47.82488" lon="7.13211">
        <ele>624.59997558594</ele>
        <time>2023-05-21T10:11:27.000Z</time>
      </trkpt>
      <trkpt lat="47.82485" lon="7.13205">
        <ele>624.59997558594</ele>
        <time>2023-05-21T10:11:30.000Z</time>
      </trkpt>
      <trkpt lat="47.82479" lon="7.13198">
        <ele>625</ele>
        <time>2023-05-21T10:11:35.000Z</time>
      </trkpt>
      <trkpt lat="47.82478" lon="7.13196">
        <ele>625.40002441406</ele>
        <time>2023-05-21T10:11:36.000Z</time>
      </trkpt>
      <trkpt lat="47.82476" lon="7.13195">
        <ele>625.79998779297</ele>
        <time>2023-05-21T10:11:37.000Z</time>
      </trkpt>
      <trkpt lat="47.82475" lon="7.13194">
        <ele>626.20001220703</ele>
        <time>2023-05-21T10:11:38.000Z</time>
      </trkpt>
      <trkpt lat="47.82473" lon="7.13192">
        <ele>626.59997558594</ele>
        <time>2023-05-21T10:11:39.000Z</time>
      </trkpt>
      <trkpt lat="47.82469" lon="7.13188">
        <ele>626.59997558594</ele>
        <time>2023-05-21T10:11:41.000Z</time>
      </trkpt>
      <trkpt lat="47.82468" lon="7.13186">
        <ele>626.59997558594</ele>
        <time>2023-05-21T10:11:42.000Z</time>
      </trkpt>
      <trkpt lat="47.82462" lon="7.1318">
        <ele>626.59997558594</ele>
        <time>2023-05-21T10:11:46.000Z</time>
      </trkpt>
      <trkpt lat="47.82459" lon="7.13176">
        <ele>627.40002441406</ele>
        <time>2023-05-21T10:11:48.000Z</time>
      </trkpt>
      <trkpt lat="47.82457" lon="7.13175">
        <ele>627.79998779297</ele>
        <time>2023-05-21T10:11:49.000Z</time>
      </trkpt>
      <trkpt lat="47.82456" lon="7.13174">
        <ele>628.20001220703</ele>
        <time>2023-05-21T10:11:50.000Z</time>
      </trkpt>
      <trkpt lat="47.82455" lon="7.13173">
        <ele>628.79998779297</ele>
        <time>2023-05-21T10:11:51.000Z</time>
      </trkpt>
      <trkpt lat="47.82452" lon="7.1317">
        <ele>628.79998779297</ele>
        <time>2023-05-21T10:11:53.000Z</time>
      </trkpt>
      <trkpt lat="47.8245" lon="7.13168">
        <ele>628.79998779297</ele>
        <time>2023-05-21T10:11:55.000Z</time>
      </trkpt>
      <trkpt lat="47.82446" lon="7.13161">
        <ele>629.20001220703</ele>
        <time>2023-05-21T10:12:00.000Z</time>
      </trkpt>
      <trkpt lat="47.82445" lon="7.1316">
        <ele>629.59997558594</ele>
        <time>2023-05-21T10:12:01.000Z</time>
      </trkpt>
      <trkpt lat="47.82444" lon="7.13158">
        <ele>630</ele>
        <time>2023-05-21T10:12:02.000Z</time>
      </trkpt>
      <trkpt lat="47.82443" lon="7.13157">
        <ele>630.40002441406</ele>
        <time>2023-05-21T10:12:03.000Z</time>
      </trkpt>
      <trkpt lat="47.82442" lon="7.13154">
        <ele>630.79998779297</ele>
        <time>2023-05-21T10:12:04.000Z</time>
      </trkpt>
      <trkpt lat="47.82437" lon="7.13149">
        <ele>630.79998779297</ele>
        <time>2023-05-21T10:12:08.000Z</time>
      </trkpt>
      <trkpt lat="47.82435" lon="7.13145">
        <ele>630.79998779297</ele>
        <time>2023-05-21T10:12:10.000Z</time>
      </trkpt>
      <trkpt lat="47.82434" lon="7.1314">
        <ele>630.79998779297</ele>
        <time>2023-05-21T10:12:13.000Z</time>
      </trkpt>
      <trkpt lat="47.82433" lon="7.13136">
        <ele>631.20001220703</ele>
        <time>2023-05-21T10:12:15.000Z</time>
      </trkpt>
      <trkpt lat="47.82433" lon="7.13134">
        <ele>631.59997558594</ele>
        <time>2023-05-21T10:12:16.000Z</time>
      </trkpt>
      <trkpt lat="47.82433" lon="7.13132">
        <ele>632.20001220703</ele>
        <time>2023-05-21T10:12:17.000Z</time>
      </trkpt>
      <trkpt lat="47.82433" lon="7.1313">
        <ele>632.59997558594</ele>
        <time>2023-05-21T10:12:18.000Z</time>
      </trkpt>
      <trkpt lat="47.82432" lon="7.13129">
        <ele>633</ele>
        <time>2023-05-21T10:12:19.000Z</time>
      </trkpt>
      <trkpt lat="47.82432" lon="7.13126">
        <ele>633</ele>
        <time>2023-05-21T10:12:20.000Z</time>
      </trkpt>
      <trkpt lat="47.82432" lon="7.13107">
        <ele>633</ele>
        <time>2023-05-21T10:12:28.000Z</time>
      </trkpt>
      <trkpt lat="47.82432" lon="7.13095">
        <ele>633</ele>
        <time>2023-05-21T10:12:34.000Z</time>
      </trkpt>
      <trkpt lat="47.82431" lon="7.13094">
        <ele>633</ele>
        <time>2023-05-21T10:12:36.000Z</time>
      </trkpt>
      <trkpt lat="47.82431" lon="7.1309">
        <ele>633</ele>
        <time>2023-05-21T10:13:08.000Z</time>
      </trkpt>
      <trkpt lat="47.82429" lon="7.13087">
        <ele>633</ele>
        <time>2023-05-21T10:13:09.000Z</time>
      </trkpt>
      <trkpt lat="47.82427" lon="7.13064">
        <ele>633</ele>
        <time>2023-05-21T10:13:13.000Z</time>
      </trkpt>
      <trkpt lat="47.8242" lon="7.13044">
        <ele>632.40002441406</ele>
        <time>2023-05-21T10:13:16.000Z</time>
      </trkpt>
      <trkpt lat="47.82417" lon="7.13041">
        <ele>631.79998779297</ele>
        <time>2023-05-21T10:13:17.000Z</time>
      </trkpt>
      <trkpt lat="47.82414" lon="7.1304">
        <ele>631.40002441406</ele>
        <time>2023-05-21T10:13:18.000Z</time>
      </trkpt>
      <trkpt lat="47.82412" lon="7.13039">
        <ele>630.79998779297</ele>
        <time>2023-05-21T10:13:19.000Z</time>
      </trkpt>
      <trkpt lat="47.8241" lon="7.13039">
        <ele>630.40002441406</ele>
        <time>2023-05-21T10:13:20.000Z</time>
      </trkpt>
      <trkpt lat="47.82408" lon="7.1304">
        <ele>629.79998779297</ele>
        <time>2023-05-21T10:13:21.000Z</time>
      </trkpt>
      <trkpt lat="47.82405" lon="7.13042">
        <ele>629.20001220703</ele>
        <time>2023-05-21T10:13:22.000Z</time>
      </trkpt>
      <trkpt lat="47.82403" lon="7.13044">
        <ele>628.79998779297</ele>
        <time>2023-05-21T10:13:23.000Z</time>
      </trkpt>
      <trkpt lat="47.82401" lon="7.13046">
        <ele>628.20001220703</ele>
        <time>2023-05-21T10:13:24.000Z</time>
      </trkpt>
      <trkpt lat="47.82398" lon="7.13047">
        <ele>628.20001220703</ele>
        <time>2023-05-21T10:13:25.000Z</time>
      </trkpt>
      <trkpt lat="47.82382" lon="7.1305">
        <ele>628.20001220703</ele>
        <time>2023-05-21T10:13:31.000Z</time>
      </trkpt>
      <trkpt lat="47.82369" lon="7.13055">
        <ele>628.59997558594</ele>
        <time>2023-05-21T10:13:36.000Z</time>
      </trkpt>
      <trkpt lat="47.82367" lon="7.13056">
        <ele>629.20001220703</ele>
        <time>2023-05-21T10:13:37.000Z</time>
      </trkpt>
      <trkpt lat="47.82365" lon="7.13057">
        <ele>629.59997558594</ele>
        <time>2023-05-21T10:13:38.000Z</time>
      </trkpt>
      <trkpt lat="47.82362" lon="7.13057">
        <ele>630</ele>
        <time>2023-05-21T10:13:39.000Z</time>
      </trkpt>
      <trkpt lat="47.8236" lon="7.13058">
        <ele>630.40002441406</ele>
        <time>2023-05-21T10:13:40.000Z</time>
      </trkpt>
      <trkpt lat="47.82357" lon="7.1306">
        <ele>630.40002441406</ele>
        <time>2023-05-21T10:13:43.000Z</time>
      </trkpt>
      <trkpt lat="47.82354" lon="7.1306">
        <ele>630.79998779297</ele>
        <time>2023-05-21T10:13:45.000Z</time>
      </trkpt>
      <trkpt lat="47.82353" lon="7.1306">
        <ele>631.40002441406</ele>
        <time>2023-05-21T10:13:46.000Z</time>
      </trkpt>
      <trkpt lat="47.82352" lon="7.1306">
        <ele>631.79998779297</ele>
        <time>2023-05-21T10:13:47.000Z</time>
      </trkpt>
      <trkpt lat="47.82352" lon="7.1306">
        <ele>632.20001220703</ele>
        <time>2023-05-21T10:13:48.000Z</time>
      </trkpt>
      <trkpt lat="47.8235" lon="7.13062">
        <ele>632.59997558594</ele>
        <time>2023-05-21T10:13:49.000Z</time>
      </trkpt>
      <trkpt lat="47.82345" lon="7.13064">
        <ele>632.59997558594</ele>
        <time>2023-05-21T10:13:52.000Z</time>
      </trkpt>
      <trkpt lat="47.82334" lon="7.13072">
        <ele>634.40002441406</ele>
        <time>2023-05-21T10:14:00.000Z</time>
      </trkpt>
      <trkpt lat="47.82332" lon="7.13073">
        <ele>634.79998779297</ele>
        <time>2023-05-21T10:14:01.000Z</time>
      </trkpt>
      <trkpt lat="47.82326" lon="7.13074">
        <ele>634.79998779297</ele>
        <time>2023-05-21T10:14:06.000Z</time>
      </trkpt>
      <trkpt lat="47.82323" lon="7.13075">
        <ele>634.79998779297</ele>
        <time>2023-05-21T10:14:07.000Z</time>
      </trkpt>
      <trkpt lat="47.82312" lon="7.13073">
        <ele>634.79998779297</ele>
        <time>2023-05-21T10:14:10.000Z</time>
      </trkpt>
      <trkpt lat="47.82306" lon="7.13073">
        <ele>634.79998779297</ele>
        <time>2023-05-21T10:14:11.000Z</time>
      </trkpt>
      <trkpt lat="47.823" lon="7.13071">
        <ele>634.79998779297</ele>
        <time>2023-05-21T10:14:12.000Z</time>
      </trkpt>
      <trkpt lat="47.82282" lon="7.13066">
        <ele>634.79998779297</ele>
        <time>2023-05-21T10:14:14.000Z</time>
      </trkpt>
      <trkpt lat="47.82272" lon="7.13064">
        <ele>633.79998779297</ele>
        <time>2023-05-21T10:14:15.000Z</time>
      </trkpt>
      <trkpt lat="47.82264" lon="7.13061">
        <ele>633.40002441406</ele>
        <time>2023-05-21T10:14:16.000Z</time>
      </trkpt>
      <trkpt lat="47.82257" lon="7.13059">
        <ele>632.79998779297</ele>
        <time>2023-05-21T10:14:17.000Z</time>
      </trkpt>
      <trkpt lat="47.82251" lon="7.13057">
        <ele>632.20001220703</ele>
        <time>2023-05-21T10:14:18.000Z</time>
      </trkpt>
      <trkpt lat="47.82245" lon="7.13055">
        <ele>631.59997558594</ele>
        <time>2023-05-21T10:14:19.000Z</time>
      </trkpt>
      <trkpt lat="47.8224" lon="7.13052">
        <ele>631</ele>
        <time>2023-05-21T10:14:20.000Z</time>
      </trkpt>
      <trkpt lat="47.82233" lon="7.13047">
        <ele>630.20001220703</ele>
        <time>2023-05-21T10:14:21.000Z</time>
      </trkpt>
      <trkpt lat="47.82223" lon="7.13044">
        <ele>629.59997558594</ele>
        <time>2023-05-21T10:14:22.000Z</time>
      </trkpt>
      <trkpt lat="47.82214" lon="7.13041">
        <ele>628.59997558594</ele>
        <time>2023-05-21T10:14:23.000Z</time>
      </trkpt>
      <trkpt lat="47.82206" lon="7.13037">
        <ele>627.79998779297</ele>
        <time>2023-05-21T10:14:24.000Z</time>
      </trkpt>
      <trkpt lat="47.82197" lon="7.13035">
        <ele>626.40002441406</ele>
        <time>2023-05-21T10:14:25.000Z</time>
      </trkpt>
      <trkpt lat="47.82189" lon="7.13033">
        <ele>625.20001220703</ele>
        <time>2023-05-21T10:14:26.000Z</time>
      </trkpt>
      <trkpt lat="47.82181" lon="7.13032">
        <ele>624</ele>
        <time>2023-05-21T10:14:27.000Z</time>
      </trkpt>
      <trkpt lat="47.82174" lon="7.13034">
        <ele>622.59997558594</ele>
        <time>2023-05-21T10:14:28.000Z</time>
      </trkpt>
      <trkpt lat="47.82168" lon="7.13036">
        <ele>621.40002441406</ele>
        <time>2023-05-21T10:14:29.000Z</time>
      </trkpt>
      <trkpt lat="47.82164" lon="7.1304">
        <ele>620.20001220703</ele>
        <time>2023-05-21T10:14:30.000Z</time>
      </trkpt>
      <trkpt lat="47.82162" lon="7.13043">
        <ele>619</ele>
        <time>2023-05-21T10:14:31.000Z</time>
      </trkpt>
      <trkpt lat="47.82159" lon="7.13046">
        <ele>618</ele>
        <time>2023-05-21T10:14:32.000Z</time>
      </trkpt>
      <trkpt lat="47.82157" lon="7.13049">
        <ele>617</ele>
        <time>2023-05-21T10:14:33.000Z</time>
      </trkpt>
      <trkpt lat="47.82154" lon="7.13051">
        <ele>616</ele>
        <time>2023-05-21T10:14:34.000Z</time>
      </trkpt>
      <trkpt lat="47.82152" lon="7.13054">
        <ele>615</ele>
        <time>2023-05-21T10:14:35.000Z</time>
      </trkpt>
      <trkpt lat="47.8215" lon="7.13056">
        <ele>614</ele>
        <time>2023-05-21T10:14:36.000Z</time>
      </trkpt>
      <trkpt lat="47.82148" lon="7.13059">
        <ele>613.59997558594</ele>
        <time>2023-05-21T10:14:37.000Z</time>
      </trkpt>
      <trkpt lat="47.82146" lon="7.13062">
        <ele>613.20001220703</ele>
        <time>2023-05-21T10:14:38.000Z</time>
      </trkpt>
      <trkpt lat="47.82143" lon="7.13066">
        <ele>612.79998779297</ele>
        <time>2023-05-21T10:14:39.000Z</time>
      </trkpt>
      <trkpt lat="47.8214" lon="7.13069">
        <ele>611.79998779297</ele>
        <time>2023-05-21T10:14:40.000Z</time>
      </trkpt>
      <trkpt lat="47.82128" lon="7.13082">
        <ele>611.79998779297</ele>
        <time>2023-05-21T10:14:44.000Z</time>
      </trkpt>
      <trkpt lat="47.82118" lon="7.13098">
        <ele>611.79998779297</ele>
        <time>2023-05-21T10:14:48.000Z</time>
      </trkpt>
      <trkpt lat="47.82115" lon="7.13104">
        <ele>611.79998779297</ele>
        <time>2023-05-21T10:14:49.000Z</time>
      </trkpt>
      <trkpt lat="47.82107" lon="7.13123">
        <ele>611.79998779297</ele>
        <time>2023-05-21T10:14:52.000Z</time>
      </trkpt>
      <trkpt lat="47.821" lon="7.13141">
        <ele>611.40002441406</ele>
        <time>2023-05-21T10:14:55.000Z</time>
      </trkpt>
      <trkpt lat="47.82098" lon="7.13149">
        <ele>611</ele>
        <time>2023-05-21T10:14:56.000Z</time>
      </trkpt>
      <trkpt lat="47.82095" lon="7.13156">
        <ele>610.59997558594</ele>
        <time>2023-05-21T10:14:57.000Z</time>
      </trkpt>
      <trkpt lat="47.82091" lon="7.13165">
        <ele>610</ele>
        <time>2023-05-21T10:14:58.000Z</time>
      </trkpt>
      <trkpt lat="47.82085" lon="7.13174">
        <ele>609.59997558594</ele>
        <time>2023-05-21T10:14:59.000Z</time>
      </trkpt>
      <trkpt lat="47.8208" lon="7.13183">
        <ele>609</ele>
        <time>2023-05-21T10:15:00.000Z</time>
      </trkpt>
      <trkpt lat="47.82075" lon="7.13191">
        <ele>608.59997558594</ele>
        <time>2023-05-21T10:15:01.000Z</time>
      </trkpt>
      <trkpt lat="47.82069" lon="7.13199">
        <ele>607.79998779297</ele>
        <time>2023-05-21T10:15:02.000Z</time>
      </trkpt>
      <trkpt lat="47.82064" lon="7.13207">
        <ele>607.20001220703</ele>
        <time>2023-05-21T10:15:03.000Z</time>
      </trkpt>
      <trkpt lat="47.82059" lon="7.13212">
        <ele>606.40002441406</ele>
        <time>2023-05-21T10:15:04.000Z</time>
      </trkpt>
      <trkpt lat="47.82054" lon="7.13217">
        <ele>605.20001220703</ele>
        <time>2023-05-21T10:15:05.000Z</time>
      </trkpt>
      <trkpt lat="47.82033" lon="7.13239">
        <ele>605.20001220703</ele>
        <time>2023-05-21T10:15:10.000Z</time>
      </trkpt>
      <trkpt lat="47.82022" lon="7.13251">
        <ele>605.20001220703</ele>
        <time>2023-05-21T10:15:13.000Z</time>
      </trkpt>
      <trkpt lat="47.82015" lon="7.1326">
        <ele>604.79998779297</ele>
        <time>2023-05-21T10:15:15.000Z</time>
      </trkpt>
      <trkpt lat="47.82011" lon="7.13266">
        <ele>604.40002441406</ele>
        <time>2023-05-21T10:15:16.000Z</time>
      </trkpt>
      <trkpt lat="47.82008" lon="7.1327">
        <ele>604</ele>
        <time>2023-05-21T10:15:17.000Z</time>
      </trkpt>
      <trkpt lat="47.82005" lon="7.13275">
        <ele>603.59997558594</ele>
        <time>2023-05-21T10:15:18.000Z</time>
      </trkpt>
      <trkpt lat="47.82001" lon="7.13282">
        <ele>603</ele>
        <time>2023-05-21T10:15:19.000Z</time>
      </trkpt>
      <trkpt lat="47.81992" lon="7.13298">
        <ele>603</ele>
        <time>2023-05-21T10:15:21.000Z</time>
      </trkpt>
      <trkpt lat="47.8198" lon="7.13315">
        <ele>602.59997558594</ele>
        <time>2023-05-21T10:15:23.000Z</time>
      </trkpt>
      <trkpt lat="47.81973" lon="7.13323">
        <ele>602</ele>
        <time>2023-05-21T10:15:24.000Z</time>
      </trkpt>
      <trkpt lat="47.81965" lon="7.13332">
        <ele>601.20001220703</ele>
        <time>2023-05-21T10:15:25.000Z</time>
      </trkpt>
      <trkpt lat="47.81959" lon="7.13341">
        <ele>600.40002441406</ele>
        <time>2023-05-21T10:15:26.000Z</time>
      </trkpt>
      <trkpt lat="47.81951" lon="7.1335">
        <ele>599.20001220703</ele>
        <time>2023-05-21T10:15:27.000Z</time>
      </trkpt>
      <trkpt lat="47.81944" lon="7.13358">
        <ele>598.20001220703</ele>
        <time>2023-05-21T10:15:28.000Z</time>
      </trkpt>
      <trkpt lat="47.81937" lon="7.13367">
        <ele>597</ele>
        <time>2023-05-21T10:15:29.000Z</time>
      </trkpt>
      <trkpt lat="47.81932" lon="7.13375">
        <ele>594.59997558594</ele>
        <time>2023-05-21T10:15:30.000Z</time>
      </trkpt>
      <trkpt lat="47.81929" lon="7.13382">
        <ele>593.40002441406</ele>
        <time>2023-05-21T10:15:31.000Z</time>
      </trkpt>
      <trkpt lat="47.81927" lon="7.13387">
        <ele>592.40002441406</ele>
        <time>2023-05-21T10:15:32.000Z</time>
      </trkpt>
      <trkpt lat="47.81926" lon="7.13391">
        <ele>591.20001220703</ele>
        <time>2023-05-21T10:15:33.000Z</time>
      </trkpt>
      <trkpt lat="47.81925" lon="7.13395">
        <ele>590</ele>
        <time>2023-05-21T10:15:34.000Z</time>
      </trkpt>
      <trkpt lat="47.81927" lon="7.13396">
        <ele>590</ele>
        <time>2023-05-21T10:15:35.000Z</time>
      </trkpt>
      <trkpt lat="47.81931" lon="7.13403">
        <ele>590</ele>
        <time>2023-05-21T10:15:37.000Z</time>
      </trkpt>
      <trkpt lat="47.81936" lon="7.13414">
        <ele>590</ele>
        <time>2023-05-21T10:15:40.000Z</time>
      </trkpt>
      <trkpt lat="47.81948" lon="7.13445">
        <ele>590</ele>
        <time>2023-05-21T10:15:46.000Z</time>
      </trkpt>
      <trkpt lat="47.81949" lon="7.13452">
        <ele>590</ele>
        <time>2023-05-21T10:15:47.000Z</time>
      </trkpt>
      <trkpt lat="47.81954" lon="7.13469">
        <ele>590</ele>
        <time>2023-05-21T10:15:49.000Z</time>
      </trkpt>
      <trkpt lat="47.81957" lon="7.13479">
        <ele>589.59997558594</ele>
        <time>2023-05-21T10:15:50.000Z</time>
      </trkpt>
      <trkpt lat="47.8196" lon="7.13488">
        <ele>589.20001220703</ele>
        <time>2023-05-21T10:15:51.000Z</time>
      </trkpt>
      <trkpt lat="47.81963" lon="7.13496">
        <ele>588.79998779297</ele>
        <time>2023-05-21T10:15:52.000Z</time>
      </trkpt>
      <trkpt lat="47.81966" lon="7.13504">
        <ele>588.40002441406</ele>
        <time>2023-05-21T10:15:53.000Z</time>
      </trkpt>
      <trkpt lat="47.8197" lon="7.13511">
        <ele>587.79998779297</ele>
        <time>2023-05-21T10:15:54.000Z</time>
      </trkpt>
      <trkpt lat="47.81975" lon="7.13518">
        <ele>586.59997558594</ele>
        <time>2023-05-21T10:15:55.000Z</time>
      </trkpt>
      <trkpt lat="47.81979" lon="7.13525">
        <ele>586</ele>
        <time>2023-05-21T10:15:56.000Z</time>
      </trkpt>
      <trkpt lat="47.81983" lon="7.13532">
        <ele>585.40002441406</ele>
        <time>2023-05-21T10:15:57.000Z</time>
      </trkpt>
      <trkpt lat="47.81989" lon="7.13548">
        <ele>585.40002441406</ele>
        <time>2023-05-21T10:15:59.000Z</time>
      </trkpt>
      <trkpt lat="47.81993" lon="7.13563">
        <ele>585.40002441406</ele>
        <time>2023-05-21T10:16:01.000Z</time>
      </trkpt>
      <trkpt lat="47.82006" lon="7.13593">
        <ele>585</ele>
        <time>2023-05-21T10:16:05.000Z</time>
      </trkpt>
      <trkpt lat="47.82008" lon="7.13598">
        <ele>584.59997558594</ele>
        <time>2023-05-21T10:16:06.000Z</time>
      </trkpt>
      <trkpt lat="47.8201" lon="7.13604">
        <ele>584.20001220703</ele>
        <time>2023-05-21T10:16:07.000Z</time>
      </trkpt>
      <trkpt lat="47.82013" lon="7.1361">
        <ele>583.79998779297</ele>
        <time>2023-05-21T10:16:08.000Z</time>
      </trkpt>
      <trkpt lat="47.82017" lon="7.13618">
        <ele>583.20001220703</ele>
        <time>2023-05-21T10:16:09.000Z</time>
      </trkpt>
      <trkpt lat="47.82024" lon="7.13634">
        <ele>583.20001220703</ele>
        <time>2023-05-21T10:16:11.000Z</time>
      </trkpt>
      <trkpt lat="47.82038" lon="7.13668">
        <ele>582.79998779297</ele>
        <time>2023-05-21T10:16:15.000Z</time>
      </trkpt>
      <trkpt lat="47.82041" lon="7.13677">
        <ele>582.40002441406</ele>
        <time>2023-05-21T10:16:16.000Z</time>
      </trkpt>
      <trkpt lat="47.82045" lon="7.13685">
        <ele>582</ele>
        <time>2023-05-21T10:16:17.000Z</time>
      </trkpt>
      <trkpt lat="47.82048" lon="7.13693">
        <ele>581.59997558594</ele>
        <time>2023-05-21T10:16:18.000Z</time>
      </trkpt>
      <trkpt lat="47.82051" lon="7.137">
        <ele>581.20001220703</ele>
        <time>2023-05-21T10:16:19.000Z</time>
      </trkpt>
      <trkpt lat="47.8206" lon="7.13726">
        <ele>581.20001220703</ele>
        <time>2023-05-21T10:16:22.000Z</time>
      </trkpt>
      <trkpt lat="47.82065" lon="7.13735">
        <ele>580.79998779297</ele>
        <time>2023-05-21T10:16:23.000Z</time>
      </trkpt>
      <trkpt lat="47.82069" lon="7.13742">
        <ele>580.40002441406</ele>
        <time>2023-05-21T10:16:24.000Z</time>
      </trkpt>
      <trkpt lat="47.82074" lon="7.1375">
        <ele>580</ele>
        <time>2023-05-21T10:16:25.000Z</time>
      </trkpt>
      <trkpt lat="47.82079" lon="7.13755">
        <ele>579.59997558594</ele>
        <time>2023-05-21T10:16:26.000Z</time>
      </trkpt>
      <trkpt lat="47.82084" lon="7.1376">
        <ele>579</ele>
        <time>2023-05-21T10:16:27.000Z</time>
      </trkpt>
      <trkpt lat="47.82104" lon="7.13766">
        <ele>579</ele>
        <time>2023-05-21T10:16:31.000Z</time>
      </trkpt>
      <trkpt lat="47.82112" lon="7.13761">
        <ele>579</ele>
        <time>2023-05-21T10:16:33.000Z</time>
      </trkpt>
      <trkpt lat="47.82119" lon="7.13755">
        <ele>579</ele>
        <time>2023-05-21T10:16:35.000Z</time>
      </trkpt>
      <trkpt lat="47.82128" lon="7.13755">
        <ele>579</ele>
        <time>2023-05-21T10:16:38.000Z</time>
      </trkpt>
      <trkpt lat="47.82131" lon="7.13757">
        <ele>579</ele>
        <time>2023-05-21T10:16:39.000Z</time>
      </trkpt>
      <trkpt lat="47.82133" lon="7.13759">
        <ele>579</ele>
        <time>2023-05-21T10:16:42.000Z</time>
      </trkpt>
      <trkpt lat="47.82133" lon="7.13759">
        <ele>579</ele>
        <time>2023-05-21T10:16:45.000Z</time>
      </trkpt>
      <trkpt lat="47.82137" lon="7.13763">
        <ele>579</ele>
        <time>2023-05-21T10:16:52.000Z</time>
      </trkpt>
      <trkpt lat="47.82138" lon="7.13766">
        <ele>579</ele>
        <time>2023-05-21T10:16:53.000Z</time>
      </trkpt>
      <trkpt lat="47.82144" lon="7.13781">
        <ele>579</ele>
        <time>2023-05-21T10:16:56.000Z</time>
      </trkpt>
      <trkpt lat="47.82146" lon="7.13788">
        <ele>579</ele>
        <time>2023-05-21T10:16:57.000Z</time>
      </trkpt>
      <trkpt lat="47.82152" lon="7.13814">
        <ele>579</ele>
        <time>2023-05-21T10:17:01.000Z</time>
      </trkpt>
      <trkpt lat="47.82154" lon="7.13821">
        <ele>579</ele>
        <time>2023-05-21T10:17:02.000Z</time>
      </trkpt>
      <trkpt lat="47.82155" lon="7.13828">
        <ele>578.59997558594</ele>
        <time>2023-05-21T10:17:03.000Z</time>
      </trkpt>
      <trkpt lat="47.82157" lon="7.13835">
        <ele>578.20001220703</ele>
        <time>2023-05-21T10:17:04.000Z</time>
      </trkpt>
      <trkpt lat="47.82158" lon="7.13842">
        <ele>577.79998779297</ele>
        <time>2023-05-21T10:17:05.000Z</time>
      </trkpt>
      <trkpt lat="47.82159" lon="7.13849">
        <ele>577.40002441406</ele>
        <time>2023-05-21T10:17:06.000Z</time>
      </trkpt>
      <trkpt lat="47.82161" lon="7.13857">
        <ele>577</ele>
        <time>2023-05-21T10:17:07.000Z</time>
      </trkpt>
      <trkpt lat="47.82166" lon="7.1388">
        <ele>577</ele>
        <time>2023-05-21T10:17:10.000Z</time>
      </trkpt>
      <trkpt lat="47.82168" lon="7.13887">
        <ele>577</ele>
        <time>2023-05-21T10:17:11.000Z</time>
      </trkpt>
      <trkpt lat="47.82172" lon="7.13893">
        <ele>577</ele>
        <time>2023-05-21T10:17:12.000Z</time>
      </trkpt>
      <trkpt lat="47.82184" lon="7.13912">
        <ele>577</ele>
        <time>2023-05-21T10:17:15.000Z</time>
      </trkpt>
      <trkpt lat="47.82187" lon="7.13919">
        <ele>576.59997558594</ele>
        <time>2023-05-21T10:17:16.000Z</time>
      </trkpt>
      <trkpt lat="47.82192" lon="7.13928">
        <ele>576.20001220703</ele>
        <time>2023-05-21T10:17:17.000Z</time>
      </trkpt>
      <trkpt lat="47.82196" lon="7.13938">
        <ele>575.79998779297</ele>
        <time>2023-05-21T10:17:18.000Z</time>
      </trkpt>
      <trkpt lat="47.82201" lon="7.13948">
        <ele>575.20001220703</ele>
        <time>2023-05-21T10:17:19.000Z</time>
      </trkpt>
      <trkpt lat="47.82204" lon="7.13956">
        <ele>574.59997558594</ele>
        <time>2023-05-21T10:17:20.000Z</time>
      </trkpt>
      <trkpt lat="47.82207" lon="7.13962">
        <ele>574</ele>
        <time>2023-05-21T10:17:21.000Z</time>
      </trkpt>
      <trkpt lat="47.82208" lon="7.13965">
        <ele>573.40002441406</ele>
        <time>2023-05-21T10:17:22.000Z</time>
      </trkpt>
      <trkpt lat="47.8221" lon="7.13966">
        <ele>572.79998779297</ele>
        <time>2023-05-21T10:17:23.000Z</time>
      </trkpt>
      <trkpt lat="47.82213" lon="7.13968">
        <ele>572.20001220703</ele>
        <time>2023-05-21T10:17:24.000Z</time>
      </trkpt>
      <trkpt lat="47.82216" lon="7.1397">
        <ele>571.59997558594</ele>
        <time>2023-05-21T10:17:25.000Z</time>
      </trkpt>
      <trkpt lat="47.82218" lon="7.13973">
        <ele>570.79998779297</ele>
        <time>2023-05-21T10:17:26.000Z</time>
      </trkpt>
      <trkpt lat="47.8222" lon="7.13975">
        <ele>570.40002441406</ele>
        <time>2023-05-21T10:17:27.000Z</time>
      </trkpt>
      <trkpt lat="47.82222" lon="7.13975">
        <ele>570</ele>
        <time>2023-05-21T10:17:28.000Z</time>
      </trkpt>
      <trkpt lat="47.82224" lon="7.13975">
        <ele>569.40002441406</ele>
        <time>2023-05-21T10:17:29.000Z</time>
      </trkpt>
      <trkpt lat="47.82225" lon="7.13974">
        <ele>569</ele>
        <time>2023-05-21T10:17:30.000Z</time>
      </trkpt>
      <trkpt lat="47.82226" lon="7.13973">
        <ele>568.59997558594</ele>
        <time>2023-05-21T10:17:31.000Z</time>
      </trkpt>
      <trkpt lat="47.82228" lon="7.13971">
        <ele>568.20001220703</ele>
        <time>2023-05-21T10:17:32.000Z</time>
      </trkpt>
      <trkpt lat="47.8223" lon="7.13965">
        <ele>567.79998779297</ele>
        <time>2023-05-21T10:17:33.000Z</time>
      </trkpt>
      <trkpt lat="47.82232" lon="7.13957">
        <ele>567</ele>
        <time>2023-05-21T10:17:34.000Z</time>
      </trkpt>
      <trkpt lat="47.82236" lon="7.13948">
        <ele>566.59997558594</ele>
        <time>2023-05-21T10:17:35.000Z</time>
      </trkpt>
      <trkpt lat="47.82247" lon="7.13926">
        <ele>566</ele>
        <time>2023-05-21T10:17:38.000Z</time>
      </trkpt>
      <trkpt lat="47.82251" lon="7.13921">
        <ele>565.59997558594</ele>
        <time>2023-05-21T10:17:39.000Z</time>
      </trkpt>
      <trkpt lat="47.82255" lon="7.13918">
        <ele>565.20001220703</ele>
        <time>2023-05-21T10:17:40.000Z</time>
      </trkpt>
      <trkpt lat="47.82259" lon="7.1392">
        <ele>564.79998779297</ele>
        <time>2023-05-21T10:17:41.000Z</time>
      </trkpt>
      <trkpt lat="47.82265" lon="7.13923">
        <ele>564.20001220703</ele>
        <time>2023-05-21T10:17:42.000Z</time>
      </trkpt>
      <trkpt lat="47.82269" lon="7.13925">
        <ele>563.79998779297</ele>
        <time>2023-05-21T10:17:43.000Z</time>
      </trkpt>
      <trkpt lat="47.82275" lon="7.13928">
        <ele>563.40002441406</ele>
        <time>2023-05-21T10:17:44.000Z</time>
      </trkpt>
      <trkpt lat="47.82279" lon="7.1393">
        <ele>563</ele>
        <time>2023-05-21T10:17:45.000Z</time>
      </trkpt>
      <trkpt lat="47.82285" lon="7.13933">
        <ele>562.59997558594</ele>
        <time>2023-05-21T10:17:46.000Z</time>
      </trkpt>
      <trkpt lat="47.82289" lon="7.13938">
        <ele>562</ele>
        <time>2023-05-21T10:17:47.000Z</time>
      </trkpt>
      <trkpt lat="47.82295" lon="7.13943">
        <ele>561.59997558594</ele>
        <time>2023-05-21T10:17:48.000Z</time>
      </trkpt>
      <trkpt lat="47.82301" lon="7.13947">
        <ele>561.20001220703</ele>
        <time>2023-05-21T10:17:49.000Z</time>
      </trkpt>
      <trkpt lat="47.82308" lon="7.13951">
        <ele>560.59997558594</ele>
        <time>2023-05-21T10:17:50.000Z</time>
      </trkpt>
      <trkpt lat="47.82314" lon="7.13955">
        <ele>560</ele>
        <time>2023-05-21T10:17:51.000Z</time>
      </trkpt>
      <trkpt lat="47.8232" lon="7.13958">
        <ele>559.20001220703</ele>
        <time>2023-05-21T10:17:52.000Z</time>
      </trkpt>
      <trkpt lat="47.82327" lon="7.13962">
        <ele>558.59997558594</ele>
        <time>2023-05-21T10:17:53.000Z</time>
      </trkpt>
      <trkpt lat="47.82333" lon="7.13967">
        <ele>557.79998779297</ele>
        <time>2023-05-21T10:17:54.000Z</time>
      </trkpt>
      <trkpt lat="47.82337" lon="7.13969">
        <ele>556.79998779297</ele>
        <time>2023-05-21T10:17:55.000Z</time>
      </trkpt>
      <trkpt lat="47.82343" lon="7.13971">
        <ele>556</ele>
        <time>2023-05-21T10:17:56.000Z</time>
      </trkpt>
      <trkpt lat="47.82348" lon="7.13973">
        <ele>555.20001220703</ele>
        <time>2023-05-21T10:17:57.000Z</time>
      </trkpt>
      <trkpt lat="47.82352" lon="7.13972">
        <ele>553.40002441406</ele>
        <time>2023-05-21T10:17:58.000Z</time>
      </trkpt>
      <trkpt lat="47.82358" lon="7.13969">
        <ele>552.59997558594</ele>
        <time>2023-05-21T10:17:59.000Z</time>
      </trkpt>
      <trkpt lat="47.82361" lon="7.13968">
        <ele>552</ele>
        <time>2023-05-21T10:18:00.000Z</time>
      </trkpt>
      <trkpt lat="47.82365" lon="7.13967">
        <ele>551.40002441406</ele>
        <time>2023-05-21T10:18:01.000Z</time>
      </trkpt>
      <trkpt lat="47.82371" lon="7.13969">
        <ele>550.79998779297</ele>
        <time>2023-05-21T10:18:02.000Z</time>
      </trkpt>
      <trkpt lat="47.82378" lon="7.1397">
        <ele>550</ele>
        <time>2023-05-21T10:18:03.000Z</time>
      </trkpt>
      <trkpt lat="47.82385" lon="7.13971">
        <ele>549.20001220703</ele>
        <time>2023-05-21T10:18:04.000Z</time>
      </trkpt>
      <trkpt lat="47.82392" lon="7.13972">
        <ele>548.59997558594</ele>
        <time>2023-05-21T10:18:05.000Z</time>
      </trkpt>
      <trkpt lat="47.82399" lon="7.13972">
        <ele>547.79998779297</ele>
        <time>2023-05-21T10:18:06.000Z</time>
      </trkpt>
      <trkpt lat="47.82404" lon="7.13972">
        <ele>547</ele>
        <time>2023-05-21T10:18:07.000Z</time>
      </trkpt>
      <trkpt lat="47.82408" lon="7.1397">
        <ele>546.20001220703</ele>
        <time>2023-05-21T10:18:08.000Z</time>
      </trkpt>
      <trkpt lat="47.82414" lon="7.13967">
        <ele>545.40002441406</ele>
        <time>2023-05-21T10:18:09.000Z</time>
      </trkpt>
      <trkpt lat="47.82418" lon="7.13964">
        <ele>544.79998779297</ele>
        <time>2023-05-21T10:18:10.000Z</time>
      </trkpt>
      <trkpt lat="47.82422" lon="7.13962">
        <ele>544.20001220703</ele>
        <time>2023-05-21T10:18:11.000Z</time>
      </trkpt>
      <trkpt lat="47.82427" lon="7.13959">
        <ele>543.59997558594</ele>
        <time>2023-05-21T10:18:12.000Z</time>
      </trkpt>
      <trkpt lat="47.82432" lon="7.13954">
        <ele>542.79998779297</ele>
        <time>2023-05-21T10:18:13.000Z</time>
      </trkpt>
      <trkpt lat="47.82437" lon="7.1395">
        <ele>542.20001220703</ele>
        <time>2023-05-21T10:18:14.000Z</time>
      </trkpt>
      <trkpt lat="47.82442" lon="7.13944">
        <ele>541.59997558594</ele>
        <time>2023-05-21T10:18:15.000Z</time>
      </trkpt>
      <trkpt lat="47.82447" lon="7.13938">
        <ele>540.79998779297</ele>
        <time>2023-05-21T10:18:16.000Z</time>
      </trkpt>
      <trkpt lat="47.8245" lon="7.13932">
        <ele>540.20001220703</ele>
        <time>2023-05-21T10:18:17.000Z</time>
      </trkpt>
      <trkpt lat="47.82454" lon="7.13926">
        <ele>539.59997558594</ele>
        <time>2023-05-21T10:18:18.000Z</time>
      </trkpt>
      <trkpt lat="47.82456" lon="7.13919">
        <ele>538.79998779297</ele>
        <time>2023-05-21T10:18:19.000Z</time>
      </trkpt>
      <trkpt lat="47.82458" lon="7.13912">
        <ele>538.20001220703</ele>
        <time>2023-05-21T10:18:20.000Z</time>
      </trkpt>
      <trkpt lat="47.8246" lon="7.13906">
        <ele>537.59997558594</ele>
        <time>2023-05-21T10:18:21.000Z</time>
      </trkpt>
      <trkpt lat="47.8246" lon="7.139">
        <ele>536.79998779297</ele>
        <time>2023-05-21T10:18:22.000Z</time>
      </trkpt>
      <trkpt lat="47.8246" lon="7.13894">
        <ele>535.59997558594</ele>
        <time>2023-05-21T10:18:23.000Z</time>
      </trkpt>
      <trkpt lat="47.8246" lon="7.1389">
        <ele>535</ele>
        <time>2023-05-21T10:18:24.000Z</time>
      </trkpt>
      <trkpt lat="47.8246" lon="7.13885">
        <ele>534.40002441406</ele>
        <time>2023-05-21T10:18:25.000Z</time>
      </trkpt>
      <trkpt lat="47.82459" lon="7.1388">
        <ele>533.79998779297</ele>
        <time>2023-05-21T10:18:26.000Z</time>
      </trkpt>
      <trkpt lat="47.82459" lon="7.13876">
        <ele>533</ele>
        <time>2023-05-21T10:18:27.000Z</time>
      </trkpt>
      <trkpt lat="47.82461" lon="7.1387">
        <ele>532.59997558594</ele>
        <time>2023-05-21T10:18:28.000Z</time>
      </trkpt>
      <trkpt lat="47.82463" lon="7.13865">
        <ele>532</ele>
        <time>2023-05-21T10:18:29.000Z</time>
      </trkpt>
      <trkpt lat="47.82465" lon="7.13861">
        <ele>531.40002441406</ele>
        <time>2023-05-21T10:18:30.000Z</time>
      </trkpt>
      <trkpt lat="47.82467" lon="7.13856">
        <ele>531</ele>
        <time>2023-05-21T10:18:31.000Z</time>
      </trkpt>
      <trkpt lat="47.8247" lon="7.13851">
        <ele>530.40002441406</ele>
        <time>2023-05-21T10:18:32.000Z</time>
      </trkpt>
      <trkpt lat="47.82472" lon="7.13847">
        <ele>529.79998779297</ele>
        <time>2023-05-21T10:18:33.000Z</time>
      </trkpt>
      <trkpt lat="47.82475" lon="7.13843">
        <ele>529.20001220703</ele>
        <time>2023-05-21T10:18:34.000Z</time>
      </trkpt>
      <trkpt lat="47.8248" lon="7.13839">
        <ele>528.59997558594</ele>
        <time>2023-05-21T10:18:35.000Z</time>
      </trkpt>
      <trkpt lat="47.82484" lon="7.13835">
        <ele>528</ele>
        <time>2023-05-21T10:18:36.000Z</time>
      </trkpt>
      <trkpt lat="47.82486" lon="7.13832">
        <ele>527.40002441406</ele>
        <time>2023-05-21T10:18:37.000Z</time>
      </trkpt>
      <trkpt lat="47.82488" lon="7.13828">
        <ele>526.79998779297</ele>
        <time>2023-05-21T10:18:38.000Z</time>
      </trkpt>
      <trkpt lat="47.82489" lon="7.13824">
        <ele>526.20001220703</ele>
        <time>2023-05-21T10:18:39.000Z</time>
      </trkpt>
      <trkpt lat="47.8249" lon="7.13822">
        <ele>525.59997558594</ele>
        <time>2023-05-21T10:18:40.000Z</time>
      </trkpt>
      <trkpt lat="47.82493" lon="7.13815">
        <ele>525.59997558594</ele>
        <time>2023-05-21T10:18:44.000Z</time>
      </trkpt>
      <trkpt lat="47.825" lon="7.13802">
        <ele>523.59997558594</ele>
        <time>2023-05-21T10:19:17.000Z</time>
      </trkpt>
      <trkpt lat="47.82507" lon="7.13811">
        <ele>523.20001220703</ele>
        <time>2023-05-21T10:19:21.000Z</time>
      </trkpt>
      <trkpt lat="47.82507" lon="7.13813">
        <ele>522.79998779297</ele>
        <time>2023-05-21T10:19:22.000Z</time>
      </trkpt>
      <trkpt lat="47.8251" lon="7.13817">
        <ele>522.20001220703</ele>
        <time>2023-05-21T10:19:23.000Z</time>
      </trkpt>
      <trkpt lat="47.82512" lon="7.13819">
        <ele>521.59997558594</ele>
        <time>2023-05-21T10:19:24.000Z</time>
      </trkpt>
      <trkpt lat="47.82513" lon="7.1382">
        <ele>520.79998779297</ele>
        <time>2023-05-21T10:19:25.000Z</time>
      </trkpt>
      <trkpt lat="47.82515" lon="7.1382">
        <ele>520.20001220703</ele>
        <time>2023-05-21T10:19:26.000Z</time>
      </trkpt>
      <trkpt lat="47.82517" lon="7.13819">
        <ele>519.40002441406</ele>
        <time>2023-05-21T10:19:27.000Z</time>
      </trkpt>
      <trkpt lat="47.8252" lon="7.13815">
        <ele>518.59997558594</ele>
        <time>2023-05-21T10:19:28.000Z</time>
      </trkpt>
      <trkpt lat="47.82523" lon="7.13812">
        <ele>517.79998779297</ele>
        <time>2023-05-21T10:19:29.000Z</time>
      </trkpt>
      <trkpt lat="47.82526" lon="7.13808">
        <ele>516.79998779297</ele>
        <time>2023-05-21T10:19:30.000Z</time>
      </trkpt>
      <trkpt lat="47.82528" lon="7.13804">
        <ele>516</ele>
        <time>2023-05-21T10:19:31.000Z</time>
      </trkpt>
      <trkpt lat="47.82532" lon="7.13799">
        <ele>515</ele>
        <time>2023-05-21T10:19:32.000Z</time>
      </trkpt>
      <trkpt lat="47.82535" lon="7.13794">
        <ele>514.20001220703</ele>
        <time>2023-05-21T10:19:33.000Z</time>
      </trkpt>
      <trkpt lat="47.82538" lon="7.13789">
        <ele>513.20001220703</ele>
        <time>2023-05-21T10:19:34.000Z</time>
      </trkpt>
      <trkpt lat="47.82539" lon="7.13787">
        <ele>512.40002441406</ele>
        <time>2023-05-21T10:19:35.000Z</time>
      </trkpt>
      <trkpt lat="47.82541" lon="7.13785">
        <ele>511.39999389648</ele>
        <time>2023-05-21T10:19:36.000Z</time>
      </trkpt>
      <trkpt lat="47.82542" lon="7.13782">
        <ele>510</ele>
        <time>2023-05-21T10:19:37.000Z</time>
      </trkpt>
      <trkpt lat="47.82543" lon="7.13779">
        <ele>509.60000610352</ele>
        <time>2023-05-21T10:19:38.000Z</time>
      </trkpt>
      <trkpt lat="47.82544" lon="7.13777">
        <ele>509.20001220703</ele>
        <time>2023-05-21T10:19:39.000Z</time>
      </trkpt>
      <trkpt lat="47.82544" lon="7.13774">
        <ele>508.60000610352</ele>
        <time>2023-05-21T10:19:40.000Z</time>
      </trkpt>
      <trkpt lat="47.82545" lon="7.1377">
        <ele>508</ele>
        <time>2023-05-21T10:19:41.000Z</time>
      </trkpt>
      <trkpt lat="47.82546" lon="7.13765">
        <ele>507.39999389648</ele>
        <time>2023-05-21T10:19:42.000Z</time>
      </trkpt>
      <trkpt lat="47.82546" lon="7.13759">
        <ele>506.79998779297</ele>
        <time>2023-05-21T10:19:43.000Z</time>
      </trkpt>
      <trkpt lat="47.82549" lon="7.1375">
        <ele>506.20001220703</ele>
        <time>2023-05-21T10:19:44.000Z</time>
      </trkpt>
      <trkpt lat="47.8255" lon="7.13742">
        <ele>505.60000610352</ele>
        <time>2023-05-21T10:19:45.000Z</time>
      </trkpt>
      <trkpt lat="47.82553" lon="7.13737">
        <ele>505.60000610352</ele>
        <time>2023-05-21T10:19:46.000Z</time>
      </trkpt>
      <trkpt lat="47.8256" lon="7.13735">
        <ele>505.60000610352</ele>
        <time>2023-05-21T10:19:48.000Z</time>
      </trkpt>
      <trkpt lat="47.82564" lon="7.13737">
        <ele>505.20001220703</ele>
        <time>2023-05-21T10:19:49.000Z</time>
      </trkpt>
      <trkpt lat="47.8257" lon="7.13739">
        <ele>504.79998779297</ele>
        <time>2023-05-21T10:19:50.000Z</time>
      </trkpt>
      <trkpt lat="47.82577" lon="7.13742">
        <ele>504.20001220703</ele>
        <time>2023-05-21T10:19:51.000Z</time>
      </trkpt>
      <trkpt lat="47.82583" lon="7.13746">
        <ele>503.60000610352</ele>
        <time>2023-05-21T10:19:52.000Z</time>
      </trkpt>
      <trkpt lat="47.82589" lon="7.13751">
        <ele>502.79998779297</ele>
        <time>2023-05-21T10:19:53.000Z</time>
      </trkpt>
      <trkpt lat="47.82597" lon="7.13756">
        <ele>501.79998779297</ele>
        <time>2023-05-21T10:19:54.000Z</time>
      </trkpt>
      <trkpt lat="47.82603" lon="7.1376">
        <ele>501</ele>
        <time>2023-05-21T10:19:55.000Z</time>
      </trkpt>
      <trkpt lat="47.82609" lon="7.13764">
        <ele>500</ele>
        <time>2023-05-21T10:19:56.000Z</time>
      </trkpt>
      <trkpt lat="47.82613" lon="7.13767">
        <ele>498.79998779297</ele>
        <time>2023-05-21T10:19:57.000Z</time>
      </trkpt>
      <trkpt lat="47.82617" lon="7.13769">
        <ele>497.79998779297</ele>
        <time>2023-05-21T10:19:58.000Z</time>
      </trkpt>
      <trkpt lat="47.82619" lon="7.13768">
        <ele>496.60000610352</ele>
        <time>2023-05-21T10:19:59.000Z</time>
      </trkpt>
      <trkpt lat="47.8262" lon="7.13769">
        <ele>495.60000610352</ele>
        <time>2023-05-21T10:20:00.000Z</time>
      </trkpt>
      <trkpt lat="47.82621" lon="7.13771">
        <ele>494.60000610352</ele>
        <time>2023-05-21T10:20:01.000Z</time>
      </trkpt>
      <trkpt lat="47.82621" lon="7.13773">
        <ele>492.60000610352</ele>
        <time>2023-05-21T10:20:02.000Z</time>
      </trkpt>
      <trkpt lat="47.8262" lon="7.13776">
        <ele>491.79998779297</ele>
        <time>2023-05-21T10:20:03.000Z</time>
      </trkpt>
      <trkpt lat="47.82618" lon="7.13779">
        <ele>490.79998779297</ele>
        <time>2023-05-21T10:20:04.000Z</time>
      </trkpt>
      <trkpt lat="47.82612" lon="7.13789">
        <ele>490.79998779297</ele>
        <time>2023-05-21T10:20:07.000Z</time>
      </trkpt>
      <trkpt lat="47.8261" lon="7.13792">
        <ele>490.79998779297</ele>
        <time>2023-05-21T10:20:08.000Z</time>
      </trkpt>
      <trkpt lat="47.82599" lon="7.13809">
        <ele>490.79998779297</ele>
        <time>2023-05-21T10:20:14.000Z</time>
      </trkpt>
      <trkpt lat="47.82595" lon="7.13819">
        <ele>490.39999389648</ele>
        <time>2023-05-21T10:20:18.000Z</time>
      </trkpt>
      <trkpt lat="47.82598" lon="7.13822">
        <ele>490</ele>
        <time>2023-05-21T10:20:19.000Z</time>
      </trkpt>
      <trkpt lat="47.82599" lon="7.13824">
        <ele>489.60000610352</ele>
        <time>2023-05-21T10:20:20.000Z</time>
      </trkpt>
      <trkpt lat="47.82601" lon="7.13826">
        <ele>489.20001220703</ele>
        <time>2023-05-21T10:20:21.000Z</time>
      </trkpt>
      <trkpt lat="47.82601" lon="7.13829">
        <ele>488.79998779297</ele>
        <time>2023-05-21T10:20:22.000Z</time>
      </trkpt>
      <trkpt lat="47.82599" lon="7.13833">
        <ele>488.79998779297</ele>
        <time>2023-05-21T10:20:24.000Z</time>
      </trkpt>
      <trkpt lat="47.82599" lon="7.13833">
        <ele>488.79998779297</ele>
        <time>2023-05-21T10:20:27.000Z</time>
      </trkpt>
      <trkpt lat="47.82591" lon="7.13842">
        <ele>489.39999389648</ele>
        <time>2023-05-21T10:23:56.000Z</time>
      </trkpt>
      <trkpt lat="47.82591" lon="7.13847">
        <ele>489.39999389648</ele>
        <time>2023-05-21T10:24:00.000Z</time>
      </trkpt>
      <trkpt lat="47.82593" lon="7.13849">
        <ele>489.79998779297</ele>
        <time>2023-05-21T10:28:37.000Z</time>
      </trkpt>
      <trkpt lat="47.82599" lon="7.13849">
        <ele>489.79998779297</ele>
        <time>2023-05-21T10:28:41.000Z</time>
      </trkpt>
      <trkpt lat="47.8259" lon="7.13837">
        <ele>487.60000610352</ele>
        <time>2023-05-21T10:29:49.000Z</time>
      </trkpt>
      <trkpt lat="47.82587" lon="7.1383">
        <ele>487.60000610352</ele>
        <time>2023-05-21T10:29:54.000Z</time>
      </trkpt>
      <trkpt lat="47.82585" lon="7.13829">
        <ele>487.60000610352</ele>
        <time>2023-05-21T10:29:55.000Z</time>
      </trkpt>
      <trkpt lat="47.82582" lon="7.13833">
        <ele>487.60000610352</ele>
        <time>2023-05-21T10:29:58.000Z</time>
      </trkpt>
      <trkpt lat="47.82581" lon="7.13835">
        <ele>487.60000610352</ele>
        <time>2023-05-21T10:29:59.000Z</time>
      </trkpt>
      <trkpt lat="47.82577" lon="7.13842">
        <ele>487.60000610352</ele>
        <time>2023-05-21T10:30:04.000Z</time>
      </trkpt>
      <trkpt lat="47.82572" lon="7.13854">
        <ele>487.60000610352</ele>
        <time>2023-05-21T10:30:10.000Z</time>
      </trkpt>
      <trkpt lat="47.82566" lon="7.13873">
        <ele>487.60000610352</ele>
        <time>2023-05-21T10:30:15.000Z</time>
      </trkpt>
      <trkpt lat="47.82561" lon="7.1389">
        <ele>487.60000610352</ele>
        <time>2023-05-21T10:30:20.000Z</time>
      </trkpt>
      <trkpt lat="47.8256" lon="7.13896">
        <ele>487.60000610352</ele>
        <time>2023-05-21T10:30:22.000Z</time>
      </trkpt>
      <trkpt lat="47.82558" lon="7.13903">
        <ele>488.20001220703</ele>
        <time>2023-05-21T10:30:24.000Z</time>
      </trkpt>
      <trkpt lat="47.82557" lon="7.13906">
        <ele>488.60000610352</ele>
        <time>2023-05-21T10:30:25.000Z</time>
      </trkpt>
      <trkpt lat="47.82556" lon="7.13909">
        <ele>489</ele>
        <time>2023-05-21T10:30:26.000Z</time>
      </trkpt>
      <trkpt lat="47.82556" lon="7.13914">
        <ele>489.39999389648</ele>
        <time>2023-05-21T10:30:27.000Z</time>
      </trkpt>
      <trkpt lat="47.82556" lon="7.13919">
        <ele>489.79998779297</ele>
        <time>2023-05-21T10:30:28.000Z</time>
      </trkpt>
      <trkpt lat="47.82555" lon="7.13926">
        <ele>489.79998779297</ele>
        <time>2023-05-21T10:30:29.000Z</time>
      </trkpt>
      <trkpt lat="47.8256" lon="7.13948">
        <ele>489.39999389648</ele>
        <time>2023-05-21T10:30:32.000Z</time>
      </trkpt>
      <trkpt lat="47.82563" lon="7.13955">
        <ele>488.79998779297</ele>
        <time>2023-05-21T10:30:33.000Z</time>
      </trkpt>
      <trkpt lat="47.82566" lon="7.13962">
        <ele>488.39999389648</ele>
        <time>2023-05-21T10:30:34.000Z</time>
      </trkpt>
      <trkpt lat="47.82568" lon="7.1397">
        <ele>487.60000610352</ele>
        <time>2023-05-21T10:30:35.000Z</time>
      </trkpt>
      <trkpt lat="47.82569" lon="7.13978">
        <ele>487</ele>
        <time>2023-05-21T10:30:36.000Z</time>
      </trkpt>
      <trkpt lat="47.82569" lon="7.13987">
        <ele>486.20001220703</ele>
        <time>2023-05-21T10:30:37.000Z</time>
      </trkpt>
      <trkpt lat="47.82568" lon="7.13995">
        <ele>485.39999389648</ele>
        <time>2023-05-21T10:30:38.000Z</time>
      </trkpt>
      <trkpt lat="47.82566" lon="7.14003">
        <ele>484.60000610352</ele>
        <time>2023-05-21T10:30:39.000Z</time>
      </trkpt>
      <trkpt lat="47.82562" lon="7.14012">
        <ele>483.79998779297</ele>
        <time>2023-05-21T10:30:40.000Z</time>
      </trkpt>
      <trkpt lat="47.82557" lon="7.1402">
        <ele>483</ele>
        <time>2023-05-21T10:30:41.000Z</time>
      </trkpt>
      <trkpt lat="47.82551" lon="7.14027">
        <ele>482.20001220703</ele>
        <time>2023-05-21T10:30:42.000Z</time>
      </trkpt>
      <trkpt lat="47.82546" lon="7.14034">
        <ele>481.39999389648</ele>
        <time>2023-05-21T10:30:43.000Z</time>
      </trkpt>
      <trkpt lat="47.82541" lon="7.14042">
        <ele>480.60000610352</ele>
        <time>2023-05-21T10:30:44.000Z</time>
      </trkpt>
      <trkpt lat="47.82536" lon="7.14049">
        <ele>479.20001220703</ele>
        <time>2023-05-21T10:30:45.000Z</time>
      </trkpt>
      <trkpt lat="47.8253" lon="7.14056">
        <ele>478.39999389648</ele>
        <time>2023-05-21T10:30:46.000Z</time>
      </trkpt>
      <trkpt lat="47.82524" lon="7.14063">
        <ele>477.79998779297</ele>
        <time>2023-05-21T10:30:47.000Z</time>
      </trkpt>
      <trkpt lat="47.82519" lon="7.14071">
        <ele>477.20001220703</ele>
        <time>2023-05-21T10:30:48.000Z</time>
      </trkpt>
      <trkpt lat="47.82514" lon="7.14079">
        <ele>476.60000610352</ele>
        <time>2023-05-21T10:30:49.000Z</time>
      </trkpt>
      <trkpt lat="47.82508" lon="7.14086">
        <ele>475.79998779297</ele>
        <time>2023-05-21T10:30:50.000Z</time>
      </trkpt>
      <trkpt lat="47.82497" lon="7.141">
        <ele>475.39999389648</ele>
        <time>2023-05-21T10:30:52.000Z</time>
      </trkpt>
      <trkpt lat="47.82491" lon="7.14106">
        <ele>475</ele>
        <time>2023-05-21T10:30:53.000Z</time>
      </trkpt>
      <trkpt lat="47.82485" lon="7.14111">
        <ele>474.60000610352</ele>
        <time>2023-05-21T10:30:54.000Z</time>
      </trkpt>
      <trkpt lat="47.8248" lon="7.14116">
        <ele>474.20001220703</ele>
        <time>2023-05-21T10:30:55.000Z</time>
      </trkpt>
      <trkpt lat="47.82475" lon="7.14121">
        <ele>473.79998779297</ele>
        <time>2023-05-21T10:30:56.000Z</time>
      </trkpt>
      <trkpt lat="47.82461" lon="7.14139">
        <ele>473.20001220703</ele>
        <time>2023-05-21T10:30:59.000Z</time>
      </trkpt>
      <trkpt lat="47.82456" lon="7.14144">
        <ele>472.79998779297</ele>
        <time>2023-05-21T10:31:00.000Z</time>
      </trkpt>
      <trkpt lat="47.82453" lon="7.1415">
        <ele>472.39999389648</ele>
        <time>2023-05-21T10:31:01.000Z</time>
      </trkpt>
      <trkpt lat="47.82449" lon="7.14156">
        <ele>472</ele>
        <time>2023-05-21T10:31:02.000Z</time>
      </trkpt>
      <trkpt lat="47.82445" lon="7.14161">
        <ele>471.39999389648</ele>
        <time>2023-05-21T10:31:03.000Z</time>
      </trkpt>
      <trkpt lat="47.82441" lon="7.14167">
        <ele>471.39999389648</ele>
        <time>2023-05-21T10:31:04.000Z</time>
      </trkpt>
      <trkpt lat="47.82429" lon="7.14183">
        <ele>471.39999389648</ele>
        <time>2023-05-21T10:31:07.000Z</time>
      </trkpt>
      <trkpt lat="47.82407" lon="7.14225">
        <ele>471</ele>
        <time>2023-05-21T10:31:13.000Z</time>
      </trkpt>
      <trkpt lat="47.82403" lon="7.14233">
        <ele>470.60000610352</ele>
        <time>2023-05-21T10:31:14.000Z</time>
      </trkpt>
      <trkpt lat="47.824" lon="7.14241">
        <ele>470.20001220703</ele>
        <time>2023-05-21T10:31:15.000Z</time>
      </trkpt>
      <trkpt lat="47.82396" lon="7.14248">
        <ele>469.79998779297</ele>
        <time>2023-05-21T10:31:16.000Z</time>
      </trkpt>
      <trkpt lat="47.82393" lon="7.14256">
        <ele>469.20001220703</ele>
        <time>2023-05-21T10:31:17.000Z</time>
      </trkpt>
      <trkpt lat="47.82386" lon="7.14279">
        <ele>468.79998779297</ele>
        <time>2023-05-21T10:31:20.000Z</time>
      </trkpt>
      <trkpt lat="47.82384" lon="7.14287">
        <ele>468.39999389648</ele>
        <time>2023-05-21T10:31:21.000Z</time>
      </trkpt>
      <trkpt lat="47.82382" lon="7.14295">
        <ele>468</ele>
        <time>2023-05-21T10:31:22.000Z</time>
      </trkpt>
      <trkpt lat="47.8238" lon="7.14303">
        <ele>467.60000610352</ele>
        <time>2023-05-21T10:31:23.000Z</time>
      </trkpt>
      <trkpt lat="47.82378" lon="7.14311">
        <ele>467.20001220703</ele>
        <time>2023-05-21T10:31:24.000Z</time>
      </trkpt>
      <trkpt lat="47.82371" lon="7.14332">
        <ele>467.20001220703</ele>
        <time>2023-05-21T10:31:27.000Z</time>
      </trkpt>
      <trkpt lat="47.82359" lon="7.14371">
        <ele>467.20001220703</ele>
        <time>2023-05-21T10:31:33.000Z</time>
      </trkpt>
      <trkpt lat="47.82344" lon="7.14417">
        <ele>467.20001220703</ele>
        <time>2023-05-21T10:31:41.000Z</time>
      </trkpt>
      <trkpt lat="47.82325" lon="7.1446">
        <ele>467.20001220703</ele>
        <time>2023-05-21T10:31:49.000Z</time>
      </trkpt>
      <trkpt lat="47.82311" lon="7.14497">
        <ele>467.20001220703</ele>
        <time>2023-05-21T10:31:55.000Z</time>
      </trkpt>
      <trkpt lat="47.82308" lon="7.14506">
        <ele>466.79998779297</ele>
        <time>2023-05-21T10:31:56.000Z</time>
      </trkpt>
      <trkpt lat="47.82305" lon="7.14515">
        <ele>466.39999389648</ele>
        <time>2023-05-21T10:31:57.000Z</time>
      </trkpt>
      <trkpt lat="47.82302" lon="7.14525">
        <ele>465.79998779297</ele>
        <time>2023-05-21T10:31:58.000Z</time>
      </trkpt>
      <trkpt lat="47.82298" lon="7.14536">
        <ele>464.79998779297</ele>
        <time>2023-05-21T10:31:59.000Z</time>
      </trkpt>
      <trkpt lat="47.82294" lon="7.14548">
        <ele>464.20001220703</ele>
        <time>2023-05-21T10:32:00.000Z</time>
      </trkpt>
      <trkpt lat="47.8229" lon="7.1456">
        <ele>463.60000610352</ele>
        <time>2023-05-21T10:32:01.000Z</time>
      </trkpt>
      <trkpt lat="47.82286" lon="7.14572">
        <ele>463</ele>
        <time>2023-05-21T10:32:02.000Z</time>
      </trkpt>
      <trkpt lat="47.82282" lon="7.14585">
        <ele>462.20001220703</ele>
        <time>2023-05-21T10:32:03.000Z</time>
      </trkpt>
      <trkpt lat="47.82278" lon="7.14598">
        <ele>461.39999389648</ele>
        <time>2023-05-21T10:32:04.000Z</time>
      </trkpt>
      <trkpt lat="47.82274" lon="7.1461">
        <ele>460.79998779297</ele>
        <time>2023-05-21T10:32:05.000Z</time>
      </trkpt>
      <trkpt lat="47.82271" lon="7.14621">
        <ele>460</ele>
        <time>2023-05-21T10:32:06.000Z</time>
      </trkpt>
      <trkpt lat="47.82268" lon="7.14632">
        <ele>459.20001220703</ele>
        <time>2023-05-21T10:32:07.000Z</time>
      </trkpt>
      <trkpt lat="47.82267" lon="7.14642">
        <ele>458.39999389648</ele>
        <time>2023-05-21T10:32:08.000Z</time>
      </trkpt>
      <trkpt lat="47.82266" lon="7.14652">
        <ele>457.79998779297</ele>
        <time>2023-05-21T10:32:09.000Z</time>
      </trkpt>
      <trkpt lat="47.82263" lon="7.1466">
        <ele>457.20001220703</ele>
        <time>2023-05-21T10:32:10.000Z</time>
      </trkpt>
      <trkpt lat="47.82259" lon="7.14667">
        <ele>456.60000610352</ele>
        <time>2023-05-21T10:32:11.000Z</time>
      </trkpt>
      <trkpt lat="47.82255" lon="7.14671">
        <ele>456.20001220703</ele>
        <time>2023-05-21T10:32:12.000Z</time>
      </trkpt>
      <trkpt lat="47.82251" lon="7.14673">
        <ele>455.60000610352</ele>
        <time>2023-05-21T10:32:13.000Z</time>
      </trkpt>
      <trkpt lat="47.82239" lon="7.14675">
        <ele>455.60000610352</ele>
        <time>2023-05-21T10:32:16.000Z</time>
      </trkpt>
      <trkpt lat="47.82233" lon="7.14677">
        <ele>455.60000610352</ele>
        <time>2023-05-21T10:32:18.000Z</time>
      </trkpt>
      <trkpt lat="47.8222" lon="7.14687">
        <ele>456</ele>
        <time>2023-05-21T10:32:23.000Z</time>
      </trkpt>
      <trkpt lat="47.82218" lon="7.1469">
        <ele>457</ele>
        <time>2023-05-21T10:32:24.000Z</time>
      </trkpt>
      <trkpt lat="47.82216" lon="7.14693">
        <ele>457.39999389648</ele>
        <time>2023-05-21T10:32:25.000Z</time>
      </trkpt>
      <trkpt lat="47.82214" lon="7.14696">
        <ele>457.79998779297</ele>
        <time>2023-05-21T10:32:26.000Z</time>
      </trkpt>
      <trkpt lat="47.82208" lon="7.14706">
        <ele>457.79998779297</ele>
        <time>2023-05-21T10:32:29.000Z</time>
      </trkpt>
      <trkpt lat="47.82196" lon="7.14732">
        <ele>457.79998779297</ele>
        <time>2023-05-21T10:32:36.000Z</time>
      </trkpt>
      <trkpt lat="47.82183" lon="7.1475">
        <ele>457.79998779297</ele>
        <time>2023-05-21T10:32:41.000Z</time>
      </trkpt>
      <trkpt lat="47.82174" lon="7.14768">
        <ele>457.79998779297</ele>
        <time>2023-05-21T10:32:46.000Z</time>
      </trkpt>
      <trkpt lat="47.8216" lon="7.14794">
        <ele>457.79998779297</ele>
        <time>2023-05-21T10:32:52.000Z</time>
      </trkpt>
      <trkpt lat="47.82144" lon="7.14816">
        <ele>457.79998779297</ele>
        <time>2023-05-21T10:32:59.000Z</time>
      </trkpt>
      <trkpt lat="47.82132" lon="7.1483">
        <ele>457.79998779297</ele>
        <time>2023-05-21T10:33:03.000Z</time>
      </trkpt>
      <trkpt lat="47.82129" lon="7.14835">
        <ele>457.79998779297</ele>
        <time>2023-05-21T10:33:04.000Z</time>
      </trkpt>
      <trkpt lat="47.82118" lon="7.14855">
        <ele>457.79998779297</ele>
        <time>2023-05-21T10:33:08.000Z</time>
      </trkpt>
      <trkpt lat="47.82103" lon="7.14895">
        <ele>457.79998779297</ele>
        <time>2023-05-21T10:33:14.000Z</time>
      </trkpt>
      <trkpt lat="47.82101" lon="7.14901">
        <ele>457.39999389648</ele>
        <time>2023-05-21T10:33:15.000Z</time>
      </trkpt>
      <trkpt lat="47.82097" lon="7.14906">
        <ele>457</ele>
        <time>2023-05-21T10:33:16.000Z</time>
      </trkpt>
      <trkpt lat="47.82094" lon="7.14912">
        <ele>456.60000610352</ele>
        <time>2023-05-21T10:33:17.000Z</time>
      </trkpt>
      <trkpt lat="47.82091" lon="7.14918">
        <ele>456.20001220703</ele>
        <time>2023-05-21T10:33:18.000Z</time>
      </trkpt>
      <trkpt lat="47.82088" lon="7.14923">
        <ele>455.79998779297</ele>
        <time>2023-05-21T10:33:19.000Z</time>
      </trkpt>
      <trkpt lat="47.82085" lon="7.14928">
        <ele>455.79998779297</ele>
        <time>2023-05-21T10:33:20.000Z</time>
      </trkpt>
      <trkpt lat="47.82075" lon="7.14949">
        <ele>455.39999389648</ele>
        <time>2023-05-21T10:33:24.000Z</time>
      </trkpt>
      <trkpt lat="47.82073" lon="7.14955">
        <ele>455</ele>
        <time>2023-05-21T10:33:25.000Z</time>
      </trkpt>
      <trkpt lat="47.82071" lon="7.1496">
        <ele>454.60000610352</ele>
        <time>2023-05-21T10:33:26.000Z</time>
      </trkpt>
      <trkpt lat="47.82069" lon="7.14965">
        <ele>454.20001220703</ele>
        <time>2023-05-21T10:33:27.000Z</time>
      </trkpt>
      <trkpt lat="47.82067" lon="7.14971">
        <ele>453.79998779297</ele>
        <time>2023-05-21T10:33:28.000Z</time>
      </trkpt>
      <trkpt lat="47.82059" lon="7.14995">
        <ele>453.79998779297</ele>
        <time>2023-05-21T10:33:33.000Z</time>
      </trkpt>
      <trkpt lat="47.82052" lon="7.15012">
        <ele>453.79998779297</ele>
        <time>2023-05-21T10:33:38.000Z</time>
      </trkpt>
      <trkpt lat="47.82046" lon="7.15025">
        <ele>453.39999389648</ele>
        <time>2023-05-21T10:33:42.000Z</time>
      </trkpt>
      <trkpt lat="47.82043" lon="7.1503">
        <ele>453</ele>
        <time>2023-05-21T10:33:43.000Z</time>
      </trkpt>
      <trkpt lat="47.82041" lon="7.15034">
        <ele>452.60000610352</ele>
        <time>2023-05-21T10:33:44.000Z</time>
      </trkpt>
      <trkpt lat="47.82039" lon="7.15037">
        <ele>452</ele>
        <time>2023-05-21T10:33:45.000Z</time>
      </trkpt>
      <trkpt lat="47.82036" lon="7.15041">
        <ele>451.60000610352</ele>
        <time>2023-05-21T10:33:46.000Z</time>
      </trkpt>
      <trkpt lat="47.82032" lon="7.1505">
        <ele>451.60000610352</ele>
        <time>2023-05-21T10:33:49.000Z</time>
      </trkpt>
      <trkpt lat="47.82022" lon="7.15074">
        <ele>451.60000610352</ele>
        <time>2023-05-21T10:33:55.000Z</time>
      </trkpt>
      <trkpt lat="47.82023" lon="7.15083">
        <ele>451.20001220703</ele>
        <time>2023-05-21T10:33:57.000Z</time>
      </trkpt>
      <trkpt lat="47.82024" lon="7.15087">
        <ele>450.79998779297</ele>
        <time>2023-05-21T10:33:58.000Z</time>
      </trkpt>
      <trkpt lat="47.82026" lon="7.15091">
        <ele>450.39999389648</ele>
        <time>2023-05-21T10:33:59.000Z</time>
      </trkpt>
      <trkpt lat="47.82027" lon="7.15095">
        <ele>450</ele>
        <time>2023-05-21T10:34:00.000Z</time>
      </trkpt>
      <trkpt lat="47.82029" lon="7.151">
        <ele>449.60000610352</ele>
        <time>2023-05-21T10:34:01.000Z</time>
      </trkpt>
      <trkpt lat="47.82034" lon="7.1511">
        <ele>449</ele>
        <time>2023-05-21T10:34:03.000Z</time>
      </trkpt>
      <trkpt lat="47.82037" lon="7.15116">
        <ele>448.60000610352</ele>
        <time>2023-05-21T10:34:04.000Z</time>
      </trkpt>
      <trkpt lat="47.82042" lon="7.15119">
        <ele>448.20001220703</ele>
        <time>2023-05-21T10:34:05.000Z</time>
      </trkpt>
      <trkpt lat="47.82045" lon="7.15123">
        <ele>447.79998779297</ele>
        <time>2023-05-21T10:34:06.000Z</time>
      </trkpt>
      <trkpt lat="47.82047" lon="7.15129">
        <ele>447.39999389648</ele>
        <time>2023-05-21T10:34:07.000Z</time>
      </trkpt>
      <trkpt lat="47.82048" lon="7.15134">
        <ele>446.79998779297</ele>
        <time>2023-05-21T10:34:08.000Z</time>
      </trkpt>
      <trkpt lat="47.82049" lon="7.15138">
        <ele>446.20001220703</ele>
        <time>2023-05-21T10:34:09.000Z</time>
      </trkpt>
      <trkpt lat="47.8205" lon="7.15141">
        <ele>445.79998779297</ele>
        <time>2023-05-21T10:34:10.000Z</time>
      </trkpt>
      <trkpt lat="47.8205" lon="7.15145">
        <ele>445.20001220703</ele>
        <time>2023-05-21T10:34:11.000Z</time>
      </trkpt>
      <trkpt lat="47.82046" lon="7.15156">
        <ele>445.20001220703</ele>
        <time>2023-05-21T10:34:13.000Z</time>
      </trkpt>
      <trkpt lat="47.82043" lon="7.15165">
        <ele>445.20001220703</ele>
        <time>2023-05-21T10:34:14.000Z</time>
      </trkpt>
      <trkpt lat="47.8204" lon="7.15173">
        <ele>445.20001220703</ele>
        <time>2023-05-21T10:34:15.000Z</time>
      </trkpt>
      <trkpt lat="47.82038" lon="7.1518">
        <ele>444.79998779297</ele>
        <time>2023-05-21T10:34:16.000Z</time>
      </trkpt>
      <trkpt lat="47.82038" lon="7.15188">
        <ele>444.39999389648</ele>
        <time>2023-05-21T10:34:17.000Z</time>
      </trkpt>
      <trkpt lat="47.8204" lon="7.15196">
        <ele>443.79998779297</ele>
        <time>2023-05-21T10:34:18.000Z</time>
      </trkpt>
      <trkpt lat="47.82043" lon="7.15202">
        <ele>443.39999389648</ele>
        <time>2023-05-21T10:34:19.000Z</time>
      </trkpt>
      <trkpt lat="47.82045" lon="7.15205">
        <ele>442.79998779297</ele>
        <time>2023-05-21T10:34:20.000Z</time>
      </trkpt>
      <trkpt lat="47.82047" lon="7.15207">
        <ele>442.20001220703</ele>
        <time>2023-05-21T10:34:21.000Z</time>
      </trkpt>
      <trkpt lat="47.82049" lon="7.15207">
        <ele>441.79998779297</ele>
        <time>2023-05-21T10:34:22.000Z</time>
      </trkpt>
      <trkpt lat="47.82048" lon="7.15206">
        <ele>441.20001220703</ele>
        <time>2023-05-21T10:34:23.000Z</time>
      </trkpt>
      <trkpt lat="47.82048" lon="7.15204">
        <ele>440.60000610352</ele>
        <time>2023-05-21T10:34:24.000Z</time>
      </trkpt>
      <trkpt lat="47.82043" lon="7.15199">
        <ele>440.60000610352</ele>
        <time>2023-05-21T10:34:27.000Z</time>
      </trkpt>
      <trkpt lat="47.82039" lon="7.15181">
        <ele>440.60000610352</ele>
        <time>2023-05-21T10:34:31.000Z</time>
      </trkpt>
      <trkpt lat="47.82044" lon="7.15164">
        <ele>440.60000610352</ele>
        <time>2023-05-21T10:34:34.000Z</time>
      </trkpt>
      <trkpt lat="47.82046" lon="7.15159">
        <ele>440.60000610352</ele>
        <time>2023-05-21T10:34:35.000Z</time>
      </trkpt>
      <trkpt lat="47.8205" lon="7.15139">
        <ele>440.60000610352</ele>
        <time>2023-05-21T10:34:40.000Z</time>
      </trkpt>
      <trkpt lat="47.82049" lon="7.15131">
        <ele>441</ele>
        <time>2023-05-21T10:34:42.000Z</time>
      </trkpt>
      <trkpt lat="47.82049" lon="7.15127">
        <ele>441.39999389648</ele>
        <time>2023-05-21T10:34:43.000Z</time>
      </trkpt>
      <trkpt lat="47.82048" lon="7.15123">
        <ele>441.79998779297</ele>
        <time>2023-05-21T10:34:44.000Z</time>
      </trkpt>
      <trkpt lat="47.82049" lon="7.1512">
        <ele>442.39999389648</ele>
        <time>2023-05-21T10:34:45.000Z</time>
      </trkpt>
      <trkpt lat="47.8205" lon="7.15116">
        <ele>442.79998779297</ele>
        <time>2023-05-21T10:34:46.000Z</time>
      </trkpt>
      <trkpt lat="47.82054" lon="7.1511">
        <ele>443.20001220703</ele>
        <time>2023-05-21T10:34:48.000Z</time>
      </trkpt>
      <trkpt lat="47.82056" lon="7.15108">
        <ele>443.60000610352</ele>
        <time>2023-05-21T10:34:49.000Z</time>
      </trkpt>
      <trkpt lat="47.82058" lon="7.15105">
        <ele>444</ele>
        <time>2023-05-21T10:34:50.000Z</time>
      </trkpt>
      <trkpt lat="47.8206" lon="7.15103">
        <ele>444.39999389648</ele>
        <time>2023-05-21T10:34:51.000Z</time>
      </trkpt>
      <trkpt lat="47.82062" lon="7.15101">
        <ele>444.79998779297</ele>
        <time>2023-05-21T10:34:52.000Z</time>
      </trkpt>
      <trkpt lat="47.82063" lon="7.15098">
        <ele>444.79998779297</ele>
        <time>2023-05-21T10:34:53.000Z</time>
      </trkpt>
      <trkpt lat="47.82068" lon="7.15091">
        <ele>444.79998779297</ele>
        <time>2023-05-21T10:34:58.000Z</time>
      </trkpt>
    </trkseg>
  </trk>
</gpx>